<?xml version="1.0" encoding="UTF-8" standalone="no" ?>
<gpx xmlns="http://www.topografix.com/GPX/1/1" xmlns:xsi="http://www.w3.org/2001/XMLSchema-instance" xsi:schemaLocation="http://www.topografix.com/GPX/1/1 http://www.topografix.com/GPX/1/1/gpx.xsd" version="1.1" creator="VisuGPX - https://www.visugpx.com">
  <metadata>
    <name>Balade en vallée d\'Aston</name>
    <desc><![CDATA[Balade en vallée d\'Aston]]></desc>
  </metadata>
  <trk>
    <name><![CDATA[Rando-course]]></name>
    <cmt><![CDATA[Aston]]></cmt>
    <trkseg>
      <trkpt lat="42.70509" lon="1.66466">
        <ele>1097.962890625</ele>
        <time>2012-06-09T06:53:23Z</time>
      </trkpt>
      <trkpt lat="42.70508" lon="1.66467">
        <ele>1097.962890625</ele>
        <time>2012-06-09T06:53:24Z</time>
      </trkpt>
      <trkpt lat="42.70511" lon="1.66469">
        <ele>1102.2888183594</ele>
        <time>2012-06-09T06:53:26Z</time>
      </trkpt>
      <trkpt lat="42.70517" lon="1.66477">
        <ele>1103.2502441406</ele>
        <time>2012-06-09T06:53:32Z</time>
      </trkpt>
      <trkpt lat="42.70521" lon="1.66477">
        <ele>1102.76953125</ele>
        <time>2012-06-09T06:53:36Z</time>
      </trkpt>
      <trkpt lat="42.70533" lon="1.66471">
        <ele>1101.8083496094</ele>
        <time>2012-06-09T06:53:47Z</time>
      </trkpt>
      <trkpt lat="42.70542" lon="1.66465">
        <ele>1101.3276367188</ele>
        <time>2012-06-09T06:53:56Z</time>
      </trkpt>
      <trkpt lat="42.70543" lon="1.66459">
        <ele>1101.3276367188</ele>
        <time>2012-06-09T06:54:00Z</time>
      </trkpt>
      <trkpt lat="42.70542" lon="1.66451">
        <ele>1101.3276367188</ele>
        <time>2012-06-09T06:54:08Z</time>
      </trkpt>
      <trkpt lat="42.70541" lon="1.66438">
        <ele>1105.1728515625</ele>
        <time>2012-06-09T06:54:15Z</time>
      </trkpt>
      <trkpt lat="42.7054" lon="1.66427">
        <ele>1107.576171875</ele>
        <time>2012-06-09T06:54:20Z</time>
      </trkpt>
      <trkpt lat="42.70541" lon="1.6642">
        <ele>1109.4987792969</ele>
        <time>2012-06-09T06:54:24Z</time>
      </trkpt>
      <trkpt lat="42.70541" lon="1.66415">
        <ele>1110.4599609375</ele>
        <time>2012-06-09T06:54:28Z</time>
      </trkpt>
      <trkpt lat="42.70545" lon="1.66408">
        <ele>1110.4599609375</ele>
        <time>2012-06-09T06:54:34Z</time>
      </trkpt>
      <trkpt lat="42.70546" lon="1.66406">
        <ele>1111.9020996094</ele>
        <time>2012-06-09T06:54:36Z</time>
      </trkpt>
      <trkpt lat="42.70546" lon="1.66401">
        <ele>1113.8244628906</ele>
        <time>2012-06-09T06:54:43Z</time>
      </trkpt>
      <trkpt lat="42.70543" lon="1.664">
        <ele>1112.86328125</ele>
        <time>2012-06-09T06:54:49Z</time>
      </trkpt>
      <trkpt lat="42.7054" lon="1.66398">
        <ele>1108.0568847656</ele>
        <time>2012-06-09T06:54:54Z</time>
      </trkpt>
      <trkpt lat="42.70539" lon="1.66394">
        <ele>1104.6921386719</ele>
        <time>2012-06-09T06:55:00Z</time>
      </trkpt>
      <trkpt lat="42.70536" lon="1.66389">
        <ele>1103.7309570312</ele>
        <time>2012-06-09T06:55:07Z</time>
      </trkpt>
      <trkpt lat="42.70533" lon="1.66388">
        <ele>1100.8469238281</ele>
        <time>2012-06-09T06:55:14Z</time>
      </trkpt>
      <trkpt lat="42.70528" lon="1.66385">
        <ele>1104.6921386719</ele>
        <time>2012-06-09T06:55:22Z</time>
      </trkpt>
      <trkpt lat="42.70527" lon="1.66382">
        <ele>1101.8083496094</ele>
        <time>2012-06-09T06:55:31Z</time>
      </trkpt>
      <trkpt lat="42.70527" lon="1.66378">
        <ele>1104.2116699219</ele>
        <time>2012-06-09T06:55:51Z</time>
      </trkpt>
      <trkpt lat="42.70529" lon="1.66378">
        <ele>1102.2888183594</ele>
        <time>2012-06-09T06:56:07Z</time>
      </trkpt>
      <trkpt lat="42.70527" lon="1.66375">
        <ele>1104.6921386719</ele>
        <time>2012-06-09T06:56:16Z</time>
      </trkpt>
      <trkpt lat="42.70523" lon="1.66373">
        <ele>1104.6921386719</ele>
        <time>2012-06-09T06:56:22Z</time>
      </trkpt>
      <trkpt lat="42.70522" lon="1.6637">
        <ele>1104.2116699219</ele>
        <time>2012-06-09T06:56:26Z</time>
      </trkpt>
      <trkpt lat="42.70519" lon="1.66369">
        <ele>1104.2116699219</ele>
        <time>2012-06-09T06:56:30Z</time>
      </trkpt>
      <trkpt lat="42.70518" lon="1.66369">
        <ele>1103.2502441406</ele>
        <time>2012-06-09T06:56:33Z</time>
      </trkpt>
      <trkpt lat="42.70514" lon="1.66368">
        <ele>1103.7309570312</ele>
        <time>2012-06-09T06:56:38Z</time>
      </trkpt>
      <trkpt lat="42.70514" lon="1.66364">
        <ele>1105.1728515625</ele>
        <time>2012-06-09T06:56:41Z</time>
      </trkpt>
      <trkpt lat="42.70512" lon="1.66357">
        <ele>1111.9020996094</ele>
        <time>2012-06-09T06:56:46Z</time>
      </trkpt>
      <trkpt lat="42.70512" lon="1.66353">
        <ele>1112.86328125</ele>
        <time>2012-06-09T06:56:49Z</time>
      </trkpt>
      <trkpt lat="42.7051" lon="1.66353">
        <ele>1116.2280273438</ele>
        <time>2012-06-09T06:56:56Z</time>
      </trkpt>
      <trkpt lat="42.7051" lon="1.66354">
        <ele>1116.7087402344</ele>
        <time>2012-06-09T06:56:57Z</time>
      </trkpt>
      <trkpt lat="42.70507" lon="1.66357">
        <ele>1120.0732421875</ele>
        <time>2012-06-09T06:57:02Z</time>
      </trkpt>
      <trkpt lat="42.70499" lon="1.66365">
        <ele>1121.9958496094</ele>
        <time>2012-06-09T06:57:08Z</time>
      </trkpt>
      <trkpt lat="42.70495" lon="1.66366">
        <ele>1125.8410644531</ele>
        <time>2012-06-09T06:57:14Z</time>
      </trkpt>
      <trkpt lat="42.7049" lon="1.66365">
        <ele>1125.8410644531</ele>
        <time>2012-06-09T06:57:20Z</time>
      </trkpt>
      <trkpt lat="42.70488" lon="1.66366">
        <ele>1128.2443847656</ele>
        <time>2012-06-09T06:57:24Z</time>
      </trkpt>
      <trkpt lat="42.70484" lon="1.66367">
        <ele>1126.3217773438</ele>
        <time>2012-06-09T06:57:29Z</time>
      </trkpt>
      <trkpt lat="42.7048" lon="1.66368">
        <ele>1125.3603515625</ele>
        <time>2012-06-09T06:57:37Z</time>
      </trkpt>
      <trkpt lat="42.70478" lon="1.66363">
        <ele>1128.2443847656</ele>
        <time>2012-06-09T06:57:43Z</time>
      </trkpt>
      <trkpt lat="42.70472" lon="1.66363">
        <ele>1131.6088867188</ele>
        <time>2012-06-09T06:57:50Z</time>
      </trkpt>
      <trkpt lat="42.70469" lon="1.66358">
        <ele>1131.6088867188</ele>
        <time>2012-06-09T06:57:57Z</time>
      </trkpt>
      <trkpt lat="42.7047" lon="1.66353">
        <ele>1134.0124511719</ele>
        <time>2012-06-09T06:58:04Z</time>
      </trkpt>
      <trkpt lat="42.70469" lon="1.66351">
        <ele>1136.4157714844</ele>
        <time>2012-06-09T06:58:09Z</time>
      </trkpt>
      <trkpt lat="42.70467" lon="1.66349">
        <ele>1135.9350585938</ele>
        <time>2012-06-09T06:58:16Z</time>
      </trkpt>
      <trkpt lat="42.70463" lon="1.66351">
        <ele>1134.9738769531</ele>
        <time>2012-06-09T06:58:23Z</time>
      </trkpt>
      <trkpt lat="42.70459" lon="1.6635">
        <ele>1134.9738769531</ele>
        <time>2012-06-09T06:58:29Z</time>
      </trkpt>
      <trkpt lat="42.70456" lon="1.66347">
        <ele>1134.4931640625</ele>
        <time>2012-06-09T06:58:37Z</time>
      </trkpt>
      <trkpt lat="42.70454" lon="1.66345">
        <ele>1134.0124511719</ele>
        <time>2012-06-09T06:58:42Z</time>
      </trkpt>
      <trkpt lat="42.70453" lon="1.6634">
        <ele>1133.5317382812</ele>
        <time>2012-06-09T06:58:47Z</time>
      </trkpt>
      <trkpt lat="42.70454" lon="1.66335">
        <ele>1133.5317382812</ele>
        <time>2012-06-09T06:58:53Z</time>
      </trkpt>
      <trkpt lat="42.70457" lon="1.6633">
        <ele>1132.5705566406</ele>
        <time>2012-06-09T06:58:59Z</time>
      </trkpt>
      <trkpt lat="42.70454" lon="1.66327">
        <ele>1135.4543457031</ele>
        <time>2012-06-09T06:59:05Z</time>
      </trkpt>
      <trkpt lat="42.70451" lon="1.66325">
        <ele>1138.3383789062</ele>
        <time>2012-06-09T06:59:11Z</time>
      </trkpt>
      <trkpt lat="42.70445" lon="1.66325">
        <ele>1142.18359375</ele>
        <time>2012-06-09T06:59:18Z</time>
      </trkpt>
      <trkpt lat="42.7044" lon="1.66325">
        <ele>1146.5095214844</ele>
        <time>2012-06-09T06:59:26Z</time>
      </trkpt>
      <trkpt lat="42.70438" lon="1.66324">
        <ele>1148.9128417969</ele>
        <time>2012-06-09T06:59:30Z</time>
      </trkpt>
      <trkpt lat="42.70443" lon="1.66318">
        <ele>1149.8742675781</ele>
        <time>2012-06-09T06:59:37Z</time>
      </trkpt>
      <trkpt lat="42.70446" lon="1.66315">
        <ele>1153.2387695312</ele>
        <time>2012-06-09T06:59:44Z</time>
      </trkpt>
      <trkpt lat="42.70448" lon="1.6631">
        <ele>1153.7194824219</ele>
        <time>2012-06-09T06:59:50Z</time>
      </trkpt>
      <trkpt lat="42.70449" lon="1.66307">
        <ele>1155.1613769531</ele>
        <time>2012-06-09T06:59:56Z</time>
      </trkpt>
      <trkpt lat="42.70448" lon="1.66305">
        <ele>1157.5646972656</ele>
        <time>2012-06-09T07:00:02Z</time>
      </trkpt>
      <trkpt lat="42.70449" lon="1.66302">
        <ele>1160.9291992188</ele>
        <time>2012-06-09T07:00:07Z</time>
      </trkpt>
      <trkpt lat="42.7045" lon="1.663">
        <ele>1163.3325195312</ele>
        <time>2012-06-09T07:00:11Z</time>
      </trkpt>
      <trkpt lat="42.70452" lon="1.66292">
        <ele>1163.8129882812</ele>
        <time>2012-06-09T07:00:16Z</time>
      </trkpt>
      <trkpt lat="42.70453" lon="1.66288">
        <ele>1164.2939453125</ele>
        <time>2012-06-09T07:00:20Z</time>
      </trkpt>
      <trkpt lat="42.70457" lon="1.66277">
        <ele>1163.8129882812</ele>
        <time>2012-06-09T07:00:28Z</time>
      </trkpt>
      <trkpt lat="42.70462" lon="1.66269">
        <ele>1163.8129882812</ele>
        <time>2012-06-09T07:00:37Z</time>
      </trkpt>
      <trkpt lat="42.70462" lon="1.66264">
        <ele>1163.3325195312</ele>
        <time>2012-06-09T07:00:43Z</time>
      </trkpt>
      <trkpt lat="42.70461" lon="1.6626">
        <ele>1164.2939453125</ele>
        <time>2012-06-09T07:00:49Z</time>
      </trkpt>
      <trkpt lat="42.70462" lon="1.66256">
        <ele>1163.3325195312</ele>
        <time>2012-06-09T07:00:53Z</time>
      </trkpt>
      <trkpt lat="42.70462" lon="1.66251">
        <ele>1164.2939453125</ele>
        <time>2012-06-09T07:00:59Z</time>
      </trkpt>
      <trkpt lat="42.7046" lon="1.66248">
        <ele>1168.6198730469</ele>
        <time>2012-06-09T07:01:06Z</time>
      </trkpt>
      <trkpt lat="42.70459" lon="1.66247">
        <ele>1171.5036621094</ele>
        <time>2012-06-09T07:01:12Z</time>
      </trkpt>
      <trkpt lat="42.70457" lon="1.66248">
        <ele>1174.3876953125</ele>
        <time>2012-06-09T07:01:17Z</time>
      </trkpt>
      <trkpt lat="42.70454" lon="1.66246">
        <ele>1174.8684082031</ele>
        <time>2012-06-09T07:01:25Z</time>
      </trkpt>
      <trkpt lat="42.70449" lon="1.66246">
        <ele>1176.791015625</ele>
        <time>2012-06-09T07:01:33Z</time>
      </trkpt>
      <trkpt lat="42.70448" lon="1.66239">
        <ele>1175.3488769531</ele>
        <time>2012-06-09T07:01:39Z</time>
      </trkpt>
      <trkpt lat="42.70448" lon="1.66235">
        <ele>1176.3103027344</ele>
        <time>2012-06-09T07:01:44Z</time>
      </trkpt>
      <trkpt lat="42.70449" lon="1.66231">
        <ele>1177.2717285156</ele>
        <time>2012-06-09T07:01:50Z</time>
      </trkpt>
      <trkpt lat="42.7045" lon="1.66226">
        <ele>1176.3103027344</ele>
        <time>2012-06-09T07:01:56Z</time>
      </trkpt>
      <trkpt lat="42.70448" lon="1.66223">
        <ele>1178.2329101562</ele>
        <time>2012-06-09T07:02:02Z</time>
      </trkpt>
      <trkpt lat="42.70447" lon="1.66218">
        <ele>1181.59765625</ele>
        <time>2012-06-09T07:02:09Z</time>
      </trkpt>
      <trkpt lat="42.70446" lon="1.66216">
        <ele>1182.0783691406</ele>
        <time>2012-06-09T07:02:14Z</time>
      </trkpt>
      <trkpt lat="42.70446" lon="1.66212">
        <ele>1183.5202636719</ele>
        <time>2012-06-09T07:02:19Z</time>
      </trkpt>
      <trkpt lat="42.70448" lon="1.66204">
        <ele>1184.0009765625</ele>
        <time>2012-06-09T07:02:24Z</time>
      </trkpt>
      <trkpt lat="42.70449" lon="1.662">
        <ele>1185.4428710938</ele>
        <time>2012-06-09T07:02:30Z</time>
      </trkpt>
      <trkpt lat="42.70447" lon="1.66199">
        <ele>1188.8076171875</ele>
        <time>2012-06-09T07:02:36Z</time>
      </trkpt>
      <trkpt lat="42.70446" lon="1.66201">
        <ele>1194.5751953125</ele>
        <time>2012-06-09T07:02:44Z</time>
      </trkpt>
      <trkpt lat="42.70444" lon="1.66202">
        <ele>1196.017578125</ele>
        <time>2012-06-09T07:02:49Z</time>
      </trkpt>
      <trkpt lat="42.70443" lon="1.66199">
        <ele>1196.017578125</ele>
        <time>2012-06-09T07:02:54Z</time>
      </trkpt>
      <trkpt lat="42.70442" lon="1.66196">
        <ele>1196.017578125</ele>
        <time>2012-06-09T07:02:58Z</time>
      </trkpt>
      <trkpt lat="42.7044" lon="1.66192">
        <ele>1196.9787597656</ele>
        <time>2012-06-09T07:03:03Z</time>
      </trkpt>
      <trkpt lat="42.70438" lon="1.6619">
        <ele>1196.4982910156</ele>
        <time>2012-06-09T07:03:09Z</time>
      </trkpt>
      <trkpt lat="42.70434" lon="1.66192">
        <ele>1196.017578125</ele>
        <time>2012-06-09T07:03:15Z</time>
      </trkpt>
      <trkpt lat="42.70431" lon="1.66192">
        <ele>1196.9787597656</ele>
        <time>2012-06-09T07:03:21Z</time>
      </trkpt>
      <trkpt lat="42.70425" lon="1.66195">
        <ele>1199.3820800781</ele>
        <time>2012-06-09T07:03:27Z</time>
      </trkpt>
      <trkpt lat="42.70419" lon="1.66198">
        <ele>1201.7854003906</ele>
        <time>2012-06-09T07:03:34Z</time>
      </trkpt>
      <trkpt lat="42.70417" lon="1.66196">
        <ele>1201.7854003906</ele>
        <time>2012-06-09T07:03:39Z</time>
      </trkpt>
      <trkpt lat="42.70414" lon="1.66195">
        <ele>1203.7080078125</ele>
        <time>2012-06-09T07:03:45Z</time>
      </trkpt>
      <trkpt lat="42.7041" lon="1.66195">
        <ele>1205.6306152344</ele>
        <time>2012-06-09T07:03:51Z</time>
      </trkpt>
      <trkpt lat="42.70407" lon="1.66197">
        <ele>1205.1499023438</ele>
        <time>2012-06-09T07:03:55Z</time>
      </trkpt>
      <trkpt lat="42.70402" lon="1.66197">
        <ele>1206.591796875</ele>
        <time>2012-06-09T07:04:02Z</time>
      </trkpt>
      <trkpt lat="42.70398" lon="1.66198">
        <ele>1208.0339355469</ele>
        <time>2012-06-09T07:04:08Z</time>
      </trkpt>
      <trkpt lat="42.70395" lon="1.66203">
        <ele>1211.8791503906</ele>
        <time>2012-06-09T07:04:14Z</time>
      </trkpt>
      <trkpt lat="42.7039" lon="1.66204">
        <ele>1212.8405761719</ele>
        <time>2012-06-09T07:04:20Z</time>
      </trkpt>
      <trkpt lat="42.70386" lon="1.66206">
        <ele>1215.2438964844</ele>
        <time>2012-06-09T07:04:25Z</time>
      </trkpt>
      <trkpt lat="42.70379" lon="1.66205">
        <ele>1211.8791503906</ele>
        <time>2012-06-09T07:04:33Z</time>
      </trkpt>
      <trkpt lat="42.70374" lon="1.66205">
        <ele>1212.8405761719</ele>
        <time>2012-06-09T07:04:39Z</time>
      </trkpt>
      <trkpt lat="42.70372" lon="1.66204">
        <ele>1212.3598632812</ele>
        <time>2012-06-09T07:04:42Z</time>
      </trkpt>
      <trkpt lat="42.70367" lon="1.66204">
        <ele>1212.3598632812</ele>
        <time>2012-06-09T07:04:46Z</time>
      </trkpt>
      <trkpt lat="42.70361" lon="1.66206">
        <ele>1213.3212890625</ele>
        <time>2012-06-09T07:04:52Z</time>
      </trkpt>
      <trkpt lat="42.70351" lon="1.66206">
        <ele>1212.8405761719</ele>
        <time>2012-06-09T07:05:00Z</time>
      </trkpt>
      <trkpt lat="42.7035" lon="1.66206">
        <ele>1212.8405761719</ele>
        <time>2012-06-09T07:05:01Z</time>
      </trkpt>
      <trkpt lat="42.70343" lon="1.66206">
        <ele>1212.3598632812</ele>
        <time>2012-06-09T07:05:08Z</time>
      </trkpt>
      <trkpt lat="42.70341" lon="1.66205">
        <ele>1212.3598632812</ele>
        <time>2012-06-09T07:05:10Z</time>
      </trkpt>
      <trkpt lat="42.70334" lon="1.66202">
        <ele>1212.8405761719</ele>
        <time>2012-06-09T07:05:18Z</time>
      </trkpt>
      <trkpt lat="42.70327" lon="1.66196">
        <ele>1210.9177246094</ele>
        <time>2012-06-09T07:05:25Z</time>
      </trkpt>
      <trkpt lat="42.70326" lon="1.66196">
        <ele>1210.4370117188</ele>
        <time>2012-06-09T07:05:26Z</time>
      </trkpt>
      <trkpt lat="42.70319" lon="1.66195">
        <ele>1210.9177246094</ele>
        <time>2012-06-09T07:05:32Z</time>
      </trkpt>
      <trkpt lat="42.70309" lon="1.6619">
        <ele>1213.3212890625</ele>
        <time>2012-06-09T07:05:40Z</time>
      </trkpt>
      <trkpt lat="42.70304" lon="1.66184">
        <ele>1214.7631835938</ele>
        <time>2012-06-09T07:05:45Z</time>
      </trkpt>
      <trkpt lat="42.70297" lon="1.66181">
        <ele>1216.205078125</ele>
        <time>2012-06-09T07:05:51Z</time>
      </trkpt>
      <trkpt lat="42.70289" lon="1.66176">
        <ele>1219.0891113281</ele>
        <time>2012-06-09T07:05:58Z</time>
      </trkpt>
      <trkpt lat="42.70282" lon="1.66174">
        <ele>1220.0502929688</ele>
        <time>2012-06-09T07:06:03Z</time>
      </trkpt>
      <trkpt lat="42.7028" lon="1.66171">
        <ele>1221.4921875</ele>
        <time>2012-06-09T07:06:05Z</time>
      </trkpt>
      <trkpt lat="42.70275" lon="1.66168">
        <ele>1223.4150390625</ele>
        <time>2012-06-09T07:06:09Z</time>
      </trkpt>
      <trkpt lat="42.70269" lon="1.66164">
        <ele>1223.8955078125</ele>
        <time>2012-06-09T07:06:14Z</time>
      </trkpt>
      <trkpt lat="42.70263" lon="1.66163">
        <ele>1226.7795410156</ele>
        <time>2012-06-09T07:06:20Z</time>
      </trkpt>
      <trkpt lat="42.70262" lon="1.66164">
        <ele>1228.2216796875</ele>
        <time>2012-06-09T07:06:21Z</time>
      </trkpt>
      <trkpt lat="42.70255" lon="1.66163">
        <ele>1229.6635742188</ele>
        <time>2012-06-09T07:06:27Z</time>
      </trkpt>
      <trkpt lat="42.70251" lon="1.66162">
        <ele>1228.2216796875</ele>
        <time>2012-06-09T07:06:32Z</time>
      </trkpt>
      <trkpt lat="42.70241" lon="1.66157">
        <ele>1226.7795410156</ele>
        <time>2012-06-09T07:06:40Z</time>
      </trkpt>
      <trkpt lat="42.7024" lon="1.66157">
        <ele>1226.7795410156</ele>
        <time>2012-06-09T07:06:41Z</time>
      </trkpt>
      <trkpt lat="42.70232" lon="1.66153">
        <ele>1227.2602539062</ele>
        <time>2012-06-09T07:06:47Z</time>
      </trkpt>
      <trkpt lat="42.70229" lon="1.66152">
        <ele>1229.6635742188</ele>
        <time>2012-06-09T07:06:51Z</time>
      </trkpt>
      <trkpt lat="42.70228" lon="1.66145">
        <ele>1227.7407226562</ele>
        <time>2012-06-09T07:06:55Z</time>
      </trkpt>
      <trkpt lat="42.70225" lon="1.66143">
        <ele>1228.2216796875</ele>
        <time>2012-06-09T07:06:59Z</time>
      </trkpt>
      <trkpt lat="42.70222" lon="1.66139">
        <ele>1227.7407226562</ele>
        <time>2012-06-09T07:07:05Z</time>
      </trkpt>
      <trkpt lat="42.70218" lon="1.66136">
        <ele>1229.1828613281</ele>
        <time>2012-06-09T07:07:10Z</time>
      </trkpt>
      <trkpt lat="42.70216" lon="1.66134">
        <ele>1228.7023925781</ele>
        <time>2012-06-09T07:07:12Z</time>
      </trkpt>
      <trkpt lat="42.70211" lon="1.66132">
        <ele>1229.6635742188</ele>
        <time>2012-06-09T07:07:17Z</time>
      </trkpt>
      <trkpt lat="42.70206" lon="1.66125">
        <ele>1232.0668945312</ele>
        <time>2012-06-09T07:07:26Z</time>
      </trkpt>
      <trkpt lat="42.70203" lon="1.66119">
        <ele>1231.5861816406</ele>
        <time>2012-06-09T07:07:31Z</time>
      </trkpt>
      <trkpt lat="42.70201" lon="1.66116">
        <ele>1231.5861816406</ele>
        <time>2012-06-09T07:07:34Z</time>
      </trkpt>
      <trkpt lat="42.70197" lon="1.66112">
        <ele>1231.5861816406</ele>
        <time>2012-06-09T07:07:42Z</time>
      </trkpt>
      <trkpt lat="42.70191" lon="1.66107">
        <ele>1233.0280761719</ele>
        <time>2012-06-09T07:07:49Z</time>
      </trkpt>
      <trkpt lat="42.70186" lon="1.66106">
        <ele>1234.9509277344</ele>
        <time>2012-06-09T07:07:54Z</time>
      </trkpt>
      <trkpt lat="42.70184" lon="1.66104">
        <ele>1235.912109375</ele>
        <time>2012-06-09T07:07:56Z</time>
      </trkpt>
      <trkpt lat="42.70181" lon="1.66099">
        <ele>1237.8347167969</ele>
        <time>2012-06-09T07:08:01Z</time>
      </trkpt>
      <trkpt lat="42.70174" lon="1.66094">
        <ele>1238.7961425781</ele>
        <time>2012-06-09T07:08:08Z</time>
      </trkpt>
      <trkpt lat="42.70173" lon="1.66092">
        <ele>1238.3154296875</ele>
        <time>2012-06-09T07:08:09Z</time>
      </trkpt>
      <trkpt lat="42.70166" lon="1.66086">
        <ele>1238.3154296875</ele>
        <time>2012-06-09T07:08:15Z</time>
      </trkpt>
      <trkpt lat="42.70166" lon="1.66084">
        <ele>1238.3154296875</ele>
        <time>2012-06-09T07:08:16Z</time>
      </trkpt>
      <trkpt lat="42.70165" lon="1.66073">
        <ele>1236.8732910156</ele>
        <time>2012-06-09T07:08:22Z</time>
      </trkpt>
      <trkpt lat="42.7016" lon="1.66062">
        <ele>1235.4313964844</ele>
        <time>2012-06-09T07:08:29Z</time>
      </trkpt>
      <trkpt lat="42.7016" lon="1.6606">
        <ele>1236.3928222656</ele>
        <time>2012-06-09T07:08:30Z</time>
      </trkpt>
      <trkpt lat="42.7016" lon="1.66052">
        <ele>1238.3154296875</ele>
        <time>2012-06-09T07:08:36Z</time>
      </trkpt>
      <trkpt lat="42.70159" lon="1.66049">
        <ele>1241.19921875</ele>
        <time>2012-06-09T07:08:41Z</time>
      </trkpt>
      <trkpt lat="42.70158" lon="1.66048">
        <ele>1241.6799316406</ele>
        <time>2012-06-09T07:08:42Z</time>
      </trkpt>
      <trkpt lat="42.70155" lon="1.66041">
        <ele>1249.3706054688</ele>
        <time>2012-06-09T07:08:48Z</time>
      </trkpt>
      <trkpt lat="42.70155" lon="1.66034">
        <ele>1251.7739257812</ele>
        <time>2012-06-09T07:08:53Z</time>
      </trkpt>
      <trkpt lat="42.70153" lon="1.66028">
        <ele>1249.8513183594</ele>
        <time>2012-06-09T07:08:59Z</time>
      </trkpt>
      <trkpt lat="42.70151" lon="1.66019">
        <ele>1246.9672851562</ele>
        <time>2012-06-09T07:09:06Z</time>
      </trkpt>
      <trkpt lat="42.70147" lon="1.66009">
        <ele>1246.0061035156</ele>
        <time>2012-06-09T07:09:12Z</time>
      </trkpt>
      <trkpt lat="42.70145" lon="1.66004">
        <ele>1247.4479980469</ele>
        <time>2012-06-09T07:09:17Z</time>
      </trkpt>
      <trkpt lat="42.70144" lon="1.66003">
        <ele>1247.9287109375</ele>
        <time>2012-06-09T07:09:18Z</time>
      </trkpt>
      <trkpt lat="42.70138" lon="1.66002">
        <ele>1251.2932128906</ele>
        <time>2012-06-09T07:09:25Z</time>
      </trkpt>
      <trkpt lat="42.70132" lon="1.66004">
        <ele>1254.1772460938</ele>
        <time>2012-06-09T07:09:32Z</time>
      </trkpt>
      <trkpt lat="42.70129" lon="1.66005">
        <ele>1255.1384277344</ele>
        <time>2012-06-09T07:09:39Z</time>
      </trkpt>
      <trkpt lat="42.70125" lon="1.66001">
        <ele>1255.619140625</ele>
        <time>2012-06-09T07:09:45Z</time>
      </trkpt>
      <trkpt lat="42.70123" lon="1.65998">
        <ele>1254.1772460938</ele>
        <time>2012-06-09T07:09:50Z</time>
      </trkpt>
      <trkpt lat="42.70121" lon="1.6599">
        <ele>1253.6965332031</ele>
        <time>2012-06-09T07:09:56Z</time>
      </trkpt>
      <trkpt lat="42.70122" lon="1.65986">
        <ele>1256.099609375</ele>
        <time>2012-06-09T07:10:02Z</time>
      </trkpt>
      <trkpt lat="42.70121" lon="1.65984">
        <ele>1258.5029296875</ele>
        <time>2012-06-09T07:10:08Z</time>
      </trkpt>
      <trkpt lat="42.70119" lon="1.65981">
        <ele>1259.9448242188</ele>
        <time>2012-06-09T07:10:12Z</time>
      </trkpt>
      <trkpt lat="42.70119" lon="1.65975">
        <ele>1258.9836425781</ele>
        <time>2012-06-09T07:10:18Z</time>
      </trkpt>
      <trkpt lat="42.7012" lon="1.65973">
        <ele>1260.42578125</ele>
        <time>2012-06-09T07:10:23Z</time>
      </trkpt>
      <trkpt lat="42.70123" lon="1.65972">
        <ele>1263.3098144531</ele>
        <time>2012-06-09T07:10:29Z</time>
      </trkpt>
      <trkpt lat="42.70126" lon="1.6597">
        <ele>1267.1550292969</ele>
        <time>2012-06-09T07:10:35Z</time>
      </trkpt>
      <trkpt lat="42.70128" lon="1.65968">
        <ele>1269.0776367188</ele>
        <time>2012-06-09T07:10:39Z</time>
      </trkpt>
      <trkpt lat="42.70131" lon="1.65966">
        <ele>1270.51953125</ele>
        <time>2012-06-09T07:10:44Z</time>
      </trkpt>
      <trkpt lat="42.70134" lon="1.65964">
        <ele>1270.51953125</ele>
        <time>2012-06-09T07:10:48Z</time>
      </trkpt>
      <trkpt lat="42.70137" lon="1.65962">
        <ele>1269.5583496094</ele>
        <time>2012-06-09T07:10:54Z</time>
      </trkpt>
      <trkpt lat="42.70142" lon="1.65961">
        <ele>1270.51953125</ele>
        <time>2012-06-09T07:11:00Z</time>
      </trkpt>
      <trkpt lat="42.70148" lon="1.65963">
        <ele>1271.9614257812</ele>
        <time>2012-06-09T07:11:06Z</time>
      </trkpt>
      <trkpt lat="42.70152" lon="1.65963">
        <ele>1273.8840332031</ele>
        <time>2012-06-09T07:11:11Z</time>
      </trkpt>
      <trkpt lat="42.70158" lon="1.65969">
        <ele>1275.806640625</ele>
        <time>2012-06-09T07:11:22Z</time>
      </trkpt>
      <trkpt lat="42.70161" lon="1.6597">
        <ele>1275.806640625</ele>
        <time>2012-06-09T07:11:26Z</time>
      </trkpt>
      <trkpt lat="42.70164" lon="1.65975">
        <ele>1280.1328125</ele>
        <time>2012-06-09T07:11:31Z</time>
      </trkpt>
      <trkpt lat="42.70164" lon="1.65972">
        <ele>1282.0554199219</ele>
        <time>2012-06-09T07:11:33Z</time>
      </trkpt>
      <trkpt lat="42.70166" lon="1.65966">
        <ele>1281.0942382812</ele>
        <time>2012-06-09T07:11:40Z</time>
      </trkpt>
      <trkpt lat="42.70168" lon="1.65966">
        <ele>1278.2102050781</ele>
        <time>2012-06-09T07:11:53Z</time>
      </trkpt>
      <trkpt lat="42.70169" lon="1.65966">
        <ele>1276.2875976562</ele>
        <time>2012-06-09T07:12:03Z</time>
      </trkpt>
      <trkpt lat="42.70169" lon="1.6597">
        <ele>1273.8840332031</ele>
        <time>2012-06-09T07:12:22Z</time>
      </trkpt>
      <trkpt lat="42.70166" lon="1.65976">
        <ele>1275.3259277344</ele>
        <time>2012-06-09T07:12:30Z</time>
      </trkpt>
      <trkpt lat="42.70166" lon="1.65975">
        <ele>1275.3259277344</ele>
        <time>2012-06-09T07:12:46Z</time>
      </trkpt>
      <trkpt lat="42.70166" lon="1.65974">
        <ele>1275.3259277344</ele>
        <time>2012-06-09T07:12:54Z</time>
      </trkpt>
      <trkpt lat="42.70166" lon="1.65974">
        <ele>1275.3259277344</ele>
        <time>2012-06-09T07:13:03Z</time>
      </trkpt>
      <trkpt lat="42.70165" lon="1.65975">
        <ele>1275.806640625</ele>
        <time>2012-06-09T07:13:10Z</time>
      </trkpt>
      <trkpt lat="42.70165" lon="1.65975">
        <ele>1276.2875976562</ele>
        <time>2012-06-09T07:13:16Z</time>
      </trkpt>
      <trkpt lat="42.70157" lon="1.65989">
        <ele>1279.1713867188</ele>
        <time>2012-06-09T07:13:32Z</time>
      </trkpt>
      <trkpt lat="42.7016" lon="1.65988">
        <ele>1276.7683105469</ele>
        <time>2012-06-09T07:13:43Z</time>
      </trkpt>
      <trkpt lat="42.70162" lon="1.65983">
        <ele>1276.2875976562</ele>
        <time>2012-06-09T07:13:54Z</time>
      </trkpt>
      <trkpt lat="42.70163" lon="1.6598">
        <ele>1276.2875976562</ele>
        <time>2012-06-09T07:14:02Z</time>
      </trkpt>
      <trkpt lat="42.70163" lon="1.65977">
        <ele>1276.7683105469</ele>
        <time>2012-06-09T07:14:12Z</time>
      </trkpt>
      <trkpt lat="42.70163" lon="1.65975">
        <ele>1278.6909179688</ele>
        <time>2012-06-09T07:14:21Z</time>
      </trkpt>
      <trkpt lat="42.70164" lon="1.65968">
        <ele>1280.1328125</ele>
        <time>2012-06-09T07:14:28Z</time>
      </trkpt>
      <trkpt lat="42.70162" lon="1.65963">
        <ele>1282.0554199219</ele>
        <time>2012-06-09T07:14:34Z</time>
      </trkpt>
      <trkpt lat="42.70162" lon="1.6596">
        <ele>1283.4973144531</ele>
        <time>2012-06-09T07:14:38Z</time>
      </trkpt>
      <trkpt lat="42.70161" lon="1.65958">
        <ele>1283.4973144531</ele>
        <time>2012-06-09T07:14:42Z</time>
      </trkpt>
      <trkpt lat="42.70159" lon="1.65952">
        <ele>1282.5361328125</ele>
        <time>2012-06-09T07:14:47Z</time>
      </trkpt>
      <trkpt lat="42.70156" lon="1.65947">
        <ele>1281.0942382812</ele>
        <time>2012-06-09T07:14:51Z</time>
      </trkpt>
      <trkpt lat="42.70156" lon="1.65941">
        <ele>1281.0942382812</ele>
        <time>2012-06-09T07:14:56Z</time>
      </trkpt>
      <trkpt lat="42.70155" lon="1.65936">
        <ele>1284.939453125</ele>
        <time>2012-06-09T07:15:02Z</time>
      </trkpt>
      <trkpt lat="42.70156" lon="1.65928">
        <ele>1286.8618164062</ele>
        <time>2012-06-09T07:15:08Z</time>
      </trkpt>
      <trkpt lat="42.70155" lon="1.65919">
        <ele>1289.2651367188</ele>
        <time>2012-06-09T07:15:16Z</time>
      </trkpt>
      <trkpt lat="42.70153" lon="1.65916">
        <ele>1290.70703125</ele>
        <time>2012-06-09T07:15:20Z</time>
      </trkpt>
      <trkpt lat="42.70152" lon="1.6591">
        <ele>1290.70703125</ele>
        <time>2012-06-09T07:15:24Z</time>
      </trkpt>
      <trkpt lat="42.70151" lon="1.65907">
        <ele>1293.5913085938</ele>
        <time>2012-06-09T07:15:28Z</time>
      </trkpt>
      <trkpt lat="42.7015" lon="1.65903">
        <ele>1298.8784179688</ele>
        <time>2012-06-09T07:15:33Z</time>
      </trkpt>
      <trkpt lat="42.70149" lon="1.65897">
        <ele>1301.7624511719</ele>
        <time>2012-06-09T07:15:39Z</time>
      </trkpt>
      <trkpt lat="42.70147" lon="1.65892">
        <ele>1303.6850585938</ele>
        <time>2012-06-09T07:15:46Z</time>
      </trkpt>
      <trkpt lat="42.70147" lon="1.65887">
        <ele>1303.2043457031</ele>
        <time>2012-06-09T07:15:51Z</time>
      </trkpt>
      <trkpt lat="42.70145" lon="1.65884">
        <ele>1303.2043457031</ele>
        <time>2012-06-09T07:15:56Z</time>
      </trkpt>
      <trkpt lat="42.70143" lon="1.6588">
        <ele>1302.2429199219</ele>
        <time>2012-06-09T07:16:00Z</time>
      </trkpt>
      <trkpt lat="42.70141" lon="1.65876">
        <ele>1303.2043457031</ele>
        <time>2012-06-09T07:16:06Z</time>
      </trkpt>
      <trkpt lat="42.70143" lon="1.65871">
        <ele>1302.2429199219</ele>
        <time>2012-06-09T07:16:12Z</time>
      </trkpt>
      <trkpt lat="42.70148" lon="1.65871">
        <ele>1305.6076660156</ele>
        <time>2012-06-09T07:16:18Z</time>
      </trkpt>
      <trkpt lat="42.70152" lon="1.6587">
        <ele>1306.5688476562</ele>
        <time>2012-06-09T07:16:22Z</time>
      </trkpt>
      <trkpt lat="42.70156" lon="1.65869">
        <ele>1311.3757324219</ele>
        <time>2012-06-09T07:16:30Z</time>
      </trkpt>
      <trkpt lat="42.70155" lon="1.65867">
        <ele>1313.7788085938</ele>
        <time>2012-06-09T07:16:35Z</time>
      </trkpt>
      <trkpt lat="42.70153" lon="1.65865">
        <ele>1314.740234375</ele>
        <time>2012-06-09T07:16:41Z</time>
      </trkpt>
      <trkpt lat="42.7015" lon="1.65862">
        <ele>1317.1435546875</ele>
        <time>2012-06-09T07:16:46Z</time>
      </trkpt>
      <trkpt lat="42.70152" lon="1.65857">
        <ele>1317.1435546875</ele>
        <time>2012-06-09T07:16:51Z</time>
      </trkpt>
      <trkpt lat="42.7015" lon="1.65854">
        <ele>1317.6240234375</ele>
        <time>2012-06-09T07:16:56Z</time>
      </trkpt>
      <trkpt lat="42.70151" lon="1.65849">
        <ele>1318.5854492188</ele>
        <time>2012-06-09T07:17:00Z</time>
      </trkpt>
      <trkpt lat="42.7015" lon="1.65844">
        <ele>1318.5854492188</ele>
        <time>2012-06-09T07:17:07Z</time>
      </trkpt>
      <trkpt lat="42.70148" lon="1.65838">
        <ele>1318.1047363281</ele>
        <time>2012-06-09T07:17:13Z</time>
      </trkpt>
      <trkpt lat="42.70147" lon="1.65832">
        <ele>1321.4692382812</ele>
        <time>2012-06-09T07:17:20Z</time>
      </trkpt>
      <trkpt lat="42.70149" lon="1.6583">
        <ele>1321.9499511719</ele>
        <time>2012-06-09T07:17:25Z</time>
      </trkpt>
      <trkpt lat="42.7015" lon="1.65828">
        <ele>1321.4692382812</ele>
        <time>2012-06-09T07:17:30Z</time>
      </trkpt>
      <trkpt lat="42.7015" lon="1.65825">
        <ele>1320.02734375</ele>
        <time>2012-06-09T07:17:34Z</time>
      </trkpt>
      <trkpt lat="42.70148" lon="1.65819">
        <ele>1319.546875</ele>
        <time>2012-06-09T07:17:41Z</time>
      </trkpt>
      <trkpt lat="42.70148" lon="1.65813">
        <ele>1321.4692382812</ele>
        <time>2012-06-09T07:17:47Z</time>
      </trkpt>
      <trkpt lat="42.70146" lon="1.65806">
        <ele>1325.3146972656</ele>
        <time>2012-06-09T07:17:54Z</time>
      </trkpt>
      <trkpt lat="42.70147" lon="1.65798">
        <ele>1326.7568359375</ele>
        <time>2012-06-09T07:18:01Z</time>
      </trkpt>
      <trkpt lat="42.70144" lon="1.65792">
        <ele>1330.6020507812</ele>
        <time>2012-06-09T07:18:09Z</time>
      </trkpt>
      <trkpt lat="42.70144" lon="1.65789">
        <ele>1331.5632324219</ele>
        <time>2012-06-09T07:18:14Z</time>
      </trkpt>
      <trkpt lat="42.70142" lon="1.65787">
        <ele>1331.0827636719</ele>
        <time>2012-06-09T07:18:18Z</time>
      </trkpt>
      <trkpt lat="42.70142" lon="1.65781">
        <ele>1332.5246582031</ele>
        <time>2012-06-09T07:18:23Z</time>
      </trkpt>
      <trkpt lat="42.7014" lon="1.65774">
        <ele>1331.5632324219</ele>
        <time>2012-06-09T07:18:28Z</time>
      </trkpt>
      <trkpt lat="42.7014" lon="1.65767">
        <ele>1333.9665527344</ele>
        <time>2012-06-09T07:18:33Z</time>
      </trkpt>
      <trkpt lat="42.70135" lon="1.65757">
        <ele>1334.447265625</ele>
        <time>2012-06-09T07:18:40Z</time>
      </trkpt>
      <trkpt lat="42.70132" lon="1.65753">
        <ele>1333.4858398438</ele>
        <time>2012-06-09T07:18:44Z</time>
      </trkpt>
      <trkpt lat="42.70129" lon="1.65749">
        <ele>1333.4858398438</ele>
        <time>2012-06-09T07:18:49Z</time>
      </trkpt>
      <trkpt lat="42.70126" lon="1.65749">
        <ele>1336.3698730469</ele>
        <time>2012-06-09T07:18:55Z</time>
      </trkpt>
      <trkpt lat="42.70121" lon="1.65747">
        <ele>1337.8117675781</ele>
        <time>2012-06-09T07:19:00Z</time>
      </trkpt>
      <trkpt lat="42.70119" lon="1.65744">
        <ele>1338.7731933594</ele>
        <time>2012-06-09T07:19:06Z</time>
      </trkpt>
      <trkpt lat="42.70113" lon="1.65743">
        <ele>1337.3310546875</ele>
        <time>2012-06-09T07:19:13Z</time>
      </trkpt>
      <trkpt lat="42.70108" lon="1.65744">
        <ele>1339.2536621094</ele>
        <time>2012-06-09T07:19:18Z</time>
      </trkpt>
      <trkpt lat="42.70105" lon="1.65738">
        <ele>1338.7731933594</ele>
        <time>2012-06-09T07:19:25Z</time>
      </trkpt>
      <trkpt lat="42.70103" lon="1.65736">
        <ele>1338.7731933594</ele>
        <time>2012-06-09T07:19:30Z</time>
      </trkpt>
      <trkpt lat="42.70098" lon="1.65736">
        <ele>1342.6186523438</ele>
        <time>2012-06-09T07:19:36Z</time>
      </trkpt>
      <trkpt lat="42.70095" lon="1.65731">
        <ele>1345.5024414062</ele>
        <time>2012-06-09T07:19:43Z</time>
      </trkpt>
      <trkpt lat="42.70095" lon="1.65725">
        <ele>1346.9443359375</ele>
        <time>2012-06-09T07:19:48Z</time>
      </trkpt>
      <trkpt lat="42.70094" lon="1.65721">
        <ele>1345.9831542969</ele>
        <time>2012-06-09T07:19:53Z</time>
      </trkpt>
      <trkpt lat="42.70092" lon="1.65716">
        <ele>1343.5798339844</ele>
        <time>2012-06-09T07:19:58Z</time>
      </trkpt>
      <trkpt lat="42.70089" lon="1.65715">
        <ele>1343.5798339844</ele>
        <time>2012-06-09T07:20:00Z</time>
      </trkpt>
      <trkpt lat="42.70081" lon="1.65709">
        <ele>1345.5024414062</ele>
        <time>2012-06-09T07:20:08Z</time>
      </trkpt>
      <trkpt lat="42.70079" lon="1.65707">
        <ele>1345.5024414062</ele>
        <time>2012-06-09T07:20:10Z</time>
      </trkpt>
      <trkpt lat="42.70077" lon="1.65699">
        <ele>1345.0217285156</ele>
        <time>2012-06-09T07:20:15Z</time>
      </trkpt>
      <trkpt lat="42.70074" lon="1.65685">
        <ele>1346.4638671875</ele>
        <time>2012-06-09T07:20:23Z</time>
      </trkpt>
      <trkpt lat="42.70072" lon="1.65682">
        <ele>1348.3862304688</ele>
        <time>2012-06-09T07:20:28Z</time>
      </trkpt>
      <trkpt lat="42.70066" lon="1.65677">
        <ele>1346.4638671875</ele>
        <time>2012-06-09T07:20:35Z</time>
      </trkpt>
      <trkpt lat="42.70063" lon="1.65673">
        <ele>1347.4250488281</ele>
        <time>2012-06-09T07:20:40Z</time>
      </trkpt>
      <trkpt lat="42.70063" lon="1.65667">
        <ele>1354.154296875</ele>
        <time>2012-06-09T07:20:45Z</time>
      </trkpt>
      <trkpt lat="42.70058" lon="1.65663">
        <ele>1359.4416503906</ele>
        <time>2012-06-09T07:20:52Z</time>
      </trkpt>
      <trkpt lat="42.70054" lon="1.65657">
        <ele>1362.8061523438</ele>
        <time>2012-06-09T07:20:58Z</time>
      </trkpt>
      <trkpt lat="42.70049" lon="1.65651">
        <ele>1363.2868652344</ele>
        <time>2012-06-09T07:21:05Z</time>
      </trkpt>
      <trkpt lat="42.70045" lon="1.65649">
        <ele>1363.2868652344</ele>
        <time>2012-06-09T07:21:09Z</time>
      </trkpt>
      <trkpt lat="42.70041" lon="1.65649">
        <ele>1362.8061523438</ele>
        <time>2012-06-09T07:21:13Z</time>
      </trkpt>
      <trkpt lat="42.70035" lon="1.65649">
        <ele>1360.4028320312</ele>
        <time>2012-06-09T07:21:18Z</time>
      </trkpt>
      <trkpt lat="42.70029" lon="1.65643">
        <ele>1359.9221191406</ele>
        <time>2012-06-09T07:21:25Z</time>
      </trkpt>
      <trkpt lat="42.70023" lon="1.65645">
        <ele>1360.8835449219</ele>
        <time>2012-06-09T07:21:30Z</time>
      </trkpt>
      <trkpt lat="42.70015" lon="1.65649">
        <ele>1362.8061523438</ele>
        <time>2012-06-09T07:21:35Z</time>
      </trkpt>
      <trkpt lat="42.7001" lon="1.65651">
        <ele>1365.2094726562</ele>
        <time>2012-06-09T07:21:41Z</time>
      </trkpt>
      <trkpt lat="42.70005" lon="1.65652">
        <ele>1365.6901855469</ele>
        <time>2012-06-09T07:21:45Z</time>
      </trkpt>
      <trkpt lat="42.69995" lon="1.65649">
        <ele>1365.2094726562</ele>
        <time>2012-06-09T07:21:54Z</time>
      </trkpt>
      <trkpt lat="42.69993" lon="1.65645">
        <ele>1364.248046875</ele>
        <time>2012-06-09T07:21:58Z</time>
      </trkpt>
      <trkpt lat="42.6999" lon="1.65645">
        <ele>1364.248046875</ele>
        <time>2012-06-09T07:22:01Z</time>
      </trkpt>
      <trkpt lat="42.6998" lon="1.65648">
        <ele>1365.2094726562</ele>
        <time>2012-06-09T07:22:10Z</time>
      </trkpt>
      <trkpt lat="42.69973" lon="1.65645">
        <ele>1367.1320800781</ele>
        <time>2012-06-09T07:22:19Z</time>
      </trkpt>
      <trkpt lat="42.6997" lon="1.65643">
        <ele>1368.5739746094</ele>
        <time>2012-06-09T07:22:22Z</time>
      </trkpt>
      <trkpt lat="42.69967" lon="1.65637">
        <ele>1372.4194335938</ele>
        <time>2012-06-09T07:22:29Z</time>
      </trkpt>
      <trkpt lat="42.69963" lon="1.65633">
        <ele>1376.2646484375</ele>
        <time>2012-06-09T07:22:36Z</time>
      </trkpt>
      <trkpt lat="42.69957" lon="1.65629">
        <ele>1379.1484375</ele>
        <time>2012-06-09T07:22:41Z</time>
      </trkpt>
      <trkpt lat="42.69953" lon="1.65623">
        <ele>1381.5517578125</ele>
        <time>2012-06-09T07:22:48Z</time>
      </trkpt>
      <trkpt lat="42.6995" lon="1.65619">
        <ele>1382.0324707031</ele>
        <time>2012-06-09T07:22:51Z</time>
      </trkpt>
      <trkpt lat="42.69949" lon="1.65617">
        <ele>1381.5517578125</ele>
        <time>2012-06-09T07:22:53Z</time>
      </trkpt>
      <trkpt lat="42.69947" lon="1.65612">
        <ele>1381.0712890625</ele>
        <time>2012-06-09T07:22:59Z</time>
      </trkpt>
      <trkpt lat="42.69938" lon="1.6561">
        <ele>1382.5131835938</ele>
        <time>2012-06-09T07:23:07Z</time>
      </trkpt>
      <trkpt lat="42.69936" lon="1.65608">
        <ele>1385.3969726562</ele>
        <time>2012-06-09T07:23:10Z</time>
      </trkpt>
      <trkpt lat="42.69929" lon="1.65601">
        <ele>1388.28125</ele>
        <time>2012-06-09T07:23:17Z</time>
      </trkpt>
      <trkpt lat="42.69924" lon="1.65601">
        <ele>1390.2038574219</ele>
        <time>2012-06-09T07:23:23Z</time>
      </trkpt>
      <trkpt lat="42.6992" lon="1.65593">
        <ele>1390.6843261719</ele>
        <time>2012-06-09T07:23:31Z</time>
      </trkpt>
      <trkpt lat="42.69917" lon="1.65591">
        <ele>1390.6843261719</ele>
        <time>2012-06-09T07:23:36Z</time>
      </trkpt>
      <trkpt lat="42.69913" lon="1.65584">
        <ele>1390.6843261719</ele>
        <time>2012-06-09T07:23:43Z</time>
      </trkpt>
      <trkpt lat="42.69906" lon="1.65578">
        <ele>1392.6071777344</ele>
        <time>2012-06-09T07:23:49Z</time>
      </trkpt>
      <trkpt lat="42.69897" lon="1.65577">
        <ele>1392.1264648438</ele>
        <time>2012-06-09T07:23:56Z</time>
      </trkpt>
      <trkpt lat="42.69891" lon="1.65572">
        <ele>1390.2038574219</ele>
        <time>2012-06-09T07:24:02Z</time>
      </trkpt>
      <trkpt lat="42.69885" lon="1.65566">
        <ele>1389.2424316406</ele>
        <time>2012-06-09T07:24:08Z</time>
      </trkpt>
      <trkpt lat="42.69885" lon="1.65565">
        <ele>1388.7619628906</ele>
        <time>2012-06-09T07:24:09Z</time>
      </trkpt>
      <trkpt lat="42.69885" lon="1.65563">
        <ele>1387.8002929688</ele>
        <time>2012-06-09T07:24:11Z</time>
      </trkpt>
      <trkpt lat="42.69885" lon="1.6556">
        <ele>1385.8776855469</ele>
        <time>2012-06-09T07:24:18Z</time>
      </trkpt>
      <trkpt lat="42.69882" lon="1.65556">
        <ele>1384.9165039062</ele>
        <time>2012-06-09T07:24:23Z</time>
      </trkpt>
      <trkpt lat="42.69882" lon="1.65552">
        <ele>1382.9936523438</ele>
        <time>2012-06-09T07:24:27Z</time>
      </trkpt>
      <trkpt lat="42.6988" lon="1.65547">
        <ele>1380.5905761719</ele>
        <time>2012-06-09T07:24:34Z</time>
      </trkpt>
      <trkpt lat="42.69878" lon="1.65543">
        <ele>1378.66796875</ele>
        <time>2012-06-09T07:24:39Z</time>
      </trkpt>
      <trkpt lat="42.69875" lon="1.65543">
        <ele>1377.7065429688</ele>
        <time>2012-06-09T07:24:42Z</time>
      </trkpt>
      <trkpt lat="42.69868" lon="1.65553">
        <ele>1377.7065429688</ele>
        <time>2012-06-09T07:24:48Z</time>
      </trkpt>
      <trkpt lat="42.6987" lon="1.65551">
        <ele>1377.7065429688</ele>
        <time>2012-06-09T07:24:53Z</time>
      </trkpt>
      <trkpt lat="42.69868" lon="1.65549">
        <ele>1378.1872558594</ele>
        <time>2012-06-09T07:25:00Z</time>
      </trkpt>
      <trkpt lat="42.69864" lon="1.65547">
        <ele>1374.8227539062</ele>
        <time>2012-06-09T07:25:06Z</time>
      </trkpt>
      <trkpt lat="42.69859" lon="1.65546">
        <ele>1370.4965820312</ele>
        <time>2012-06-09T07:25:12Z</time>
      </trkpt>
      <trkpt lat="42.69857" lon="1.65543">
        <ele>1371.9384765625</ele>
        <time>2012-06-09T07:25:15Z</time>
      </trkpt>
      <trkpt lat="42.69857" lon="1.6554">
        <ele>1372.4194335938</ele>
        <time>2012-06-09T07:25:17Z</time>
      </trkpt>
      <trkpt lat="42.69854" lon="1.65535">
        <ele>1370.9772949219</ele>
        <time>2012-06-09T07:25:24Z</time>
      </trkpt>
      <trkpt lat="42.69851" lon="1.65531">
        <ele>1368.0932617188</ele>
        <time>2012-06-09T07:25:28Z</time>
      </trkpt>
      <trkpt lat="42.69848" lon="1.65526">
        <ele>1365.2094726562</ele>
        <time>2012-06-09T07:25:31Z</time>
      </trkpt>
      <trkpt lat="42.69843" lon="1.65525">
        <ele>1363.2868652344</ele>
        <time>2012-06-09T07:25:35Z</time>
      </trkpt>
      <trkpt lat="42.69842" lon="1.65513">
        <ele>1364.7287597656</ele>
        <time>2012-06-09T07:25:42Z</time>
      </trkpt>
      <trkpt lat="42.6984" lon="1.65506">
        <ele>1364.7287597656</ele>
        <time>2012-06-09T07:25:47Z</time>
      </trkpt>
      <trkpt lat="42.69836" lon="1.65501">
        <ele>1361.8449707031</ele>
        <time>2012-06-09T07:25:55Z</time>
      </trkpt>
      <trkpt lat="42.69831" lon="1.65499">
        <ele>1360.4028320312</ele>
        <time>2012-06-09T07:25:59Z</time>
      </trkpt>
      <trkpt lat="42.69827" lon="1.65495">
        <ele>1357.9997558594</ele>
        <time>2012-06-09T07:26:04Z</time>
      </trkpt>
      <trkpt lat="42.69824" lon="1.65493">
        <ele>1354.634765625</ele>
        <time>2012-06-09T07:26:08Z</time>
      </trkpt>
      <trkpt lat="42.69817" lon="1.65493">
        <ele>1354.634765625</ele>
        <time>2012-06-09T07:26:15Z</time>
      </trkpt>
      <trkpt lat="42.69808" lon="1.65496">
        <ele>1350.7895507812</ele>
        <time>2012-06-09T07:26:22Z</time>
      </trkpt>
      <trkpt lat="42.69803" lon="1.65499">
        <ele>1348.8669433594</ele>
        <time>2012-06-09T07:26:26Z</time>
      </trkpt>
      <trkpt lat="42.6979" lon="1.65508">
        <ele>1347.9057617188</ele>
        <time>2012-06-09T07:26:36Z</time>
      </trkpt>
      <trkpt lat="42.69789" lon="1.655">
        <ele>1346.9443359375</ele>
        <time>2012-06-09T07:26:41Z</time>
      </trkpt>
      <trkpt lat="42.69787" lon="1.65498">
        <ele>1347.4250488281</ele>
        <time>2012-06-09T07:26:43Z</time>
      </trkpt>
      <trkpt lat="42.69783" lon="1.65497">
        <ele>1348.3862304688</ele>
        <time>2012-06-09T07:26:48Z</time>
      </trkpt>
      <trkpt lat="42.69777" lon="1.65498">
        <ele>1349.8283691406</ele>
        <time>2012-06-09T07:26:54Z</time>
      </trkpt>
      <trkpt lat="42.69772" lon="1.65499">
        <ele>1348.8669433594</ele>
        <time>2012-06-09T07:27:01Z</time>
      </trkpt>
      <trkpt lat="42.69765" lon="1.655">
        <ele>1349.8283691406</ele>
        <time>2012-06-09T07:27:07Z</time>
      </trkpt>
      <trkpt lat="42.69764" lon="1.65498">
        <ele>1348.3862304688</ele>
        <time>2012-06-09T07:27:09Z</time>
      </trkpt>
      <trkpt lat="42.69761" lon="1.655">
        <ele>1343.5798339844</ele>
        <time>2012-06-09T07:27:15Z</time>
      </trkpt>
      <trkpt lat="42.69755" lon="1.65499">
        <ele>1341.1765136719</ele>
        <time>2012-06-09T07:27:20Z</time>
      </trkpt>
      <trkpt lat="42.69753" lon="1.65497">
        <ele>1339.2536621094</ele>
        <time>2012-06-09T07:27:22Z</time>
      </trkpt>
      <trkpt lat="42.69749" lon="1.65495">
        <ele>1336.8503417969</ele>
        <time>2012-06-09T07:27:26Z</time>
      </trkpt>
      <trkpt lat="42.69746" lon="1.65497">
        <ele>1337.8117675781</ele>
        <time>2012-06-09T07:27:33Z</time>
      </trkpt>
      <trkpt lat="42.69744" lon="1.65498">
        <ele>1339.2536621094</ele>
        <time>2012-06-09T07:27:41Z</time>
      </trkpt>
      <trkpt lat="42.69744" lon="1.655">
        <ele>1340.2153320312</ele>
        <time>2012-06-09T07:27:47Z</time>
      </trkpt>
      <trkpt lat="42.69746" lon="1.65503">
        <ele>1339.734375</ele>
        <time>2012-06-09T07:27:54Z</time>
      </trkpt>
      <trkpt lat="42.69751" lon="1.65508">
        <ele>1338.7731933594</ele>
        <time>2012-06-09T07:28:00Z</time>
      </trkpt>
      <trkpt lat="42.69754" lon="1.65508">
        <ele>1337.8117675781</ele>
        <time>2012-06-09T07:28:03Z</time>
      </trkpt>
      <trkpt lat="42.69755" lon="1.65516">
        <ele>1339.734375</ele>
        <time>2012-06-09T07:28:10Z</time>
      </trkpt>
      <trkpt lat="42.69754" lon="1.65518">
        <ele>1341.1765136719</ele>
        <time>2012-06-09T07:28:14Z</time>
      </trkpt>
      <trkpt lat="42.69751" lon="1.65517">
        <ele>1346.4638671875</ele>
        <time>2012-06-09T07:28:21Z</time>
      </trkpt>
      <trkpt lat="42.69747" lon="1.65515">
        <ele>1348.8669433594</ele>
        <time>2012-06-09T07:28:27Z</time>
      </trkpt>
      <trkpt lat="42.69743" lon="1.65513">
        <ele>1350.7895507812</ele>
        <time>2012-06-09T07:28:30Z</time>
      </trkpt>
      <trkpt lat="42.69734" lon="1.65511">
        <ele>1348.8669433594</ele>
        <time>2012-06-09T07:28:38Z</time>
      </trkpt>
      <trkpt lat="42.69729" lon="1.6551">
        <ele>1349.34765625</ele>
        <time>2012-06-09T07:28:43Z</time>
      </trkpt>
      <trkpt lat="42.69724" lon="1.65511">
        <ele>1344.060546875</ele>
        <time>2012-06-09T07:28:48Z</time>
      </trkpt>
      <trkpt lat="42.69721" lon="1.65509">
        <ele>1344.060546875</ele>
        <time>2012-06-09T07:28:52Z</time>
      </trkpt>
      <trkpt lat="42.69719" lon="1.65505">
        <ele>1343.0991210938</ele>
        <time>2012-06-09T07:28:55Z</time>
      </trkpt>
      <trkpt lat="42.69715" lon="1.65505">
        <ele>1345.0217285156</ele>
        <time>2012-06-09T07:29:00Z</time>
      </trkpt>
      <trkpt lat="42.69711" lon="1.65505">
        <ele>1345.0217285156</ele>
        <time>2012-06-09T07:29:03Z</time>
      </trkpt>
      <trkpt lat="42.69706" lon="1.65504">
        <ele>1345.0217285156</ele>
        <time>2012-06-09T07:29:10Z</time>
      </trkpt>
      <trkpt lat="42.69698" lon="1.65503">
        <ele>1344.060546875</ele>
        <time>2012-06-09T07:29:16Z</time>
      </trkpt>
      <trkpt lat="42.69693" lon="1.65503">
        <ele>1343.0991210938</ele>
        <time>2012-06-09T07:29:22Z</time>
      </trkpt>
      <trkpt lat="42.69691" lon="1.65498">
        <ele>1344.060546875</ele>
        <time>2012-06-09T07:29:29Z</time>
      </trkpt>
      <trkpt lat="42.69687" lon="1.65494">
        <ele>1344.060546875</ele>
        <time>2012-06-09T07:29:35Z</time>
      </trkpt>
      <trkpt lat="42.69683" lon="1.65494">
        <ele>1344.060546875</ele>
        <time>2012-06-09T07:29:38Z</time>
      </trkpt>
      <trkpt lat="42.69679" lon="1.65491">
        <ele>1347.9057617188</ele>
        <time>2012-06-09T07:29:43Z</time>
      </trkpt>
      <trkpt lat="42.69672" lon="1.65486">
        <ele>1355.1154785156</ele>
        <time>2012-06-09T07:29:51Z</time>
      </trkpt>
      <trkpt lat="42.69666" lon="1.6548">
        <ele>1361.8449707031</ele>
        <time>2012-06-09T07:29:58Z</time>
      </trkpt>
      <trkpt lat="42.6966" lon="1.65477">
        <ele>1360.4028320312</ele>
        <time>2012-06-09T07:30:05Z</time>
      </trkpt>
      <trkpt lat="42.69656" lon="1.65474">
        <ele>1359.4416503906</ele>
        <time>2012-06-09T07:30:10Z</time>
      </trkpt>
      <trkpt lat="42.69653" lon="1.65472">
        <ele>1359.4416503906</ele>
        <time>2012-06-09T07:30:14Z</time>
      </trkpt>
      <trkpt lat="42.69647" lon="1.6547">
        <ele>1356.0769042969</ele>
        <time>2012-06-09T07:30:21Z</time>
      </trkpt>
      <trkpt lat="42.69645" lon="1.65469">
        <ele>1353.1928710938</ele>
        <time>2012-06-09T07:30:23Z</time>
      </trkpt>
      <trkpt lat="42.69638" lon="1.65469">
        <ele>1346.9443359375</ele>
        <time>2012-06-09T07:30:28Z</time>
      </trkpt>
      <trkpt lat="42.69631" lon="1.65469">
        <ele>1345.0217285156</ele>
        <time>2012-06-09T07:30:34Z</time>
      </trkpt>
      <trkpt lat="42.69626" lon="1.65467">
        <ele>1345.0217285156</ele>
        <time>2012-06-09T07:30:39Z</time>
      </trkpt>
      <trkpt lat="42.69624" lon="1.65467">
        <ele>1344.060546875</ele>
        <time>2012-06-09T07:30:41Z</time>
      </trkpt>
      <trkpt lat="42.69619" lon="1.65464">
        <ele>1345.5024414062</ele>
        <time>2012-06-09T07:30:45Z</time>
      </trkpt>
      <trkpt lat="42.69613" lon="1.65461">
        <ele>1348.3862304688</ele>
        <time>2012-06-09T07:30:52Z</time>
      </trkpt>
      <trkpt lat="42.69613" lon="1.65461">
        <ele>1348.8669433594</ele>
        <time>2012-06-09T07:30:53Z</time>
      </trkpt>
      <trkpt lat="42.69609" lon="1.65451">
        <ele>1349.34765625</ele>
        <time>2012-06-09T07:31:01Z</time>
      </trkpt>
      <trkpt lat="42.69605" lon="1.65447">
        <ele>1347.9057617188</ele>
        <time>2012-06-09T07:31:06Z</time>
      </trkpt>
      <trkpt lat="42.696" lon="1.65443">
        <ele>1346.9443359375</ele>
        <time>2012-06-09T07:31:14Z</time>
      </trkpt>
      <trkpt lat="42.69595" lon="1.65438">
        <ele>1356.0769042969</ele>
        <time>2012-06-09T07:31:20Z</time>
      </trkpt>
      <trkpt lat="42.6959" lon="1.65437">
        <ele>1354.154296875</ele>
        <time>2012-06-09T07:31:24Z</time>
      </trkpt>
      <trkpt lat="42.69587" lon="1.65426">
        <ele>1370.0158691406</ele>
        <time>2012-06-09T07:31:30Z</time>
      </trkpt>
      <trkpt lat="42.6958" lon="1.65411">
        <ele>1393.0876464844</ele>
        <time>2012-06-09T07:31:38Z</time>
      </trkpt>
      <trkpt lat="42.69579" lon="1.65404">
        <ele>1401.7395019531</ele>
        <time>2012-06-09T07:31:43Z</time>
      </trkpt>
      <trkpt lat="42.69576" lon="1.65405">
        <ele>1396.9328613281</ele>
        <time>2012-06-09T07:31:48Z</time>
      </trkpt>
      <trkpt lat="42.69572" lon="1.65405">
        <ele>1388.28125</ele>
        <time>2012-06-09T07:31:54Z</time>
      </trkpt>
      <trkpt lat="42.69569" lon="1.65401">
        <ele>1388.28125</ele>
        <time>2012-06-09T07:32:00Z</time>
      </trkpt>
      <trkpt lat="42.69566" lon="1.65396">
        <ele>1387.3195800781</ele>
        <time>2012-06-09T07:32:05Z</time>
      </trkpt>
      <trkpt lat="42.69561" lon="1.65391">
        <ele>1379.1484375</ele>
        <time>2012-06-09T07:32:11Z</time>
      </trkpt>
      <trkpt lat="42.69555" lon="1.65387">
        <ele>1375.7839355469</ele>
        <time>2012-06-09T07:32:17Z</time>
      </trkpt>
      <trkpt lat="42.69553" lon="1.65386">
        <ele>1374.8227539062</ele>
        <time>2012-06-09T07:32:19Z</time>
      </trkpt>
      <trkpt lat="42.69548" lon="1.65382">
        <ele>1373.380859375</ele>
        <time>2012-06-09T07:32:24Z</time>
      </trkpt>
      <trkpt lat="42.69547" lon="1.65381">
        <ele>1373.380859375</ele>
        <time>2012-06-09T07:32:26Z</time>
      </trkpt>
      <trkpt lat="42.69543" lon="1.65375">
        <ele>1377.7065429688</ele>
        <time>2012-06-09T07:32:32Z</time>
      </trkpt>
      <trkpt lat="42.69539" lon="1.65373">
        <ele>1376.7453613281</ele>
        <time>2012-06-09T07:32:38Z</time>
      </trkpt>
      <trkpt lat="42.69533" lon="1.65372">
        <ele>1376.2646484375</ele>
        <time>2012-06-09T07:32:45Z</time>
      </trkpt>
      <trkpt lat="42.69529" lon="1.65369">
        <ele>1376.7453613281</ele>
        <time>2012-06-09T07:32:50Z</time>
      </trkpt>
      <trkpt lat="42.69524" lon="1.65363">
        <ele>1377.2260742188</ele>
        <time>2012-06-09T07:32:57Z</time>
      </trkpt>
      <trkpt lat="42.69522" lon="1.65362">
        <ele>1378.1872558594</ele>
        <time>2012-06-09T07:32:59Z</time>
      </trkpt>
      <trkpt lat="42.69518" lon="1.65355">
        <ele>1377.7065429688</ele>
        <time>2012-06-09T07:33:06Z</time>
      </trkpt>
      <trkpt lat="42.69518" lon="1.65353">
        <ele>1378.66796875</ele>
        <time>2012-06-09T07:33:07Z</time>
      </trkpt>
      <trkpt lat="42.69515" lon="1.65348">
        <ele>1377.2260742188</ele>
        <time>2012-06-09T07:33:12Z</time>
      </trkpt>
      <trkpt lat="42.6951" lon="1.65343">
        <ele>1381.5517578125</ele>
        <time>2012-06-09T07:33:19Z</time>
      </trkpt>
      <trkpt lat="42.69503" lon="1.65338">
        <ele>1383.955078125</ele>
        <time>2012-06-09T07:33:24Z</time>
      </trkpt>
      <trkpt lat="42.695" lon="1.65335">
        <ele>1384.4357910156</ele>
        <time>2012-06-09T07:33:28Z</time>
      </trkpt>
      <trkpt lat="42.69493" lon="1.65329">
        <ele>1386.8388671875</ele>
        <time>2012-06-09T07:33:36Z</time>
      </trkpt>
      <trkpt lat="42.69488" lon="1.65324">
        <ele>1385.8776855469</ele>
        <time>2012-06-09T07:33:42Z</time>
      </trkpt>
      <trkpt lat="42.69482" lon="1.6532">
        <ele>1385.3969726562</ele>
        <time>2012-06-09T07:33:50Z</time>
      </trkpt>
      <trkpt lat="42.69478" lon="1.65319">
        <ele>1382.0324707031</ele>
        <time>2012-06-09T07:33:56Z</time>
      </trkpt>
      <trkpt lat="42.69475" lon="1.65317">
        <ele>1378.1872558594</ele>
        <time>2012-06-09T07:34:01Z</time>
      </trkpt>
      <trkpt lat="42.69472" lon="1.65313">
        <ele>1383.4743652344</ele>
        <time>2012-06-09T07:34:06Z</time>
      </trkpt>
      <trkpt lat="42.69468" lon="1.65316">
        <ele>1386.8388671875</ele>
        <time>2012-06-09T07:34:13Z</time>
      </trkpt>
      <trkpt lat="42.69466" lon="1.65316">
        <ele>1389.7231445312</ele>
        <time>2012-06-09T07:34:19Z</time>
      </trkpt>
      <trkpt lat="42.69464" lon="1.65314">
        <ele>1390.6843261719</ele>
        <time>2012-06-09T07:34:25Z</time>
      </trkpt>
      <trkpt lat="42.69463" lon="1.65313">
        <ele>1389.7231445312</ele>
        <time>2012-06-09T07:34:29Z</time>
      </trkpt>
      <trkpt lat="42.6946" lon="1.65308">
        <ele>1396.4523925781</ele>
        <time>2012-06-09T07:34:32Z</time>
      </trkpt>
      <trkpt lat="42.69458" lon="1.65306">
        <ele>1399.3361816406</ele>
        <time>2012-06-09T07:34:34Z</time>
      </trkpt>
      <trkpt lat="42.69452" lon="1.65299">
        <ele>1408.9494628906</ele>
        <time>2012-06-09T07:34:40Z</time>
      </trkpt>
      <trkpt lat="42.6945" lon="1.65298">
        <ele>1411.3527832031</ele>
        <time>2012-06-09T07:34:42Z</time>
      </trkpt>
      <trkpt lat="42.69444" lon="1.65292">
        <ele>1418.0817871094</ele>
        <time>2012-06-09T07:34:49Z</time>
      </trkpt>
      <trkpt lat="42.69442" lon="1.65291">
        <ele>1417.6010742188</ele>
        <time>2012-06-09T07:34:50Z</time>
      </trkpt>
      <trkpt lat="42.69436" lon="1.65288">
        <ele>1414.2365722656</ele>
        <time>2012-06-09T07:34:57Z</time>
      </trkpt>
      <trkpt lat="42.69432" lon="1.65287">
        <ele>1404.6235351562</ele>
        <time>2012-06-09T07:35:02Z</time>
      </trkpt>
      <trkpt lat="42.69429" lon="1.65286">
        <ele>1402.7006835938</ele>
        <time>2012-06-09T07:35:04Z</time>
      </trkpt>
      <trkpt lat="42.69429" lon="1.65284">
        <ele>1402.2199707031</ele>
        <time>2012-06-09T07:35:06Z</time>
      </trkpt>
      <trkpt lat="42.69426" lon="1.6528">
        <ele>1402.2199707031</ele>
        <time>2012-06-09T07:35:09Z</time>
      </trkpt>
      <trkpt lat="42.69421" lon="1.65274">
        <ele>1396.9328613281</ele>
        <time>2012-06-09T07:35:15Z</time>
      </trkpt>
      <trkpt lat="42.69421" lon="1.65269">
        <ele>1392.6071777344</ele>
        <time>2012-06-09T07:35:21Z</time>
      </trkpt>
      <trkpt lat="42.69419" lon="1.65266">
        <ele>1392.6071777344</ele>
        <time>2012-06-09T07:35:25Z</time>
      </trkpt>
      <trkpt lat="42.69414" lon="1.65259">
        <ele>1399.3361816406</ele>
        <time>2012-06-09T07:35:33Z</time>
      </trkpt>
      <trkpt lat="42.69411" lon="1.65253">
        <ele>1397.4135742188</ele>
        <time>2012-06-09T07:35:39Z</time>
      </trkpt>
      <trkpt lat="42.69408" lon="1.65247">
        <ele>1396.9328613281</ele>
        <time>2012-06-09T07:35:45Z</time>
      </trkpt>
      <trkpt lat="42.69406" lon="1.65245">
        <ele>1396.4523925781</ele>
        <time>2012-06-09T07:35:49Z</time>
      </trkpt>
      <trkpt lat="42.69404" lon="1.6524">
        <ele>1401.2587890625</ele>
        <time>2012-06-09T07:35:55Z</time>
      </trkpt>
      <trkpt lat="42.69402" lon="1.65241">
        <ele>1400.2976074219</ele>
        <time>2012-06-09T07:36:02Z</time>
      </trkpt>
      <trkpt lat="42.694" lon="1.65241">
        <ele>1400.7780761719</ele>
        <time>2012-06-09T07:36:08Z</time>
      </trkpt>
      <trkpt lat="42.69396" lon="1.65242">
        <ele>1397.8942871094</ele>
        <time>2012-06-09T07:36:16Z</time>
      </trkpt>
      <trkpt lat="42.69392" lon="1.65239">
        <ele>1396.9328613281</ele>
        <time>2012-06-09T07:36:22Z</time>
      </trkpt>
      <trkpt lat="42.69386" lon="1.65235">
        <ele>1398.85546875</ele>
        <time>2012-06-09T07:36:28Z</time>
      </trkpt>
      <trkpt lat="42.69384" lon="1.65234">
        <ele>1400.2976074219</ele>
        <time>2012-06-09T07:36:30Z</time>
      </trkpt>
      <trkpt lat="42.69383" lon="1.65232">
        <ele>1400.2976074219</ele>
        <time>2012-06-09T07:36:32Z</time>
      </trkpt>
      <trkpt lat="42.69381" lon="1.65227">
        <ele>1402.2199707031</ele>
        <time>2012-06-09T07:36:38Z</time>
      </trkpt>
      <trkpt lat="42.69375" lon="1.65225">
        <ele>1402.2199707031</ele>
        <time>2012-06-09T07:36:47Z</time>
      </trkpt>
      <trkpt lat="42.69372" lon="1.65222">
        <ele>1409.9106445312</ele>
        <time>2012-06-09T07:36:54Z</time>
      </trkpt>
      <trkpt lat="42.69369" lon="1.6522">
        <ele>1414.2365722656</ele>
        <time>2012-06-09T07:36:58Z</time>
      </trkpt>
      <trkpt lat="42.69363" lon="1.65219">
        <ele>1410.8720703125</ele>
        <time>2012-06-09T07:37:06Z</time>
      </trkpt>
      <trkpt lat="42.6936" lon="1.65219">
        <ele>1408.46875</ele>
        <time>2012-06-09T07:37:12Z</time>
      </trkpt>
      <trkpt lat="42.69356" lon="1.65219">
        <ele>1411.3527832031</ele>
        <time>2012-06-09T07:37:18Z</time>
      </trkpt>
      <trkpt lat="42.69353" lon="1.65217">
        <ele>1415.6787109375</ele>
        <time>2012-06-09T07:37:27Z</time>
      </trkpt>
      <trkpt lat="42.6935" lon="1.65216">
        <ele>1414.2365722656</ele>
        <time>2012-06-09T07:37:31Z</time>
      </trkpt>
      <trkpt lat="42.69347" lon="1.65212">
        <ele>1414.7172851562</ele>
        <time>2012-06-09T07:37:41Z</time>
      </trkpt>
      <trkpt lat="42.69344" lon="1.65202">
        <ele>1425.2917480469</ele>
        <time>2012-06-09T07:37:48Z</time>
      </trkpt>
      <trkpt lat="42.69342" lon="1.65198">
        <ele>1429.6176757812</ele>
        <time>2012-06-09T07:37:53Z</time>
      </trkpt>
      <trkpt lat="42.69339" lon="1.65196">
        <ele>1429.1369628906</ele>
        <time>2012-06-09T07:37:58Z</time>
      </trkpt>
      <trkpt lat="42.69336" lon="1.65195">
        <ele>1423.8498535156</ele>
        <time>2012-06-09T07:38:05Z</time>
      </trkpt>
      <trkpt lat="42.69333" lon="1.65194">
        <ele>1421.4465332031</ele>
        <time>2012-06-09T07:38:09Z</time>
      </trkpt>
      <trkpt lat="42.69331" lon="1.65188">
        <ele>1421.4465332031</ele>
        <time>2012-06-09T07:38:20Z</time>
      </trkpt>
      <trkpt lat="42.69328" lon="1.6519">
        <ele>1416.1591796875</ele>
        <time>2012-06-09T07:38:25Z</time>
      </trkpt>
      <trkpt lat="42.69325" lon="1.6519">
        <ele>1413.275390625</ele>
        <time>2012-06-09T07:38:30Z</time>
      </trkpt>
      <trkpt lat="42.69323" lon="1.65188">
        <ele>1410.8720703125</ele>
        <time>2012-06-09T07:38:36Z</time>
      </trkpt>
      <trkpt lat="42.69318" lon="1.65188">
        <ele>1410.3913574219</ele>
        <time>2012-06-09T07:38:41Z</time>
      </trkpt>
      <trkpt lat="42.69315" lon="1.65187">
        <ele>1409.4301757812</ele>
        <time>2012-06-09T07:38:43Z</time>
      </trkpt>
      <trkpt lat="42.69307" lon="1.65189">
        <ele>1409.9106445312</ele>
        <time>2012-06-09T07:38:49Z</time>
      </trkpt>
      <trkpt lat="42.693" lon="1.65187">
        <ele>1413.275390625</ele>
        <time>2012-06-09T07:38:56Z</time>
      </trkpt>
      <trkpt lat="42.693" lon="1.65187">
        <ele>1413.755859375</ele>
        <time>2012-06-09T07:38:57Z</time>
      </trkpt>
      <trkpt lat="42.69296" lon="1.65184">
        <ele>1418.0817871094</ele>
        <time>2012-06-09T07:39:03Z</time>
      </trkpt>
      <trkpt lat="42.69295" lon="1.65175">
        <ele>1423.8498535156</ele>
        <time>2012-06-09T07:39:09Z</time>
      </trkpt>
      <trkpt lat="42.69292" lon="1.65173">
        <ele>1423.3693847656</ele>
        <time>2012-06-09T07:39:14Z</time>
      </trkpt>
      <trkpt lat="42.69291" lon="1.6517">
        <ele>1425.2917480469</ele>
        <time>2012-06-09T07:39:18Z</time>
      </trkpt>
      <trkpt lat="42.69288" lon="1.65167">
        <ele>1422.4079589844</ele>
        <time>2012-06-09T07:39:23Z</time>
      </trkpt>
      <trkpt lat="42.69287" lon="1.65164">
        <ele>1420.9660644531</ele>
        <time>2012-06-09T07:39:29Z</time>
      </trkpt>
      <trkpt lat="42.69284" lon="1.65159">
        <ele>1421.9272460938</ele>
        <time>2012-06-09T07:39:39Z</time>
      </trkpt>
      <trkpt lat="42.69284" lon="1.65158">
        <ele>1423.3693847656</ele>
        <time>2012-06-09T07:39:46Z</time>
      </trkpt>
      <trkpt lat="42.69282" lon="1.65153">
        <ele>1424.8112792969</ele>
        <time>2012-06-09T07:39:52Z</time>
      </trkpt>
      <trkpt lat="42.6928" lon="1.65148">
        <ele>1425.2917480469</ele>
        <time>2012-06-09T07:39:59Z</time>
      </trkpt>
      <trkpt lat="42.69276" lon="1.65143">
        <ele>1426.7338867188</ele>
        <time>2012-06-09T07:40:04Z</time>
      </trkpt>
      <trkpt lat="42.69274" lon="1.65141">
        <ele>1426.7338867188</ele>
        <time>2012-06-09T07:40:09Z</time>
      </trkpt>
      <trkpt lat="42.69271" lon="1.65143">
        <ele>1426.7338867188</ele>
        <time>2012-06-09T07:40:16Z</time>
      </trkpt>
      <trkpt lat="42.69268" lon="1.65146">
        <ele>1426.2531738281</ele>
        <time>2012-06-09T07:40:22Z</time>
      </trkpt>
      <trkpt lat="42.69265" lon="1.65143">
        <ele>1428.17578125</ele>
        <time>2012-06-09T07:40:27Z</time>
      </trkpt>
      <trkpt lat="42.6926" lon="1.65139">
        <ele>1429.6176757812</ele>
        <time>2012-06-09T07:40:34Z</time>
      </trkpt>
      <trkpt lat="42.69255" lon="1.65139">
        <ele>1429.1369628906</ele>
        <time>2012-06-09T07:40:40Z</time>
      </trkpt>
      <trkpt lat="42.69251" lon="1.65134">
        <ele>1432.0209960938</ele>
        <time>2012-06-09T07:40:47Z</time>
      </trkpt>
      <trkpt lat="42.69248" lon="1.6513">
        <ele>1437.7890625</ele>
        <time>2012-06-09T07:40:52Z</time>
      </trkpt>
      <trkpt lat="42.69244" lon="1.65125">
        <ele>1441.6342773438</ele>
        <time>2012-06-09T07:40:58Z</time>
      </trkpt>
      <trkpt lat="42.69239" lon="1.65118">
        <ele>1441.1535644531</ele>
        <time>2012-06-09T07:41:05Z</time>
      </trkpt>
      <trkpt lat="42.69236" lon="1.65117">
        <ele>1440.1923828125</ele>
        <time>2012-06-09T07:41:09Z</time>
      </trkpt>
      <trkpt lat="42.6923" lon="1.65113">
        <ele>1444.0375976562</ele>
        <time>2012-06-09T07:41:15Z</time>
      </trkpt>
      <trkpt lat="42.69226" lon="1.65111">
        <ele>1447.4020996094</ele>
        <time>2012-06-09T07:41:19Z</time>
      </trkpt>
      <trkpt lat="42.69221" lon="1.65107">
        <ele>1449.3247070312</ele>
        <time>2012-06-09T07:41:26Z</time>
      </trkpt>
      <trkpt lat="42.69218" lon="1.65106">
        <ele>1444.9987792969</ele>
        <time>2012-06-09T07:41:31Z</time>
      </trkpt>
      <trkpt lat="42.69214" lon="1.65105">
        <ele>1442.1149902344</ele>
        <time>2012-06-09T07:41:36Z</time>
      </trkpt>
      <trkpt lat="42.6921" lon="1.65105">
        <ele>1435.8662109375</ele>
        <time>2012-06-09T07:41:42Z</time>
      </trkpt>
      <trkpt lat="42.69207" lon="1.65101">
        <ele>1436.8276367188</ele>
        <time>2012-06-09T07:41:48Z</time>
      </trkpt>
      <trkpt lat="42.69206" lon="1.65099">
        <ele>1437.7890625</ele>
        <time>2012-06-09T07:41:49Z</time>
      </trkpt>
      <trkpt lat="42.69202" lon="1.65097">
        <ele>1438.2697753906</ele>
        <time>2012-06-09T07:41:52Z</time>
      </trkpt>
      <trkpt lat="42.69197" lon="1.65094">
        <ele>1439.2309570312</ele>
        <time>2012-06-09T07:41:59Z</time>
      </trkpt>
      <trkpt lat="42.69194" lon="1.65092">
        <ele>1440.1923828125</ele>
        <time>2012-06-09T07:42:04Z</time>
      </trkpt>
      <trkpt lat="42.69192" lon="1.65087">
        <ele>1435.8662109375</ele>
        <time>2012-06-09T07:42:09Z</time>
      </trkpt>
      <trkpt lat="42.69186" lon="1.65083">
        <ele>1432.5017089844</ele>
        <time>2012-06-09T07:42:15Z</time>
      </trkpt>
      <trkpt lat="42.6918" lon="1.65082">
        <ele>1432.9821777344</ele>
        <time>2012-06-09T07:42:20Z</time>
      </trkpt>
      <trkpt lat="42.69177" lon="1.6508">
        <ele>1432.9821777344</ele>
        <time>2012-06-09T07:42:23Z</time>
      </trkpt>
      <trkpt lat="42.69174" lon="1.6508">
        <ele>1433.9436035156</ele>
        <time>2012-06-09T07:42:27Z</time>
      </trkpt>
      <trkpt lat="42.69168" lon="1.65077">
        <ele>1434.4243164062</ele>
        <time>2012-06-09T07:42:34Z</time>
      </trkpt>
      <trkpt lat="42.69164" lon="1.65075">
        <ele>1435.3854980469</ele>
        <time>2012-06-09T07:42:41Z</time>
      </trkpt>
      <trkpt lat="42.69161" lon="1.65076">
        <ele>1438.7504882812</ele>
        <time>2012-06-09T07:42:46Z</time>
      </trkpt>
      <trkpt lat="42.69157" lon="1.65077">
        <ele>1440.1923828125</ele>
        <time>2012-06-09T07:42:52Z</time>
      </trkpt>
      <trkpt lat="42.69154" lon="1.65074">
        <ele>1440.6728515625</ele>
        <time>2012-06-09T07:42:58Z</time>
      </trkpt>
      <trkpt lat="42.69151" lon="1.65071">
        <ele>1441.6342773438</ele>
        <time>2012-06-09T07:43:04Z</time>
      </trkpt>
      <trkpt lat="42.69147" lon="1.6507">
        <ele>1443.076171875</ele>
        <time>2012-06-09T07:43:10Z</time>
      </trkpt>
      <trkpt lat="42.69141" lon="1.6507">
        <ele>1444.0375976562</ele>
        <time>2012-06-09T07:43:17Z</time>
      </trkpt>
      <trkpt lat="42.69137" lon="1.65071">
        <ele>1445.4794921875</ele>
        <time>2012-06-09T07:43:24Z</time>
      </trkpt>
      <trkpt lat="42.69133" lon="1.65067">
        <ele>1445.4794921875</ele>
        <time>2012-06-09T07:43:30Z</time>
      </trkpt>
      <trkpt lat="42.69126" lon="1.65059">
        <ele>1445.4794921875</ele>
        <time>2012-06-09T07:43:37Z</time>
      </trkpt>
      <trkpt lat="42.69122" lon="1.65057">
        <ele>1446.4409179688</ele>
        <time>2012-06-09T07:43:42Z</time>
      </trkpt>
      <trkpt lat="42.69118" lon="1.65055">
        <ele>1446.9213867188</ele>
        <time>2012-06-09T07:43:48Z</time>
      </trkpt>
      <trkpt lat="42.69116" lon="1.65054">
        <ele>1445.9602050781</ele>
        <time>2012-06-09T07:43:54Z</time>
      </trkpt>
      <trkpt lat="42.69113" lon="1.65055">
        <ele>1445.4794921875</ele>
        <time>2012-06-09T07:44:01Z</time>
      </trkpt>
      <trkpt lat="42.69109" lon="1.65054">
        <ele>1444.5180664062</ele>
        <time>2012-06-09T07:44:08Z</time>
      </trkpt>
      <trkpt lat="42.69108" lon="1.65054">
        <ele>1443.076171875</ele>
        <time>2012-06-09T07:44:14Z</time>
      </trkpt>
      <trkpt lat="42.69105" lon="1.65051">
        <ele>1442.595703125</ele>
        <time>2012-06-09T07:44:20Z</time>
      </trkpt>
      <trkpt lat="42.69102" lon="1.65051">
        <ele>1444.5180664062</ele>
        <time>2012-06-09T07:44:25Z</time>
      </trkpt>
      <trkpt lat="42.69098" lon="1.65049">
        <ele>1445.9602050781</ele>
        <time>2012-06-09T07:44:31Z</time>
      </trkpt>
      <trkpt lat="42.69095" lon="1.65048">
        <ele>1445.9602050781</ele>
        <time>2012-06-09T07:44:37Z</time>
      </trkpt>
      <trkpt lat="42.69088" lon="1.65048">
        <ele>1445.9602050781</ele>
        <time>2012-06-09T07:44:43Z</time>
      </trkpt>
      <trkpt lat="42.69085" lon="1.65048">
        <ele>1447.4020996094</ele>
        <time>2012-06-09T07:44:48Z</time>
      </trkpt>
      <trkpt lat="42.69083" lon="1.6505">
        <ele>1452.689453125</ele>
        <time>2012-06-09T07:44:55Z</time>
      </trkpt>
      <trkpt lat="42.69079" lon="1.65047">
        <ele>1459.4187011719</ele>
        <time>2012-06-09T07:45:03Z</time>
      </trkpt>
      <trkpt lat="42.69077" lon="1.65045">
        <ele>1466.1477050781</ele>
        <time>2012-06-09T07:45:11Z</time>
      </trkpt>
      <trkpt lat="42.69073" lon="1.65044">
        <ele>1467.5895996094</ele>
        <time>2012-06-09T07:45:16Z</time>
      </trkpt>
      <trkpt lat="42.69072" lon="1.65047">
        <ele>1468.5512695312</ele>
        <time>2012-06-09T07:45:22Z</time>
      </trkpt>
      <trkpt lat="42.6907" lon="1.65049">
        <ele>1470.4738769531</ele>
        <time>2012-06-09T07:45:27Z</time>
      </trkpt>
      <trkpt lat="42.69064" lon="1.6505">
        <ele>1467.1091308594</ele>
        <time>2012-06-09T07:45:33Z</time>
      </trkpt>
      <trkpt lat="42.69059" lon="1.6505">
        <ele>1464.2250976562</ele>
        <time>2012-06-09T07:45:37Z</time>
      </trkpt>
      <trkpt lat="42.69052" lon="1.65048">
        <ele>1463.2639160156</ele>
        <time>2012-06-09T07:45:44Z</time>
      </trkpt>
      <trkpt lat="42.69048" lon="1.65046">
        <ele>1461.3413085938</ele>
        <time>2012-06-09T07:45:49Z</time>
      </trkpt>
      <trkpt lat="42.69044" lon="1.65045">
        <ele>1459.8991699219</ele>
        <time>2012-06-09T07:45:53Z</time>
      </trkpt>
      <trkpt lat="42.69041" lon="1.65045">
        <ele>1459.4187011719</ele>
        <time>2012-06-09T07:45:55Z</time>
      </trkpt>
      <trkpt lat="42.6904" lon="1.65045">
        <ele>1458.9379882812</ele>
        <time>2012-06-09T07:45:57Z</time>
      </trkpt>
      <trkpt lat="42.69035" lon="1.65045">
        <ele>1458.9379882812</ele>
        <time>2012-06-09T07:46:03Z</time>
      </trkpt>
      <trkpt lat="42.69032" lon="1.65043">
        <ele>1458.9379882812</ele>
        <time>2012-06-09T07:46:08Z</time>
      </trkpt>
      <trkpt lat="42.69027" lon="1.6504">
        <ele>1456.5346679688</ele>
        <time>2012-06-09T07:46:14Z</time>
      </trkpt>
      <trkpt lat="42.69023" lon="1.65037">
        <ele>1456.0539550781</ele>
        <time>2012-06-09T07:46:18Z</time>
      </trkpt>
      <trkpt lat="42.69018" lon="1.65038">
        <ele>1456.0539550781</ele>
        <time>2012-06-09T07:46:23Z</time>
      </trkpt>
      <trkpt lat="42.69011" lon="1.65036">
        <ele>1452.2087402344</ele>
        <time>2012-06-09T07:46:29Z</time>
      </trkpt>
      <trkpt lat="42.69005" lon="1.65035">
        <ele>1454.6120605469</ele>
        <time>2012-06-09T07:46:33Z</time>
      </trkpt>
      <trkpt lat="42.69003" lon="1.65035">
        <ele>1455.5734863281</ele>
        <time>2012-06-09T07:46:34Z</time>
      </trkpt>
      <trkpt lat="42.68995" lon="1.65029">
        <ele>1458.4572753906</ele>
        <time>2012-06-09T07:46:42Z</time>
      </trkpt>
      <trkpt lat="42.68992" lon="1.65027">
        <ele>1456.5346679688</ele>
        <time>2012-06-09T07:46:45Z</time>
      </trkpt>
      <trkpt lat="42.68985" lon="1.65025">
        <ele>1456.5346679688</ele>
        <time>2012-06-09T07:46:51Z</time>
      </trkpt>
      <trkpt lat="42.68984" lon="1.65024">
        <ele>1456.5346679688</ele>
        <time>2012-06-09T07:46:52Z</time>
      </trkpt>
      <trkpt lat="42.68982" lon="1.65022">
        <ele>1453.1701660156</ele>
        <time>2012-06-09T07:46:58Z</time>
      </trkpt>
      <trkpt lat="42.68977" lon="1.65019">
        <ele>1451.7280273438</ele>
        <time>2012-06-09T07:47:10Z</time>
      </trkpt>
      <trkpt lat="42.68972" lon="1.65017">
        <ele>1451.7280273438</ele>
        <time>2012-06-09T07:47:16Z</time>
      </trkpt>
      <trkpt lat="42.6897" lon="1.65014">
        <ele>1452.689453125</ele>
        <time>2012-06-09T07:47:23Z</time>
      </trkpt>
      <trkpt lat="42.68967" lon="1.6501">
        <ele>1453.6508789062</ele>
        <time>2012-06-09T07:47:28Z</time>
      </trkpt>
      <trkpt lat="42.68964" lon="1.65006">
        <ele>1453.6508789062</ele>
        <time>2012-06-09T07:47:33Z</time>
      </trkpt>
      <trkpt lat="42.68958" lon="1.65003">
        <ele>1455.5734863281</ele>
        <time>2012-06-09T07:47:40Z</time>
      </trkpt>
      <trkpt lat="42.68953" lon="1.65">
        <ele>1457.0153808594</ele>
        <time>2012-06-09T07:47:47Z</time>
      </trkpt>
      <trkpt lat="42.68946" lon="1.64996">
        <ele>1457.9768066406</ele>
        <time>2012-06-09T07:47:54Z</time>
      </trkpt>
      <trkpt lat="42.68945" lon="1.64995">
        <ele>1458.4572753906</ele>
        <time>2012-06-09T07:47:55Z</time>
      </trkpt>
      <trkpt lat="42.68941" lon="1.64993">
        <ele>1459.4187011719</ele>
        <time>2012-06-09T07:47:59Z</time>
      </trkpt>
      <trkpt lat="42.68933" lon="1.6499">
        <ele>1459.4187011719</ele>
        <time>2012-06-09T07:48:07Z</time>
      </trkpt>
      <trkpt lat="42.68928" lon="1.64988">
        <ele>1459.4187011719</ele>
        <time>2012-06-09T07:48:12Z</time>
      </trkpt>
      <trkpt lat="42.68922" lon="1.64985">
        <ele>1459.4187011719</ele>
        <time>2012-06-09T07:48:18Z</time>
      </trkpt>
      <trkpt lat="42.68913" lon="1.64984">
        <ele>1460.3798828125</ele>
        <time>2012-06-09T07:48:28Z</time>
      </trkpt>
      <trkpt lat="42.68908" lon="1.64983">
        <ele>1460.8605957031</ele>
        <time>2012-06-09T07:48:36Z</time>
      </trkpt>
      <trkpt lat="42.68906" lon="1.64986">
        <ele>1460.8605957031</ele>
        <time>2012-06-09T07:48:42Z</time>
      </trkpt>
      <trkpt lat="42.68902" lon="1.64989">
        <ele>1459.4187011719</ele>
        <time>2012-06-09T07:48:49Z</time>
      </trkpt>
      <trkpt lat="42.68893" lon="1.6499">
        <ele>1458.9379882812</ele>
        <time>2012-06-09T07:48:57Z</time>
      </trkpt>
      <trkpt lat="42.68893" lon="1.6499">
        <ele>1458.9379882812</ele>
        <time>2012-06-09T07:48:58Z</time>
      </trkpt>
      <trkpt lat="42.68887" lon="1.6499">
        <ele>1458.9379882812</ele>
        <time>2012-06-09T07:49:04Z</time>
      </trkpt>
      <trkpt lat="42.68877" lon="1.64988">
        <ele>1458.9379882812</ele>
        <time>2012-06-09T07:49:13Z</time>
      </trkpt>
      <trkpt lat="42.68877" lon="1.64988">
        <ele>1458.9379882812</ele>
        <time>2012-06-09T07:49:14Z</time>
      </trkpt>
      <trkpt lat="42.68871" lon="1.64991">
        <ele>1457.9768066406</ele>
        <time>2012-06-09T07:49:20Z</time>
      </trkpt>
      <trkpt lat="42.68866" lon="1.64991">
        <ele>1457.49609375</ele>
        <time>2012-06-09T07:49:26Z</time>
      </trkpt>
      <trkpt lat="42.68861" lon="1.6499">
        <ele>1456.5346679688</ele>
        <time>2012-06-09T07:49:31Z</time>
      </trkpt>
      <trkpt lat="42.68855" lon="1.64989">
        <ele>1456.5346679688</ele>
        <time>2012-06-09T07:49:38Z</time>
      </trkpt>
      <trkpt lat="42.68851" lon="1.64987">
        <ele>1457.0153808594</ele>
        <time>2012-06-09T07:49:44Z</time>
      </trkpt>
      <trkpt lat="42.6885" lon="1.64986">
        <ele>1457.0153808594</ele>
        <time>2012-06-09T07:49:52Z</time>
      </trkpt>
      <trkpt lat="42.68847" lon="1.64986">
        <ele>1456.5346679688</ele>
        <time>2012-06-09T07:49:58Z</time>
      </trkpt>
      <trkpt lat="42.68844" lon="1.64988">
        <ele>1456.5346679688</ele>
        <time>2012-06-09T07:50:03Z</time>
      </trkpt>
      <trkpt lat="42.6884" lon="1.64988">
        <ele>1456.5346679688</ele>
        <time>2012-06-09T07:50:08Z</time>
      </trkpt>
      <trkpt lat="42.68835" lon="1.64991">
        <ele>1456.5346679688</ele>
        <time>2012-06-09T07:50:14Z</time>
      </trkpt>
      <trkpt lat="42.6883" lon="1.64993">
        <ele>1456.5346679688</ele>
        <time>2012-06-09T07:50:19Z</time>
      </trkpt>
      <trkpt lat="42.68824" lon="1.64996">
        <ele>1456.0539550781</ele>
        <time>2012-06-09T07:50:26Z</time>
      </trkpt>
      <trkpt lat="42.68818" lon="1.65001">
        <ele>1457.49609375</ele>
        <time>2012-06-09T07:50:33Z</time>
      </trkpt>
      <trkpt lat="42.68814" lon="1.65003">
        <ele>1460.8605957031</ele>
        <time>2012-06-09T07:50:39Z</time>
      </trkpt>
      <trkpt lat="42.68809" lon="1.65005">
        <ele>1459.8991699219</ele>
        <time>2012-06-09T07:50:44Z</time>
      </trkpt>
      <trkpt lat="42.68805" lon="1.65006">
        <ele>1459.8991699219</ele>
        <time>2012-06-09T07:50:48Z</time>
      </trkpt>
      <trkpt lat="42.688" lon="1.65006">
        <ele>1459.4187011719</ele>
        <time>2012-06-09T07:50:54Z</time>
      </trkpt>
      <trkpt lat="42.6879" lon="1.65005">
        <ele>1458.4572753906</ele>
        <time>2012-06-09T07:51:03Z</time>
      </trkpt>
      <trkpt lat="42.68788" lon="1.65005">
        <ele>1458.9379882812</ele>
        <time>2012-06-09T07:51:05Z</time>
      </trkpt>
      <trkpt lat="42.68785" lon="1.65007">
        <ele>1459.4187011719</ele>
        <time>2012-06-09T07:51:09Z</time>
      </trkpt>
      <trkpt lat="42.68781" lon="1.65009">
        <ele>1460.8605957031</ele>
        <time>2012-06-09T07:51:14Z</time>
      </trkpt>
      <trkpt lat="42.68778" lon="1.6501">
        <ele>1463.2639160156</ele>
        <time>2012-06-09T07:51:19Z</time>
      </trkpt>
      <trkpt lat="42.68774" lon="1.65014">
        <ele>1465.6672363281</ele>
        <time>2012-06-09T07:51:25Z</time>
      </trkpt>
      <trkpt lat="42.68771" lon="1.65016">
        <ele>1466.1477050781</ele>
        <time>2012-06-09T07:51:30Z</time>
      </trkpt>
      <trkpt lat="42.68768" lon="1.65019">
        <ele>1468.0705566406</ele>
        <time>2012-06-09T07:51:35Z</time>
      </trkpt>
      <trkpt lat="42.68761" lon="1.65023">
        <ele>1469.9931640625</ele>
        <time>2012-06-09T07:51:42Z</time>
      </trkpt>
      <trkpt lat="42.68757" lon="1.65023">
        <ele>1470.9545898438</ele>
        <time>2012-06-09T07:51:46Z</time>
      </trkpt>
      <trkpt lat="42.68751" lon="1.65022">
        <ele>1470.9545898438</ele>
        <time>2012-06-09T07:51:52Z</time>
      </trkpt>
      <trkpt lat="42.68745" lon="1.65022">
        <ele>1471.4350585938</ele>
        <time>2012-06-09T07:51:59Z</time>
      </trkpt>
      <trkpt lat="42.68741" lon="1.65026">
        <ele>1471.9157714844</ele>
        <time>2012-06-09T07:52:06Z</time>
      </trkpt>
      <trkpt lat="42.68738" lon="1.65026">
        <ele>1472.8771972656</ele>
        <time>2012-06-09T07:52:11Z</time>
      </trkpt>
      <trkpt lat="42.68732" lon="1.65025">
        <ele>1473.8383789062</ele>
        <time>2012-06-09T07:52:19Z</time>
      </trkpt>
      <trkpt lat="42.68729" lon="1.65022">
        <ele>1475.7609863281</ele>
        <time>2012-06-09T07:52:25Z</time>
      </trkpt>
      <trkpt lat="42.68723" lon="1.65017">
        <ele>1476.7224121094</ele>
        <time>2012-06-09T07:52:32Z</time>
      </trkpt>
      <trkpt lat="42.68719" lon="1.65018">
        <ele>1475.7609863281</ele>
        <time>2012-06-09T07:52:37Z</time>
      </trkpt>
      <trkpt lat="42.68715" lon="1.65019">
        <ele>1475.7609863281</ele>
        <time>2012-06-09T07:52:42Z</time>
      </trkpt>
      <trkpt lat="42.68709" lon="1.65021">
        <ele>1476.2416992188</ele>
        <time>2012-06-09T07:52:49Z</time>
      </trkpt>
      <trkpt lat="42.68705" lon="1.65023">
        <ele>1476.2416992188</ele>
        <time>2012-06-09T07:52:55Z</time>
      </trkpt>
      <trkpt lat="42.68702" lon="1.65026">
        <ele>1476.2416992188</ele>
        <time>2012-06-09T07:53:00Z</time>
      </trkpt>
      <trkpt lat="42.68699" lon="1.65026">
        <ele>1476.2416992188</ele>
        <time>2012-06-09T07:53:04Z</time>
      </trkpt>
      <trkpt lat="42.68694" lon="1.65026">
        <ele>1479.6062011719</ele>
        <time>2012-06-09T07:53:10Z</time>
      </trkpt>
      <trkpt lat="42.68688" lon="1.65029">
        <ele>1480.5676269531</ele>
        <time>2012-06-09T07:53:17Z</time>
      </trkpt>
      <trkpt lat="42.68686" lon="1.6503">
        <ele>1480.5676269531</ele>
        <time>2012-06-09T07:53:22Z</time>
      </trkpt>
      <trkpt lat="42.68681" lon="1.65029">
        <ele>1480.5676269531</ele>
        <time>2012-06-09T07:53:29Z</time>
      </trkpt>
      <trkpt lat="42.68678" lon="1.65028">
        <ele>1481.5288085938</ele>
        <time>2012-06-09T07:53:34Z</time>
      </trkpt>
      <trkpt lat="42.68674" lon="1.65029">
        <ele>1481.5288085938</ele>
        <time>2012-06-09T07:53:40Z</time>
      </trkpt>
      <trkpt lat="42.6867" lon="1.6503">
        <ele>1482.490234375</ele>
        <time>2012-06-09T07:53:46Z</time>
      </trkpt>
      <trkpt lat="42.68666" lon="1.6503">
        <ele>1482.490234375</ele>
        <time>2012-06-09T07:53:53Z</time>
      </trkpt>
      <trkpt lat="42.68661" lon="1.6503">
        <ele>1483.4514160156</ele>
        <time>2012-06-09T07:54:01Z</time>
      </trkpt>
      <trkpt lat="42.68658" lon="1.65031">
        <ele>1483.4514160156</ele>
        <time>2012-06-09T07:54:06Z</time>
      </trkpt>
      <trkpt lat="42.68655" lon="1.65032">
        <ele>1484.8937988281</ele>
        <time>2012-06-09T07:54:11Z</time>
      </trkpt>
      <trkpt lat="42.6865" lon="1.6503">
        <ele>1485.8549804688</ele>
        <time>2012-06-09T07:54:17Z</time>
      </trkpt>
      <trkpt lat="42.68645" lon="1.6503">
        <ele>1487.296875</ele>
        <time>2012-06-09T07:54:23Z</time>
      </trkpt>
      <trkpt lat="42.68641" lon="1.65031">
        <ele>1486.8161621094</ele>
        <time>2012-06-09T07:54:28Z</time>
      </trkpt>
      <trkpt lat="42.68636" lon="1.65031">
        <ele>1487.7775878906</ele>
        <time>2012-06-09T07:54:34Z</time>
      </trkpt>
      <trkpt lat="42.6863" lon="1.65032">
        <ele>1487.7775878906</ele>
        <time>2012-06-09T07:54:41Z</time>
      </trkpt>
      <trkpt lat="42.68624" lon="1.65035">
        <ele>1487.7775878906</ele>
        <time>2012-06-09T07:54:47Z</time>
      </trkpt>
      <trkpt lat="42.6862" lon="1.65037">
        <ele>1488.2583007812</ele>
        <time>2012-06-09T07:54:54Z</time>
      </trkpt>
      <trkpt lat="42.68616" lon="1.65039">
        <ele>1487.7775878906</ele>
        <time>2012-06-09T07:54:59Z</time>
      </trkpt>
      <trkpt lat="42.68611" lon="1.65042">
        <ele>1487.7775878906</ele>
        <time>2012-06-09T07:55:05Z</time>
      </trkpt>
      <trkpt lat="42.68608" lon="1.65045">
        <ele>1488.7390136719</ele>
        <time>2012-06-09T07:55:12Z</time>
      </trkpt>
      <trkpt lat="42.68605" lon="1.65047">
        <ele>1489.2194824219</ele>
        <time>2012-06-09T07:55:19Z</time>
      </trkpt>
      <trkpt lat="42.68604" lon="1.65046">
        <ele>1489.2194824219</ele>
        <time>2012-06-09T07:55:25Z</time>
      </trkpt>
      <trkpt lat="42.686" lon="1.65047">
        <ele>1487.296875</ele>
        <time>2012-06-09T07:55:41Z</time>
      </trkpt>
      <trkpt lat="42.68597" lon="1.65045">
        <ele>1488.2583007812</ele>
        <time>2012-06-09T07:55:45Z</time>
      </trkpt>
      <trkpt lat="42.6859" lon="1.65045">
        <ele>1488.7390136719</ele>
        <time>2012-06-09T07:55:52Z</time>
      </trkpt>
      <trkpt lat="42.68587" lon="1.65046">
        <ele>1489.2194824219</ele>
        <time>2012-06-09T07:55:57Z</time>
      </trkpt>
      <trkpt lat="42.68581" lon="1.65046">
        <ele>1489.2194824219</ele>
        <time>2012-06-09T07:56:05Z</time>
      </trkpt>
      <trkpt lat="42.68577" lon="1.65047">
        <ele>1489.2194824219</ele>
        <time>2012-06-09T07:56:12Z</time>
      </trkpt>
      <trkpt lat="42.68571" lon="1.65047">
        <ele>1488.2583007812</ele>
        <time>2012-06-09T07:56:18Z</time>
      </trkpt>
      <trkpt lat="42.68565" lon="1.65048">
        <ele>1488.2583007812</ele>
        <time>2012-06-09T07:56:24Z</time>
      </trkpt>
      <trkpt lat="42.68562" lon="1.65049">
        <ele>1489.2194824219</ele>
        <time>2012-06-09T07:56:27Z</time>
      </trkpt>
      <trkpt lat="42.68555" lon="1.65049">
        <ele>1489.2194824219</ele>
        <time>2012-06-09T07:56:34Z</time>
      </trkpt>
      <trkpt lat="42.68554" lon="1.65044">
        <ele>1489.7001953125</ele>
        <time>2012-06-09T07:56:39Z</time>
      </trkpt>
      <trkpt lat="42.68551" lon="1.65038">
        <ele>1490.6613769531</ele>
        <time>2012-06-09T07:56:46Z</time>
      </trkpt>
      <trkpt lat="42.68547" lon="1.65037">
        <ele>1491.1420898438</ele>
        <time>2012-06-09T07:56:51Z</time>
      </trkpt>
      <trkpt lat="42.68544" lon="1.65033">
        <ele>1492.5842285156</ele>
        <time>2012-06-09T07:56:56Z</time>
      </trkpt>
      <trkpt lat="42.68538" lon="1.65031">
        <ele>1494.5065917969</ele>
        <time>2012-06-09T07:57:03Z</time>
      </trkpt>
      <trkpt lat="42.68536" lon="1.65029">
        <ele>1494.5065917969</ele>
        <time>2012-06-09T07:57:05Z</time>
      </trkpt>
      <trkpt lat="42.6853" lon="1.65022">
        <ele>1495.4680175781</ele>
        <time>2012-06-09T07:57:14Z</time>
      </trkpt>
      <trkpt lat="42.68527" lon="1.65018">
        <ele>1495.9487304688</ele>
        <time>2012-06-09T07:57:20Z</time>
      </trkpt>
      <trkpt lat="42.68521" lon="1.65017">
        <ele>1497.390625</ele>
        <time>2012-06-09T07:57:27Z</time>
      </trkpt>
      <trkpt lat="42.68513" lon="1.65014">
        <ele>1497.8713378906</ele>
        <time>2012-06-09T07:57:34Z</time>
      </trkpt>
      <trkpt lat="42.68503" lon="1.65008">
        <ele>1498.8325195312</ele>
        <time>2012-06-09T07:57:44Z</time>
      </trkpt>
      <trkpt lat="42.68498" lon="1.65005">
        <ele>1498.8325195312</ele>
        <time>2012-06-09T07:57:50Z</time>
      </trkpt>
      <trkpt lat="42.68491" lon="1.65002">
        <ele>1499.7939453125</ele>
        <time>2012-06-09T07:57:58Z</time>
      </trkpt>
      <trkpt lat="42.68486" lon="1.64998">
        <ele>1501.2360839844</ele>
        <time>2012-06-09T07:58:04Z</time>
      </trkpt>
      <trkpt lat="42.68483" lon="1.64995">
        <ele>1501.2360839844</ele>
        <time>2012-06-09T07:58:07Z</time>
      </trkpt>
      <trkpt lat="42.68478" lon="1.64988">
        <ele>1502.197265625</ele>
        <time>2012-06-09T07:58:13Z</time>
      </trkpt>
      <trkpt lat="42.68475" lon="1.64984">
        <ele>1503.1586914062</ele>
        <time>2012-06-09T07:58:17Z</time>
      </trkpt>
      <trkpt lat="42.68468" lon="1.64978">
        <ele>1504.1201171875</ele>
        <time>2012-06-09T07:58:25Z</time>
      </trkpt>
      <trkpt lat="42.68458" lon="1.64976">
        <ele>1506.0424804688</ele>
        <time>2012-06-09T07:58:34Z</time>
      </trkpt>
      <trkpt lat="42.68451" lon="1.64974">
        <ele>1506.0424804688</ele>
        <time>2012-06-09T07:58:41Z</time>
      </trkpt>
      <trkpt lat="42.68447" lon="1.64966">
        <ele>1506.0424804688</ele>
        <time>2012-06-09T07:58:47Z</time>
      </trkpt>
      <trkpt lat="42.68444" lon="1.64955">
        <ele>1507.00390625</ele>
        <time>2012-06-09T07:58:54Z</time>
      </trkpt>
      <trkpt lat="42.68438" lon="1.64946">
        <ele>1507.4846191406</ele>
        <time>2012-06-09T07:59:02Z</time>
      </trkpt>
      <trkpt lat="42.68437" lon="1.64945">
        <ele>1507.4846191406</ele>
        <time>2012-06-09T07:59:04Z</time>
      </trkpt>
      <trkpt lat="42.68434" lon="1.64941">
        <ele>1507.9653320312</ele>
        <time>2012-06-09T07:59:11Z</time>
      </trkpt>
      <trkpt lat="42.68431" lon="1.64939">
        <ele>1508.9265136719</ele>
        <time>2012-06-09T07:59:16Z</time>
      </trkpt>
      <trkpt lat="42.68428" lon="1.64935">
        <ele>1509.8876953125</ele>
        <time>2012-06-09T07:59:22Z</time>
      </trkpt>
      <trkpt lat="42.68427" lon="1.64933">
        <ele>1511.810546875</ele>
        <time>2012-06-09T07:59:28Z</time>
      </trkpt>
      <trkpt lat="42.6842" lon="1.64931">
        <ele>1512.7717285156</ele>
        <time>2012-06-09T07:59:35Z</time>
      </trkpt>
      <trkpt lat="42.68415" lon="1.64927">
        <ele>1514.2136230469</ele>
        <time>2012-06-09T07:59:42Z</time>
      </trkpt>
      <trkpt lat="42.68412" lon="1.6492">
        <ele>1516.1364746094</ele>
        <time>2012-06-09T07:59:49Z</time>
      </trkpt>
      <trkpt lat="42.68409" lon="1.64922">
        <ele>1517.0979003906</ele>
        <time>2012-06-09T07:59:56Z</time>
      </trkpt>
      <trkpt lat="42.68406" lon="1.64926">
        <ele>1518.5397949219</ele>
        <time>2012-06-09T08:00:03Z</time>
      </trkpt>
      <trkpt lat="42.68401" lon="1.64932">
        <ele>1520.4624023438</ele>
        <time>2012-06-09T08:00:11Z</time>
      </trkpt>
      <trkpt lat="42.68397" lon="1.64935">
        <ele>1521.4235839844</ele>
        <time>2012-06-09T08:00:17Z</time>
      </trkpt>
      <trkpt lat="42.68394" lon="1.64941">
        <ele>1521.904296875</ele>
        <time>2012-06-09T08:00:23Z</time>
      </trkpt>
      <trkpt lat="42.68391" lon="1.64945">
        <ele>1522.3850097656</ele>
        <time>2012-06-09T08:00:27Z</time>
      </trkpt>
      <trkpt lat="42.68385" lon="1.64953">
        <ele>1522.8657226562</ele>
        <time>2012-06-09T08:00:35Z</time>
      </trkpt>
      <trkpt lat="42.68384" lon="1.64954">
        <ele>1522.8657226562</ele>
        <time>2012-06-09T08:00:36Z</time>
      </trkpt>
      <trkpt lat="42.68373" lon="1.64959">
        <ele>1523.3464355469</ele>
        <time>2012-06-09T08:00:46Z</time>
      </trkpt>
      <trkpt lat="42.68369" lon="1.64959">
        <ele>1523.8269042969</ele>
        <time>2012-06-09T08:00:51Z</time>
      </trkpt>
      <trkpt lat="42.68363" lon="1.64958">
        <ele>1524.3076171875</ele>
        <time>2012-06-09T08:00:58Z</time>
      </trkpt>
      <trkpt lat="42.68357" lon="1.64953">
        <ele>1526.2302246094</ele>
        <time>2012-06-09T08:01:05Z</time>
      </trkpt>
      <trkpt lat="42.68357" lon="1.64952">
        <ele>1527.1916503906</ele>
        <time>2012-06-09T08:01:06Z</time>
      </trkpt>
      <trkpt lat="42.68353" lon="1.64944">
        <ele>1530.0754394531</ele>
        <time>2012-06-09T08:01:13Z</time>
      </trkpt>
      <trkpt lat="42.6835" lon="1.64942">
        <ele>1531.5173339844</ele>
        <time>2012-06-09T08:01:16Z</time>
      </trkpt>
      <trkpt lat="42.68346" lon="1.64935">
        <ele>1533.9208984375</ele>
        <time>2012-06-09T08:01:23Z</time>
      </trkpt>
      <trkpt lat="42.68342" lon="1.64928">
        <ele>1533.4401855469</ele>
        <time>2012-06-09T08:01:29Z</time>
      </trkpt>
      <trkpt lat="42.68337" lon="1.64919">
        <ele>1533.4401855469</ele>
        <time>2012-06-09T08:01:37Z</time>
      </trkpt>
      <trkpt lat="42.68332" lon="1.64912">
        <ele>1533.4401855469</ele>
        <time>2012-06-09T08:01:45Z</time>
      </trkpt>
      <trkpt lat="42.68328" lon="1.64907">
        <ele>1534.4016113281</ele>
        <time>2012-06-09T08:01:52Z</time>
      </trkpt>
      <trkpt lat="42.68324" lon="1.64898">
        <ele>1533.9208984375</ele>
        <time>2012-06-09T08:01:59Z</time>
      </trkpt>
      <trkpt lat="42.68319" lon="1.6489">
        <ele>1533.4401855469</ele>
        <time>2012-06-09T08:02:07Z</time>
      </trkpt>
      <trkpt lat="42.68316" lon="1.64884">
        <ele>1534.4016113281</ele>
        <time>2012-06-09T08:02:12Z</time>
      </trkpt>
      <trkpt lat="42.68308" lon="1.64882">
        <ele>1535.3627929688</ele>
        <time>2012-06-09T08:02:21Z</time>
      </trkpt>
      <trkpt lat="42.68301" lon="1.64882">
        <ele>1534.8823242188</ele>
        <time>2012-06-09T08:02:28Z</time>
      </trkpt>
      <trkpt lat="42.68299" lon="1.64881">
        <ele>1534.8823242188</ele>
        <time>2012-06-09T08:02:30Z</time>
      </trkpt>
      <trkpt lat="42.68294" lon="1.64885">
        <ele>1534.8823242188</ele>
        <time>2012-06-09T08:02:35Z</time>
      </trkpt>
      <trkpt lat="42.6829" lon="1.64895">
        <ele>1534.8823242188</ele>
        <time>2012-06-09T08:02:42Z</time>
      </trkpt>
      <trkpt lat="42.68289" lon="1.649">
        <ele>1535.3627929688</ele>
        <time>2012-06-09T08:02:45Z</time>
      </trkpt>
      <trkpt lat="42.68283" lon="1.64906">
        <ele>1537.7661132812</ele>
        <time>2012-06-09T08:02:54Z</time>
      </trkpt>
      <trkpt lat="42.68276" lon="1.64907">
        <ele>1540.1694335938</ele>
        <time>2012-06-09T08:03:01Z</time>
      </trkpt>
      <trkpt lat="42.6827" lon="1.64907">
        <ele>1541.611328125</ele>
        <time>2012-06-09T08:03:08Z</time>
      </trkpt>
      <trkpt lat="42.68264" lon="1.64906">
        <ele>1543.0532226562</ele>
        <time>2012-06-09T08:03:16Z</time>
      </trkpt>
      <trkpt lat="42.68258" lon="1.64907">
        <ele>1545.9372558594</ele>
        <time>2012-06-09T08:03:23Z</time>
      </trkpt>
      <trkpt lat="42.68259" lon="1.64913">
        <ele>1546.41796875</ele>
        <time>2012-06-09T08:03:29Z</time>
      </trkpt>
      <trkpt lat="42.68264" lon="1.64921">
        <ele>1546.8984375</ele>
        <time>2012-06-09T08:03:37Z</time>
      </trkpt>
      <trkpt lat="42.68266" lon="1.64923">
        <ele>1546.8984375</ele>
        <time>2012-06-09T08:03:39Z</time>
      </trkpt>
      <trkpt lat="42.68271" lon="1.64932">
        <ele>1547.3791503906</ele>
        <time>2012-06-09T08:03:47Z</time>
      </trkpt>
      <trkpt lat="42.68274" lon="1.64939">
        <ele>1548.3405761719</ele>
        <time>2012-06-09T08:03:53Z</time>
      </trkpt>
      <trkpt lat="42.68278" lon="1.64948">
        <ele>1549.7827148438</ele>
        <time>2012-06-09T08:04:01Z</time>
      </trkpt>
      <trkpt lat="42.68282" lon="1.64952">
        <ele>1549.7827148438</ele>
        <time>2012-06-09T08:04:07Z</time>
      </trkpt>
      <trkpt lat="42.68285" lon="1.64957">
        <ele>1551.224609375</ele>
        <time>2012-06-09T08:04:13Z</time>
      </trkpt>
      <trkpt lat="42.6828" lon="1.6496">
        <ele>1553.6279296875</ele>
        <time>2012-06-09T08:04:20Z</time>
      </trkpt>
      <trkpt lat="42.68274" lon="1.64958">
        <ele>1555.5505371094</ele>
        <time>2012-06-09T08:04:27Z</time>
      </trkpt>
      <trkpt lat="42.68268" lon="1.64959">
        <ele>1556.51171875</ele>
        <time>2012-06-09T08:04:34Z</time>
      </trkpt>
      <trkpt lat="42.68266" lon="1.6496">
        <ele>1557.4731445312</ele>
        <time>2012-06-09T08:04:40Z</time>
      </trkpt>
      <trkpt lat="42.68266" lon="1.64957">
        <ele>1554.5891113281</ele>
        <time>2012-06-09T08:05:06Z</time>
      </trkpt>
      <trkpt lat="42.68264" lon="1.64961">
        <ele>1555.5505371094</ele>
        <time>2012-06-09T08:05:24Z</time>
      </trkpt>
      <trkpt lat="42.68263" lon="1.64969">
        <ele>1558.9150390625</ele>
        <time>2012-06-09T08:05:32Z</time>
      </trkpt>
      <trkpt lat="42.68265" lon="1.64979">
        <ele>1563.2409667969</ele>
        <time>2012-06-09T08:05:40Z</time>
      </trkpt>
      <trkpt lat="42.68266" lon="1.64983">
        <ele>1563.7214355469</ele>
        <time>2012-06-09T08:05:43Z</time>
      </trkpt>
      <trkpt lat="42.68263" lon="1.64994">
        <ele>1565.64453125</ele>
        <time>2012-06-09T08:05:51Z</time>
      </trkpt>
      <trkpt lat="42.68263" lon="1.64999">
        <ele>1565.64453125</ele>
        <time>2012-06-09T08:05:57Z</time>
      </trkpt>
      <trkpt lat="42.6826" lon="1.65005">
        <ele>1563.7214355469</ele>
        <time>2012-06-09T08:06:05Z</time>
      </trkpt>
      <trkpt lat="42.68254" lon="1.6501">
        <ele>1563.2409667969</ele>
        <time>2012-06-09T08:06:11Z</time>
      </trkpt>
      <trkpt lat="42.6825" lon="1.65006">
        <ele>1563.2409667969</ele>
        <time>2012-06-09T08:06:18Z</time>
      </trkpt>
      <trkpt lat="42.68249" lon="1.65005">
        <ele>1563.2409667969</ele>
        <time>2012-06-09T08:06:19Z</time>
      </trkpt>
      <trkpt lat="42.68245" lon="1.64996">
        <ele>1561.318359375</ele>
        <time>2012-06-09T08:06:27Z</time>
      </trkpt>
      <trkpt lat="42.6824" lon="1.64993">
        <ele>1561.318359375</ele>
        <time>2012-06-09T08:06:33Z</time>
      </trkpt>
      <trkpt lat="42.68236" lon="1.64993">
        <ele>1561.318359375</ele>
        <time>2012-06-09T08:06:41Z</time>
      </trkpt>
      <trkpt lat="42.68237" lon="1.64998">
        <ele>1562.2795410156</ele>
        <time>2012-06-09T08:06:46Z</time>
      </trkpt>
      <trkpt lat="42.68235" lon="1.65002">
        <ele>1563.7214355469</ele>
        <time>2012-06-09T08:06:54Z</time>
      </trkpt>
      <trkpt lat="42.68233" lon="1.65005">
        <ele>1565.64453125</ele>
        <time>2012-06-09T08:07:09Z</time>
      </trkpt>
      <trkpt lat="42.68227" lon="1.6501">
        <ele>1566.125</ele>
        <time>2012-06-09T08:07:16Z</time>
      </trkpt>
      <trkpt lat="42.68223" lon="1.65013">
        <ele>1568.0476074219</ele>
        <time>2012-06-09T08:07:23Z</time>
      </trkpt>
      <trkpt lat="42.68221" lon="1.65017">
        <ele>1569.0090332031</ele>
        <time>2012-06-09T08:07:30Z</time>
      </trkpt>
      <trkpt lat="42.68219" lon="1.65018">
        <ele>1569.4897460938</ele>
        <time>2012-06-09T08:07:36Z</time>
      </trkpt>
      <trkpt lat="42.68216" lon="1.65023">
        <ele>1570.4509277344</ele>
        <time>2012-06-09T08:07:42Z</time>
      </trkpt>
      <trkpt lat="42.68212" lon="1.6503">
        <ele>1571.8928222656</ele>
        <time>2012-06-09T08:07:49Z</time>
      </trkpt>
      <trkpt lat="42.68211" lon="1.65034">
        <ele>1572.3735351562</ele>
        <time>2012-06-09T08:07:56Z</time>
      </trkpt>
      <trkpt lat="42.68212" lon="1.6504">
        <ele>1572.8542480469</ele>
        <time>2012-06-09T08:08:02Z</time>
      </trkpt>
      <trkpt lat="42.68211" lon="1.65045">
        <ele>1573.8154296875</ele>
        <time>2012-06-09T08:08:08Z</time>
      </trkpt>
      <trkpt lat="42.68212" lon="1.6505">
        <ele>1575.2573242188</ele>
        <time>2012-06-09T08:08:14Z</time>
      </trkpt>
      <trkpt lat="42.68213" lon="1.65055">
        <ele>1577.1801757812</ele>
        <time>2012-06-09T08:08:22Z</time>
      </trkpt>
      <trkpt lat="42.68213" lon="1.6506">
        <ele>1578.1413574219</ele>
        <time>2012-06-09T08:08:29Z</time>
      </trkpt>
      <trkpt lat="42.68212" lon="1.65067">
        <ele>1579.5832519531</ele>
        <time>2012-06-09T08:08:36Z</time>
      </trkpt>
      <trkpt lat="42.68209" lon="1.65072">
        <ele>1581.5061035156</ele>
        <time>2012-06-09T08:08:43Z</time>
      </trkpt>
      <trkpt lat="42.68208" lon="1.65076">
        <ele>1582.9479980469</ele>
        <time>2012-06-09T08:08:48Z</time>
      </trkpt>
      <trkpt lat="42.68205" lon="1.65077">
        <ele>1584.8708496094</ele>
        <time>2012-06-09T08:08:55Z</time>
      </trkpt>
      <trkpt lat="42.68202" lon="1.65078">
        <ele>1585.3513183594</ele>
        <time>2012-06-09T08:09:01Z</time>
      </trkpt>
      <trkpt lat="42.68199" lon="1.65078">
        <ele>1586.3127441406</ele>
        <time>2012-06-09T08:09:07Z</time>
      </trkpt>
      <trkpt lat="42.68198" lon="1.65081">
        <ele>1588.7160644531</ele>
        <time>2012-06-09T08:09:14Z</time>
      </trkpt>
      <trkpt lat="42.68196" lon="1.65082">
        <ele>1589.1965332031</ele>
        <time>2012-06-09T08:09:20Z</time>
      </trkpt>
      <trkpt lat="42.68196" lon="1.65085">
        <ele>1590.1579589844</ele>
        <time>2012-06-09T08:09:25Z</time>
      </trkpt>
      <trkpt lat="42.68193" lon="1.65087">
        <ele>1591.5998535156</ele>
        <time>2012-06-09T08:09:31Z</time>
      </trkpt>
      <trkpt lat="42.6819" lon="1.65085">
        <ele>1592.5612792969</ele>
        <time>2012-06-09T08:09:38Z</time>
      </trkpt>
      <trkpt lat="42.68187" lon="1.65083">
        <ele>1593.0417480469</ele>
        <time>2012-06-09T08:09:44Z</time>
      </trkpt>
      <trkpt lat="42.68187" lon="1.65084">
        <ele>1594.0031738281</ele>
        <time>2012-06-09T08:09:51Z</time>
      </trkpt>
      <trkpt lat="42.68188" lon="1.65086">
        <ele>1595.4450683594</ele>
        <time>2012-06-09T08:10:04Z</time>
      </trkpt>
      <trkpt lat="42.68186" lon="1.65088">
        <ele>1595.92578125</ele>
        <time>2012-06-09T08:10:10Z</time>
      </trkpt>
      <trkpt lat="42.68186" lon="1.6509">
        <ele>1596.4067382812</ele>
        <time>2012-06-09T08:10:15Z</time>
      </trkpt>
      <trkpt lat="42.68186" lon="1.65095">
        <ele>1596.8872070312</ele>
        <time>2012-06-09T08:10:23Z</time>
      </trkpt>
      <trkpt lat="42.68184" lon="1.65096">
        <ele>1597.8486328125</ele>
        <time>2012-06-09T08:10:29Z</time>
      </trkpt>
      <trkpt lat="42.68182" lon="1.65098">
        <ele>1599.2905273438</ele>
        <time>2012-06-09T08:10:34Z</time>
      </trkpt>
      <trkpt lat="42.68181" lon="1.651">
        <ele>1600.251953125</ele>
        <time>2012-06-09T08:10:40Z</time>
      </trkpt>
      <trkpt lat="42.6818" lon="1.65104">
        <ele>1600.251953125</ele>
        <time>2012-06-09T08:10:45Z</time>
      </trkpt>
      <trkpt lat="42.68178" lon="1.65108">
        <ele>1602.1743164062</ele>
        <time>2012-06-09T08:10:53Z</time>
      </trkpt>
      <trkpt lat="42.68177" lon="1.65113">
        <ele>1605.0583496094</ele>
        <time>2012-06-09T08:11:00Z</time>
      </trkpt>
      <trkpt lat="42.68175" lon="1.65113">
        <ele>1606.01953125</ele>
        <time>2012-06-09T08:11:06Z</time>
      </trkpt>
      <trkpt lat="42.68173" lon="1.65111">
        <ele>1606.9809570312</ele>
        <time>2012-06-09T08:11:12Z</time>
      </trkpt>
      <trkpt lat="42.68172" lon="1.65111">
        <ele>1606.9809570312</ele>
        <time>2012-06-09T08:11:21Z</time>
      </trkpt>
      <trkpt lat="42.68172" lon="1.65113">
        <ele>1606.9809570312</ele>
        <time>2012-06-09T08:11:31Z</time>
      </trkpt>
      <trkpt lat="42.68171" lon="1.65119">
        <ele>1608.9035644531</ele>
        <time>2012-06-09T08:11:39Z</time>
      </trkpt>
      <trkpt lat="42.68169" lon="1.65121">
        <ele>1609.8647460938</ele>
        <time>2012-06-09T08:11:45Z</time>
      </trkpt>
      <trkpt lat="42.68168" lon="1.65122">
        <ele>1610.3454589844</ele>
        <time>2012-06-09T08:11:50Z</time>
      </trkpt>
      <trkpt lat="42.68166" lon="1.65128">
        <ele>1612.7490234375</ele>
        <time>2012-06-09T08:11:58Z</time>
      </trkpt>
      <trkpt lat="42.68163" lon="1.6513">
        <ele>1614.1909179688</ele>
        <time>2012-06-09T08:12:06Z</time>
      </trkpt>
      <trkpt lat="42.68161" lon="1.65132">
        <ele>1615.15234375</ele>
        <time>2012-06-09T08:12:11Z</time>
      </trkpt>
      <trkpt lat="42.68162" lon="1.65137">
        <ele>1614.6716308594</ele>
        <time>2012-06-09T08:12:16Z</time>
      </trkpt>
      <trkpt lat="42.68162" lon="1.65144">
        <ele>1615.15234375</ele>
        <time>2012-06-09T08:12:23Z</time>
      </trkpt>
      <trkpt lat="42.6816" lon="1.65151">
        <ele>1616.1135253906</ele>
        <time>2012-06-09T08:12:29Z</time>
      </trkpt>
      <trkpt lat="42.68161" lon="1.65158">
        <ele>1615.6330566406</ele>
        <time>2012-06-09T08:12:36Z</time>
      </trkpt>
      <trkpt lat="42.68159" lon="1.65165">
        <ele>1617.5554199219</ele>
        <time>2012-06-09T08:12:43Z</time>
      </trkpt>
      <trkpt lat="42.68157" lon="1.6517">
        <ele>1618.0361328125</ele>
        <time>2012-06-09T08:12:50Z</time>
      </trkpt>
      <trkpt lat="42.68155" lon="1.6517">
        <ele>1619.4782714844</ele>
        <time>2012-06-09T08:12:56Z</time>
      </trkpt>
      <trkpt lat="42.68153" lon="1.65173">
        <ele>1621.4006347656</ele>
        <time>2012-06-09T08:13:03Z</time>
      </trkpt>
      <trkpt lat="42.68155" lon="1.65178">
        <ele>1621.8813476562</ele>
        <time>2012-06-09T08:13:09Z</time>
      </trkpt>
      <trkpt lat="42.68155" lon="1.6518">
        <ele>1621.8813476562</ele>
        <time>2012-06-09T08:13:10Z</time>
      </trkpt>
      <trkpt lat="42.68156" lon="1.65188">
        <ele>1622.3620605469</ele>
        <time>2012-06-09T08:13:17Z</time>
      </trkpt>
      <trkpt lat="42.68158" lon="1.65194">
        <ele>1622.8427734375</ele>
        <time>2012-06-09T08:13:22Z</time>
      </trkpt>
      <trkpt lat="42.68158" lon="1.652">
        <ele>1623.8039550781</ele>
        <time>2012-06-09T08:13:28Z</time>
      </trkpt>
      <trkpt lat="42.68159" lon="1.65205">
        <ele>1624.7653808594</ele>
        <time>2012-06-09T08:13:34Z</time>
      </trkpt>
      <trkpt lat="42.6816" lon="1.65211">
        <ele>1625.7265625</ele>
        <time>2012-06-09T08:13:40Z</time>
      </trkpt>
      <trkpt lat="42.68162" lon="1.65215">
        <ele>1626.6879882812</ele>
        <time>2012-06-09T08:13:45Z</time>
      </trkpt>
      <trkpt lat="42.68164" lon="1.65219">
        <ele>1626.6879882812</ele>
        <time>2012-06-09T08:13:50Z</time>
      </trkpt>
      <trkpt lat="42.68168" lon="1.65224">
        <ele>1628.1301269531</ele>
        <time>2012-06-09T08:13:56Z</time>
      </trkpt>
      <trkpt lat="42.68167" lon="1.6523">
        <ele>1630.5334472656</ele>
        <time>2012-06-09T08:14:04Z</time>
      </trkpt>
      <trkpt lat="42.68167" lon="1.65234">
        <ele>1631.9753417969</ele>
        <time>2012-06-09T08:14:09Z</time>
      </trkpt>
      <trkpt lat="42.6817" lon="1.65238">
        <ele>1631.9753417969</ele>
        <time>2012-06-09T08:14:14Z</time>
      </trkpt>
      <trkpt lat="42.68171" lon="1.65243">
        <ele>1632.9365234375</ele>
        <time>2012-06-09T08:14:19Z</time>
      </trkpt>
      <trkpt lat="42.68174" lon="1.6525">
        <ele>1633.8979492188</ele>
        <time>2012-06-09T08:14:26Z</time>
      </trkpt>
      <trkpt lat="42.68176" lon="1.65254">
        <ele>1634.3786621094</ele>
        <time>2012-06-09T08:14:32Z</time>
      </trkpt>
      <trkpt lat="42.6818" lon="1.65259">
        <ele>1634.3786621094</ele>
        <time>2012-06-09T08:14:39Z</time>
      </trkpt>
      <trkpt lat="42.68185" lon="1.65263">
        <ele>1634.3786621094</ele>
        <time>2012-06-09T08:14:47Z</time>
      </trkpt>
      <trkpt lat="42.68186" lon="1.65265">
        <ele>1635.8205566406</ele>
        <time>2012-06-09T08:14:53Z</time>
      </trkpt>
      <trkpt lat="42.68186" lon="1.65268">
        <ele>1635.8205566406</ele>
        <time>2012-06-09T08:15:00Z</time>
      </trkpt>
      <trkpt lat="42.68188" lon="1.65272">
        <ele>1636.7817382812</ele>
        <time>2012-06-09T08:15:06Z</time>
      </trkpt>
      <trkpt lat="42.68189" lon="1.65275">
        <ele>1638.2238769531</ele>
        <time>2012-06-09T08:15:11Z</time>
      </trkpt>
      <trkpt lat="42.6819" lon="1.65278">
        <ele>1639.6657714844</ele>
        <time>2012-06-09T08:15:17Z</time>
      </trkpt>
      <trkpt lat="42.68192" lon="1.65281">
        <ele>1641.5883789062</ele>
        <time>2012-06-09T08:15:23Z</time>
      </trkpt>
      <trkpt lat="42.68195" lon="1.65285">
        <ele>1643.5109863281</ele>
        <time>2012-06-09T08:15:34Z</time>
      </trkpt>
      <trkpt lat="42.68198" lon="1.65288">
        <ele>1645.4338378906</ele>
        <time>2012-06-09T08:15:40Z</time>
      </trkpt>
      <trkpt lat="42.682" lon="1.65292">
        <ele>1647.8371582031</ele>
        <time>2012-06-09T08:15:47Z</time>
      </trkpt>
      <trkpt lat="42.682" lon="1.65293">
        <ele>1648.3176269531</ele>
        <time>2012-06-09T08:15:54Z</time>
      </trkpt>
      <trkpt lat="42.68201" lon="1.65295">
        <ele>1648.7983398438</ele>
        <time>2012-06-09T08:16:01Z</time>
      </trkpt>
      <trkpt lat="42.68203" lon="1.65299">
        <ele>1648.3176269531</ele>
        <time>2012-06-09T08:16:06Z</time>
      </trkpt>
      <trkpt lat="42.68203" lon="1.65303">
        <ele>1648.3176269531</ele>
        <time>2012-06-09T08:16:11Z</time>
      </trkpt>
      <trkpt lat="42.68203" lon="1.65309">
        <ele>1649.2790527344</ele>
        <time>2012-06-09T08:16:18Z</time>
      </trkpt>
      <trkpt lat="42.68204" lon="1.65311">
        <ele>1651.2016601562</ele>
        <time>2012-06-09T08:16:25Z</time>
      </trkpt>
      <trkpt lat="42.68204" lon="1.65317">
        <ele>1650.2404785156</ele>
        <time>2012-06-09T08:16:31Z</time>
      </trkpt>
      <trkpt lat="42.68203" lon="1.65323">
        <ele>1648.7983398438</ele>
        <time>2012-06-09T08:16:38Z</time>
      </trkpt>
      <trkpt lat="42.68205" lon="1.65326">
        <ele>1649.759765625</ele>
        <time>2012-06-09T08:16:43Z</time>
      </trkpt>
      <trkpt lat="42.68208" lon="1.6533">
        <ele>1651.2016601562</ele>
        <time>2012-06-09T08:16:48Z</time>
      </trkpt>
      <trkpt lat="42.68208" lon="1.65335">
        <ele>1653.1242675781</ele>
        <time>2012-06-09T08:16:53Z</time>
      </trkpt>
      <trkpt lat="42.68203" lon="1.65336">
        <ele>1654.0856933594</ele>
        <time>2012-06-09T08:16:59Z</time>
      </trkpt>
      <trkpt lat="42.682" lon="1.6534">
        <ele>1655.5275878906</ele>
        <time>2012-06-09T08:17:06Z</time>
      </trkpt>
      <trkpt lat="42.68201" lon="1.65343">
        <ele>1656.4887695312</ele>
        <time>2012-06-09T08:17:11Z</time>
      </trkpt>
      <trkpt lat="42.68202" lon="1.65348">
        <ele>1657.9309082031</ele>
        <time>2012-06-09T08:17:17Z</time>
      </trkpt>
      <trkpt lat="42.68202" lon="1.65353">
        <ele>1658.8920898438</ele>
        <time>2012-06-09T08:17:23Z</time>
      </trkpt>
      <trkpt lat="42.68203" lon="1.65356">
        <ele>1660.3342285156</ele>
        <time>2012-06-09T08:17:28Z</time>
      </trkpt>
      <trkpt lat="42.68203" lon="1.65361">
        <ele>1661.7763671875</ele>
        <time>2012-06-09T08:17:36Z</time>
      </trkpt>
      <trkpt lat="42.68202" lon="1.65364">
        <ele>1664.66015625</ele>
        <time>2012-06-09T08:17:42Z</time>
      </trkpt>
      <trkpt lat="42.68199" lon="1.65364">
        <ele>1664.66015625</ele>
        <time>2012-06-09T08:17:48Z</time>
      </trkpt>
      <trkpt lat="42.68198" lon="1.65366">
        <ele>1664.66015625</ele>
        <time>2012-06-09T08:17:53Z</time>
      </trkpt>
      <trkpt lat="42.68199" lon="1.6537">
        <ele>1666.1020507812</ele>
        <time>2012-06-09T08:17:58Z</time>
      </trkpt>
      <trkpt lat="42.68201" lon="1.65375">
        <ele>1666.5827636719</ele>
        <time>2012-06-09T08:18:04Z</time>
      </trkpt>
      <trkpt lat="42.68204" lon="1.65381">
        <ele>1667.0634765625</ele>
        <time>2012-06-09T08:18:11Z</time>
      </trkpt>
      <trkpt lat="42.68205" lon="1.65385">
        <ele>1667.0634765625</ele>
        <time>2012-06-09T08:18:17Z</time>
      </trkpt>
      <trkpt lat="42.68207" lon="1.65386">
        <ele>1666.1020507812</ele>
        <time>2012-06-09T08:18:22Z</time>
      </trkpt>
      <trkpt lat="42.6821" lon="1.65389">
        <ele>1666.1020507812</ele>
        <time>2012-06-09T08:18:28Z</time>
      </trkpt>
      <trkpt lat="42.68213" lon="1.65391">
        <ele>1667.0634765625</ele>
        <time>2012-06-09T08:18:32Z</time>
      </trkpt>
      <trkpt lat="42.68215" lon="1.65396">
        <ele>1667.0634765625</ele>
        <time>2012-06-09T08:18:39Z</time>
      </trkpt>
      <trkpt lat="42.68214" lon="1.65399">
        <ele>1667.5439453125</ele>
        <time>2012-06-09T08:18:44Z</time>
      </trkpt>
      <trkpt lat="42.68212" lon="1.65402">
        <ele>1668.0246582031</ele>
        <time>2012-06-09T08:18:50Z</time>
      </trkpt>
      <trkpt lat="42.6821" lon="1.65406">
        <ele>1668.9860839844</ele>
        <time>2012-06-09T08:18:55Z</time>
      </trkpt>
      <trkpt lat="42.68209" lon="1.65412">
        <ele>1670.4279785156</ele>
        <time>2012-06-09T08:19:02Z</time>
      </trkpt>
      <trkpt lat="42.68211" lon="1.65418">
        <ele>1670.4279785156</ele>
        <time>2012-06-09T08:19:08Z</time>
      </trkpt>
      <trkpt lat="42.68213" lon="1.65421">
        <ele>1670.4279785156</ele>
        <time>2012-06-09T08:19:14Z</time>
      </trkpt>
      <trkpt lat="42.68214" lon="1.65425">
        <ele>1669.947265625</ele>
        <time>2012-06-09T08:19:19Z</time>
      </trkpt>
      <trkpt lat="42.68216" lon="1.65428">
        <ele>1669.466796875</ele>
        <time>2012-06-09T08:19:23Z</time>
      </trkpt>
      <trkpt lat="42.68216" lon="1.65433">
        <ele>1669.947265625</ele>
        <time>2012-06-09T08:19:29Z</time>
      </trkpt>
      <trkpt lat="42.68217" lon="1.65435">
        <ele>1670.9086914062</ele>
        <time>2012-06-09T08:19:34Z</time>
      </trkpt>
      <trkpt lat="42.68219" lon="1.65439">
        <ele>1671.3891601562</ele>
        <time>2012-06-09T08:19:40Z</time>
      </trkpt>
      <trkpt lat="42.68218" lon="1.65443">
        <ele>1671.3891601562</ele>
        <time>2012-06-09T08:19:47Z</time>
      </trkpt>
      <trkpt lat="42.68219" lon="1.65447">
        <ele>1671.3891601562</ele>
        <time>2012-06-09T08:19:52Z</time>
      </trkpt>
      <trkpt lat="42.68218" lon="1.6545">
        <ele>1672.3505859375</ele>
        <time>2012-06-09T08:19:58Z</time>
      </trkpt>
      <trkpt lat="42.68217" lon="1.65453">
        <ele>1672.8312988281</ele>
        <time>2012-06-09T08:20:03Z</time>
      </trkpt>
      <trkpt lat="42.68217" lon="1.65456">
        <ele>1673.3120117188</ele>
        <time>2012-06-09T08:20:10Z</time>
      </trkpt>
      <trkpt lat="42.68217" lon="1.6546">
        <ele>1674.2731933594</ele>
        <time>2012-06-09T08:20:17Z</time>
      </trkpt>
      <trkpt lat="42.68219" lon="1.65462">
        <ele>1674.75390625</ele>
        <time>2012-06-09T08:20:22Z</time>
      </trkpt>
      <trkpt lat="42.68221" lon="1.65463">
        <ele>1675.234375</ele>
        <time>2012-06-09T08:20:28Z</time>
      </trkpt>
      <trkpt lat="42.68224" lon="1.65465">
        <ele>1675.7150878906</ele>
        <time>2012-06-09T08:20:34Z</time>
      </trkpt>
      <trkpt lat="42.68227" lon="1.65469">
        <ele>1675.234375</ele>
        <time>2012-06-09T08:20:40Z</time>
      </trkpt>
      <trkpt lat="42.6823" lon="1.65473">
        <ele>1676.1960449219</ele>
        <time>2012-06-09T08:20:47Z</time>
      </trkpt>
      <trkpt lat="42.68233" lon="1.65476">
        <ele>1676.6767578125</ele>
        <time>2012-06-09T08:20:52Z</time>
      </trkpt>
      <trkpt lat="42.68235" lon="1.65482">
        <ele>1677.6379394531</ele>
        <time>2012-06-09T08:20:57Z</time>
      </trkpt>
      <trkpt lat="42.68236" lon="1.65488">
        <ele>1678.1186523438</ele>
        <time>2012-06-09T08:21:02Z</time>
      </trkpt>
      <trkpt lat="42.68237" lon="1.65496">
        <ele>1679.0798339844</ele>
        <time>2012-06-09T08:21:09Z</time>
      </trkpt>
      <trkpt lat="42.68239" lon="1.65502">
        <ele>1681.4831542969</ele>
        <time>2012-06-09T08:21:15Z</time>
      </trkpt>
      <trkpt lat="42.68241" lon="1.65509">
        <ele>1683.4057617188</ele>
        <time>2012-06-09T08:21:21Z</time>
      </trkpt>
      <trkpt lat="42.6824" lon="1.6552">
        <ele>1685.3283691406</ele>
        <time>2012-06-09T08:21:29Z</time>
      </trkpt>
      <trkpt lat="42.68243" lon="1.65529">
        <ele>1686.2897949219</ele>
        <time>2012-06-09T08:21:36Z</time>
      </trkpt>
      <trkpt lat="42.68245" lon="1.65538">
        <ele>1686.7702636719</ele>
        <time>2012-06-09T08:21:44Z</time>
      </trkpt>
      <trkpt lat="42.68248" lon="1.65544">
        <ele>1687.2509765625</ele>
        <time>2012-06-09T08:21:51Z</time>
      </trkpt>
      <trkpt lat="42.68248" lon="1.6555">
        <ele>1688.2124023438</ele>
        <time>2012-06-09T08:21:58Z</time>
      </trkpt>
      <trkpt lat="42.68251" lon="1.65553">
        <ele>1690.6154785156</ele>
        <time>2012-06-09T08:22:04Z</time>
      </trkpt>
      <trkpt lat="42.68256" lon="1.65559">
        <ele>1691.5769042969</ele>
        <time>2012-06-09T08:22:11Z</time>
      </trkpt>
      <trkpt lat="42.68257" lon="1.6556">
        <ele>1692.0578613281</ele>
        <time>2012-06-09T08:22:12Z</time>
      </trkpt>
      <trkpt lat="42.68258" lon="1.65565">
        <ele>1693.0190429688</ele>
        <time>2012-06-09T08:22:16Z</time>
      </trkpt>
      <trkpt lat="42.68258" lon="1.65575">
        <ele>1691.0961914062</ele>
        <time>2012-06-09T08:22:24Z</time>
      </trkpt>
      <trkpt lat="42.68253" lon="1.65579">
        <ele>1691.5769042969</ele>
        <time>2012-06-09T08:22:30Z</time>
      </trkpt>
      <trkpt lat="42.68246" lon="1.65585">
        <ele>1693.0190429688</ele>
        <time>2012-06-09T08:22:38Z</time>
      </trkpt>
      <trkpt lat="42.68242" lon="1.65587">
        <ele>1693.0190429688</ele>
        <time>2012-06-09T08:22:44Z</time>
      </trkpt>
      <trkpt lat="42.68239" lon="1.6559">
        <ele>1694.4609375</ele>
        <time>2012-06-09T08:22:51Z</time>
      </trkpt>
      <trkpt lat="42.68235" lon="1.65593">
        <ele>1695.4223632812</ele>
        <time>2012-06-09T08:22:58Z</time>
      </trkpt>
      <trkpt lat="42.68231" lon="1.65596">
        <ele>1696.8642578125</ele>
        <time>2012-06-09T08:23:05Z</time>
      </trkpt>
      <trkpt lat="42.68227" lon="1.65598">
        <ele>1698.7868652344</ele>
        <time>2012-06-09T08:23:11Z</time>
      </trkpt>
      <trkpt lat="42.68225" lon="1.656">
        <ele>1699.267578125</ele>
        <time>2012-06-09T08:23:15Z</time>
      </trkpt>
      <trkpt lat="42.68222" lon="1.65606">
        <ele>1700.2290039062</ele>
        <time>2012-06-09T08:23:22Z</time>
      </trkpt>
      <trkpt lat="42.6822" lon="1.65608">
        <ele>1701.1901855469</ele>
        <time>2012-06-09T08:23:28Z</time>
      </trkpt>
      <trkpt lat="42.6822" lon="1.65611">
        <ele>1701.1901855469</ele>
        <time>2012-06-09T08:23:33Z</time>
      </trkpt>
      <trkpt lat="42.68218" lon="1.65618">
        <ele>1700.7094726562</ele>
        <time>2012-06-09T08:23:39Z</time>
      </trkpt>
      <trkpt lat="42.68221" lon="1.65627">
        <ele>1702.6320800781</ele>
        <time>2012-06-09T08:23:47Z</time>
      </trkpt>
      <trkpt lat="42.68223" lon="1.65632">
        <ele>1703.5935058594</ele>
        <time>2012-06-09T08:23:51Z</time>
      </trkpt>
      <trkpt lat="42.68227" lon="1.65641">
        <ele>1705.0354003906</ele>
        <time>2012-06-09T08:23:59Z</time>
      </trkpt>
      <trkpt lat="42.68229" lon="1.6565">
        <ele>1705.9965820312</ele>
        <time>2012-06-09T08:24:07Z</time>
      </trkpt>
      <trkpt lat="42.68232" lon="1.65651">
        <ele>1706.4772949219</ele>
        <time>2012-06-09T08:24:12Z</time>
      </trkpt>
      <trkpt lat="42.68236" lon="1.65651">
        <ele>1707.4387207031</ele>
        <time>2012-06-09T08:24:18Z</time>
      </trkpt>
      <trkpt lat="42.68237" lon="1.65656">
        <ele>1708.4001464844</ele>
        <time>2012-06-09T08:24:23Z</time>
      </trkpt>
      <trkpt lat="42.68238" lon="1.65662">
        <ele>1708.4001464844</ele>
        <time>2012-06-09T08:24:29Z</time>
      </trkpt>
      <trkpt lat="42.68242" lon="1.65667">
        <ele>1708.4001464844</ele>
        <time>2012-06-09T08:24:37Z</time>
      </trkpt>
      <trkpt lat="42.68246" lon="1.65668">
        <ele>1708.880859375</ele>
        <time>2012-06-09T08:24:42Z</time>
      </trkpt>
      <trkpt lat="42.68247" lon="1.65674">
        <ele>1708.880859375</ele>
        <time>2012-06-09T08:24:47Z</time>
      </trkpt>
      <trkpt lat="42.68245" lon="1.65679">
        <ele>1708.4001464844</ele>
        <time>2012-06-09T08:24:52Z</time>
      </trkpt>
      <trkpt lat="42.68243" lon="1.65687">
        <ele>1708.4001464844</ele>
        <time>2012-06-09T08:24:59Z</time>
      </trkpt>
      <trkpt lat="42.68242" lon="1.65694">
        <ele>1709.3615722656</ele>
        <time>2012-06-09T08:25:04Z</time>
      </trkpt>
      <trkpt lat="42.68242" lon="1.65705">
        <ele>1709.8420410156</ele>
        <time>2012-06-09T08:25:12Z</time>
      </trkpt>
      <trkpt lat="42.68243" lon="1.65712">
        <ele>1710.8034667969</ele>
        <time>2012-06-09T08:25:19Z</time>
      </trkpt>
      <trkpt lat="42.68245" lon="1.65716">
        <ele>1710.3227539062</ele>
        <time>2012-06-09T08:25:24Z</time>
      </trkpt>
      <trkpt lat="42.68247" lon="1.65722">
        <ele>1710.8034667969</ele>
        <time>2012-06-09T08:25:30Z</time>
      </trkpt>
      <trkpt lat="42.6825" lon="1.65728">
        <ele>1710.8034667969</ele>
        <time>2012-06-09T08:25:36Z</time>
      </trkpt>
      <trkpt lat="42.68251" lon="1.65733">
        <ele>1711.2841796875</ele>
        <time>2012-06-09T08:25:42Z</time>
      </trkpt>
      <trkpt lat="42.68253" lon="1.65738">
        <ele>1711.7648925781</ele>
        <time>2012-06-09T08:25:48Z</time>
      </trkpt>
      <trkpt lat="42.68251" lon="1.65742">
        <ele>1711.2841796875</ele>
        <time>2012-06-09T08:25:53Z</time>
      </trkpt>
      <trkpt lat="42.68253" lon="1.65746">
        <ele>1711.2841796875</ele>
        <time>2012-06-09T08:25:58Z</time>
      </trkpt>
      <trkpt lat="42.68254" lon="1.65748">
        <ele>1711.2841796875</ele>
        <time>2012-06-09T08:26:05Z</time>
      </trkpt>
      <trkpt lat="42.68258" lon="1.6575">
        <ele>1711.2841796875</ele>
        <time>2012-06-09T08:26:11Z</time>
      </trkpt>
      <trkpt lat="42.68259" lon="1.65753">
        <ele>1710.3227539062</ele>
        <time>2012-06-09T08:26:17Z</time>
      </trkpt>
      <trkpt lat="42.68261" lon="1.65757">
        <ele>1710.3227539062</ele>
        <time>2012-06-09T08:26:23Z</time>
      </trkpt>
      <trkpt lat="42.68262" lon="1.65761">
        <ele>1709.8420410156</ele>
        <time>2012-06-09T08:26:29Z</time>
      </trkpt>
      <trkpt lat="42.68263" lon="1.65764">
        <ele>1709.3615722656</ele>
        <time>2012-06-09T08:26:35Z</time>
      </trkpt>
      <trkpt lat="42.68266" lon="1.65769">
        <ele>1709.3615722656</ele>
        <time>2012-06-09T08:26:42Z</time>
      </trkpt>
      <trkpt lat="42.68265" lon="1.65772">
        <ele>1709.8420410156</ele>
        <time>2012-06-09T08:26:48Z</time>
      </trkpt>
      <trkpt lat="42.68262" lon="1.65769">
        <ele>1709.3615722656</ele>
        <time>2012-06-09T08:26:53Z</time>
      </trkpt>
      <trkpt lat="42.68258" lon="1.65765">
        <ele>1708.880859375</ele>
        <time>2012-06-09T08:27:00Z</time>
      </trkpt>
      <trkpt lat="42.68256" lon="1.65766">
        <ele>1709.3615722656</ele>
        <time>2012-06-09T08:27:05Z</time>
      </trkpt>
      <trkpt lat="42.68254" lon="1.65768">
        <ele>1712.7260742188</ele>
        <time>2012-06-09T08:27:15Z</time>
      </trkpt>
      <trkpt lat="42.68254" lon="1.65773">
        <ele>1713.6872558594</ele>
        <time>2012-06-09T08:27:20Z</time>
      </trkpt>
      <trkpt lat="42.68253" lon="1.65776">
        <ele>1713.2067871094</ele>
        <time>2012-06-09T08:27:26Z</time>
      </trkpt>
      <trkpt lat="42.68254" lon="1.65779">
        <ele>1713.6872558594</ele>
        <time>2012-06-09T08:27:32Z</time>
      </trkpt>
      <trkpt lat="42.68256" lon="1.65781">
        <ele>1713.2067871094</ele>
        <time>2012-06-09T08:27:37Z</time>
      </trkpt>
      <trkpt lat="42.68258" lon="1.65784">
        <ele>1713.2067871094</ele>
        <time>2012-06-09T08:27:43Z</time>
      </trkpt>
      <trkpt lat="42.68259" lon="1.65787">
        <ele>1711.7648925781</ele>
        <time>2012-06-09T08:27:49Z</time>
      </trkpt>
      <trkpt lat="42.68261" lon="1.6579">
        <ele>1710.8034667969</ele>
        <time>2012-06-09T08:27:55Z</time>
      </trkpt>
      <trkpt lat="42.68266" lon="1.65792">
        <ele>1710.8034667969</ele>
        <time>2012-06-09T08:28:01Z</time>
      </trkpt>
      <trkpt lat="42.68269" lon="1.65794">
        <ele>1711.7648925781</ele>
        <time>2012-06-09T08:28:05Z</time>
      </trkpt>
      <trkpt lat="42.68273" lon="1.65793">
        <ele>1712.2453613281</ele>
        <time>2012-06-09T08:28:11Z</time>
      </trkpt>
      <trkpt lat="42.68275" lon="1.65793">
        <ele>1712.7260742188</ele>
        <time>2012-06-09T08:28:15Z</time>
      </trkpt>
      <trkpt lat="42.68278" lon="1.65793">
        <ele>1713.6872558594</ele>
        <time>2012-06-09T08:28:22Z</time>
      </trkpt>
      <trkpt lat="42.68281" lon="1.65794">
        <ele>1714.6486816406</ele>
        <time>2012-06-09T08:28:28Z</time>
      </trkpt>
      <trkpt lat="42.68283" lon="1.65797">
        <ele>1716.0905761719</ele>
        <time>2012-06-09T08:28:36Z</time>
      </trkpt>
      <trkpt lat="42.68284" lon="1.65798">
        <ele>1716.5712890625</ele>
        <time>2012-06-09T08:28:47Z</time>
      </trkpt>
      <trkpt lat="42.68285" lon="1.65801">
        <ele>1717.0520019531</ele>
        <time>2012-06-09T08:28:53Z</time>
      </trkpt>
      <trkpt lat="42.68284" lon="1.65803">
        <ele>1717.5324707031</ele>
        <time>2012-06-09T08:28:58Z</time>
      </trkpt>
      <trkpt lat="42.68282" lon="1.65808">
        <ele>1718.974609375</ele>
        <time>2012-06-09T08:29:04Z</time>
      </trkpt>
      <trkpt lat="42.68281" lon="1.65813">
        <ele>1720.4165039062</ele>
        <time>2012-06-09T08:29:10Z</time>
      </trkpt>
      <trkpt lat="42.6828" lon="1.65819">
        <ele>1721.3776855469</ele>
        <time>2012-06-09T08:29:16Z</time>
      </trkpt>
      <trkpt lat="42.68277" lon="1.65825">
        <ele>1722.3391113281</ele>
        <time>2012-06-09T08:29:22Z</time>
      </trkpt>
      <trkpt lat="42.68275" lon="1.65833">
        <ele>1722.8198242188</ele>
        <time>2012-06-09T08:29:29Z</time>
      </trkpt>
      <trkpt lat="42.68275" lon="1.65836">
        <ele>1722.8198242188</ele>
        <time>2012-06-09T08:29:34Z</time>
      </trkpt>
      <trkpt lat="42.68275" lon="1.65842">
        <ele>1722.3391113281</ele>
        <time>2012-06-09T08:29:39Z</time>
      </trkpt>
      <trkpt lat="42.68275" lon="1.65849">
        <ele>1723.3005371094</ele>
        <time>2012-06-09T08:29:46Z</time>
      </trkpt>
      <trkpt lat="42.68276" lon="1.65857">
        <ele>1723.7810058594</ele>
        <time>2012-06-09T08:29:53Z</time>
      </trkpt>
      <trkpt lat="42.68277" lon="1.65863">
        <ele>1725.2231445312</ele>
        <time>2012-06-09T08:29:59Z</time>
      </trkpt>
      <trkpt lat="42.68279" lon="1.65868">
        <ele>1726.6652832031</ele>
        <time>2012-06-09T08:30:05Z</time>
      </trkpt>
      <trkpt lat="42.6828" lon="1.65875">
        <ele>1728.587890625</ele>
        <time>2012-06-09T08:30:13Z</time>
      </trkpt>
      <trkpt lat="42.68282" lon="1.65881">
        <ele>1729.5490722656</ele>
        <time>2012-06-09T08:30:19Z</time>
      </trkpt>
      <trkpt lat="42.6828" lon="1.65887">
        <ele>1730.9912109375</ele>
        <time>2012-06-09T08:30:27Z</time>
      </trkpt>
      <trkpt lat="42.68278" lon="1.65894">
        <ele>1732.9135742188</ele>
        <time>2012-06-09T08:30:35Z</time>
      </trkpt>
      <trkpt lat="42.68276" lon="1.65897">
        <ele>1732.9135742188</ele>
        <time>2012-06-09T08:30:40Z</time>
      </trkpt>
      <trkpt lat="42.68273" lon="1.65904">
        <ele>1733.3942871094</ele>
        <time>2012-06-09T08:30:47Z</time>
      </trkpt>
      <trkpt lat="42.68271" lon="1.6591">
        <ele>1735.3168945312</ele>
        <time>2012-06-09T08:30:53Z</time>
      </trkpt>
      <trkpt lat="42.68271" lon="1.65916">
        <ele>1734.8364257812</ele>
        <time>2012-06-09T08:30:59Z</time>
      </trkpt>
      <trkpt lat="42.68274" lon="1.65921">
        <ele>1734.8364257812</ele>
        <time>2012-06-09T08:31:04Z</time>
      </trkpt>
      <trkpt lat="42.68274" lon="1.65927">
        <ele>1736.2783203125</ele>
        <time>2012-06-09T08:31:10Z</time>
      </trkpt>
      <trkpt lat="42.68278" lon="1.65931">
        <ele>1738.681640625</ele>
        <time>2012-06-09T08:31:17Z</time>
      </trkpt>
      <trkpt lat="42.68281" lon="1.65934">
        <ele>1739.162109375</ele>
        <time>2012-06-09T08:31:23Z</time>
      </trkpt>
      <trkpt lat="42.68284" lon="1.65936">
        <ele>1739.6428222656</ele>
        <time>2012-06-09T08:31:28Z</time>
      </trkpt>
      <trkpt lat="42.68287" lon="1.65942">
        <ele>1740.1237792969</ele>
        <time>2012-06-09T08:31:36Z</time>
      </trkpt>
      <trkpt lat="42.6829" lon="1.65947">
        <ele>1740.6042480469</ele>
        <time>2012-06-09T08:31:43Z</time>
      </trkpt>
      <trkpt lat="42.68293" lon="1.65953">
        <ele>1741.0849609375</ele>
        <time>2012-06-09T08:31:51Z</time>
      </trkpt>
      <trkpt lat="42.68294" lon="1.6596">
        <ele>1741.0849609375</ele>
        <time>2012-06-09T08:31:57Z</time>
      </trkpt>
      <trkpt lat="42.68298" lon="1.65969">
        <ele>1741.0849609375</ele>
        <time>2012-06-09T08:32:06Z</time>
      </trkpt>
      <trkpt lat="42.683" lon="1.65977">
        <ele>1742.0463867188</ele>
        <time>2012-06-09T08:32:13Z</time>
      </trkpt>
      <trkpt lat="42.683" lon="1.65983">
        <ele>1743.48828125</ele>
        <time>2012-06-09T08:32:19Z</time>
      </trkpt>
      <trkpt lat="42.68302" lon="1.65989">
        <ele>1744.4494628906</ele>
        <time>2012-06-09T08:32:25Z</time>
      </trkpt>
      <trkpt lat="42.68304" lon="1.65996">
        <ele>1744.9301757812</ele>
        <time>2012-06-09T08:32:31Z</time>
      </trkpt>
      <trkpt lat="42.68307" lon="1.66003">
        <ele>1745.4108886719</ele>
        <time>2012-06-09T08:32:37Z</time>
      </trkpt>
      <trkpt lat="42.68307" lon="1.66011">
        <ele>1745.8916015625</ele>
        <time>2012-06-09T08:32:43Z</time>
      </trkpt>
      <trkpt lat="42.68307" lon="1.66012">
        <ele>1745.8916015625</ele>
        <time>2012-06-09T08:32:44Z</time>
      </trkpt>
      <trkpt lat="42.68303" lon="1.66023">
        <ele>1746.8527832031</ele>
        <time>2012-06-09T08:32:52Z</time>
      </trkpt>
      <trkpt lat="42.68303" lon="1.6603">
        <ele>1747.8142089844</ele>
        <time>2012-06-09T08:32:58Z</time>
      </trkpt>
      <trkpt lat="42.68302" lon="1.66036">
        <ele>1748.775390625</ele>
        <time>2012-06-09T08:33:03Z</time>
      </trkpt>
      <trkpt lat="42.68299" lon="1.66042">
        <ele>1749.7368164062</ele>
        <time>2012-06-09T08:33:09Z</time>
      </trkpt>
      <trkpt lat="42.68296" lon="1.66049">
        <ele>1750.6979980469</ele>
        <time>2012-06-09T08:33:15Z</time>
      </trkpt>
      <trkpt lat="42.68294" lon="1.66054">
        <ele>1751.6594238281</ele>
        <time>2012-06-09T08:33:21Z</time>
      </trkpt>
      <trkpt lat="42.68292" lon="1.6606">
        <ele>1752.1398925781</ele>
        <time>2012-06-09T08:33:27Z</time>
      </trkpt>
      <trkpt lat="42.68292" lon="1.66065">
        <ele>1753.1013183594</ele>
        <time>2012-06-09T08:33:33Z</time>
      </trkpt>
      <trkpt lat="42.68289" lon="1.6607">
        <ele>1754.0627441406</ele>
        <time>2012-06-09T08:33:40Z</time>
      </trkpt>
      <trkpt lat="42.68284" lon="1.66072">
        <ele>1754.5432128906</ele>
        <time>2012-06-09T08:33:47Z</time>
      </trkpt>
      <trkpt lat="42.68283" lon="1.66077">
        <ele>1755.9851074219</ele>
        <time>2012-06-09T08:33:53Z</time>
      </trkpt>
      <trkpt lat="42.68282" lon="1.6608">
        <ele>1755.9851074219</ele>
        <time>2012-06-09T08:33:58Z</time>
      </trkpt>
      <trkpt lat="42.68279" lon="1.66081">
        <ele>1756.4660644531</ele>
        <time>2012-06-09T08:34:03Z</time>
      </trkpt>
      <trkpt lat="42.68276" lon="1.66083">
        <ele>1757.908203125</ele>
        <time>2012-06-09T08:34:10Z</time>
      </trkpt>
      <trkpt lat="42.68275" lon="1.66087">
        <ele>1758.388671875</ele>
        <time>2012-06-09T08:34:16Z</time>
      </trkpt>
      <trkpt lat="42.68274" lon="1.66092">
        <ele>1759.3500976562</ele>
        <time>2012-06-09T08:34:21Z</time>
      </trkpt>
      <trkpt lat="42.68273" lon="1.66094">
        <ele>1760.3112792969</ele>
        <time>2012-06-09T08:34:26Z</time>
      </trkpt>
      <trkpt lat="42.68274" lon="1.66099">
        <ele>1760.7919921875</ele>
        <time>2012-06-09T08:34:33Z</time>
      </trkpt>
      <trkpt lat="42.68273" lon="1.66103">
        <ele>1761.7534179688</ele>
        <time>2012-06-09T08:34:39Z</time>
      </trkpt>
      <trkpt lat="42.68273" lon="1.66103">
        <ele>1761.2727050781</ele>
        <time>2012-06-09T08:34:48Z</time>
      </trkpt>
      <trkpt lat="42.68272" lon="1.66105">
        <ele>1762.2338867188</ele>
        <time>2012-06-09T08:34:54Z</time>
      </trkpt>
      <trkpt lat="42.68271" lon="1.6611">
        <ele>1762.2338867188</ele>
        <time>2012-06-09T08:35:04Z</time>
      </trkpt>
      <trkpt lat="42.68269" lon="1.66115">
        <ele>1762.2338867188</ele>
        <time>2012-06-09T08:35:10Z</time>
      </trkpt>
      <trkpt lat="42.68266" lon="1.6612">
        <ele>1762.2338867188</ele>
        <time>2012-06-09T08:35:16Z</time>
      </trkpt>
      <trkpt lat="42.68262" lon="1.6613">
        <ele>1760.7919921875</ele>
        <time>2012-06-09T08:35:24Z</time>
      </trkpt>
      <trkpt lat="42.68261" lon="1.66141">
        <ele>1763.67578125</ele>
        <time>2012-06-09T08:35:33Z</time>
      </trkpt>
      <trkpt lat="42.68259" lon="1.66148">
        <ele>1764.6372070312</ele>
        <time>2012-06-09T08:35:39Z</time>
      </trkpt>
      <trkpt lat="42.68258" lon="1.66154">
        <ele>1761.7534179688</ele>
        <time>2012-06-09T08:35:46Z</time>
      </trkpt>
      <trkpt lat="42.68259" lon="1.66154">
        <ele>1761.7534179688</ele>
        <time>2012-06-09T08:35:54Z</time>
      </trkpt>
      <trkpt lat="42.68256" lon="1.66158">
        <ele>1762.7145996094</ele>
        <time>2012-06-09T08:36:05Z</time>
      </trkpt>
      <trkpt lat="42.68252" lon="1.66168">
        <ele>1764.6372070312</ele>
        <time>2012-06-09T08:36:13Z</time>
      </trkpt>
      <trkpt lat="42.68249" lon="1.66172">
        <ele>1765.1179199219</ele>
        <time>2012-06-09T08:36:20Z</time>
      </trkpt>
      <trkpt lat="42.68244" lon="1.66177">
        <ele>1766.5598144531</ele>
        <time>2012-06-09T08:36:26Z</time>
      </trkpt>
      <trkpt lat="42.68242" lon="1.66184">
        <ele>1768.0017089844</ele>
        <time>2012-06-09T08:36:31Z</time>
      </trkpt>
      <trkpt lat="42.68237" lon="1.66193">
        <ele>1767.5209960938</ele>
        <time>2012-06-09T08:36:40Z</time>
      </trkpt>
      <trkpt lat="42.68235" lon="1.66198">
        <ele>1766.5598144531</ele>
        <time>2012-06-09T08:36:46Z</time>
      </trkpt>
      <trkpt lat="42.6823" lon="1.66205">
        <ele>1768.0017089844</ele>
        <time>2012-06-09T08:36:53Z</time>
      </trkpt>
      <trkpt lat="42.68229" lon="1.66208">
        <ele>1768.0017089844</ele>
        <time>2012-06-09T08:37:00Z</time>
      </trkpt>
      <trkpt lat="42.68226" lon="1.66217">
        <ele>1769.4438476562</ele>
        <time>2012-06-09T08:37:08Z</time>
      </trkpt>
      <trkpt lat="42.68227" lon="1.66224">
        <ele>1769.4438476562</ele>
        <time>2012-06-09T08:37:16Z</time>
      </trkpt>
      <trkpt lat="42.68227" lon="1.66223">
        <ele>1769.4438476562</ele>
        <time>2012-06-09T08:37:22Z</time>
      </trkpt>
      <trkpt lat="42.68227" lon="1.66226">
        <ele>1771.8469238281</ele>
        <time>2012-06-09T08:37:30Z</time>
      </trkpt>
      <trkpt lat="42.68228" lon="1.66223">
        <ele>1764.6372070312</ele>
        <time>2012-06-09T08:37:59Z</time>
      </trkpt>
      <trkpt lat="42.68228" lon="1.66223">
        <ele>1764.6372070312</ele>
        <time>2012-06-09T08:38:18Z</time>
      </trkpt>
      <trkpt lat="42.68227" lon="1.66226">
        <ele>1765.5986328125</ele>
        <time>2012-06-09T08:38:26Z</time>
      </trkpt>
      <trkpt lat="42.68227" lon="1.6623">
        <ele>1767.0405273438</ele>
        <time>2012-06-09T08:38:31Z</time>
      </trkpt>
      <trkpt lat="42.68227" lon="1.66232">
        <ele>1766.5598144531</ele>
        <time>2012-06-09T08:38:44Z</time>
      </trkpt>
      <trkpt lat="42.68227" lon="1.66242">
        <ele>1767.0405273438</ele>
        <time>2012-06-09T08:38:51Z</time>
      </trkpt>
      <trkpt lat="42.68225" lon="1.66246">
        <ele>1766.5598144531</ele>
        <time>2012-06-09T08:38:54Z</time>
      </trkpt>
      <trkpt lat="42.68222" lon="1.66254">
        <ele>1766.5598144531</ele>
        <time>2012-06-09T08:39:00Z</time>
      </trkpt>
      <trkpt lat="42.68218" lon="1.66267">
        <ele>1768.482421875</ele>
        <time>2012-06-09T08:39:08Z</time>
      </trkpt>
      <trkpt lat="42.68214" lon="1.66276">
        <ele>1768.482421875</ele>
        <time>2012-06-09T08:39:15Z</time>
      </trkpt>
      <trkpt lat="42.68209" lon="1.66281">
        <ele>1768.9631347656</ele>
        <time>2012-06-09T08:39:21Z</time>
      </trkpt>
      <trkpt lat="42.68207" lon="1.66288">
        <ele>1770.4050292969</ele>
        <time>2012-06-09T08:39:27Z</time>
      </trkpt>
      <trkpt lat="42.68203" lon="1.66299">
        <ele>1773.2893066406</ele>
        <time>2012-06-09T08:39:35Z</time>
      </trkpt>
      <trkpt lat="42.68198" lon="1.66309">
        <ele>1773.7697753906</ele>
        <time>2012-06-09T08:39:43Z</time>
      </trkpt>
      <trkpt lat="42.68191" lon="1.66315">
        <ele>1775.2116699219</ele>
        <time>2012-06-09T08:39:50Z</time>
      </trkpt>
      <trkpt lat="42.68187" lon="1.66322">
        <ele>1776.1730957031</ele>
        <time>2012-06-09T08:39:56Z</time>
      </trkpt>
      <trkpt lat="42.68187" lon="1.66323">
        <ele>1776.1730957031</ele>
        <time>2012-06-09T08:39:57Z</time>
      </trkpt>
      <trkpt lat="42.68185" lon="1.66331">
        <ele>1777.1345214844</ele>
        <time>2012-06-09T08:40:04Z</time>
      </trkpt>
      <trkpt lat="42.68185" lon="1.66338">
        <ele>1777.6149902344</ele>
        <time>2012-06-09T08:40:10Z</time>
      </trkpt>
      <trkpt lat="42.68185" lon="1.66344">
        <ele>1778.095703125</ele>
        <time>2012-06-09T08:40:16Z</time>
      </trkpt>
      <trkpt lat="42.68183" lon="1.6635">
        <ele>1779.0568847656</ele>
        <time>2012-06-09T08:40:22Z</time>
      </trkpt>
      <trkpt lat="42.6818" lon="1.66355">
        <ele>1779.5375976562</ele>
        <time>2012-06-09T08:40:28Z</time>
      </trkpt>
      <trkpt lat="42.68178" lon="1.66363">
        <ele>1780.9797363281</ele>
        <time>2012-06-09T08:40:35Z</time>
      </trkpt>
      <trkpt lat="42.68174" lon="1.66366">
        <ele>1780.9797363281</ele>
        <time>2012-06-09T08:40:41Z</time>
      </trkpt>
      <trkpt lat="42.68169" lon="1.66368">
        <ele>1781.9409179688</ele>
        <time>2012-06-09T08:40:47Z</time>
      </trkpt>
      <trkpt lat="42.68165" lon="1.66374">
        <ele>1782.4216308594</ele>
        <time>2012-06-09T08:40:54Z</time>
      </trkpt>
      <trkpt lat="42.68165" lon="1.66379">
        <ele>1783.3828125</ele>
        <time>2012-06-09T08:40:59Z</time>
      </trkpt>
      <trkpt lat="42.68164" lon="1.66384">
        <ele>1784.8249511719</ele>
        <time>2012-06-09T08:41:07Z</time>
      </trkpt>
      <trkpt lat="42.68165" lon="1.66388">
        <ele>1785.3054199219</ele>
        <time>2012-06-09T08:41:14Z</time>
      </trkpt>
      <trkpt lat="42.68164" lon="1.66392">
        <ele>1785.7861328125</ele>
        <time>2012-06-09T08:41:20Z</time>
      </trkpt>
      <trkpt lat="42.6816" lon="1.66396">
        <ele>1786.2668457031</ele>
        <time>2012-06-09T08:41:27Z</time>
      </trkpt>
      <trkpt lat="42.68155" lon="1.66398">
        <ele>1787.2280273438</ele>
        <time>2012-06-09T08:41:34Z</time>
      </trkpt>
      <trkpt lat="42.68152" lon="1.66398">
        <ele>1788.6704101562</ele>
        <time>2012-06-09T08:41:39Z</time>
      </trkpt>
      <trkpt lat="42.6815" lon="1.66399">
        <ele>1788.6704101562</ele>
        <time>2012-06-09T08:41:45Z</time>
      </trkpt>
      <trkpt lat="42.68148" lon="1.66402">
        <ele>1790.5927734375</ele>
        <time>2012-06-09T08:41:53Z</time>
      </trkpt>
      <trkpt lat="42.68147" lon="1.66404">
        <ele>1791.5541992188</ele>
        <time>2012-06-09T08:41:58Z</time>
      </trkpt>
      <trkpt lat="42.68146" lon="1.66406">
        <ele>1792.515625</ele>
        <time>2012-06-09T08:42:04Z</time>
      </trkpt>
      <trkpt lat="42.68145" lon="1.6641">
        <ele>1793.9575195312</ele>
        <time>2012-06-09T08:42:09Z</time>
      </trkpt>
      <trkpt lat="42.68143" lon="1.66412">
        <ele>1794.9187011719</ele>
        <time>2012-06-09T08:42:13Z</time>
      </trkpt>
      <trkpt lat="42.6814" lon="1.66412">
        <ele>1796.3608398438</ele>
        <time>2012-06-09T08:42:18Z</time>
      </trkpt>
      <trkpt lat="42.68138" lon="1.66412">
        <ele>1796.8413085938</ele>
        <time>2012-06-09T08:42:24Z</time>
      </trkpt>
      <trkpt lat="42.68136" lon="1.66414">
        <ele>1797.3220214844</ele>
        <time>2012-06-09T08:42:30Z</time>
      </trkpt>
      <trkpt lat="42.68134" lon="1.66417">
        <ele>1798.283203125</ele>
        <time>2012-06-09T08:42:36Z</time>
      </trkpt>
      <trkpt lat="42.68127" lon="1.66423">
        <ele>1801.6479492188</ele>
        <time>2012-06-09T08:42:45Z</time>
      </trkpt>
      <trkpt lat="42.68126" lon="1.66426">
        <ele>1802.6091308594</ele>
        <time>2012-06-09T08:42:48Z</time>
      </trkpt>
      <trkpt lat="42.68122" lon="1.66435">
        <ele>1806.9353027344</ele>
        <time>2012-06-09T08:42:55Z</time>
      </trkpt>
      <trkpt lat="42.68118" lon="1.66439">
        <ele>1807.8967285156</ele>
        <time>2012-06-09T08:43:01Z</time>
      </trkpt>
      <trkpt lat="42.68114" lon="1.66437">
        <ele>1805.9738769531</ele>
        <time>2012-06-09T08:43:06Z</time>
      </trkpt>
      <trkpt lat="42.6811" lon="1.66443">
        <ele>1806.4545898438</ele>
        <time>2012-06-09T08:43:13Z</time>
      </trkpt>
      <trkpt lat="42.68108" lon="1.6645">
        <ele>1807.416015625</ele>
        <time>2012-06-09T08:43:18Z</time>
      </trkpt>
      <trkpt lat="42.68105" lon="1.6646">
        <ele>1807.8967285156</ele>
        <time>2012-06-09T08:43:26Z</time>
      </trkpt>
      <trkpt lat="42.681" lon="1.66465">
        <ele>1810.2998046875</ele>
        <time>2012-06-09T08:43:32Z</time>
      </trkpt>
      <trkpt lat="42.68095" lon="1.66466">
        <ele>1809.8190917969</ele>
        <time>2012-06-09T08:43:38Z</time>
      </trkpt>
      <trkpt lat="42.68091" lon="1.66469">
        <ele>1810.2998046875</ele>
        <time>2012-06-09T08:43:44Z</time>
      </trkpt>
      <trkpt lat="42.68088" lon="1.66468">
        <ele>1811.2612304688</ele>
        <time>2012-06-09T08:43:51Z</time>
      </trkpt>
      <trkpt lat="42.68085" lon="1.66468">
        <ele>1811.7419433594</ele>
        <time>2012-06-09T08:43:57Z</time>
      </trkpt>
      <trkpt lat="42.68084" lon="1.66467">
        <ele>1811.2612304688</ele>
        <time>2012-06-09T08:44:03Z</time>
      </trkpt>
      <trkpt lat="42.68081" lon="1.66469">
        <ele>1811.7419433594</ele>
        <time>2012-06-09T08:44:11Z</time>
      </trkpt>
      <trkpt lat="42.68081" lon="1.66469">
        <ele>1810.2998046875</ele>
        <time>2012-06-09T08:44:20Z</time>
      </trkpt>
      <trkpt lat="42.6808" lon="1.6647">
        <ele>1809.8190917969</ele>
        <time>2012-06-09T08:44:29Z</time>
      </trkpt>
      <trkpt lat="42.68079" lon="1.66473">
        <ele>1810.7805175781</ele>
        <time>2012-06-09T08:44:35Z</time>
      </trkpt>
      <trkpt lat="42.68076" lon="1.66478">
        <ele>1813.1838378906</ele>
        <time>2012-06-09T08:44:41Z</time>
      </trkpt>
      <trkpt lat="42.68073" lon="1.66479">
        <ele>1813.6643066406</ele>
        <time>2012-06-09T08:44:46Z</time>
      </trkpt>
      <trkpt lat="42.68068" lon="1.6648">
        <ele>1816.0676269531</ele>
        <time>2012-06-09T08:44:53Z</time>
      </trkpt>
      <trkpt lat="42.68068" lon="1.66483">
        <ele>1816.0676269531</ele>
        <time>2012-06-09T08:44:59Z</time>
      </trkpt>
      <trkpt lat="42.68064" lon="1.66484">
        <ele>1817.5095214844</ele>
        <time>2012-06-09T08:45:04Z</time>
      </trkpt>
      <trkpt lat="42.68062" lon="1.66485">
        <ele>1817.0290527344</ele>
        <time>2012-06-09T08:45:09Z</time>
      </trkpt>
      <trkpt lat="42.6806" lon="1.66488">
        <ele>1816.5483398438</ele>
        <time>2012-06-09T08:45:16Z</time>
      </trkpt>
      <trkpt lat="42.6806" lon="1.66492">
        <ele>1817.0290527344</ele>
        <time>2012-06-09T08:45:21Z</time>
      </trkpt>
      <trkpt lat="42.68056" lon="1.66496">
        <ele>1817.990234375</ele>
        <time>2012-06-09T08:45:27Z</time>
      </trkpt>
      <trkpt lat="42.68052" lon="1.665">
        <ele>1819.4323730469</ele>
        <time>2012-06-09T08:45:33Z</time>
      </trkpt>
      <trkpt lat="42.68048" lon="1.66503">
        <ele>1818.9516601562</ele>
        <time>2012-06-09T08:45:39Z</time>
      </trkpt>
      <trkpt lat="42.68048" lon="1.66507">
        <ele>1816.5483398438</ele>
        <time>2012-06-09T08:45:45Z</time>
      </trkpt>
      <trkpt lat="42.68047" lon="1.66508">
        <ele>1814.1450195312</ele>
        <time>2012-06-09T08:45:51Z</time>
      </trkpt>
      <trkpt lat="42.68042" lon="1.66505">
        <ele>1814.6257324219</ele>
        <time>2012-06-09T08:45:58Z</time>
      </trkpt>
      <trkpt lat="42.68038" lon="1.6651">
        <ele>1816.5483398438</ele>
        <time>2012-06-09T08:46:05Z</time>
      </trkpt>
      <trkpt lat="42.68036" lon="1.66516">
        <ele>1816.0676269531</ele>
        <time>2012-06-09T08:46:12Z</time>
      </trkpt>
      <trkpt lat="42.68031" lon="1.66518">
        <ele>1817.990234375</ele>
        <time>2012-06-09T08:46:17Z</time>
      </trkpt>
      <trkpt lat="42.68028" lon="1.66517">
        <ele>1819.4323730469</ele>
        <time>2012-06-09T08:46:22Z</time>
      </trkpt>
      <trkpt lat="42.68024" lon="1.66516">
        <ele>1822.31640625</ele>
        <time>2012-06-09T08:46:26Z</time>
      </trkpt>
      <trkpt lat="42.68023" lon="1.66515">
        <ele>1823.7583007812</ele>
        <time>2012-06-09T08:46:27Z</time>
      </trkpt>
      <trkpt lat="42.68017" lon="1.66514">
        <ele>1827.123046875</ele>
        <time>2012-06-09T08:46:32Z</time>
      </trkpt>
      <trkpt lat="42.68011" lon="1.66511">
        <ele>1829.5261230469</ele>
        <time>2012-06-09T08:46:38Z</time>
      </trkpt>
      <trkpt lat="42.68008" lon="1.66517">
        <ele>1825.6809082031</ele>
        <time>2012-06-09T08:46:45Z</time>
      </trkpt>
      <trkpt lat="42.68007" lon="1.6652">
        <ele>1825.2001953125</ele>
        <time>2012-06-09T08:46:50Z</time>
      </trkpt>
      <trkpt lat="42.68008" lon="1.66522">
        <ele>1823.2778320312</ele>
        <time>2012-06-09T08:46:52Z</time>
      </trkpt>
      <trkpt lat="42.68006" lon="1.66531">
        <ele>1822.31640625</ele>
        <time>2012-06-09T08:47:00Z</time>
      </trkpt>
      <trkpt lat="42.68005" lon="1.66532">
        <ele>1822.31640625</ele>
        <time>2012-06-09T08:47:01Z</time>
      </trkpt>
      <trkpt lat="42.68003" lon="1.66535">
        <ele>1823.2778320312</ele>
        <time>2012-06-09T08:47:04Z</time>
      </trkpt>
      <trkpt lat="42.68" lon="1.66537">
        <ele>1824.7197265625</ele>
        <time>2012-06-09T08:47:08Z</time>
      </trkpt>
      <trkpt lat="42.67994" lon="1.66539">
        <ele>1827.123046875</ele>
        <time>2012-06-09T08:47:15Z</time>
      </trkpt>
      <trkpt lat="42.6799" lon="1.66543">
        <ele>1829.0454101562</ele>
        <time>2012-06-09T08:47:20Z</time>
      </trkpt>
      <trkpt lat="42.67987" lon="1.66544">
        <ele>1828.0842285156</ele>
        <time>2012-06-09T08:47:25Z</time>
      </trkpt>
      <trkpt lat="42.67984" lon="1.66548">
        <ele>1830.9682617188</ele>
        <time>2012-06-09T08:47:29Z</time>
      </trkpt>
      <trkpt lat="42.67981" lon="1.66551">
        <ele>1831.9294433594</ele>
        <time>2012-06-09T08:47:32Z</time>
      </trkpt>
      <trkpt lat="42.67974" lon="1.66556">
        <ele>1833.8520507812</ele>
        <time>2012-06-09T08:47:39Z</time>
      </trkpt>
      <trkpt lat="42.67973" lon="1.66558">
        <ele>1834.3327636719</ele>
        <time>2012-06-09T08:47:41Z</time>
      </trkpt>
      <trkpt lat="42.67964" lon="1.66564">
        <ele>1831.9294433594</ele>
        <time>2012-06-09T08:47:51Z</time>
      </trkpt>
      <trkpt lat="42.67956" lon="1.66571">
        <ele>1827.123046875</ele>
        <time>2012-06-09T08:48:02Z</time>
      </trkpt>
      <trkpt lat="42.67953" lon="1.66578">
        <ele>1826.6423339844</ele>
        <time>2012-06-09T08:48:07Z</time>
      </trkpt>
      <trkpt lat="42.67947" lon="1.66586">
        <ele>1828.5649414062</ele>
        <time>2012-06-09T08:48:14Z</time>
      </trkpt>
      <trkpt lat="42.67944" lon="1.66593">
        <ele>1827.123046875</ele>
        <time>2012-06-09T08:48:21Z</time>
      </trkpt>
      <trkpt lat="42.67943" lon="1.66594">
        <ele>1827.123046875</ele>
        <time>2012-06-09T08:48:22Z</time>
      </trkpt>
      <trkpt lat="42.67938" lon="1.66597">
        <ele>1828.5649414062</ele>
        <time>2012-06-09T08:48:27Z</time>
      </trkpt>
      <trkpt lat="42.67934" lon="1.66598">
        <ele>1830.4875488281</ele>
        <time>2012-06-09T08:48:32Z</time>
      </trkpt>
      <trkpt lat="42.67929" lon="1.66598">
        <ele>1831.4487304688</ele>
        <time>2012-06-09T08:48:38Z</time>
      </trkpt>
      <trkpt lat="42.67923" lon="1.66599">
        <ele>1832.890625</ele>
        <time>2012-06-09T08:48:44Z</time>
      </trkpt>
      <trkpt lat="42.67921" lon="1.66601">
        <ele>1832.890625</ele>
        <time>2012-06-09T08:48:47Z</time>
      </trkpt>
      <trkpt lat="42.67918" lon="1.66604">
        <ele>1832.41015625</ele>
        <time>2012-06-09T08:48:53Z</time>
      </trkpt>
      <trkpt lat="42.67916" lon="1.66609">
        <ele>1832.890625</ele>
        <time>2012-06-09T08:48:59Z</time>
      </trkpt>
      <trkpt lat="42.67914" lon="1.66611">
        <ele>1834.3327636719</ele>
        <time>2012-06-09T08:49:03Z</time>
      </trkpt>
      <trkpt lat="42.67911" lon="1.66614">
        <ele>1834.3327636719</ele>
        <time>2012-06-09T08:49:10Z</time>
      </trkpt>
      <trkpt lat="42.67909" lon="1.66617">
        <ele>1834.8134765625</ele>
        <time>2012-06-09T08:49:15Z</time>
      </trkpt>
      <trkpt lat="42.67908" lon="1.66621">
        <ele>1834.3327636719</ele>
        <time>2012-06-09T08:49:19Z</time>
      </trkpt>
      <trkpt lat="42.67906" lon="1.66625">
        <ele>1834.3327636719</ele>
        <time>2012-06-09T08:49:25Z</time>
      </trkpt>
      <trkpt lat="42.67903" lon="1.66627">
        <ele>1834.8134765625</ele>
        <time>2012-06-09T08:49:30Z</time>
      </trkpt>
      <trkpt lat="42.679" lon="1.66631">
        <ele>1835.2939453125</ele>
        <time>2012-06-09T08:49:34Z</time>
      </trkpt>
      <trkpt lat="42.67898" lon="1.66632">
        <ele>1835.7746582031</ele>
        <time>2012-06-09T08:49:38Z</time>
      </trkpt>
      <trkpt lat="42.67895" lon="1.66635">
        <ele>1839.1394042969</ele>
        <time>2012-06-09T08:49:43Z</time>
      </trkpt>
      <trkpt lat="42.67894" lon="1.66638">
        <ele>1840.1008300781</ele>
        <time>2012-06-09T08:49:48Z</time>
      </trkpt>
      <trkpt lat="42.67894" lon="1.66642">
        <ele>1839.6201171875</ele>
        <time>2012-06-09T08:49:53Z</time>
      </trkpt>
      <trkpt lat="42.67892" lon="1.66647">
        <ele>1841.0620117188</ele>
        <time>2012-06-09T08:50:00Z</time>
      </trkpt>
      <trkpt lat="42.67891" lon="1.6665">
        <ele>1840.5812988281</ele>
        <time>2012-06-09T08:50:04Z</time>
      </trkpt>
      <trkpt lat="42.67888" lon="1.66652">
        <ele>1841.0620117188</ele>
        <time>2012-06-09T08:50:08Z</time>
      </trkpt>
      <trkpt lat="42.67886" lon="1.66655">
        <ele>1843.9460449219</ele>
        <time>2012-06-09T08:50:12Z</time>
      </trkpt>
      <trkpt lat="42.67881" lon="1.66658">
        <ele>1848.2717285156</ele>
        <time>2012-06-09T08:50:18Z</time>
      </trkpt>
      <trkpt lat="42.67878" lon="1.66661">
        <ele>1852.1171875</ele>
        <time>2012-06-09T08:50:23Z</time>
      </trkpt>
      <trkpt lat="42.67873" lon="1.66664">
        <ele>1855.0012207031</ele>
        <time>2012-06-09T08:50:29Z</time>
      </trkpt>
      <trkpt lat="42.6787" lon="1.66664">
        <ele>1855.0012207031</ele>
        <time>2012-06-09T08:50:36Z</time>
      </trkpt>
      <trkpt lat="42.67867" lon="1.66659">
        <ele>1855.4819335938</ele>
        <time>2012-06-09T08:50:41Z</time>
      </trkpt>
      <trkpt lat="42.67864" lon="1.66655">
        <ele>1854.0400390625</ele>
        <time>2012-06-09T08:50:46Z</time>
      </trkpt>
      <trkpt lat="42.67864" lon="1.66651">
        <ele>1854.0400390625</ele>
        <time>2012-06-09T08:50:51Z</time>
      </trkpt>
      <trkpt lat="42.67863" lon="1.66648">
        <ele>1854.0400390625</ele>
        <time>2012-06-09T08:50:55Z</time>
      </trkpt>
      <trkpt lat="42.67859" lon="1.66644">
        <ele>1854.5205078125</ele>
        <time>2012-06-09T08:51:01Z</time>
      </trkpt>
      <trkpt lat="42.67855" lon="1.66642">
        <ele>1855.4819335938</ele>
        <time>2012-06-09T08:51:09Z</time>
      </trkpt>
      <trkpt lat="42.67854" lon="1.66647">
        <ele>1855.0012207031</ele>
        <time>2012-06-09T08:51:16Z</time>
      </trkpt>
      <trkpt lat="42.67853" lon="1.66652">
        <ele>1855.4819335938</ele>
        <time>2012-06-09T08:51:23Z</time>
      </trkpt>
      <trkpt lat="42.6785" lon="1.66654">
        <ele>1856.923828125</ele>
        <time>2012-06-09T08:51:29Z</time>
      </trkpt>
      <trkpt lat="42.67847" lon="1.66655">
        <ele>1857.4045410156</ele>
        <time>2012-06-09T08:51:34Z</time>
      </trkpt>
      <trkpt lat="42.67844" lon="1.66655">
        <ele>1858.8464355469</ele>
        <time>2012-06-09T08:51:38Z</time>
      </trkpt>
      <trkpt lat="42.6784" lon="1.66656">
        <ele>1860.7690429688</ele>
        <time>2012-06-09T08:51:43Z</time>
      </trkpt>
      <trkpt lat="42.67838" lon="1.66659">
        <ele>1862.2109375</ele>
        <time>2012-06-09T08:51:48Z</time>
      </trkpt>
      <trkpt lat="42.67834" lon="1.66663">
        <ele>1862.2109375</ele>
        <time>2012-06-09T08:51:54Z</time>
      </trkpt>
      <trkpt lat="42.67833" lon="1.66666">
        <ele>1861.73046875</ele>
        <time>2012-06-09T08:51:59Z</time>
      </trkpt>
      <trkpt lat="42.67831" lon="1.6667">
        <ele>1862.6916503906</ele>
        <time>2012-06-09T08:52:04Z</time>
      </trkpt>
      <trkpt lat="42.67831" lon="1.66674">
        <ele>1863.1723632812</ele>
        <time>2012-06-09T08:52:09Z</time>
      </trkpt>
      <trkpt lat="42.67829" lon="1.66677">
        <ele>1864.1335449219</ele>
        <time>2012-06-09T08:52:14Z</time>
      </trkpt>
      <trkpt lat="42.67826" lon="1.66678">
        <ele>1865.5756835938</ele>
        <time>2012-06-09T08:52:19Z</time>
      </trkpt>
      <trkpt lat="42.67823" lon="1.66678">
        <ele>1865.5756835938</ele>
        <time>2012-06-09T08:52:25Z</time>
      </trkpt>
      <trkpt lat="42.6782" lon="1.66679">
        <ele>1866.0561523438</ele>
        <time>2012-06-09T08:52:30Z</time>
      </trkpt>
      <trkpt lat="42.67817" lon="1.66681">
        <ele>1866.5368652344</ele>
        <time>2012-06-09T08:52:34Z</time>
      </trkpt>
      <trkpt lat="42.67815" lon="1.66682">
        <ele>1867.017578125</ele>
        <time>2012-06-09T08:52:38Z</time>
      </trkpt>
      <trkpt lat="42.67812" lon="1.66683">
        <ele>1867.017578125</ele>
        <time>2012-06-09T08:52:43Z</time>
      </trkpt>
      <trkpt lat="42.67809" lon="1.66683">
        <ele>1868.4597167969</ele>
        <time>2012-06-09T08:52:49Z</time>
      </trkpt>
      <trkpt lat="42.67806" lon="1.66682">
        <ele>1867.9787597656</ele>
        <time>2012-06-09T08:52:54Z</time>
      </trkpt>
      <trkpt lat="42.67802" lon="1.66684">
        <ele>1869.4211425781</ele>
        <time>2012-06-09T08:52:59Z</time>
      </trkpt>
      <trkpt lat="42.67798" lon="1.66687">
        <ele>1870.8630371094</ele>
        <time>2012-06-09T08:53:05Z</time>
      </trkpt>
      <trkpt lat="42.67792" lon="1.66691">
        <ele>1871.82421875</ele>
        <time>2012-06-09T08:53:15Z</time>
      </trkpt>
      <trkpt lat="42.67788" lon="1.66693">
        <ele>1871.82421875</ele>
        <time>2012-06-09T08:53:22Z</time>
      </trkpt>
      <trkpt lat="42.67784" lon="1.66695">
        <ele>1872.3049316406</ele>
        <time>2012-06-09T08:53:29Z</time>
      </trkpt>
      <trkpt lat="42.67781" lon="1.66695">
        <ele>1873.7468261719</ele>
        <time>2012-06-09T08:53:33Z</time>
      </trkpt>
      <trkpt lat="42.67777" lon="1.66696">
        <ele>1875.6694335938</ele>
        <time>2012-06-09T08:53:40Z</time>
      </trkpt>
      <trkpt lat="42.67775" lon="1.66693">
        <ele>1875.6694335938</ele>
        <time>2012-06-09T08:53:44Z</time>
      </trkpt>
      <trkpt lat="42.67772" lon="1.66689">
        <ele>1878.5534667969</ele>
        <time>2012-06-09T08:53:51Z</time>
      </trkpt>
      <trkpt lat="42.6777" lon="1.6669">
        <ele>1879.0339355469</ele>
        <time>2012-06-09T08:53:54Z</time>
      </trkpt>
      <trkpt lat="42.67765" lon="1.66689">
        <ele>1880.4760742188</ele>
        <time>2012-06-09T08:54:00Z</time>
      </trkpt>
      <trkpt lat="42.67762" lon="1.66687">
        <ele>1879.0339355469</ele>
        <time>2012-06-09T08:54:06Z</time>
      </trkpt>
      <trkpt lat="42.67759" lon="1.66689">
        <ele>1880.4760742188</ele>
        <time>2012-06-09T08:54:10Z</time>
      </trkpt>
      <trkpt lat="42.67756" lon="1.66689">
        <ele>1881.4372558594</ele>
        <time>2012-06-09T08:54:14Z</time>
      </trkpt>
      <trkpt lat="42.67751" lon="1.66691">
        <ele>1884.8022460938</ele>
        <time>2012-06-09T08:54:19Z</time>
      </trkpt>
      <trkpt lat="42.67746" lon="1.66693">
        <ele>1888.1667480469</ele>
        <time>2012-06-09T08:54:24Z</time>
      </trkpt>
      <trkpt lat="42.67741" lon="1.66696">
        <ele>1888.1667480469</ele>
        <time>2012-06-09T08:54:30Z</time>
      </trkpt>
      <trkpt lat="42.67731" lon="1.667">
        <ele>1890.0893554688</ele>
        <time>2012-06-09T08:54:38Z</time>
      </trkpt>
      <trkpt lat="42.67723" lon="1.66702">
        <ele>1888.1667480469</ele>
        <time>2012-06-09T08:54:46Z</time>
      </trkpt>
      <trkpt lat="42.67718" lon="1.667">
        <ele>1886.724609375</ele>
        <time>2012-06-09T08:54:52Z</time>
      </trkpt>
      <trkpt lat="42.67716" lon="1.667">
        <ele>1886.724609375</ele>
        <time>2012-06-09T08:54:54Z</time>
      </trkpt>
      <trkpt lat="42.67709" lon="1.66702">
        <ele>1887.2053222656</ele>
        <time>2012-06-09T08:55:01Z</time>
      </trkpt>
      <trkpt lat="42.67706" lon="1.66703">
        <ele>1887.2053222656</ele>
        <time>2012-06-09T08:55:05Z</time>
      </trkpt>
      <trkpt lat="42.67702" lon="1.667">
        <ele>1886.244140625</ele>
        <time>2012-06-09T08:55:10Z</time>
      </trkpt>
      <trkpt lat="42.67699" lon="1.66698">
        <ele>1886.724609375</ele>
        <time>2012-06-09T08:55:15Z</time>
      </trkpt>
      <trkpt lat="42.67696" lon="1.66696">
        <ele>1886.724609375</ele>
        <time>2012-06-09T08:55:19Z</time>
      </trkpt>
      <trkpt lat="42.67688" lon="1.66698">
        <ele>1890.0893554688</ele>
        <time>2012-06-09T08:55:27Z</time>
      </trkpt>
      <trkpt lat="42.67684" lon="1.66699">
        <ele>1890.0893554688</ele>
        <time>2012-06-09T08:55:34Z</time>
      </trkpt>
      <trkpt lat="42.67678" lon="1.66701">
        <ele>1893.9345703125</ele>
        <time>2012-06-09T08:55:40Z</time>
      </trkpt>
      <trkpt lat="42.67674" lon="1.66704">
        <ele>1894.4150390625</ele>
        <time>2012-06-09T08:55:46Z</time>
      </trkpt>
      <trkpt lat="42.67673" lon="1.66704">
        <ele>1894.4150390625</ele>
        <time>2012-06-09T08:55:50Z</time>
      </trkpt>
      <trkpt lat="42.6767" lon="1.66707">
        <ele>1896.337890625</ele>
        <time>2012-06-09T08:55:59Z</time>
      </trkpt>
      <trkpt lat="42.67669" lon="1.6671">
        <ele>1895.8571777344</ele>
        <time>2012-06-09T08:56:04Z</time>
      </trkpt>
      <trkpt lat="42.67668" lon="1.66715">
        <ele>1895.8571777344</ele>
        <time>2012-06-09T08:56:10Z</time>
      </trkpt>
      <trkpt lat="42.67667" lon="1.66719">
        <ele>1893.9345703125</ele>
        <time>2012-06-09T08:56:16Z</time>
      </trkpt>
      <trkpt lat="42.67667" lon="1.66725">
        <ele>1894.4150390625</ele>
        <time>2012-06-09T08:56:24Z</time>
      </trkpt>
      <trkpt lat="42.67667" lon="1.66729">
        <ele>1894.4150390625</ele>
        <time>2012-06-09T08:56:29Z</time>
      </trkpt>
      <trkpt lat="42.67665" lon="1.66732">
        <ele>1894.4150390625</ele>
        <time>2012-06-09T08:56:34Z</time>
      </trkpt>
      <trkpt lat="42.67665" lon="1.66737">
        <ele>1894.8957519531</ele>
        <time>2012-06-09T08:56:40Z</time>
      </trkpt>
      <trkpt lat="42.67665" lon="1.66741">
        <ele>1895.3764648438</ele>
        <time>2012-06-09T08:56:46Z</time>
      </trkpt>
      <trkpt lat="42.67664" lon="1.66745">
        <ele>1896.337890625</ele>
        <time>2012-06-09T08:56:52Z</time>
      </trkpt>
      <trkpt lat="42.67666" lon="1.66751">
        <ele>1898.7409667969</ele>
        <time>2012-06-09T08:57:00Z</time>
      </trkpt>
      <trkpt lat="42.67667" lon="1.66757">
        <ele>1899.2216796875</ele>
        <time>2012-06-09T08:57:06Z</time>
      </trkpt>
      <trkpt lat="42.67667" lon="1.6676">
        <ele>1900.1833496094</ele>
        <time>2012-06-09T08:57:10Z</time>
      </trkpt>
      <trkpt lat="42.67668" lon="1.66764">
        <ele>1901.6252441406</ele>
        <time>2012-06-09T08:57:15Z</time>
      </trkpt>
      <trkpt lat="42.67669" lon="1.66768">
        <ele>1901.6252441406</ele>
        <time>2012-06-09T08:57:20Z</time>
      </trkpt>
      <trkpt lat="42.67668" lon="1.66773">
        <ele>1902.1057128906</ele>
        <time>2012-06-09T08:57:25Z</time>
      </trkpt>
      <trkpt lat="42.67668" lon="1.66779">
        <ele>1903.0671386719</ele>
        <time>2012-06-09T08:57:32Z</time>
      </trkpt>
      <trkpt lat="42.67669" lon="1.66784">
        <ele>1904.0285644531</ele>
        <time>2012-06-09T08:57:38Z</time>
      </trkpt>
      <trkpt lat="42.67668" lon="1.66787">
        <ele>1904.5090332031</ele>
        <time>2012-06-09T08:57:43Z</time>
      </trkpt>
      <trkpt lat="42.67667" lon="1.6679">
        <ele>1904.5090332031</ele>
        <time>2012-06-09T08:57:50Z</time>
      </trkpt>
      <trkpt lat="42.67667" lon="1.66792">
        <ele>1904.0285644531</ele>
        <time>2012-06-09T08:57:54Z</time>
      </trkpt>
      <trkpt lat="42.67667" lon="1.66796">
        <ele>1904.5090332031</ele>
        <time>2012-06-09T08:57:59Z</time>
      </trkpt>
      <trkpt lat="42.67666" lon="1.668">
        <ele>1904.9897460938</ele>
        <time>2012-06-09T08:58:04Z</time>
      </trkpt>
      <trkpt lat="42.67665" lon="1.66805">
        <ele>1906.9123535156</ele>
        <time>2012-06-09T08:58:10Z</time>
      </trkpt>
      <trkpt lat="42.67664" lon="1.6681">
        <ele>1907.3930664062</ele>
        <time>2012-06-09T08:58:16Z</time>
      </trkpt>
      <trkpt lat="42.67662" lon="1.66814">
        <ele>1908.3542480469</ele>
        <time>2012-06-09T08:58:22Z</time>
      </trkpt>
      <trkpt lat="42.6766" lon="1.66816">
        <ele>1909.3156738281</ele>
        <time>2012-06-09T08:58:25Z</time>
      </trkpt>
      <trkpt lat="42.67657" lon="1.66819">
        <ele>1911.7189941406</ele>
        <time>2012-06-09T08:58:30Z</time>
      </trkpt>
      <trkpt lat="42.67653" lon="1.6682">
        <ele>1913.1608886719</ele>
        <time>2012-06-09T08:58:36Z</time>
      </trkpt>
      <trkpt lat="42.67651" lon="1.66821">
        <ele>1914.1220703125</ele>
        <time>2012-06-09T08:58:40Z</time>
      </trkpt>
      <trkpt lat="42.6765" lon="1.66826">
        <ele>1914.1220703125</ele>
        <time>2012-06-09T08:58:46Z</time>
      </trkpt>
      <trkpt lat="42.67648" lon="1.6683">
        <ele>1914.6027832031</ele>
        <time>2012-06-09T08:58:51Z</time>
      </trkpt>
      <trkpt lat="42.67646" lon="1.66833">
        <ele>1914.6027832031</ele>
        <time>2012-06-09T08:58:56Z</time>
      </trkpt>
      <trkpt lat="42.67643" lon="1.66835">
        <ele>1916.044921875</ele>
        <time>2012-06-09T08:59:01Z</time>
      </trkpt>
      <trkpt lat="42.6764" lon="1.66836">
        <ele>1917.0063476562</ele>
        <time>2012-06-09T08:59:07Z</time>
      </trkpt>
      <trkpt lat="42.67636" lon="1.66835">
        <ele>1917.9675292969</ele>
        <time>2012-06-09T08:59:13Z</time>
      </trkpt>
      <trkpt lat="42.67635" lon="1.66839">
        <ele>1917.9675292969</ele>
        <time>2012-06-09T08:59:19Z</time>
      </trkpt>
      <trkpt lat="42.67634" lon="1.66842">
        <ele>1917.0063476562</ele>
        <time>2012-06-09T08:59:23Z</time>
      </trkpt>
      <trkpt lat="42.67632" lon="1.66845">
        <ele>1917.9675292969</ele>
        <time>2012-06-09T08:59:27Z</time>
      </trkpt>
      <trkpt lat="42.6763" lon="1.66848">
        <ele>1918.4482421875</ele>
        <time>2012-06-09T08:59:31Z</time>
      </trkpt>
      <trkpt lat="42.67627" lon="1.6685">
        <ele>1919.8901367188</ele>
        <time>2012-06-09T08:59:36Z</time>
      </trkpt>
      <trkpt lat="42.67625" lon="1.66851">
        <ele>1920.3708496094</ele>
        <time>2012-06-09T08:59:40Z</time>
      </trkpt>
      <trkpt lat="42.67622" lon="1.66853">
        <ele>1921.33203125</ele>
        <time>2012-06-09T08:59:44Z</time>
      </trkpt>
      <trkpt lat="42.6762" lon="1.66855">
        <ele>1922.2934570312</ele>
        <time>2012-06-09T08:59:48Z</time>
      </trkpt>
      <trkpt lat="42.67619" lon="1.66858">
        <ele>1923.2548828125</ele>
        <time>2012-06-09T08:59:52Z</time>
      </trkpt>
      <trkpt lat="42.67617" lon="1.66861">
        <ele>1923.2548828125</ele>
        <time>2012-06-09T08:59:56Z</time>
      </trkpt>
      <trkpt lat="42.67614" lon="1.66863">
        <ele>1924.2160644531</ele>
        <time>2012-06-09T09:00:01Z</time>
      </trkpt>
      <trkpt lat="42.6761" lon="1.66866">
        <ele>1927.5805664062</ele>
        <time>2012-06-09T09:00:07Z</time>
      </trkpt>
      <trkpt lat="42.67608" lon="1.66869">
        <ele>1929.5031738281</ele>
        <time>2012-06-09T09:00:12Z</time>
      </trkpt>
      <trkpt lat="42.67607" lon="1.66871">
        <ele>1928.5419921875</ele>
        <time>2012-06-09T09:00:17Z</time>
      </trkpt>
      <trkpt lat="42.67605" lon="1.66866">
        <ele>1929.0224609375</ele>
        <time>2012-06-09T09:00:23Z</time>
      </trkpt>
      <trkpt lat="42.67604" lon="1.66861">
        <ele>1930.4645996094</ele>
        <time>2012-06-09T09:00:29Z</time>
      </trkpt>
      <trkpt lat="42.67601" lon="1.66858">
        <ele>1930.4645996094</ele>
        <time>2012-06-09T09:00:36Z</time>
      </trkpt>
      <trkpt lat="42.67596" lon="1.66856">
        <ele>1932.8679199219</ele>
        <time>2012-06-09T09:00:42Z</time>
      </trkpt>
      <trkpt lat="42.67594" lon="1.66858">
        <ele>1932.8679199219</ele>
        <time>2012-06-09T09:00:47Z</time>
      </trkpt>
      <trkpt lat="42.67593" lon="1.66863">
        <ele>1933.3486328125</ele>
        <time>2012-06-09T09:00:52Z</time>
      </trkpt>
      <trkpt lat="42.67589" lon="1.66865">
        <ele>1934.3100585938</ele>
        <time>2012-06-09T09:00:58Z</time>
      </trkpt>
      <trkpt lat="42.67585" lon="1.66864">
        <ele>1935.751953125</ele>
        <time>2012-06-09T09:01:04Z</time>
      </trkpt>
      <trkpt lat="42.67582" lon="1.66866">
        <ele>1936.7131347656</ele>
        <time>2012-06-09T09:01:09Z</time>
      </trkpt>
      <trkpt lat="42.67578" lon="1.66867">
        <ele>1938.6359863281</ele>
        <time>2012-06-09T09:01:15Z</time>
      </trkpt>
      <trkpt lat="42.67575" lon="1.66869">
        <ele>1940.0778808594</ele>
        <time>2012-06-09T09:01:22Z</time>
      </trkpt>
      <trkpt lat="42.67573" lon="1.66867">
        <ele>1940.5583496094</ele>
        <time>2012-06-09T09:01:27Z</time>
      </trkpt>
      <trkpt lat="42.67568" lon="1.66869">
        <ele>1942.0004882812</ele>
        <time>2012-06-09T09:01:35Z</time>
      </trkpt>
      <trkpt lat="42.67566" lon="1.66866">
        <ele>1943.4423828125</ele>
        <time>2012-06-09T09:01:40Z</time>
      </trkpt>
      <trkpt lat="42.67566" lon="1.66862">
        <ele>1945.3649902344</ele>
        <time>2012-06-09T09:01:45Z</time>
      </trkpt>
      <trkpt lat="42.67566" lon="1.66858">
        <ele>1947.2875976562</ele>
        <time>2012-06-09T09:01:50Z</time>
      </trkpt>
      <trkpt lat="42.67565" lon="1.66857">
        <ele>1948.7297363281</ele>
        <time>2012-06-09T09:01:56Z</time>
      </trkpt>
      <trkpt lat="42.67563" lon="1.66857">
        <ele>1951.6137695312</ele>
        <time>2012-06-09T09:02:03Z</time>
      </trkpt>
      <trkpt lat="42.6756" lon="1.66853">
        <ele>1955.458984375</ele>
        <time>2012-06-09T09:02:12Z</time>
      </trkpt>
      <trkpt lat="42.67557" lon="1.66853">
        <ele>1955.939453125</ele>
        <time>2012-06-09T09:02:18Z</time>
      </trkpt>
      <trkpt lat="42.67554" lon="1.66852">
        <ele>1957.3815917969</ele>
        <time>2012-06-09T09:02:24Z</time>
      </trkpt>
      <trkpt lat="42.6755" lon="1.66851">
        <ele>1959.7846679688</ele>
        <time>2012-06-09T09:02:32Z</time>
      </trkpt>
      <trkpt lat="42.67548" lon="1.66849">
        <ele>1961.2268066406</ele>
        <time>2012-06-09T09:02:37Z</time>
      </trkpt>
      <trkpt lat="42.67546" lon="1.66847">
        <ele>1962.1879882812</ele>
        <time>2012-06-09T09:02:43Z</time>
      </trkpt>
      <trkpt lat="42.67544" lon="1.66846">
        <ele>1961.2268066406</ele>
        <time>2012-06-09T09:02:47Z</time>
      </trkpt>
      <trkpt lat="42.67542" lon="1.66844">
        <ele>1961.2268066406</ele>
        <time>2012-06-09T09:02:52Z</time>
      </trkpt>
      <trkpt lat="42.6754" lon="1.66839">
        <ele>1959.7846679688</ele>
        <time>2012-06-09T09:02:58Z</time>
      </trkpt>
      <trkpt lat="42.67538" lon="1.66835">
        <ele>1959.3041992188</ele>
        <time>2012-06-09T09:03:04Z</time>
      </trkpt>
      <trkpt lat="42.67535" lon="1.66831">
        <ele>1959.3041992188</ele>
        <time>2012-06-09T09:03:10Z</time>
      </trkpt>
      <trkpt lat="42.67533" lon="1.66823">
        <ele>1959.3041992188</ele>
        <time>2012-06-09T09:03:17Z</time>
      </trkpt>
      <trkpt lat="42.6753" lon="1.66818">
        <ele>1959.7846679688</ele>
        <time>2012-06-09T09:03:23Z</time>
      </trkpt>
      <trkpt lat="42.67526" lon="1.66821">
        <ele>1958.8234863281</ele>
        <time>2012-06-09T09:03:29Z</time>
      </trkpt>
      <trkpt lat="42.67523" lon="1.66825">
        <ele>1959.3041992188</ele>
        <time>2012-06-09T09:03:36Z</time>
      </trkpt>
      <trkpt lat="42.67518" lon="1.66824">
        <ele>1960.2653808594</ele>
        <time>2012-06-09T09:03:42Z</time>
      </trkpt>
      <trkpt lat="42.67513" lon="1.66823">
        <ele>1960.74609375</ele>
        <time>2012-06-09T09:03:48Z</time>
      </trkpt>
      <trkpt lat="42.6751" lon="1.66826">
        <ele>1961.7075195312</ele>
        <time>2012-06-09T09:03:53Z</time>
      </trkpt>
      <trkpt lat="42.67505" lon="1.66825">
        <ele>1961.7075195312</ele>
        <time>2012-06-09T09:03:58Z</time>
      </trkpt>
      <trkpt lat="42.67502" lon="1.6682">
        <ele>1962.6687011719</ele>
        <time>2012-06-09T09:04:03Z</time>
      </trkpt>
      <trkpt lat="42.67501" lon="1.66819">
        <ele>1962.6687011719</ele>
        <time>2012-06-09T09:04:04Z</time>
      </trkpt>
      <trkpt lat="42.67498" lon="1.66815">
        <ele>1963.1494140625</ele>
        <time>2012-06-09T09:04:08Z</time>
      </trkpt>
      <trkpt lat="42.6749" lon="1.66814">
        <ele>1962.6687011719</ele>
        <time>2012-06-09T09:04:16Z</time>
      </trkpt>
      <trkpt lat="42.67484" lon="1.66815">
        <ele>1961.7075195312</ele>
        <time>2012-06-09T09:04:22Z</time>
      </trkpt>
      <trkpt lat="42.6748" lon="1.66814">
        <ele>1962.1879882812</ele>
        <time>2012-06-09T09:04:26Z</time>
      </trkpt>
      <trkpt lat="42.67479" lon="1.66814">
        <ele>1962.1879882812</ele>
        <time>2012-06-09T09:04:27Z</time>
      </trkpt>
      <trkpt lat="42.67474" lon="1.66816">
        <ele>1961.7075195312</ele>
        <time>2012-06-09T09:04:33Z</time>
      </trkpt>
      <trkpt lat="42.67469" lon="1.66813">
        <ele>1962.1879882812</ele>
        <time>2012-06-09T09:04:39Z</time>
      </trkpt>
      <trkpt lat="42.67464" lon="1.66809">
        <ele>1962.6687011719</ele>
        <time>2012-06-09T09:04:45Z</time>
      </trkpt>
      <trkpt lat="42.67458" lon="1.66807">
        <ele>1962.6687011719</ele>
        <time>2012-06-09T09:04:53Z</time>
      </trkpt>
      <trkpt lat="42.67454" lon="1.66811">
        <ele>1962.6687011719</ele>
        <time>2012-06-09T09:04:59Z</time>
      </trkpt>
      <trkpt lat="42.6745" lon="1.66813">
        <ele>1962.6687011719</ele>
        <time>2012-06-09T09:05:04Z</time>
      </trkpt>
      <trkpt lat="42.67443" lon="1.66816">
        <ele>1963.1494140625</ele>
        <time>2012-06-09T09:05:11Z</time>
      </trkpt>
      <trkpt lat="42.67437" lon="1.6682">
        <ele>1963.6298828125</ele>
        <time>2012-06-09T09:05:17Z</time>
      </trkpt>
      <trkpt lat="42.67431" lon="1.66824">
        <ele>1965.072265625</ele>
        <time>2012-06-09T09:05:25Z</time>
      </trkpt>
      <trkpt lat="42.67425" lon="1.6683">
        <ele>1966.0334472656</ele>
        <time>2012-06-09T09:05:34Z</time>
      </trkpt>
      <trkpt lat="42.67423" lon="1.6683">
        <ele>1967.9560546875</ele>
        <time>2012-06-09T09:05:40Z</time>
      </trkpt>
      <trkpt lat="42.6742" lon="1.66831">
        <ele>1969.8786621094</ele>
        <time>2012-06-09T09:05:46Z</time>
      </trkpt>
      <trkpt lat="42.67419" lon="1.66835">
        <ele>1970.359375</ele>
        <time>2012-06-09T09:05:51Z</time>
      </trkpt>
      <trkpt lat="42.67421" lon="1.66842">
        <ele>1969.8786621094</ele>
        <time>2012-06-09T09:05:57Z</time>
      </trkpt>
      <trkpt lat="42.67419" lon="1.6685">
        <ele>1971.8012695312</ele>
        <time>2012-06-09T09:06:04Z</time>
      </trkpt>
      <trkpt lat="42.67416" lon="1.66855">
        <ele>1973.2434082031</ele>
        <time>2012-06-09T09:06:10Z</time>
      </trkpt>
      <trkpt lat="42.67415" lon="1.66859">
        <ele>1973.2434082031</ele>
        <time>2012-06-09T09:06:15Z</time>
      </trkpt>
      <trkpt lat="42.67413" lon="1.66868">
        <ele>1974.2045898438</ele>
        <time>2012-06-09T09:06:22Z</time>
      </trkpt>
      <trkpt lat="42.67412" lon="1.66871">
        <ele>1974.6853027344</ele>
        <time>2012-06-09T09:06:25Z</time>
      </trkpt>
      <trkpt lat="42.67413" lon="1.66883">
        <ele>1975.1657714844</ele>
        <time>2012-06-09T09:06:33Z</time>
      </trkpt>
      <trkpt lat="42.67412" lon="1.66889">
        <ele>1975.1657714844</ele>
        <time>2012-06-09T09:06:38Z</time>
      </trkpt>
      <trkpt lat="42.6741" lon="1.66896">
        <ele>1976.6079101562</ele>
        <time>2012-06-09T09:06:43Z</time>
      </trkpt>
      <trkpt lat="42.67408" lon="1.66905">
        <ele>1977.0886230469</ele>
        <time>2012-06-09T09:06:50Z</time>
      </trkpt>
      <trkpt lat="42.67405" lon="1.66913">
        <ele>1978.0498046875</ele>
        <time>2012-06-09T09:06:56Z</time>
      </trkpt>
      <trkpt lat="42.67402" lon="1.66915">
        <ele>1978.5305175781</ele>
        <time>2012-06-09T09:06:59Z</time>
      </trkpt>
      <trkpt lat="42.67398" lon="1.66922">
        <ele>1980.9340820312</ele>
        <time>2012-06-09T09:07:06Z</time>
      </trkpt>
      <trkpt lat="42.67394" lon="1.66922">
        <ele>1981.4145507812</ele>
        <time>2012-06-09T09:07:10Z</time>
      </trkpt>
      <trkpt lat="42.67388" lon="1.66919">
        <ele>1980.4533691406</ele>
        <time>2012-06-09T09:07:17Z</time>
      </trkpt>
      <trkpt lat="42.67383" lon="1.6692">
        <ele>1981.4145507812</ele>
        <time>2012-06-09T09:07:23Z</time>
      </trkpt>
      <trkpt lat="42.67379" lon="1.66922">
        <ele>1981.4145507812</ele>
        <time>2012-06-09T09:07:27Z</time>
      </trkpt>
      <trkpt lat="42.67374" lon="1.66922">
        <ele>1980.9340820312</ele>
        <time>2012-06-09T09:07:32Z</time>
      </trkpt>
      <trkpt lat="42.67368" lon="1.66916">
        <ele>1979.4916992188</ele>
        <time>2012-06-09T09:07:39Z</time>
      </trkpt>
      <trkpt lat="42.67363" lon="1.66909">
        <ele>1979.0109863281</ele>
        <time>2012-06-09T09:07:46Z</time>
      </trkpt>
      <trkpt lat="42.6736" lon="1.66902">
        <ele>1979.4916992188</ele>
        <time>2012-06-09T09:07:52Z</time>
      </trkpt>
      <trkpt lat="42.67356" lon="1.669">
        <ele>1980.4533691406</ele>
        <time>2012-06-09T09:07:57Z</time>
      </trkpt>
      <trkpt lat="42.67353" lon="1.66899">
        <ele>1981.4145507812</ele>
        <time>2012-06-09T09:08:02Z</time>
      </trkpt>
      <trkpt lat="42.67347" lon="1.66901">
        <ele>1982.3759765625</ele>
        <time>2012-06-09T09:08:11Z</time>
      </trkpt>
      <trkpt lat="42.67343" lon="1.66907">
        <ele>1983.8178710938</ele>
        <time>2012-06-09T09:08:19Z</time>
      </trkpt>
      <trkpt lat="42.67339" lon="1.66909">
        <ele>1983.8178710938</ele>
        <time>2012-06-09T09:08:25Z</time>
      </trkpt>
      <trkpt lat="42.67335" lon="1.66911">
        <ele>1982.8564453125</ele>
        <time>2012-06-09T09:08:31Z</time>
      </trkpt>
      <trkpt lat="42.67332" lon="1.66913">
        <ele>1983.3371582031</ele>
        <time>2012-06-09T09:08:35Z</time>
      </trkpt>
      <trkpt lat="42.67328" lon="1.66917">
        <ele>1983.3371582031</ele>
        <time>2012-06-09T09:08:40Z</time>
      </trkpt>
      <trkpt lat="42.67327" lon="1.66918">
        <ele>1982.3759765625</ele>
        <time>2012-06-09T09:08:41Z</time>
      </trkpt>
      <trkpt lat="42.67324" lon="1.66922">
        <ele>1979.4916992188</ele>
        <time>2012-06-09T09:08:48Z</time>
      </trkpt>
      <trkpt lat="42.67323" lon="1.66926">
        <ele>1977.0886230469</ele>
        <time>2012-06-09T09:08:53Z</time>
      </trkpt>
      <trkpt lat="42.67319" lon="1.6693">
        <ele>1978.0498046875</ele>
        <time>2012-06-09T09:08:58Z</time>
      </trkpt>
      <trkpt lat="42.67315" lon="1.66932">
        <ele>1978.0498046875</ele>
        <time>2012-06-09T09:09:03Z</time>
      </trkpt>
      <trkpt lat="42.67311" lon="1.66934">
        <ele>1977.0886230469</ele>
        <time>2012-06-09T09:09:11Z</time>
      </trkpt>
      <trkpt lat="42.67307" lon="1.66939">
        <ele>1978.0498046875</ele>
        <time>2012-06-09T09:09:17Z</time>
      </trkpt>
      <trkpt lat="42.67305" lon="1.66943">
        <ele>1978.5305175781</ele>
        <time>2012-06-09T09:09:20Z</time>
      </trkpt>
      <trkpt lat="42.67301" lon="1.66951">
        <ele>1979.4916992188</ele>
        <time>2012-06-09T09:09:27Z</time>
      </trkpt>
      <trkpt lat="42.67297" lon="1.66956">
        <ele>1979.9724121094</ele>
        <time>2012-06-09T09:09:33Z</time>
      </trkpt>
      <trkpt lat="42.67295" lon="1.66956">
        <ele>1980.9340820312</ele>
        <time>2012-06-09T09:09:39Z</time>
      </trkpt>
      <trkpt lat="42.67296" lon="1.6696">
        <ele>1980.9340820312</ele>
        <time>2012-06-09T09:10:08Z</time>
      </trkpt>
      <trkpt lat="42.67296" lon="1.6696">
        <ele>1978.5305175781</ele>
        <time>2012-06-09T09:10:14Z</time>
      </trkpt>
      <trkpt lat="42.67296" lon="1.6696">
        <ele>1978.5305175781</ele>
        <time>2012-06-09T09:10:28Z</time>
      </trkpt>
      <trkpt lat="42.67293" lon="1.66956">
        <ele>1978.5305175781</ele>
        <time>2012-06-09T09:11:08Z</time>
      </trkpt>
      <trkpt lat="42.6729" lon="1.66949">
        <ele>1973.7238769531</ele>
        <time>2012-06-09T09:11:18Z</time>
      </trkpt>
      <trkpt lat="42.6729" lon="1.66949">
        <ele>1973.7238769531</ele>
        <time>2012-06-09T09:11:25Z</time>
      </trkpt>
      <trkpt lat="42.67294" lon="1.66958">
        <ele>1978.0498046875</ele>
        <time>2012-06-09T09:11:44Z</time>
      </trkpt>
      <trkpt lat="42.67291" lon="1.66958">
        <ele>1978.5305175781</ele>
        <time>2012-06-09T09:11:50Z</time>
      </trkpt>
      <trkpt lat="42.67286" lon="1.66961">
        <ele>1979.0109863281</ele>
        <time>2012-06-09T09:11:56Z</time>
      </trkpt>
      <trkpt lat="42.67282" lon="1.6696">
        <ele>1979.0109863281</ele>
        <time>2012-06-09T09:12:00Z</time>
      </trkpt>
      <trkpt lat="42.67274" lon="1.66956">
        <ele>1979.4916992188</ele>
        <time>2012-06-09T09:12:08Z</time>
      </trkpt>
      <trkpt lat="42.67266" lon="1.66954">
        <ele>1979.4916992188</ele>
        <time>2012-06-09T09:12:14Z</time>
      </trkpt>
      <trkpt lat="42.6726" lon="1.66953">
        <ele>1979.4916992188</ele>
        <time>2012-06-09T09:12:19Z</time>
      </trkpt>
      <trkpt lat="42.67252" lon="1.66955">
        <ele>1979.0109863281</ele>
        <time>2012-06-09T09:12:27Z</time>
      </trkpt>
      <trkpt lat="42.67248" lon="1.66957">
        <ele>1978.5305175781</ele>
        <time>2012-06-09T09:12:31Z</time>
      </trkpt>
      <trkpt lat="42.67244" lon="1.66959">
        <ele>1978.5305175781</ele>
        <time>2012-06-09T09:12:35Z</time>
      </trkpt>
      <trkpt lat="42.67239" lon="1.66957">
        <ele>1978.5305175781</ele>
        <time>2012-06-09T09:12:41Z</time>
      </trkpt>
      <trkpt lat="42.67232" lon="1.66962">
        <ele>1979.4916992188</ele>
        <time>2012-06-09T09:12:48Z</time>
      </trkpt>
      <trkpt lat="42.67227" lon="1.66966">
        <ele>1979.9724121094</ele>
        <time>2012-06-09T09:12:53Z</time>
      </trkpt>
      <trkpt lat="42.67223" lon="1.66968">
        <ele>1980.9340820312</ele>
        <time>2012-06-09T09:12:59Z</time>
      </trkpt>
      <trkpt lat="42.67219" lon="1.66973">
        <ele>1981.4145507812</ele>
        <time>2012-06-09T09:13:04Z</time>
      </trkpt>
      <trkpt lat="42.67214" lon="1.66976">
        <ele>1982.8564453125</ele>
        <time>2012-06-09T09:13:09Z</time>
      </trkpt>
      <trkpt lat="42.67208" lon="1.6698">
        <ele>1982.8564453125</ele>
        <time>2012-06-09T09:13:16Z</time>
      </trkpt>
      <trkpt lat="42.67202" lon="1.66982">
        <ele>1982.8564453125</ele>
        <time>2012-06-09T09:13:22Z</time>
      </trkpt>
      <trkpt lat="42.67195" lon="1.66983">
        <ele>1983.3371582031</ele>
        <time>2012-06-09T09:13:28Z</time>
      </trkpt>
      <trkpt lat="42.67186" lon="1.66981">
        <ele>1983.8178710938</ele>
        <time>2012-06-09T09:13:35Z</time>
      </trkpt>
      <trkpt lat="42.6718" lon="1.66983">
        <ele>1981.8952636719</ele>
        <time>2012-06-09T09:13:41Z</time>
      </trkpt>
      <trkpt lat="42.67179" lon="1.66983">
        <ele>1981.4145507812</ele>
        <time>2012-06-09T09:13:42Z</time>
      </trkpt>
      <trkpt lat="42.6717" lon="1.66982">
        <ele>1981.4145507812</ele>
        <time>2012-06-09T09:13:50Z</time>
      </trkpt>
      <trkpt lat="42.67164" lon="1.66986">
        <ele>1981.8952636719</ele>
        <time>2012-06-09T09:13:56Z</time>
      </trkpt>
      <trkpt lat="42.67159" lon="1.6699">
        <ele>1981.4145507812</ele>
        <time>2012-06-09T09:14:03Z</time>
      </trkpt>
      <trkpt lat="42.67154" lon="1.66993">
        <ele>1983.3371582031</ele>
        <time>2012-06-09T09:14:08Z</time>
      </trkpt>
      <trkpt lat="42.67152" lon="1.66994">
        <ele>1983.8178710938</ele>
        <time>2012-06-09T09:14:10Z</time>
      </trkpt>
      <trkpt lat="42.67144" lon="1.66997">
        <ele>1983.3371582031</ele>
        <time>2012-06-09T09:14:17Z</time>
      </trkpt>
      <trkpt lat="42.67134" lon="1.66997">
        <ele>1984.2985839844</ele>
        <time>2012-06-09T09:14:25Z</time>
      </trkpt>
      <trkpt lat="42.67127" lon="1.66997">
        <ele>1985.7404785156</ele>
        <time>2012-06-09T09:14:31Z</time>
      </trkpt>
      <trkpt lat="42.67119" lon="1.66999">
        <ele>1987.1823730469</ele>
        <time>2012-06-09T09:14:38Z</time>
      </trkpt>
      <trkpt lat="42.67114" lon="1.67003">
        <ele>1986.2211914062</ele>
        <time>2012-06-09T09:14:45Z</time>
      </trkpt>
      <trkpt lat="42.67111" lon="1.67009">
        <ele>1985.7404785156</ele>
        <time>2012-06-09T09:14:51Z</time>
      </trkpt>
      <trkpt lat="42.67107" lon="1.6701">
        <ele>1986.2211914062</ele>
        <time>2012-06-09T09:14:57Z</time>
      </trkpt>
      <trkpt lat="42.67104" lon="1.67011">
        <ele>1987.6630859375</ele>
        <time>2012-06-09T09:15:01Z</time>
      </trkpt>
      <trkpt lat="42.67101" lon="1.67017">
        <ele>1990.06640625</ele>
        <time>2012-06-09T09:15:07Z</time>
      </trkpt>
      <trkpt lat="42.67097" lon="1.67023">
        <ele>1991.0275878906</ele>
        <time>2012-06-09T09:15:13Z</time>
      </trkpt>
      <trkpt lat="42.67094" lon="1.67026">
        <ele>1991.9890136719</ele>
        <time>2012-06-09T09:15:19Z</time>
      </trkpt>
      <trkpt lat="42.67091" lon="1.67028">
        <ele>1992.9501953125</ele>
        <time>2012-06-09T09:15:24Z</time>
      </trkpt>
      <trkpt lat="42.67089" lon="1.67027">
        <ele>1993.9116210938</ele>
        <time>2012-06-09T09:15:30Z</time>
      </trkpt>
      <trkpt lat="42.67086" lon="1.67024">
        <ele>1994.3920898438</ele>
        <time>2012-06-09T09:15:36Z</time>
      </trkpt>
      <trkpt lat="42.67085" lon="1.67021">
        <ele>1995.8342285156</ele>
        <time>2012-06-09T09:15:42Z</time>
      </trkpt>
      <trkpt lat="42.67083" lon="1.67016">
        <ele>1997.7570800781</ele>
        <time>2012-06-09T09:15:49Z</time>
      </trkpt>
      <trkpt lat="42.67081" lon="1.67014">
        <ele>1998.2375488281</ele>
        <time>2012-06-09T09:15:54Z</time>
      </trkpt>
      <trkpt lat="42.67076" lon="1.67012">
        <ele>1998.2375488281</ele>
        <time>2012-06-09T09:16:00Z</time>
      </trkpt>
      <trkpt lat="42.67072" lon="1.6701">
        <ele>1998.7182617188</ele>
        <time>2012-06-09T09:16:05Z</time>
      </trkpt>
      <trkpt lat="42.67068" lon="1.6701">
        <ele>1999.6796875</ele>
        <time>2012-06-09T09:16:10Z</time>
      </trkpt>
      <trkpt lat="42.67064" lon="1.67009">
        <ele>2000.1604003906</ele>
        <time>2012-06-09T09:16:14Z</time>
      </trkpt>
      <trkpt lat="42.6706" lon="1.67008">
        <ele>2001.1215820312</ele>
        <time>2012-06-09T09:16:19Z</time>
      </trkpt>
      <trkpt lat="42.67057" lon="1.67008">
        <ele>1999.6796875</ele>
        <time>2012-06-09T09:16:24Z</time>
      </trkpt>
      <trkpt lat="42.67055" lon="1.67008">
        <ele>1998.7182617188</ele>
        <time>2012-06-09T09:16:28Z</time>
      </trkpt>
      <trkpt lat="42.67052" lon="1.67008">
        <ele>1997.7570800781</ele>
        <time>2012-06-09T09:16:39Z</time>
      </trkpt>
      <trkpt lat="42.67048" lon="1.67008">
        <ele>1995.8342285156</ele>
        <time>2012-06-09T09:16:44Z</time>
      </trkpt>
      <trkpt lat="42.67044" lon="1.6701">
        <ele>1993.9116210938</ele>
        <time>2012-06-09T09:16:50Z</time>
      </trkpt>
      <trkpt lat="42.67039" lon="1.67007">
        <ele>1994.8728027344</ele>
        <time>2012-06-09T09:16:55Z</time>
      </trkpt>
      <trkpt lat="42.67036" lon="1.67004">
        <ele>1995.353515625</ele>
        <time>2012-06-09T09:16:59Z</time>
      </trkpt>
      <trkpt lat="42.67031" lon="1.67007">
        <ele>1997.2763671875</ele>
        <time>2012-06-09T09:17:06Z</time>
      </trkpt>
      <trkpt lat="42.67024" lon="1.67005">
        <ele>1997.2763671875</ele>
        <time>2012-06-09T09:17:13Z</time>
      </trkpt>
      <trkpt lat="42.67019" lon="1.67005">
        <ele>1997.7570800781</ele>
        <time>2012-06-09T09:17:18Z</time>
      </trkpt>
      <trkpt lat="42.67012" lon="1.67005">
        <ele>1998.2375488281</ele>
        <time>2012-06-09T09:17:24Z</time>
      </trkpt>
      <trkpt lat="42.67007" lon="1.67001">
        <ele>1998.7182617188</ele>
        <time>2012-06-09T09:17:29Z</time>
      </trkpt>
      <trkpt lat="42.67" lon="1.67005">
        <ele>1998.7182617188</ele>
        <time>2012-06-09T09:17:37Z</time>
      </trkpt>
      <trkpt lat="42.66997" lon="1.67009">
        <ele>1999.1989746094</ele>
        <time>2012-06-09T09:17:41Z</time>
      </trkpt>
      <trkpt lat="42.66994" lon="1.67012">
        <ele>1999.1989746094</ele>
        <time>2012-06-09T09:17:45Z</time>
      </trkpt>
      <trkpt lat="42.66991" lon="1.67014">
        <ele>1999.1989746094</ele>
        <time>2012-06-09T09:17:50Z</time>
      </trkpt>
      <trkpt lat="42.66987" lon="1.67016">
        <ele>1999.1989746094</ele>
        <time>2012-06-09T09:17:55Z</time>
      </trkpt>
      <trkpt lat="42.6698" lon="1.67018">
        <ele>2000.6408691406</ele>
        <time>2012-06-09T09:18:03Z</time>
      </trkpt>
      <trkpt lat="42.66973" lon="1.67022">
        <ele>2000.6408691406</ele>
        <time>2012-06-09T09:18:10Z</time>
      </trkpt>
      <trkpt lat="42.66969" lon="1.67023">
        <ele>2002.0827636719</ele>
        <time>2012-06-09T09:18:15Z</time>
      </trkpt>
      <trkpt lat="42.66966" lon="1.67025">
        <ele>2003.0441894531</ele>
        <time>2012-06-09T09:18:20Z</time>
      </trkpt>
      <trkpt lat="42.66969" lon="1.67026">
        <ele>2004.0056152344</ele>
        <time>2012-06-09T09:18:24Z</time>
      </trkpt>
      <trkpt lat="42.66969" lon="1.6703">
        <ele>2004.4860839844</ele>
        <time>2012-06-09T09:18:28Z</time>
      </trkpt>
      <trkpt lat="42.66967" lon="1.67034">
        <ele>2004.4860839844</ele>
        <time>2012-06-09T09:18:33Z</time>
      </trkpt>
      <trkpt lat="42.66963" lon="1.67036">
        <ele>2004.4860839844</ele>
        <time>2012-06-09T09:18:39Z</time>
      </trkpt>
      <trkpt lat="42.66961" lon="1.67031">
        <ele>2004.0056152344</ele>
        <time>2012-06-09T09:18:44Z</time>
      </trkpt>
      <trkpt lat="42.66959" lon="1.67025">
        <ele>2003.0441894531</ele>
        <time>2012-06-09T09:18:49Z</time>
      </trkpt>
      <trkpt lat="42.66957" lon="1.67019">
        <ele>2004.966796875</ele>
        <time>2012-06-09T09:18:56Z</time>
      </trkpt>
      <trkpt lat="42.66954" lon="1.67017">
        <ele>2005.4475097656</ele>
        <time>2012-06-09T09:19:00Z</time>
      </trkpt>
      <trkpt lat="42.66947" lon="1.67011">
        <ele>2006.8894042969</ele>
        <time>2012-06-09T09:19:08Z</time>
      </trkpt>
      <trkpt lat="42.66946" lon="1.67009">
        <ele>2007.3701171875</ele>
        <time>2012-06-09T09:19:10Z</time>
      </trkpt>
      <trkpt lat="42.6694" lon="1.67005">
        <ele>2007.8508300781</ele>
        <time>2012-06-09T09:19:18Z</time>
      </trkpt>
      <trkpt lat="42.66936" lon="1.67003">
        <ele>2007.8508300781</ele>
        <time>2012-06-09T09:19:23Z</time>
      </trkpt>
      <trkpt lat="42.6693" lon="1.67002">
        <ele>2007.3701171875</ele>
        <time>2012-06-09T09:19:29Z</time>
      </trkpt>
      <trkpt lat="42.66925" lon="1.67">
        <ele>2005.9279785156</ele>
        <time>2012-06-09T09:19:35Z</time>
      </trkpt>
      <trkpt lat="42.6692" lon="1.66996">
        <ele>2006.4086914062</ele>
        <time>2012-06-09T09:19:42Z</time>
      </trkpt>
      <trkpt lat="42.66914" lon="1.66991">
        <ele>2006.4086914062</ele>
        <time>2012-06-09T09:19:50Z</time>
      </trkpt>
      <trkpt lat="42.6691" lon="1.66986">
        <ele>2007.8508300781</ele>
        <time>2012-06-09T09:19:57Z</time>
      </trkpt>
      <trkpt lat="42.66905" lon="1.66984">
        <ele>2007.8508300781</ele>
        <time>2012-06-09T09:20:03Z</time>
      </trkpt>
      <trkpt lat="42.66899" lon="1.66983">
        <ele>2008.3312988281</ele>
        <time>2012-06-09T09:20:10Z</time>
      </trkpt>
      <trkpt lat="42.66895" lon="1.66984">
        <ele>2008.8120117188</ele>
        <time>2012-06-09T09:20:16Z</time>
      </trkpt>
      <trkpt lat="42.66892" lon="1.66982">
        <ele>2009.7731933594</ele>
        <time>2012-06-09T09:20:21Z</time>
      </trkpt>
      <trkpt lat="42.66888" lon="1.66979">
        <ele>2010.7346191406</ele>
        <time>2012-06-09T09:20:27Z</time>
      </trkpt>
      <trkpt lat="42.66883" lon="1.66975">
        <ele>2012.1767578125</ele>
        <time>2012-06-09T09:20:34Z</time>
      </trkpt>
      <trkpt lat="42.66882" lon="1.6697">
        <ele>2012.6574707031</ele>
        <time>2012-06-09T09:20:40Z</time>
      </trkpt>
      <trkpt lat="42.66879" lon="1.66964">
        <ele>2013.1381835938</ele>
        <time>2012-06-09T09:20:46Z</time>
      </trkpt>
      <trkpt lat="42.66874" lon="1.66962">
        <ele>2013.6186523438</ele>
        <time>2012-06-09T09:20:54Z</time>
      </trkpt>
      <trkpt lat="42.66869" lon="1.6696">
        <ele>2014.580078125</ele>
        <time>2012-06-09T09:21:01Z</time>
      </trkpt>
      <trkpt lat="42.66865" lon="1.66959">
        <ele>2015.0607910156</ele>
        <time>2012-06-09T09:21:07Z</time>
      </trkpt>
      <trkpt lat="42.66862" lon="1.66955">
        <ele>2016.0219726562</ele>
        <time>2012-06-09T09:21:13Z</time>
      </trkpt>
      <trkpt lat="42.66861" lon="1.66954">
        <ele>2016.9833984375</ele>
        <time>2012-06-09T09:21:18Z</time>
      </trkpt>
      <trkpt lat="42.66858" lon="1.66952">
        <ele>2017.4638671875</ele>
        <time>2012-06-09T09:21:23Z</time>
      </trkpt>
      <trkpt lat="42.66856" lon="1.6695">
        <ele>2017.9445800781</ele>
        <time>2012-06-09T09:21:29Z</time>
      </trkpt>
      <trkpt lat="42.66856" lon="1.66947">
        <ele>2018.9060058594</ele>
        <time>2012-06-09T09:21:33Z</time>
      </trkpt>
      <trkpt lat="42.66857" lon="1.66951">
        <ele>2027.5576171875</ele>
        <time>2012-06-09T09:21:48Z</time>
      </trkpt>
      <trkpt lat="42.66855" lon="1.66945">
        <ele>2025.6350097656</ele>
        <time>2012-06-09T09:21:57Z</time>
      </trkpt>
      <trkpt lat="42.66855" lon="1.66941">
        <ele>2027.0771484375</ele>
        <time>2012-06-09T09:22:03Z</time>
      </trkpt>
      <trkpt lat="42.66854" lon="1.66939">
        <ele>2027.0771484375</ele>
        <time>2012-06-09T09:22:07Z</time>
      </trkpt>
      <trkpt lat="42.66852" lon="1.66937">
        <ele>2028.0385742188</ele>
        <time>2012-06-09T09:22:13Z</time>
      </trkpt>
      <trkpt lat="42.6685" lon="1.66932">
        <ele>2028.9997558594</ele>
        <time>2012-06-09T09:22:21Z</time>
      </trkpt>
      <trkpt lat="42.66848" lon="1.6693">
        <ele>2029.48046875</ele>
        <time>2012-06-09T09:22:25Z</time>
      </trkpt>
      <trkpt lat="42.66847" lon="1.66927">
        <ele>2030.9226074219</ele>
        <time>2012-06-09T09:22:31Z</time>
      </trkpt>
      <trkpt lat="42.66845" lon="1.66924">
        <ele>2031.8837890625</ele>
        <time>2012-06-09T09:22:35Z</time>
      </trkpt>
      <trkpt lat="42.66841" lon="1.66922">
        <ele>2031.8837890625</ele>
        <time>2012-06-09T09:22:41Z</time>
      </trkpt>
      <trkpt lat="42.66836" lon="1.6692">
        <ele>2030.4418945312</ele>
        <time>2012-06-09T09:22:48Z</time>
      </trkpt>
      <trkpt lat="42.6683" lon="1.66919">
        <ele>2029.9611816406</ele>
        <time>2012-06-09T09:22:55Z</time>
      </trkpt>
      <trkpt lat="42.66827" lon="1.66918">
        <ele>2029.9611816406</ele>
        <time>2012-06-09T09:23:00Z</time>
      </trkpt>
      <trkpt lat="42.66827" lon="1.66917">
        <ele>2029.9611816406</ele>
        <time>2012-06-09T09:23:07Z</time>
      </trkpt>
      <trkpt lat="42.66825" lon="1.66918">
        <ele>2029.48046875</ele>
        <time>2012-06-09T09:23:13Z</time>
      </trkpt>
      <trkpt lat="42.66819" lon="1.66915">
        <ele>2028.9997558594</ele>
        <time>2012-06-09T09:23:19Z</time>
      </trkpt>
      <trkpt lat="42.66814" lon="1.66913">
        <ele>2028.0385742188</ele>
        <time>2012-06-09T09:23:24Z</time>
      </trkpt>
      <trkpt lat="42.66806" lon="1.6691">
        <ele>2026.5964355469</ele>
        <time>2012-06-09T09:23:32Z</time>
      </trkpt>
      <trkpt lat="42.66799" lon="1.66905">
        <ele>2026.5964355469</ele>
        <time>2012-06-09T09:23:39Z</time>
      </trkpt>
      <trkpt lat="42.66797" lon="1.66904">
        <ele>2026.1157226562</ele>
        <time>2012-06-09T09:23:41Z</time>
      </trkpt>
      <trkpt lat="42.66795" lon="1.669">
        <ele>2027.0771484375</ele>
        <time>2012-06-09T09:23:48Z</time>
      </trkpt>
      <trkpt lat="42.66791" lon="1.669">
        <ele>2026.5964355469</ele>
        <time>2012-06-09T09:23:52Z</time>
      </trkpt>
      <trkpt lat="42.66783" lon="1.66901">
        <ele>2027.0771484375</ele>
        <time>2012-06-09T09:24:00Z</time>
      </trkpt>
      <trkpt lat="42.66777" lon="1.66905">
        <ele>2026.5964355469</ele>
        <time>2012-06-09T09:24:07Z</time>
      </trkpt>
      <trkpt lat="42.66774" lon="1.66907">
        <ele>2026.1157226562</ele>
        <time>2012-06-09T09:24:12Z</time>
      </trkpt>
      <trkpt lat="42.66769" lon="1.6691">
        <ele>2025.154296875</ele>
        <time>2012-06-09T09:24:18Z</time>
      </trkpt>
      <trkpt lat="42.66765" lon="1.66912">
        <ele>2025.154296875</ele>
        <time>2012-06-09T09:24:24Z</time>
      </trkpt>
      <trkpt lat="42.66762" lon="1.66909">
        <ele>2026.1157226562</ele>
        <time>2012-06-09T09:24:30Z</time>
      </trkpt>
      <trkpt lat="42.66756" lon="1.66908">
        <ele>2026.5964355469</ele>
        <time>2012-06-09T09:24:37Z</time>
      </trkpt>
      <trkpt lat="42.66752" lon="1.66905">
        <ele>2027.5576171875</ele>
        <time>2012-06-09T09:24:44Z</time>
      </trkpt>
      <trkpt lat="42.6675" lon="1.66906">
        <ele>2028.9997558594</ele>
        <time>2012-06-09T09:24:51Z</time>
      </trkpt>
      <trkpt lat="42.66747" lon="1.66908">
        <ele>2028.5192871094</ele>
        <time>2012-06-09T09:24:58Z</time>
      </trkpt>
      <trkpt lat="42.66743" lon="1.66907">
        <ele>2028.0385742188</ele>
        <time>2012-06-09T09:25:05Z</time>
      </trkpt>
      <trkpt lat="42.6674" lon="1.66906">
        <ele>2028.0385742188</ele>
        <time>2012-06-09T09:25:11Z</time>
      </trkpt>
      <trkpt lat="42.66737" lon="1.66903">
        <ele>2028.5192871094</ele>
        <time>2012-06-09T09:25:16Z</time>
      </trkpt>
      <trkpt lat="42.66737" lon="1.66899">
        <ele>2029.48046875</ele>
        <time>2012-06-09T09:25:21Z</time>
      </trkpt>
      <trkpt lat="42.66733" lon="1.66899">
        <ele>2030.9226074219</ele>
        <time>2012-06-09T09:25:28Z</time>
      </trkpt>
      <trkpt lat="42.66729" lon="1.66898">
        <ele>2031.4030761719</ele>
        <time>2012-06-09T09:25:33Z</time>
      </trkpt>
      <trkpt lat="42.66726" lon="1.66896">
        <ele>2032.3645019531</ele>
        <time>2012-06-09T09:25:38Z</time>
      </trkpt>
      <trkpt lat="42.66725" lon="1.66895">
        <ele>2032.8449707031</ele>
        <time>2012-06-09T09:25:43Z</time>
      </trkpt>
      <trkpt lat="42.66723" lon="1.66894">
        <ele>2032.8449707031</ele>
        <time>2012-06-09T09:25:47Z</time>
      </trkpt>
      <trkpt lat="42.66721" lon="1.66892">
        <ele>2033.3256835938</ele>
        <time>2012-06-09T09:25:54Z</time>
      </trkpt>
      <trkpt lat="42.66721" lon="1.66891">
        <ele>2032.3645019531</ele>
        <time>2012-06-09T09:26:15Z</time>
      </trkpt>
      <trkpt lat="42.66718" lon="1.66892">
        <ele>2033.3256835938</ele>
        <time>2012-06-09T09:26:21Z</time>
      </trkpt>
      <trkpt lat="42.66716" lon="1.66894">
        <ele>2034.287109375</ele>
        <time>2012-06-09T09:26:30Z</time>
      </trkpt>
      <trkpt lat="42.66714" lon="1.66894">
        <ele>2034.7678222656</ele>
        <time>2012-06-09T09:26:35Z</time>
      </trkpt>
      <trkpt lat="42.66713" lon="1.66893">
        <ele>2035.2482910156</ele>
        <time>2012-06-09T09:26:40Z</time>
      </trkpt>
      <trkpt lat="42.66711" lon="1.66893">
        <ele>2035.7290039062</ele>
        <time>2012-06-09T09:26:46Z</time>
      </trkpt>
      <trkpt lat="42.66709" lon="1.66893">
        <ele>2036.2097167969</ele>
        <time>2012-06-09T09:26:51Z</time>
      </trkpt>
      <trkpt lat="42.66709" lon="1.66893">
        <ele>2037.1708984375</ele>
        <time>2012-06-09T09:26:58Z</time>
      </trkpt>
      <trkpt lat="42.66708" lon="1.66889">
        <ele>2038.1323242188</ele>
        <time>2012-06-09T09:27:04Z</time>
      </trkpt>
      <trkpt lat="42.66708" lon="1.66886">
        <ele>2039.57421875</ele>
        <time>2012-06-09T09:27:09Z</time>
      </trkpt>
      <trkpt lat="42.66707" lon="1.66885">
        <ele>2040.5354003906</ele>
        <time>2012-06-09T09:27:16Z</time>
      </trkpt>
      <trkpt lat="42.66708" lon="1.66883">
        <ele>2040.5354003906</ele>
        <time>2012-06-09T09:27:21Z</time>
      </trkpt>
      <trkpt lat="42.66707" lon="1.66883">
        <ele>2042.4582519531</ele>
        <time>2012-06-09T09:27:30Z</time>
      </trkpt>
      <trkpt lat="42.66704" lon="1.66884">
        <ele>2043.9001464844</ele>
        <time>2012-06-09T09:27:37Z</time>
      </trkpt>
      <trkpt lat="42.66702" lon="1.66885">
        <ele>2044.8615722656</ele>
        <time>2012-06-09T09:27:41Z</time>
      </trkpt>
      <trkpt lat="42.66699" lon="1.66884">
        <ele>2045.3422851562</ele>
        <time>2012-06-09T09:27:46Z</time>
      </trkpt>
      <trkpt lat="42.66696" lon="1.66884">
        <ele>2045.8229980469</ele>
        <time>2012-06-09T09:27:52Z</time>
      </trkpt>
      <trkpt lat="42.66693" lon="1.66888">
        <ele>2046.3037109375</ele>
        <time>2012-06-09T09:27:58Z</time>
      </trkpt>
      <trkpt lat="42.66691" lon="1.66889">
        <ele>2046.3037109375</ele>
        <time>2012-06-09T09:28:04Z</time>
      </trkpt>
      <trkpt lat="42.66689" lon="1.6689">
        <ele>2045.8229980469</ele>
        <time>2012-06-09T09:28:09Z</time>
      </trkpt>
      <trkpt lat="42.66686" lon="1.66891">
        <ele>2046.3037109375</ele>
        <time>2012-06-09T09:28:16Z</time>
      </trkpt>
      <trkpt lat="42.66683" lon="1.66889">
        <ele>2046.7841796875</ele>
        <time>2012-06-09T09:28:21Z</time>
      </trkpt>
      <trkpt lat="42.66681" lon="1.66889">
        <ele>2047.2648925781</ele>
        <time>2012-06-09T09:28:25Z</time>
      </trkpt>
      <trkpt lat="42.66678" lon="1.6689">
        <ele>2047.7456054688</ele>
        <time>2012-06-09T09:28:30Z</time>
      </trkpt>
      <trkpt lat="42.66675" lon="1.66889">
        <ele>2048.2260742188</ele>
        <time>2012-06-09T09:28:37Z</time>
      </trkpt>
      <trkpt lat="42.66674" lon="1.66888">
        <ele>2049.6682128906</ele>
        <time>2012-06-09T09:28:43Z</time>
      </trkpt>
      <trkpt lat="42.66672" lon="1.66888">
        <ele>2050.6293945312</ele>
        <time>2012-06-09T09:28:49Z</time>
      </trkpt>
      <trkpt lat="42.66671" lon="1.66885">
        <ele>2050.6293945312</ele>
        <time>2012-06-09T09:28:56Z</time>
      </trkpt>
      <trkpt lat="42.6667" lon="1.66884">
        <ele>2051.1101074219</ele>
        <time>2012-06-09T09:29:02Z</time>
      </trkpt>
      <trkpt lat="42.66669" lon="1.66884">
        <ele>2051.1101074219</ele>
        <time>2012-06-09T09:29:08Z</time>
      </trkpt>
      <trkpt lat="42.66668" lon="1.66882">
        <ele>2051.1101074219</ele>
        <time>2012-06-09T09:29:13Z</time>
      </trkpt>
      <trkpt lat="42.66666" lon="1.66882">
        <ele>2053.0327148438</ele>
        <time>2012-06-09T09:29:20Z</time>
      </trkpt>
      <trkpt lat="42.66664" lon="1.66882">
        <ele>2053.5134277344</ele>
        <time>2012-06-09T09:29:26Z</time>
      </trkpt>
      <trkpt lat="42.66663" lon="1.66882">
        <ele>2056.8779296875</ele>
        <time>2012-06-09T09:29:34Z</time>
      </trkpt>
      <trkpt lat="42.66662" lon="1.6688">
        <ele>2057.8393554688</ele>
        <time>2012-06-09T09:29:40Z</time>
      </trkpt>
      <trkpt lat="42.66661" lon="1.66878">
        <ele>2057.3586425781</ele>
        <time>2012-06-09T09:29:47Z</time>
      </trkpt>
      <trkpt lat="42.66658" lon="1.66875">
        <ele>2060.2426757812</ele>
        <time>2012-06-09T09:29:58Z</time>
      </trkpt>
      <trkpt lat="42.66658" lon="1.66876">
        <ele>2061.6848144531</ele>
        <time>2012-06-09T09:30:03Z</time>
      </trkpt>
      <trkpt lat="42.66655" lon="1.66874">
        <ele>2063.1267089844</ele>
        <time>2012-06-09T09:30:09Z</time>
      </trkpt>
      <trkpt lat="42.66652" lon="1.66875">
        <ele>2064.087890625</ele>
        <time>2012-06-09T09:30:15Z</time>
      </trkpt>
      <trkpt lat="42.66649" lon="1.66878">
        <ele>2065.0493164062</ele>
        <time>2012-06-09T09:30:21Z</time>
      </trkpt>
      <trkpt lat="42.66644" lon="1.66879">
        <ele>2066.0104980469</ele>
        <time>2012-06-09T09:30:28Z</time>
      </trkpt>
      <trkpt lat="42.6664" lon="1.66879">
        <ele>2067.4523925781</ele>
        <time>2012-06-09T09:30:34Z</time>
      </trkpt>
      <trkpt lat="42.66638" lon="1.66878">
        <ele>2067.9331054688</ele>
        <time>2012-06-09T09:30:42Z</time>
      </trkpt>
      <trkpt lat="42.66636" lon="1.66875">
        <ele>2068.4138183594</ele>
        <time>2012-06-09T09:30:49Z</time>
      </trkpt>
      <trkpt lat="42.66636" lon="1.66872">
        <ele>2069.8557128906</ele>
        <time>2012-06-09T09:30:54Z</time>
      </trkpt>
      <trkpt lat="42.66633" lon="1.66868">
        <ele>2070.8171386719</ele>
        <time>2012-06-09T09:31:00Z</time>
      </trkpt>
      <trkpt lat="42.66631" lon="1.66868">
        <ele>2072.2590332031</ele>
        <time>2012-06-09T09:31:05Z</time>
      </trkpt>
      <trkpt lat="42.66627" lon="1.66867">
        <ele>2072.2590332031</ele>
        <time>2012-06-09T09:31:11Z</time>
      </trkpt>
      <trkpt lat="42.66624" lon="1.66869">
        <ele>2071.7783203125</ele>
        <time>2012-06-09T09:31:17Z</time>
      </trkpt>
      <trkpt lat="42.66621" lon="1.66869">
        <ele>2071.7783203125</ele>
        <time>2012-06-09T09:31:23Z</time>
      </trkpt>
      <trkpt lat="42.66616" lon="1.66867">
        <ele>2073.2204589844</ele>
        <time>2012-06-09T09:31:30Z</time>
      </trkpt>
      <trkpt lat="42.66613" lon="1.66864">
        <ele>2074.181640625</ele>
        <time>2012-06-09T09:31:35Z</time>
      </trkpt>
      <trkpt lat="42.66608" lon="1.66862">
        <ele>2074.181640625</ele>
        <time>2012-06-09T09:31:41Z</time>
      </trkpt>
      <trkpt lat="42.66605" lon="1.66857">
        <ele>2074.6623535156</ele>
        <time>2012-06-09T09:31:47Z</time>
      </trkpt>
      <trkpt lat="42.66606" lon="1.6685">
        <ele>2075.1428222656</ele>
        <time>2012-06-09T09:31:53Z</time>
      </trkpt>
      <trkpt lat="42.66603" lon="1.66843">
        <ele>2075.6235351562</ele>
        <time>2012-06-09T09:31:59Z</time>
      </trkpt>
      <trkpt lat="42.666" lon="1.66835">
        <ele>2076.5852050781</ele>
        <time>2012-06-09T09:32:07Z</time>
      </trkpt>
      <trkpt lat="42.66595" lon="1.6683">
        <ele>2077.5463867188</ele>
        <time>2012-06-09T09:32:14Z</time>
      </trkpt>
      <trkpt lat="42.6659" lon="1.66825">
        <ele>2078.98828125</ele>
        <time>2012-06-09T09:32:21Z</time>
      </trkpt>
      <trkpt lat="42.66587" lon="1.66822">
        <ele>2079.9497070312</ele>
        <time>2012-06-09T09:32:26Z</time>
      </trkpt>
      <trkpt lat="42.66586" lon="1.66819">
        <ele>2081.3916015625</ele>
        <time>2012-06-09T09:32:32Z</time>
      </trkpt>
      <trkpt lat="42.66587" lon="1.66814">
        <ele>2082.3530273438</ele>
        <time>2012-06-09T09:32:39Z</time>
      </trkpt>
      <trkpt lat="42.66587" lon="1.66814">
        <ele>2082.3530273438</ele>
        <time>2012-06-09T09:32:46Z</time>
      </trkpt>
      <trkpt lat="42.66585" lon="1.66812">
        <ele>2082.3530273438</ele>
        <time>2012-06-09T09:32:53Z</time>
      </trkpt>
      <trkpt lat="42.66584" lon="1.66809">
        <ele>2083.3142089844</ele>
        <time>2012-06-09T09:32:57Z</time>
      </trkpt>
      <trkpt lat="42.66581" lon="1.66806">
        <ele>2083.794921875</ele>
        <time>2012-06-09T09:33:02Z</time>
      </trkpt>
      <trkpt lat="42.66576" lon="1.66806">
        <ele>2084.2756347656</ele>
        <time>2012-06-09T09:33:08Z</time>
      </trkpt>
      <trkpt lat="42.66573" lon="1.66806">
        <ele>2085.2368164062</ele>
        <time>2012-06-09T09:33:13Z</time>
      </trkpt>
      <trkpt lat="42.66571" lon="1.66806">
        <ele>2086.1982421875</ele>
        <time>2012-06-09T09:33:17Z</time>
      </trkpt>
      <trkpt lat="42.66567" lon="1.66804">
        <ele>2087.6401367188</ele>
        <time>2012-06-09T09:33:24Z</time>
      </trkpt>
      <trkpt lat="42.66563" lon="1.66805">
        <ele>2089.08203125</ele>
        <time>2012-06-09T09:33:30Z</time>
      </trkpt>
      <trkpt lat="42.66558" lon="1.66804">
        <ele>2090.0434570312</ele>
        <time>2012-06-09T09:33:36Z</time>
      </trkpt>
      <trkpt lat="42.66557" lon="1.66801">
        <ele>2091.0046386719</ele>
        <time>2012-06-09T09:33:40Z</time>
      </trkpt>
      <trkpt lat="42.66555" lon="1.66799">
        <ele>2091.9660644531</ele>
        <time>2012-06-09T09:33:45Z</time>
      </trkpt>
      <trkpt lat="42.66553" lon="1.66795">
        <ele>2092.4470214844</ele>
        <time>2012-06-09T09:33:49Z</time>
      </trkpt>
      <trkpt lat="42.66551" lon="1.66792">
        <ele>2092.9274902344</ele>
        <time>2012-06-09T09:33:55Z</time>
      </trkpt>
      <trkpt lat="42.6655" lon="1.6679">
        <ele>2093.408203125</ele>
        <time>2012-06-09T09:33:59Z</time>
      </trkpt>
      <trkpt lat="42.66546" lon="1.6679">
        <ele>2093.408203125</ele>
        <time>2012-06-09T09:34:04Z</time>
      </trkpt>
      <trkpt lat="42.6654" lon="1.66787">
        <ele>2093.8889160156</ele>
        <time>2012-06-09T09:34:10Z</time>
      </trkpt>
      <trkpt lat="42.66538" lon="1.66787">
        <ele>2093.8889160156</ele>
        <time>2012-06-09T09:34:11Z</time>
      </trkpt>
      <trkpt lat="42.66528" lon="1.66784">
        <ele>2094.3693847656</ele>
        <time>2012-06-09T09:34:20Z</time>
      </trkpt>
      <trkpt lat="42.66521" lon="1.66782">
        <ele>2094.3693847656</ele>
        <time>2012-06-09T09:34:26Z</time>
      </trkpt>
      <trkpt lat="42.6652" lon="1.66781">
        <ele>2094.8500976562</ele>
        <time>2012-06-09T09:34:28Z</time>
      </trkpt>
      <trkpt lat="42.66514" lon="1.66779">
        <ele>2095.8115234375</ele>
        <time>2012-06-09T09:34:35Z</time>
      </trkpt>
      <trkpt lat="42.6651" lon="1.66778">
        <ele>2096.2922363281</ele>
        <time>2012-06-09T09:34:40Z</time>
      </trkpt>
      <trkpt lat="42.66505" lon="1.66779">
        <ele>2097.2534179688</ele>
        <time>2012-06-09T09:34:45Z</time>
      </trkpt>
      <trkpt lat="42.66504" lon="1.66777">
        <ele>2097.7341308594</ele>
        <time>2012-06-09T09:34:51Z</time>
      </trkpt>
      <trkpt lat="42.665" lon="1.66774">
        <ele>2098.2145996094</ele>
        <time>2012-06-09T09:34:56Z</time>
      </trkpt>
      <trkpt lat="42.665" lon="1.66768">
        <ele>2098.6953125</ele>
        <time>2012-06-09T09:35:01Z</time>
      </trkpt>
      <trkpt lat="42.66499" lon="1.6676">
        <ele>2099.1760253906</ele>
        <time>2012-06-09T09:35:07Z</time>
      </trkpt>
      <trkpt lat="42.66498" lon="1.66758">
        <ele>2099.1760253906</ele>
        <time>2012-06-09T09:35:09Z</time>
      </trkpt>
      <trkpt lat="42.66488" lon="1.6675">
        <ele>2100.1374511719</ele>
        <time>2012-06-09T09:35:19Z</time>
      </trkpt>
      <trkpt lat="42.66486" lon="1.6675">
        <ele>2100.6179199219</ele>
        <time>2012-06-09T09:35:21Z</time>
      </trkpt>
      <trkpt lat="42.66482" lon="1.66746">
        <ele>2101.5793457031</ele>
        <time>2012-06-09T09:35:26Z</time>
      </trkpt>
      <trkpt lat="42.66478" lon="1.66742">
        <ele>2101.5793457031</ele>
        <time>2012-06-09T09:35:33Z</time>
      </trkpt>
      <trkpt lat="42.66476" lon="1.66738">
        <ele>2102.5405273438</ele>
        <time>2012-06-09T09:35:38Z</time>
      </trkpt>
      <trkpt lat="42.66472" lon="1.66735">
        <ele>2103.0212402344</ele>
        <time>2012-06-09T09:35:45Z</time>
      </trkpt>
      <trkpt lat="42.66465" lon="1.66732">
        <ele>2103.501953125</ele>
        <time>2012-06-09T09:35:53Z</time>
      </trkpt>
      <trkpt lat="42.66461" lon="1.66732">
        <ele>2103.0212402344</ele>
        <time>2012-06-09T09:35:59Z</time>
      </trkpt>
      <trkpt lat="42.66456" lon="1.66732">
        <ele>2101.0986328125</ele>
        <time>2012-06-09T09:36:06Z</time>
      </trkpt>
      <trkpt lat="42.6645" lon="1.66732">
        <ele>2100.1374511719</ele>
        <time>2012-06-09T09:36:12Z</time>
      </trkpt>
      <trkpt lat="42.66449" lon="1.66732">
        <ele>2100.6179199219</ele>
        <time>2012-06-09T09:36:23Z</time>
      </trkpt>
      <trkpt lat="42.66451" lon="1.66727">
        <ele>2101.0986328125</ele>
        <time>2012-06-09T09:36:41Z</time>
      </trkpt>
      <trkpt lat="42.66451" lon="1.66725">
        <ele>2100.6179199219</ele>
        <time>2012-06-09T09:36:42Z</time>
      </trkpt>
      <trkpt lat="42.66453" lon="1.6672">
        <ele>2101.0986328125</ele>
        <time>2012-06-09T09:36:46Z</time>
      </trkpt>
      <trkpt lat="42.66457" lon="1.66714">
        <ele>2101.5793457031</ele>
        <time>2012-06-09T09:36:54Z</time>
      </trkpt>
      <trkpt lat="42.66462" lon="1.6671">
        <ele>2101.0986328125</ele>
        <time>2012-06-09T09:37:00Z</time>
      </trkpt>
      <trkpt lat="42.66462" lon="1.66706">
        <ele>2101.0986328125</ele>
        <time>2012-06-09T09:37:03Z</time>
      </trkpt>
      <trkpt lat="42.6646" lon="1.66701">
        <ele>2101.0986328125</ele>
        <time>2012-06-09T09:37:07Z</time>
      </trkpt>
      <trkpt lat="42.66459" lon="1.66696">
        <ele>2101.5793457031</ele>
        <time>2012-06-09T09:37:11Z</time>
      </trkpt>
      <trkpt lat="42.66457" lon="1.66691">
        <ele>2102.0598144531</ele>
        <time>2012-06-09T09:37:15Z</time>
      </trkpt>
      <trkpt lat="42.66457" lon="1.6668">
        <ele>2101.0986328125</ele>
        <time>2012-06-09T09:37:22Z</time>
      </trkpt>
      <trkpt lat="42.66453" lon="1.66673">
        <ele>2100.6179199219</ele>
        <time>2012-06-09T09:37:28Z</time>
      </trkpt>
      <trkpt lat="42.66452" lon="1.66672">
        <ele>2100.6179199219</ele>
        <time>2012-06-09T09:37:29Z</time>
      </trkpt>
      <trkpt lat="42.66449" lon="1.66662">
        <ele>2100.1374511719</ele>
        <time>2012-06-09T09:37:36Z</time>
      </trkpt>
      <trkpt lat="42.66446" lon="1.66657">
        <ele>2100.1374511719</ele>
        <time>2012-06-09T09:37:41Z</time>
      </trkpt>
      <trkpt lat="42.66443" lon="1.66655">
        <ele>2101.0986328125</ele>
        <time>2012-06-09T09:37:47Z</time>
      </trkpt>
      <trkpt lat="42.6644" lon="1.66653">
        <ele>2102.5405273438</ele>
        <time>2012-06-09T09:37:53Z</time>
      </trkpt>
      <trkpt lat="42.66434" lon="1.66649">
        <ele>2102.5405273438</ele>
        <time>2012-06-09T09:37:59Z</time>
      </trkpt>
      <trkpt lat="42.66429" lon="1.66646">
        <ele>2103.0212402344</ele>
        <time>2012-06-09T09:38:05Z</time>
      </trkpt>
      <trkpt lat="42.66425" lon="1.66641">
        <ele>2103.501953125</ele>
        <time>2012-06-09T09:38:11Z</time>
      </trkpt>
      <trkpt lat="42.66418" lon="1.66634">
        <ele>2103.9826660156</ele>
        <time>2012-06-09T09:38:19Z</time>
      </trkpt>
      <trkpt lat="42.66411" lon="1.66627">
        <ele>2104.4631347656</ele>
        <time>2012-06-09T09:38:27Z</time>
      </trkpt>
      <trkpt lat="42.66407" lon="1.66622">
        <ele>2104.9438476562</ele>
        <time>2012-06-09T09:38:33Z</time>
      </trkpt>
      <trkpt lat="42.66399" lon="1.66619">
        <ele>2104.9438476562</ele>
        <time>2012-06-09T09:38:40Z</time>
      </trkpt>
      <trkpt lat="42.66394" lon="1.66613">
        <ele>2105.4245605469</ele>
        <time>2012-06-09T09:38:47Z</time>
      </trkpt>
      <trkpt lat="42.6639" lon="1.66605">
        <ele>2106.8664550781</ele>
        <time>2012-06-09T09:38:54Z</time>
      </trkpt>
      <trkpt lat="42.66385" lon="1.66597">
        <ele>2107.3471679688</ele>
        <time>2012-06-09T09:39:02Z</time>
      </trkpt>
      <trkpt lat="42.66383" lon="1.66592">
        <ele>2107.8278808594</ele>
        <time>2012-06-09T09:39:07Z</time>
      </trkpt>
      <trkpt lat="42.6638" lon="1.66588">
        <ele>2109.2700195312</ele>
        <time>2012-06-09T09:39:13Z</time>
      </trkpt>
      <trkpt lat="42.66378" lon="1.66584">
        <ele>2110.2312011719</ele>
        <time>2012-06-09T09:39:18Z</time>
      </trkpt>
      <trkpt lat="42.66376" lon="1.66581">
        <ele>2111.1926269531</ele>
        <time>2012-06-09T09:39:23Z</time>
      </trkpt>
      <trkpt lat="42.66375" lon="1.66577">
        <ele>2112.1538085938</ele>
        <time>2012-06-09T09:39:28Z</time>
      </trkpt>
      <trkpt lat="42.66374" lon="1.66575">
        <ele>2113.595703125</ele>
        <time>2012-06-09T09:39:33Z</time>
      </trkpt>
      <trkpt lat="42.66373" lon="1.66574">
        <ele>2114.5571289062</ele>
        <time>2012-06-09T09:39:38Z</time>
      </trkpt>
      <trkpt lat="42.6637" lon="1.66572">
        <ele>2115.9990234375</ele>
        <time>2012-06-09T09:39:43Z</time>
      </trkpt>
      <trkpt lat="42.66367" lon="1.66568">
        <ele>2117.9216308594</ele>
        <time>2012-06-09T09:39:49Z</time>
      </trkpt>
      <trkpt lat="42.66366" lon="1.66567">
        <ele>2118.40234375</ele>
        <time>2012-06-09T09:39:55Z</time>
      </trkpt>
      <trkpt lat="42.66366" lon="1.6657">
        <ele>2118.40234375</ele>
        <time>2012-06-09T09:40:07Z</time>
      </trkpt>
      <trkpt lat="42.66362" lon="1.66571">
        <ele>2116.9604492188</ele>
        <time>2012-06-09T09:40:14Z</time>
      </trkpt>
      <trkpt lat="42.66359" lon="1.66569">
        <ele>2116.4797363281</ele>
        <time>2012-06-09T09:40:19Z</time>
      </trkpt>
      <trkpt lat="42.66354" lon="1.6657">
        <ele>2115.5185546875</ele>
        <time>2012-06-09T09:40:25Z</time>
      </trkpt>
      <trkpt lat="42.66351" lon="1.6657">
        <ele>2115.0378417969</ele>
        <time>2012-06-09T09:40:28Z</time>
      </trkpt>
      <trkpt lat="42.66349" lon="1.6657">
        <ele>2115.5185546875</ele>
        <time>2012-06-09T09:40:30Z</time>
      </trkpt>
      <trkpt lat="42.66339" lon="1.66569">
        <ele>2115.0378417969</ele>
        <time>2012-06-09T09:40:39Z</time>
      </trkpt>
      <trkpt lat="42.66336" lon="1.66569">
        <ele>2114.5571289062</ele>
        <time>2012-06-09T09:40:46Z</time>
      </trkpt>
      <trkpt lat="42.66335" lon="1.6657">
        <ele>2115.0378417969</ele>
        <time>2012-06-09T09:40:54Z</time>
      </trkpt>
      <trkpt lat="42.66335" lon="1.66571">
        <ele>2115.0378417969</ele>
        <time>2012-06-09T09:41:05Z</time>
      </trkpt>
      <trkpt lat="42.66334" lon="1.66568">
        <ele>2115.9990234375</ele>
        <time>2012-06-09T09:41:10Z</time>
      </trkpt>
      <trkpt lat="42.66334" lon="1.66564">
        <ele>2116.4797363281</ele>
        <time>2012-06-09T09:41:15Z</time>
      </trkpt>
      <trkpt lat="42.66337" lon="1.6656">
        <ele>2117.9216308594</ele>
        <time>2012-06-09T09:41:21Z</time>
      </trkpt>
      <trkpt lat="42.66338" lon="1.66559">
        <ele>2118.40234375</ele>
        <time>2012-06-09T09:41:26Z</time>
      </trkpt>
      <trkpt lat="42.66339" lon="1.66558">
        <ele>2117.4409179688</ele>
        <time>2012-06-09T09:41:38Z</time>
      </trkpt>
      <trkpt lat="42.66338" lon="1.6656">
        <ele>2116.4797363281</ele>
        <time>2012-06-09T09:41:44Z</time>
      </trkpt>
      <trkpt lat="42.66335" lon="1.66564">
        <ele>2115.0378417969</ele>
        <time>2012-06-09T09:41:50Z</time>
      </trkpt>
      <trkpt lat="42.66336" lon="1.66566">
        <ele>2114.0764160156</ele>
        <time>2012-06-09T09:41:57Z</time>
      </trkpt>
      <trkpt lat="42.6634" lon="1.66569">
        <ele>2113.115234375</ele>
        <time>2012-06-09T09:42:04Z</time>
      </trkpt>
      <trkpt lat="42.66345" lon="1.66568">
        <ele>2114.0764160156</ele>
        <time>2012-06-09T09:42:11Z</time>
      </trkpt>
      <trkpt lat="42.66346" lon="1.66569">
        <ele>2114.0764160156</ele>
        <time>2012-06-09T09:42:17Z</time>
      </trkpt>
      <trkpt lat="42.66347" lon="1.66569">
        <ele>2113.595703125</ele>
        <time>2012-06-09T09:42:33Z</time>
      </trkpt>
      <trkpt lat="42.66349" lon="1.66569">
        <ele>2113.115234375</ele>
        <time>2012-06-09T09:42:44Z</time>
      </trkpt>
      <trkpt lat="42.66353" lon="1.66569">
        <ele>2113.115234375</ele>
        <time>2012-06-09T09:42:49Z</time>
      </trkpt>
      <trkpt lat="42.66355" lon="1.66565">
        <ele>2115.0378417969</ele>
        <time>2012-06-09T09:42:55Z</time>
      </trkpt>
      <trkpt lat="42.66354" lon="1.66561">
        <ele>2116.9604492188</ele>
        <time>2012-06-09T09:43:01Z</time>
      </trkpt>
      <trkpt lat="42.66354" lon="1.66558">
        <ele>2117.4409179688</ele>
        <time>2012-06-09T09:43:06Z</time>
      </trkpt>
      <trkpt lat="42.66354" lon="1.66557">
        <ele>2117.4409179688</ele>
        <time>2012-06-09T09:43:13Z</time>
      </trkpt>
      <trkpt lat="42.66354" lon="1.66557">
        <ele>2118.40234375</ele>
        <time>2012-06-09T09:43:27Z</time>
      </trkpt>
      <trkpt lat="42.66356" lon="1.66555">
        <ele>2118.8830566406</ele>
        <time>2012-06-09T09:43:31Z</time>
      </trkpt>
      <trkpt lat="42.66357" lon="1.66553">
        <ele>2119.3637695312</ele>
        <time>2012-06-09T09:43:39Z</time>
      </trkpt>
      <trkpt lat="42.66356" lon="1.66551">
        <ele>2118.8830566406</ele>
        <time>2012-06-09T09:43:46Z</time>
      </trkpt>
      <trkpt lat="42.66354" lon="1.66551">
        <ele>2119.8442382812</ele>
        <time>2012-06-09T09:43:52Z</time>
      </trkpt>
      <trkpt lat="42.66353" lon="1.66551">
        <ele>2119.8442382812</ele>
        <time>2012-06-09T09:43:59Z</time>
      </trkpt>
      <trkpt lat="42.66352" lon="1.6655">
        <ele>2119.8442382812</ele>
        <time>2012-06-09T09:44:05Z</time>
      </trkpt>
      <trkpt lat="42.66351" lon="1.66548">
        <ele>2120.3249511719</ele>
        <time>2012-06-09T09:44:10Z</time>
      </trkpt>
      <trkpt lat="42.66347" lon="1.66545">
        <ele>2120.8056640625</ele>
        <time>2012-06-09T09:44:16Z</time>
      </trkpt>
      <trkpt lat="42.66344" lon="1.66543">
        <ele>2122.2475585938</ele>
        <time>2012-06-09T09:44:21Z</time>
      </trkpt>
      <trkpt lat="42.66342" lon="1.66543">
        <ele>2123.208984375</ele>
        <time>2012-06-09T09:44:27Z</time>
      </trkpt>
      <trkpt lat="42.66342" lon="1.66539">
        <ele>2124.1704101562</ele>
        <time>2012-06-09T09:44:34Z</time>
      </trkpt>
      <trkpt lat="42.6634" lon="1.66537">
        <ele>2125.6123046875</ele>
        <time>2012-06-09T09:44:39Z</time>
      </trkpt>
      <trkpt lat="42.66338" lon="1.66535">
        <ele>2126.5737304688</ele>
        <time>2012-06-09T09:44:44Z</time>
      </trkpt>
      <trkpt lat="42.66336" lon="1.66531">
        <ele>2127.0544433594</ele>
        <time>2012-06-09T09:44:50Z</time>
      </trkpt>
      <trkpt lat="42.66334" lon="1.66528">
        <ele>2128.015625</ele>
        <time>2012-06-09T09:44:55Z</time>
      </trkpt>
      <trkpt lat="42.6633" lon="1.66526">
        <ele>2129.4575195312</ele>
        <time>2012-06-09T09:45:02Z</time>
      </trkpt>
      <trkpt lat="42.6633" lon="1.66525">
        <ele>2130.4189453125</ele>
        <time>2012-06-09T09:45:12Z</time>
      </trkpt>
      <trkpt lat="42.66328" lon="1.66526">
        <ele>2129.9382324219</ele>
        <time>2012-06-09T09:45:19Z</time>
      </trkpt>
      <trkpt lat="42.66326" lon="1.66527">
        <ele>2128.9768066406</ele>
        <time>2012-06-09T09:45:25Z</time>
      </trkpt>
      <trkpt lat="42.66323" lon="1.66528">
        <ele>2127.0544433594</ele>
        <time>2012-06-09T09:45:31Z</time>
      </trkpt>
      <trkpt lat="42.66321" lon="1.66528">
        <ele>2127.0544433594</ele>
        <time>2012-06-09T09:45:37Z</time>
      </trkpt>
      <trkpt lat="42.66319" lon="1.66527">
        <ele>2127.0544433594</ele>
        <time>2012-06-09T09:45:45Z</time>
      </trkpt>
      <trkpt lat="42.66317" lon="1.66527">
        <ele>2127.0544433594</ele>
        <time>2012-06-09T09:45:51Z</time>
      </trkpt>
      <trkpt lat="42.66317" lon="1.66528">
        <ele>2127.0544433594</ele>
        <time>2012-06-09T09:46:01Z</time>
      </trkpt>
      <trkpt lat="42.66316" lon="1.66529">
        <ele>2126.5737304688</ele>
        <time>2012-06-09T09:46:08Z</time>
      </trkpt>
      <trkpt lat="42.66313" lon="1.6653">
        <ele>2127.5349121094</ele>
        <time>2012-06-09T09:46:14Z</time>
      </trkpt>
      <trkpt lat="42.6631" lon="1.6653">
        <ele>2127.5349121094</ele>
        <time>2012-06-09T09:46:20Z</time>
      </trkpt>
      <trkpt lat="42.66307" lon="1.66533">
        <ele>2127.0544433594</ele>
        <time>2012-06-09T09:46:25Z</time>
      </trkpt>
      <trkpt lat="42.66303" lon="1.66537">
        <ele>2126.5737304688</ele>
        <time>2012-06-09T09:46:30Z</time>
      </trkpt>
      <trkpt lat="42.66298" lon="1.66541">
        <ele>2125.6123046875</ele>
        <time>2012-06-09T09:46:37Z</time>
      </trkpt>
      <trkpt lat="42.66295" lon="1.66544">
        <ele>2124.6511230469</ele>
        <time>2012-06-09T09:46:42Z</time>
      </trkpt>
      <trkpt lat="42.66289" lon="1.66544">
        <ele>2125.1315917969</ele>
        <time>2012-06-09T09:46:48Z</time>
      </trkpt>
      <trkpt lat="42.66286" lon="1.66542">
        <ele>2125.1315917969</ele>
        <time>2012-06-09T09:46:53Z</time>
      </trkpt>
      <trkpt lat="42.66284" lon="1.66538">
        <ele>2126.0930175781</ele>
        <time>2012-06-09T09:46:59Z</time>
      </trkpt>
      <trkpt lat="42.66279" lon="1.66536">
        <ele>2126.5737304688</ele>
        <time>2012-06-09T09:47:04Z</time>
      </trkpt>
      <trkpt lat="42.66277" lon="1.66536">
        <ele>2128.4963378906</ele>
        <time>2012-06-09T09:47:09Z</time>
      </trkpt>
      <trkpt lat="42.66277" lon="1.66532">
        <ele>2129.9382324219</ele>
        <time>2012-06-09T09:47:19Z</time>
      </trkpt>
      <trkpt lat="42.66276" lon="1.66528">
        <ele>2130.4189453125</ele>
        <time>2012-06-09T09:47:24Z</time>
      </trkpt>
      <trkpt lat="42.66273" lon="1.66528">
        <ele>2129.4575195312</ele>
        <time>2012-06-09T09:47:28Z</time>
      </trkpt>
      <trkpt lat="42.66271" lon="1.66526">
        <ele>2129.4575195312</ele>
        <time>2012-06-09T09:47:33Z</time>
      </trkpt>
      <trkpt lat="42.66268" lon="1.66526">
        <ele>2130.8996582031</ele>
        <time>2012-06-09T09:47:38Z</time>
      </trkpt>
      <trkpt lat="42.66265" lon="1.66523">
        <ele>2132.3415527344</ele>
        <time>2012-06-09T09:47:44Z</time>
      </trkpt>
      <trkpt lat="42.66264" lon="1.66523">
        <ele>2132.8220214844</ele>
        <time>2012-06-09T09:47:48Z</time>
      </trkpt>
      <trkpt lat="42.66262" lon="1.66521">
        <ele>2133.7834472656</ele>
        <time>2012-06-09T09:47:53Z</time>
      </trkpt>
      <trkpt lat="42.66259" lon="1.66521">
        <ele>2134.7448730469</ele>
        <time>2012-06-09T09:48:00Z</time>
      </trkpt>
      <trkpt lat="42.66255" lon="1.66522">
        <ele>2136.1867675781</ele>
        <time>2012-06-09T09:48:06Z</time>
      </trkpt>
      <trkpt lat="42.66251" lon="1.66525">
        <ele>2137.1479492188</ele>
        <time>2012-06-09T09:48:12Z</time>
      </trkpt>
      <trkpt lat="42.66247" lon="1.66527">
        <ele>2137.6286621094</ele>
        <time>2012-06-09T09:48:20Z</time>
      </trkpt>
      <trkpt lat="42.66245" lon="1.6653">
        <ele>2137.1479492188</ele>
        <time>2012-06-09T09:48:25Z</time>
      </trkpt>
      <trkpt lat="42.66242" lon="1.66531">
        <ele>2137.6286621094</ele>
        <time>2012-06-09T09:48:32Z</time>
      </trkpt>
      <trkpt lat="42.6624" lon="1.66533">
        <ele>2137.6286621094</ele>
        <time>2012-06-09T09:48:36Z</time>
      </trkpt>
      <trkpt lat="42.66237" lon="1.66532">
        <ele>2137.1479492188</ele>
        <time>2012-06-09T09:48:42Z</time>
      </trkpt>
      <trkpt lat="42.66235" lon="1.6653">
        <ele>2138.5900878906</ele>
        <time>2012-06-09T09:48:49Z</time>
      </trkpt>
      <trkpt lat="42.6623" lon="1.66531">
        <ele>2140.0322265625</ele>
        <time>2012-06-09T09:48:56Z</time>
      </trkpt>
      <trkpt lat="42.66225" lon="1.6653">
        <ele>2139.0705566406</ele>
        <time>2012-06-09T09:49:03Z</time>
      </trkpt>
      <trkpt lat="42.6622" lon="1.6653">
        <ele>2139.0705566406</ele>
        <time>2012-06-09T09:49:10Z</time>
      </trkpt>
      <trkpt lat="42.66214" lon="1.66531">
        <ele>2138.5900878906</ele>
        <time>2012-06-09T09:49:16Z</time>
      </trkpt>
      <trkpt lat="42.66209" lon="1.66531">
        <ele>2139.5512695312</ele>
        <time>2012-06-09T09:49:25Z</time>
      </trkpt>
      <trkpt lat="42.66207" lon="1.66529">
        <ele>2140.5126953125</ele>
        <time>2012-06-09T09:49:30Z</time>
      </trkpt>
      <trkpt lat="42.66203" lon="1.66528">
        <ele>2140.5126953125</ele>
        <time>2012-06-09T09:49:37Z</time>
      </trkpt>
      <trkpt lat="42.66202" lon="1.66526">
        <ele>2141.4741210938</ele>
        <time>2012-06-09T09:49:41Z</time>
      </trkpt>
      <trkpt lat="42.66201" lon="1.66524">
        <ele>2142.435546875</ele>
        <time>2012-06-09T09:49:49Z</time>
      </trkpt>
      <trkpt lat="42.662" lon="1.66522">
        <ele>2142.916015625</ele>
        <time>2012-06-09T09:50:01Z</time>
      </trkpt>
      <trkpt lat="42.66198" lon="1.66518">
        <ele>2143.8774414062</ele>
        <time>2012-06-09T09:50:07Z</time>
      </trkpt>
      <trkpt lat="42.66197" lon="1.66518">
        <ele>2144.3579101562</ele>
        <time>2012-06-09T09:50:12Z</time>
      </trkpt>
      <trkpt lat="42.66195" lon="1.66515">
        <ele>2145.8000488281</ele>
        <time>2012-06-09T09:50:19Z</time>
      </trkpt>
      <trkpt lat="42.66193" lon="1.66514">
        <ele>2146.2807617188</ele>
        <time>2012-06-09T09:50:26Z</time>
      </trkpt>
      <trkpt lat="42.66191" lon="1.66511">
        <ele>2148.6838378906</ele>
        <time>2012-06-09T09:50:34Z</time>
      </trkpt>
      <trkpt lat="42.66191" lon="1.66509">
        <ele>2149.1645507812</ele>
        <time>2012-06-09T09:50:39Z</time>
      </trkpt>
      <trkpt lat="42.66188" lon="1.66507">
        <ele>2150.1259765625</ele>
        <time>2012-06-09T09:50:45Z</time>
      </trkpt>
      <trkpt lat="42.66187" lon="1.66506">
        <ele>2152.0483398438</ele>
        <time>2012-06-09T09:50:52Z</time>
      </trkpt>
      <trkpt lat="42.66185" lon="1.66503">
        <ele>2152.0483398438</ele>
        <time>2012-06-09T09:50:57Z</time>
      </trkpt>
      <trkpt lat="42.66185" lon="1.66502">
        <ele>2152.5290527344</ele>
        <time>2012-06-09T09:51:04Z</time>
      </trkpt>
      <trkpt lat="42.66185" lon="1.66499">
        <ele>2153.009765625</ele>
        <time>2012-06-09T09:51:09Z</time>
      </trkpt>
      <trkpt lat="42.66186" lon="1.66496">
        <ele>2154.4516601562</ele>
        <time>2012-06-09T09:51:16Z</time>
      </trkpt>
      <trkpt lat="42.66187" lon="1.66494">
        <ele>2154.9323730469</ele>
        <time>2012-06-09T09:51:20Z</time>
      </trkpt>
      <trkpt lat="42.66186" lon="1.66493">
        <ele>2156.3745117188</ele>
        <time>2012-06-09T09:51:26Z</time>
      </trkpt>
      <trkpt lat="42.66186" lon="1.66494">
        <ele>2158.2971191406</ele>
        <time>2012-06-09T09:51:40Z</time>
      </trkpt>
      <trkpt lat="42.66188" lon="1.66492">
        <ele>2158.2971191406</ele>
        <time>2012-06-09T09:51:54Z</time>
      </trkpt>
      <trkpt lat="42.6619" lon="1.66489">
        <ele>2159.7390136719</ele>
        <time>2012-06-09T09:51:59Z</time>
      </trkpt>
      <trkpt lat="42.66191" lon="1.66486">
        <ele>2161.6618652344</ele>
        <time>2012-06-09T09:52:06Z</time>
      </trkpt>
      <trkpt lat="42.66191" lon="1.66482">
        <ele>2161.6618652344</ele>
        <time>2012-06-09T09:52:11Z</time>
      </trkpt>
      <trkpt lat="42.66191" lon="1.6648">
        <ele>2162.623046875</ele>
        <time>2012-06-09T09:52:15Z</time>
      </trkpt>
      <trkpt lat="42.66194" lon="1.66472">
        <ele>2164.5456542969</ele>
        <time>2012-06-09T09:52:24Z</time>
      </trkpt>
      <trkpt lat="42.66194" lon="1.66469">
        <ele>2164.5456542969</ele>
        <time>2012-06-09T09:52:29Z</time>
      </trkpt>
      <trkpt lat="42.66195" lon="1.66465">
        <ele>2165.9875488281</ele>
        <time>2012-06-09T09:52:35Z</time>
      </trkpt>
      <trkpt lat="42.66196" lon="1.66462">
        <ele>2167.4294433594</ele>
        <time>2012-06-09T09:52:40Z</time>
      </trkpt>
      <trkpt lat="42.66196" lon="1.66458">
        <ele>2167.91015625</ele>
        <time>2012-06-09T09:52:45Z</time>
      </trkpt>
      <trkpt lat="42.66198" lon="1.66452">
        <ele>2167.4294433594</ele>
        <time>2012-06-09T09:52:52Z</time>
      </trkpt>
      <trkpt lat="42.66199" lon="1.66448">
        <ele>2166.9489746094</ele>
        <time>2012-06-09T09:52:57Z</time>
      </trkpt>
      <trkpt lat="42.66203" lon="1.66444">
        <ele>2165.5070800781</ele>
        <time>2012-06-09T09:53:02Z</time>
      </trkpt>
      <trkpt lat="42.66202" lon="1.66437">
        <ele>2165.0263671875</ele>
        <time>2012-06-09T09:53:07Z</time>
      </trkpt>
      <trkpt lat="42.66196" lon="1.66426">
        <ele>2167.4294433594</ele>
        <time>2012-06-09T09:53:16Z</time>
      </trkpt>
      <trkpt lat="42.66195" lon="1.66425">
        <ele>2167.91015625</ele>
        <time>2012-06-09T09:53:17Z</time>
      </trkpt>
      <trkpt lat="42.66195" lon="1.66415">
        <ele>2168.3908691406</ele>
        <time>2012-06-09T09:53:24Z</time>
      </trkpt>
      <trkpt lat="42.66193" lon="1.66404">
        <ele>2168.8715820312</ele>
        <time>2012-06-09T09:53:31Z</time>
      </trkpt>
      <trkpt lat="42.66187" lon="1.66398">
        <ele>2170.3134765625</ele>
        <time>2012-06-09T09:53:39Z</time>
      </trkpt>
      <trkpt lat="42.66187" lon="1.66398">
        <ele>2170.3134765625</ele>
        <time>2012-06-09T09:53:40Z</time>
      </trkpt>
      <trkpt lat="42.66184" lon="1.66392">
        <ele>2170.3134765625</ele>
        <time>2012-06-09T09:53:45Z</time>
      </trkpt>
      <trkpt lat="42.66179" lon="1.66386">
        <ele>2170.3134765625</ele>
        <time>2012-06-09T09:53:51Z</time>
      </trkpt>
      <trkpt lat="42.66179" lon="1.66385">
        <ele>2170.3134765625</ele>
        <time>2012-06-09T09:53:52Z</time>
      </trkpt>
      <trkpt lat="42.66175" lon="1.66384">
        <ele>2171.7553710938</ele>
        <time>2012-06-09T09:53:59Z</time>
      </trkpt>
      <trkpt lat="42.6617" lon="1.66387">
        <ele>2172.7170410156</ele>
        <time>2012-06-09T09:54:06Z</time>
      </trkpt>
      <trkpt lat="42.66165" lon="1.66387">
        <ele>2173.1977539062</ele>
        <time>2012-06-09T09:54:13Z</time>
      </trkpt>
      <trkpt lat="42.66161" lon="1.66386">
        <ele>2173.1977539062</ele>
        <time>2012-06-09T09:54:19Z</time>
      </trkpt>
      <trkpt lat="42.66156" lon="1.66387">
        <ele>2173.6782226562</ele>
        <time>2012-06-09T09:54:25Z</time>
      </trkpt>
      <trkpt lat="42.66149" lon="1.66388">
        <ele>2172.7170410156</ele>
        <time>2012-06-09T09:54:32Z</time>
      </trkpt>
      <trkpt lat="42.6614" lon="1.66388">
        <ele>2172.7170410156</ele>
        <time>2012-06-09T09:54:40Z</time>
      </trkpt>
      <trkpt lat="42.66134" lon="1.66384">
        <ele>2172.7170410156</ele>
        <time>2012-06-09T09:54:46Z</time>
      </trkpt>
      <trkpt lat="42.66125" lon="1.66382">
        <ele>2172.7170410156</ele>
        <time>2012-06-09T09:54:54Z</time>
      </trkpt>
      <trkpt lat="42.66121" lon="1.66381">
        <ele>2173.1977539062</ele>
        <time>2012-06-09T09:54:57Z</time>
      </trkpt>
      <trkpt lat="42.66114" lon="1.66381">
        <ele>2172.7170410156</ele>
        <time>2012-06-09T09:55:04Z</time>
      </trkpt>
      <trkpt lat="42.66107" lon="1.66382">
        <ele>2175.1201171875</ele>
        <time>2012-06-09T09:55:10Z</time>
      </trkpt>
      <trkpt lat="42.66102" lon="1.66381">
        <ele>2175.1201171875</ele>
        <time>2012-06-09T09:55:14Z</time>
      </trkpt>
      <trkpt lat="42.66092" lon="1.66382">
        <ele>2175.1201171875</ele>
        <time>2012-06-09T09:55:22Z</time>
      </trkpt>
      <trkpt lat="42.66084" lon="1.66379">
        <ele>2175.6008300781</ele>
        <time>2012-06-09T09:55:29Z</time>
      </trkpt>
      <trkpt lat="42.66077" lon="1.66379">
        <ele>2176.0815429688</ele>
        <time>2012-06-09T09:55:36Z</time>
      </trkpt>
      <trkpt lat="42.66072" lon="1.66379">
        <ele>2176.5622558594</ele>
        <time>2012-06-09T09:55:42Z</time>
      </trkpt>
      <trkpt lat="42.66066" lon="1.66379">
        <ele>2178.0041503906</ele>
        <time>2012-06-09T09:55:48Z</time>
      </trkpt>
      <trkpt lat="42.66062" lon="1.66379">
        <ele>2177.5234375</ele>
        <time>2012-06-09T09:55:53Z</time>
      </trkpt>
      <trkpt lat="42.66058" lon="1.6638">
        <ele>2178.9653320312</ele>
        <time>2012-06-09T09:55:59Z</time>
      </trkpt>
      <trkpt lat="42.66056" lon="1.66381">
        <ele>2180.8881835938</ele>
        <time>2012-06-09T09:56:05Z</time>
      </trkpt>
      <trkpt lat="42.66054" lon="1.66381">
        <ele>2181.8493652344</ele>
        <time>2012-06-09T09:56:10Z</time>
      </trkpt>
      <trkpt lat="42.6605" lon="1.66381">
        <ele>2183.2912597656</ele>
        <time>2012-06-09T09:56:16Z</time>
      </trkpt>
      <trkpt lat="42.66048" lon="1.66384">
        <ele>2183.7719726562</ele>
        <time>2012-06-09T09:56:21Z</time>
      </trkpt>
      <trkpt lat="42.66047" lon="1.66386">
        <ele>2183.2912597656</ele>
        <time>2012-06-09T09:56:25Z</time>
      </trkpt>
      <trkpt lat="42.66044" lon="1.66387">
        <ele>2183.7719726562</ele>
        <time>2012-06-09T09:56:30Z</time>
      </trkpt>
      <trkpt lat="42.6604" lon="1.66387">
        <ele>2184.2526855469</ele>
        <time>2012-06-09T09:56:37Z</time>
      </trkpt>
      <trkpt lat="42.66039" lon="1.66388">
        <ele>2184.7333984375</ele>
        <time>2012-06-09T09:56:42Z</time>
      </trkpt>
      <trkpt lat="42.66035" lon="1.66388">
        <ele>2185.2138671875</ele>
        <time>2012-06-09T09:56:48Z</time>
      </trkpt>
      <trkpt lat="42.66032" lon="1.66388">
        <ele>2185.6945800781</ele>
        <time>2012-06-09T09:56:55Z</time>
      </trkpt>
      <trkpt lat="42.66031" lon="1.6639">
        <ele>2187.1364746094</ele>
        <time>2012-06-09T09:57:02Z</time>
      </trkpt>
      <trkpt lat="42.66029" lon="1.66392">
        <ele>2186.6557617188</ele>
        <time>2012-06-09T09:57:06Z</time>
      </trkpt>
      <trkpt lat="42.66028" lon="1.66392">
        <ele>2187.6171875</ele>
        <time>2012-06-09T09:57:11Z</time>
      </trkpt>
      <trkpt lat="42.66027" lon="1.66394">
        <ele>2188.5788574219</ele>
        <time>2012-06-09T09:57:20Z</time>
      </trkpt>
      <trkpt lat="42.66025" lon="1.66397">
        <ele>2188.5788574219</ele>
        <time>2012-06-09T09:57:28Z</time>
      </trkpt>
      <trkpt lat="42.66025" lon="1.66401">
        <ele>2190.5012207031</ele>
        <time>2012-06-09T09:57:34Z</time>
      </trkpt>
      <trkpt lat="42.66024" lon="1.66403">
        <ele>2190.9819335938</ele>
        <time>2012-06-09T09:57:41Z</time>
      </trkpt>
      <trkpt lat="42.66023" lon="1.66406">
        <ele>2190.9819335938</ele>
        <time>2012-06-09T09:57:46Z</time>
      </trkpt>
      <trkpt lat="42.66022" lon="1.66409">
        <ele>2191.4626464844</ele>
        <time>2012-06-09T09:57:51Z</time>
      </trkpt>
      <trkpt lat="42.66019" lon="1.6641">
        <ele>2190.9819335938</ele>
        <time>2012-06-09T09:57:56Z</time>
      </trkpt>
      <trkpt lat="42.66016" lon="1.66411">
        <ele>2191.4626464844</ele>
        <time>2012-06-09T09:58:02Z</time>
      </trkpt>
      <trkpt lat="42.66014" lon="1.66413">
        <ele>2192.9045410156</ele>
        <time>2012-06-09T09:58:07Z</time>
      </trkpt>
      <trkpt lat="42.6601" lon="1.66416">
        <ele>2193.3852539062</ele>
        <time>2012-06-09T09:58:13Z</time>
      </trkpt>
      <trkpt lat="42.66007" lon="1.66419">
        <ele>2193.8659667969</ele>
        <time>2012-06-09T09:58:18Z</time>
      </trkpt>
      <trkpt lat="42.66005" lon="1.6642">
        <ele>2194.3464355469</ele>
        <time>2012-06-09T09:58:22Z</time>
      </trkpt>
      <trkpt lat="42.65999" lon="1.66423">
        <ele>2194.8271484375</ele>
        <time>2012-06-09T09:58:29Z</time>
      </trkpt>
      <trkpt lat="42.65994" lon="1.66423">
        <ele>2194.8271484375</ele>
        <time>2012-06-09T09:58:37Z</time>
      </trkpt>
      <trkpt lat="42.65988" lon="1.66422">
        <ele>2195.7885742188</ele>
        <time>2012-06-09T09:58:43Z</time>
      </trkpt>
      <trkpt lat="42.65982" lon="1.6642">
        <ele>2195.7885742188</ele>
        <time>2012-06-09T09:58:51Z</time>
      </trkpt>
      <trkpt lat="42.65979" lon="1.66419">
        <ele>2195.7885742188</ele>
        <time>2012-06-09T09:58:56Z</time>
      </trkpt>
      <trkpt lat="42.65973" lon="1.66418">
        <ele>2195.7885742188</ele>
        <time>2012-06-09T09:59:02Z</time>
      </trkpt>
      <trkpt lat="42.6597" lon="1.66415">
        <ele>2195.3078613281</ele>
        <time>2012-06-09T09:59:05Z</time>
      </trkpt>
      <trkpt lat="42.65966" lon="1.66414">
        <ele>2195.3078613281</ele>
        <time>2012-06-09T09:59:09Z</time>
      </trkpt>
      <trkpt lat="42.65956" lon="1.66415">
        <ele>2195.3078613281</ele>
        <time>2012-06-09T09:59:17Z</time>
      </trkpt>
      <trkpt lat="42.65949" lon="1.66412">
        <ele>2196.2692871094</ele>
        <time>2012-06-09T09:59:24Z</time>
      </trkpt>
      <trkpt lat="42.65948" lon="1.66413">
        <ele>2196.2692871094</ele>
        <time>2012-06-09T09:59:30Z</time>
      </trkpt>
      <trkpt lat="42.65947" lon="1.66412">
        <ele>2197.23046875</ele>
        <time>2012-06-09T09:59:43Z</time>
      </trkpt>
      <trkpt lat="42.65942" lon="1.6641">
        <ele>2198.1916503906</ele>
        <time>2012-06-09T09:59:51Z</time>
      </trkpt>
      <trkpt lat="42.65938" lon="1.6641">
        <ele>2200.1145019531</ele>
        <time>2012-06-09T09:59:57Z</time>
      </trkpt>
      <trkpt lat="42.65936" lon="1.6641">
        <ele>2199.6337890625</ele>
        <time>2012-06-09T10:00:01Z</time>
      </trkpt>
      <trkpt lat="42.65931" lon="1.66408">
        <ele>2199.1530761719</ele>
        <time>2012-06-09T10:00:06Z</time>
      </trkpt>
      <trkpt lat="42.65928" lon="1.66407">
        <ele>2199.1530761719</ele>
        <time>2012-06-09T10:00:10Z</time>
      </trkpt>
      <trkpt lat="42.65923" lon="1.66405">
        <ele>2198.6723632812</ele>
        <time>2012-06-09T10:00:16Z</time>
      </trkpt>
      <trkpt lat="42.65919" lon="1.66402">
        <ele>2197.7111816406</ele>
        <time>2012-06-09T10:00:22Z</time>
      </trkpt>
      <trkpt lat="42.65913" lon="1.66397">
        <ele>2197.23046875</ele>
        <time>2012-06-09T10:00:28Z</time>
      </trkpt>
      <trkpt lat="42.65906" lon="1.66395">
        <ele>2196.7497558594</ele>
        <time>2012-06-09T10:00:35Z</time>
      </trkpt>
      <trkpt lat="42.659" lon="1.66397">
        <ele>2197.23046875</ele>
        <time>2012-06-09T10:00:42Z</time>
      </trkpt>
      <trkpt lat="42.65896" lon="1.66401">
        <ele>2198.6723632812</ele>
        <time>2012-06-09T10:00:48Z</time>
      </trkpt>
      <trkpt lat="42.65891" lon="1.66406">
        <ele>2199.6337890625</ele>
        <time>2012-06-09T10:00:55Z</time>
      </trkpt>
      <trkpt lat="42.65886" lon="1.66409">
        <ele>2199.6337890625</ele>
        <time>2012-06-09T10:01:01Z</time>
      </trkpt>
      <trkpt lat="42.65881" lon="1.66412">
        <ele>2200.1145019531</ele>
        <time>2012-06-09T10:01:07Z</time>
      </trkpt>
      <trkpt lat="42.65874" lon="1.66417">
        <ele>2201.0756835938</ele>
        <time>2012-06-09T10:01:15Z</time>
      </trkpt>
      <trkpt lat="42.65873" lon="1.66418">
        <ele>2202.0368652344</ele>
        <time>2012-06-09T10:01:24Z</time>
      </trkpt>
      <trkpt lat="42.6587" lon="1.66423">
        <ele>2201.0756835938</ele>
        <time>2012-06-09T10:02:02Z</time>
      </trkpt>
      <trkpt lat="42.65862" lon="1.66426">
        <ele>2200.5949707031</ele>
        <time>2012-06-09T10:02:09Z</time>
      </trkpt>
      <trkpt lat="42.65855" lon="1.66429">
        <ele>2199.6337890625</ele>
        <time>2012-06-09T10:02:16Z</time>
      </trkpt>
      <trkpt lat="42.65847" lon="1.6643">
        <ele>2198.6723632812</ele>
        <time>2012-06-09T10:02:24Z</time>
      </trkpt>
      <trkpt lat="42.6584" lon="1.66433">
        <ele>2198.6723632812</ele>
        <time>2012-06-09T10:02:31Z</time>
      </trkpt>
      <trkpt lat="42.65836" lon="1.66433">
        <ele>2198.6723632812</ele>
        <time>2012-06-09T10:02:38Z</time>
      </trkpt>
      <trkpt lat="42.65833" lon="1.66429">
        <ele>2198.6723632812</ele>
        <time>2012-06-09T10:02:42Z</time>
      </trkpt>
      <trkpt lat="42.65828" lon="1.66425">
        <ele>2200.1145019531</ele>
        <time>2012-06-09T10:02:49Z</time>
      </trkpt>
      <trkpt lat="42.65822" lon="1.66422">
        <ele>2201.0756835938</ele>
        <time>2012-06-09T10:02:56Z</time>
      </trkpt>
      <trkpt lat="42.65817" lon="1.66422">
        <ele>2202.517578125</ele>
        <time>2012-06-09T10:03:02Z</time>
      </trkpt>
      <trkpt lat="42.65813" lon="1.66422">
        <ele>2203.9597167969</ele>
        <time>2012-06-09T10:03:09Z</time>
      </trkpt>
      <trkpt lat="42.6581" lon="1.66424">
        <ele>2204.4404296875</ele>
        <time>2012-06-09T10:03:13Z</time>
      </trkpt>
      <trkpt lat="42.65807" lon="1.66425">
        <ele>2204.9211425781</ele>
        <time>2012-06-09T10:03:17Z</time>
      </trkpt>
      <trkpt lat="42.65805" lon="1.66425">
        <ele>2205.4018554688</ele>
        <time>2012-06-09T10:03:21Z</time>
      </trkpt>
      <trkpt lat="42.65804" lon="1.66425">
        <ele>2205.8823242188</ele>
        <time>2012-06-09T10:03:26Z</time>
      </trkpt>
      <trkpt lat="42.65802" lon="1.66425">
        <ele>2206.84375</ele>
        <time>2012-06-09T10:03:32Z</time>
      </trkpt>
      <trkpt lat="42.65799" lon="1.66425">
        <ele>2206.84375</ele>
        <time>2012-06-09T10:03:37Z</time>
      </trkpt>
      <trkpt lat="42.65795" lon="1.66425">
        <ele>2208.7663574219</ele>
        <time>2012-06-09T10:03:43Z</time>
      </trkpt>
      <trkpt lat="42.65792" lon="1.66425">
        <ele>2210.6889648438</ele>
        <time>2012-06-09T10:03:49Z</time>
      </trkpt>
      <trkpt lat="42.65789" lon="1.66426">
        <ele>2212.130859375</ele>
        <time>2012-06-09T10:03:54Z</time>
      </trkpt>
      <trkpt lat="42.65786" lon="1.66427">
        <ele>2214.5341796875</ele>
        <time>2012-06-09T10:04:00Z</time>
      </trkpt>
      <trkpt lat="42.65784" lon="1.66428">
        <ele>2215.9760742188</ele>
        <time>2012-06-09T10:04:06Z</time>
      </trkpt>
      <trkpt lat="42.65782" lon="1.66429">
        <ele>2216.9375</ele>
        <time>2012-06-09T10:04:11Z</time>
      </trkpt>
      <trkpt lat="42.65779" lon="1.66433">
        <ele>2217.41796875</ele>
        <time>2012-06-09T10:04:16Z</time>
      </trkpt>
      <trkpt lat="42.65778" lon="1.66433">
        <ele>2216.4567871094</ele>
        <time>2012-06-09T10:04:20Z</time>
      </trkpt>
      <trkpt lat="42.65776" lon="1.66436">
        <ele>2217.41796875</ele>
        <time>2012-06-09T10:04:25Z</time>
      </trkpt>
      <trkpt lat="42.65771" lon="1.66438">
        <ele>2218.8601074219</ele>
        <time>2012-06-09T10:04:31Z</time>
      </trkpt>
      <trkpt lat="42.65766" lon="1.66436">
        <ele>2219.8212890625</ele>
        <time>2012-06-09T10:04:37Z</time>
      </trkpt>
      <trkpt lat="42.65761" lon="1.66435">
        <ele>2221.2634277344</ele>
        <time>2012-06-09T10:04:44Z</time>
      </trkpt>
      <trkpt lat="42.65757" lon="1.66435">
        <ele>2222.2248535156</ele>
        <time>2012-06-09T10:04:50Z</time>
      </trkpt>
      <trkpt lat="42.65751" lon="1.66436">
        <ele>2223.1862792969</ele>
        <time>2012-06-09T10:04:56Z</time>
      </trkpt>
      <trkpt lat="42.65749" lon="1.66435">
        <ele>2222.7055664062</ele>
        <time>2012-06-09T10:05:00Z</time>
      </trkpt>
      <trkpt lat="42.65744" lon="1.66432">
        <ele>2223.1862792969</ele>
        <time>2012-06-09T10:05:06Z</time>
      </trkpt>
      <trkpt lat="42.65741" lon="1.66428">
        <ele>2223.6667480469</ele>
        <time>2012-06-09T10:05:12Z</time>
      </trkpt>
      <trkpt lat="42.65741" lon="1.66422">
        <ele>2225.1086425781</ele>
        <time>2012-06-09T10:05:18Z</time>
      </trkpt>
      <trkpt lat="42.65742" lon="1.66419">
        <ele>2226.0700683594</ele>
        <time>2012-06-09T10:05:23Z</time>
      </trkpt>
      <trkpt lat="42.65744" lon="1.66415">
        <ele>2227.9926757812</ele>
        <time>2012-06-09T10:05:28Z</time>
      </trkpt>
      <trkpt lat="42.65745" lon="1.66411">
        <ele>2230.3959960938</ele>
        <time>2012-06-09T10:05:33Z</time>
      </trkpt>
      <trkpt lat="42.65747" lon="1.66406">
        <ele>2231.837890625</ele>
        <time>2012-06-09T10:05:38Z</time>
      </trkpt>
      <trkpt lat="42.65749" lon="1.66398">
        <ele>2232.7990722656</ele>
        <time>2012-06-09T10:05:46Z</time>
      </trkpt>
      <trkpt lat="42.65751" lon="1.6639">
        <ele>2232.7990722656</ele>
        <time>2012-06-09T10:05:54Z</time>
      </trkpt>
      <trkpt lat="42.65751" lon="1.66386">
        <ele>2232.7990722656</ele>
        <time>2012-06-09T10:05:59Z</time>
      </trkpt>
      <trkpt lat="42.65749" lon="1.66384">
        <ele>2233.7604980469</ele>
        <time>2012-06-09T10:06:03Z</time>
      </trkpt>
      <trkpt lat="42.65744" lon="1.66384">
        <ele>2234.2412109375</ele>
        <time>2012-06-09T10:06:10Z</time>
      </trkpt>
      <trkpt lat="42.6574" lon="1.66386">
        <ele>2235.6831054688</ele>
        <time>2012-06-09T10:06:18Z</time>
      </trkpt>
      <trkpt lat="42.65736" lon="1.66387">
        <ele>2237.6059570312</ele>
        <time>2012-06-09T10:06:25Z</time>
      </trkpt>
      <trkpt lat="42.65734" lon="1.66387">
        <ele>2238.0866699219</ele>
        <time>2012-06-09T10:06:29Z</time>
      </trkpt>
      <trkpt lat="42.65731" lon="1.66385">
        <ele>2239.5285644531</ele>
        <time>2012-06-09T10:06:35Z</time>
      </trkpt>
      <trkpt lat="42.65727" lon="1.66383">
        <ele>2241.9318847656</ele>
        <time>2012-06-09T10:06:41Z</time>
      </trkpt>
      <trkpt lat="42.65722" lon="1.66383">
        <ele>2243.3737792969</ele>
        <time>2012-06-09T10:06:47Z</time>
      </trkpt>
      <trkpt lat="42.6572" lon="1.66382">
        <ele>2245.2963867188</ele>
        <time>2012-06-09T10:06:55Z</time>
      </trkpt>
      <trkpt lat="42.6572" lon="1.66378">
        <ele>2246.73828125</ele>
        <time>2012-06-09T10:07:05Z</time>
      </trkpt>
      <trkpt lat="42.65718" lon="1.66374">
        <ele>2247.2189941406</ele>
        <time>2012-06-09T10:07:11Z</time>
      </trkpt>
      <trkpt lat="42.65717" lon="1.66371">
        <ele>2248.6608886719</ele>
        <time>2012-06-09T10:07:15Z</time>
      </trkpt>
      <trkpt lat="42.65715" lon="1.6637">
        <ele>2249.6223144531</ele>
        <time>2012-06-09T10:07:22Z</time>
      </trkpt>
      <trkpt lat="42.65714" lon="1.66367">
        <ele>2249.1416015625</ele>
        <time>2012-06-09T10:07:27Z</time>
      </trkpt>
      <trkpt lat="42.65711" lon="1.66363">
        <ele>2249.6223144531</ele>
        <time>2012-06-09T10:07:33Z</time>
      </trkpt>
      <trkpt lat="42.65709" lon="1.66361">
        <ele>2247.6997070312</ele>
        <time>2012-06-09T10:07:40Z</time>
      </trkpt>
      <trkpt lat="42.65708" lon="1.66362">
        <ele>2248.1801757812</ele>
        <time>2012-06-09T10:07:50Z</time>
      </trkpt>
      <trkpt lat="42.65704" lon="1.66365">
        <ele>2248.1801757812</ele>
        <time>2012-06-09T10:07:56Z</time>
      </trkpt>
      <trkpt lat="42.65701" lon="1.66369">
        <ele>2248.1801757812</ele>
        <time>2012-06-09T10:08:02Z</time>
      </trkpt>
      <trkpt lat="42.65696" lon="1.66372">
        <ele>2248.1801757812</ele>
        <time>2012-06-09T10:08:09Z</time>
      </trkpt>
      <trkpt lat="42.65692" lon="1.66374">
        <ele>2249.6223144531</ele>
        <time>2012-06-09T10:08:15Z</time>
      </trkpt>
      <trkpt lat="42.65686" lon="1.66374">
        <ele>2251.544921875</ele>
        <time>2012-06-09T10:08:22Z</time>
      </trkpt>
      <trkpt lat="42.65682" lon="1.66374">
        <ele>2252.5063476562</ele>
        <time>2012-06-09T10:08:28Z</time>
      </trkpt>
      <trkpt lat="42.6568" lon="1.66376">
        <ele>2252.9870605469</ele>
        <time>2012-06-09T10:08:33Z</time>
      </trkpt>
      <trkpt lat="42.65676" lon="1.66377">
        <ele>2253.9484863281</ele>
        <time>2012-06-09T10:08:38Z</time>
      </trkpt>
      <trkpt lat="42.65675" lon="1.66375">
        <ele>2253.4677734375</ele>
        <time>2012-06-09T10:08:42Z</time>
      </trkpt>
      <trkpt lat="42.65673" lon="1.66371">
        <ele>2253.4677734375</ele>
        <time>2012-06-09T10:08:48Z</time>
      </trkpt>
      <trkpt lat="42.65672" lon="1.66368">
        <ele>2255.3903808594</ele>
        <time>2012-06-09T10:08:55Z</time>
      </trkpt>
      <trkpt lat="42.6567" lon="1.66363">
        <ele>2255.8708496094</ele>
        <time>2012-06-09T10:09:02Z</time>
      </trkpt>
      <trkpt lat="42.65669" lon="1.66358">
        <ele>2254.4289550781</ele>
        <time>2012-06-09T10:09:09Z</time>
      </trkpt>
      <trkpt lat="42.65667" lon="1.66355">
        <ele>2254.9096679688</ele>
        <time>2012-06-09T10:09:15Z</time>
      </trkpt>
      <trkpt lat="42.65665" lon="1.66355">
        <ele>2255.8708496094</ele>
        <time>2012-06-09T10:09:21Z</time>
      </trkpt>
      <trkpt lat="42.6566" lon="1.66355">
        <ele>2256.3515625</ele>
        <time>2012-06-09T10:09:27Z</time>
      </trkpt>
      <trkpt lat="42.65656" lon="1.66354">
        <ele>2257.3129882812</ele>
        <time>2012-06-09T10:09:34Z</time>
      </trkpt>
      <trkpt lat="42.65651" lon="1.66353">
        <ele>2258.7548828125</ele>
        <time>2012-06-09T10:09:41Z</time>
      </trkpt>
      <trkpt lat="42.65646" lon="1.6635">
        <ele>2259.7160644531</ele>
        <time>2012-06-09T10:09:47Z</time>
      </trkpt>
      <trkpt lat="42.65641" lon="1.66345">
        <ele>2259.7160644531</ele>
        <time>2012-06-09T10:09:54Z</time>
      </trkpt>
      <trkpt lat="42.65641" lon="1.66341">
        <ele>2259.7160644531</ele>
        <time>2012-06-09T10:09:58Z</time>
      </trkpt>
      <trkpt lat="42.6564" lon="1.66338">
        <ele>2260.1967773438</ele>
        <time>2012-06-09T10:10:02Z</time>
      </trkpt>
      <trkpt lat="42.65637" lon="1.66334">
        <ele>2262.6000976562</ele>
        <time>2012-06-09T10:10:08Z</time>
      </trkpt>
      <trkpt lat="42.65633" lon="1.66328">
        <ele>2265.9645996094</ele>
        <time>2012-06-09T10:10:14Z</time>
      </trkpt>
      <trkpt lat="42.65629" lon="1.66328">
        <ele>2268.3681640625</ele>
        <time>2012-06-09T10:10:21Z</time>
      </trkpt>
      <trkpt lat="42.65625" lon="1.66332">
        <ele>2267.4064941406</ele>
        <time>2012-06-09T10:10:27Z</time>
      </trkpt>
      <trkpt lat="42.65621" lon="1.66334">
        <ele>2266.9260253906</ele>
        <time>2012-06-09T10:10:33Z</time>
      </trkpt>
      <trkpt lat="42.65618" lon="1.6634">
        <ele>2265.4841308594</ele>
        <time>2012-06-09T10:10:39Z</time>
      </trkpt>
      <trkpt lat="42.6562" lon="1.66347">
        <ele>2265.0034179688</ele>
        <time>2012-06-09T10:10:46Z</time>
      </trkpt>
      <trkpt lat="42.65619" lon="1.66351">
        <ele>2265.9645996094</ele>
        <time>2012-06-09T10:10:53Z</time>
      </trkpt>
      <trkpt lat="42.65615" lon="1.66354">
        <ele>2265.0034179688</ele>
        <time>2012-06-09T10:10:59Z</time>
      </trkpt>
      <trkpt lat="42.65611" lon="1.66358">
        <ele>2264.0419921875</ele>
        <time>2012-06-09T10:11:05Z</time>
      </trkpt>
      <trkpt lat="42.65608" lon="1.66359">
        <ele>2263.0808105469</ele>
        <time>2012-06-09T10:11:10Z</time>
      </trkpt>
      <trkpt lat="42.65606" lon="1.6636">
        <ele>2262.6000976562</ele>
        <time>2012-06-09T10:11:14Z</time>
      </trkpt>
      <trkpt lat="42.656" lon="1.66362">
        <ele>2262.1193847656</ele>
        <time>2012-06-09T10:11:20Z</time>
      </trkpt>
      <trkpt lat="42.65597" lon="1.66366">
        <ele>2262.6000976562</ele>
        <time>2012-06-09T10:11:24Z</time>
      </trkpt>
      <trkpt lat="42.65586" lon="1.66371">
        <ele>2263.5612792969</ele>
        <time>2012-06-09T10:11:34Z</time>
      </trkpt>
      <trkpt lat="42.6558" lon="1.66376">
        <ele>2264.5227050781</ele>
        <time>2012-06-09T10:11:41Z</time>
      </trkpt>
      <trkpt lat="42.65572" lon="1.66376">
        <ele>2264.5227050781</ele>
        <time>2012-06-09T10:11:49Z</time>
      </trkpt>
      <trkpt lat="42.65568" lon="1.66376">
        <ele>2265.4841308594</ele>
        <time>2012-06-09T10:11:55Z</time>
      </trkpt>
      <trkpt lat="42.65564" lon="1.66376">
        <ele>2267.4064941406</ele>
        <time>2012-06-09T10:12:01Z</time>
      </trkpt>
      <trkpt lat="42.65559" lon="1.66375">
        <ele>2268.3681640625</ele>
        <time>2012-06-09T10:12:07Z</time>
      </trkpt>
      <trkpt lat="42.65555" lon="1.66371">
        <ele>2267.4064941406</ele>
        <time>2012-06-09T10:12:14Z</time>
      </trkpt>
      <trkpt lat="42.65552" lon="1.66371">
        <ele>2267.4064941406</ele>
        <time>2012-06-09T10:12:19Z</time>
      </trkpt>
      <trkpt lat="42.65549" lon="1.6637">
        <ele>2267.4064941406</ele>
        <time>2012-06-09T10:12:23Z</time>
      </trkpt>
      <trkpt lat="42.65547" lon="1.66369">
        <ele>2266.9260253906</ele>
        <time>2012-06-09T10:12:29Z</time>
      </trkpt>
      <trkpt lat="42.65546" lon="1.66367">
        <ele>2266.4453125</ele>
        <time>2012-06-09T10:12:35Z</time>
      </trkpt>
      <trkpt lat="42.65545" lon="1.6637">
        <ele>2265.4841308594</ele>
        <time>2012-06-09T10:12:47Z</time>
      </trkpt>
      <trkpt lat="42.65543" lon="1.66371">
        <ele>2265.4841308594</ele>
        <time>2012-06-09T10:12:53Z</time>
      </trkpt>
      <trkpt lat="42.6554" lon="1.6637">
        <ele>2265.0034179688</ele>
        <time>2012-06-09T10:12:58Z</time>
      </trkpt>
      <trkpt lat="42.65538" lon="1.66371">
        <ele>2265.4841308594</ele>
        <time>2012-06-09T10:13:03Z</time>
      </trkpt>
      <trkpt lat="42.65534" lon="1.66371">
        <ele>2266.4453125</ele>
        <time>2012-06-09T10:13:09Z</time>
      </trkpt>
      <trkpt lat="42.65531" lon="1.66372">
        <ele>2267.4064941406</ele>
        <time>2012-06-09T10:13:14Z</time>
      </trkpt>
      <trkpt lat="42.65531" lon="1.66373">
        <ele>2267.4064941406</ele>
        <time>2012-06-09T10:13:18Z</time>
      </trkpt>
      <trkpt lat="42.65531" lon="1.66375">
        <ele>2268.3681640625</ele>
        <time>2012-06-09T10:13:23Z</time>
      </trkpt>
      <trkpt lat="42.65529" lon="1.66379">
        <ele>2268.8488769531</ele>
        <time>2012-06-09T10:13:29Z</time>
      </trkpt>
      <trkpt lat="42.65527" lon="1.6638">
        <ele>2269.3295898438</ele>
        <time>2012-06-09T10:13:34Z</time>
      </trkpt>
      <trkpt lat="42.65525" lon="1.66378">
        <ele>2270.2907714844</ele>
        <time>2012-06-09T10:13:40Z</time>
      </trkpt>
      <trkpt lat="42.65522" lon="1.66379">
        <ele>2271.251953125</ele>
        <time>2012-06-09T10:13:45Z</time>
      </trkpt>
      <trkpt lat="42.65517" lon="1.6638">
        <ele>2271.251953125</ele>
        <time>2012-06-09T10:13:50Z</time>
      </trkpt>
      <trkpt lat="42.65514" lon="1.6638">
        <ele>2272.2133789062</ele>
        <time>2012-06-09T10:13:56Z</time>
      </trkpt>
      <trkpt lat="42.6551" lon="1.66381">
        <ele>2272.2133789062</ele>
        <time>2012-06-09T10:14:01Z</time>
      </trkpt>
      <trkpt lat="42.65503" lon="1.6638">
        <ele>2272.6940917969</ele>
        <time>2012-06-09T10:14:08Z</time>
      </trkpt>
      <trkpt lat="42.65498" lon="1.66382">
        <ele>2272.6940917969</ele>
        <time>2012-06-09T10:14:14Z</time>
      </trkpt>
      <trkpt lat="42.65494" lon="1.66381">
        <ele>2271.7326660156</ele>
        <time>2012-06-09T10:14:21Z</time>
      </trkpt>
      <trkpt lat="42.65491" lon="1.66377">
        <ele>2269.8100585938</ele>
        <time>2012-06-09T10:14:27Z</time>
      </trkpt>
      <trkpt lat="42.65487" lon="1.66373">
        <ele>2269.8100585938</ele>
        <time>2012-06-09T10:14:32Z</time>
      </trkpt>
      <trkpt lat="42.6548" lon="1.6637">
        <ele>2272.2133789062</ele>
        <time>2012-06-09T10:14:41Z</time>
      </trkpt>
      <trkpt lat="42.65475" lon="1.66373">
        <ele>2274.1359863281</ele>
        <time>2012-06-09T10:14:48Z</time>
      </trkpt>
      <trkpt lat="42.65471" lon="1.66374">
        <ele>2275.0971679688</ele>
        <time>2012-06-09T10:14:53Z</time>
      </trkpt>
      <trkpt lat="42.65463" lon="1.66374">
        <ele>2276.05859375</ele>
        <time>2012-06-09T10:15:00Z</time>
      </trkpt>
      <trkpt lat="42.65462" lon="1.66373">
        <ele>2276.05859375</ele>
        <time>2012-06-09T10:15:01Z</time>
      </trkpt>
      <trkpt lat="42.65454" lon="1.66372">
        <ele>2277.0200195312</ele>
        <time>2012-06-09T10:15:09Z</time>
      </trkpt>
      <trkpt lat="42.65448" lon="1.66372">
        <ele>2277.9812011719</ele>
        <time>2012-06-09T10:15:15Z</time>
      </trkpt>
      <trkpt lat="42.65443" lon="1.6637">
        <ele>2279.4230957031</ele>
        <time>2012-06-09T10:15:22Z</time>
      </trkpt>
      <trkpt lat="42.6544" lon="1.66373">
        <ele>2280.3845214844</ele>
        <time>2012-06-09T10:15:27Z</time>
      </trkpt>
      <trkpt lat="42.65434" lon="1.66371">
        <ele>2280.865234375</ele>
        <time>2012-06-09T10:15:33Z</time>
      </trkpt>
      <trkpt lat="42.65429" lon="1.66369">
        <ele>2280.865234375</ele>
        <time>2012-06-09T10:15:39Z</time>
      </trkpt>
      <trkpt lat="42.65423" lon="1.66369">
        <ele>2280.3845214844</ele>
        <time>2012-06-09T10:15:45Z</time>
      </trkpt>
      <trkpt lat="42.65418" lon="1.6637">
        <ele>2279.9038085938</ele>
        <time>2012-06-09T10:15:52Z</time>
      </trkpt>
      <trkpt lat="42.65414" lon="1.66367">
        <ele>2280.3845214844</ele>
        <time>2012-06-09T10:15:58Z</time>
      </trkpt>
      <trkpt lat="42.65411" lon="1.66366">
        <ele>2280.3845214844</ele>
        <time>2012-06-09T10:16:03Z</time>
      </trkpt>
      <trkpt lat="42.65408" lon="1.66368">
        <ele>2280.3845214844</ele>
        <time>2012-06-09T10:16:07Z</time>
      </trkpt>
      <trkpt lat="42.65406" lon="1.66373">
        <ele>2281.8264160156</ele>
        <time>2012-06-09T10:16:13Z</time>
      </trkpt>
      <trkpt lat="42.65401" lon="1.66375">
        <ele>2282.3071289062</ele>
        <time>2012-06-09T10:16:20Z</time>
      </trkpt>
      <trkpt lat="42.65396" lon="1.66375">
        <ele>2283.2683105469</ele>
        <time>2012-06-09T10:16:26Z</time>
      </trkpt>
      <trkpt lat="42.6539" lon="1.66372">
        <ele>2282.7875976562</ele>
        <time>2012-06-09T10:16:34Z</time>
      </trkpt>
      <trkpt lat="42.65385" lon="1.66368">
        <ele>2282.7875976562</ele>
        <time>2012-06-09T10:16:41Z</time>
      </trkpt>
      <trkpt lat="42.65381" lon="1.66362">
        <ele>2282.7875976562</ele>
        <time>2012-06-09T10:16:48Z</time>
      </trkpt>
      <trkpt lat="42.65377" lon="1.66358">
        <ele>2283.2683105469</ele>
        <time>2012-06-09T10:16:53Z</time>
      </trkpt>
      <trkpt lat="42.65374" lon="1.66357">
        <ele>2284.2299804688</ele>
        <time>2012-06-09T10:16:59Z</time>
      </trkpt>
      <trkpt lat="42.6537" lon="1.66357">
        <ele>2285.671875</ele>
        <time>2012-06-09T10:17:04Z</time>
      </trkpt>
      <trkpt lat="42.65365" lon="1.66353">
        <ele>2286.1525878906</ele>
        <time>2012-06-09T10:17:10Z</time>
      </trkpt>
      <trkpt lat="42.65361" lon="1.6635">
        <ele>2286.6330566406</ele>
        <time>2012-06-09T10:17:15Z</time>
      </trkpt>
      <trkpt lat="42.65357" lon="1.66344">
        <ele>2288.0751953125</ele>
        <time>2012-06-09T10:17:22Z</time>
      </trkpt>
      <trkpt lat="42.65352" lon="1.6634">
        <ele>2288.0751953125</ele>
        <time>2012-06-09T10:17:29Z</time>
      </trkpt>
      <trkpt lat="42.65348" lon="1.66337">
        <ele>2288.5559082031</ele>
        <time>2012-06-09T10:17:35Z</time>
      </trkpt>
      <trkpt lat="42.65344" lon="1.66333">
        <ele>2289.5170898438</ele>
        <time>2012-06-09T10:17:41Z</time>
      </trkpt>
      <trkpt lat="42.65339" lon="1.6633">
        <ele>2290.4782714844</ele>
        <time>2012-06-09T10:17:47Z</time>
      </trkpt>
      <trkpt lat="42.65335" lon="1.66331">
        <ele>2291.4396972656</ele>
        <time>2012-06-09T10:17:53Z</time>
      </trkpt>
      <trkpt lat="42.65329" lon="1.6633">
        <ele>2290.958984375</ele>
        <time>2012-06-09T10:17:59Z</time>
      </trkpt>
      <trkpt lat="42.65324" lon="1.66327">
        <ele>2290.958984375</ele>
        <time>2012-06-09T10:18:06Z</time>
      </trkpt>
      <trkpt lat="42.65322" lon="1.66327">
        <ele>2290.4782714844</ele>
        <time>2012-06-09T10:18:12Z</time>
      </trkpt>
      <trkpt lat="42.65321" lon="1.66331">
        <ele>2288.5559082031</ele>
        <time>2012-06-09T10:18:20Z</time>
      </trkpt>
      <trkpt lat="42.65319" lon="1.66333">
        <ele>2288.0751953125</ele>
        <time>2012-06-09T10:18:26Z</time>
      </trkpt>
      <trkpt lat="42.65318" lon="1.66338">
        <ele>2288.5559082031</ele>
        <time>2012-06-09T10:18:32Z</time>
      </trkpt>
      <trkpt lat="42.65316" lon="1.66342">
        <ele>2289.0363769531</ele>
        <time>2012-06-09T10:18:37Z</time>
      </trkpt>
      <trkpt lat="42.65315" lon="1.66347">
        <ele>2289.9978027344</ele>
        <time>2012-06-09T10:18:43Z</time>
      </trkpt>
      <trkpt lat="42.65311" lon="1.66349">
        <ele>2290.4782714844</ele>
        <time>2012-06-09T10:18:50Z</time>
      </trkpt>
      <trkpt lat="42.65309" lon="1.66349">
        <ele>2289.0363769531</ele>
        <time>2012-06-09T10:18:56Z</time>
      </trkpt>
      <trkpt lat="42.65306" lon="1.66349">
        <ele>2289.5170898438</ele>
        <time>2012-06-09T10:19:08Z</time>
      </trkpt>
      <trkpt lat="42.65304" lon="1.66346">
        <ele>2284.7106933594</ele>
        <time>2012-06-09T10:19:31Z</time>
      </trkpt>
      <trkpt lat="42.653" lon="1.66349">
        <ele>2284.2299804688</ele>
        <time>2012-06-09T10:19:36Z</time>
      </trkpt>
      <trkpt lat="42.65296" lon="1.66352">
        <ele>2285.671875</ele>
        <time>2012-06-09T10:19:42Z</time>
      </trkpt>
      <trkpt lat="42.65291" lon="1.66353">
        <ele>2288.0751953125</ele>
        <time>2012-06-09T10:19:48Z</time>
      </trkpt>
      <trkpt lat="42.65288" lon="1.66357">
        <ele>2289.5170898438</ele>
        <time>2012-06-09T10:19:54Z</time>
      </trkpt>
      <trkpt lat="42.65287" lon="1.66362">
        <ele>2290.958984375</ele>
        <time>2012-06-09T10:19:59Z</time>
      </trkpt>
      <trkpt lat="42.65285" lon="1.66365">
        <ele>2292.4011230469</ele>
        <time>2012-06-09T10:20:04Z</time>
      </trkpt>
      <trkpt lat="42.65285" lon="1.66367">
        <ele>2293.3623046875</ele>
        <time>2012-06-09T10:20:08Z</time>
      </trkpt>
      <trkpt lat="42.65282" lon="1.66368">
        <ele>2294.3234863281</ele>
        <time>2012-06-09T10:20:15Z</time>
      </trkpt>
      <trkpt lat="42.6528" lon="1.66369">
        <ele>2295.2849121094</ele>
        <time>2012-06-09T10:20:23Z</time>
      </trkpt>
      <trkpt lat="42.65277" lon="1.6637">
        <ele>2296.2463378906</ele>
        <time>2012-06-09T10:20:28Z</time>
      </trkpt>
      <trkpt lat="42.65275" lon="1.66371">
        <ele>2297.2075195312</ele>
        <time>2012-06-09T10:20:32Z</time>
      </trkpt>
      <trkpt lat="42.65273" lon="1.66372">
        <ele>2298.1687011719</ele>
        <time>2012-06-09T10:20:37Z</time>
      </trkpt>
      <trkpt lat="42.65273" lon="1.66372">
        <ele>2296.7268066406</ele>
        <time>2012-06-09T10:20:45Z</time>
      </trkpt>
      <trkpt lat="42.65271" lon="1.66371">
        <ele>2297.2075195312</ele>
        <time>2012-06-09T10:20:52Z</time>
      </trkpt>
      <trkpt lat="42.65268" lon="1.66367">
        <ele>2298.1687011719</ele>
        <time>2012-06-09T10:20:58Z</time>
      </trkpt>
      <trkpt lat="42.65265" lon="1.66367">
        <ele>2299.1301269531</ele>
        <time>2012-06-09T10:21:05Z</time>
      </trkpt>
      <trkpt lat="42.65262" lon="1.66369">
        <ele>2300.091796875</ele>
        <time>2012-06-09T10:21:10Z</time>
      </trkpt>
      <trkpt lat="42.65259" lon="1.66369">
        <ele>2301.0529785156</ele>
        <time>2012-06-09T10:21:14Z</time>
      </trkpt>
      <trkpt lat="42.65256" lon="1.66366">
        <ele>2301.5336914062</ele>
        <time>2012-06-09T10:21:21Z</time>
      </trkpt>
      <trkpt lat="42.65254" lon="1.66364">
        <ele>2302.0141601562</ele>
        <time>2012-06-09T10:21:26Z</time>
      </trkpt>
      <trkpt lat="42.65254" lon="1.6636">
        <ele>2302.4948730469</ele>
        <time>2012-06-09T10:21:31Z</time>
      </trkpt>
      <trkpt lat="42.65254" lon="1.66355">
        <ele>2303.9370117188</ele>
        <time>2012-06-09T10:21:36Z</time>
      </trkpt>
      <trkpt lat="42.65253" lon="1.66352">
        <ele>2303.9370117188</ele>
        <time>2012-06-09T10:21:40Z</time>
      </trkpt>
      <trkpt lat="42.65252" lon="1.66347">
        <ele>2304.8981933594</ele>
        <time>2012-06-09T10:21:47Z</time>
      </trkpt>
      <trkpt lat="42.65252" lon="1.66347">
        <ele>2304.4174804688</ele>
        <time>2012-06-09T10:21:54Z</time>
      </trkpt>
      <trkpt lat="42.65248" lon="1.66344">
        <ele>2304.4174804688</ele>
        <time>2012-06-09T10:22:01Z</time>
      </trkpt>
      <trkpt lat="42.65245" lon="1.66341">
        <ele>2304.8981933594</ele>
        <time>2012-06-09T10:22:08Z</time>
      </trkpt>
      <trkpt lat="42.65242" lon="1.6634">
        <ele>2306.3400878906</ele>
        <time>2012-06-09T10:22:13Z</time>
      </trkpt>
      <trkpt lat="42.65239" lon="1.66337">
        <ele>2306.8208007812</ele>
        <time>2012-06-09T10:22:18Z</time>
      </trkpt>
      <trkpt lat="42.65237" lon="1.66336">
        <ele>2308.2626953125</ele>
        <time>2012-06-09T10:22:26Z</time>
      </trkpt>
      <trkpt lat="42.65234" lon="1.66335">
        <ele>2309.7045898438</ele>
        <time>2012-06-09T10:22:34Z</time>
      </trkpt>
      <trkpt lat="42.65234" lon="1.66335">
        <ele>2310.666015625</ele>
        <time>2012-06-09T10:22:48Z</time>
      </trkpt>
      <trkpt lat="42.65231" lon="1.66334">
        <ele>2310.1853027344</ele>
        <time>2012-06-09T10:22:54Z</time>
      </trkpt>
      <trkpt lat="42.65228" lon="1.66333">
        <ele>2311.1467285156</ele>
        <time>2012-06-09T10:23:00Z</time>
      </trkpt>
      <trkpt lat="42.65225" lon="1.66332">
        <ele>2311.6274414062</ele>
        <time>2012-06-09T10:23:07Z</time>
      </trkpt>
      <trkpt lat="42.65224" lon="1.66334">
        <ele>2313.0693359375</ele>
        <time>2012-06-09T10:23:25Z</time>
      </trkpt>
      <trkpt lat="42.65222" lon="1.66334">
        <ele>2314.0305175781</ele>
        <time>2012-06-09T10:23:32Z</time>
      </trkpt>
      <trkpt lat="42.65223" lon="1.66333">
        <ele>2314.5112304688</ele>
        <time>2012-06-09T10:23:54Z</time>
      </trkpt>
      <trkpt lat="42.65223" lon="1.66337">
        <ele>2315.953125</ele>
        <time>2012-06-09T10:24:04Z</time>
      </trkpt>
      <trkpt lat="42.65223" lon="1.66341">
        <ele>2317.3952636719</ele>
        <time>2012-06-09T10:24:10Z</time>
      </trkpt>
      <trkpt lat="42.65224" lon="1.66343">
        <ele>2319.3181152344</ele>
        <time>2012-06-09T10:24:17Z</time>
      </trkpt>
      <trkpt lat="42.65224" lon="1.66343">
        <ele>2319.3181152344</ele>
        <time>2012-06-09T10:24:19Z</time>
      </trkpt>
      <trkpt lat="42.64584" lon="1.65979">
        <ele>2541.86328125</ele>
        <time>2012-06-09T11:22:39Z</time>
      </trkpt>
      <trkpt lat="42.64584" lon="1.65979">
        <ele>2541.86328125</ele>
        <time>2012-06-09T11:22:40Z</time>
      </trkpt>
      <trkpt lat="42.64584" lon="1.65979">
        <ele>2541.3825683594</ele>
        <time>2012-06-09T11:22:48Z</time>
      </trkpt>
      <trkpt lat="42.64585" lon="1.6598">
        <ele>2541.3825683594</ele>
        <time>2012-06-09T11:22:57Z</time>
      </trkpt>
      <trkpt lat="42.64586" lon="1.65979">
        <ele>2543.3051757812</ele>
        <time>2012-06-09T11:23:15Z</time>
      </trkpt>
      <trkpt lat="42.64585" lon="1.65979">
        <ele>2544.2663574219</ele>
        <time>2012-06-09T11:23:19Z</time>
      </trkpt>
      <trkpt lat="42.64585" lon="1.65979">
        <ele>2544.2663574219</ele>
        <time>2012-06-09T11:23:32Z</time>
      </trkpt>
      <trkpt lat="42.64585" lon="1.65979">
        <ele>2543.3051757812</ele>
        <time>2012-06-09T11:23:39Z</time>
      </trkpt>
      <trkpt lat="42.64585" lon="1.6598">
        <ele>2542.3439941406</ele>
        <time>2012-06-09T11:23:54Z</time>
      </trkpt>
      <trkpt lat="42.64586" lon="1.6598">
        <ele>2541.3825683594</ele>
        <time>2012-06-09T11:25:12Z</time>
      </trkpt>
      <trkpt lat="42.64586" lon="1.65981">
        <ele>2541.3825683594</ele>
        <time>2012-06-09T11:25:36Z</time>
      </trkpt>
      <trkpt lat="42.64587" lon="1.65981">
        <ele>2540.9018554688</ele>
        <time>2012-06-09T11:25:48Z</time>
      </trkpt>
      <trkpt lat="42.64584" lon="1.65979">
        <ele>2536.0952148438</ele>
        <time>2012-06-09T11:28:36Z</time>
      </trkpt>
      <trkpt lat="42.64584" lon="1.6598">
        <ele>2535.6145019531</ele>
        <time>2012-06-09T11:28:53Z</time>
      </trkpt>
      <trkpt lat="42.64582" lon="1.65978">
        <ele>2534.6533203125</ele>
        <time>2012-06-09T11:35:46Z</time>
      </trkpt>
      <trkpt lat="42.64585" lon="1.6598">
        <ele>2537.0563964844</ele>
        <time>2012-06-09T11:40:37Z</time>
      </trkpt>
      <trkpt lat="42.64585" lon="1.65981">
        <ele>2540.9018554688</ele>
        <time>2012-06-09T11:41:06Z</time>
      </trkpt>
      <trkpt lat="42.64585" lon="1.65981">
        <ele>2540.4211425781</ele>
        <time>2012-06-09T11:41:11Z</time>
      </trkpt>
      <trkpt lat="42.64584" lon="1.65982">
        <ele>2539.9404296875</ele>
        <time>2012-06-09T11:41:21Z</time>
      </trkpt>
      <trkpt lat="42.64584" lon="1.65981">
        <ele>2540.4211425781</ele>
        <time>2012-06-09T11:41:25Z</time>
      </trkpt>
      <trkpt lat="42.64585" lon="1.65981">
        <ele>2539.9404296875</ele>
        <time>2012-06-09T11:41:28Z</time>
      </trkpt>
      <trkpt lat="42.64585" lon="1.65982">
        <ele>2540.9018554688</ele>
        <time>2012-06-09T11:41:32Z</time>
      </trkpt>
      <trkpt lat="42.64583" lon="1.65985">
        <ele>2540.9018554688</ele>
        <time>2012-06-09T11:41:38Z</time>
      </trkpt>
      <trkpt lat="42.6458" lon="1.65989">
        <ele>2539.9404296875</ele>
        <time>2012-06-09T11:41:44Z</time>
      </trkpt>
      <trkpt lat="42.64575" lon="1.65992">
        <ele>2540.4211425781</ele>
        <time>2012-06-09T11:41:50Z</time>
      </trkpt>
      <trkpt lat="42.64574" lon="1.65991">
        <ele>2540.9018554688</ele>
        <time>2012-06-09T11:41:57Z</time>
      </trkpt>
      <trkpt lat="42.64569" lon="1.65993">
        <ele>2540.9018554688</ele>
        <time>2012-06-09T11:42:05Z</time>
      </trkpt>
      <trkpt lat="42.64567" lon="1.65997">
        <ele>2541.86328125</ele>
        <time>2012-06-09T11:42:10Z</time>
      </trkpt>
      <trkpt lat="42.64566" lon="1.66">
        <ele>2541.86328125</ele>
        <time>2012-06-09T11:42:17Z</time>
      </trkpt>
      <trkpt lat="42.64563" lon="1.66004">
        <ele>2542.8244628906</ele>
        <time>2012-06-09T11:42:25Z</time>
      </trkpt>
      <trkpt lat="42.64563" lon="1.66005">
        <ele>2543.3051757812</ele>
        <time>2012-06-09T11:42:34Z</time>
      </trkpt>
      <trkpt lat="42.64562" lon="1.66005">
        <ele>2541.86328125</ele>
        <time>2012-06-09T11:42:50Z</time>
      </trkpt>
      <trkpt lat="42.64561" lon="1.66008">
        <ele>2541.3825683594</ele>
        <time>2012-06-09T11:42:55Z</time>
      </trkpt>
      <trkpt lat="42.6456" lon="1.6601">
        <ele>2541.3825683594</ele>
        <time>2012-06-09T11:43:01Z</time>
      </trkpt>
      <trkpt lat="42.64557" lon="1.66011">
        <ele>2542.3439941406</ele>
        <time>2012-06-09T11:43:05Z</time>
      </trkpt>
      <trkpt lat="42.64553" lon="1.66014">
        <ele>2543.3051757812</ele>
        <time>2012-06-09T11:43:13Z</time>
      </trkpt>
      <trkpt lat="42.64549" lon="1.66015">
        <ele>2544.2663574219</ele>
        <time>2012-06-09T11:43:19Z</time>
      </trkpt>
      <trkpt lat="42.64545" lon="1.66018">
        <ele>2544.7470703125</ele>
        <time>2012-06-09T11:43:26Z</time>
      </trkpt>
      <trkpt lat="42.6454" lon="1.66015">
        <ele>2544.7470703125</ele>
        <time>2012-06-09T11:43:32Z</time>
      </trkpt>
      <trkpt lat="42.64538" lon="1.66015">
        <ele>2545.7084960938</ele>
        <time>2012-06-09T11:43:38Z</time>
      </trkpt>
      <trkpt lat="42.64536" lon="1.66015">
        <ele>2547.150390625</ele>
        <time>2012-06-09T11:43:44Z</time>
      </trkpt>
      <trkpt lat="42.64534" lon="1.66016">
        <ele>2548.1115722656</ele>
        <time>2012-06-09T11:43:56Z</time>
      </trkpt>
      <trkpt lat="42.64531" lon="1.66016">
        <ele>2548.5922851562</ele>
        <time>2012-06-09T11:44:02Z</time>
      </trkpt>
      <trkpt lat="42.6453" lon="1.6602">
        <ele>2549.0729980469</ele>
        <time>2012-06-09T11:44:08Z</time>
      </trkpt>
      <trkpt lat="42.64531" lon="1.66027">
        <ele>2550.0344238281</ele>
        <time>2012-06-09T11:44:16Z</time>
      </trkpt>
      <trkpt lat="42.64529" lon="1.66032">
        <ele>2550.9956054688</ele>
        <time>2012-06-09T11:44:22Z</time>
      </trkpt>
      <trkpt lat="42.64526" lon="1.66035">
        <ele>2551.9567871094</ele>
        <time>2012-06-09T11:44:28Z</time>
      </trkpt>
      <trkpt lat="42.64525" lon="1.66038">
        <ele>2552.4375</ele>
        <time>2012-06-09T11:44:34Z</time>
      </trkpt>
      <trkpt lat="42.64521" lon="1.6604">
        <ele>2554.3601074219</ele>
        <time>2012-06-09T11:44:41Z</time>
      </trkpt>
      <trkpt lat="42.64519" lon="1.66044">
        <ele>2555.8020019531</ele>
        <time>2012-06-09T11:44:47Z</time>
      </trkpt>
      <trkpt lat="42.64516" lon="1.66047">
        <ele>2556.763671875</ele>
        <time>2012-06-09T11:44:53Z</time>
      </trkpt>
      <trkpt lat="42.64515" lon="1.66051">
        <ele>2558.6862792969</ele>
        <time>2012-06-09T11:45:00Z</time>
      </trkpt>
      <trkpt lat="42.64512" lon="1.66056">
        <ele>2561.5703125</ele>
        <time>2012-06-09T11:45:08Z</time>
      </trkpt>
      <trkpt lat="42.64509" lon="1.66057">
        <ele>2563.0122070312</ele>
        <time>2012-06-09T11:45:14Z</time>
      </trkpt>
      <trkpt lat="42.64505" lon="1.66057">
        <ele>2563.4926757812</ele>
        <time>2012-06-09T11:45:20Z</time>
      </trkpt>
      <trkpt lat="42.64503" lon="1.66057">
        <ele>2564.4541015625</ele>
        <time>2012-06-09T11:45:26Z</time>
      </trkpt>
      <trkpt lat="42.645" lon="1.66058">
        <ele>2565.4155273438</ele>
        <time>2012-06-09T11:45:31Z</time>
      </trkpt>
      <trkpt lat="42.64499" lon="1.66058">
        <ele>2565.8959960938</ele>
        <time>2012-06-09T11:45:43Z</time>
      </trkpt>
      <trkpt lat="42.64497" lon="1.66059">
        <ele>2566.857421875</ele>
        <time>2012-06-09T11:45:48Z</time>
      </trkpt>
      <trkpt lat="42.64495" lon="1.66061">
        <ele>2567.8186035156</ele>
        <time>2012-06-09T11:45:54Z</time>
      </trkpt>
      <trkpt lat="42.64494" lon="1.66062">
        <ele>2568.7800292969</ele>
        <time>2012-06-09T11:45:59Z</time>
      </trkpt>
      <trkpt lat="42.6449" lon="1.66062">
        <ele>2570.7026367188</ele>
        <time>2012-06-09T11:46:06Z</time>
      </trkpt>
      <trkpt lat="42.64487" lon="1.66062">
        <ele>2572.1447753906</ele>
        <time>2012-06-09T11:46:12Z</time>
      </trkpt>
      <trkpt lat="42.64482" lon="1.66063">
        <ele>2573.5866699219</ele>
        <time>2012-06-09T11:46:21Z</time>
      </trkpt>
      <trkpt lat="42.64481" lon="1.6607">
        <ele>2575.5092773438</ele>
        <time>2012-06-09T11:46:30Z</time>
      </trkpt>
      <trkpt lat="42.64478" lon="1.66073">
        <ele>2576.9514160156</ele>
        <time>2012-06-09T11:46:36Z</time>
      </trkpt>
      <trkpt lat="42.64473" lon="1.66074">
        <ele>2577.9125976562</ele>
        <time>2012-06-09T11:46:43Z</time>
      </trkpt>
      <trkpt lat="42.6447" lon="1.66073">
        <ele>2578.3933105469</ele>
        <time>2012-06-09T11:46:49Z</time>
      </trkpt>
      <trkpt lat="42.64464" lon="1.66071">
        <ele>2579.8352050781</ele>
        <time>2012-06-09T11:46:58Z</time>
      </trkpt>
      <trkpt lat="42.64461" lon="1.66072">
        <ele>2581.2770996094</ele>
        <time>2012-06-09T11:47:06Z</time>
      </trkpt>
      <trkpt lat="42.64459" lon="1.66075">
        <ele>2581.7578125</ele>
        <time>2012-06-09T11:47:13Z</time>
      </trkpt>
      <trkpt lat="42.64456" lon="1.66075">
        <ele>2582.7189941406</ele>
        <time>2012-06-09T11:47:18Z</time>
      </trkpt>
      <trkpt lat="42.64454" lon="1.66076">
        <ele>2583.6804199219</ele>
        <time>2012-06-09T11:47:24Z</time>
      </trkpt>
      <trkpt lat="42.64453" lon="1.66076">
        <ele>2583.1997070312</ele>
        <time>2012-06-09T11:47:31Z</time>
      </trkpt>
      <trkpt lat="42.64452" lon="1.66077">
        <ele>2583.1997070312</ele>
        <time>2012-06-09T11:47:38Z</time>
      </trkpt>
      <trkpt lat="42.6445" lon="1.66077">
        <ele>2583.6804199219</ele>
        <time>2012-06-09T11:47:45Z</time>
      </trkpt>
      <trkpt lat="42.64447" lon="1.66079">
        <ele>2583.6804199219</ele>
        <time>2012-06-09T11:47:50Z</time>
      </trkpt>
      <trkpt lat="42.64441" lon="1.66081">
        <ele>2585.1223144531</ele>
        <time>2012-06-09T11:47:58Z</time>
      </trkpt>
      <trkpt lat="42.64437" lon="1.66081">
        <ele>2586.0837402344</ele>
        <time>2012-06-09T11:48:03Z</time>
      </trkpt>
      <trkpt lat="42.64433" lon="1.66079">
        <ele>2587.5256347656</ele>
        <time>2012-06-09T11:48:11Z</time>
      </trkpt>
      <trkpt lat="42.6443" lon="1.6608">
        <ele>2588.9677734375</ele>
        <time>2012-06-09T11:48:17Z</time>
      </trkpt>
      <trkpt lat="42.64428" lon="1.66079">
        <ele>2589.4484863281</ele>
        <time>2012-06-09T11:48:24Z</time>
      </trkpt>
      <trkpt lat="42.64425" lon="1.66078">
        <ele>2590.4096679688</ele>
        <time>2012-06-09T11:48:30Z</time>
      </trkpt>
      <trkpt lat="42.64424" lon="1.66079">
        <ele>2590.8903808594</ele>
        <time>2012-06-09T11:48:41Z</time>
      </trkpt>
      <trkpt lat="42.6442" lon="1.66081">
        <ele>2591.8518066406</ele>
        <time>2012-06-09T11:48:47Z</time>
      </trkpt>
      <trkpt lat="42.64419" lon="1.66081">
        <ele>2591.37109375</ele>
        <time>2012-06-09T11:48:53Z</time>
      </trkpt>
      <trkpt lat="42.64415" lon="1.6608">
        <ele>2591.37109375</ele>
        <time>2012-06-09T11:49:00Z</time>
      </trkpt>
      <trkpt lat="42.64409" lon="1.6608">
        <ele>2592.8129882812</ele>
        <time>2012-06-09T11:49:07Z</time>
      </trkpt>
      <trkpt lat="42.64402" lon="1.66083">
        <ele>2594.2548828125</ele>
        <time>2012-06-09T11:49:16Z</time>
      </trkpt>
      <trkpt lat="42.64397" lon="1.66081">
        <ele>2594.7355957031</ele>
        <time>2012-06-09T11:49:23Z</time>
      </trkpt>
      <trkpt lat="42.64392" lon="1.66078">
        <ele>2594.2548828125</ele>
        <time>2012-06-09T11:49:30Z</time>
      </trkpt>
      <trkpt lat="42.64388" lon="1.66079">
        <ele>2593.7744140625</ele>
        <time>2012-06-09T11:49:36Z</time>
      </trkpt>
      <trkpt lat="42.64385" lon="1.66082">
        <ele>2594.7355957031</ele>
        <time>2012-06-09T11:49:42Z</time>
      </trkpt>
      <trkpt lat="42.64381" lon="1.66087">
        <ele>2595.6970214844</ele>
        <time>2012-06-09T11:49:47Z</time>
      </trkpt>
      <trkpt lat="42.64378" lon="1.66092">
        <ele>2595.6970214844</ele>
        <time>2012-06-09T11:49:51Z</time>
      </trkpt>
      <trkpt lat="42.64374" lon="1.66098">
        <ele>2596.177734375</ele>
        <time>2012-06-09T11:49:58Z</time>
      </trkpt>
      <trkpt lat="42.64373" lon="1.66099">
        <ele>2596.177734375</ele>
        <time>2012-06-09T11:49:59Z</time>
      </trkpt>
      <trkpt lat="42.64368" lon="1.66104">
        <ele>2595.6970214844</ele>
        <time>2012-06-09T11:50:08Z</time>
      </trkpt>
      <trkpt lat="42.64364" lon="1.66106">
        <ele>2595.2163085938</ele>
        <time>2012-06-09T11:50:14Z</time>
      </trkpt>
      <trkpt lat="42.6436" lon="1.6611">
        <ele>2593.7744140625</ele>
        <time>2012-06-09T11:50:21Z</time>
      </trkpt>
      <trkpt lat="42.64353" lon="1.66117">
        <ele>2592.8129882812</ele>
        <time>2012-06-09T11:50:30Z</time>
      </trkpt>
      <trkpt lat="42.64348" lon="1.6612">
        <ele>2591.8518066406</ele>
        <time>2012-06-09T11:50:36Z</time>
      </trkpt>
      <trkpt lat="42.64345" lon="1.66123">
        <ele>2590.8903808594</ele>
        <time>2012-06-09T11:50:42Z</time>
      </trkpt>
      <trkpt lat="42.64341" lon="1.66124">
        <ele>2590.4096679688</ele>
        <time>2012-06-09T11:50:47Z</time>
      </trkpt>
      <trkpt lat="42.64336" lon="1.66128">
        <ele>2590.4096679688</ele>
        <time>2012-06-09T11:50:53Z</time>
      </trkpt>
      <trkpt lat="42.64333" lon="1.66131">
        <ele>2590.4096679688</ele>
        <time>2012-06-09T11:50:56Z</time>
      </trkpt>
      <trkpt lat="42.64331" lon="1.6614">
        <ele>2591.8518066406</ele>
        <time>2012-06-09T11:51:04Z</time>
      </trkpt>
      <trkpt lat="42.64329" lon="1.66142">
        <ele>2591.37109375</ele>
        <time>2012-06-09T11:51:06Z</time>
      </trkpt>
      <trkpt lat="42.64318" lon="1.66144">
        <ele>2591.8518066406</ele>
        <time>2012-06-09T11:51:17Z</time>
      </trkpt>
      <trkpt lat="42.64313" lon="1.66145">
        <ele>2592.3325195312</ele>
        <time>2012-06-09T11:51:23Z</time>
      </trkpt>
      <trkpt lat="42.64304" lon="1.66147">
        <ele>2592.8129882812</ele>
        <time>2012-06-09T11:51:32Z</time>
      </trkpt>
      <trkpt lat="42.64299" lon="1.66151">
        <ele>2592.8129882812</ele>
        <time>2012-06-09T11:51:39Z</time>
      </trkpt>
      <trkpt lat="42.64291" lon="1.66155">
        <ele>2592.3325195312</ele>
        <time>2012-06-09T11:51:47Z</time>
      </trkpt>
      <trkpt lat="42.64286" lon="1.66154">
        <ele>2590.8903808594</ele>
        <time>2012-06-09T11:51:53Z</time>
      </trkpt>
      <trkpt lat="42.6428" lon="1.66156">
        <ele>2590.8903808594</ele>
        <time>2012-06-09T11:51:59Z</time>
      </trkpt>
      <trkpt lat="42.64276" lon="1.66158">
        <ele>2590.8903808594</ele>
        <time>2012-06-09T11:52:03Z</time>
      </trkpt>
      <trkpt lat="42.64266" lon="1.66164">
        <ele>2590.8903808594</ele>
        <time>2012-06-09T11:52:13Z</time>
      </trkpt>
      <trkpt lat="42.64258" lon="1.66169">
        <ele>2590.4096679688</ele>
        <time>2012-06-09T11:52:21Z</time>
      </trkpt>
      <trkpt lat="42.64253" lon="1.66175">
        <ele>2590.8903808594</ele>
        <time>2012-06-09T11:52:29Z</time>
      </trkpt>
      <trkpt lat="42.64252" lon="1.66177">
        <ele>2590.4096679688</ele>
        <time>2012-06-09T11:52:38Z</time>
      </trkpt>
      <trkpt lat="42.64252" lon="1.66174">
        <ele>2589.9291992188</ele>
        <time>2012-06-09T11:52:44Z</time>
      </trkpt>
      <trkpt lat="42.64252" lon="1.66173">
        <ele>2588.9677734375</ele>
        <time>2012-06-09T11:52:51Z</time>
      </trkpt>
      <trkpt lat="42.64251" lon="1.66173">
        <ele>2588.0065917969</ele>
        <time>2012-06-09T11:53:12Z</time>
      </trkpt>
      <trkpt lat="42.64252" lon="1.66172">
        <ele>2587.5256347656</ele>
        <time>2012-06-09T11:53:24Z</time>
      </trkpt>
      <trkpt lat="42.64252" lon="1.66171">
        <ele>2580.7966308594</ele>
        <time>2012-06-09T11:53:53Z</time>
      </trkpt>
      <trkpt lat="42.64252" lon="1.66169">
        <ele>2579.8352050781</ele>
        <time>2012-06-09T11:54:04Z</time>
      </trkpt>
      <trkpt lat="42.64253" lon="1.66162">
        <ele>2578.8737792969</ele>
        <time>2012-06-09T11:54:10Z</time>
      </trkpt>
      <trkpt lat="42.64253" lon="1.66154">
        <ele>2577.4318847656</ele>
        <time>2012-06-09T11:54:17Z</time>
      </trkpt>
      <trkpt lat="42.6425" lon="1.66148">
        <ele>2575.5092773438</ele>
        <time>2012-06-09T11:54:24Z</time>
      </trkpt>
      <trkpt lat="42.64244" lon="1.66144">
        <ele>2574.0673828125</ele>
        <time>2012-06-09T11:54:31Z</time>
      </trkpt>
      <trkpt lat="42.6424" lon="1.66142">
        <ele>2572.6254882812</ele>
        <time>2012-06-09T11:54:35Z</time>
      </trkpt>
      <trkpt lat="42.64233" lon="1.66139">
        <ele>2570.7026367188</ele>
        <time>2012-06-09T11:54:42Z</time>
      </trkpt>
      <trkpt lat="42.64231" lon="1.66137">
        <ele>2570.2219238281</ele>
        <time>2012-06-09T11:54:44Z</time>
      </trkpt>
      <trkpt lat="42.64228" lon="1.66133">
        <ele>2568.2993164062</ele>
        <time>2012-06-09T11:54:50Z</time>
      </trkpt>
      <trkpt lat="42.64229" lon="1.66133">
        <ele>2568.2993164062</ele>
        <time>2012-06-09T11:54:58Z</time>
      </trkpt>
      <trkpt lat="42.64229" lon="1.66133">
        <ele>2568.7800292969</ele>
        <time>2012-06-09T11:55:05Z</time>
      </trkpt>
      <trkpt lat="42.64225" lon="1.66131">
        <ele>2567.337890625</ele>
        <time>2012-06-09T11:55:10Z</time>
      </trkpt>
      <trkpt lat="42.6422" lon="1.66127">
        <ele>2565.8959960938</ele>
        <time>2012-06-09T11:55:14Z</time>
      </trkpt>
      <trkpt lat="42.64212" lon="1.66124">
        <ele>2563.4926757812</ele>
        <time>2012-06-09T11:55:21Z</time>
      </trkpt>
      <trkpt lat="42.64208" lon="1.66119">
        <ele>2561.0895996094</ele>
        <time>2012-06-09T11:55:27Z</time>
      </trkpt>
      <trkpt lat="42.64203" lon="1.66117">
        <ele>2558.6862792969</ele>
        <time>2012-06-09T11:55:34Z</time>
      </trkpt>
      <trkpt lat="42.64198" lon="1.66114">
        <ele>2556.2829589844</ele>
        <time>2012-06-09T11:55:41Z</time>
      </trkpt>
      <trkpt lat="42.64195" lon="1.66116">
        <ele>2554.8408203125</ele>
        <time>2012-06-09T11:55:47Z</time>
      </trkpt>
      <trkpt lat="42.64192" lon="1.66117">
        <ele>2553.3989257812</ele>
        <time>2012-06-09T11:55:51Z</time>
      </trkpt>
      <trkpt lat="42.64188" lon="1.66113">
        <ele>2550.0344238281</ele>
        <time>2012-06-09T11:55:57Z</time>
      </trkpt>
      <trkpt lat="42.64185" lon="1.66106">
        <ele>2548.1115722656</ele>
        <time>2012-06-09T11:56:04Z</time>
      </trkpt>
      <trkpt lat="42.64182" lon="1.66101">
        <ele>2546.1892089844</ele>
        <time>2012-06-09T11:56:10Z</time>
      </trkpt>
      <trkpt lat="42.64178" lon="1.66099">
        <ele>2544.2663574219</ele>
        <time>2012-06-09T11:56:16Z</time>
      </trkpt>
      <trkpt lat="42.64174" lon="1.66096">
        <ele>2541.86328125</ele>
        <time>2012-06-09T11:56:22Z</time>
      </trkpt>
      <trkpt lat="42.64169" lon="1.66092">
        <ele>2539.4597167969</ele>
        <time>2012-06-09T11:56:28Z</time>
      </trkpt>
      <trkpt lat="42.64164" lon="1.6609">
        <ele>2538.0178222656</ele>
        <time>2012-06-09T11:56:33Z</time>
      </trkpt>
      <trkpt lat="42.64156" lon="1.6609">
        <ele>2536.0952148438</ele>
        <time>2012-06-09T11:56:39Z</time>
      </trkpt>
      <trkpt lat="42.6415" lon="1.6609">
        <ele>2534.6533203125</ele>
        <time>2012-06-09T11:56:44Z</time>
      </trkpt>
      <trkpt lat="42.64141" lon="1.66088">
        <ele>2533.6918945312</ele>
        <time>2012-06-09T11:56:51Z</time>
      </trkpt>
      <trkpt lat="42.64132" lon="1.66088">
        <ele>2532.73046875</ele>
        <time>2012-06-09T11:56:59Z</time>
      </trkpt>
      <trkpt lat="42.64122" lon="1.66088">
        <ele>2531.7692871094</ele>
        <time>2012-06-09T11:57:07Z</time>
      </trkpt>
      <trkpt lat="42.64117" lon="1.66086">
        <ele>2530.3273925781</ele>
        <time>2012-06-09T11:57:13Z</time>
      </trkpt>
      <trkpt lat="42.64112" lon="1.66085">
        <ele>2528.4047851562</ele>
        <time>2012-06-09T11:57:19Z</time>
      </trkpt>
      <trkpt lat="42.64104" lon="1.66084">
        <ele>2527.9240722656</ele>
        <time>2012-06-09T11:57:27Z</time>
      </trkpt>
      <trkpt lat="42.64095" lon="1.66081">
        <ele>2526.4821777344</ele>
        <time>2012-06-09T11:57:36Z</time>
      </trkpt>
      <trkpt lat="42.64092" lon="1.66081">
        <ele>2526.0014648438</ele>
        <time>2012-06-09T11:57:39Z</time>
      </trkpt>
      <trkpt lat="42.64085" lon="1.66079">
        <ele>2524.0788574219</ele>
        <time>2012-06-09T11:57:47Z</time>
      </trkpt>
      <trkpt lat="42.6408" lon="1.66078">
        <ele>2522.1560058594</ele>
        <time>2012-06-09T11:57:53Z</time>
      </trkpt>
      <trkpt lat="42.64076" lon="1.66078">
        <ele>2520.2333984375</ele>
        <time>2012-06-09T11:57:59Z</time>
      </trkpt>
      <trkpt lat="42.64071" lon="1.66077">
        <ele>2518.3107910156</ele>
        <time>2012-06-09T11:58:05Z</time>
      </trkpt>
      <trkpt lat="42.64065" lon="1.66076">
        <ele>2516.3881835938</ele>
        <time>2012-06-09T11:58:11Z</time>
      </trkpt>
      <trkpt lat="42.64057" lon="1.66074">
        <ele>2513.9848632812</ele>
        <time>2012-06-09T11:58:19Z</time>
      </trkpt>
      <trkpt lat="42.64049" lon="1.66069">
        <ele>2512.54296875</ele>
        <time>2012-06-09T11:58:27Z</time>
      </trkpt>
      <trkpt lat="42.64045" lon="1.66066">
        <ele>2511.1010742188</ele>
        <time>2012-06-09T11:58:33Z</time>
      </trkpt>
      <trkpt lat="42.64043" lon="1.66061">
        <ele>2508.6977539062</ele>
        <time>2012-06-09T11:58:39Z</time>
      </trkpt>
      <trkpt lat="42.64039" lon="1.66059">
        <ele>2507.2556152344</ele>
        <time>2012-06-09T11:58:45Z</time>
      </trkpt>
      <trkpt lat="42.64034" lon="1.66057">
        <ele>2505.3330078125</ele>
        <time>2012-06-09T11:58:52Z</time>
      </trkpt>
      <trkpt lat="42.6403" lon="1.66057">
        <ele>2503.4104003906</ele>
        <time>2012-06-09T11:58:58Z</time>
      </trkpt>
      <trkpt lat="42.64026" lon="1.66055">
        <ele>2502.4489746094</ele>
        <time>2012-06-09T11:59:04Z</time>
      </trkpt>
      <trkpt lat="42.64022" lon="1.66055">
        <ele>2501.4877929688</ele>
        <time>2012-06-09T11:59:09Z</time>
      </trkpt>
      <trkpt lat="42.64019" lon="1.66055">
        <ele>2500.0458984375</ele>
        <time>2012-06-09T11:59:15Z</time>
      </trkpt>
      <trkpt lat="42.64011" lon="1.66055">
        <ele>2498.6037597656</ele>
        <time>2012-06-09T11:59:23Z</time>
      </trkpt>
      <trkpt lat="42.64006" lon="1.66053">
        <ele>2497.1618652344</ele>
        <time>2012-06-09T11:59:29Z</time>
      </trkpt>
      <trkpt lat="42.64002" lon="1.66051">
        <ele>2495.2392578125</ele>
        <time>2012-06-09T11:59:35Z</time>
      </trkpt>
      <trkpt lat="42.64" lon="1.66048">
        <ele>2493.3166503906</ele>
        <time>2012-06-09T11:59:40Z</time>
      </trkpt>
      <trkpt lat="42.64001" lon="1.66045">
        <ele>2491.3937988281</ele>
        <time>2012-06-09T11:59:45Z</time>
      </trkpt>
      <trkpt lat="42.63998" lon="1.66045">
        <ele>2489.4711914062</ele>
        <time>2012-06-09T11:59:52Z</time>
      </trkpt>
      <trkpt lat="42.63992" lon="1.66044">
        <ele>2487.0678710938</ele>
        <time>2012-06-09T11:59:59Z</time>
      </trkpt>
      <trkpt lat="42.63989" lon="1.66039">
        <ele>2485.6259765625</ele>
        <time>2012-06-09T12:00:06Z</time>
      </trkpt>
      <trkpt lat="42.63984" lon="1.66035">
        <ele>2483.7033691406</ele>
        <time>2012-06-09T12:00:15Z</time>
      </trkpt>
      <trkpt lat="42.63978" lon="1.66036">
        <ele>2481.7807617188</ele>
        <time>2012-06-09T12:00:22Z</time>
      </trkpt>
      <trkpt lat="42.63972" lon="1.66036">
        <ele>2479.3774414062</ele>
        <time>2012-06-09T12:00:29Z</time>
      </trkpt>
      <trkpt lat="42.63968" lon="1.66036">
        <ele>2477.4548339844</ele>
        <time>2012-06-09T12:00:33Z</time>
      </trkpt>
      <trkpt lat="42.63958" lon="1.66031">
        <ele>2473.609375</ele>
        <time>2012-06-09T12:00:43Z</time>
      </trkpt>
      <trkpt lat="42.63952" lon="1.66026">
        <ele>2470.7255859375</ele>
        <time>2012-06-09T12:00:50Z</time>
      </trkpt>
      <trkpt lat="42.63948" lon="1.66023">
        <ele>2467.8415527344</ele>
        <time>2012-06-09T12:00:57Z</time>
      </trkpt>
      <trkpt lat="42.63942" lon="1.66022">
        <ele>2466.3996582031</ele>
        <time>2012-06-09T12:01:03Z</time>
      </trkpt>
      <trkpt lat="42.63937" lon="1.6602">
        <ele>2464.4770507812</ele>
        <time>2012-06-09T12:01:10Z</time>
      </trkpt>
      <trkpt lat="42.63933" lon="1.66018">
        <ele>2463.515625</ele>
        <time>2012-06-09T12:01:15Z</time>
      </trkpt>
      <trkpt lat="42.63927" lon="1.66015">
        <ele>2463.03515625</ele>
        <time>2012-06-09T12:01:22Z</time>
      </trkpt>
      <trkpt lat="42.6392" lon="1.66013">
        <ele>2462.0737304688</ele>
        <time>2012-06-09T12:01:29Z</time>
      </trkpt>
      <trkpt lat="42.63916" lon="1.66011">
        <ele>2461.1125488281</ele>
        <time>2012-06-09T12:01:34Z</time>
      </trkpt>
      <trkpt lat="42.63911" lon="1.66009">
        <ele>2458.708984375</ele>
        <time>2012-06-09T12:01:41Z</time>
      </trkpt>
      <trkpt lat="42.63903" lon="1.66007">
        <ele>2456.7863769531</ele>
        <time>2012-06-09T12:01:48Z</time>
      </trkpt>
      <trkpt lat="42.63902" lon="1.66006">
        <ele>2456.7863769531</ele>
        <time>2012-06-09T12:01:50Z</time>
      </trkpt>
      <trkpt lat="42.63897" lon="1.66007">
        <ele>2455.8249511719</ele>
        <time>2012-06-09T12:01:54Z</time>
      </trkpt>
      <trkpt lat="42.63887" lon="1.66007">
        <ele>2454.3830566406</ele>
        <time>2012-06-09T12:02:02Z</time>
      </trkpt>
      <trkpt lat="42.63882" lon="1.66005">
        <ele>2452.9411621094</ele>
        <time>2012-06-09T12:02:08Z</time>
      </trkpt>
      <trkpt lat="42.63876" lon="1.66001">
        <ele>2451.0185546875</ele>
        <time>2012-06-09T12:02:15Z</time>
      </trkpt>
      <trkpt lat="42.63871" lon="1.66002">
        <ele>2449.5766601562</ele>
        <time>2012-06-09T12:02:21Z</time>
      </trkpt>
      <trkpt lat="42.63865" lon="1.66002">
        <ele>2447.1733398438</ele>
        <time>2012-06-09T12:02:27Z</time>
      </trkpt>
      <trkpt lat="42.63861" lon="1.65999">
        <ele>2445.7314453125</ele>
        <time>2012-06-09T12:02:32Z</time>
      </trkpt>
      <trkpt lat="42.6386" lon="1.65998">
        <ele>2445.2507324219</ele>
        <time>2012-06-09T12:02:33Z</time>
      </trkpt>
      <trkpt lat="42.63852" lon="1.65994">
        <ele>2442.8471679688</ele>
        <time>2012-06-09T12:02:41Z</time>
      </trkpt>
      <trkpt lat="42.63845" lon="1.65988">
        <ele>2440.9245605469</ele>
        <time>2012-06-09T12:02:48Z</time>
      </trkpt>
      <trkpt lat="42.63838" lon="1.65983">
        <ele>2439.001953125</ele>
        <time>2012-06-09T12:02:55Z</time>
      </trkpt>
      <trkpt lat="42.63832" lon="1.65979">
        <ele>2437.5600585938</ele>
        <time>2012-06-09T12:03:01Z</time>
      </trkpt>
      <trkpt lat="42.63822" lon="1.65974">
        <ele>2436.1181640625</ele>
        <time>2012-06-09T12:03:09Z</time>
      </trkpt>
      <trkpt lat="42.63814" lon="1.65971">
        <ele>2433.71484375</ele>
        <time>2012-06-09T12:03:16Z</time>
      </trkpt>
      <trkpt lat="42.63805" lon="1.65972">
        <ele>2434.6762695312</ele>
        <time>2012-06-09T12:03:23Z</time>
      </trkpt>
      <trkpt lat="42.63797" lon="1.65973">
        <ele>2436.1181640625</ele>
        <time>2012-06-09T12:03:31Z</time>
      </trkpt>
      <trkpt lat="42.63793" lon="1.65974">
        <ele>2436.5986328125</ele>
        <time>2012-06-09T12:03:39Z</time>
      </trkpt>
      <trkpt lat="42.6379" lon="1.65975">
        <ele>2435.6374511719</ele>
        <time>2012-06-09T12:03:47Z</time>
      </trkpt>
      <trkpt lat="42.63788" lon="1.65975">
        <ele>2434.6762695312</ele>
        <time>2012-06-09T12:03:54Z</time>
      </trkpt>
      <trkpt lat="42.63787" lon="1.65976">
        <ele>2434.1955566406</ele>
        <time>2012-06-09T12:04:01Z</time>
      </trkpt>
      <trkpt lat="42.63784" lon="1.65976">
        <ele>2433.2341308594</ele>
        <time>2012-06-09T12:04:06Z</time>
      </trkpt>
      <trkpt lat="42.63781" lon="1.65977">
        <ele>2433.2341308594</ele>
        <time>2012-06-09T12:04:11Z</time>
      </trkpt>
      <trkpt lat="42.63777" lon="1.65977">
        <ele>2434.1955566406</ele>
        <time>2012-06-09T12:04:17Z</time>
      </trkpt>
      <trkpt lat="42.63774" lon="1.65972">
        <ele>2434.6762695312</ele>
        <time>2012-06-09T12:04:24Z</time>
      </trkpt>
      <trkpt lat="42.63773" lon="1.6597">
        <ele>2435.6374511719</ele>
        <time>2012-06-09T12:04:29Z</time>
      </trkpt>
      <trkpt lat="42.63772" lon="1.65969">
        <ele>2435.1567382812</ele>
        <time>2012-06-09T12:04:35Z</time>
      </trkpt>
      <trkpt lat="42.63772" lon="1.65967">
        <ele>2434.6762695312</ele>
        <time>2012-06-09T12:04:51Z</time>
      </trkpt>
      <trkpt lat="42.63767" lon="1.65965">
        <ele>2433.71484375</ele>
        <time>2012-06-09T12:04:57Z</time>
      </trkpt>
      <trkpt lat="42.63762" lon="1.65964">
        <ele>2433.71484375</ele>
        <time>2012-06-09T12:05:04Z</time>
      </trkpt>
      <trkpt lat="42.63757" lon="1.6596">
        <ele>2432.7534179688</ele>
        <time>2012-06-09T12:05:11Z</time>
      </trkpt>
      <trkpt lat="42.63751" lon="1.6596">
        <ele>2432.2729492188</ele>
        <time>2012-06-09T12:05:18Z</time>
      </trkpt>
      <trkpt lat="42.63745" lon="1.65958">
        <ele>2431.3115234375</ele>
        <time>2012-06-09T12:05:25Z</time>
      </trkpt>
      <trkpt lat="42.63738" lon="1.65956">
        <ele>2431.3115234375</ele>
        <time>2012-06-09T12:05:32Z</time>
      </trkpt>
      <trkpt lat="42.63737" lon="1.65953">
        <ele>2430.3503417969</ele>
        <time>2012-06-09T12:05:37Z</time>
      </trkpt>
      <trkpt lat="42.63735" lon="1.65948">
        <ele>2430.3503417969</ele>
        <time>2012-06-09T12:05:43Z</time>
      </trkpt>
      <trkpt lat="42.63734" lon="1.65944">
        <ele>2430.3503417969</ele>
        <time>2012-06-09T12:05:49Z</time>
      </trkpt>
      <trkpt lat="42.63731" lon="1.6594">
        <ele>2428.427734375</ele>
        <time>2012-06-09T12:05:56Z</time>
      </trkpt>
      <trkpt lat="42.63726" lon="1.65939">
        <ele>2428.427734375</ele>
        <time>2012-06-09T12:06:03Z</time>
      </trkpt>
      <trkpt lat="42.63722" lon="1.65936">
        <ele>2427.4660644531</ele>
        <time>2012-06-09T12:06:10Z</time>
      </trkpt>
      <trkpt lat="42.63719" lon="1.65938">
        <ele>2426.9855957031</ele>
        <time>2012-06-09T12:06:16Z</time>
      </trkpt>
      <trkpt lat="42.63714" lon="1.65939">
        <ele>2426.0241699219</ele>
        <time>2012-06-09T12:06:22Z</time>
      </trkpt>
      <trkpt lat="42.63708" lon="1.65939">
        <ele>2424.1015625</ele>
        <time>2012-06-09T12:06:30Z</time>
      </trkpt>
      <trkpt lat="42.63704" lon="1.6594">
        <ele>2423.1403808594</ele>
        <time>2012-06-09T12:06:36Z</time>
      </trkpt>
      <trkpt lat="42.637" lon="1.65943">
        <ele>2422.1789550781</ele>
        <time>2012-06-09T12:06:43Z</time>
      </trkpt>
      <trkpt lat="42.63697" lon="1.65945">
        <ele>2421.6982421875</ele>
        <time>2012-06-09T12:06:48Z</time>
      </trkpt>
      <trkpt lat="42.63689" lon="1.65941">
        <ele>2420.2563476562</ele>
        <time>2012-06-09T12:06:56Z</time>
      </trkpt>
      <trkpt lat="42.63683" lon="1.6594">
        <ele>2419.2951660156</ele>
        <time>2012-06-09T12:07:05Z</time>
      </trkpt>
      <trkpt lat="42.63674" lon="1.6594">
        <ele>2417.8530273438</ele>
        <time>2012-06-09T12:07:15Z</time>
      </trkpt>
      <trkpt lat="42.6367" lon="1.65936">
        <ele>2416.4111328125</ele>
        <time>2012-06-09T12:07:22Z</time>
      </trkpt>
      <trkpt lat="42.63665" lon="1.65931">
        <ele>2414.4885253906</ele>
        <time>2012-06-09T12:07:29Z</time>
      </trkpt>
      <trkpt lat="42.63658" lon="1.6593">
        <ele>2414.0078125</ele>
        <time>2012-06-09T12:07:37Z</time>
      </trkpt>
      <trkpt lat="42.63656" lon="1.65925">
        <ele>2412.0852050781</ele>
        <time>2012-06-09T12:07:43Z</time>
      </trkpt>
      <trkpt lat="42.63655" lon="1.65917">
        <ele>2408.7204589844</ele>
        <time>2012-06-09T12:07:50Z</time>
      </trkpt>
      <trkpt lat="42.63653" lon="1.65913">
        <ele>2407.7592773438</ele>
        <time>2012-06-09T12:07:53Z</time>
      </trkpt>
      <trkpt lat="42.6365" lon="1.65908">
        <ele>2406.3171386719</ele>
        <time>2012-06-09T12:07:57Z</time>
      </trkpt>
      <trkpt lat="42.63648" lon="1.65905">
        <ele>2405.3559570312</ele>
        <time>2012-06-09T12:08:00Z</time>
      </trkpt>
      <trkpt lat="42.63643" lon="1.659">
        <ele>2404.8752441406</ele>
        <time>2012-06-09T12:08:07Z</time>
      </trkpt>
      <trkpt lat="42.63632" lon="1.659">
        <ele>2404.8752441406</ele>
        <time>2012-06-09T12:08:17Z</time>
      </trkpt>
      <trkpt lat="42.63626" lon="1.65903">
        <ele>2404.8752441406</ele>
        <time>2012-06-09T12:08:24Z</time>
      </trkpt>
      <trkpt lat="42.63618" lon="1.65907">
        <ele>2402.9526367188</ele>
        <time>2012-06-09T12:08:32Z</time>
      </trkpt>
      <trkpt lat="42.63617" lon="1.65908">
        <ele>2402.4719238281</ele>
        <time>2012-06-09T12:08:34Z</time>
      </trkpt>
      <trkpt lat="42.6361" lon="1.6591">
        <ele>2402.4719238281</ele>
        <time>2012-06-09T12:08:40Z</time>
      </trkpt>
      <trkpt lat="42.63607" lon="1.65912">
        <ele>2402.4719238281</ele>
        <time>2012-06-09T12:08:43Z</time>
      </trkpt>
      <trkpt lat="42.63597" lon="1.65914">
        <ele>2401.5107421875</ele>
        <time>2012-06-09T12:08:52Z</time>
      </trkpt>
      <trkpt lat="42.63596" lon="1.65915">
        <ele>2401.5107421875</ele>
        <time>2012-06-09T12:08:54Z</time>
      </trkpt>
      <trkpt lat="42.63592" lon="1.65919">
        <ele>2401.0300292969</ele>
        <time>2012-06-09T12:09:00Z</time>
      </trkpt>
      <trkpt lat="42.63587" lon="1.65924">
        <ele>2399.5881347656</ele>
        <time>2012-06-09T12:09:06Z</time>
      </trkpt>
      <trkpt lat="42.63582" lon="1.65927">
        <ele>2398.6267089844</ele>
        <time>2012-06-09T12:09:13Z</time>
      </trkpt>
      <trkpt lat="42.63579" lon="1.65924">
        <ele>2398.6267089844</ele>
        <time>2012-06-09T12:09:19Z</time>
      </trkpt>
      <trkpt lat="42.63579" lon="1.65925">
        <ele>2398.1459960938</ele>
        <time>2012-06-09T12:09:26Z</time>
      </trkpt>
      <trkpt lat="42.63578" lon="1.65924">
        <ele>2398.1459960938</ele>
        <time>2012-06-09T12:09:29Z</time>
      </trkpt>
      <trkpt lat="42.63577" lon="1.65918">
        <ele>2397.1848144531</ele>
        <time>2012-06-09T12:09:33Z</time>
      </trkpt>
      <trkpt lat="42.63578" lon="1.65914">
        <ele>2396.7041015625</ele>
        <time>2012-06-09T12:09:36Z</time>
      </trkpt>
      <trkpt lat="42.63575" lon="1.65904">
        <ele>2394.78125</ele>
        <time>2012-06-09T12:09:44Z</time>
      </trkpt>
      <trkpt lat="42.63572" lon="1.65895">
        <ele>2393.8200683594</ele>
        <time>2012-06-09T12:09:50Z</time>
      </trkpt>
      <trkpt lat="42.63573" lon="1.65894">
        <ele>2393.8200683594</ele>
        <time>2012-06-09T12:09:57Z</time>
      </trkpt>
      <trkpt lat="42.63573" lon="1.65892">
        <ele>2393.3393554688</ele>
        <time>2012-06-09T12:10:04Z</time>
      </trkpt>
      <trkpt lat="42.63572" lon="1.65887">
        <ele>2390.4553222656</ele>
        <time>2012-06-09T12:10:11Z</time>
      </trkpt>
      <trkpt lat="42.63571" lon="1.6588">
        <ele>2388.5329589844</ele>
        <time>2012-06-09T12:10:17Z</time>
      </trkpt>
      <trkpt lat="42.63566" lon="1.65876">
        <ele>2386.6101074219</ele>
        <time>2012-06-09T12:10:24Z</time>
      </trkpt>
      <trkpt lat="42.63558" lon="1.65876">
        <ele>2387.0908203125</ele>
        <time>2012-06-09T12:10:32Z</time>
      </trkpt>
      <trkpt lat="42.63557" lon="1.65876">
        <ele>2387.5715332031</ele>
        <time>2012-06-09T12:10:33Z</time>
      </trkpt>
      <trkpt lat="42.6355" lon="1.65878">
        <ele>2387.5715332031</ele>
        <time>2012-06-09T12:10:41Z</time>
      </trkpt>
      <trkpt lat="42.63546" lon="1.65882">
        <ele>2387.0908203125</ele>
        <time>2012-06-09T12:10:47Z</time>
      </trkpt>
      <trkpt lat="42.63544" lon="1.65888">
        <ele>2385.6489257812</ele>
        <time>2012-06-09T12:10:54Z</time>
      </trkpt>
      <trkpt lat="42.63543" lon="1.65889">
        <ele>2384.6877441406</ele>
        <time>2012-06-09T12:10:59Z</time>
      </trkpt>
      <trkpt lat="42.6354" lon="1.6589">
        <ele>2383.2456054688</ele>
        <time>2012-06-09T12:11:05Z</time>
      </trkpt>
      <trkpt lat="42.63537" lon="1.6589">
        <ele>2382.2844238281</ele>
        <time>2012-06-09T12:11:11Z</time>
      </trkpt>
      <trkpt lat="42.63531" lon="1.65888">
        <ele>2380.8425292969</ele>
        <time>2012-06-09T12:11:17Z</time>
      </trkpt>
      <trkpt lat="42.63527" lon="1.65885">
        <ele>2378.4389648438</ele>
        <time>2012-06-09T12:11:23Z</time>
      </trkpt>
      <trkpt lat="42.63523" lon="1.65889">
        <ele>2376.5163574219</ele>
        <time>2012-06-09T12:11:28Z</time>
      </trkpt>
      <trkpt lat="42.6352" lon="1.65891">
        <ele>2374.59375</ele>
        <time>2012-06-09T12:11:31Z</time>
      </trkpt>
      <trkpt lat="42.63514" lon="1.65883">
        <ele>2371.2290039062</ele>
        <time>2012-06-09T12:11:38Z</time>
      </trkpt>
      <trkpt lat="42.63511" lon="1.6588">
        <ele>2369.787109375</ele>
        <time>2012-06-09T12:11:41Z</time>
      </trkpt>
      <trkpt lat="42.63509" lon="1.65872">
        <ele>2367.8645019531</ele>
        <time>2012-06-09T12:11:46Z</time>
      </trkpt>
      <trkpt lat="42.63504" lon="1.65863">
        <ele>2367.8645019531</ele>
        <time>2012-06-09T12:11:53Z</time>
      </trkpt>
      <trkpt lat="42.63499" lon="1.65855">
        <ele>2366.9033203125</ele>
        <time>2012-06-09T12:12:00Z</time>
      </trkpt>
      <trkpt lat="42.63496" lon="1.65847">
        <ele>2365.9418945312</ele>
        <time>2012-06-09T12:12:07Z</time>
      </trkpt>
      <trkpt lat="42.63495" lon="1.65842">
        <ele>2364.9807128906</ele>
        <time>2012-06-09T12:12:11Z</time>
      </trkpt>
      <trkpt lat="42.63495" lon="1.65833">
        <ele>2363.5383300781</ele>
        <time>2012-06-09T12:12:17Z</time>
      </trkpt>
      <trkpt lat="42.63497" lon="1.65828">
        <ele>2362.0964355469</ele>
        <time>2012-06-09T12:12:21Z</time>
      </trkpt>
      <trkpt lat="42.63494" lon="1.65821">
        <ele>2358.7319335938</ele>
        <time>2012-06-09T12:12:28Z</time>
      </trkpt>
      <trkpt lat="42.6349" lon="1.65817">
        <ele>2358.2512207031</ele>
        <time>2012-06-09T12:12:32Z</time>
      </trkpt>
      <trkpt lat="42.63478" lon="1.65815">
        <ele>2358.2512207031</ele>
        <time>2012-06-09T12:12:43Z</time>
      </trkpt>
      <trkpt lat="42.63474" lon="1.65816">
        <ele>2359.2126464844</ele>
        <time>2012-06-09T12:12:49Z</time>
      </trkpt>
      <trkpt lat="42.6347" lon="1.65818">
        <ele>2359.6931152344</ele>
        <time>2012-06-09T12:12:55Z</time>
      </trkpt>
      <trkpt lat="42.6347" lon="1.65818">
        <ele>2359.6931152344</ele>
        <time>2012-06-09T12:13:04Z</time>
      </trkpt>
      <trkpt lat="42.63469" lon="1.65819">
        <ele>2359.6931152344</ele>
        <time>2012-06-09T12:13:11Z</time>
      </trkpt>
      <trkpt lat="42.63465" lon="1.65821">
        <ele>2359.6931152344</ele>
        <time>2012-06-09T12:13:16Z</time>
      </trkpt>
      <trkpt lat="42.63459" lon="1.65822">
        <ele>2361.1352539062</ele>
        <time>2012-06-09T12:13:24Z</time>
      </trkpt>
      <trkpt lat="42.63453" lon="1.65824">
        <ele>2360.6545410156</ele>
        <time>2012-06-09T12:13:31Z</time>
      </trkpt>
      <trkpt lat="42.63447" lon="1.65823">
        <ele>2359.2126464844</ele>
        <time>2012-06-09T12:13:38Z</time>
      </trkpt>
      <trkpt lat="42.63441" lon="1.65818">
        <ele>2357.2900390625</ele>
        <time>2012-06-09T12:13:45Z</time>
      </trkpt>
      <trkpt lat="42.63437" lon="1.65814">
        <ele>2356.3286132812</ele>
        <time>2012-06-09T12:13:52Z</time>
      </trkpt>
      <trkpt lat="42.63437" lon="1.65814">
        <ele>2356.3286132812</ele>
        <time>2012-06-09T12:14:06Z</time>
      </trkpt>
      <trkpt lat="42.63438" lon="1.65812">
        <ele>2354.4060058594</ele>
        <time>2012-06-09T12:14:23Z</time>
      </trkpt>
      <trkpt lat="42.63434" lon="1.65813">
        <ele>2353.9255371094</ele>
        <time>2012-06-09T12:14:38Z</time>
      </trkpt>
      <trkpt lat="42.63429" lon="1.65813">
        <ele>2352.9641113281</ele>
        <time>2012-06-09T12:14:43Z</time>
      </trkpt>
      <trkpt lat="42.63423" lon="1.65813">
        <ele>2352.4833984375</ele>
        <time>2012-06-09T12:14:50Z</time>
      </trkpt>
      <trkpt lat="42.63417" lon="1.65816">
        <ele>2353.4448242188</ele>
        <time>2012-06-09T12:14:58Z</time>
      </trkpt>
      <trkpt lat="42.63412" lon="1.65818">
        <ele>2353.9255371094</ele>
        <time>2012-06-09T12:15:04Z</time>
      </trkpt>
      <trkpt lat="42.63406" lon="1.65822">
        <ele>2354.4060058594</ele>
        <time>2012-06-09T12:15:11Z</time>
      </trkpt>
      <trkpt lat="42.634" lon="1.65826">
        <ele>2354.88671875</ele>
        <time>2012-06-09T12:15:19Z</time>
      </trkpt>
      <trkpt lat="42.63396" lon="1.6583">
        <ele>2355.8479003906</ele>
        <time>2012-06-09T12:15:25Z</time>
      </trkpt>
      <trkpt lat="42.63388" lon="1.65833">
        <ele>2355.8479003906</ele>
        <time>2012-06-09T12:15:33Z</time>
      </trkpt>
      <trkpt lat="42.63382" lon="1.65837">
        <ele>2357.2900390625</ele>
        <time>2012-06-09T12:15:40Z</time>
      </trkpt>
      <trkpt lat="42.63375" lon="1.6584">
        <ele>2359.2126464844</ele>
        <time>2012-06-09T12:15:48Z</time>
      </trkpt>
      <trkpt lat="42.63365" lon="1.65842">
        <ele>2360.6545410156</ele>
        <time>2012-06-09T12:15:58Z</time>
      </trkpt>
      <trkpt lat="42.63364" lon="1.65842">
        <ele>2360.6545410156</ele>
        <time>2012-06-09T12:16:02Z</time>
      </trkpt>
      <trkpt lat="42.63364" lon="1.65843">
        <ele>2360.173828125</ele>
        <time>2012-06-09T12:16:09Z</time>
      </trkpt>
      <trkpt lat="42.63363" lon="1.65843">
        <ele>2359.6931152344</ele>
        <time>2012-06-09T12:16:17Z</time>
      </trkpt>
      <trkpt lat="42.63363" lon="1.65842">
        <ele>2360.173828125</ele>
        <time>2012-06-09T12:16:27Z</time>
      </trkpt>
      <trkpt lat="42.63362" lon="1.65841">
        <ele>2354.4060058594</ele>
        <time>2012-06-09T12:17:00Z</time>
      </trkpt>
      <trkpt lat="42.63363" lon="1.6584">
        <ele>2353.9255371094</ele>
        <time>2012-06-09T12:17:51Z</time>
      </trkpt>
      <trkpt lat="42.63363" lon="1.65841">
        <ele>2354.4060058594</ele>
        <time>2012-06-09T12:18:16Z</time>
      </trkpt>
      <trkpt lat="42.63363" lon="1.6584">
        <ele>2354.88671875</ele>
        <time>2012-06-09T12:18:27Z</time>
      </trkpt>
      <trkpt lat="42.63363" lon="1.6584">
        <ele>2353.9255371094</ele>
        <time>2012-06-09T12:18:54Z</time>
      </trkpt>
      <trkpt lat="42.63363" lon="1.6584">
        <ele>2353.9255371094</ele>
        <time>2012-06-09T12:19:13Z</time>
      </trkpt>
      <trkpt lat="42.63363" lon="1.6584">
        <ele>2353.4448242188</ele>
        <time>2012-06-09T12:19:19Z</time>
      </trkpt>
      <trkpt lat="42.63363" lon="1.65841">
        <ele>2354.4060058594</ele>
        <time>2012-06-09T12:19:26Z</time>
      </trkpt>
      <trkpt lat="42.63363" lon="1.65841">
        <ele>2354.4060058594</ele>
        <time>2012-06-09T12:19:31Z</time>
      </trkpt>
      <trkpt lat="42.63363" lon="1.65841">
        <ele>2355.3674316406</ele>
        <time>2012-06-09T12:19:39Z</time>
      </trkpt>
      <trkpt lat="42.63363" lon="1.65841">
        <ele>2356.3286132812</ele>
        <time>2012-06-09T12:19:54Z</time>
      </trkpt>
      <trkpt lat="42.63363" lon="1.65842">
        <ele>2355.8479003906</ele>
        <time>2012-06-09T12:20:13Z</time>
      </trkpt>
      <trkpt lat="42.63363" lon="1.65842">
        <ele>2355.8479003906</ele>
        <time>2012-06-09T12:20:19Z</time>
      </trkpt>
      <trkpt lat="42.63363" lon="1.65841">
        <ele>2356.3286132812</ele>
        <time>2012-06-09T12:20:26Z</time>
      </trkpt>
      <trkpt lat="42.63363" lon="1.65841">
        <ele>2357.7707519531</ele>
        <time>2012-06-09T12:20:44Z</time>
      </trkpt>
      <trkpt lat="42.63363" lon="1.65841">
        <ele>2357.7707519531</ele>
        <time>2012-06-09T12:20:56Z</time>
      </trkpt>
      <trkpt lat="42.63363" lon="1.65842">
        <ele>2358.2512207031</ele>
        <time>2012-06-09T12:21:26Z</time>
      </trkpt>
      <trkpt lat="42.63361" lon="1.65839">
        <ele>2358.2512207031</ele>
        <time>2012-06-09T12:21:38Z</time>
      </trkpt>
      <trkpt lat="42.63355" lon="1.65834">
        <ele>2357.2900390625</ele>
        <time>2012-06-09T12:21:44Z</time>
      </trkpt>
      <trkpt lat="42.63346" lon="1.65827">
        <ele>2357.7707519531</ele>
        <time>2012-06-09T12:21:55Z</time>
      </trkpt>
      <trkpt lat="42.63346" lon="1.65826">
        <ele>2357.2900390625</ele>
        <time>2012-06-09T12:22:11Z</time>
      </trkpt>
      <trkpt lat="42.63343" lon="1.65823">
        <ele>2357.7707519531</ele>
        <time>2012-06-09T12:22:17Z</time>
      </trkpt>
      <trkpt lat="42.63338" lon="1.65816">
        <ele>2357.2900390625</ele>
        <time>2012-06-09T12:22:25Z</time>
      </trkpt>
      <trkpt lat="42.63334" lon="1.65812">
        <ele>2357.7707519531</ele>
        <time>2012-06-09T12:22:30Z</time>
      </trkpt>
      <trkpt lat="42.63332" lon="1.6581">
        <ele>2357.7707519531</ele>
        <time>2012-06-09T12:22:37Z</time>
      </trkpt>
      <trkpt lat="42.63329" lon="1.65807">
        <ele>2358.2512207031</ele>
        <time>2012-06-09T12:22:46Z</time>
      </trkpt>
      <trkpt lat="42.63323" lon="1.65801">
        <ele>2358.7319335938</ele>
        <time>2012-06-09T12:22:54Z</time>
      </trkpt>
      <trkpt lat="42.63319" lon="1.65795">
        <ele>2358.2512207031</ele>
        <time>2012-06-09T12:23:02Z</time>
      </trkpt>
      <trkpt lat="42.63314" lon="1.6579">
        <ele>2358.2512207031</ele>
        <time>2012-06-09T12:23:10Z</time>
      </trkpt>
      <trkpt lat="42.63311" lon="1.65786">
        <ele>2359.2126464844</ele>
        <time>2012-06-09T12:23:17Z</time>
      </trkpt>
      <trkpt lat="42.63309" lon="1.65783">
        <ele>2359.2126464844</ele>
        <time>2012-06-09T12:23:22Z</time>
      </trkpt>
      <trkpt lat="42.63304" lon="1.65776">
        <ele>2360.173828125</ele>
        <time>2012-06-09T12:23:32Z</time>
      </trkpt>
      <trkpt lat="42.633" lon="1.6577">
        <ele>2360.173828125</ele>
        <time>2012-06-09T12:23:39Z</time>
      </trkpt>
      <trkpt lat="42.63297" lon="1.65765">
        <ele>2361.1352539062</ele>
        <time>2012-06-09T12:23:47Z</time>
      </trkpt>
      <trkpt lat="42.63295" lon="1.65758">
        <ele>2360.6545410156</ele>
        <time>2012-06-09T12:23:54Z</time>
      </trkpt>
      <trkpt lat="42.63292" lon="1.65755">
        <ele>2362.0964355469</ele>
        <time>2012-06-09T12:24:00Z</time>
      </trkpt>
      <trkpt lat="42.63288" lon="1.65752">
        <ele>2364.0192871094</ele>
        <time>2012-06-09T12:24:06Z</time>
      </trkpt>
      <trkpt lat="42.63285" lon="1.65749">
        <ele>2364.5</ele>
        <time>2012-06-09T12:24:13Z</time>
      </trkpt>
      <trkpt lat="42.63284" lon="1.65748">
        <ele>2364.5</ele>
        <time>2012-06-09T12:24:18Z</time>
      </trkpt>
      <trkpt lat="42.63279" lon="1.65745">
        <ele>2364.5</ele>
        <time>2012-06-09T12:24:24Z</time>
      </trkpt>
      <trkpt lat="42.63277" lon="1.65743">
        <ele>2365.4614257812</ele>
        <time>2012-06-09T12:24:32Z</time>
      </trkpt>
      <trkpt lat="42.63278" lon="1.65742">
        <ele>2364.9807128906</ele>
        <time>2012-06-09T12:26:10Z</time>
      </trkpt>
      <trkpt lat="42.63275" lon="1.65741">
        <ele>2365.4614257812</ele>
        <time>2012-06-09T12:26:37Z</time>
      </trkpt>
      <trkpt lat="42.6327" lon="1.65737">
        <ele>2365.4614257812</ele>
        <time>2012-06-09T12:26:43Z</time>
      </trkpt>
      <trkpt lat="42.63266" lon="1.65733">
        <ele>2366.9033203125</ele>
        <time>2012-06-09T12:26:49Z</time>
      </trkpt>
      <trkpt lat="42.63262" lon="1.65729">
        <ele>2367.8645019531</ele>
        <time>2012-06-09T12:26:57Z</time>
      </trkpt>
      <trkpt lat="42.63259" lon="1.65727">
        <ele>2367.8645019531</ele>
        <time>2012-06-09T12:27:02Z</time>
      </trkpt>
      <trkpt lat="42.63253" lon="1.65724">
        <ele>2366.9033203125</ele>
        <time>2012-06-09T12:27:09Z</time>
      </trkpt>
      <trkpt lat="42.6325" lon="1.65723">
        <ele>2366.9033203125</ele>
        <time>2012-06-09T12:27:15Z</time>
      </trkpt>
      <trkpt lat="42.63246" lon="1.65721">
        <ele>2365.9418945312</ele>
        <time>2012-06-09T12:27:21Z</time>
      </trkpt>
      <trkpt lat="42.63244" lon="1.65718">
        <ele>2365.4614257812</ele>
        <time>2012-06-09T12:27:27Z</time>
      </trkpt>
      <trkpt lat="42.6324" lon="1.65717">
        <ele>2364.5</ele>
        <time>2012-06-09T12:27:33Z</time>
      </trkpt>
      <trkpt lat="42.63236" lon="1.65714">
        <ele>2364.5</ele>
        <time>2012-06-09T12:27:40Z</time>
      </trkpt>
      <trkpt lat="42.63231" lon="1.6571">
        <ele>2364.5</ele>
        <time>2012-06-09T12:27:47Z</time>
      </trkpt>
      <trkpt lat="42.63229" lon="1.65707">
        <ele>2363.5383300781</ele>
        <time>2012-06-09T12:27:53Z</time>
      </trkpt>
      <trkpt lat="42.63229" lon="1.65705">
        <ele>2362.5771484375</ele>
        <time>2012-06-09T12:27:58Z</time>
      </trkpt>
      <trkpt lat="42.63229" lon="1.65703">
        <ele>2362.0964355469</ele>
        <time>2012-06-09T12:28:06Z</time>
      </trkpt>
      <trkpt lat="42.63227" lon="1.65702">
        <ele>2361.6159667969</ele>
        <time>2012-06-09T12:28:14Z</time>
      </trkpt>
      <trkpt lat="42.63225" lon="1.65699">
        <ele>2359.6931152344</ele>
        <time>2012-06-09T12:28:20Z</time>
      </trkpt>
      <trkpt lat="42.63224" lon="1.65697">
        <ele>2358.7319335938</ele>
        <time>2012-06-09T12:28:27Z</time>
      </trkpt>
      <trkpt lat="42.63225" lon="1.65696">
        <ele>2357.7707519531</ele>
        <time>2012-06-09T12:28:31Z</time>
      </trkpt>
      <trkpt lat="42.63226" lon="1.65693">
        <ele>2356.8093261719</ele>
        <time>2012-06-09T12:28:37Z</time>
      </trkpt>
      <trkpt lat="42.63224" lon="1.65687">
        <ele>2354.4060058594</ele>
        <time>2012-06-09T12:28:45Z</time>
      </trkpt>
      <trkpt lat="42.6322" lon="1.65684">
        <ele>2354.4060058594</ele>
        <time>2012-06-09T12:28:52Z</time>
      </trkpt>
      <trkpt lat="42.63217" lon="1.65682">
        <ele>2354.4060058594</ele>
        <time>2012-06-09T12:28:57Z</time>
      </trkpt>
      <trkpt lat="42.63216" lon="1.65681">
        <ele>2354.4060058594</ele>
        <time>2012-06-09T12:29:04Z</time>
      </trkpt>
      <trkpt lat="42.63214" lon="1.65678">
        <ele>2354.4060058594</ele>
        <time>2012-06-09T12:29:19Z</time>
      </trkpt>
      <trkpt lat="42.63211" lon="1.65675">
        <ele>2353.9255371094</ele>
        <time>2012-06-09T12:29:24Z</time>
      </trkpt>
      <trkpt lat="42.6321" lon="1.65669">
        <ele>2352.0026855469</ele>
        <time>2012-06-09T12:29:30Z</time>
      </trkpt>
      <trkpt lat="42.63207" lon="1.65665">
        <ele>2351.5222167969</ele>
        <time>2012-06-09T12:29:35Z</time>
      </trkpt>
      <trkpt lat="42.63204" lon="1.65663">
        <ele>2352.0026855469</ele>
        <time>2012-06-09T12:29:41Z</time>
      </trkpt>
      <trkpt lat="42.63201" lon="1.65662">
        <ele>2352.9641113281</ele>
        <time>2012-06-09T12:29:46Z</time>
      </trkpt>
      <trkpt lat="42.63198" lon="1.6566">
        <ele>2354.88671875</ele>
        <time>2012-06-09T12:29:53Z</time>
      </trkpt>
      <trkpt lat="42.63197" lon="1.6566">
        <ele>2355.3674316406</ele>
        <time>2012-06-09T12:30:00Z</time>
      </trkpt>
      <trkpt lat="42.63195" lon="1.6566">
        <ele>2355.3674316406</ele>
        <time>2012-06-09T12:30:09Z</time>
      </trkpt>
      <trkpt lat="42.63193" lon="1.65657">
        <ele>2355.3674316406</ele>
        <time>2012-06-09T12:30:14Z</time>
      </trkpt>
      <trkpt lat="42.6319" lon="1.65655">
        <ele>2356.3286132812</ele>
        <time>2012-06-09T12:30:19Z</time>
      </trkpt>
      <trkpt lat="42.63187" lon="1.65653">
        <ele>2357.7707519531</ele>
        <time>2012-06-09T12:30:26Z</time>
      </trkpt>
      <trkpt lat="42.63185" lon="1.65651">
        <ele>2357.7707519531</ele>
        <time>2012-06-09T12:30:32Z</time>
      </trkpt>
      <trkpt lat="42.63184" lon="1.65649">
        <ele>2358.7319335938</ele>
        <time>2012-06-09T12:30:38Z</time>
      </trkpt>
      <trkpt lat="42.63182" lon="1.65646">
        <ele>2358.2512207031</ele>
        <time>2012-06-09T12:30:46Z</time>
      </trkpt>
      <trkpt lat="42.6318" lon="1.65644">
        <ele>2358.7319335938</ele>
        <time>2012-06-09T12:30:52Z</time>
      </trkpt>
      <trkpt lat="42.63178" lon="1.65641">
        <ele>2358.7319335938</ele>
        <time>2012-06-09T12:30:57Z</time>
      </trkpt>
      <trkpt lat="42.63176" lon="1.65638">
        <ele>2358.7319335938</ele>
        <time>2012-06-09T12:31:04Z</time>
      </trkpt>
      <trkpt lat="42.63173" lon="1.65635">
        <ele>2359.6931152344</ele>
        <time>2012-06-09T12:31:11Z</time>
      </trkpt>
      <trkpt lat="42.63171" lon="1.65632">
        <ele>2360.173828125</ele>
        <time>2012-06-09T12:31:16Z</time>
      </trkpt>
      <trkpt lat="42.63169" lon="1.6563">
        <ele>2361.1352539062</ele>
        <time>2012-06-09T12:31:22Z</time>
      </trkpt>
      <trkpt lat="42.63168" lon="1.65627">
        <ele>2361.1352539062</ele>
        <time>2012-06-09T12:31:27Z</time>
      </trkpt>
      <trkpt lat="42.63166" lon="1.65624">
        <ele>2361.6159667969</ele>
        <time>2012-06-09T12:31:32Z</time>
      </trkpt>
      <trkpt lat="42.63165" lon="1.6562">
        <ele>2362.0964355469</ele>
        <time>2012-06-09T12:31:38Z</time>
      </trkpt>
      <trkpt lat="42.63163" lon="1.65616">
        <ele>2362.0964355469</ele>
        <time>2012-06-09T12:31:44Z</time>
      </trkpt>
      <trkpt lat="42.63163" lon="1.65613">
        <ele>2361.6159667969</ele>
        <time>2012-06-09T12:31:50Z</time>
      </trkpt>
      <trkpt lat="42.63161" lon="1.6561">
        <ele>2360.173828125</ele>
        <time>2012-06-09T12:32:02Z</time>
      </trkpt>
      <trkpt lat="42.63159" lon="1.65607">
        <ele>2359.2126464844</ele>
        <time>2012-06-09T12:32:09Z</time>
      </trkpt>
      <trkpt lat="42.63156" lon="1.65604">
        <ele>2359.2126464844</ele>
        <time>2012-06-09T12:32:14Z</time>
      </trkpt>
      <trkpt lat="42.63153" lon="1.656">
        <ele>2360.173828125</ele>
        <time>2012-06-09T12:32:20Z</time>
      </trkpt>
      <trkpt lat="42.63151" lon="1.65596">
        <ele>2360.6545410156</ele>
        <time>2012-06-09T12:32:26Z</time>
      </trkpt>
      <trkpt lat="42.63148" lon="1.65594">
        <ele>2362.5771484375</ele>
        <time>2012-06-09T12:32:32Z</time>
      </trkpt>
      <trkpt lat="42.63147" lon="1.65589">
        <ele>2363.0578613281</ele>
        <time>2012-06-09T12:32:38Z</time>
      </trkpt>
      <trkpt lat="42.63144" lon="1.65586">
        <ele>2363.5383300781</ele>
        <time>2012-06-09T12:32:44Z</time>
      </trkpt>
      <trkpt lat="42.63142" lon="1.65582">
        <ele>2363.5383300781</ele>
        <time>2012-06-09T12:32:50Z</time>
      </trkpt>
      <trkpt lat="42.6314" lon="1.6558">
        <ele>2363.5383300781</ele>
        <time>2012-06-09T12:32:54Z</time>
      </trkpt>
      <trkpt lat="42.63139" lon="1.65576">
        <ele>2363.0578613281</ele>
        <time>2012-06-09T12:33:01Z</time>
      </trkpt>
      <trkpt lat="42.63137" lon="1.65574">
        <ele>2362.5771484375</ele>
        <time>2012-06-09T12:33:06Z</time>
      </trkpt>
      <trkpt lat="42.63136" lon="1.65572">
        <ele>2361.6159667969</ele>
        <time>2012-06-09T12:33:14Z</time>
      </trkpt>
      <trkpt lat="42.63134" lon="1.65567">
        <ele>2360.173828125</ele>
        <time>2012-06-09T12:33:22Z</time>
      </trkpt>
      <trkpt lat="42.63134" lon="1.65564">
        <ele>2359.2126464844</ele>
        <time>2012-06-09T12:33:28Z</time>
      </trkpt>
      <trkpt lat="42.63131" lon="1.6556">
        <ele>2359.2126464844</ele>
        <time>2012-06-09T12:33:34Z</time>
      </trkpt>
      <trkpt lat="42.63131" lon="1.65559">
        <ele>2359.2126464844</ele>
        <time>2012-06-09T12:33:41Z</time>
      </trkpt>
      <trkpt lat="42.63131" lon="1.6556">
        <ele>2358.2512207031</ele>
        <time>2012-06-09T12:34:03Z</time>
      </trkpt>
      <trkpt lat="42.63128" lon="1.65558">
        <ele>2358.2512207031</ele>
        <time>2012-06-09T12:34:13Z</time>
      </trkpt>
      <trkpt lat="42.63124" lon="1.6555">
        <ele>2357.2900390625</ele>
        <time>2012-06-09T12:34:21Z</time>
      </trkpt>
      <trkpt lat="42.63123" lon="1.65543">
        <ele>2356.8093261719</ele>
        <time>2012-06-09T12:34:27Z</time>
      </trkpt>
      <trkpt lat="42.6312" lon="1.65537">
        <ele>2356.8093261719</ele>
        <time>2012-06-09T12:34:33Z</time>
      </trkpt>
      <trkpt lat="42.63121" lon="1.65535">
        <ele>2355.8479003906</ele>
        <time>2012-06-09T12:34:38Z</time>
      </trkpt>
      <trkpt lat="42.6312" lon="1.65531">
        <ele>2355.3674316406</ele>
        <time>2012-06-09T12:34:44Z</time>
      </trkpt>
      <trkpt lat="42.63118" lon="1.65526">
        <ele>2354.4060058594</ele>
        <time>2012-06-09T12:34:50Z</time>
      </trkpt>
      <trkpt lat="42.63116" lon="1.6552">
        <ele>2353.9255371094</ele>
        <time>2012-06-09T12:34:56Z</time>
      </trkpt>
      <trkpt lat="42.63113" lon="1.65515">
        <ele>2354.88671875</ele>
        <time>2012-06-09T12:35:03Z</time>
      </trkpt>
      <trkpt lat="42.6311" lon="1.65509">
        <ele>2355.8479003906</ele>
        <time>2012-06-09T12:35:09Z</time>
      </trkpt>
      <trkpt lat="42.6311" lon="1.65502">
        <ele>2356.8093261719</ele>
        <time>2012-06-09T12:35:16Z</time>
      </trkpt>
      <trkpt lat="42.63109" lon="1.65495">
        <ele>2356.8093261719</ele>
        <time>2012-06-09T12:35:22Z</time>
      </trkpt>
      <trkpt lat="42.63107" lon="1.65491">
        <ele>2357.7707519531</ele>
        <time>2012-06-09T12:35:27Z</time>
      </trkpt>
      <trkpt lat="42.63104" lon="1.65485">
        <ele>2359.6931152344</ele>
        <time>2012-06-09T12:35:33Z</time>
      </trkpt>
      <trkpt lat="42.63101" lon="1.65476">
        <ele>2361.1352539062</ele>
        <time>2012-06-09T12:35:41Z</time>
      </trkpt>
      <trkpt lat="42.631" lon="1.65468">
        <ele>2361.6159667969</ele>
        <time>2012-06-09T12:35:49Z</time>
      </trkpt>
      <trkpt lat="42.63099" lon="1.65465">
        <ele>2362.0964355469</ele>
        <time>2012-06-09T12:35:54Z</time>
      </trkpt>
      <trkpt lat="42.63097" lon="1.65462">
        <ele>2363.0578613281</ele>
        <time>2012-06-09T12:36:01Z</time>
      </trkpt>
      <trkpt lat="42.63095" lon="1.65459">
        <ele>2362.5771484375</ele>
        <time>2012-06-09T12:36:07Z</time>
      </trkpt>
      <trkpt lat="42.63092" lon="1.65452">
        <ele>2362.0964355469</ele>
        <time>2012-06-09T12:36:13Z</time>
      </trkpt>
      <trkpt lat="42.6309" lon="1.65444">
        <ele>2364.0192871094</ele>
        <time>2012-06-09T12:36:21Z</time>
      </trkpt>
      <trkpt lat="42.63085" lon="1.65442">
        <ele>2365.9418945312</ele>
        <time>2012-06-09T12:36:28Z</time>
      </trkpt>
      <trkpt lat="42.63083" lon="1.6544">
        <ele>2366.9033203125</ele>
        <time>2012-06-09T12:36:34Z</time>
      </trkpt>
      <trkpt lat="42.63081" lon="1.6544">
        <ele>2367.3837890625</ele>
        <time>2012-06-09T12:36:41Z</time>
      </trkpt>
      <trkpt lat="42.63076" lon="1.65442">
        <ele>2367.8645019531</ele>
        <time>2012-06-09T12:36:49Z</time>
      </trkpt>
      <trkpt lat="42.63071" lon="1.65441">
        <ele>2369.306640625</ele>
        <time>2012-06-09T12:36:57Z</time>
      </trkpt>
      <trkpt lat="42.63069" lon="1.6544">
        <ele>2369.306640625</ele>
        <time>2012-06-09T12:37:03Z</time>
      </trkpt>
      <trkpt lat="42.63067" lon="1.65438">
        <ele>2368.8259277344</ele>
        <time>2012-06-09T12:37:08Z</time>
      </trkpt>
      <trkpt lat="42.63063" lon="1.65437">
        <ele>2368.8259277344</ele>
        <time>2012-06-09T12:37:14Z</time>
      </trkpt>
      <trkpt lat="42.63059" lon="1.65436">
        <ele>2369.306640625</ele>
        <time>2012-06-09T12:37:21Z</time>
      </trkpt>
      <trkpt lat="42.63059" lon="1.65436">
        <ele>2369.306640625</ele>
        <time>2012-06-09T12:37:32Z</time>
      </trkpt>
      <trkpt lat="42.63061" lon="1.65436">
        <ele>2368.3452148438</ele>
        <time>2012-06-09T12:37:42Z</time>
      </trkpt>
      <trkpt lat="42.6306" lon="1.65437">
        <ele>2366.9033203125</ele>
        <time>2012-06-09T12:37:51Z</time>
      </trkpt>
      <trkpt lat="42.63059" lon="1.65436">
        <ele>2365.4614257812</ele>
        <time>2012-06-09T12:38:09Z</time>
      </trkpt>
      <trkpt lat="42.6306" lon="1.65436">
        <ele>2365.4614257812</ele>
        <time>2012-06-09T12:38:42Z</time>
      </trkpt>
      <trkpt lat="42.6306" lon="1.65436">
        <ele>2365.4614257812</ele>
        <time>2012-06-09T12:39:02Z</time>
      </trkpt>
      <trkpt lat="42.6306" lon="1.65436">
        <ele>2365.4614257812</ele>
        <time>2012-06-09T12:39:40Z</time>
      </trkpt>
      <trkpt lat="42.6306" lon="1.65436">
        <ele>2364.9807128906</ele>
        <time>2012-06-09T12:39:56Z</time>
      </trkpt>
      <trkpt lat="42.63058" lon="1.65437">
        <ele>2363.5383300781</ele>
        <time>2012-06-09T12:40:09Z</time>
      </trkpt>
      <trkpt lat="42.63058" lon="1.65436">
        <ele>2363.0578613281</ele>
        <time>2012-06-09T12:40:18Z</time>
      </trkpt>
      <trkpt lat="42.63059" lon="1.65436">
        <ele>2363.5383300781</ele>
        <time>2012-06-09T12:40:38Z</time>
      </trkpt>
      <trkpt lat="42.63061" lon="1.65436">
        <ele>2365.9418945312</ele>
        <time>2012-06-09T12:40:55Z</time>
      </trkpt>
      <trkpt lat="42.63061" lon="1.65437">
        <ele>2367.8645019531</ele>
        <time>2012-06-09T12:41:43Z</time>
      </trkpt>
      <trkpt lat="42.6306" lon="1.65437">
        <ele>2367.8645019531</ele>
        <time>2012-06-09T12:42:03Z</time>
      </trkpt>
      <trkpt lat="42.63059" lon="1.65437">
        <ele>2366.4226074219</ele>
        <time>2012-06-09T12:42:26Z</time>
      </trkpt>
      <trkpt lat="42.63059" lon="1.65437">
        <ele>2367.3837890625</ele>
        <time>2012-06-09T12:42:38Z</time>
      </trkpt>
      <trkpt lat="42.6306" lon="1.65435">
        <ele>2366.9033203125</ele>
        <time>2012-06-09T12:42:48Z</time>
      </trkpt>
      <trkpt lat="42.6306" lon="1.65434">
        <ele>2367.3837890625</ele>
        <time>2012-06-09T12:42:52Z</time>
      </trkpt>
      <trkpt lat="42.6306" lon="1.65434">
        <ele>2368.8259277344</ele>
        <time>2012-06-09T12:43:02Z</time>
      </trkpt>
      <trkpt lat="42.63061" lon="1.65436">
        <ele>2369.306640625</ele>
        <time>2012-06-09T12:43:09Z</time>
      </trkpt>
      <trkpt lat="42.63064" lon="1.65435">
        <ele>2369.787109375</ele>
        <time>2012-06-09T12:43:23Z</time>
      </trkpt>
      <trkpt lat="42.63066" lon="1.65434">
        <ele>2369.306640625</ele>
        <time>2012-06-09T12:43:30Z</time>
      </trkpt>
      <trkpt lat="42.63065" lon="1.65433">
        <ele>2368.8259277344</ele>
        <time>2012-06-09T12:43:39Z</time>
      </trkpt>
      <trkpt lat="42.63062" lon="1.65433">
        <ele>2368.3452148438</ele>
        <time>2012-06-09T12:43:47Z</time>
      </trkpt>
      <trkpt lat="42.6306" lon="1.65434">
        <ele>2366.4226074219</ele>
        <time>2012-06-09T12:43:53Z</time>
      </trkpt>
      <trkpt lat="42.63055" lon="1.6543">
        <ele>2365.4614257812</ele>
        <time>2012-06-09T12:44:01Z</time>
      </trkpt>
      <trkpt lat="42.63051" lon="1.65427">
        <ele>2364.9807128906</ele>
        <time>2012-06-09T12:44:07Z</time>
      </trkpt>
      <trkpt lat="42.6305" lon="1.65426">
        <ele>2364.5</ele>
        <time>2012-06-09T12:44:15Z</time>
      </trkpt>
      <trkpt lat="42.63046" lon="1.65424">
        <ele>2365.4614257812</ele>
        <time>2012-06-09T12:44:28Z</time>
      </trkpt>
      <trkpt lat="42.63042" lon="1.65421">
        <ele>2366.4226074219</ele>
        <time>2012-06-09T12:44:35Z</time>
      </trkpt>
      <trkpt lat="42.63037" lon="1.65421">
        <ele>2368.3452148438</ele>
        <time>2012-06-09T12:44:42Z</time>
      </trkpt>
      <trkpt lat="42.63036" lon="1.65419">
        <ele>2368.3452148438</ele>
        <time>2012-06-09T12:44:48Z</time>
      </trkpt>
      <trkpt lat="42.63033" lon="1.65417">
        <ele>2368.8259277344</ele>
        <time>2012-06-09T12:44:55Z</time>
      </trkpt>
      <trkpt lat="42.6303" lon="1.65412">
        <ele>2369.306640625</ele>
        <time>2012-06-09T12:45:02Z</time>
      </trkpt>
      <trkpt lat="42.63027" lon="1.65406">
        <ele>2368.3452148438</ele>
        <time>2012-06-09T12:45:10Z</time>
      </trkpt>
      <trkpt lat="42.63026" lon="1.65401">
        <ele>2367.8645019531</ele>
        <time>2012-06-09T12:45:17Z</time>
      </trkpt>
      <trkpt lat="42.63024" lon="1.65395">
        <ele>2367.3837890625</ele>
        <time>2012-06-09T12:45:24Z</time>
      </trkpt>
      <trkpt lat="42.63023" lon="1.65389">
        <ele>2367.3837890625</ele>
        <time>2012-06-09T12:45:30Z</time>
      </trkpt>
      <trkpt lat="42.63021" lon="1.65387">
        <ele>2367.8645019531</ele>
        <time>2012-06-09T12:45:34Z</time>
      </trkpt>
      <trkpt lat="42.6302" lon="1.65381">
        <ele>2368.8259277344</ele>
        <time>2012-06-09T12:45:41Z</time>
      </trkpt>
      <trkpt lat="42.63019" lon="1.65378">
        <ele>2369.306640625</ele>
        <time>2012-06-09T12:45:47Z</time>
      </trkpt>
      <trkpt lat="42.63017" lon="1.65371">
        <ele>2370.2678222656</ele>
        <time>2012-06-09T12:45:55Z</time>
      </trkpt>
      <trkpt lat="42.63015" lon="1.65365">
        <ele>2370.2678222656</ele>
        <time>2012-06-09T12:46:03Z</time>
      </trkpt>
      <trkpt lat="42.63013" lon="1.65358">
        <ele>2370.2678222656</ele>
        <time>2012-06-09T12:46:11Z</time>
      </trkpt>
      <trkpt lat="42.63011" lon="1.65349">
        <ele>2369.787109375</ele>
        <time>2012-06-09T12:46:21Z</time>
      </trkpt>
      <trkpt lat="42.63009" lon="1.65342">
        <ele>2369.306640625</ele>
        <time>2012-06-09T12:46:30Z</time>
      </trkpt>
      <trkpt lat="42.63008" lon="1.65335">
        <ele>2368.3452148438</ele>
        <time>2012-06-09T12:46:38Z</time>
      </trkpt>
      <trkpt lat="42.63007" lon="1.65328">
        <ele>2367.8645019531</ele>
        <time>2012-06-09T12:46:46Z</time>
      </trkpt>
      <trkpt lat="42.63007" lon="1.65321">
        <ele>2367.8645019531</ele>
        <time>2012-06-09T12:46:53Z</time>
      </trkpt>
      <trkpt lat="42.63007" lon="1.65315">
        <ele>2366.9033203125</ele>
        <time>2012-06-09T12:46:59Z</time>
      </trkpt>
      <trkpt lat="42.63007" lon="1.65307">
        <ele>2365.9418945312</ele>
        <time>2012-06-09T12:47:07Z</time>
      </trkpt>
      <trkpt lat="42.63006" lon="1.65301">
        <ele>2365.9418945312</ele>
        <time>2012-06-09T12:47:14Z</time>
      </trkpt>
      <trkpt lat="42.63006" lon="1.65294">
        <ele>2364.5</ele>
        <time>2012-06-09T12:47:22Z</time>
      </trkpt>
      <trkpt lat="42.63006" lon="1.65291">
        <ele>2363.5383300781</ele>
        <time>2012-06-09T12:47:30Z</time>
      </trkpt>
      <trkpt lat="42.63006" lon="1.65291">
        <ele>2363.0578613281</ele>
        <time>2012-06-09T12:47:41Z</time>
      </trkpt>
      <trkpt lat="42.63006" lon="1.6529">
        <ele>2362.0964355469</ele>
        <time>2012-06-09T12:47:56Z</time>
      </trkpt>
      <trkpt lat="42.63005" lon="1.65287">
        <ele>2360.6545410156</ele>
        <time>2012-06-09T12:48:04Z</time>
      </trkpt>
      <trkpt lat="42.63004" lon="1.65279">
        <ele>2359.2126464844</ele>
        <time>2012-06-09T12:48:13Z</time>
      </trkpt>
      <trkpt lat="42.63003" lon="1.65274">
        <ele>2357.7707519531</ele>
        <time>2012-06-09T12:48:38Z</time>
      </trkpt>
      <trkpt lat="42.63002" lon="1.6527">
        <ele>2356.8093261719</ele>
        <time>2012-06-09T12:48:44Z</time>
      </trkpt>
      <trkpt lat="42.63002" lon="1.65261">
        <ele>2355.3674316406</ele>
        <time>2012-06-09T12:48:52Z</time>
      </trkpt>
      <trkpt lat="42.63001" lon="1.65251">
        <ele>2354.4060058594</ele>
        <time>2012-06-09T12:49:01Z</time>
      </trkpt>
      <trkpt lat="42.63001" lon="1.65245">
        <ele>2353.9255371094</ele>
        <time>2012-06-09T12:49:07Z</time>
      </trkpt>
      <trkpt lat="42.63001" lon="1.65238">
        <ele>2353.4448242188</ele>
        <time>2012-06-09T12:49:14Z</time>
      </trkpt>
      <trkpt lat="42.63001" lon="1.65231">
        <ele>2353.4448242188</ele>
        <time>2012-06-09T12:49:21Z</time>
      </trkpt>
      <trkpt lat="42.63002" lon="1.6522">
        <ele>2353.4448242188</ele>
        <time>2012-06-09T12:49:31Z</time>
      </trkpt>
      <trkpt lat="42.63002" lon="1.65212">
        <ele>2352.4833984375</ele>
        <time>2012-06-09T12:49:39Z</time>
      </trkpt>
      <trkpt lat="42.63004" lon="1.65206">
        <ele>2352.0026855469</ele>
        <time>2012-06-09T12:49:47Z</time>
      </trkpt>
      <trkpt lat="42.63004" lon="1.65203">
        <ele>2352.0026855469</ele>
        <time>2012-06-09T12:49:53Z</time>
      </trkpt>
      <trkpt lat="42.63004" lon="1.65198">
        <ele>2352.4833984375</ele>
        <time>2012-06-09T12:50:00Z</time>
      </trkpt>
      <trkpt lat="42.63005" lon="1.65193">
        <ele>2352.4833984375</ele>
        <time>2012-06-09T12:50:08Z</time>
      </trkpt>
      <trkpt lat="42.63005" lon="1.6519">
        <ele>2352.4833984375</ele>
        <time>2012-06-09T12:50:16Z</time>
      </trkpt>
      <trkpt lat="42.63006" lon="1.65189">
        <ele>2351.5222167969</ele>
        <time>2012-06-09T12:50:22Z</time>
      </trkpt>
      <trkpt lat="42.63006" lon="1.65187">
        <ele>2353.4448242188</ele>
        <time>2012-06-09T12:50:31Z</time>
      </trkpt>
      <trkpt lat="42.63007" lon="1.65184">
        <ele>2352.9641113281</ele>
        <time>2012-06-09T12:50:39Z</time>
      </trkpt>
      <trkpt lat="42.63007" lon="1.65185">
        <ele>2354.4060058594</ele>
        <time>2012-06-09T12:50:50Z</time>
      </trkpt>
      <trkpt lat="42.63007" lon="1.65185">
        <ele>2353.4448242188</ele>
        <time>2012-06-09T12:50:59Z</time>
      </trkpt>
      <trkpt lat="42.63007" lon="1.65185">
        <ele>2355.3674316406</ele>
        <time>2012-06-09T12:51:11Z</time>
      </trkpt>
      <trkpt lat="42.63007" lon="1.65184">
        <ele>2357.7707519531</ele>
        <time>2012-06-09T12:51:37Z</time>
      </trkpt>
      <trkpt lat="42.63007" lon="1.65184">
        <ele>2355.3674316406</ele>
        <time>2012-06-09T12:51:51Z</time>
      </trkpt>
      <trkpt lat="42.63007" lon="1.65184">
        <ele>2354.88671875</ele>
        <time>2012-06-09T12:52:01Z</time>
      </trkpt>
      <trkpt lat="42.63008" lon="1.6518">
        <ele>2355.8479003906</ele>
        <time>2012-06-09T12:52:09Z</time>
      </trkpt>
      <trkpt lat="42.63008" lon="1.65171">
        <ele>2355.3674316406</ele>
        <time>2012-06-09T12:52:18Z</time>
      </trkpt>
      <trkpt lat="42.63009" lon="1.65163">
        <ele>2355.8479003906</ele>
        <time>2012-06-09T12:52:26Z</time>
      </trkpt>
      <trkpt lat="42.6301" lon="1.65159">
        <ele>2354.88671875</ele>
        <time>2012-06-09T12:52:32Z</time>
      </trkpt>
      <trkpt lat="42.63012" lon="1.65154">
        <ele>2353.4448242188</ele>
        <time>2012-06-09T12:52:39Z</time>
      </trkpt>
      <trkpt lat="42.63013" lon="1.65148">
        <ele>2352.0026855469</ele>
        <time>2012-06-09T12:52:46Z</time>
      </trkpt>
      <trkpt lat="42.63012" lon="1.65147">
        <ele>2352.0026855469</ele>
        <time>2012-06-09T12:52:53Z</time>
      </trkpt>
      <trkpt lat="42.63012" lon="1.65146">
        <ele>2352.0026855469</ele>
        <time>2012-06-09T12:53:02Z</time>
      </trkpt>
      <trkpt lat="42.63012" lon="1.65142">
        <ele>2351.0415039062</ele>
        <time>2012-06-09T12:53:12Z</time>
      </trkpt>
      <trkpt lat="42.63013" lon="1.65137">
        <ele>2350.0803222656</ele>
        <time>2012-06-09T12:53:17Z</time>
      </trkpt>
      <trkpt lat="42.63012" lon="1.65133">
        <ele>2350.0803222656</ele>
        <time>2012-06-09T12:53:22Z</time>
      </trkpt>
      <trkpt lat="42.63013" lon="1.65128">
        <ele>2349.599609375</ele>
        <time>2012-06-09T12:53:27Z</time>
      </trkpt>
      <trkpt lat="42.63013" lon="1.65123">
        <ele>2350.0803222656</ele>
        <time>2012-06-09T12:53:33Z</time>
      </trkpt>
      <trkpt lat="42.63014" lon="1.6512">
        <ele>2348.6381835938</ele>
        <time>2012-06-09T12:53:38Z</time>
      </trkpt>
      <trkpt lat="42.63014" lon="1.65116">
        <ele>2347.6767578125</ele>
        <time>2012-06-09T12:53:43Z</time>
      </trkpt>
      <trkpt lat="42.63015" lon="1.6511">
        <ele>2347.6767578125</ele>
        <time>2012-06-09T12:53:50Z</time>
      </trkpt>
      <trkpt lat="42.63017" lon="1.65106">
        <ele>2347.6767578125</ele>
        <time>2012-06-09T12:53:56Z</time>
      </trkpt>
      <trkpt lat="42.63018" lon="1.65101">
        <ele>2347.1960449219</ele>
        <time>2012-06-09T12:54:02Z</time>
      </trkpt>
      <trkpt lat="42.63018" lon="1.65096">
        <ele>2346.7153320312</ele>
        <time>2012-06-09T12:54:09Z</time>
      </trkpt>
      <trkpt lat="42.63019" lon="1.6509">
        <ele>2346.2348632812</ele>
        <time>2012-06-09T12:54:16Z</time>
      </trkpt>
      <trkpt lat="42.63019" lon="1.65086">
        <ele>2345.7541503906</ele>
        <time>2012-06-09T12:54:23Z</time>
      </trkpt>
      <trkpt lat="42.63018" lon="1.65082">
        <ele>2345.7541503906</ele>
        <time>2012-06-09T12:54:29Z</time>
      </trkpt>
      <trkpt lat="42.63018" lon="1.6508">
        <ele>2345.7541503906</ele>
        <time>2012-06-09T12:54:34Z</time>
      </trkpt>
      <trkpt lat="42.6302" lon="1.65076">
        <ele>2346.2348632812</ele>
        <time>2012-06-09T12:54:41Z</time>
      </trkpt>
      <trkpt lat="42.63021" lon="1.65074">
        <ele>2345.7541503906</ele>
        <time>2012-06-09T12:54:48Z</time>
      </trkpt>
      <trkpt lat="42.63023" lon="1.6507">
        <ele>2345.7541503906</ele>
        <time>2012-06-09T12:54:56Z</time>
      </trkpt>
      <trkpt lat="42.63023" lon="1.65067">
        <ele>2346.7153320312</ele>
        <time>2012-06-09T12:55:01Z</time>
      </trkpt>
      <trkpt lat="42.63024" lon="1.65062">
        <ele>2345.7541503906</ele>
        <time>2012-06-09T12:55:07Z</time>
      </trkpt>
      <trkpt lat="42.63025" lon="1.65059">
        <ele>2345.2734375</ele>
        <time>2012-06-09T12:55:14Z</time>
      </trkpt>
      <trkpt lat="42.63028" lon="1.65057">
        <ele>2344.3120117188</ele>
        <time>2012-06-09T12:55:20Z</time>
      </trkpt>
      <trkpt lat="42.63028" lon="1.65054">
        <ele>2343.8315429688</ele>
        <time>2012-06-09T12:55:26Z</time>
      </trkpt>
      <trkpt lat="42.63028" lon="1.6505">
        <ele>2342.8701171875</ele>
        <time>2012-06-09T12:55:33Z</time>
      </trkpt>
      <trkpt lat="42.63028" lon="1.65046">
        <ele>2344.7927246094</ele>
        <time>2012-06-09T12:55:39Z</time>
      </trkpt>
      <trkpt lat="42.63028" lon="1.65038">
        <ele>2344.7927246094</ele>
        <time>2012-06-09T12:55:48Z</time>
      </trkpt>
      <trkpt lat="42.63029" lon="1.65035">
        <ele>2344.3120117188</ele>
        <time>2012-06-09T12:55:53Z</time>
      </trkpt>
      <trkpt lat="42.63029" lon="1.65032">
        <ele>2344.3120117188</ele>
        <time>2012-06-09T12:55:59Z</time>
      </trkpt>
      <trkpt lat="42.6303" lon="1.65029">
        <ele>2344.3120117188</ele>
        <time>2012-06-09T12:56:05Z</time>
      </trkpt>
      <trkpt lat="42.63031" lon="1.65028">
        <ele>2344.3120117188</ele>
        <time>2012-06-09T12:56:14Z</time>
      </trkpt>
      <trkpt lat="42.63032" lon="1.65025">
        <ele>2345.7541503906</ele>
        <time>2012-06-09T12:56:45Z</time>
      </trkpt>
      <trkpt lat="42.63032" lon="1.6502">
        <ele>2347.6767578125</ele>
        <time>2012-06-09T12:56:53Z</time>
      </trkpt>
      <trkpt lat="42.63031" lon="1.65017">
        <ele>2348.1574707031</ele>
        <time>2012-06-09T12:56:59Z</time>
      </trkpt>
      <trkpt lat="42.63031" lon="1.65013">
        <ele>2349.599609375</ele>
        <time>2012-06-09T12:57:06Z</time>
      </trkpt>
      <trkpt lat="42.63032" lon="1.65011">
        <ele>2350.5607910156</ele>
        <time>2012-06-09T12:57:12Z</time>
      </trkpt>
      <trkpt lat="42.63033" lon="1.65008">
        <ele>2350.0803222656</ele>
        <time>2012-06-09T12:57:19Z</time>
      </trkpt>
      <trkpt lat="42.63034" lon="1.65004">
        <ele>2349.599609375</ele>
        <time>2012-06-09T12:57:27Z</time>
      </trkpt>
      <trkpt lat="42.63035" lon="1.65">
        <ele>2349.1188964844</ele>
        <time>2012-06-09T12:57:33Z</time>
      </trkpt>
      <trkpt lat="42.63037" lon="1.64994">
        <ele>2349.1188964844</ele>
        <time>2012-06-09T12:57:41Z</time>
      </trkpt>
      <trkpt lat="42.63038" lon="1.64991">
        <ele>2349.599609375</ele>
        <time>2012-06-09T12:57:47Z</time>
      </trkpt>
      <trkpt lat="42.63039" lon="1.64988">
        <ele>2350.0803222656</ele>
        <time>2012-06-09T12:57:52Z</time>
      </trkpt>
      <trkpt lat="42.63039" lon="1.64982">
        <ele>2350.5607910156</ele>
        <time>2012-06-09T12:58:00Z</time>
      </trkpt>
      <trkpt lat="42.63039" lon="1.64979">
        <ele>2351.0415039062</ele>
        <time>2012-06-09T12:58:07Z</time>
      </trkpt>
      <trkpt lat="42.63038" lon="1.64975">
        <ele>2352.4833984375</ele>
        <time>2012-06-09T12:58:19Z</time>
      </trkpt>
      <trkpt lat="42.63038" lon="1.64971">
        <ele>2353.9255371094</ele>
        <time>2012-06-09T12:58:27Z</time>
      </trkpt>
      <trkpt lat="42.63037" lon="1.64969">
        <ele>2354.4060058594</ele>
        <time>2012-06-09T12:58:34Z</time>
      </trkpt>
      <trkpt lat="42.63037" lon="1.64967">
        <ele>2353.9255371094</ele>
        <time>2012-06-09T12:58:39Z</time>
      </trkpt>
      <trkpt lat="42.63037" lon="1.64964">
        <ele>2354.4060058594</ele>
        <time>2012-06-09T12:58:45Z</time>
      </trkpt>
      <trkpt lat="42.63037" lon="1.64961">
        <ele>2354.88671875</ele>
        <time>2012-06-09T12:58:52Z</time>
      </trkpt>
      <trkpt lat="42.63039" lon="1.64955">
        <ele>2356.3286132812</ele>
        <time>2012-06-09T12:58:59Z</time>
      </trkpt>
      <trkpt lat="42.63042" lon="1.6495">
        <ele>2357.2900390625</ele>
        <time>2012-06-09T12:59:06Z</time>
      </trkpt>
      <trkpt lat="42.63043" lon="1.64945">
        <ele>2358.2512207031</ele>
        <time>2012-06-09T12:59:11Z</time>
      </trkpt>
      <trkpt lat="42.63045" lon="1.6494">
        <ele>2359.6931152344</ele>
        <time>2012-06-09T12:59:16Z</time>
      </trkpt>
      <trkpt lat="42.63046" lon="1.64936">
        <ele>2360.6545410156</ele>
        <time>2012-06-09T12:59:21Z</time>
      </trkpt>
      <trkpt lat="42.63047" lon="1.64935">
        <ele>2361.1352539062</ele>
        <time>2012-06-09T12:59:28Z</time>
      </trkpt>
      <trkpt lat="42.63047" lon="1.64935">
        <ele>2361.1352539062</ele>
        <time>2012-06-09T12:59:38Z</time>
      </trkpt>
      <trkpt lat="42.63047" lon="1.64935">
        <ele>2360.6545410156</ele>
        <time>2012-06-09T13:00:11Z</time>
      </trkpt>
      <trkpt lat="42.63046" lon="1.64933">
        <ele>2361.6159667969</ele>
        <time>2012-06-09T13:00:21Z</time>
      </trkpt>
      <trkpt lat="42.63045" lon="1.64928">
        <ele>2363.5383300781</ele>
        <time>2012-06-09T13:00:28Z</time>
      </trkpt>
      <trkpt lat="42.63045" lon="1.64926">
        <ele>2364.9807128906</ele>
        <time>2012-06-09T13:00:37Z</time>
      </trkpt>
      <trkpt lat="42.63047" lon="1.64922">
        <ele>2365.4614257812</ele>
        <time>2012-06-09T13:00:43Z</time>
      </trkpt>
      <trkpt lat="42.63049" lon="1.64919">
        <ele>2366.4226074219</ele>
        <time>2012-06-09T13:00:50Z</time>
      </trkpt>
      <trkpt lat="42.63051" lon="1.64913">
        <ele>2366.4226074219</ele>
        <time>2012-06-09T13:00:58Z</time>
      </trkpt>
      <trkpt lat="42.63053" lon="1.6491">
        <ele>2366.4226074219</ele>
        <time>2012-06-09T13:01:03Z</time>
      </trkpt>
      <trkpt lat="42.63054" lon="1.64907">
        <ele>2366.9033203125</ele>
        <time>2012-06-09T13:01:08Z</time>
      </trkpt>
      <trkpt lat="42.63055" lon="1.64906">
        <ele>2367.3837890625</ele>
        <time>2012-06-09T13:01:13Z</time>
      </trkpt>
      <trkpt lat="42.63057" lon="1.64902">
        <ele>2367.3837890625</ele>
        <time>2012-06-09T13:01:18Z</time>
      </trkpt>
      <trkpt lat="42.63058" lon="1.64898">
        <ele>2367.8645019531</ele>
        <time>2012-06-09T13:01:24Z</time>
      </trkpt>
      <trkpt lat="42.6306" lon="1.64896">
        <ele>2368.3452148438</ele>
        <time>2012-06-09T13:01:30Z</time>
      </trkpt>
      <trkpt lat="42.6306" lon="1.64894">
        <ele>2367.3837890625</ele>
        <time>2012-06-09T13:01:36Z</time>
      </trkpt>
      <trkpt lat="42.63063" lon="1.64889">
        <ele>2366.9033203125</ele>
        <time>2012-06-09T13:01:42Z</time>
      </trkpt>
      <trkpt lat="42.63063" lon="1.64885">
        <ele>2368.8259277344</ele>
        <time>2012-06-09T13:01:47Z</time>
      </trkpt>
      <trkpt lat="42.63063" lon="1.64881">
        <ele>2369.787109375</ele>
        <time>2012-06-09T13:01:53Z</time>
      </trkpt>
      <trkpt lat="42.63066" lon="1.64876">
        <ele>2370.7485351562</ele>
        <time>2012-06-09T13:02:00Z</time>
      </trkpt>
      <trkpt lat="42.63068" lon="1.64873">
        <ele>2369.306640625</ele>
        <time>2012-06-09T13:02:06Z</time>
      </trkpt>
      <trkpt lat="42.63069" lon="1.64869">
        <ele>2369.306640625</ele>
        <time>2012-06-09T13:02:12Z</time>
      </trkpt>
      <trkpt lat="42.63071" lon="1.64865">
        <ele>2369.787109375</ele>
        <time>2012-06-09T13:02:18Z</time>
      </trkpt>
      <trkpt lat="42.63072" lon="1.64861">
        <ele>2370.2678222656</ele>
        <time>2012-06-09T13:02:24Z</time>
      </trkpt>
      <trkpt lat="42.63072" lon="1.64858">
        <ele>2371.7097167969</ele>
        <time>2012-06-09T13:02:29Z</time>
      </trkpt>
      <trkpt lat="42.63072" lon="1.64854">
        <ele>2374.59375</ele>
        <time>2012-06-09T13:02:36Z</time>
      </trkpt>
      <trkpt lat="42.63073" lon="1.6485">
        <ele>2374.59375</ele>
        <time>2012-06-09T13:02:42Z</time>
      </trkpt>
      <trkpt lat="42.63073" lon="1.64849">
        <ele>2375.5549316406</ele>
        <time>2012-06-09T13:02:49Z</time>
      </trkpt>
      <trkpt lat="42.63074" lon="1.64845">
        <ele>2376.9970703125</ele>
        <time>2012-06-09T13:02:56Z</time>
      </trkpt>
      <trkpt lat="42.63075" lon="1.6484">
        <ele>2377.9582519531</ele>
        <time>2012-06-09T13:03:03Z</time>
      </trkpt>
      <trkpt lat="42.63076" lon="1.64838">
        <ele>2378.9194335938</ele>
        <time>2012-06-09T13:03:08Z</time>
      </trkpt>
      <trkpt lat="42.63076" lon="1.64836">
        <ele>2382.2844238281</ele>
        <time>2012-06-09T13:03:19Z</time>
      </trkpt>
      <trkpt lat="42.63077" lon="1.64833">
        <ele>2383.2456054688</ele>
        <time>2012-06-09T13:03:25Z</time>
      </trkpt>
      <trkpt lat="42.63079" lon="1.64831">
        <ele>2382.7648925781</ele>
        <time>2012-06-09T13:03:29Z</time>
      </trkpt>
      <trkpt lat="42.63081" lon="1.64828">
        <ele>2381.8037109375</ele>
        <time>2012-06-09T13:03:35Z</time>
      </trkpt>
      <trkpt lat="42.63084" lon="1.64825">
        <ele>2381.3229980469</ele>
        <time>2012-06-09T13:03:41Z</time>
      </trkpt>
      <trkpt lat="42.63085" lon="1.64822">
        <ele>2381.3229980469</ele>
        <time>2012-06-09T13:03:47Z</time>
      </trkpt>
      <trkpt lat="42.63086" lon="1.64819">
        <ele>2380.3618164062</ele>
        <time>2012-06-09T13:03:54Z</time>
      </trkpt>
      <trkpt lat="42.63087" lon="1.64817">
        <ele>2379.880859375</ele>
        <time>2012-06-09T13:04:00Z</time>
      </trkpt>
      <trkpt lat="42.63089" lon="1.64813">
        <ele>2380.3618164062</ele>
        <time>2012-06-09T13:04:05Z</time>
      </trkpt>
      <trkpt lat="42.6309" lon="1.64808">
        <ele>2380.8425292969</ele>
        <time>2012-06-09T13:04:11Z</time>
      </trkpt>
      <trkpt lat="42.63093" lon="1.64804">
        <ele>2381.8037109375</ele>
        <time>2012-06-09T13:04:18Z</time>
      </trkpt>
      <trkpt lat="42.63096" lon="1.64798">
        <ele>2383.2456054688</ele>
        <time>2012-06-09T13:04:25Z</time>
      </trkpt>
      <trkpt lat="42.63097" lon="1.64795">
        <ele>2384.20703125</ele>
        <time>2012-06-09T13:04:31Z</time>
      </trkpt>
      <trkpt lat="42.63099" lon="1.6479">
        <ele>2384.6877441406</ele>
        <time>2012-06-09T13:04:38Z</time>
      </trkpt>
      <trkpt lat="42.63099" lon="1.64786">
        <ele>2385.1682128906</ele>
        <time>2012-06-09T13:04:44Z</time>
      </trkpt>
      <trkpt lat="42.63099" lon="1.64782">
        <ele>2386.6101074219</ele>
        <time>2012-06-09T13:04:50Z</time>
      </trkpt>
      <trkpt lat="42.63098" lon="1.64779">
        <ele>2387.0908203125</ele>
        <time>2012-06-09T13:04:55Z</time>
      </trkpt>
      <trkpt lat="42.63097" lon="1.64776">
        <ele>2387.5715332031</ele>
        <time>2012-06-09T13:05:00Z</time>
      </trkpt>
      <trkpt lat="42.63096" lon="1.64773">
        <ele>2388.0522460938</ele>
        <time>2012-06-09T13:05:06Z</time>
      </trkpt>
      <trkpt lat="42.63096" lon="1.6477">
        <ele>2389.494140625</ele>
        <time>2012-06-09T13:05:12Z</time>
      </trkpt>
      <trkpt lat="42.63096" lon="1.64765">
        <ele>2389.9748535156</ele>
        <time>2012-06-09T13:05:19Z</time>
      </trkpt>
      <trkpt lat="42.63097" lon="1.64763">
        <ele>2390.9360351562</ele>
        <time>2012-06-09T13:05:24Z</time>
      </trkpt>
      <trkpt lat="42.63098" lon="1.64758">
        <ele>2392.8586425781</ele>
        <time>2012-06-09T13:05:31Z</time>
      </trkpt>
      <trkpt lat="42.63099" lon="1.64756">
        <ele>2393.3393554688</ele>
        <time>2012-06-09T13:05:36Z</time>
      </trkpt>
      <trkpt lat="42.631" lon="1.64753">
        <ele>2394.3005371094</ele>
        <time>2012-06-09T13:05:43Z</time>
      </trkpt>
      <trkpt lat="42.63103" lon="1.64751">
        <ele>2393.3393554688</ele>
        <time>2012-06-09T13:05:51Z</time>
      </trkpt>
      <trkpt lat="42.63107" lon="1.64748">
        <ele>2392.8586425781</ele>
        <time>2012-06-09T13:05:58Z</time>
      </trkpt>
      <trkpt lat="42.63109" lon="1.64744">
        <ele>2392.8586425781</ele>
        <time>2012-06-09T13:06:03Z</time>
      </trkpt>
      <trkpt lat="42.63111" lon="1.64741">
        <ele>2393.3393554688</ele>
        <time>2012-06-09T13:06:08Z</time>
      </trkpt>
      <trkpt lat="42.63111" lon="1.64737">
        <ele>2393.8200683594</ele>
        <time>2012-06-09T13:06:16Z</time>
      </trkpt>
      <trkpt lat="42.63113" lon="1.64735">
        <ele>2394.78125</ele>
        <time>2012-06-09T13:06:24Z</time>
      </trkpt>
      <trkpt lat="42.63115" lon="1.64731">
        <ele>2395.7426757812</ele>
        <time>2012-06-09T13:06:29Z</time>
      </trkpt>
      <trkpt lat="42.63119" lon="1.64726">
        <ele>2398.1459960938</ele>
        <time>2012-06-09T13:06:37Z</time>
      </trkpt>
      <trkpt lat="42.63121" lon="1.64724">
        <ele>2399.5881347656</ele>
        <time>2012-06-09T13:06:42Z</time>
      </trkpt>
      <trkpt lat="42.63124" lon="1.6472">
        <ele>2400.5493164062</ele>
        <time>2012-06-09T13:06:49Z</time>
      </trkpt>
      <trkpt lat="42.63128" lon="1.64718">
        <ele>2400.0688476562</ele>
        <time>2012-06-09T13:06:56Z</time>
      </trkpt>
      <trkpt lat="42.63131" lon="1.64716">
        <ele>2399.5881347656</ele>
        <time>2012-06-09T13:07:02Z</time>
      </trkpt>
      <trkpt lat="42.63134" lon="1.64714">
        <ele>2399.5881347656</ele>
        <time>2012-06-09T13:07:10Z</time>
      </trkpt>
      <trkpt lat="42.63134" lon="1.64711">
        <ele>2398.1459960938</ele>
        <time>2012-06-09T13:07:20Z</time>
      </trkpt>
      <trkpt lat="42.63138" lon="1.64708">
        <ele>2395.2619628906</ele>
        <time>2012-06-09T13:07:53Z</time>
      </trkpt>
      <trkpt lat="42.63139" lon="1.64705">
        <ele>2395.2619628906</ele>
        <time>2012-06-09T13:08:01Z</time>
      </trkpt>
      <trkpt lat="42.63139" lon="1.64704">
        <ele>2397.6655273438</ele>
        <time>2012-06-09T13:08:10Z</time>
      </trkpt>
      <trkpt lat="42.63139" lon="1.64703">
        <ele>2400.0688476562</ele>
        <time>2012-06-09T13:08:24Z</time>
      </trkpt>
      <trkpt lat="42.6314" lon="1.647">
        <ele>2401.0300292969</ele>
        <time>2012-06-09T13:08:32Z</time>
      </trkpt>
      <trkpt lat="42.63139" lon="1.64699">
        <ele>2401.9912109375</ele>
        <time>2012-06-09T13:08:38Z</time>
      </trkpt>
      <trkpt lat="42.6314" lon="1.64698">
        <ele>2403.4333496094</ele>
        <time>2012-06-09T13:08:52Z</time>
      </trkpt>
      <trkpt lat="42.6314" lon="1.64696">
        <ele>2403.9140625</ele>
        <time>2012-06-09T13:09:01Z</time>
      </trkpt>
      <trkpt lat="42.63142" lon="1.64692">
        <ele>2404.8752441406</ele>
        <time>2012-06-09T13:09:08Z</time>
      </trkpt>
      <trkpt lat="42.63143" lon="1.64687">
        <ele>2406.7978515625</ele>
        <time>2012-06-09T13:09:15Z</time>
      </trkpt>
      <trkpt lat="42.63143" lon="1.64683">
        <ele>2407.7592773438</ele>
        <time>2012-06-09T13:09:20Z</time>
      </trkpt>
      <trkpt lat="42.63148" lon="1.64677">
        <ele>2408.2397460938</ele>
        <time>2012-06-09T13:09:28Z</time>
      </trkpt>
      <trkpt lat="42.63151" lon="1.64673">
        <ele>2408.7204589844</ele>
        <time>2012-06-09T13:09:36Z</time>
      </trkpt>
      <trkpt lat="42.63155" lon="1.6467">
        <ele>2408.2397460938</ele>
        <time>2012-06-09T13:09:43Z</time>
      </trkpt>
      <trkpt lat="42.63157" lon="1.64668">
        <ele>2407.7592773438</ele>
        <time>2012-06-09T13:09:48Z</time>
      </trkpt>
      <trkpt lat="42.63159" lon="1.64665">
        <ele>2407.7592773438</ele>
        <time>2012-06-09T13:09:55Z</time>
      </trkpt>
      <trkpt lat="42.6316" lon="1.64663">
        <ele>2406.7978515625</ele>
        <time>2012-06-09T13:10:01Z</time>
      </trkpt>
      <trkpt lat="42.63162" lon="1.6466">
        <ele>2405.8364257812</ele>
        <time>2012-06-09T13:10:08Z</time>
      </trkpt>
      <trkpt lat="42.63163" lon="1.64659">
        <ele>2406.7978515625</ele>
        <time>2012-06-09T13:10:22Z</time>
      </trkpt>
      <trkpt lat="42.63162" lon="1.64656">
        <ele>2407.2785644531</ele>
        <time>2012-06-09T13:10:30Z</time>
      </trkpt>
      <trkpt lat="42.63161" lon="1.64651">
        <ele>2407.7592773438</ele>
        <time>2012-06-09T13:10:35Z</time>
      </trkpt>
      <trkpt lat="42.63162" lon="1.64647">
        <ele>2408.7204589844</ele>
        <time>2012-06-09T13:10:41Z</time>
      </trkpt>
      <trkpt lat="42.63161" lon="1.64641">
        <ele>2408.7204589844</ele>
        <time>2012-06-09T13:10:48Z</time>
      </trkpt>
      <trkpt lat="42.63159" lon="1.64638">
        <ele>2410.6430664062</ele>
        <time>2012-06-09T13:10:53Z</time>
      </trkpt>
      <trkpt lat="42.63158" lon="1.64634">
        <ele>2412.0852050781</ele>
        <time>2012-06-09T13:10:59Z</time>
      </trkpt>
      <trkpt lat="42.63158" lon="1.64629">
        <ele>2412.0852050781</ele>
        <time>2012-06-09T13:11:07Z</time>
      </trkpt>
      <trkpt lat="42.63158" lon="1.64629">
        <ele>2411.1237792969</ele>
        <time>2012-06-09T13:11:13Z</time>
      </trkpt>
      <trkpt lat="42.63158" lon="1.6463">
        <ele>2409.681640625</ele>
        <time>2012-06-09T13:11:32Z</time>
      </trkpt>
      <trkpt lat="42.63158" lon="1.6463">
        <ele>2409.681640625</ele>
        <time>2012-06-09T13:11:39Z</time>
      </trkpt>
      <trkpt lat="42.63157" lon="1.64631">
        <ele>2409.681640625</ele>
        <time>2012-06-09T13:11:54Z</time>
      </trkpt>
      <trkpt lat="42.63157" lon="1.64631">
        <ele>2412.0852050781</ele>
        <time>2012-06-09T13:12:07Z</time>
      </trkpt>
      <trkpt lat="42.63156" lon="1.64629">
        <ele>2414.0078125</ele>
        <time>2012-06-09T13:12:28Z</time>
      </trkpt>
      <trkpt lat="42.63155" lon="1.64623">
        <ele>2415.9304199219</ele>
        <time>2012-06-09T13:12:36Z</time>
      </trkpt>
      <trkpt lat="42.63155" lon="1.64619">
        <ele>2415.9304199219</ele>
        <time>2012-06-09T13:12:42Z</time>
      </trkpt>
      <trkpt lat="42.63157" lon="1.64615">
        <ele>2415.9304199219</ele>
        <time>2012-06-09T13:12:48Z</time>
      </trkpt>
      <trkpt lat="42.63158" lon="1.64611">
        <ele>2416.4111328125</ele>
        <time>2012-06-09T13:12:53Z</time>
      </trkpt>
      <trkpt lat="42.63157" lon="1.64605">
        <ele>2417.3723144531</ele>
        <time>2012-06-09T13:12:59Z</time>
      </trkpt>
      <trkpt lat="42.63155" lon="1.64601">
        <ele>2418.3337402344</ele>
        <time>2012-06-09T13:13:04Z</time>
      </trkpt>
      <trkpt lat="42.63156" lon="1.64596">
        <ele>2417.3723144531</ele>
        <time>2012-06-09T13:13:10Z</time>
      </trkpt>
      <trkpt lat="42.63157" lon="1.64594">
        <ele>2417.8530273438</ele>
        <time>2012-06-09T13:13:15Z</time>
      </trkpt>
      <trkpt lat="42.63158" lon="1.64591">
        <ele>2417.8530273438</ele>
        <time>2012-06-09T13:13:21Z</time>
      </trkpt>
      <trkpt lat="42.63161" lon="1.64585">
        <ele>2418.3337402344</ele>
        <time>2012-06-09T13:13:28Z</time>
      </trkpt>
      <trkpt lat="42.63161" lon="1.64581">
        <ele>2418.814453125</ele>
        <time>2012-06-09T13:13:34Z</time>
      </trkpt>
      <trkpt lat="42.63161" lon="1.64577">
        <ele>2419.2951660156</ele>
        <time>2012-06-09T13:13:40Z</time>
      </trkpt>
      <trkpt lat="42.6316" lon="1.64572">
        <ele>2420.2563476562</ele>
        <time>2012-06-09T13:13:47Z</time>
      </trkpt>
      <trkpt lat="42.63159" lon="1.64569">
        <ele>2420.7370605469</ele>
        <time>2012-06-09T13:13:53Z</time>
      </trkpt>
      <trkpt lat="42.63158" lon="1.64566">
        <ele>2422.1789550781</ele>
        <time>2012-06-09T13:14:12Z</time>
      </trkpt>
      <trkpt lat="42.63158" lon="1.64564">
        <ele>2424.1015625</ele>
        <time>2012-06-09T13:14:19Z</time>
      </trkpt>
      <trkpt lat="42.63157" lon="1.6456">
        <ele>2424.5822753906</ele>
        <time>2012-06-09T13:14:34Z</time>
      </trkpt>
      <trkpt lat="42.63157" lon="1.64556">
        <ele>2425.0627441406</ele>
        <time>2012-06-09T13:14:41Z</time>
      </trkpt>
      <trkpt lat="42.63158" lon="1.64551">
        <ele>2426.0241699219</ele>
        <time>2012-06-09T13:14:46Z</time>
      </trkpt>
      <trkpt lat="42.63158" lon="1.64547">
        <ele>2426.5048828125</ele>
        <time>2012-06-09T13:14:51Z</time>
      </trkpt>
      <trkpt lat="42.63158" lon="1.6454">
        <ele>2426.9855957031</ele>
        <time>2012-06-09T13:14:59Z</time>
      </trkpt>
      <trkpt lat="42.63159" lon="1.64536">
        <ele>2427.4660644531</ele>
        <time>2012-06-09T13:15:06Z</time>
      </trkpt>
      <trkpt lat="42.6316" lon="1.64534">
        <ele>2426.5048828125</ele>
        <time>2012-06-09T13:15:12Z</time>
      </trkpt>
      <trkpt lat="42.6316" lon="1.6453">
        <ele>2426.9855957031</ele>
        <time>2012-06-09T13:15:20Z</time>
      </trkpt>
      <trkpt lat="42.63158" lon="1.64526">
        <ele>2427.9467773438</ele>
        <time>2012-06-09T13:15:28Z</time>
      </trkpt>
      <trkpt lat="42.63156" lon="1.64522">
        <ele>2428.908203125</ele>
        <time>2012-06-09T13:15:35Z</time>
      </trkpt>
      <trkpt lat="42.63155" lon="1.64518">
        <ele>2429.3889160156</ele>
        <time>2012-06-09T13:15:41Z</time>
      </trkpt>
      <trkpt lat="42.63155" lon="1.64514">
        <ele>2430.8310546875</ele>
        <time>2012-06-09T13:15:47Z</time>
      </trkpt>
      <trkpt lat="42.63156" lon="1.64509">
        <ele>2431.7922363281</ele>
        <time>2012-06-09T13:15:55Z</time>
      </trkpt>
      <trkpt lat="42.63158" lon="1.64505">
        <ele>2432.7534179688</ele>
        <time>2012-06-09T13:16:01Z</time>
      </trkpt>
      <trkpt lat="42.6316" lon="1.64501">
        <ele>2433.2341308594</ele>
        <time>2012-06-09T13:16:08Z</time>
      </trkpt>
      <trkpt lat="42.6316" lon="1.64501">
        <ele>2432.7534179688</ele>
        <time>2012-06-09T13:16:11Z</time>
      </trkpt>
      <trkpt lat="42.63161" lon="1.64501">
        <ele>2433.2341308594</ele>
        <time>2012-06-09T13:16:18Z</time>
      </trkpt>
      <trkpt lat="42.63161" lon="1.64499">
        <ele>2433.2341308594</ele>
        <time>2012-06-09T13:16:23Z</time>
      </trkpt>
      <trkpt lat="42.63162" lon="1.64493">
        <ele>2434.1955566406</ele>
        <time>2012-06-09T13:16:31Z</time>
      </trkpt>
      <trkpt lat="42.63163" lon="1.64486">
        <ele>2435.6374511719</ele>
        <time>2012-06-09T13:16:39Z</time>
      </trkpt>
      <trkpt lat="42.63163" lon="1.64478">
        <ele>2437.0793457031</ele>
        <time>2012-06-09T13:16:47Z</time>
      </trkpt>
      <trkpt lat="42.63163" lon="1.64472">
        <ele>2438.521484375</ele>
        <time>2012-06-09T13:16:54Z</time>
      </trkpt>
      <trkpt lat="42.63161" lon="1.64467">
        <ele>2439.4826660156</ele>
        <time>2012-06-09T13:17:00Z</time>
      </trkpt>
      <trkpt lat="42.6316" lon="1.64463">
        <ele>2439.9633789062</ele>
        <time>2012-06-09T13:17:05Z</time>
      </trkpt>
      <trkpt lat="42.63158" lon="1.64457">
        <ele>2441.4052734375</ele>
        <time>2012-06-09T13:17:14Z</time>
      </trkpt>
      <trkpt lat="42.63157" lon="1.64454">
        <ele>2442.3666992188</ele>
        <time>2012-06-09T13:17:20Z</time>
      </trkpt>
      <trkpt lat="42.63156" lon="1.64452">
        <ele>2442.8471679688</ele>
        <time>2012-06-09T13:17:25Z</time>
      </trkpt>
      <trkpt lat="42.63155" lon="1.64448">
        <ele>2443.80859375</ele>
        <time>2012-06-09T13:17:32Z</time>
      </trkpt>
      <trkpt lat="42.63151" lon="1.64445">
        <ele>2444.7700195312</ele>
        <time>2012-06-09T13:17:40Z</time>
      </trkpt>
      <trkpt lat="42.63149" lon="1.64442">
        <ele>2445.7314453125</ele>
        <time>2012-06-09T13:17:46Z</time>
      </trkpt>
      <trkpt lat="42.63148" lon="1.64437">
        <ele>2446.6926269531</ele>
        <time>2012-06-09T13:17:52Z</time>
      </trkpt>
      <trkpt lat="42.63147" lon="1.64431">
        <ele>2447.1733398438</ele>
        <time>2012-06-09T13:17:59Z</time>
      </trkpt>
      <trkpt lat="42.63148" lon="1.64423">
        <ele>2447.6540527344</ele>
        <time>2012-06-09T13:18:07Z</time>
      </trkpt>
      <trkpt lat="42.63149" lon="1.64417">
        <ele>2448.1345214844</ele>
        <time>2012-06-09T13:18:14Z</time>
      </trkpt>
      <trkpt lat="42.6315" lon="1.6441">
        <ele>2449.0959472656</ele>
        <time>2012-06-09T13:18:21Z</time>
      </trkpt>
      <trkpt lat="42.6315" lon="1.64403">
        <ele>2450.0573730469</ele>
        <time>2012-06-09T13:18:28Z</time>
      </trkpt>
      <trkpt lat="42.63148" lon="1.64396">
        <ele>2451.0185546875</ele>
        <time>2012-06-09T13:18:37Z</time>
      </trkpt>
      <trkpt lat="42.63146" lon="1.64389">
        <ele>2452.4604492188</ele>
        <time>2012-06-09T13:18:46Z</time>
      </trkpt>
      <trkpt lat="42.63145" lon="1.64384">
        <ele>2453.421875</ele>
        <time>2012-06-09T13:18:53Z</time>
      </trkpt>
      <trkpt lat="42.63145" lon="1.64378">
        <ele>2454.3830566406</ele>
        <time>2012-06-09T13:19:01Z</time>
      </trkpt>
      <trkpt lat="42.63145" lon="1.64371">
        <ele>2455.8249511719</ele>
        <time>2012-06-09T13:19:09Z</time>
      </trkpt>
      <trkpt lat="42.63145" lon="1.64367">
        <ele>2455.8249511719</ele>
        <time>2012-06-09T13:19:15Z</time>
      </trkpt>
      <trkpt lat="42.63144" lon="1.64362">
        <ele>2456.3056640625</ele>
        <time>2012-06-09T13:19:22Z</time>
      </trkpt>
      <trkpt lat="42.63142" lon="1.64356">
        <ele>2455.8249511719</ele>
        <time>2012-06-09T13:19:30Z</time>
      </trkpt>
      <trkpt lat="42.63142" lon="1.64348">
        <ele>2455.8249511719</ele>
        <time>2012-06-09T13:19:38Z</time>
      </trkpt>
      <trkpt lat="42.63143" lon="1.64342">
        <ele>2454.8637695312</ele>
        <time>2012-06-09T13:19:44Z</time>
      </trkpt>
      <trkpt lat="42.63145" lon="1.64336">
        <ele>2453.421875</ele>
        <time>2012-06-09T13:19:53Z</time>
      </trkpt>
      <trkpt lat="42.63147" lon="1.64333">
        <ele>2452.4604492188</ele>
        <time>2012-06-09T13:20:00Z</time>
      </trkpt>
      <trkpt lat="42.63148" lon="1.64332">
        <ele>2451.0185546875</ele>
        <time>2012-06-09T13:20:07Z</time>
      </trkpt>
      <trkpt lat="42.63149" lon="1.6433">
        <ele>2450.0573730469</ele>
        <time>2012-06-09T13:20:13Z</time>
      </trkpt>
      <trkpt lat="42.63149" lon="1.64329">
        <ele>2450.0573730469</ele>
        <time>2012-06-09T13:20:19Z</time>
      </trkpt>
      <trkpt lat="42.6315" lon="1.64327">
        <ele>2449.5766601562</ele>
        <time>2012-06-09T13:20:26Z</time>
      </trkpt>
      <trkpt lat="42.6315" lon="1.64327">
        <ele>2449.5766601562</ele>
        <time>2012-06-09T13:20:33Z</time>
      </trkpt>
      <trkpt lat="42.6315" lon="1.64326">
        <ele>2450.0573730469</ele>
        <time>2012-06-09T13:20:40Z</time>
      </trkpt>
      <trkpt lat="42.63151" lon="1.6432">
        <ele>2450.5378417969</ele>
        <time>2012-06-09T13:20:46Z</time>
      </trkpt>
      <trkpt lat="42.63153" lon="1.6431">
        <ele>2450.5378417969</ele>
        <time>2012-06-09T13:20:54Z</time>
      </trkpt>
      <trkpt lat="42.63157" lon="1.64302">
        <ele>2450.0573730469</ele>
        <time>2012-06-09T13:21:02Z</time>
      </trkpt>
      <trkpt lat="42.63159" lon="1.64293">
        <ele>2450.5378417969</ele>
        <time>2012-06-09T13:21:10Z</time>
      </trkpt>
      <trkpt lat="42.63159" lon="1.64287">
        <ele>2451.4992675781</ele>
        <time>2012-06-09T13:21:16Z</time>
      </trkpt>
      <trkpt lat="42.63159" lon="1.64282">
        <ele>2451.9797363281</ele>
        <time>2012-06-09T13:21:21Z</time>
      </trkpt>
      <trkpt lat="42.63157" lon="1.64276">
        <ele>2452.4604492188</ele>
        <time>2012-06-09T13:21:29Z</time>
      </trkpt>
      <trkpt lat="42.63153" lon="1.6427">
        <ele>2453.9025878906</ele>
        <time>2012-06-09T13:21:38Z</time>
      </trkpt>
      <trkpt lat="42.63152" lon="1.64269">
        <ele>2454.3830566406</ele>
        <time>2012-06-09T13:21:45Z</time>
      </trkpt>
      <trkpt lat="42.63151" lon="1.64268">
        <ele>2455.3444824219</ele>
        <time>2012-06-09T13:21:54Z</time>
      </trkpt>
      <trkpt lat="42.63148" lon="1.64263">
        <ele>2455.8249511719</ele>
        <time>2012-06-09T13:22:02Z</time>
      </trkpt>
      <trkpt lat="42.63146" lon="1.64258">
        <ele>2456.7863769531</ele>
        <time>2012-06-09T13:22:10Z</time>
      </trkpt>
      <trkpt lat="42.63145" lon="1.64254">
        <ele>2457.2670898438</ele>
        <time>2012-06-09T13:22:16Z</time>
      </trkpt>
      <trkpt lat="42.63144" lon="1.64252">
        <ele>2458.2282714844</ele>
        <time>2012-06-09T13:22:23Z</time>
      </trkpt>
      <trkpt lat="42.63142" lon="1.64246">
        <ele>2458.708984375</ele>
        <time>2012-06-09T13:22:30Z</time>
      </trkpt>
      <trkpt lat="42.6314" lon="1.64239">
        <ele>2458.708984375</ele>
        <time>2012-06-09T13:22:38Z</time>
      </trkpt>
      <trkpt lat="42.63139" lon="1.64231">
        <ele>2458.2282714844</ele>
        <time>2012-06-09T13:22:46Z</time>
      </trkpt>
      <trkpt lat="42.63136" lon="1.64223">
        <ele>2456.7863769531</ele>
        <time>2012-06-09T13:22:54Z</time>
      </trkpt>
      <trkpt lat="42.63137" lon="1.64214">
        <ele>2454.8637695312</ele>
        <time>2012-06-09T13:23:01Z</time>
      </trkpt>
      <trkpt lat="42.63139" lon="1.64209">
        <ele>2453.9025878906</ele>
        <time>2012-06-09T13:23:05Z</time>
      </trkpt>
      <trkpt lat="42.63144" lon="1.64204">
        <ele>2452.9411621094</ele>
        <time>2012-06-09T13:23:12Z</time>
      </trkpt>
      <trkpt lat="42.63148" lon="1.642">
        <ele>2451.9797363281</ele>
        <time>2012-06-09T13:23:20Z</time>
      </trkpt>
      <trkpt lat="42.63152" lon="1.64201">
        <ele>2451.4992675781</ele>
        <time>2012-06-09T13:23:25Z</time>
      </trkpt>
      <trkpt lat="42.63153" lon="1.64199">
        <ele>2450.5378417969</ele>
        <time>2012-06-09T13:23:32Z</time>
      </trkpt>
      <trkpt lat="42.63154" lon="1.64195">
        <ele>2450.0573730469</ele>
        <time>2012-06-09T13:23:39Z</time>
      </trkpt>
      <trkpt lat="42.63157" lon="1.64191">
        <ele>2449.5766601562</ele>
        <time>2012-06-09T13:23:44Z</time>
      </trkpt>
      <trkpt lat="42.63161" lon="1.64187">
        <ele>2449.0959472656</ele>
        <time>2012-06-09T13:23:50Z</time>
      </trkpt>
      <trkpt lat="42.63164" lon="1.64185">
        <ele>2451.4992675781</ele>
        <time>2012-06-09T13:23:55Z</time>
      </trkpt>
      <trkpt lat="42.63167" lon="1.64182">
        <ele>2452.4604492188</ele>
        <time>2012-06-09T13:24:05Z</time>
      </trkpt>
      <trkpt lat="42.63172" lon="1.64179">
        <ele>2451.0185546875</ele>
        <time>2012-06-09T13:24:13Z</time>
      </trkpt>
      <trkpt lat="42.63173" lon="1.64177">
        <ele>2451.0185546875</ele>
        <time>2012-06-09T13:24:18Z</time>
      </trkpt>
      <trkpt lat="42.63175" lon="1.64176">
        <ele>2451.4992675781</ele>
        <time>2012-06-09T13:24:24Z</time>
      </trkpt>
      <trkpt lat="42.63178" lon="1.64171">
        <ele>2451.9797363281</ele>
        <time>2012-06-09T13:24:31Z</time>
      </trkpt>
      <trkpt lat="42.6318" lon="1.64169">
        <ele>2452.9411621094</ele>
        <time>2012-06-09T13:24:35Z</time>
      </trkpt>
      <trkpt lat="42.63181" lon="1.64167">
        <ele>2453.421875</ele>
        <time>2012-06-09T13:24:40Z</time>
      </trkpt>
      <trkpt lat="42.63181" lon="1.64165">
        <ele>2454.3830566406</ele>
        <time>2012-06-09T13:24:44Z</time>
      </trkpt>
      <trkpt lat="42.63182" lon="1.64161">
        <ele>2455.8249511719</ele>
        <time>2012-06-09T13:24:50Z</time>
      </trkpt>
      <trkpt lat="42.63182" lon="1.6416">
        <ele>2456.3056640625</ele>
        <time>2012-06-09T13:24:56Z</time>
      </trkpt>
      <trkpt lat="42.63182" lon="1.64157">
        <ele>2457.2670898438</ele>
        <time>2012-06-09T13:25:03Z</time>
      </trkpt>
      <trkpt lat="42.63181" lon="1.64153">
        <ele>2458.708984375</ele>
        <time>2012-06-09T13:25:10Z</time>
      </trkpt>
      <trkpt lat="42.63181" lon="1.6415">
        <ele>2459.6701660156</ele>
        <time>2012-06-09T13:25:15Z</time>
      </trkpt>
      <trkpt lat="42.6318" lon="1.64146">
        <ele>2462.0737304688</ele>
        <time>2012-06-09T13:25:22Z</time>
      </trkpt>
      <trkpt lat="42.63179" lon="1.64142">
        <ele>2464.4770507812</ele>
        <time>2012-06-09T13:25:28Z</time>
      </trkpt>
      <trkpt lat="42.63178" lon="1.64139">
        <ele>2466.3996582031</ele>
        <time>2012-06-09T13:25:34Z</time>
      </trkpt>
      <trkpt lat="42.63181" lon="1.64136">
        <ele>2467.3608398438</ele>
        <time>2012-06-09T13:25:41Z</time>
      </trkpt>
      <trkpt lat="42.63181" lon="1.64133">
        <ele>2473.609375</ele>
        <time>2012-06-09T13:25:52Z</time>
      </trkpt>
      <trkpt lat="42.63182" lon="1.64131">
        <ele>2469.2836914062</ele>
        <time>2012-06-09T13:26:05Z</time>
      </trkpt>
      <trkpt lat="42.63186" lon="1.64128">
        <ele>2464.9577636719</ele>
        <time>2012-06-09T13:26:28Z</time>
      </trkpt>
      <trkpt lat="42.63188" lon="1.64127">
        <ele>2464.4770507812</ele>
        <time>2012-06-09T13:26:33Z</time>
      </trkpt>
      <trkpt lat="42.6319" lon="1.64128">
        <ele>2462.5544433594</ele>
        <time>2012-06-09T13:26:39Z</time>
      </trkpt>
      <trkpt lat="42.63193" lon="1.64127">
        <ele>2461.1125488281</ele>
        <time>2012-06-09T13:26:48Z</time>
      </trkpt>
      <trkpt lat="42.63197" lon="1.64127">
        <ele>2460.1511230469</ele>
        <time>2012-06-09T13:27:02Z</time>
      </trkpt>
      <trkpt lat="42.63197" lon="1.64127">
        <ele>2458.2282714844</ele>
        <time>2012-06-09T13:27:12Z</time>
      </trkpt>
      <trkpt lat="42.63196" lon="1.64128">
        <ele>2457.7478027344</ele>
        <time>2012-06-09T13:27:23Z</time>
      </trkpt>
      <trkpt lat="42.63198" lon="1.64128">
        <ele>2456.7863769531</ele>
        <time>2012-06-09T13:27:29Z</time>
      </trkpt>
      <trkpt lat="42.63202" lon="1.64129">
        <ele>2455.8249511719</ele>
        <time>2012-06-09T13:27:35Z</time>
      </trkpt>
      <trkpt lat="42.63205" lon="1.64129">
        <ele>2454.8637695312</ele>
        <time>2012-06-09T13:27:40Z</time>
      </trkpt>
      <trkpt lat="42.63211" lon="1.64128">
        <ele>2453.9025878906</ele>
        <time>2012-06-09T13:27:47Z</time>
      </trkpt>
      <trkpt lat="42.63216" lon="1.64125">
        <ele>2454.3830566406</ele>
        <time>2012-06-09T13:27:53Z</time>
      </trkpt>
      <trkpt lat="42.63221" lon="1.64125">
        <ele>2452.9411621094</ele>
        <time>2012-06-09T13:28:00Z</time>
      </trkpt>
      <trkpt lat="42.63226" lon="1.64125">
        <ele>2450.5378417969</ele>
        <time>2012-06-09T13:28:06Z</time>
      </trkpt>
      <trkpt lat="42.63233" lon="1.64123">
        <ele>2448.1345214844</ele>
        <time>2012-06-09T13:28:14Z</time>
      </trkpt>
      <trkpt lat="42.63239" lon="1.64122">
        <ele>2448.615234375</ele>
        <time>2012-06-09T13:28:20Z</time>
      </trkpt>
      <trkpt lat="42.63245" lon="1.64121">
        <ele>2448.1345214844</ele>
        <time>2012-06-09T13:28:26Z</time>
      </trkpt>
      <trkpt lat="42.63249" lon="1.6412">
        <ele>2447.6540527344</ele>
        <time>2012-06-09T13:28:32Z</time>
      </trkpt>
      <trkpt lat="42.63253" lon="1.64119">
        <ele>2448.1345214844</ele>
        <time>2012-06-09T13:28:38Z</time>
      </trkpt>
      <trkpt lat="42.63256" lon="1.64117">
        <ele>2447.1733398438</ele>
        <time>2012-06-09T13:28:44Z</time>
      </trkpt>
      <trkpt lat="42.63259" lon="1.64113">
        <ele>2447.6540527344</ele>
        <time>2012-06-09T13:28:51Z</time>
      </trkpt>
      <trkpt lat="42.63261" lon="1.64111">
        <ele>2448.1345214844</ele>
        <time>2012-06-09T13:28:56Z</time>
      </trkpt>
      <trkpt lat="42.63264" lon="1.64107">
        <ele>2448.1345214844</ele>
        <time>2012-06-09T13:29:03Z</time>
      </trkpt>
      <trkpt lat="42.63268" lon="1.64105">
        <ele>2447.6540527344</ele>
        <time>2012-06-09T13:29:08Z</time>
      </trkpt>
      <trkpt lat="42.6327" lon="1.64104">
        <ele>2448.1345214844</ele>
        <time>2012-06-09T13:29:13Z</time>
      </trkpt>
      <trkpt lat="42.63272" lon="1.64105">
        <ele>2446.6926269531</ele>
        <time>2012-06-09T13:29:18Z</time>
      </trkpt>
      <trkpt lat="42.63276" lon="1.64104">
        <ele>2447.6540527344</ele>
        <time>2012-06-09T13:29:23Z</time>
      </trkpt>
      <trkpt lat="42.63278" lon="1.641">
        <ele>2447.6540527344</ele>
        <time>2012-06-09T13:29:28Z</time>
      </trkpt>
      <trkpt lat="42.63279" lon="1.64098">
        <ele>2447.6540527344</ele>
        <time>2012-06-09T13:29:32Z</time>
      </trkpt>
      <trkpt lat="42.63281" lon="1.64096">
        <ele>2448.615234375</ele>
        <time>2012-06-09T13:29:36Z</time>
      </trkpt>
      <trkpt lat="42.63287" lon="1.64095">
        <ele>2448.615234375</ele>
        <time>2012-06-09T13:29:45Z</time>
      </trkpt>
      <trkpt lat="42.63291" lon="1.64093">
        <ele>2447.6540527344</ele>
        <time>2012-06-09T13:29:51Z</time>
      </trkpt>
      <trkpt lat="42.63293" lon="1.64092">
        <ele>2447.1733398438</ele>
        <time>2012-06-09T13:30:00Z</time>
      </trkpt>
      <trkpt lat="42.63295" lon="1.6409">
        <ele>2446.6926269531</ele>
        <time>2012-06-09T13:30:05Z</time>
      </trkpt>
      <trkpt lat="42.63297" lon="1.64087">
        <ele>2447.1733398438</ele>
        <time>2012-06-09T13:30:12Z</time>
      </trkpt>
      <trkpt lat="42.63299" lon="1.64084">
        <ele>2448.615234375</ele>
        <time>2012-06-09T13:30:17Z</time>
      </trkpt>
      <trkpt lat="42.63303" lon="1.64084">
        <ele>2448.615234375</ele>
        <time>2012-06-09T13:30:24Z</time>
      </trkpt>
      <trkpt lat="42.63303" lon="1.64083">
        <ele>2448.615234375</ele>
        <time>2012-06-09T13:30:33Z</time>
      </trkpt>
      <trkpt lat="42.63306" lon="1.64079">
        <ele>2448.615234375</ele>
        <time>2012-06-09T13:30:40Z</time>
      </trkpt>
      <trkpt lat="42.63308" lon="1.64072">
        <ele>2449.5766601562</ele>
        <time>2012-06-09T13:30:49Z</time>
      </trkpt>
      <trkpt lat="42.6331" lon="1.64068">
        <ele>2451.4992675781</ele>
        <time>2012-06-09T13:30:55Z</time>
      </trkpt>
      <trkpt lat="42.63313" lon="1.64064">
        <ele>2451.4992675781</ele>
        <time>2012-06-09T13:31:03Z</time>
      </trkpt>
      <trkpt lat="42.63313" lon="1.64063">
        <ele>2450.5378417969</ele>
        <time>2012-06-09T13:31:11Z</time>
      </trkpt>
      <trkpt lat="42.63313" lon="1.64063">
        <ele>2451.0185546875</ele>
        <time>2012-06-09T13:31:13Z</time>
      </trkpt>
      <trkpt lat="42.63316" lon="1.64061">
        <ele>2451.0185546875</ele>
        <time>2012-06-09T13:31:18Z</time>
      </trkpt>
      <trkpt lat="42.63317" lon="1.64057">
        <ele>2451.0185546875</ele>
        <time>2012-06-09T13:31:24Z</time>
      </trkpt>
      <trkpt lat="42.63321" lon="1.64052">
        <ele>2450.0573730469</ele>
        <time>2012-06-09T13:31:31Z</time>
      </trkpt>
      <trkpt lat="42.63322" lon="1.64051">
        <ele>2448.615234375</ele>
        <time>2012-06-09T13:31:36Z</time>
      </trkpt>
      <trkpt lat="42.63324" lon="1.64047">
        <ele>2447.1733398438</ele>
        <time>2012-06-09T13:31:43Z</time>
      </trkpt>
      <trkpt lat="42.63324" lon="1.64046">
        <ele>2446.6926269531</ele>
        <time>2012-06-09T13:31:48Z</time>
      </trkpt>
      <trkpt lat="42.63325" lon="1.64042">
        <ele>2445.7314453125</ele>
        <time>2012-06-09T13:31:55Z</time>
      </trkpt>
      <trkpt lat="42.63326" lon="1.64041">
        <ele>2447.6540527344</ele>
        <time>2012-06-09T13:32:01Z</time>
      </trkpt>
      <trkpt lat="42.63328" lon="1.6404">
        <ele>2441.8859863281</ele>
        <time>2012-06-09T13:32:07Z</time>
      </trkpt>
      <trkpt lat="42.63329" lon="1.64038">
        <ele>2441.8859863281</ele>
        <time>2012-06-09T13:32:11Z</time>
      </trkpt>
      <trkpt lat="42.6333" lon="1.6404">
        <ele>2440.9245605469</ele>
        <time>2012-06-09T13:32:17Z</time>
      </trkpt>
      <trkpt lat="42.6333" lon="1.64037">
        <ele>2440.4438476562</ele>
        <time>2012-06-09T13:32:55Z</time>
      </trkpt>
      <trkpt lat="42.63331" lon="1.64035">
        <ele>2440.9245605469</ele>
        <time>2012-06-09T13:33:06Z</time>
      </trkpt>
      <trkpt lat="42.63332" lon="1.64033">
        <ele>2439.4826660156</ele>
        <time>2012-06-09T13:34:03Z</time>
      </trkpt>
      <trkpt lat="42.63332" lon="1.64033">
        <ele>2438.521484375</ele>
        <time>2012-06-09T13:34:15Z</time>
      </trkpt>
      <trkpt lat="42.6333" lon="1.64035">
        <ele>2443.3278808594</ele>
        <time>2012-06-09T13:34:29Z</time>
      </trkpt>
      <trkpt lat="42.63331" lon="1.64036">
        <ele>2442.3666992188</ele>
        <time>2012-06-09T13:34:39Z</time>
      </trkpt>
      <trkpt lat="42.63331" lon="1.64034">
        <ele>2439.001953125</ele>
        <time>2012-06-09T13:35:17Z</time>
      </trkpt>
      <trkpt lat="42.63332" lon="1.64033">
        <ele>2439.9633789062</ele>
        <time>2012-06-09T13:35:24Z</time>
      </trkpt>
      <trkpt lat="42.63333" lon="1.64034">
        <ele>2441.4052734375</ele>
        <time>2012-06-09T13:35:37Z</time>
      </trkpt>
      <trkpt lat="42.6333" lon="1.64036">
        <ele>2440.4438476562</ele>
        <time>2012-06-09T13:35:44Z</time>
      </trkpt>
      <trkpt lat="42.63329" lon="1.64038">
        <ele>2442.3666992188</ele>
        <time>2012-06-09T13:35:50Z</time>
      </trkpt>
      <trkpt lat="42.63334" lon="1.64032">
        <ele>2438.521484375</ele>
        <time>2012-06-09T13:38:14Z</time>
      </trkpt>
      <trkpt lat="42.63331" lon="1.6403">
        <ele>2438.0407714844</ele>
        <time>2012-06-09T13:39:30Z</time>
      </trkpt>
      <trkpt lat="42.63332" lon="1.64033">
        <ele>2438.521484375</ele>
        <time>2012-06-09T13:39:56Z</time>
      </trkpt>
      <trkpt lat="42.63331" lon="1.64035">
        <ele>2438.521484375</ele>
        <time>2012-06-09T13:40:06Z</time>
      </trkpt>
      <trkpt lat="42.63328" lon="1.64034">
        <ele>2446.2121582031</ele>
        <time>2012-06-09T13:40:41Z</time>
      </trkpt>
      <trkpt lat="42.63329" lon="1.64033">
        <ele>2442.8471679688</ele>
        <time>2012-06-09T13:41:08Z</time>
      </trkpt>
      <trkpt lat="42.63329" lon="1.64033">
        <ele>2440.9245605469</ele>
        <time>2012-06-09T13:41:15Z</time>
      </trkpt>
      <trkpt lat="42.6333" lon="1.64034">
        <ele>2440.9245605469</ele>
        <time>2012-06-09T13:41:19Z</time>
      </trkpt>
      <trkpt lat="42.6333" lon="1.64033">
        <ele>2442.3666992188</ele>
        <time>2012-06-09T13:42:03Z</time>
      </trkpt>
      <trkpt lat="42.63331" lon="1.64033">
        <ele>2439.9633789062</ele>
        <time>2012-06-09T13:42:18Z</time>
      </trkpt>
      <trkpt lat="42.63332" lon="1.64032">
        <ele>2439.4826660156</ele>
        <time>2012-06-09T13:42:25Z</time>
      </trkpt>
      <trkpt lat="42.63333" lon="1.64031">
        <ele>2441.4052734375</ele>
        <time>2012-06-09T13:42:33Z</time>
      </trkpt>
      <trkpt lat="42.63333" lon="1.64029">
        <ele>2441.4052734375</ele>
        <time>2012-06-09T13:42:39Z</time>
      </trkpt>
      <trkpt lat="42.63335" lon="1.64023">
        <ele>2440.4438476562</ele>
        <time>2012-06-09T13:42:47Z</time>
      </trkpt>
      <trkpt lat="42.63337" lon="1.64017">
        <ele>2439.9633789062</ele>
        <time>2012-06-09T13:42:54Z</time>
      </trkpt>
      <trkpt lat="42.63338" lon="1.64014">
        <ele>2440.4438476562</ele>
        <time>2012-06-09T13:43:01Z</time>
      </trkpt>
      <trkpt lat="42.6334" lon="1.6401">
        <ele>2440.9245605469</ele>
        <time>2012-06-09T13:43:07Z</time>
      </trkpt>
      <trkpt lat="42.63341" lon="1.64006">
        <ele>2441.4052734375</ele>
        <time>2012-06-09T13:43:14Z</time>
      </trkpt>
      <trkpt lat="42.63343" lon="1.64003">
        <ele>2441.8859863281</ele>
        <time>2012-06-09T13:43:20Z</time>
      </trkpt>
      <trkpt lat="42.63345" lon="1.63997">
        <ele>2443.3278808594</ele>
        <time>2012-06-09T13:43:29Z</time>
      </trkpt>
      <trkpt lat="42.63345" lon="1.63992">
        <ele>2443.80859375</ele>
        <time>2012-06-09T13:43:36Z</time>
      </trkpt>
      <trkpt lat="42.63346" lon="1.63988">
        <ele>2444.2893066406</ele>
        <time>2012-06-09T13:43:41Z</time>
      </trkpt>
      <trkpt lat="42.63346" lon="1.63982">
        <ele>2444.2893066406</ele>
        <time>2012-06-09T13:43:49Z</time>
      </trkpt>
      <trkpt lat="42.63347" lon="1.63977">
        <ele>2445.2507324219</ele>
        <time>2012-06-09T13:43:56Z</time>
      </trkpt>
      <trkpt lat="42.63347" lon="1.63974">
        <ele>2447.1733398438</ele>
        <time>2012-06-09T13:44:01Z</time>
      </trkpt>
      <trkpt lat="42.63347" lon="1.6397">
        <ele>2448.1345214844</ele>
        <time>2012-06-09T13:44:07Z</time>
      </trkpt>
      <trkpt lat="42.63348" lon="1.63967">
        <ele>2448.615234375</ele>
        <time>2012-06-09T13:44:11Z</time>
      </trkpt>
      <trkpt lat="42.63349" lon="1.63962">
        <ele>2448.1345214844</ele>
        <time>2012-06-09T13:44:18Z</time>
      </trkpt>
      <trkpt lat="42.6335" lon="1.63958">
        <ele>2448.1345214844</ele>
        <time>2012-06-09T13:44:24Z</time>
      </trkpt>
      <trkpt lat="42.63351" lon="1.63952">
        <ele>2448.615234375</ele>
        <time>2012-06-09T13:44:31Z</time>
      </trkpt>
      <trkpt lat="42.63351" lon="1.63948">
        <ele>2449.5766601562</ele>
        <time>2012-06-09T13:44:37Z</time>
      </trkpt>
      <trkpt lat="42.63352" lon="1.63943">
        <ele>2449.5766601562</ele>
        <time>2012-06-09T13:44:42Z</time>
      </trkpt>
      <trkpt lat="42.63353" lon="1.63938">
        <ele>2451.9797363281</ele>
        <time>2012-06-09T13:44:50Z</time>
      </trkpt>
      <trkpt lat="42.63353" lon="1.63933">
        <ele>2453.421875</ele>
        <time>2012-06-09T13:44:57Z</time>
      </trkpt>
      <trkpt lat="42.63354" lon="1.6393">
        <ele>2454.3830566406</ele>
        <time>2012-06-09T13:45:02Z</time>
      </trkpt>
      <trkpt lat="42.63354" lon="1.63925">
        <ele>2455.8249511719</ele>
        <time>2012-06-09T13:45:09Z</time>
      </trkpt>
      <trkpt lat="42.63354" lon="1.6392">
        <ele>2457.7478027344</ele>
        <time>2012-06-09T13:45:16Z</time>
      </trkpt>
      <trkpt lat="42.63355" lon="1.63916">
        <ele>2458.2282714844</ele>
        <time>2012-06-09T13:45:23Z</time>
      </trkpt>
      <trkpt lat="42.63356" lon="1.63912">
        <ele>2458.708984375</ele>
        <time>2012-06-09T13:45:29Z</time>
      </trkpt>
      <trkpt lat="42.63357" lon="1.63909">
        <ele>2459.6701660156</ele>
        <time>2012-06-09T13:45:35Z</time>
      </trkpt>
      <trkpt lat="42.63357" lon="1.63905">
        <ele>2461.1125488281</ele>
        <time>2012-06-09T13:45:41Z</time>
      </trkpt>
      <trkpt lat="42.63356" lon="1.63902">
        <ele>2461.1125488281</ele>
        <time>2012-06-09T13:45:49Z</time>
      </trkpt>
      <trkpt lat="42.63356" lon="1.63898">
        <ele>2462.0737304688</ele>
        <time>2012-06-09T13:45:57Z</time>
      </trkpt>
      <trkpt lat="42.63356" lon="1.63894">
        <ele>2462.5544433594</ele>
        <time>2012-06-09T13:46:03Z</time>
      </trkpt>
      <trkpt lat="42.63356" lon="1.63891">
        <ele>2463.9963378906</ele>
        <time>2012-06-09T13:46:09Z</time>
      </trkpt>
      <trkpt lat="42.63356" lon="1.63888">
        <ele>2464.9577636719</ele>
        <time>2012-06-09T13:46:15Z</time>
      </trkpt>
      <trkpt lat="42.63356" lon="1.63885">
        <ele>2466.3996582031</ele>
        <time>2012-06-09T13:46:21Z</time>
      </trkpt>
      <trkpt lat="42.63357" lon="1.63882">
        <ele>2467.3608398438</ele>
        <time>2012-06-09T13:46:27Z</time>
      </trkpt>
      <trkpt lat="42.63358" lon="1.63878">
        <ele>2468.322265625</ele>
        <time>2012-06-09T13:46:33Z</time>
      </trkpt>
      <trkpt lat="42.63361" lon="1.63874">
        <ele>2469.7641601562</ele>
        <time>2012-06-09T13:46:40Z</time>
      </trkpt>
      <trkpt lat="42.63363" lon="1.6387">
        <ele>2471.2060546875</ele>
        <time>2012-06-09T13:46:48Z</time>
      </trkpt>
      <trkpt lat="42.63363" lon="1.63868">
        <ele>2471.6867675781</ele>
        <time>2012-06-09T13:46:53Z</time>
      </trkpt>
      <trkpt lat="42.63364" lon="1.63865">
        <ele>2472.6481933594</ele>
        <time>2012-06-09T13:47:00Z</time>
      </trkpt>
      <trkpt lat="42.63366" lon="1.63865">
        <ele>2469.7641601562</ele>
        <time>2012-06-09T13:47:22Z</time>
      </trkpt>
      <trkpt lat="42.63367" lon="1.63863">
        <ele>2471.2060546875</ele>
        <time>2012-06-09T13:47:29Z</time>
      </trkpt>
      <trkpt lat="42.63367" lon="1.63863">
        <ele>2471.6867675781</ele>
        <time>2012-06-09T13:47:42Z</time>
      </trkpt>
      <trkpt lat="42.63368" lon="1.63862">
        <ele>2473.609375</ele>
        <time>2012-06-09T13:47:57Z</time>
      </trkpt>
      <trkpt lat="42.63369" lon="1.6386">
        <ele>2473.609375</ele>
        <time>2012-06-09T13:48:06Z</time>
      </trkpt>
      <trkpt lat="42.6337" lon="1.63856">
        <ele>2475.5319824219</ele>
        <time>2012-06-09T13:48:13Z</time>
      </trkpt>
      <trkpt lat="42.6337" lon="1.63854">
        <ele>2477.4548339844</ele>
        <time>2012-06-09T13:48:21Z</time>
      </trkpt>
      <trkpt lat="42.63372" lon="1.63848">
        <ele>2479.3774414062</ele>
        <time>2012-06-09T13:48:29Z</time>
      </trkpt>
      <trkpt lat="42.63372" lon="1.63844">
        <ele>2480.8195800781</ele>
        <time>2012-06-09T13:48:36Z</time>
      </trkpt>
      <trkpt lat="42.63374" lon="1.63838">
        <ele>2482.7419433594</ele>
        <time>2012-06-09T13:48:45Z</time>
      </trkpt>
      <trkpt lat="42.63374" lon="1.63833">
        <ele>2483.7033691406</ele>
        <time>2012-06-09T13:48:53Z</time>
      </trkpt>
      <trkpt lat="42.63374" lon="1.63831">
        <ele>2484.1840820312</ele>
        <time>2012-06-09T13:49:00Z</time>
      </trkpt>
      <trkpt lat="42.63374" lon="1.63828">
        <ele>2485.1452636719</ele>
        <time>2012-06-09T13:49:09Z</time>
      </trkpt>
      <trkpt lat="42.63374" lon="1.63825">
        <ele>2486.1066894531</ele>
        <time>2012-06-09T13:49:15Z</time>
      </trkpt>
      <trkpt lat="42.63375" lon="1.63822">
        <ele>2487.5485839844</ele>
        <time>2012-06-09T13:49:22Z</time>
      </trkpt>
      <trkpt lat="42.63375" lon="1.63818">
        <ele>2489.4711914062</ele>
        <time>2012-06-09T13:49:29Z</time>
      </trkpt>
      <trkpt lat="42.63376" lon="1.63814">
        <ele>2490.9130859375</ele>
        <time>2012-06-09T13:49:37Z</time>
      </trkpt>
      <trkpt lat="42.63377" lon="1.63812">
        <ele>2491.8745117188</ele>
        <time>2012-06-09T13:49:45Z</time>
      </trkpt>
      <trkpt lat="42.63377" lon="1.63809">
        <ele>2493.3166503906</ele>
        <time>2012-06-09T13:49:52Z</time>
      </trkpt>
      <trkpt lat="42.63375" lon="1.63808">
        <ele>2499.0844726562</ele>
        <time>2012-06-09T13:50:05Z</time>
      </trkpt>
      <trkpt lat="42.63372" lon="1.63805">
        <ele>2504.3715820312</ele>
        <time>2012-06-09T13:50:14Z</time>
      </trkpt>
      <trkpt lat="42.63373" lon="1.63801">
        <ele>2502.9296875</ele>
        <time>2012-06-09T13:50:20Z</time>
      </trkpt>
      <trkpt lat="42.63374" lon="1.63798">
        <ele>2502.4489746094</ele>
        <time>2012-06-09T13:50:25Z</time>
      </trkpt>
      <trkpt lat="42.63374" lon="1.63795">
        <ele>2502.4489746094</ele>
        <time>2012-06-09T13:50:31Z</time>
      </trkpt>
      <trkpt lat="42.63374" lon="1.63791">
        <ele>2503.4104003906</ele>
        <time>2012-06-09T13:50:38Z</time>
      </trkpt>
      <trkpt lat="42.63372" lon="1.63785">
        <ele>2504.8522949219</ele>
        <time>2012-06-09T13:50:47Z</time>
      </trkpt>
      <trkpt lat="42.6337" lon="1.6378">
        <ele>2505.8134765625</ele>
        <time>2012-06-09T13:50:56Z</time>
      </trkpt>
      <trkpt lat="42.63369" lon="1.63776">
        <ele>2506.2941894531</ele>
        <time>2012-06-09T13:51:02Z</time>
      </trkpt>
      <trkpt lat="42.63368" lon="1.63774">
        <ele>2507.2556152344</ele>
        <time>2012-06-09T13:51:07Z</time>
      </trkpt>
      <trkpt lat="42.63367" lon="1.63772">
        <ele>2507.736328125</ele>
        <time>2012-06-09T13:51:11Z</time>
      </trkpt>
      <trkpt lat="42.63365" lon="1.6377">
        <ele>2509.1784667969</ele>
        <time>2012-06-09T13:51:18Z</time>
      </trkpt>
      <trkpt lat="42.63364" lon="1.63768">
        <ele>2509.1784667969</ele>
        <time>2012-06-09T13:51:24Z</time>
      </trkpt>
      <trkpt lat="42.63364" lon="1.63768">
        <ele>2509.6589355469</ele>
        <time>2012-06-09T13:51:33Z</time>
      </trkpt>
      <trkpt lat="42.63364" lon="1.63767">
        <ele>2511.1010742188</ele>
        <time>2012-06-09T13:51:59Z</time>
      </trkpt>
      <trkpt lat="42.63363" lon="1.63766">
        <ele>2511.5817871094</ele>
        <time>2012-06-09T13:52:05Z</time>
      </trkpt>
      <trkpt lat="42.63362" lon="1.63764">
        <ele>2512.54296875</ele>
        <time>2012-06-09T13:52:13Z</time>
      </trkpt>
      <trkpt lat="42.63361" lon="1.63763">
        <ele>2512.0622558594</ele>
        <time>2012-06-09T13:52:28Z</time>
      </trkpt>
      <trkpt lat="42.63363" lon="1.63761">
        <ele>2513.0236816406</ele>
        <time>2012-06-09T13:52:35Z</time>
      </trkpt>
      <trkpt lat="42.63365" lon="1.6376">
        <ele>2513.5041503906</ele>
        <time>2012-06-09T13:52:42Z</time>
      </trkpt>
      <trkpt lat="42.63367" lon="1.6376">
        <ele>2513.0236816406</ele>
        <time>2012-06-09T13:52:48Z</time>
      </trkpt>
      <trkpt lat="42.6337" lon="1.63759">
        <ele>2513.5041503906</ele>
        <time>2012-06-09T13:52:55Z</time>
      </trkpt>
      <trkpt lat="42.63374" lon="1.63759">
        <ele>2513.9848632812</ele>
        <time>2012-06-09T13:53:03Z</time>
      </trkpt>
      <trkpt lat="42.63377" lon="1.63758">
        <ele>2515.4270019531</ele>
        <time>2012-06-09T13:53:10Z</time>
      </trkpt>
      <trkpt lat="42.63379" lon="1.63758">
        <ele>2515.9074707031</ele>
        <time>2012-06-09T13:53:15Z</time>
      </trkpt>
      <trkpt lat="42.63381" lon="1.63757">
        <ele>2516.3881835938</ele>
        <time>2012-06-09T13:53:21Z</time>
      </trkpt>
      <trkpt lat="42.63383" lon="1.63757">
        <ele>2517.3493652344</ele>
        <time>2012-06-09T13:53:27Z</time>
      </trkpt>
      <trkpt lat="42.63385" lon="1.63757">
        <ele>2517.830078125</ele>
        <time>2012-06-09T13:53:32Z</time>
      </trkpt>
      <trkpt lat="42.63387" lon="1.63757">
        <ele>2518.7915039062</ele>
        <time>2012-06-09T13:53:36Z</time>
      </trkpt>
      <trkpt lat="42.6339" lon="1.63757">
        <ele>2519.7526855469</ele>
        <time>2012-06-09T13:53:51Z</time>
      </trkpt>
      <trkpt lat="42.63392" lon="1.63757">
        <ele>2521.6752929688</ele>
        <time>2012-06-09T13:53:57Z</time>
      </trkpt>
      <trkpt lat="42.63393" lon="1.63757">
        <ele>2523.1174316406</ele>
        <time>2012-06-09T13:54:01Z</time>
      </trkpt>
      <trkpt lat="42.63396" lon="1.63757">
        <ele>2526.0014648438</ele>
        <time>2012-06-09T13:54:08Z</time>
      </trkpt>
      <trkpt lat="42.63399" lon="1.63758">
        <ele>2526.0014648438</ele>
        <time>2012-06-09T13:54:16Z</time>
      </trkpt>
      <trkpt lat="42.634" lon="1.63758">
        <ele>2527.443359375</ele>
        <time>2012-06-09T13:54:21Z</time>
      </trkpt>
      <trkpt lat="42.63402" lon="1.63759">
        <ele>2527.9240722656</ele>
        <time>2012-06-09T13:54:26Z</time>
      </trkpt>
      <trkpt lat="42.63404" lon="1.63761">
        <ele>2528.8852539062</ele>
        <time>2012-06-09T13:54:32Z</time>
      </trkpt>
      <trkpt lat="42.63406" lon="1.63763">
        <ele>2531.7692871094</ele>
        <time>2012-06-09T13:54:39Z</time>
      </trkpt>
      <trkpt lat="42.63407" lon="1.63762">
        <ele>2532.25</ele>
        <time>2012-06-09T13:54:43Z</time>
      </trkpt>
      <trkpt lat="42.63409" lon="1.63762">
        <ele>2533.6918945312</ele>
        <time>2012-06-09T13:54:48Z</time>
      </trkpt>
      <trkpt lat="42.6341" lon="1.6376">
        <ele>2535.1337890625</ele>
        <time>2012-06-09T13:54:56Z</time>
      </trkpt>
      <trkpt lat="42.63412" lon="1.63761">
        <ele>2537.0563964844</ele>
        <time>2012-06-09T13:55:03Z</time>
      </trkpt>
      <trkpt lat="42.63414" lon="1.63761">
        <ele>2538.4985351562</ele>
        <time>2012-06-09T13:55:10Z</time>
      </trkpt>
      <trkpt lat="42.63415" lon="1.63762">
        <ele>2539.9404296875</ele>
        <time>2012-06-09T13:55:15Z</time>
      </trkpt>
      <trkpt lat="42.63417" lon="1.63763">
        <ele>2541.3825683594</ele>
        <time>2012-06-09T13:55:21Z</time>
      </trkpt>
      <trkpt lat="42.63418" lon="1.63763">
        <ele>2541.86328125</ele>
        <time>2012-06-09T13:55:28Z</time>
      </trkpt>
      <trkpt lat="42.63419" lon="1.63761">
        <ele>2542.8244628906</ele>
        <time>2012-06-09T13:55:33Z</time>
      </trkpt>
      <trkpt lat="42.63419" lon="1.63762">
        <ele>2542.3439941406</ele>
        <time>2012-06-09T13:55:40Z</time>
      </trkpt>
      <trkpt lat="42.63421" lon="1.6376">
        <ele>2543.7858886719</ele>
        <time>2012-06-09T13:55:45Z</time>
      </trkpt>
      <trkpt lat="42.63423" lon="1.63759">
        <ele>2544.2663574219</ele>
        <time>2012-06-09T13:55:50Z</time>
      </trkpt>
      <trkpt lat="42.63426" lon="1.63757">
        <ele>2544.2663574219</ele>
        <time>2012-06-09T13:55:56Z</time>
      </trkpt>
      <trkpt lat="42.63425" lon="1.63757">
        <ele>2545.2277832031</ele>
        <time>2012-06-09T13:56:03Z</time>
      </trkpt>
      <trkpt lat="42.63424" lon="1.63753">
        <ele>2545.7084960938</ele>
        <time>2012-06-09T13:56:10Z</time>
      </trkpt>
      <trkpt lat="42.63424" lon="1.63751">
        <ele>2546.1892089844</ele>
        <time>2012-06-09T13:56:16Z</time>
      </trkpt>
      <trkpt lat="42.63421" lon="1.63744">
        <ele>2546.6696777344</ele>
        <time>2012-06-09T13:56:23Z</time>
      </trkpt>
      <trkpt lat="42.63419" lon="1.63738">
        <ele>2547.6311035156</ele>
        <time>2012-06-09T13:56:31Z</time>
      </trkpt>
      <trkpt lat="42.63416" lon="1.63732">
        <ele>2548.1115722656</ele>
        <time>2012-06-09T13:56:38Z</time>
      </trkpt>
      <trkpt lat="42.63412" lon="1.63727">
        <ele>2548.1115722656</ele>
        <time>2012-06-09T13:56:46Z</time>
      </trkpt>
      <trkpt lat="42.63406" lon="1.63718">
        <ele>2548.1115722656</ele>
        <time>2012-06-09T13:56:55Z</time>
      </trkpt>
      <trkpt lat="42.63402" lon="1.63714">
        <ele>2548.1115722656</ele>
        <time>2012-06-09T13:57:01Z</time>
      </trkpt>
      <trkpt lat="42.63397" lon="1.63709">
        <ele>2547.6311035156</ele>
        <time>2012-06-09T13:57:09Z</time>
      </trkpt>
      <trkpt lat="42.63392" lon="1.63706">
        <ele>2547.150390625</ele>
        <time>2012-06-09T13:57:18Z</time>
      </trkpt>
      <trkpt lat="42.63388" lon="1.63704">
        <ele>2545.7084960938</ele>
        <time>2012-06-09T13:57:24Z</time>
      </trkpt>
      <trkpt lat="42.63383" lon="1.63702">
        <ele>2544.7470703125</ele>
        <time>2012-06-09T13:57:33Z</time>
      </trkpt>
      <trkpt lat="42.6338" lon="1.63699">
        <ele>2543.7858886719</ele>
        <time>2012-06-09T13:57:40Z</time>
      </trkpt>
      <trkpt lat="42.63377" lon="1.63694">
        <ele>2542.3439941406</ele>
        <time>2012-06-09T13:57:47Z</time>
      </trkpt>
      <trkpt lat="42.63374" lon="1.6369">
        <ele>2540.9018554688</ele>
        <time>2012-06-09T13:57:54Z</time>
      </trkpt>
      <trkpt lat="42.63371" lon="1.63689">
        <ele>2540.4211425781</ele>
        <time>2012-06-09T13:58:01Z</time>
      </trkpt>
      <trkpt lat="42.63365" lon="1.63688">
        <ele>2539.9404296875</ele>
        <time>2012-06-09T13:58:08Z</time>
      </trkpt>
      <trkpt lat="42.63363" lon="1.63686">
        <ele>2539.4597167969</ele>
        <time>2012-06-09T13:58:14Z</time>
      </trkpt>
      <trkpt lat="42.63357" lon="1.63683">
        <ele>2538.0178222656</ele>
        <time>2012-06-09T13:58:21Z</time>
      </trkpt>
      <trkpt lat="42.63353" lon="1.63683">
        <ele>2536.5756835938</ele>
        <time>2012-06-09T13:58:28Z</time>
      </trkpt>
      <trkpt lat="42.63347" lon="1.63683">
        <ele>2535.1337890625</ele>
        <time>2012-06-09T13:58:35Z</time>
      </trkpt>
      <trkpt lat="42.63345" lon="1.63683">
        <ele>2534.1726074219</ele>
        <time>2012-06-09T13:58:42Z</time>
      </trkpt>
      <trkpt lat="42.63342" lon="1.63683">
        <ele>2533.6918945312</ele>
        <time>2012-06-09T13:58:48Z</time>
      </trkpt>
      <trkpt lat="42.63337" lon="1.63685">
        <ele>2532.73046875</ele>
        <time>2012-06-09T13:58:55Z</time>
      </trkpt>
      <trkpt lat="42.63335" lon="1.63686">
        <ele>2533.2111816406</ele>
        <time>2012-06-09T13:59:00Z</time>
      </trkpt>
      <trkpt lat="42.63335" lon="1.63686">
        <ele>2533.6918945312</ele>
        <time>2012-06-09T13:59:06Z</time>
      </trkpt>
      <trkpt lat="42.63334" lon="1.63685">
        <ele>2534.6533203125</ele>
        <time>2012-06-09T13:59:17Z</time>
      </trkpt>
      <trkpt lat="42.63333" lon="1.63681">
        <ele>2534.1726074219</ele>
        <time>2012-06-09T13:59:23Z</time>
      </trkpt>
      <trkpt lat="42.63331" lon="1.63676">
        <ele>2532.73046875</ele>
        <time>2012-06-09T13:59:30Z</time>
      </trkpt>
      <trkpt lat="42.63328" lon="1.63673">
        <ele>2531.2885742188</ele>
        <time>2012-06-09T13:59:37Z</time>
      </trkpt>
      <trkpt lat="42.63328" lon="1.63672">
        <ele>2530.8081054688</ele>
        <time>2012-06-09T13:59:47Z</time>
      </trkpt>
      <trkpt lat="42.63328" lon="1.63672">
        <ele>2530.8081054688</ele>
        <time>2012-06-09T14:00:20Z</time>
      </trkpt>
      <trkpt lat="42.63328" lon="1.63671">
        <ele>2530.3273925781</ele>
        <time>2012-06-09T14:00:34Z</time>
      </trkpt>
      <trkpt lat="42.63329" lon="1.6367">
        <ele>2531.7692871094</ele>
        <time>2012-06-09T14:00:47Z</time>
      </trkpt>
      <trkpt lat="42.6333" lon="1.63672">
        <ele>2528.4047851562</ele>
        <time>2012-06-09T14:01:21Z</time>
      </trkpt>
      <trkpt lat="42.6333" lon="1.63672">
        <ele>2527.443359375</ele>
        <time>2012-06-09T14:01:36Z</time>
      </trkpt>
      <trkpt lat="42.63328" lon="1.6367">
        <ele>2527.9240722656</ele>
        <time>2012-06-09T14:02:04Z</time>
      </trkpt>
      <trkpt lat="42.63327" lon="1.63671">
        <ele>2527.443359375</ele>
        <time>2012-06-09T14:02:18Z</time>
      </trkpt>
      <trkpt lat="42.63326" lon="1.63671">
        <ele>2527.9240722656</ele>
        <time>2012-06-09T14:02:37Z</time>
      </trkpt>
      <trkpt lat="42.63325" lon="1.6367">
        <ele>2528.8852539062</ele>
        <time>2012-06-09T14:03:00Z</time>
      </trkpt>
      <trkpt lat="42.63325" lon="1.63669">
        <ele>2528.4047851562</ele>
        <time>2012-06-09T14:03:07Z</time>
      </trkpt>
      <trkpt lat="42.63323" lon="1.63664">
        <ele>2526.4821777344</ele>
        <time>2012-06-09T14:03:14Z</time>
      </trkpt>
      <trkpt lat="42.6332" lon="1.63658">
        <ele>2525.5207519531</ele>
        <time>2012-06-09T14:03:19Z</time>
      </trkpt>
      <trkpt lat="42.63319" lon="1.63652">
        <ele>2523.5979003906</ele>
        <time>2012-06-09T14:03:24Z</time>
      </trkpt>
      <trkpt lat="42.63319" lon="1.6365">
        <ele>2523.1174316406</ele>
        <time>2012-06-09T14:03:26Z</time>
      </trkpt>
      <trkpt lat="42.63317" lon="1.63641">
        <ele>2521.1945800781</ele>
        <time>2012-06-09T14:03:34Z</time>
      </trkpt>
      <trkpt lat="42.63316" lon="1.63639">
        <ele>2520.7141113281</ele>
        <time>2012-06-09T14:03:40Z</time>
      </trkpt>
      <trkpt lat="42.63316" lon="1.63634">
        <ele>2518.7915039062</ele>
        <time>2012-06-09T14:03:46Z</time>
      </trkpt>
      <trkpt lat="42.63316" lon="1.6363">
        <ele>2517.830078125</ele>
        <time>2012-06-09T14:03:50Z</time>
      </trkpt>
      <trkpt lat="42.63314" lon="1.63625">
        <ele>2517.3493652344</ele>
        <time>2012-06-09T14:03:55Z</time>
      </trkpt>
      <trkpt lat="42.63311" lon="1.63618">
        <ele>2517.3493652344</ele>
        <time>2012-06-09T14:04:02Z</time>
      </trkpt>
      <trkpt lat="42.6331" lon="1.63611">
        <ele>2515.9074707031</ele>
        <time>2012-06-09T14:04:09Z</time>
      </trkpt>
      <trkpt lat="42.63309" lon="1.63603">
        <ele>2514.9462890625</ele>
        <time>2012-06-09T14:04:16Z</time>
      </trkpt>
      <trkpt lat="42.63306" lon="1.63597">
        <ele>2514.9462890625</ele>
        <time>2012-06-09T14:04:21Z</time>
      </trkpt>
      <trkpt lat="42.63305" lon="1.63591">
        <ele>2514.4655761719</ele>
        <time>2012-06-09T14:04:27Z</time>
      </trkpt>
      <trkpt lat="42.63304" lon="1.63586">
        <ele>2513.9848632812</ele>
        <time>2012-06-09T14:04:32Z</time>
      </trkpt>
      <trkpt lat="42.63302" lon="1.63583">
        <ele>2513.5041503906</ele>
        <time>2012-06-09T14:04:36Z</time>
      </trkpt>
      <trkpt lat="42.63302" lon="1.63579">
        <ele>2512.54296875</ele>
        <time>2012-06-09T14:04:39Z</time>
      </trkpt>
      <trkpt lat="42.63301" lon="1.63575">
        <ele>2509.6589355469</ele>
        <time>2012-06-09T14:04:46Z</time>
      </trkpt>
      <trkpt lat="42.63302" lon="1.63573">
        <ele>2509.1784667969</ele>
        <time>2012-06-09T14:04:49Z</time>
      </trkpt>
      <trkpt lat="42.633" lon="1.63569">
        <ele>2507.736328125</ele>
        <time>2012-06-09T14:04:55Z</time>
      </trkpt>
      <trkpt lat="42.63298" lon="1.63565">
        <ele>2505.8134765625</ele>
        <time>2012-06-09T14:05:01Z</time>
      </trkpt>
      <trkpt lat="42.63298" lon="1.63562">
        <ele>2505.3330078125</ele>
        <time>2012-06-09T14:05:07Z</time>
      </trkpt>
      <trkpt lat="42.63298" lon="1.6356">
        <ele>2504.8522949219</ele>
        <time>2012-06-09T14:05:11Z</time>
      </trkpt>
      <trkpt lat="42.63297" lon="1.63558">
        <ele>2505.8134765625</ele>
        <time>2012-06-09T14:05:16Z</time>
      </trkpt>
      <trkpt lat="42.63294" lon="1.63556">
        <ele>2504.8522949219</ele>
        <time>2012-06-09T14:05:21Z</time>
      </trkpt>
      <trkpt lat="42.63293" lon="1.63552">
        <ele>2503.4104003906</ele>
        <time>2012-06-09T14:05:30Z</time>
      </trkpt>
      <trkpt lat="42.63292" lon="1.63549">
        <ele>2502.4489746094</ele>
        <time>2012-06-09T14:05:35Z</time>
      </trkpt>
      <trkpt lat="42.63291" lon="1.63546">
        <ele>2501.9682617188</ele>
        <time>2012-06-09T14:05:43Z</time>
      </trkpt>
      <trkpt lat="42.6329" lon="1.63542">
        <ele>2501.4877929688</ele>
        <time>2012-06-09T14:05:56Z</time>
      </trkpt>
      <trkpt lat="42.63288" lon="1.63539">
        <ele>2500.0458984375</ele>
        <time>2012-06-09T14:06:03Z</time>
      </trkpt>
      <trkpt lat="42.63287" lon="1.63538">
        <ele>2499.5651855469</ele>
        <time>2012-06-09T14:06:08Z</time>
      </trkpt>
      <trkpt lat="42.63285" lon="1.63535">
        <ele>2499.0844726562</ele>
        <time>2012-06-09T14:06:15Z</time>
      </trkpt>
      <trkpt lat="42.63284" lon="1.63533">
        <ele>2498.6037597656</ele>
        <time>2012-06-09T14:06:20Z</time>
      </trkpt>
      <trkpt lat="42.63283" lon="1.63531">
        <ele>2497.642578125</ele>
        <time>2012-06-09T14:06:25Z</time>
      </trkpt>
      <trkpt lat="42.63283" lon="1.63527">
        <ele>2497.642578125</ele>
        <time>2012-06-09T14:06:31Z</time>
      </trkpt>
      <trkpt lat="42.63284" lon="1.63525">
        <ele>2496.2006835938</ele>
        <time>2012-06-09T14:06:37Z</time>
      </trkpt>
      <trkpt lat="42.63284" lon="1.63525">
        <ele>2494.7585449219</ele>
        <time>2012-06-09T14:06:44Z</time>
      </trkpt>
      <trkpt lat="42.63281" lon="1.63525">
        <ele>2496.6811523438</ele>
        <time>2012-06-09T14:06:59Z</time>
      </trkpt>
      <trkpt lat="42.63289" lon="1.63527">
        <ele>2495.2392578125</ele>
        <time>2012-06-09T14:07:13Z</time>
      </trkpt>
      <trkpt lat="42.63287" lon="1.63527">
        <ele>2495.7199707031</ele>
        <time>2012-06-09T14:07:54Z</time>
      </trkpt>
      <trkpt lat="42.63287" lon="1.63525">
        <ele>2496.6811523438</ele>
        <time>2012-06-09T14:08:23Z</time>
      </trkpt>
      <trkpt lat="42.63285" lon="1.63525">
        <ele>2495.7199707031</ele>
        <time>2012-06-09T14:08:37Z</time>
      </trkpt>
      <trkpt lat="42.63287" lon="1.63522">
        <ele>2492.35546875</ele>
        <time>2012-06-09T14:09:05Z</time>
      </trkpt>
      <trkpt lat="42.63288" lon="1.6352">
        <ele>2490.9130859375</ele>
        <time>2012-06-09T14:09:10Z</time>
      </trkpt>
      <trkpt lat="42.63288" lon="1.63516">
        <ele>2489.9519042969</ele>
        <time>2012-06-09T14:09:15Z</time>
      </trkpt>
      <trkpt lat="42.63286" lon="1.63515">
        <ele>2487.0678710938</ele>
        <time>2012-06-09T14:10:16Z</time>
      </trkpt>
      <trkpt lat="42.63285" lon="1.63509">
        <ele>2486.1066894531</ele>
        <time>2012-06-09T14:10:21Z</time>
      </trkpt>
      <trkpt lat="42.63284" lon="1.63504">
        <ele>2485.1452636719</ele>
        <time>2012-06-09T14:10:27Z</time>
      </trkpt>
      <trkpt lat="42.6328" lon="1.63498">
        <ele>2484.1840820312</ele>
        <time>2012-06-09T14:10:34Z</time>
      </trkpt>
      <trkpt lat="42.63279" lon="1.63499">
        <ele>2483.7033691406</ele>
        <time>2012-06-09T14:10:37Z</time>
      </trkpt>
      <trkpt lat="42.63277" lon="1.63494">
        <ele>2482.7419433594</ele>
        <time>2012-06-09T14:10:43Z</time>
      </trkpt>
      <trkpt lat="42.63277" lon="1.63488">
        <ele>2481.7807617188</ele>
        <time>2012-06-09T14:10:48Z</time>
      </trkpt>
      <trkpt lat="42.63275" lon="1.63483">
        <ele>2480.8195800781</ele>
        <time>2012-06-09T14:10:54Z</time>
      </trkpt>
      <trkpt lat="42.63275" lon="1.63479">
        <ele>2479.8581542969</ele>
        <time>2012-06-09T14:10:59Z</time>
      </trkpt>
      <trkpt lat="42.63275" lon="1.63478">
        <ele>2479.8581542969</ele>
        <time>2012-06-09T14:11:08Z</time>
      </trkpt>
      <trkpt lat="42.63279" lon="1.63479">
        <ele>2478.8967285156</ele>
        <time>2012-06-09T14:11:31Z</time>
      </trkpt>
      <trkpt lat="42.63284" lon="1.6348">
        <ele>2477.935546875</ele>
        <time>2012-06-09T14:11:39Z</time>
      </trkpt>
      <trkpt lat="42.63289" lon="1.63481">
        <ele>2476.4936523438</ele>
        <time>2012-06-09T14:11:46Z</time>
      </trkpt>
      <trkpt lat="42.63294" lon="1.63484">
        <ele>2475.5319824219</ele>
        <time>2012-06-09T14:11:53Z</time>
      </trkpt>
      <trkpt lat="42.633" lon="1.63485">
        <ele>2474.0900878906</ele>
        <time>2012-06-09T14:12:00Z</time>
      </trkpt>
      <trkpt lat="42.63306" lon="1.63484">
        <ele>2471.6867675781</ele>
        <time>2012-06-09T14:12:08Z</time>
      </trkpt>
      <trkpt lat="42.63308" lon="1.63487">
        <ele>2470.7255859375</ele>
        <time>2012-06-09T14:12:13Z</time>
      </trkpt>
      <trkpt lat="42.63311" lon="1.63489">
        <ele>2469.7641601562</ele>
        <time>2012-06-09T14:12:18Z</time>
      </trkpt>
      <trkpt lat="42.63313" lon="1.6349">
        <ele>2468.322265625</ele>
        <time>2012-06-09T14:12:23Z</time>
      </trkpt>
      <trkpt lat="42.63315" lon="1.63491">
        <ele>2467.8415527344</ele>
        <time>2012-06-09T14:12:31Z</time>
      </trkpt>
      <trkpt lat="42.63317" lon="1.6349">
        <ele>2466.3996582031</ele>
        <time>2012-06-09T14:12:37Z</time>
      </trkpt>
      <trkpt lat="42.63318" lon="1.63488">
        <ele>2464.9577636719</ele>
        <time>2012-06-09T14:12:43Z</time>
      </trkpt>
      <trkpt lat="42.63317" lon="1.63483">
        <ele>2463.515625</ele>
        <time>2012-06-09T14:12:49Z</time>
      </trkpt>
      <trkpt lat="42.6332" lon="1.63481">
        <ele>2461.5932617188</ele>
        <time>2012-06-09T14:12:54Z</time>
      </trkpt>
      <trkpt lat="42.63322" lon="1.63482">
        <ele>2459.6701660156</ele>
        <time>2012-06-09T14:13:00Z</time>
      </trkpt>
      <trkpt lat="42.63324" lon="1.63483">
        <ele>2458.708984375</ele>
        <time>2012-06-09T14:13:05Z</time>
      </trkpt>
      <trkpt lat="42.63326" lon="1.63481">
        <ele>2456.7863769531</ele>
        <time>2012-06-09T14:13:11Z</time>
      </trkpt>
      <trkpt lat="42.63327" lon="1.63479">
        <ele>2455.3444824219</ele>
        <time>2012-06-09T14:13:16Z</time>
      </trkpt>
      <trkpt lat="42.63327" lon="1.63476">
        <ele>2453.9025878906</ele>
        <time>2012-06-09T14:13:23Z</time>
      </trkpt>
      <trkpt lat="42.63327" lon="1.63472">
        <ele>2451.9797363281</ele>
        <time>2012-06-09T14:13:30Z</time>
      </trkpt>
      <trkpt lat="42.63328" lon="1.63469">
        <ele>2450.5378417969</ele>
        <time>2012-06-09T14:13:35Z</time>
      </trkpt>
      <trkpt lat="42.63328" lon="1.63466">
        <ele>2448.615234375</ele>
        <time>2012-06-09T14:13:46Z</time>
      </trkpt>
      <trkpt lat="42.63328" lon="1.63464">
        <ele>2447.6540527344</ele>
        <time>2012-06-09T14:13:57Z</time>
      </trkpt>
      <trkpt lat="42.63327" lon="1.63459">
        <ele>2446.2121582031</ele>
        <time>2012-06-09T14:14:05Z</time>
      </trkpt>
      <trkpt lat="42.63326" lon="1.63454">
        <ele>2444.7700195312</ele>
        <time>2012-06-09T14:14:11Z</time>
      </trkpt>
      <trkpt lat="42.63324" lon="1.6345">
        <ele>2442.8471679688</ele>
        <time>2012-06-09T14:14:15Z</time>
      </trkpt>
      <trkpt lat="42.63322" lon="1.63443">
        <ele>2439.9633789062</ele>
        <time>2012-06-09T14:14:23Z</time>
      </trkpt>
      <trkpt lat="42.63321" lon="1.63438">
        <ele>2437.5600585938</ele>
        <time>2012-06-09T14:14:30Z</time>
      </trkpt>
      <trkpt lat="42.63319" lon="1.63431">
        <ele>2436.5986328125</ele>
        <time>2012-06-09T14:14:37Z</time>
      </trkpt>
      <trkpt lat="42.63318" lon="1.63427">
        <ele>2434.6762695312</ele>
        <time>2012-06-09T14:14:41Z</time>
      </trkpt>
      <trkpt lat="42.63318" lon="1.63422">
        <ele>2433.2341308594</ele>
        <time>2012-06-09T14:14:46Z</time>
      </trkpt>
      <trkpt lat="42.63318" lon="1.63415">
        <ele>2430.8310546875</ele>
        <time>2012-06-09T14:14:53Z</time>
      </trkpt>
      <trkpt lat="42.63318" lon="1.63412">
        <ele>2429.3889160156</ele>
        <time>2012-06-09T14:14:58Z</time>
      </trkpt>
      <trkpt lat="42.63319" lon="1.63408">
        <ele>2429.3889160156</ele>
        <time>2012-06-09T14:15:06Z</time>
      </trkpt>
      <trkpt lat="42.6332" lon="1.63403">
        <ele>2426.9855957031</ele>
        <time>2012-06-09T14:15:12Z</time>
      </trkpt>
      <trkpt lat="42.63322" lon="1.634">
        <ele>2425.0627441406</ele>
        <time>2012-06-09T14:15:19Z</time>
      </trkpt>
      <trkpt lat="42.63325" lon="1.63395">
        <ele>2422.6596679688</ele>
        <time>2012-06-09T14:15:25Z</time>
      </trkpt>
      <trkpt lat="42.63328" lon="1.63394">
        <ele>2421.2175292969</ele>
        <time>2012-06-09T14:15:30Z</time>
      </trkpt>
      <trkpt lat="42.6333" lon="1.63389">
        <ele>2420.2563476562</ele>
        <time>2012-06-09T14:15:36Z</time>
      </trkpt>
      <trkpt lat="42.63332" lon="1.63384">
        <ele>2418.3337402344</ele>
        <time>2012-06-09T14:15:42Z</time>
      </trkpt>
      <trkpt lat="42.63334" lon="1.6338">
        <ele>2416.8918457031</ele>
        <time>2012-06-09T14:15:47Z</time>
      </trkpt>
      <trkpt lat="42.63335" lon="1.63377">
        <ele>2415.4499511719</ele>
        <time>2012-06-09T14:15:51Z</time>
      </trkpt>
      <trkpt lat="42.63336" lon="1.63373">
        <ele>2413.5270996094</ele>
        <time>2012-06-09T14:15:56Z</time>
      </trkpt>
      <trkpt lat="42.63338" lon="1.63368">
        <ele>2412.0852050781</ele>
        <time>2012-06-09T14:16:01Z</time>
      </trkpt>
      <trkpt lat="42.63337" lon="1.63365">
        <ele>2410.6430664062</ele>
        <time>2012-06-09T14:16:05Z</time>
      </trkpt>
      <trkpt lat="42.63337" lon="1.63361">
        <ele>2409.681640625</ele>
        <time>2012-06-09T14:16:10Z</time>
      </trkpt>
      <trkpt lat="42.63337" lon="1.63358">
        <ele>2408.2397460938</ele>
        <time>2012-06-09T14:16:15Z</time>
      </trkpt>
      <trkpt lat="42.63339" lon="1.63353">
        <ele>2406.7978515625</ele>
        <time>2012-06-09T14:16:21Z</time>
      </trkpt>
      <trkpt lat="42.63341" lon="1.63349">
        <ele>2403.9140625</ele>
        <time>2012-06-09T14:16:26Z</time>
      </trkpt>
      <trkpt lat="42.63344" lon="1.63345">
        <ele>2401.5107421875</ele>
        <time>2012-06-09T14:16:33Z</time>
      </trkpt>
      <trkpt lat="42.63344" lon="1.63343">
        <ele>2400.5493164062</ele>
        <time>2012-06-09T14:16:41Z</time>
      </trkpt>
      <trkpt lat="42.63345" lon="1.63342">
        <ele>2399.5881347656</ele>
        <time>2012-06-09T14:16:47Z</time>
      </trkpt>
      <trkpt lat="42.63348" lon="1.63342">
        <ele>2398.1459960938</ele>
        <time>2012-06-09T14:16:53Z</time>
      </trkpt>
      <trkpt lat="42.63351" lon="1.63339">
        <ele>2396.2236328125</ele>
        <time>2012-06-09T14:17:00Z</time>
      </trkpt>
      <trkpt lat="42.63354" lon="1.63334">
        <ele>2395.7426757812</ele>
        <time>2012-06-09T14:17:07Z</time>
      </trkpt>
      <trkpt lat="42.63355" lon="1.63333">
        <ele>2395.2619628906</ele>
        <time>2012-06-09T14:17:12Z</time>
      </trkpt>
      <trkpt lat="42.63356" lon="1.63329">
        <ele>2394.78125</ele>
        <time>2012-06-09T14:17:19Z</time>
      </trkpt>
      <trkpt lat="42.63357" lon="1.63327">
        <ele>2393.3393554688</ele>
        <time>2012-06-09T14:17:24Z</time>
      </trkpt>
      <trkpt lat="42.63362" lon="1.63326">
        <ele>2391.8974609375</ele>
        <time>2012-06-09T14:17:31Z</time>
      </trkpt>
      <trkpt lat="42.63364" lon="1.63323">
        <ele>2390.9360351562</ele>
        <time>2012-06-09T14:17:37Z</time>
      </trkpt>
      <trkpt lat="42.63366" lon="1.63315">
        <ele>2389.0134277344</ele>
        <time>2012-06-09T14:17:45Z</time>
      </trkpt>
      <trkpt lat="42.63367" lon="1.6331">
        <ele>2387.0908203125</ele>
        <time>2012-06-09T14:17:52Z</time>
      </trkpt>
      <trkpt lat="42.63367" lon="1.63307">
        <ele>2386.1296386719</ele>
        <time>2012-06-09T14:17:57Z</time>
      </trkpt>
      <trkpt lat="42.63368" lon="1.63301">
        <ele>2384.6877441406</ele>
        <time>2012-06-09T14:18:05Z</time>
      </trkpt>
      <trkpt lat="42.63371" lon="1.63297">
        <ele>2383.2456054688</ele>
        <time>2012-06-09T14:18:10Z</time>
      </trkpt>
      <trkpt lat="42.63372" lon="1.63295">
        <ele>2382.7648925781</ele>
        <time>2012-06-09T14:18:18Z</time>
      </trkpt>
      <trkpt lat="42.63375" lon="1.63292">
        <ele>2381.8037109375</ele>
        <time>2012-06-09T14:18:24Z</time>
      </trkpt>
      <trkpt lat="42.63379" lon="1.63287">
        <ele>2380.3618164062</ele>
        <time>2012-06-09T14:18:30Z</time>
      </trkpt>
      <trkpt lat="42.63384" lon="1.63279">
        <ele>2377.4775390625</ele>
        <time>2012-06-09T14:18:38Z</time>
      </trkpt>
      <trkpt lat="42.6339" lon="1.63267">
        <ele>2373.6323242188</ele>
        <time>2012-06-09T14:18:47Z</time>
      </trkpt>
      <trkpt lat="42.63394" lon="1.63258">
        <ele>2371.7097167969</ele>
        <time>2012-06-09T14:18:54Z</time>
      </trkpt>
      <trkpt lat="42.63393" lon="1.63255">
        <ele>2372.6711425781</ele>
        <time>2012-06-09T14:19:01Z</time>
      </trkpt>
      <trkpt lat="42.6339" lon="1.63247">
        <ele>2374.59375</ele>
        <time>2012-06-09T14:19:08Z</time>
      </trkpt>
      <trkpt lat="42.63391" lon="1.63242">
        <ele>2375.5549316406</ele>
        <time>2012-06-09T14:19:11Z</time>
      </trkpt>
      <trkpt lat="42.63391" lon="1.63234">
        <ele>2375.07421875</ele>
        <time>2012-06-09T14:19:17Z</time>
      </trkpt>
      <trkpt lat="42.63395" lon="1.63223">
        <ele>2373.1518554688</ele>
        <time>2012-06-09T14:19:25Z</time>
      </trkpt>
      <trkpt lat="42.63394" lon="1.6322">
        <ele>2372.6711425781</ele>
        <time>2012-06-09T14:19:27Z</time>
      </trkpt>
      <trkpt lat="42.63395" lon="1.6321">
        <ele>2369.306640625</ele>
        <time>2012-06-09T14:19:35Z</time>
      </trkpt>
      <trkpt lat="42.63395" lon="1.63203">
        <ele>2366.4226074219</ele>
        <time>2012-06-09T14:19:41Z</time>
      </trkpt>
      <trkpt lat="42.63396" lon="1.63191">
        <ele>2362.0964355469</ele>
        <time>2012-06-09T14:19:50Z</time>
      </trkpt>
      <trkpt lat="42.63396" lon="1.63186">
        <ele>2359.2126464844</ele>
        <time>2012-06-09T14:19:55Z</time>
      </trkpt>
      <trkpt lat="42.63398" lon="1.6318">
        <ele>2356.3286132812</ele>
        <time>2012-06-09T14:20:01Z</time>
      </trkpt>
      <trkpt lat="42.63398" lon="1.63175">
        <ele>2353.4448242188</ele>
        <time>2012-06-09T14:20:06Z</time>
      </trkpt>
      <trkpt lat="42.63398" lon="1.6317">
        <ele>2351.5222167969</ele>
        <time>2012-06-09T14:20:12Z</time>
      </trkpt>
      <trkpt lat="42.63395" lon="1.63169">
        <ele>2349.1188964844</ele>
        <time>2012-06-09T14:20:18Z</time>
      </trkpt>
      <trkpt lat="42.63391" lon="1.63167">
        <ele>2347.1960449219</ele>
        <time>2012-06-09T14:20:23Z</time>
      </trkpt>
      <trkpt lat="42.63388" lon="1.63165">
        <ele>2345.2734375</ele>
        <time>2012-06-09T14:20:26Z</time>
      </trkpt>
      <trkpt lat="42.63386" lon="1.63163">
        <ele>2344.7927246094</ele>
        <time>2012-06-09T14:20:28Z</time>
      </trkpt>
      <trkpt lat="42.63383" lon="1.6316">
        <ele>2342.8701171875</ele>
        <time>2012-06-09T14:20:33Z</time>
      </trkpt>
      <trkpt lat="42.63382" lon="1.63154">
        <ele>2339.986328125</ele>
        <time>2012-06-09T14:20:39Z</time>
      </trkpt>
      <trkpt lat="42.63383" lon="1.63146">
        <ele>2337.5830078125</ele>
        <time>2012-06-09T14:20:44Z</time>
      </trkpt>
      <trkpt lat="42.63384" lon="1.63143">
        <ele>2337.1022949219</ele>
        <time>2012-06-09T14:20:50Z</time>
      </trkpt>
      <trkpt lat="42.63386" lon="1.63141">
        <ele>2338.0637207031</ele>
        <time>2012-06-09T14:20:56Z</time>
      </trkpt>
      <trkpt lat="42.63386" lon="1.63141">
        <ele>2338.5444335938</ele>
        <time>2012-06-09T14:20:57Z</time>
      </trkpt>
      <trkpt lat="42.6339" lon="1.63142">
        <ele>2336.1411132812</ele>
        <time>2012-06-09T14:21:06Z</time>
      </trkpt>
      <trkpt lat="42.63397" lon="1.63145">
        <ele>2331.3342285156</ele>
        <time>2012-06-09T14:21:12Z</time>
      </trkpt>
      <trkpt lat="42.63404" lon="1.63148">
        <ele>2327.0085449219</ele>
        <time>2012-06-09T14:21:22Z</time>
      </trkpt>
      <trkpt lat="42.63397" lon="1.63144">
        <ele>2327.9697265625</ele>
        <time>2012-06-09T14:21:29Z</time>
      </trkpt>
      <trkpt lat="42.63396" lon="1.63141">
        <ele>2327.9697265625</ele>
        <time>2012-06-09T14:21:31Z</time>
      </trkpt>
      <trkpt lat="42.63395" lon="1.63131">
        <ele>2326.5278320312</ele>
        <time>2012-06-09T14:21:40Z</time>
      </trkpt>
      <trkpt lat="42.63393" lon="1.63123">
        <ele>2324.1245117188</ele>
        <time>2012-06-09T14:21:47Z</time>
      </trkpt>
      <trkpt lat="42.6339" lon="1.63118">
        <ele>2323.1633300781</ele>
        <time>2012-06-09T14:21:51Z</time>
      </trkpt>
      <trkpt lat="42.63385" lon="1.63109">
        <ele>2321.7211914062</ele>
        <time>2012-06-09T14:21:58Z</time>
      </trkpt>
      <trkpt lat="42.63384" lon="1.63107">
        <ele>2321.2404785156</ele>
        <time>2012-06-09T14:21:59Z</time>
      </trkpt>
      <trkpt lat="42.63381" lon="1.63097">
        <ele>2318.8374023438</ele>
        <time>2012-06-09T14:22:06Z</time>
      </trkpt>
      <trkpt lat="42.63377" lon="1.63091">
        <ele>2317.8759765625</ele>
        <time>2012-06-09T14:22:13Z</time>
      </trkpt>
      <trkpt lat="42.63372" lon="1.63089">
        <ele>2317.8759765625</ele>
        <time>2012-06-09T14:22:18Z</time>
      </trkpt>
      <trkpt lat="42.63367" lon="1.63084">
        <ele>2315.953125</ele>
        <time>2012-06-09T14:22:25Z</time>
      </trkpt>
      <trkpt lat="42.63367" lon="1.63071">
        <ele>2313.0693359375</ele>
        <time>2012-06-09T14:22:34Z</time>
      </trkpt>
      <trkpt lat="42.63363" lon="1.63062">
        <ele>2311.1467285156</ele>
        <time>2012-06-09T14:22:42Z</time>
      </trkpt>
      <trkpt lat="42.63361" lon="1.63057">
        <ele>2311.1467285156</ele>
        <time>2012-06-09T14:22:45Z</time>
      </trkpt>
      <trkpt lat="42.63361" lon="1.63044">
        <ele>2308.2626953125</ele>
        <time>2012-06-09T14:22:53Z</time>
      </trkpt>
      <trkpt lat="42.63361" lon="1.63041">
        <ele>2307.3015136719</ele>
        <time>2012-06-09T14:22:55Z</time>
      </trkpt>
      <trkpt lat="42.6336" lon="1.63035">
        <ele>2305.37890625</ele>
        <time>2012-06-09T14:22:59Z</time>
      </trkpt>
      <trkpt lat="42.63355" lon="1.63024">
        <ele>2302.4948730469</ele>
        <time>2012-06-09T14:23:07Z</time>
      </trkpt>
      <trkpt lat="42.63353" lon="1.63017">
        <ele>2300.091796875</ele>
        <time>2012-06-09T14:23:14Z</time>
      </trkpt>
      <trkpt lat="42.63351" lon="1.63012">
        <ele>2298.6494140625</ele>
        <time>2012-06-09T14:23:19Z</time>
      </trkpt>
      <trkpt lat="42.63351" lon="1.63006">
        <ele>2296.7268066406</ele>
        <time>2012-06-09T14:23:24Z</time>
      </trkpt>
      <trkpt lat="42.63352" lon="1.63003">
        <ele>2294.8041992188</ele>
        <time>2012-06-09T14:23:29Z</time>
      </trkpt>
      <trkpt lat="42.63351" lon="1.62998">
        <ele>2293.3623046875</ele>
        <time>2012-06-09T14:23:36Z</time>
      </trkpt>
      <trkpt lat="42.63351" lon="1.62992">
        <ele>2290.4782714844</ele>
        <time>2012-06-09T14:23:42Z</time>
      </trkpt>
      <trkpt lat="42.63351" lon="1.62989">
        <ele>2288.5559082031</ele>
        <time>2012-06-09T14:23:47Z</time>
      </trkpt>
      <trkpt lat="42.63349" lon="1.62979">
        <ele>2285.1911621094</ele>
        <time>2012-06-09T14:23:55Z</time>
      </trkpt>
      <trkpt lat="42.63349" lon="1.62968">
        <ele>2284.7106933594</ele>
        <time>2012-06-09T14:24:02Z</time>
      </trkpt>
      <trkpt lat="42.63348" lon="1.62958">
        <ele>2283.7490234375</ele>
        <time>2012-06-09T14:24:09Z</time>
      </trkpt>
      <trkpt lat="42.63349" lon="1.62947">
        <ele>2282.3071289062</ele>
        <time>2012-06-09T14:24:17Z</time>
      </trkpt>
      <trkpt lat="42.63353" lon="1.62936">
        <ele>2280.3845214844</ele>
        <time>2012-06-09T14:24:25Z</time>
      </trkpt>
      <trkpt lat="42.63358" lon="1.62929">
        <ele>2280.865234375</ele>
        <time>2012-06-09T14:24:33Z</time>
      </trkpt>
      <trkpt lat="42.63363" lon="1.62919">
        <ele>2280.865234375</ele>
        <time>2012-06-09T14:24:41Z</time>
      </trkpt>
      <trkpt lat="42.63363" lon="1.62917">
        <ele>2280.3845214844</ele>
        <time>2012-06-09T14:24:43Z</time>
      </trkpt>
      <trkpt lat="42.63364" lon="1.62909">
        <ele>2278.4619140625</ele>
        <time>2012-06-09T14:24:50Z</time>
      </trkpt>
      <trkpt lat="42.63368" lon="1.62903">
        <ele>2275.5778808594</ele>
        <time>2012-06-09T14:24:57Z</time>
      </trkpt>
      <trkpt lat="42.63374" lon="1.62897">
        <ele>2272.6940917969</ele>
        <time>2012-06-09T14:25:04Z</time>
      </trkpt>
      <trkpt lat="42.63377" lon="1.62896">
        <ele>2271.7326660156</ele>
        <time>2012-06-09T14:25:07Z</time>
      </trkpt>
      <trkpt lat="42.6338" lon="1.62892">
        <ele>2270.771484375</ele>
        <time>2012-06-09T14:25:12Z</time>
      </trkpt>
      <trkpt lat="42.63385" lon="1.62889">
        <ele>2267.8872070312</ele>
        <time>2012-06-09T14:25:18Z</time>
      </trkpt>
      <trkpt lat="42.63389" lon="1.62884">
        <ele>2267.4064941406</ele>
        <time>2012-06-09T14:25:24Z</time>
      </trkpt>
      <trkpt lat="42.63393" lon="1.62879">
        <ele>2266.4453125</ele>
        <time>2012-06-09T14:25:30Z</time>
      </trkpt>
      <trkpt lat="42.63395" lon="1.62876">
        <ele>2265.0034179688</ele>
        <time>2012-06-09T14:25:35Z</time>
      </trkpt>
      <trkpt lat="42.63397" lon="1.62876">
        <ele>2263.0808105469</ele>
        <time>2012-06-09T14:25:40Z</time>
      </trkpt>
      <trkpt lat="42.63398" lon="1.62873">
        <ele>2261.6389160156</ele>
        <time>2012-06-09T14:25:48Z</time>
      </trkpt>
      <trkpt lat="42.63399" lon="1.62873">
        <ele>2263.5612792969</ele>
        <time>2012-06-09T14:26:29Z</time>
      </trkpt>
      <trkpt lat="42.63398" lon="1.62873">
        <ele>2261.158203125</ele>
        <time>2012-06-09T14:26:41Z</time>
      </trkpt>
      <trkpt lat="42.63403" lon="1.62873">
        <ele>2261.158203125</ele>
        <time>2012-06-09T14:27:21Z</time>
      </trkpt>
      <trkpt lat="42.63402" lon="1.62871">
        <ele>2254.4289550781</ele>
        <time>2012-06-09T14:28:07Z</time>
      </trkpt>
      <trkpt lat="42.63404" lon="1.62871">
        <ele>2253.4677734375</ele>
        <time>2012-06-09T14:28:43Z</time>
      </trkpt>
      <trkpt lat="42.6341" lon="1.62873">
        <ele>2252.5063476562</ele>
        <time>2012-06-09T14:28:50Z</time>
      </trkpt>
      <trkpt lat="42.63412" lon="1.62875">
        <ele>2252.5063476562</ele>
        <time>2012-06-09T14:28:53Z</time>
      </trkpt>
      <trkpt lat="42.63416" lon="1.62877">
        <ele>2251.544921875</ele>
        <time>2012-06-09T14:28:57Z</time>
      </trkpt>
      <trkpt lat="42.63422" lon="1.6288">
        <ele>2249.6223144531</ele>
        <time>2012-06-09T14:29:04Z</time>
      </trkpt>
      <trkpt lat="42.63426" lon="1.6288">
        <ele>2248.1801757812</ele>
        <time>2012-06-09T14:29:10Z</time>
      </trkpt>
      <trkpt lat="42.63429" lon="1.6288">
        <ele>2246.73828125</ele>
        <time>2012-06-09T14:29:13Z</time>
      </trkpt>
      <trkpt lat="42.63434" lon="1.62881">
        <ele>2244.3349609375</ele>
        <time>2012-06-09T14:29:19Z</time>
      </trkpt>
      <trkpt lat="42.63439" lon="1.62882">
        <ele>2241.451171875</ele>
        <time>2012-06-09T14:29:26Z</time>
      </trkpt>
      <trkpt lat="42.63446" lon="1.62883">
        <ele>2239.5285644531</ele>
        <time>2012-06-09T14:29:34Z</time>
      </trkpt>
      <trkpt lat="42.6345" lon="1.62885">
        <ele>2238.5673828125</ele>
        <time>2012-06-09T14:29:38Z</time>
      </trkpt>
      <trkpt lat="42.63455" lon="1.62888">
        <ele>2237.6059570312</ele>
        <time>2012-06-09T14:29:43Z</time>
      </trkpt>
      <trkpt lat="42.63459" lon="1.62889">
        <ele>2237.1252441406</ele>
        <time>2012-06-09T14:29:48Z</time>
      </trkpt>
      <trkpt lat="42.63463" lon="1.62889">
        <ele>2236.64453125</ele>
        <time>2012-06-09T14:29:54Z</time>
      </trkpt>
      <trkpt lat="42.63468" lon="1.62887">
        <ele>2235.2023925781</ele>
        <time>2012-06-09T14:29:59Z</time>
      </trkpt>
      <trkpt lat="42.63472" lon="1.62884">
        <ele>2234.2412109375</ele>
        <time>2012-06-09T14:30:04Z</time>
      </trkpt>
      <trkpt lat="42.63477" lon="1.62881">
        <ele>2233.2797851562</ele>
        <time>2012-06-09T14:30:10Z</time>
      </trkpt>
      <trkpt lat="42.63481" lon="1.6288">
        <ele>2231.837890625</ele>
        <time>2012-06-09T14:30:15Z</time>
      </trkpt>
      <trkpt lat="42.63484" lon="1.62877">
        <ele>2230.3959960938</ele>
        <time>2012-06-09T14:30:19Z</time>
      </trkpt>
      <trkpt lat="42.63489" lon="1.62872">
        <ele>2227.9926757812</ele>
        <time>2012-06-09T14:30:25Z</time>
      </trkpt>
      <trkpt lat="42.63496" lon="1.6287">
        <ele>2227.0314941406</ele>
        <time>2012-06-09T14:30:31Z</time>
      </trkpt>
      <trkpt lat="42.63499" lon="1.62866">
        <ele>2227.5119628906</ele>
        <time>2012-06-09T14:30:35Z</time>
      </trkpt>
      <trkpt lat="42.63502" lon="1.62862">
        <ele>2227.0314941406</ele>
        <time>2012-06-09T14:30:38Z</time>
      </trkpt>
      <trkpt lat="42.63509" lon="1.62862">
        <ele>2227.5119628906</ele>
        <time>2012-06-09T14:30:44Z</time>
      </trkpt>
      <trkpt lat="42.63514" lon="1.62863">
        <ele>2227.0314941406</ele>
        <time>2012-06-09T14:30:48Z</time>
      </trkpt>
      <trkpt lat="42.63519" lon="1.62861">
        <ele>2225.1086425781</ele>
        <time>2012-06-09T14:30:53Z</time>
      </trkpt>
      <trkpt lat="42.63526" lon="1.62859">
        <ele>2223.1862792969</ele>
        <time>2012-06-09T14:30:59Z</time>
      </trkpt>
      <trkpt lat="42.6353" lon="1.62858">
        <ele>2220.3022460938</ele>
        <time>2012-06-09T14:31:05Z</time>
      </trkpt>
      <trkpt lat="42.63535" lon="1.62856">
        <ele>2216.9375</ele>
        <time>2012-06-09T14:31:13Z</time>
      </trkpt>
      <trkpt lat="42.63538" lon="1.62857">
        <ele>2214.0534667969</ele>
        <time>2012-06-09T14:31:51Z</time>
      </trkpt>
      <trkpt lat="42.6354" lon="1.62858">
        <ele>2212.6115722656</ele>
        <time>2012-06-09T14:31:57Z</time>
      </trkpt>
      <trkpt lat="42.63542" lon="1.62856">
        <ele>2212.130859375</ele>
        <time>2012-06-09T14:32:01Z</time>
      </trkpt>
      <trkpt lat="42.63544" lon="1.62856">
        <ele>2210.6889648438</ele>
        <time>2012-06-09T14:32:05Z</time>
      </trkpt>
      <trkpt lat="42.63548" lon="1.62857">
        <ele>2208.2856445312</ele>
        <time>2012-06-09T14:32:15Z</time>
      </trkpt>
      <trkpt lat="42.6355" lon="1.62858">
        <ele>2206.3630371094</ele>
        <time>2012-06-09T14:32:20Z</time>
      </trkpt>
      <trkpt lat="42.63553" lon="1.62859">
        <ele>2205.8823242188</ele>
        <time>2012-06-09T14:32:25Z</time>
      </trkpt>
      <trkpt lat="42.63557" lon="1.6286">
        <ele>2206.3630371094</ele>
        <time>2012-06-09T14:32:30Z</time>
      </trkpt>
      <trkpt lat="42.6356" lon="1.62862">
        <ele>2204.4404296875</ele>
        <time>2012-06-09T14:32:36Z</time>
      </trkpt>
      <trkpt lat="42.63564" lon="1.62864">
        <ele>2202.0368652344</ele>
        <time>2012-06-09T14:32:42Z</time>
      </trkpt>
      <trkpt lat="42.63567" lon="1.62866">
        <ele>2200.5949707031</ele>
        <time>2012-06-09T14:32:47Z</time>
      </trkpt>
      <trkpt lat="42.6357" lon="1.62868">
        <ele>2199.6337890625</ele>
        <time>2012-06-09T14:32:51Z</time>
      </trkpt>
      <trkpt lat="42.63573" lon="1.6287">
        <ele>2198.6723632812</ele>
        <time>2012-06-09T14:32:58Z</time>
      </trkpt>
      <trkpt lat="42.63577" lon="1.62869">
        <ele>2196.7497558594</ele>
        <time>2012-06-09T14:33:02Z</time>
      </trkpt>
      <trkpt lat="42.6358" lon="1.62868">
        <ele>2194.8271484375</ele>
        <time>2012-06-09T14:33:06Z</time>
      </trkpt>
      <trkpt lat="42.63583" lon="1.62867">
        <ele>2192.4240722656</ele>
        <time>2012-06-09T14:33:12Z</time>
      </trkpt>
      <trkpt lat="42.63587" lon="1.62867">
        <ele>2190.5012207031</ele>
        <time>2012-06-09T14:33:17Z</time>
      </trkpt>
      <trkpt lat="42.63591" lon="1.62865">
        <ele>2188.0981445312</ele>
        <time>2012-06-09T14:33:22Z</time>
      </trkpt>
      <trkpt lat="42.63596" lon="1.62865">
        <ele>2184.2526855469</ele>
        <time>2012-06-09T14:33:28Z</time>
      </trkpt>
      <trkpt lat="42.63598" lon="1.62866">
        <ele>2183.2912597656</ele>
        <time>2012-06-09T14:33:33Z</time>
      </trkpt>
      <trkpt lat="42.63601" lon="1.62866">
        <ele>2183.7719726562</ele>
        <time>2012-06-09T14:33:38Z</time>
      </trkpt>
      <trkpt lat="42.63604" lon="1.62865">
        <ele>2182.330078125</ele>
        <time>2012-06-09T14:33:43Z</time>
      </trkpt>
      <trkpt lat="42.63608" lon="1.62865">
        <ele>2180.4074707031</ele>
        <time>2012-06-09T14:33:49Z</time>
      </trkpt>
      <trkpt lat="42.63609" lon="1.62864">
        <ele>2178.4848632812</ele>
        <time>2012-06-09T14:33:57Z</time>
      </trkpt>
      <trkpt lat="42.63607" lon="1.62862">
        <ele>2177.04296875</ele>
        <time>2012-06-09T14:34:15Z</time>
      </trkpt>
      <trkpt lat="42.63606" lon="1.62858">
        <ele>2175.6008300781</ele>
        <time>2012-06-09T14:34:19Z</time>
      </trkpt>
      <trkpt lat="42.63605" lon="1.62854">
        <ele>2174.6396484375</ele>
        <time>2012-06-09T14:34:23Z</time>
      </trkpt>
      <trkpt lat="42.63602" lon="1.62849">
        <ele>2171.7553710938</ele>
        <time>2012-06-09T14:34:29Z</time>
      </trkpt>
      <trkpt lat="42.63601" lon="1.62844">
        <ele>2169.8327636719</ele>
        <time>2012-06-09T14:34:34Z</time>
      </trkpt>
      <trkpt lat="42.63599" lon="1.62841">
        <ele>2168.8715820312</ele>
        <time>2012-06-09T14:34:38Z</time>
      </trkpt>
      <trkpt lat="42.63597" lon="1.62836">
        <ele>2167.91015625</ele>
        <time>2012-06-09T14:34:43Z</time>
      </trkpt>
      <trkpt lat="42.63597" lon="1.62831">
        <ele>2167.4294433594</ele>
        <time>2012-06-09T14:34:49Z</time>
      </trkpt>
      <trkpt lat="42.63597" lon="1.62828">
        <ele>2165.9875488281</ele>
        <time>2012-06-09T14:34:53Z</time>
      </trkpt>
      <trkpt lat="42.63598" lon="1.62824">
        <ele>2163.1037597656</ele>
        <time>2012-06-09T14:34:59Z</time>
      </trkpt>
      <trkpt lat="42.63601" lon="1.62821">
        <ele>2161.6618652344</ele>
        <time>2012-06-09T14:35:03Z</time>
      </trkpt>
      <trkpt lat="42.63604" lon="1.6282">
        <ele>2159.7390136719</ele>
        <time>2012-06-09T14:35:07Z</time>
      </trkpt>
      <trkpt lat="42.63607" lon="1.62818">
        <ele>2157.3359375</ele>
        <time>2012-06-09T14:35:12Z</time>
      </trkpt>
      <trkpt lat="42.63613" lon="1.62818">
        <ele>2154.4516601562</ele>
        <time>2012-06-09T14:35:19Z</time>
      </trkpt>
      <trkpt lat="42.63612" lon="1.62815">
        <ele>2152.0483398438</ele>
        <time>2012-06-09T14:35:22Z</time>
      </trkpt>
      <trkpt lat="42.63614" lon="1.62811">
        <ele>2150.1259765625</ele>
        <time>2012-06-09T14:35:26Z</time>
      </trkpt>
      <trkpt lat="42.63617" lon="1.6281">
        <ele>2148.203125</ele>
        <time>2012-06-09T14:35:30Z</time>
      </trkpt>
      <trkpt lat="42.63622" lon="1.62809">
        <ele>2145.8000488281</ele>
        <time>2012-06-09T14:35:35Z</time>
      </trkpt>
      <trkpt lat="42.63625" lon="1.62809">
        <ele>2144.8386230469</ele>
        <time>2012-06-09T14:35:41Z</time>
      </trkpt>
      <trkpt lat="42.6363" lon="1.62807">
        <ele>2141.4741210938</ele>
        <time>2012-06-09T14:35:47Z</time>
      </trkpt>
      <trkpt lat="42.63633" lon="1.62806">
        <ele>2140.5126953125</ele>
        <time>2012-06-09T14:35:50Z</time>
      </trkpt>
      <trkpt lat="42.63635" lon="1.62806">
        <ele>2138.109375</ele>
        <time>2012-06-09T14:35:57Z</time>
      </trkpt>
      <trkpt lat="42.63639" lon="1.62804">
        <ele>2136.6672363281</ele>
        <time>2012-06-09T14:36:01Z</time>
      </trkpt>
      <trkpt lat="42.63642" lon="1.62804">
        <ele>2134.7448730469</ele>
        <time>2012-06-09T14:36:06Z</time>
      </trkpt>
      <trkpt lat="42.63646" lon="1.62803">
        <ele>2132.3415527344</ele>
        <time>2012-06-09T14:36:15Z</time>
      </trkpt>
      <trkpt lat="42.6365" lon="1.62802">
        <ele>2129.9382324219</ele>
        <time>2012-06-09T14:36:19Z</time>
      </trkpt>
      <trkpt lat="42.63653" lon="1.62801">
        <ele>2128.015625</ele>
        <time>2012-06-09T14:36:24Z</time>
      </trkpt>
      <trkpt lat="42.63656" lon="1.62801">
        <ele>2126.0930175781</ele>
        <time>2012-06-09T14:36:30Z</time>
      </trkpt>
      <trkpt lat="42.63661" lon="1.628">
        <ele>2124.1704101562</ele>
        <time>2012-06-09T14:36:37Z</time>
      </trkpt>
      <trkpt lat="42.63665" lon="1.628">
        <ele>2123.208984375</ele>
        <time>2012-06-09T14:36:43Z</time>
      </trkpt>
      <trkpt lat="42.63668" lon="1.628">
        <ele>2122.7282714844</ele>
        <time>2012-06-09T14:36:48Z</time>
      </trkpt>
      <trkpt lat="42.63675" lon="1.62799">
        <ele>2121.2861328125</ele>
        <time>2012-06-09T14:36:55Z</time>
      </trkpt>
      <trkpt lat="42.63678" lon="1.62798">
        <ele>2120.3249511719</ele>
        <time>2012-06-09T14:37:00Z</time>
      </trkpt>
      <trkpt lat="42.63681" lon="1.62796">
        <ele>2118.40234375</ele>
        <time>2012-06-09T14:37:06Z</time>
      </trkpt>
      <trkpt lat="42.63683" lon="1.62793">
        <ele>2116.9604492188</ele>
        <time>2012-06-09T14:37:10Z</time>
      </trkpt>
      <trkpt lat="42.63687" lon="1.62791">
        <ele>2114.0764160156</ele>
        <time>2012-06-09T14:37:16Z</time>
      </trkpt>
      <trkpt lat="42.63689" lon="1.62789">
        <ele>2112.1538085938</ele>
        <time>2012-06-09T14:37:20Z</time>
      </trkpt>
      <trkpt lat="42.63691" lon="1.62787">
        <ele>2110.7119140625</ele>
        <time>2012-06-09T14:37:24Z</time>
      </trkpt>
      <trkpt lat="42.63692" lon="1.62782">
        <ele>2108.30859375</ele>
        <time>2012-06-09T14:37:36Z</time>
      </trkpt>
      <trkpt lat="42.63695" lon="1.62779">
        <ele>2107.8278808594</ele>
        <time>2012-06-09T14:37:41Z</time>
      </trkpt>
      <trkpt lat="42.63699" lon="1.62777">
        <ele>2106.8664550781</ele>
        <time>2012-06-09T14:37:46Z</time>
      </trkpt>
      <trkpt lat="42.63703" lon="1.62773">
        <ele>2104.4631347656</ele>
        <time>2012-06-09T14:37:52Z</time>
      </trkpt>
      <trkpt lat="42.63706" lon="1.62771">
        <ele>2103.0212402344</ele>
        <time>2012-06-09T14:37:56Z</time>
      </trkpt>
      <trkpt lat="42.63712" lon="1.62766">
        <ele>2100.6179199219</ele>
        <time>2012-06-09T14:38:03Z</time>
      </trkpt>
      <trkpt lat="42.63714" lon="1.62764">
        <ele>2098.6953125</ele>
        <time>2012-06-09T14:38:07Z</time>
      </trkpt>
      <trkpt lat="42.63718" lon="1.62762">
        <ele>2097.2534179688</ele>
        <time>2012-06-09T14:38:12Z</time>
      </trkpt>
      <trkpt lat="42.63724" lon="1.62757">
        <ele>2093.8889160156</ele>
        <time>2012-06-09T14:38:19Z</time>
      </trkpt>
      <trkpt lat="42.63728" lon="1.62752">
        <ele>2091.0046386719</ele>
        <time>2012-06-09T14:38:26Z</time>
      </trkpt>
      <trkpt lat="42.63731" lon="1.62747">
        <ele>2089.5627441406</ele>
        <time>2012-06-09T14:38:32Z</time>
      </trkpt>
      <trkpt lat="42.63732" lon="1.62741">
        <ele>2087.6401367188</ele>
        <time>2012-06-09T14:38:37Z</time>
      </trkpt>
      <trkpt lat="42.63734" lon="1.62738">
        <ele>2086.1982421875</ele>
        <time>2012-06-09T14:38:41Z</time>
      </trkpt>
      <trkpt lat="42.63736" lon="1.62734">
        <ele>2084.2756347656</ele>
        <time>2012-06-09T14:38:48Z</time>
      </trkpt>
      <trkpt lat="42.63738" lon="1.62732">
        <ele>2083.3142089844</ele>
        <time>2012-06-09T14:38:54Z</time>
      </trkpt>
      <trkpt lat="42.63741" lon="1.62729">
        <ele>2082.8334960938</ele>
        <time>2012-06-09T14:38:58Z</time>
      </trkpt>
      <trkpt lat="42.63747" lon="1.62724">
        <ele>2082.8334960938</ele>
        <time>2012-06-09T14:39:04Z</time>
      </trkpt>
      <trkpt lat="42.63751" lon="1.62722">
        <ele>2081.8723144531</ele>
        <time>2012-06-09T14:39:08Z</time>
      </trkpt>
      <trkpt lat="42.63755" lon="1.62719">
        <ele>2082.3530273438</ele>
        <time>2012-06-09T14:39:13Z</time>
      </trkpt>
      <trkpt lat="42.63757" lon="1.62713">
        <ele>2080.9111328125</ele>
        <time>2012-06-09T14:39:18Z</time>
      </trkpt>
      <trkpt lat="42.63759" lon="1.62708">
        <ele>2079.4689941406</ele>
        <time>2012-06-09T14:39:23Z</time>
      </trkpt>
      <trkpt lat="42.6376" lon="1.62703">
        <ele>2078.5078125</ele>
        <time>2012-06-09T14:39:28Z</time>
      </trkpt>
      <trkpt lat="42.6376" lon="1.62698">
        <ele>2077.0659179688</ele>
        <time>2012-06-09T14:39:33Z</time>
      </trkpt>
      <trkpt lat="42.63762" lon="1.62689">
        <ele>2075.6235351562</ele>
        <time>2012-06-09T14:39:40Z</time>
      </trkpt>
      <trkpt lat="42.63763" lon="1.62686">
        <ele>2075.1428222656</ele>
        <time>2012-06-09T14:39:42Z</time>
      </trkpt>
      <trkpt lat="42.6377" lon="1.62677">
        <ele>2074.181640625</ele>
        <time>2012-06-09T14:39:50Z</time>
      </trkpt>
      <trkpt lat="42.63774" lon="1.62673">
        <ele>2074.181640625</ele>
        <time>2012-06-09T14:39:54Z</time>
      </trkpt>
      <trkpt lat="42.63781" lon="1.62661">
        <ele>2075.6235351562</ele>
        <time>2012-06-09T14:40:03Z</time>
      </trkpt>
      <trkpt lat="42.63787" lon="1.62652">
        <ele>2076.5852050781</ele>
        <time>2012-06-09T14:40:11Z</time>
      </trkpt>
      <trkpt lat="42.63788" lon="1.62649">
        <ele>2077.5463867188</ele>
        <time>2012-06-09T14:40:17Z</time>
      </trkpt>
      <trkpt lat="42.63791" lon="1.62643">
        <ele>2076.5852050781</ele>
        <time>2012-06-09T14:40:27Z</time>
      </trkpt>
      <trkpt lat="42.63788" lon="1.62639">
        <ele>2074.6623535156</ele>
        <time>2012-06-09T14:40:33Z</time>
      </trkpt>
      <trkpt lat="42.63785" lon="1.62634">
        <ele>2074.181640625</ele>
        <time>2012-06-09T14:40:39Z</time>
      </trkpt>
      <trkpt lat="42.63789" lon="1.62633">
        <ele>2073.7009277344</ele>
        <time>2012-06-09T14:40:45Z</time>
      </trkpt>
      <trkpt lat="42.63794" lon="1.62633">
        <ele>2073.2204589844</ele>
        <time>2012-06-09T14:40:50Z</time>
      </trkpt>
      <trkpt lat="42.63799" lon="1.62634">
        <ele>2073.2204589844</ele>
        <time>2012-06-09T14:40:56Z</time>
      </trkpt>
      <trkpt lat="42.63803" lon="1.62634">
        <ele>2073.2204589844</ele>
        <time>2012-06-09T14:40:59Z</time>
      </trkpt>
      <trkpt lat="42.63807" lon="1.62633">
        <ele>2069.8557128906</ele>
        <time>2012-06-09T14:41:07Z</time>
      </trkpt>
      <trkpt lat="42.63809" lon="1.62631">
        <ele>2067.4523925781</ele>
        <time>2012-06-09T14:41:10Z</time>
      </trkpt>
      <trkpt lat="42.63816" lon="1.62629">
        <ele>2064.5686035156</ele>
        <time>2012-06-09T14:41:19Z</time>
      </trkpt>
      <trkpt lat="42.63821" lon="1.62626">
        <ele>2064.087890625</ele>
        <time>2012-06-09T14:41:25Z</time>
      </trkpt>
      <trkpt lat="42.63821" lon="1.62626">
        <ele>2064.5686035156</ele>
        <time>2012-06-09T14:41:30Z</time>
      </trkpt>
      <trkpt lat="42.6382" lon="1.62624">
        <ele>2065.0493164062</ele>
        <time>2012-06-09T14:41:41Z</time>
      </trkpt>
      <trkpt lat="42.63819" lon="1.62622">
        <ele>2063.6071777344</ele>
        <time>2012-06-09T14:41:49Z</time>
      </trkpt>
      <trkpt lat="42.6382" lon="1.62617">
        <ele>2062.6459960938</ele>
        <time>2012-06-09T14:41:56Z</time>
      </trkpt>
      <trkpt lat="42.63823" lon="1.62614">
        <ele>2063.1267089844</ele>
        <time>2012-06-09T14:42:00Z</time>
      </trkpt>
      <trkpt lat="42.63831" lon="1.62612">
        <ele>2063.6071777344</ele>
        <time>2012-06-09T14:42:07Z</time>
      </trkpt>
      <trkpt lat="42.63832" lon="1.62611">
        <ele>2063.6071777344</ele>
        <time>2012-06-09T14:42:08Z</time>
      </trkpt>
      <trkpt lat="42.63836" lon="1.62607">
        <ele>2063.1267089844</ele>
        <time>2012-06-09T14:42:12Z</time>
      </trkpt>
      <trkpt lat="42.63839" lon="1.62606">
        <ele>2064.5686035156</ele>
        <time>2012-06-09T14:42:16Z</time>
      </trkpt>
      <trkpt lat="42.63849" lon="1.62606">
        <ele>2064.5686035156</ele>
        <time>2012-06-09T14:42:25Z</time>
      </trkpt>
      <trkpt lat="42.6386" lon="1.62608">
        <ele>2062.1652832031</ele>
        <time>2012-06-09T14:42:33Z</time>
      </trkpt>
      <trkpt lat="42.63869" lon="1.62607">
        <ele>2063.6071777344</ele>
        <time>2012-06-09T14:42:40Z</time>
      </trkpt>
      <trkpt lat="42.63877" lon="1.62604">
        <ele>2064.5686035156</ele>
        <time>2012-06-09T14:42:46Z</time>
      </trkpt>
      <trkpt lat="42.63884" lon="1.62607">
        <ele>2063.1267089844</ele>
        <time>2012-06-09T14:42:52Z</time>
      </trkpt>
      <trkpt lat="42.63894" lon="1.62608">
        <ele>2064.087890625</ele>
        <time>2012-06-09T14:43:01Z</time>
      </trkpt>
      <trkpt lat="42.63902" lon="1.62608">
        <ele>2064.5686035156</ele>
        <time>2012-06-09T14:43:08Z</time>
      </trkpt>
      <trkpt lat="42.6391" lon="1.62614">
        <ele>2065.5300292969</ele>
        <time>2012-06-09T14:43:15Z</time>
      </trkpt>
      <trkpt lat="42.63913" lon="1.62619">
        <ele>2065.0493164062</ele>
        <time>2012-06-09T14:43:19Z</time>
      </trkpt>
      <trkpt lat="42.6392" lon="1.62626">
        <ele>2065.5300292969</ele>
        <time>2012-06-09T14:43:28Z</time>
      </trkpt>
      <trkpt lat="42.63927" lon="1.62628">
        <ele>2065.0493164062</ele>
        <time>2012-06-09T14:43:35Z</time>
      </trkpt>
      <trkpt lat="42.63928" lon="1.62628">
        <ele>2065.0493164062</ele>
        <time>2012-06-09T14:43:36Z</time>
      </trkpt>
      <trkpt lat="42.63939" lon="1.6263">
        <ele>2064.087890625</ele>
        <time>2012-06-09T14:43:45Z</time>
      </trkpt>
      <trkpt lat="42.63944" lon="1.62633">
        <ele>2064.5686035156</ele>
        <time>2012-06-09T14:43:50Z</time>
      </trkpt>
      <trkpt lat="42.63949" lon="1.62637">
        <ele>2064.087890625</ele>
        <time>2012-06-09T14:43:57Z</time>
      </trkpt>
      <trkpt lat="42.63955" lon="1.62637">
        <ele>2062.1652832031</ele>
        <time>2012-06-09T14:44:02Z</time>
      </trkpt>
      <trkpt lat="42.6396" lon="1.62643">
        <ele>2059.76171875</ele>
        <time>2012-06-09T14:44:08Z</time>
      </trkpt>
      <trkpt lat="42.63962" lon="1.62645">
        <ele>2060.2426757812</ele>
        <time>2012-06-09T14:44:12Z</time>
      </trkpt>
      <trkpt lat="42.63968" lon="1.62647">
        <ele>2060.7233886719</ele>
        <time>2012-06-09T14:44:18Z</time>
      </trkpt>
      <trkpt lat="42.63972" lon="1.62651">
        <ele>2059.76171875</ele>
        <time>2012-06-09T14:44:24Z</time>
      </trkpt>
      <trkpt lat="42.63976" lon="1.62656">
        <ele>2058.3198242188</ele>
        <time>2012-06-09T14:44:28Z</time>
      </trkpt>
      <trkpt lat="42.63984" lon="1.62661">
        <ele>2058.8005371094</ele>
        <time>2012-06-09T14:44:35Z</time>
      </trkpt>
      <trkpt lat="42.63986" lon="1.62663">
        <ele>2058.3198242188</ele>
        <time>2012-06-09T14:44:38Z</time>
      </trkpt>
      <trkpt lat="42.63989" lon="1.62666">
        <ele>2058.8005371094</ele>
        <time>2012-06-09T14:44:42Z</time>
      </trkpt>
      <trkpt lat="42.63995" lon="1.62671">
        <ele>2058.3198242188</ele>
        <time>2012-06-09T14:44:48Z</time>
      </trkpt>
      <trkpt lat="42.63999" lon="1.62672">
        <ele>2058.3198242188</ele>
        <time>2012-06-09T14:44:52Z</time>
      </trkpt>
      <trkpt lat="42.64007" lon="1.62677">
        <ele>2059.28125</ele>
        <time>2012-06-09T14:44:59Z</time>
      </trkpt>
      <trkpt lat="42.64013" lon="1.62683">
        <ele>2057.8393554688</ele>
        <time>2012-06-09T14:45:05Z</time>
      </trkpt>
      <trkpt lat="42.64019" lon="1.62687">
        <ele>2055.9165039062</ele>
        <time>2012-06-09T14:45:11Z</time>
      </trkpt>
      <trkpt lat="42.6402" lon="1.62687">
        <ele>2055.9165039062</ele>
        <time>2012-06-09T14:45:12Z</time>
      </trkpt>
      <trkpt lat="42.64025" lon="1.62691">
        <ele>2055.4360351562</ele>
        <time>2012-06-09T14:45:19Z</time>
      </trkpt>
      <trkpt lat="42.6403" lon="1.62695">
        <ele>2056.8779296875</ele>
        <time>2012-06-09T14:45:23Z</time>
      </trkpt>
      <trkpt lat="42.64034" lon="1.62696">
        <ele>2057.8393554688</ele>
        <time>2012-06-09T14:45:28Z</time>
      </trkpt>
      <trkpt lat="42.64038" lon="1.62698">
        <ele>2057.8393554688</ele>
        <time>2012-06-09T14:45:33Z</time>
      </trkpt>
      <trkpt lat="42.64046" lon="1.627">
        <ele>2057.8393554688</ele>
        <time>2012-06-09T14:45:39Z</time>
      </trkpt>
      <trkpt lat="42.6405" lon="1.627">
        <ele>2055.9165039062</ele>
        <time>2012-06-09T14:45:42Z</time>
      </trkpt>
      <trkpt lat="42.64053" lon="1.627">
        <ele>2054.9553222656</ele>
        <time>2012-06-09T14:45:45Z</time>
      </trkpt>
      <trkpt lat="42.64061" lon="1.62703">
        <ele>2054.474609375</ele>
        <time>2012-06-09T14:45:51Z</time>
      </trkpt>
      <trkpt lat="42.64067" lon="1.62703">
        <ele>2054.474609375</ele>
        <time>2012-06-09T14:45:56Z</time>
      </trkpt>
      <trkpt lat="42.64075" lon="1.62704">
        <ele>2053.0327148438</ele>
        <time>2012-06-09T14:46:02Z</time>
      </trkpt>
      <trkpt lat="42.6408" lon="1.62706">
        <ele>2052.5520019531</ele>
        <time>2012-06-09T14:46:06Z</time>
      </trkpt>
      <trkpt lat="42.64086" lon="1.62704">
        <ele>2052.0712890625</ele>
        <time>2012-06-09T14:46:11Z</time>
      </trkpt>
      <trkpt lat="42.64093" lon="1.62699">
        <ele>2049.6682128906</ele>
        <time>2012-06-09T14:46:18Z</time>
      </trkpt>
      <trkpt lat="42.64098" lon="1.62697">
        <ele>2048.2260742188</ele>
        <time>2012-06-09T14:46:22Z</time>
      </trkpt>
      <trkpt lat="42.64101" lon="1.62693">
        <ele>2047.2648925781</ele>
        <time>2012-06-09T14:46:27Z</time>
      </trkpt>
      <trkpt lat="42.64103" lon="1.62692">
        <ele>2046.3037109375</ele>
        <time>2012-06-09T14:46:29Z</time>
      </trkpt>
      <trkpt lat="42.64107" lon="1.62685">
        <ele>2046.3037109375</ele>
        <time>2012-06-09T14:46:35Z</time>
      </trkpt>
      <trkpt lat="42.64109" lon="1.62681">
        <ele>2046.7841796875</ele>
        <time>2012-06-09T14:46:39Z</time>
      </trkpt>
      <trkpt lat="42.64111" lon="1.62677">
        <ele>2046.3037109375</ele>
        <time>2012-06-09T14:46:44Z</time>
      </trkpt>
      <trkpt lat="42.64115" lon="1.62671">
        <ele>2046.3037109375</ele>
        <time>2012-06-09T14:46:49Z</time>
      </trkpt>
      <trkpt lat="42.64118" lon="1.6267">
        <ele>2041.9775390625</ele>
        <time>2012-06-09T14:46:54Z</time>
      </trkpt>
      <trkpt lat="42.64121" lon="1.62668">
        <ele>2041.0161132812</ele>
        <time>2012-06-09T14:46:58Z</time>
      </trkpt>
      <trkpt lat="42.64125" lon="1.62668">
        <ele>2039.57421875</ele>
        <time>2012-06-09T14:47:02Z</time>
      </trkpt>
      <trkpt lat="42.64128" lon="1.62669">
        <ele>2037.6516113281</ele>
        <time>2012-06-09T14:47:06Z</time>
      </trkpt>
      <trkpt lat="42.64131" lon="1.62668">
        <ele>2037.1708984375</ele>
        <time>2012-06-09T14:47:11Z</time>
      </trkpt>
      <trkpt lat="42.64135" lon="1.6267">
        <ele>2036.2097167969</ele>
        <time>2012-06-09T14:47:16Z</time>
      </trkpt>
      <trkpt lat="42.6414" lon="1.62673">
        <ele>2034.287109375</ele>
        <time>2012-06-09T14:47:20Z</time>
      </trkpt>
      <trkpt lat="42.64145" lon="1.62677">
        <ele>2031.8837890625</ele>
        <time>2012-06-09T14:47:26Z</time>
      </trkpt>
      <trkpt lat="42.64149" lon="1.62681">
        <ele>2028.9997558594</ele>
        <time>2012-06-09T14:47:30Z</time>
      </trkpt>
      <trkpt lat="42.64156" lon="1.62682">
        <ele>2027.0771484375</ele>
        <time>2012-06-09T14:47:34Z</time>
      </trkpt>
      <trkpt lat="42.64163" lon="1.62684">
        <ele>2025.154296875</ele>
        <time>2012-06-09T14:47:39Z</time>
      </trkpt>
      <trkpt lat="42.64169" lon="1.62687">
        <ele>2024.673828125</ele>
        <time>2012-06-09T14:47:44Z</time>
      </trkpt>
      <trkpt lat="42.64171" lon="1.62689">
        <ele>2024.673828125</ele>
        <time>2012-06-09T14:47:46Z</time>
      </trkpt>
      <trkpt lat="42.64174" lon="1.62693">
        <ele>2024.673828125</ele>
        <time>2012-06-09T14:47:50Z</time>
      </trkpt>
      <trkpt lat="42.64181" lon="1.62699">
        <ele>2022.7512207031</ele>
        <time>2012-06-09T14:47:56Z</time>
      </trkpt>
      <trkpt lat="42.64188" lon="1.62704">
        <ele>2021.3090820312</ele>
        <time>2012-06-09T14:48:02Z</time>
      </trkpt>
      <trkpt lat="42.64196" lon="1.62708">
        <ele>2018.9060058594</ele>
        <time>2012-06-09T14:48:08Z</time>
      </trkpt>
      <trkpt lat="42.64202" lon="1.62711">
        <ele>2017.4638671875</ele>
        <time>2012-06-09T14:48:13Z</time>
      </trkpt>
      <trkpt lat="42.64203" lon="1.62712">
        <ele>2017.4638671875</ele>
        <time>2012-06-09T14:48:14Z</time>
      </trkpt>
      <trkpt lat="42.64206" lon="1.62714">
        <ele>2017.4638671875</ele>
        <time>2012-06-09T14:48:16Z</time>
      </trkpt>
      <trkpt lat="42.64211" lon="1.62719">
        <ele>2016.9833984375</ele>
        <time>2012-06-09T14:48:21Z</time>
      </trkpt>
      <trkpt lat="42.64212" lon="1.62727">
        <ele>2019.38671875</ele>
        <time>2012-06-09T14:48:27Z</time>
      </trkpt>
      <trkpt lat="42.64213" lon="1.6273">
        <ele>2017.9445800781</ele>
        <time>2012-06-09T14:48:29Z</time>
      </trkpt>
      <trkpt lat="42.64215" lon="1.62732">
        <ele>2017.9445800781</ele>
        <time>2012-06-09T14:48:31Z</time>
      </trkpt>
      <trkpt lat="42.64219" lon="1.6274">
        <ele>2015.5415039062</ele>
        <time>2012-06-09T14:48:37Z</time>
      </trkpt>
      <trkpt lat="42.64219" lon="1.62746">
        <ele>2013.1381835938</ele>
        <time>2012-06-09T14:48:41Z</time>
      </trkpt>
      <trkpt lat="42.64219" lon="1.62748">
        <ele>2013.6186523438</ele>
        <time>2012-06-09T14:48:43Z</time>
      </trkpt>
      <trkpt lat="42.64222" lon="1.62756">
        <ele>2012.6574707031</ele>
        <time>2012-06-09T14:48:49Z</time>
      </trkpt>
      <trkpt lat="42.64226" lon="1.62758">
        <ele>2010.7346191406</ele>
        <time>2012-06-09T14:48:53Z</time>
      </trkpt>
      <trkpt lat="42.64229" lon="1.62762">
        <ele>2009.7731933594</ele>
        <time>2012-06-09T14:48:58Z</time>
      </trkpt>
      <trkpt lat="42.64232" lon="1.62764">
        <ele>2009.7731933594</ele>
        <time>2012-06-09T14:49:02Z</time>
      </trkpt>
      <trkpt lat="42.64238" lon="1.62769">
        <ele>2006.8894042969</ele>
        <time>2012-06-09T14:49:08Z</time>
      </trkpt>
      <trkpt lat="42.64244" lon="1.62774">
        <ele>2005.9279785156</ele>
        <time>2012-06-09T14:49:14Z</time>
      </trkpt>
      <trkpt lat="42.6425" lon="1.62778">
        <ele>2006.8894042969</ele>
        <time>2012-06-09T14:49:19Z</time>
      </trkpt>
      <trkpt lat="42.64254" lon="1.62784">
        <ele>2006.8894042969</ele>
        <time>2012-06-09T14:49:25Z</time>
      </trkpt>
      <trkpt lat="42.64256" lon="1.62789">
        <ele>2006.4086914062</ele>
        <time>2012-06-09T14:49:30Z</time>
      </trkpt>
      <trkpt lat="42.64257" lon="1.6279">
        <ele>2006.4086914062</ele>
        <time>2012-06-09T14:49:31Z</time>
      </trkpt>
      <trkpt lat="42.64264" lon="1.62792">
        <ele>2004.4860839844</ele>
        <time>2012-06-09T14:49:38Z</time>
      </trkpt>
      <trkpt lat="42.64269" lon="1.62793">
        <ele>2003.5249023438</ele>
        <time>2012-06-09T14:49:42Z</time>
      </trkpt>
      <trkpt lat="42.64275" lon="1.62796">
        <ele>2002.5634765625</ele>
        <time>2012-06-09T14:49:47Z</time>
      </trkpt>
      <trkpt lat="42.64283" lon="1.62794">
        <ele>2001.6022949219</ele>
        <time>2012-06-09T14:49:54Z</time>
      </trkpt>
      <trkpt lat="42.64288" lon="1.62797">
        <ele>1998.7182617188</ele>
        <time>2012-06-09T14:49:59Z</time>
      </trkpt>
      <trkpt lat="42.64294" lon="1.62798">
        <ele>1997.2763671875</ele>
        <time>2012-06-09T14:50:04Z</time>
      </trkpt>
      <trkpt lat="42.64301" lon="1.628">
        <ele>1994.3920898438</ele>
        <time>2012-06-09T14:50:09Z</time>
      </trkpt>
      <trkpt lat="42.64309" lon="1.62802">
        <ele>1992.4697265625</ele>
        <time>2012-06-09T14:50:15Z</time>
      </trkpt>
      <trkpt lat="42.64316" lon="1.62804">
        <ele>1990.06640625</ele>
        <time>2012-06-09T14:50:22Z</time>
      </trkpt>
      <trkpt lat="42.64321" lon="1.62807">
        <ele>1989.1049804688</ele>
        <time>2012-06-09T14:50:26Z</time>
      </trkpt>
      <trkpt lat="42.64327" lon="1.62808">
        <ele>1989.1049804688</ele>
        <time>2012-06-09T14:50:31Z</time>
      </trkpt>
      <trkpt lat="42.64331" lon="1.62808">
        <ele>1989.1049804688</ele>
        <time>2012-06-09T14:50:34Z</time>
      </trkpt>
      <trkpt lat="42.64334" lon="1.6281">
        <ele>1987.6630859375</ele>
        <time>2012-06-09T14:50:38Z</time>
      </trkpt>
      <trkpt lat="42.64342" lon="1.62816">
        <ele>1986.7016601562</ele>
        <time>2012-06-09T14:50:45Z</time>
      </trkpt>
      <trkpt lat="42.64343" lon="1.62817">
        <ele>1987.1823730469</ele>
        <time>2012-06-09T14:50:46Z</time>
      </trkpt>
      <trkpt lat="42.64347" lon="1.62825">
        <ele>1987.6630859375</ele>
        <time>2012-06-09T14:50:53Z</time>
      </trkpt>
      <trkpt lat="42.64351" lon="1.6283">
        <ele>1987.1823730469</ele>
        <time>2012-06-09T14:50:58Z</time>
      </trkpt>
      <trkpt lat="42.64354" lon="1.62834">
        <ele>1984.779296875</ele>
        <time>2012-06-09T14:51:02Z</time>
      </trkpt>
      <trkpt lat="42.64356" lon="1.62837">
        <ele>1984.2985839844</ele>
        <time>2012-06-09T14:51:06Z</time>
      </trkpt>
      <trkpt lat="42.64359" lon="1.62843">
        <ele>1983.8178710938</ele>
        <time>2012-06-09T14:51:12Z</time>
      </trkpt>
      <trkpt lat="42.64363" lon="1.62849">
        <ele>1985.7404785156</ele>
        <time>2012-06-09T14:51:17Z</time>
      </trkpt>
      <trkpt lat="42.64373" lon="1.62853">
        <ele>1985.259765625</ele>
        <time>2012-06-09T14:51:25Z</time>
      </trkpt>
      <trkpt lat="42.64376" lon="1.62851">
        <ele>1986.2211914062</ele>
        <time>2012-06-09T14:51:28Z</time>
      </trkpt>
      <trkpt lat="42.64384" lon="1.6285">
        <ele>1985.259765625</ele>
        <time>2012-06-09T14:51:35Z</time>
      </trkpt>
      <trkpt lat="42.64386" lon="1.62846">
        <ele>1985.7404785156</ele>
        <time>2012-06-09T14:51:39Z</time>
      </trkpt>
      <trkpt lat="42.64391" lon="1.62844">
        <ele>1986.2211914062</ele>
        <time>2012-06-09T14:51:44Z</time>
      </trkpt>
      <trkpt lat="42.64395" lon="1.62846">
        <ele>1985.7404785156</ele>
        <time>2012-06-09T14:51:48Z</time>
      </trkpt>
      <trkpt lat="42.64398" lon="1.62848">
        <ele>1984.2985839844</ele>
        <time>2012-06-09T14:51:52Z</time>
      </trkpt>
      <trkpt lat="42.64403" lon="1.62851">
        <ele>1982.3759765625</ele>
        <time>2012-06-09T14:51:58Z</time>
      </trkpt>
      <trkpt lat="42.64407" lon="1.62852">
        <ele>1980.4533691406</ele>
        <time>2012-06-09T14:52:02Z</time>
      </trkpt>
      <trkpt lat="42.64409" lon="1.62854">
        <ele>1979.4916992188</ele>
        <time>2012-06-09T14:52:04Z</time>
      </trkpt>
      <trkpt lat="42.64412" lon="1.62859">
        <ele>1978.5305175781</ele>
        <time>2012-06-09T14:52:08Z</time>
      </trkpt>
      <trkpt lat="42.64417" lon="1.62865">
        <ele>1979.0109863281</ele>
        <time>2012-06-09T14:52:14Z</time>
      </trkpt>
      <trkpt lat="42.64424" lon="1.6287">
        <ele>1982.8564453125</ele>
        <time>2012-06-09T14:52:22Z</time>
      </trkpt>
      <trkpt lat="42.64429" lon="1.62876">
        <ele>1980.9340820312</ele>
        <time>2012-06-09T14:52:29Z</time>
      </trkpt>
      <trkpt lat="42.64431" lon="1.62877">
        <ele>1981.8952636719</ele>
        <time>2012-06-09T14:52:30Z</time>
      </trkpt>
      <trkpt lat="42.64432" lon="1.62884">
        <ele>1978.5305175781</ele>
        <time>2012-06-09T14:52:35Z</time>
      </trkpt>
      <trkpt lat="42.64437" lon="1.62892">
        <ele>1977.0886230469</ele>
        <time>2012-06-09T14:52:41Z</time>
      </trkpt>
      <trkpt lat="42.64442" lon="1.62901">
        <ele>1977.0886230469</ele>
        <time>2012-06-09T14:52:48Z</time>
      </trkpt>
      <trkpt lat="42.64447" lon="1.62908">
        <ele>1976.1271972656</ele>
        <time>2012-06-09T14:52:54Z</time>
      </trkpt>
      <trkpt lat="42.64454" lon="1.62915">
        <ele>1977.5690917969</ele>
        <time>2012-06-09T14:53:02Z</time>
      </trkpt>
      <trkpt lat="42.64459" lon="1.62921">
        <ele>1975.646484375</ele>
        <time>2012-06-09T14:53:09Z</time>
      </trkpt>
      <trkpt lat="42.64466" lon="1.62925">
        <ele>1976.1271972656</ele>
        <time>2012-06-09T14:53:15Z</time>
      </trkpt>
      <trkpt lat="42.64473" lon="1.62929">
        <ele>1980.4533691406</ele>
        <time>2012-06-09T14:53:22Z</time>
      </trkpt>
      <trkpt lat="42.64479" lon="1.6293">
        <ele>1981.4145507812</ele>
        <time>2012-06-09T14:53:29Z</time>
      </trkpt>
      <trkpt lat="42.64484" lon="1.62932">
        <ele>1980.4533691406</ele>
        <time>2012-06-09T14:53:35Z</time>
      </trkpt>
      <trkpt lat="42.64488" lon="1.62936">
        <ele>1977.0886230469</ele>
        <time>2012-06-09T14:53:40Z</time>
      </trkpt>
      <trkpt lat="42.64491" lon="1.62937">
        <ele>1976.6079101562</ele>
        <time>2012-06-09T14:53:43Z</time>
      </trkpt>
      <trkpt lat="42.64494" lon="1.62937">
        <ele>1977.5690917969</ele>
        <time>2012-06-09T14:53:47Z</time>
      </trkpt>
      <trkpt lat="42.645" lon="1.62939">
        <ele>1976.1271972656</ele>
        <time>2012-06-09T14:53:53Z</time>
      </trkpt>
      <trkpt lat="42.64503" lon="1.62941">
        <ele>1976.6079101562</ele>
        <time>2012-06-09T14:53:56Z</time>
      </trkpt>
      <trkpt lat="42.64507" lon="1.62941">
        <ele>1978.0498046875</ele>
        <time>2012-06-09T14:53:59Z</time>
      </trkpt>
      <trkpt lat="42.64508" lon="1.62947">
        <ele>1976.6079101562</ele>
        <time>2012-06-09T14:54:03Z</time>
      </trkpt>
      <trkpt lat="42.64511" lon="1.6295">
        <ele>1977.0886230469</ele>
        <time>2012-06-09T14:54:08Z</time>
      </trkpt>
      <trkpt lat="42.64516" lon="1.62953">
        <ele>1975.1657714844</ele>
        <time>2012-06-09T14:54:12Z</time>
      </trkpt>
      <trkpt lat="42.64523" lon="1.62955">
        <ele>1975.1657714844</ele>
        <time>2012-06-09T14:54:18Z</time>
      </trkpt>
      <trkpt lat="42.64527" lon="1.62957">
        <ele>1975.1657714844</ele>
        <time>2012-06-09T14:54:22Z</time>
      </trkpt>
      <trkpt lat="42.6453" lon="1.62959">
        <ele>1975.1657714844</ele>
        <time>2012-06-09T14:54:25Z</time>
      </trkpt>
      <trkpt lat="42.64532" lon="1.6296">
        <ele>1975.1657714844</ele>
        <time>2012-06-09T14:54:30Z</time>
      </trkpt>
      <trkpt lat="42.64536" lon="1.62963">
        <ele>1974.6853027344</ele>
        <time>2012-06-09T14:54:34Z</time>
      </trkpt>
      <trkpt lat="42.64542" lon="1.62965">
        <ele>1975.646484375</ele>
        <time>2012-06-09T14:54:40Z</time>
      </trkpt>
      <trkpt lat="42.6455" lon="1.62966">
        <ele>1974.6853027344</ele>
        <time>2012-06-09T14:54:47Z</time>
      </trkpt>
      <trkpt lat="42.64552" lon="1.62965">
        <ele>1973.7238769531</ele>
        <time>2012-06-09T14:54:51Z</time>
      </trkpt>
      <trkpt lat="42.64554" lon="1.62962">
        <ele>1975.646484375</ele>
        <time>2012-06-09T14:54:55Z</time>
      </trkpt>
      <trkpt lat="42.64557" lon="1.62962">
        <ele>1974.6853027344</ele>
        <time>2012-06-09T14:54:58Z</time>
      </trkpt>
      <trkpt lat="42.64561" lon="1.62964">
        <ele>1976.1271972656</ele>
        <time>2012-06-09T14:55:04Z</time>
      </trkpt>
      <trkpt lat="42.64566" lon="1.62965">
        <ele>1975.1657714844</ele>
        <time>2012-06-09T14:55:08Z</time>
      </trkpt>
      <trkpt lat="42.64568" lon="1.62965">
        <ele>1973.2434082031</ele>
        <time>2012-06-09T14:55:10Z</time>
      </trkpt>
      <trkpt lat="42.64569" lon="1.62966">
        <ele>1973.7238769531</ele>
        <time>2012-06-09T14:55:13Z</time>
      </trkpt>
      <trkpt lat="42.64577" lon="1.62964">
        <ele>1973.7238769531</ele>
        <time>2012-06-09T14:55:19Z</time>
      </trkpt>
      <trkpt lat="42.64585" lon="1.62963">
        <ele>1973.2434082031</ele>
        <time>2012-06-09T14:55:25Z</time>
      </trkpt>
      <trkpt lat="42.64589" lon="1.62964">
        <ele>1974.2045898438</ele>
        <time>2012-06-09T14:55:29Z</time>
      </trkpt>
      <trkpt lat="42.64597" lon="1.62963">
        <ele>1973.2434082031</ele>
        <time>2012-06-09T14:55:36Z</time>
      </trkpt>
      <trkpt lat="42.64605" lon="1.62961">
        <ele>1972.2819824219</ele>
        <time>2012-06-09T14:55:44Z</time>
      </trkpt>
      <trkpt lat="42.6461" lon="1.62961">
        <ele>1971.3205566406</ele>
        <time>2012-06-09T14:55:48Z</time>
      </trkpt>
      <trkpt lat="42.64612" lon="1.62961">
        <ele>1970.8400878906</ele>
        <time>2012-06-09T14:55:50Z</time>
      </trkpt>
      <trkpt lat="42.64618" lon="1.62965">
        <ele>1970.8400878906</ele>
        <time>2012-06-09T14:55:56Z</time>
      </trkpt>
      <trkpt lat="42.64621" lon="1.6297">
        <ele>1971.8012695312</ele>
        <time>2012-06-09T14:56:01Z</time>
      </trkpt>
      <trkpt lat="42.64633" lon="1.62973">
        <ele>1968.9174804688</ele>
        <time>2012-06-09T14:56:12Z</time>
      </trkpt>
      <trkpt lat="42.64637" lon="1.62973">
        <ele>1968.9174804688</ele>
        <time>2012-06-09T14:56:16Z</time>
      </trkpt>
      <trkpt lat="42.64639" lon="1.62973">
        <ele>1968.9174804688</ele>
        <time>2012-06-09T14:56:20Z</time>
      </trkpt>
      <trkpt lat="42.64643" lon="1.62974">
        <ele>1968.4367675781</ele>
        <time>2012-06-09T14:56:25Z</time>
      </trkpt>
      <trkpt lat="42.64647" lon="1.62973">
        <ele>1967.9560546875</ele>
        <time>2012-06-09T14:56:29Z</time>
      </trkpt>
      <trkpt lat="42.64651" lon="1.62974">
        <ele>1967.4753417969</ele>
        <time>2012-06-09T14:56:34Z</time>
      </trkpt>
      <trkpt lat="42.64654" lon="1.62976">
        <ele>1966.5141601562</ele>
        <time>2012-06-09T14:56:38Z</time>
      </trkpt>
      <trkpt lat="42.64656" lon="1.6298">
        <ele>1966.0334472656</ele>
        <time>2012-06-09T14:56:42Z</time>
      </trkpt>
      <trkpt lat="42.64662" lon="1.62984">
        <ele>1964.1108398438</ele>
        <time>2012-06-09T14:56:48Z</time>
      </trkpt>
      <trkpt lat="42.64665" lon="1.62984">
        <ele>1963.6298828125</ele>
        <time>2012-06-09T14:56:52Z</time>
      </trkpt>
      <trkpt lat="42.64669" lon="1.62985">
        <ele>1965.072265625</ele>
        <time>2012-06-09T14:56:57Z</time>
      </trkpt>
      <trkpt lat="42.64672" lon="1.62987">
        <ele>1963.6298828125</ele>
        <time>2012-06-09T14:57:01Z</time>
      </trkpt>
      <trkpt lat="42.64674" lon="1.62986">
        <ele>1964.5915527344</ele>
        <time>2012-06-09T14:57:05Z</time>
      </trkpt>
      <trkpt lat="42.64677" lon="1.62985">
        <ele>1963.1494140625</ele>
        <time>2012-06-09T14:57:08Z</time>
      </trkpt>
      <trkpt lat="42.64681" lon="1.62986">
        <ele>1961.7075195312</ele>
        <time>2012-06-09T14:57:13Z</time>
      </trkpt>
      <trkpt lat="42.64687" lon="1.62987">
        <ele>1958.3427734375</ele>
        <time>2012-06-09T14:57:20Z</time>
      </trkpt>
      <trkpt lat="42.64693" lon="1.62987">
        <ele>1957.8623046875</ele>
        <time>2012-06-09T14:57:27Z</time>
      </trkpt>
      <trkpt lat="42.64698" lon="1.62987">
        <ele>1958.8234863281</ele>
        <time>2012-06-09T14:57:32Z</time>
      </trkpt>
      <trkpt lat="42.64703" lon="1.62988">
        <ele>1958.8234863281</ele>
        <time>2012-06-09T14:57:38Z</time>
      </trkpt>
      <trkpt lat="42.64707" lon="1.62989">
        <ele>1958.3427734375</ele>
        <time>2012-06-09T14:57:42Z</time>
      </trkpt>
      <trkpt lat="42.64714" lon="1.62992">
        <ele>1957.8623046875</ele>
        <time>2012-06-09T14:57:48Z</time>
      </trkpt>
      <trkpt lat="42.64716" lon="1.62993">
        <ele>1957.3815917969</ele>
        <time>2012-06-09T14:57:50Z</time>
      </trkpt>
      <trkpt lat="42.6472" lon="1.62997">
        <ele>1956.9008789062</ele>
        <time>2012-06-09T14:57:54Z</time>
      </trkpt>
      <trkpt lat="42.64726" lon="1.63">
        <ele>1955.458984375</ele>
        <time>2012-06-09T14:58:00Z</time>
      </trkpt>
      <trkpt lat="42.64733" lon="1.63001">
        <ele>1954.9782714844</ele>
        <time>2012-06-09T14:58:06Z</time>
      </trkpt>
      <trkpt lat="42.64743" lon="1.63004">
        <ele>1953.0556640625</ele>
        <time>2012-06-09T14:58:14Z</time>
      </trkpt>
      <trkpt lat="42.64747" lon="1.63004">
        <ele>1951.6137695312</ele>
        <time>2012-06-09T14:58:18Z</time>
      </trkpt>
      <trkpt lat="42.64756" lon="1.63008">
        <ele>1950.171875</ele>
        <time>2012-06-09T14:58:25Z</time>
      </trkpt>
      <trkpt lat="42.64762" lon="1.63009">
        <ele>1949.2104492188</ele>
        <time>2012-06-09T14:58:31Z</time>
      </trkpt>
      <trkpt lat="42.64766" lon="1.63007">
        <ele>1946.8068847656</ele>
        <time>2012-06-09T14:58:35Z</time>
      </trkpt>
      <trkpt lat="42.64768" lon="1.63004">
        <ele>1948.2490234375</ele>
        <time>2012-06-09T14:58:38Z</time>
      </trkpt>
      <trkpt lat="42.64774" lon="1.63001">
        <ele>1947.2875976562</ele>
        <time>2012-06-09T14:58:42Z</time>
      </trkpt>
      <trkpt lat="42.64775" lon="1.63">
        <ele>1947.2875976562</ele>
        <time>2012-06-09T14:58:43Z</time>
      </trkpt>
      <trkpt lat="42.64781" lon="1.62994">
        <ele>1947.7683105469</ele>
        <time>2012-06-09T14:58:50Z</time>
      </trkpt>
      <trkpt lat="42.64783" lon="1.62994">
        <ele>1947.2875976562</ele>
        <time>2012-06-09T14:58:52Z</time>
      </trkpt>
      <trkpt lat="42.64787" lon="1.62993">
        <ele>1946.8068847656</ele>
        <time>2012-06-09T14:58:56Z</time>
      </trkpt>
      <trkpt lat="42.64789" lon="1.62988">
        <ele>1946.8068847656</ele>
        <time>2012-06-09T14:58:59Z</time>
      </trkpt>
      <trkpt lat="42.64793" lon="1.62984">
        <ele>1947.2875976562</ele>
        <time>2012-06-09T14:59:04Z</time>
      </trkpt>
      <trkpt lat="42.648" lon="1.6298">
        <ele>1950.171875</ele>
        <time>2012-06-09T14:59:11Z</time>
      </trkpt>
      <trkpt lat="42.64801" lon="1.62979">
        <ele>1950.171875</ele>
        <time>2012-06-09T14:59:12Z</time>
      </trkpt>
      <trkpt lat="42.64805" lon="1.62978">
        <ele>1952.5749511719</ele>
        <time>2012-06-09T14:59:18Z</time>
      </trkpt>
      <trkpt lat="42.6481" lon="1.62975">
        <ele>1952.5749511719</ele>
        <time>2012-06-09T14:59:22Z</time>
      </trkpt>
      <trkpt lat="42.64814" lon="1.62973">
        <ele>1951.6137695312</ele>
        <time>2012-06-09T14:59:27Z</time>
      </trkpt>
      <trkpt lat="42.64818" lon="1.62975">
        <ele>1950.65234375</ele>
        <time>2012-06-09T14:59:31Z</time>
      </trkpt>
      <trkpt lat="42.64821" lon="1.62974">
        <ele>1951.6137695312</ele>
        <time>2012-06-09T14:59:35Z</time>
      </trkpt>
      <trkpt lat="42.64824" lon="1.62975">
        <ele>1949.6911621094</ele>
        <time>2012-06-09T14:59:39Z</time>
      </trkpt>
      <trkpt lat="42.64827" lon="1.62976">
        <ele>1949.6911621094</ele>
        <time>2012-06-09T14:59:43Z</time>
      </trkpt>
      <trkpt lat="42.64834" lon="1.62976">
        <ele>1948.7297363281</ele>
        <time>2012-06-09T14:59:49Z</time>
      </trkpt>
      <trkpt lat="42.64838" lon="1.62973">
        <ele>1948.2490234375</ele>
        <time>2012-06-09T14:59:54Z</time>
      </trkpt>
      <trkpt lat="42.64841" lon="1.62975">
        <ele>1947.7683105469</ele>
        <time>2012-06-09T14:59:57Z</time>
      </trkpt>
      <trkpt lat="42.64844" lon="1.62977">
        <ele>1947.2875976562</ele>
        <time>2012-06-09T15:00:01Z</time>
      </trkpt>
      <trkpt lat="42.64846" lon="1.62979">
        <ele>1946.8068847656</ele>
        <time>2012-06-09T15:00:05Z</time>
      </trkpt>
      <trkpt lat="42.64849" lon="1.62979">
        <ele>1945.3649902344</ele>
        <time>2012-06-09T15:00:09Z</time>
      </trkpt>
      <trkpt lat="42.64854" lon="1.6298">
        <ele>1944.4035644531</ele>
        <time>2012-06-09T15:00:13Z</time>
      </trkpt>
      <trkpt lat="42.64857" lon="1.62981">
        <ele>1942.4812011719</ele>
        <time>2012-06-09T15:00:18Z</time>
      </trkpt>
      <trkpt lat="42.6486" lon="1.62982">
        <ele>1941.5197753906</ele>
        <time>2012-06-09T15:00:22Z</time>
      </trkpt>
      <trkpt lat="42.64861" lon="1.62987">
        <ele>1940.0778808594</ele>
        <time>2012-06-09T15:00:27Z</time>
      </trkpt>
      <trkpt lat="42.64864" lon="1.6299">
        <ele>1940.5583496094</ele>
        <time>2012-06-09T15:00:33Z</time>
      </trkpt>
      <trkpt lat="42.64869" lon="1.62987">
        <ele>1940.5583496094</ele>
        <time>2012-06-09T15:00:37Z</time>
      </trkpt>
      <trkpt lat="42.64873" lon="1.62985">
        <ele>1939.1164550781</ele>
        <time>2012-06-09T15:00:42Z</time>
      </trkpt>
      <trkpt lat="42.64878" lon="1.62984">
        <ele>1934.7907714844</ele>
        <time>2012-06-09T15:00:48Z</time>
      </trkpt>
      <trkpt lat="42.64885" lon="1.62983">
        <ele>1933.3486328125</ele>
        <time>2012-06-09T15:00:54Z</time>
      </trkpt>
      <trkpt lat="42.64891" lon="1.6298">
        <ele>1932.3874511719</ele>
        <time>2012-06-09T15:01:00Z</time>
      </trkpt>
      <trkpt lat="42.64895" lon="1.62978">
        <ele>1932.3874511719</ele>
        <time>2012-06-09T15:01:05Z</time>
      </trkpt>
      <trkpt lat="42.64898" lon="1.62976">
        <ele>1932.8679199219</ele>
        <time>2012-06-09T15:01:10Z</time>
      </trkpt>
      <trkpt lat="42.64903" lon="1.62975">
        <ele>1930.4645996094</ele>
        <time>2012-06-09T15:01:16Z</time>
      </trkpt>
      <trkpt lat="42.6491" lon="1.62972">
        <ele>1929.0224609375</ele>
        <time>2012-06-09T15:01:21Z</time>
      </trkpt>
      <trkpt lat="42.64914" lon="1.62971">
        <ele>1926.138671875</ele>
        <time>2012-06-09T15:01:25Z</time>
      </trkpt>
      <trkpt lat="42.64916" lon="1.62969">
        <ele>1925.6579589844</ele>
        <time>2012-06-09T15:01:30Z</time>
      </trkpt>
      <trkpt lat="42.64922" lon="1.62971">
        <ele>1924.2160644531</ele>
        <time>2012-06-09T15:01:36Z</time>
      </trkpt>
      <trkpt lat="42.64925" lon="1.62972">
        <ele>1924.2160644531</ele>
        <time>2012-06-09T15:01:41Z</time>
      </trkpt>
      <trkpt lat="42.64925" lon="1.62973">
        <ele>1924.2160644531</ele>
        <time>2012-06-09T15:01:48Z</time>
      </trkpt>
      <trkpt lat="42.64926" lon="1.62976">
        <ele>1924.6967773438</ele>
        <time>2012-06-09T15:01:55Z</time>
      </trkpt>
      <trkpt lat="42.64928" lon="1.62978">
        <ele>1924.2160644531</ele>
        <time>2012-06-09T15:01:59Z</time>
      </trkpt>
      <trkpt lat="42.64928" lon="1.62983">
        <ele>1924.6967773438</ele>
        <time>2012-06-09T15:02:04Z</time>
      </trkpt>
      <trkpt lat="42.64933" lon="1.62988">
        <ele>1925.1772460938</ele>
        <time>2012-06-09T15:02:11Z</time>
      </trkpt>
      <trkpt lat="42.64933" lon="1.62989">
        <ele>1925.6579589844</ele>
        <time>2012-06-09T15:02:12Z</time>
      </trkpt>
      <trkpt lat="42.64936" lon="1.62991">
        <ele>1924.6967773438</ele>
        <time>2012-06-09T15:02:16Z</time>
      </trkpt>
      <trkpt lat="42.64941" lon="1.6299">
        <ele>1923.7353515625</ele>
        <time>2012-06-09T15:02:20Z</time>
      </trkpt>
      <trkpt lat="42.64942" lon="1.6299">
        <ele>1923.2548828125</ele>
        <time>2012-06-09T15:02:21Z</time>
      </trkpt>
      <trkpt lat="42.64946" lon="1.62986">
        <ele>1921.8127441406</ele>
        <time>2012-06-09T15:02:26Z</time>
      </trkpt>
      <trkpt lat="42.64948" lon="1.62985">
        <ele>1920.3708496094</ele>
        <time>2012-06-09T15:02:28Z</time>
      </trkpt>
      <trkpt lat="42.64956" lon="1.62986">
        <ele>1917.9675292969</ele>
        <time>2012-06-09T15:02:34Z</time>
      </trkpt>
      <trkpt lat="42.64964" lon="1.62982">
        <ele>1917.4868164062</ele>
        <time>2012-06-09T15:02:42Z</time>
      </trkpt>
      <trkpt lat="42.64969" lon="1.62982">
        <ele>1916.044921875</ele>
        <time>2012-06-09T15:02:47Z</time>
      </trkpt>
      <trkpt lat="42.64972" lon="1.6298">
        <ele>1917.4868164062</ele>
        <time>2012-06-09T15:02:51Z</time>
      </trkpt>
      <trkpt lat="42.64974" lon="1.62976">
        <ele>1919.8901367188</ele>
        <time>2012-06-09T15:02:55Z</time>
      </trkpt>
      <trkpt lat="42.64977" lon="1.62974">
        <ele>1920.3708496094</ele>
        <time>2012-06-09T15:02:58Z</time>
      </trkpt>
      <trkpt lat="42.64979" lon="1.62972">
        <ele>1919.4096679688</ele>
        <time>2012-06-09T15:03:02Z</time>
      </trkpt>
      <trkpt lat="42.64982" lon="1.62972">
        <ele>1910.7575683594</ele>
        <time>2012-06-09T15:03:11Z</time>
      </trkpt>
      <trkpt lat="42.64981" lon="1.62968">
        <ele>1910.7575683594</ele>
        <time>2012-06-09T15:03:15Z</time>
      </trkpt>
      <trkpt lat="42.64981" lon="1.62966">
        <ele>1910.7575683594</ele>
        <time>2012-06-09T15:03:20Z</time>
      </trkpt>
      <trkpt lat="42.64983" lon="1.62965">
        <ele>1912.1994628906</ele>
        <time>2012-06-09T15:03:23Z</time>
      </trkpt>
      <trkpt lat="42.64988" lon="1.62967">
        <ele>1913.6413574219</ele>
        <time>2012-06-09T15:03:29Z</time>
      </trkpt>
      <trkpt lat="42.64991" lon="1.62972">
        <ele>1915.5642089844</ele>
        <time>2012-06-09T15:03:34Z</time>
      </trkpt>
      <trkpt lat="42.64993" lon="1.62974">
        <ele>1916.044921875</ele>
        <time>2012-06-09T15:03:36Z</time>
      </trkpt>
      <trkpt lat="42.64997" lon="1.6298">
        <ele>1915.5642089844</ele>
        <time>2012-06-09T15:03:41Z</time>
      </trkpt>
      <trkpt lat="42.65005" lon="1.62988">
        <ele>1916.044921875</ele>
        <time>2012-06-09T15:03:49Z</time>
      </trkpt>
      <trkpt lat="42.65012" lon="1.62991">
        <ele>1916.044921875</ele>
        <time>2012-06-09T15:03:57Z</time>
      </trkpt>
      <trkpt lat="42.65017" lon="1.62993">
        <ele>1913.6413574219</ele>
        <time>2012-06-09T15:04:01Z</time>
      </trkpt>
      <trkpt lat="42.65021" lon="1.62994">
        <ele>1914.1220703125</ele>
        <time>2012-06-09T15:04:05Z</time>
      </trkpt>
      <trkpt lat="42.65025" lon="1.63001">
        <ele>1913.6413574219</ele>
        <time>2012-06-09T15:04:13Z</time>
      </trkpt>
      <trkpt lat="42.65029" lon="1.63002">
        <ele>1912.6801757812</ele>
        <time>2012-06-09T15:04:17Z</time>
      </trkpt>
      <trkpt lat="42.65033" lon="1.63005">
        <ele>1911.7189941406</ele>
        <time>2012-06-09T15:04:21Z</time>
      </trkpt>
      <trkpt lat="42.65039" lon="1.63006">
        <ele>1911.23828125</ele>
        <time>2012-06-09T15:04:28Z</time>
      </trkpt>
      <trkpt lat="42.65045" lon="1.63004">
        <ele>1911.7189941406</ele>
        <time>2012-06-09T15:04:34Z</time>
      </trkpt>
      <trkpt lat="42.65049" lon="1.63004">
        <ele>1910.7575683594</ele>
        <time>2012-06-09T15:04:37Z</time>
      </trkpt>
      <trkpt lat="42.65055" lon="1.63002">
        <ele>1908.3542480469</ele>
        <time>2012-06-09T15:04:44Z</time>
      </trkpt>
      <trkpt lat="42.65062" lon="1.63001">
        <ele>1906.9123535156</ele>
        <time>2012-06-09T15:04:50Z</time>
      </trkpt>
      <trkpt lat="42.65067" lon="1.62999">
        <ele>1905.9509277344</ele>
        <time>2012-06-09T15:04:55Z</time>
      </trkpt>
      <trkpt lat="42.6507" lon="1.62995">
        <ele>1906.9123535156</ele>
        <time>2012-06-09T15:04:59Z</time>
      </trkpt>
      <trkpt lat="42.65076" lon="1.62994">
        <ele>1905.9509277344</ele>
        <time>2012-06-09T15:05:06Z</time>
      </trkpt>
      <trkpt lat="42.65079" lon="1.6299">
        <ele>1906.9123535156</ele>
        <time>2012-06-09T15:05:12Z</time>
      </trkpt>
      <trkpt lat="42.65083" lon="1.62989">
        <ele>1906.431640625</ele>
        <time>2012-06-09T15:05:16Z</time>
      </trkpt>
      <trkpt lat="42.65088" lon="1.62988">
        <ele>1904.5090332031</ele>
        <time>2012-06-09T15:05:22Z</time>
      </trkpt>
      <trkpt lat="42.65091" lon="1.62987">
        <ele>1904.0285644531</ele>
        <time>2012-06-09T15:05:27Z</time>
      </trkpt>
      <trkpt lat="42.65095" lon="1.62986">
        <ele>1905.4704589844</ele>
        <time>2012-06-09T15:05:33Z</time>
      </trkpt>
      <trkpt lat="42.65098" lon="1.62982">
        <ele>1905.9509277344</ele>
        <time>2012-06-09T15:05:38Z</time>
      </trkpt>
      <trkpt lat="42.65101" lon="1.62977">
        <ele>1907.3930664062</ele>
        <time>2012-06-09T15:05:43Z</time>
      </trkpt>
      <trkpt lat="42.65105" lon="1.62974">
        <ele>1905.9509277344</ele>
        <time>2012-06-09T15:05:49Z</time>
      </trkpt>
      <trkpt lat="42.6511" lon="1.62969">
        <ele>1907.8737792969</ele>
        <time>2012-06-09T15:05:55Z</time>
      </trkpt>
      <trkpt lat="42.65114" lon="1.62968">
        <ele>1907.8737792969</ele>
        <time>2012-06-09T15:05:59Z</time>
      </trkpt>
      <trkpt lat="42.6512" lon="1.62967">
        <ele>1908.3542480469</ele>
        <time>2012-06-09T15:06:04Z</time>
      </trkpt>
      <trkpt lat="42.65124" lon="1.62968">
        <ele>1905.9509277344</ele>
        <time>2012-06-09T15:06:08Z</time>
      </trkpt>
      <trkpt lat="42.65126" lon="1.62968">
        <ele>1904.9897460938</ele>
        <time>2012-06-09T15:06:10Z</time>
      </trkpt>
      <trkpt lat="42.65128" lon="1.62969">
        <ele>1904.9897460938</ele>
        <time>2012-06-09T15:06:12Z</time>
      </trkpt>
      <trkpt lat="42.65136" lon="1.62967">
        <ele>1904.5090332031</ele>
        <time>2012-06-09T15:06:20Z</time>
      </trkpt>
      <trkpt lat="42.65141" lon="1.62966">
        <ele>1904.9897460938</ele>
        <time>2012-06-09T15:06:26Z</time>
      </trkpt>
      <trkpt lat="42.65144" lon="1.62964">
        <ele>1904.9897460938</ele>
        <time>2012-06-09T15:06:30Z</time>
      </trkpt>
      <trkpt lat="42.65147" lon="1.62963">
        <ele>1904.0285644531</ele>
        <time>2012-06-09T15:06:35Z</time>
      </trkpt>
      <trkpt lat="42.65151" lon="1.62961">
        <ele>1903.0671386719</ele>
        <time>2012-06-09T15:06:39Z</time>
      </trkpt>
      <trkpt lat="42.65155" lon="1.6296">
        <ele>1901.6252441406</ele>
        <time>2012-06-09T15:06:43Z</time>
      </trkpt>
      <trkpt lat="42.65156" lon="1.6296">
        <ele>1901.14453125</ele>
        <time>2012-06-09T15:06:44Z</time>
      </trkpt>
      <trkpt lat="42.65162" lon="1.62958">
        <ele>1898.7409667969</ele>
        <time>2012-06-09T15:06:50Z</time>
      </trkpt>
      <trkpt lat="42.65166" lon="1.62957">
        <ele>1897.2990722656</ele>
        <time>2012-06-09T15:06:55Z</time>
      </trkpt>
      <trkpt lat="42.65171" lon="1.62954">
        <ele>1894.8957519531</ele>
        <time>2012-06-09T15:06:59Z</time>
      </trkpt>
      <trkpt lat="42.65175" lon="1.62951">
        <ele>1893.4538574219</ele>
        <time>2012-06-09T15:07:04Z</time>
      </trkpt>
      <trkpt lat="42.65177" lon="1.62949">
        <ele>1892.9731445312</ele>
        <time>2012-06-09T15:07:08Z</time>
      </trkpt>
      <trkpt lat="42.65184" lon="1.62949">
        <ele>1890.0893554688</ele>
        <time>2012-06-09T15:07:14Z</time>
      </trkpt>
      <trkpt lat="42.65189" lon="1.62949">
        <ele>1888.1667480469</ele>
        <time>2012-06-09T15:07:18Z</time>
      </trkpt>
      <trkpt lat="42.65195" lon="1.62948">
        <ele>1887.2053222656</ele>
        <time>2012-06-09T15:07:24Z</time>
      </trkpt>
      <trkpt lat="42.65202" lon="1.62948">
        <ele>1887.6860351562</ele>
        <time>2012-06-09T15:07:31Z</time>
      </trkpt>
      <trkpt lat="42.65206" lon="1.62946">
        <ele>1888.6474609375</ele>
        <time>2012-06-09T15:07:37Z</time>
      </trkpt>
      <trkpt lat="42.65212" lon="1.62942">
        <ele>1890.0893554688</ele>
        <time>2012-06-09T15:07:45Z</time>
      </trkpt>
      <trkpt lat="42.65213" lon="1.62939">
        <ele>1891.0505371094</ele>
        <time>2012-06-09T15:07:52Z</time>
      </trkpt>
      <trkpt lat="42.65214" lon="1.62941">
        <ele>1891.0505371094</ele>
        <time>2012-06-09T15:08:07Z</time>
      </trkpt>
      <trkpt lat="42.65217" lon="1.62937">
        <ele>1890.0893554688</ele>
        <time>2012-06-09T15:08:12Z</time>
      </trkpt>
      <trkpt lat="42.65219" lon="1.62935">
        <ele>1891.0505371094</ele>
        <time>2012-06-09T15:08:16Z</time>
      </trkpt>
      <trkpt lat="42.65219" lon="1.62934">
        <ele>1892.0119628906</ele>
        <time>2012-06-09T15:08:17Z</time>
      </trkpt>
      <trkpt lat="42.65224" lon="1.62929">
        <ele>1887.6860351562</ele>
        <time>2012-06-09T15:08:22Z</time>
      </trkpt>
      <trkpt lat="42.6523" lon="1.62926">
        <ele>1887.2053222656</ele>
        <time>2012-06-09T15:08:28Z</time>
      </trkpt>
      <trkpt lat="42.65234" lon="1.62923">
        <ele>1887.2053222656</ele>
        <time>2012-06-09T15:08:33Z</time>
      </trkpt>
      <trkpt lat="42.65238" lon="1.62922">
        <ele>1884.8022460938</ele>
        <time>2012-06-09T15:08:37Z</time>
      </trkpt>
      <trkpt lat="42.65242" lon="1.62922">
        <ele>1883.3598632812</ele>
        <time>2012-06-09T15:08:43Z</time>
      </trkpt>
      <trkpt lat="42.65247" lon="1.62921">
        <ele>1883.3598632812</ele>
        <time>2012-06-09T15:08:48Z</time>
      </trkpt>
      <trkpt lat="42.6525" lon="1.62918">
        <ele>1882.8791503906</ele>
        <time>2012-06-09T15:08:53Z</time>
      </trkpt>
      <trkpt lat="42.65258" lon="1.62918">
        <ele>1881.91796875</ele>
        <time>2012-06-09T15:09:00Z</time>
      </trkpt>
      <trkpt lat="42.65262" lon="1.62917">
        <ele>1882.8791503906</ele>
        <time>2012-06-09T15:09:04Z</time>
      </trkpt>
      <trkpt lat="42.65269" lon="1.62917">
        <ele>1882.3986816406</ele>
        <time>2012-06-09T15:09:11Z</time>
      </trkpt>
      <trkpt lat="42.65276" lon="1.62915">
        <ele>1881.4372558594</ele>
        <time>2012-06-09T15:09:18Z</time>
      </trkpt>
      <trkpt lat="42.65281" lon="1.62916">
        <ele>1879.5146484375</ele>
        <time>2012-06-09T15:09:24Z</time>
      </trkpt>
      <trkpt lat="42.65287" lon="1.6292">
        <ele>1878.0727539062</ele>
        <time>2012-06-09T15:09:31Z</time>
      </trkpt>
      <trkpt lat="42.65292" lon="1.6292">
        <ele>1876.630859375</ele>
        <time>2012-06-09T15:09:37Z</time>
      </trkpt>
      <trkpt lat="42.65297" lon="1.62921">
        <ele>1876.1501464844</ele>
        <time>2012-06-09T15:09:43Z</time>
      </trkpt>
      <trkpt lat="42.653" lon="1.62921">
        <ele>1877.5920410156</ele>
        <time>2012-06-09T15:09:48Z</time>
      </trkpt>
      <trkpt lat="42.65305" lon="1.62923">
        <ele>1877.1115722656</ele>
        <time>2012-06-09T15:09:53Z</time>
      </trkpt>
      <trkpt lat="42.65307" lon="1.62923">
        <ele>1878.0727539062</ele>
        <time>2012-06-09T15:09:57Z</time>
      </trkpt>
      <trkpt lat="42.65311" lon="1.62924">
        <ele>1879.9953613281</ele>
        <time>2012-06-09T15:10:03Z</time>
      </trkpt>
      <trkpt lat="42.65316" lon="1.62928">
        <ele>1879.9953613281</ele>
        <time>2012-06-09T15:10:09Z</time>
      </trkpt>
      <trkpt lat="42.65321" lon="1.62928">
        <ele>1879.9953613281</ele>
        <time>2012-06-09T15:10:15Z</time>
      </trkpt>
      <trkpt lat="42.65327" lon="1.62931">
        <ele>1878.0727539062</ele>
        <time>2012-06-09T15:10:21Z</time>
      </trkpt>
      <trkpt lat="42.6533" lon="1.62933">
        <ele>1877.5920410156</ele>
        <time>2012-06-09T15:10:26Z</time>
      </trkpt>
      <trkpt lat="42.65332" lon="1.62935">
        <ele>1878.0727539062</ele>
        <time>2012-06-09T15:10:31Z</time>
      </trkpt>
      <trkpt lat="42.65335" lon="1.62936">
        <ele>1879.5146484375</ele>
        <time>2012-06-09T15:10:36Z</time>
      </trkpt>
      <trkpt lat="42.65338" lon="1.62938">
        <ele>1878.5534667969</ele>
        <time>2012-06-09T15:10:42Z</time>
      </trkpt>
      <trkpt lat="42.6534" lon="1.62941">
        <ele>1874.7082519531</ele>
        <time>2012-06-09T15:10:48Z</time>
      </trkpt>
      <trkpt lat="42.65346" lon="1.62941">
        <ele>1872.3049316406</ele>
        <time>2012-06-09T15:10:53Z</time>
      </trkpt>
      <trkpt lat="42.65352" lon="1.62941">
        <ele>1872.3049316406</ele>
        <time>2012-06-09T15:10:59Z</time>
      </trkpt>
      <trkpt lat="42.65354" lon="1.6294">
        <ele>1872.3049316406</ele>
        <time>2012-06-09T15:11:01Z</time>
      </trkpt>
      <trkpt lat="42.65362" lon="1.62942">
        <ele>1869.4211425781</ele>
        <time>2012-06-09T15:11:08Z</time>
      </trkpt>
      <trkpt lat="42.65364" lon="1.6294">
        <ele>1868.9404296875</ele>
        <time>2012-06-09T15:11:10Z</time>
      </trkpt>
      <trkpt lat="42.65368" lon="1.62938">
        <ele>1867.498046875</ele>
        <time>2012-06-09T15:11:14Z</time>
      </trkpt>
      <trkpt lat="42.65376" lon="1.62938">
        <ele>1868.4597167969</ele>
        <time>2012-06-09T15:11:22Z</time>
      </trkpt>
      <trkpt lat="42.65377" lon="1.62938">
        <ele>1868.4597167969</ele>
        <time>2012-06-09T15:11:23Z</time>
      </trkpt>
      <trkpt lat="42.65381" lon="1.62935">
        <ele>1868.9404296875</ele>
        <time>2012-06-09T15:11:27Z</time>
      </trkpt>
      <trkpt lat="42.65385" lon="1.62928">
        <ele>1868.4597167969</ele>
        <time>2012-06-09T15:11:34Z</time>
      </trkpt>
      <trkpt lat="42.65387" lon="1.62926">
        <ele>1868.4597167969</ele>
        <time>2012-06-09T15:11:36Z</time>
      </trkpt>
      <trkpt lat="42.65393" lon="1.62925">
        <ele>1868.4597167969</ele>
        <time>2012-06-09T15:11:43Z</time>
      </trkpt>
      <trkpt lat="42.65396" lon="1.62924">
        <ele>1868.4597167969</ele>
        <time>2012-06-09T15:11:47Z</time>
      </trkpt>
      <trkpt lat="42.65401" lon="1.62923">
        <ele>1867.498046875</ele>
        <time>2012-06-09T15:11:54Z</time>
      </trkpt>
      <trkpt lat="42.65405" lon="1.62923">
        <ele>1867.017578125</ele>
        <time>2012-06-09T15:11:59Z</time>
      </trkpt>
      <trkpt lat="42.65408" lon="1.62922">
        <ele>1866.5368652344</ele>
        <time>2012-06-09T15:12:04Z</time>
      </trkpt>
      <trkpt lat="42.65412" lon="1.62919">
        <ele>1866.5368652344</ele>
        <time>2012-06-09T15:12:09Z</time>
      </trkpt>
      <trkpt lat="42.65415" lon="1.62917">
        <ele>1866.0561523438</ele>
        <time>2012-06-09T15:12:13Z</time>
      </trkpt>
      <trkpt lat="42.65419" lon="1.62916">
        <ele>1863.6528320312</ele>
        <time>2012-06-09T15:12:19Z</time>
      </trkpt>
      <trkpt lat="42.65424" lon="1.62915">
        <ele>1862.2109375</ele>
        <time>2012-06-09T15:12:25Z</time>
      </trkpt>
      <trkpt lat="42.65429" lon="1.62915">
        <ele>1861.2497558594</ele>
        <time>2012-06-09T15:12:31Z</time>
      </trkpt>
      <trkpt lat="42.65433" lon="1.62915">
        <ele>1860.7690429688</ele>
        <time>2012-06-09T15:12:35Z</time>
      </trkpt>
      <trkpt lat="42.65438" lon="1.62917">
        <ele>1859.8076171875</ele>
        <time>2012-06-09T15:12:41Z</time>
      </trkpt>
      <trkpt lat="42.65442" lon="1.62917">
        <ele>1858.8464355469</ele>
        <time>2012-06-09T15:12:46Z</time>
      </trkpt>
      <trkpt lat="42.65446" lon="1.62916">
        <ele>1856.923828125</ele>
        <time>2012-06-09T15:12:53Z</time>
      </trkpt>
      <trkpt lat="42.65449" lon="1.62917">
        <ele>1856.4431152344</ele>
        <time>2012-06-09T15:12:58Z</time>
      </trkpt>
      <trkpt lat="42.65454" lon="1.62918">
        <ele>1855.0012207031</ele>
        <time>2012-06-09T15:13:04Z</time>
      </trkpt>
      <trkpt lat="42.6546" lon="1.62919">
        <ele>1854.0400390625</ele>
        <time>2012-06-09T15:13:10Z</time>
      </trkpt>
      <trkpt lat="42.65465" lon="1.62922">
        <ele>1853.0786132812</ele>
        <time>2012-06-09T15:13:16Z</time>
      </trkpt>
      <trkpt lat="42.6547" lon="1.62924">
        <ele>1852.5979003906</ele>
        <time>2012-06-09T15:13:22Z</time>
      </trkpt>
      <trkpt lat="42.65473" lon="1.62923">
        <ele>1853.0786132812</ele>
        <time>2012-06-09T15:13:26Z</time>
      </trkpt>
      <trkpt lat="42.65476" lon="1.62922">
        <ele>1851.6364746094</ele>
        <time>2012-06-09T15:13:33Z</time>
      </trkpt>
      <trkpt lat="42.65478" lon="1.62926">
        <ele>1848.7524414062</ele>
        <time>2012-06-09T15:13:39Z</time>
      </trkpt>
      <trkpt lat="42.65481" lon="1.62929">
        <ele>1846.3493652344</ele>
        <time>2012-06-09T15:13:44Z</time>
      </trkpt>
      <trkpt lat="42.65485" lon="1.62932">
        <ele>1844.4265136719</ele>
        <time>2012-06-09T15:13:50Z</time>
      </trkpt>
      <trkpt lat="42.65487" lon="1.62936">
        <ele>1842.5041503906</ele>
        <time>2012-06-09T15:13:56Z</time>
      </trkpt>
      <trkpt lat="42.65487" lon="1.62936">
        <ele>1843.4653320312</ele>
        <time>2012-06-09T15:14:06Z</time>
      </trkpt>
      <trkpt lat="42.65487" lon="1.62936">
        <ele>1842.9846191406</ele>
        <time>2012-06-09T15:14:13Z</time>
      </trkpt>
      <trkpt lat="42.65487" lon="1.62936">
        <ele>1843.4653320312</ele>
        <time>2012-06-09T15:14:21Z</time>
      </trkpt>
      <trkpt lat="42.65487" lon="1.62937">
        <ele>1842.9846191406</ele>
        <time>2012-06-09T15:14:44Z</time>
      </trkpt>
      <trkpt lat="42.6549" lon="1.62938">
        <ele>1842.0234375</ele>
        <time>2012-06-09T15:14:52Z</time>
      </trkpt>
      <trkpt lat="42.65493" lon="1.62939">
        <ele>1840.1008300781</ele>
        <time>2012-06-09T15:14:57Z</time>
      </trkpt>
      <trkpt lat="42.65496" lon="1.62939">
        <ele>1838.6589355469</ele>
        <time>2012-06-09T15:15:02Z</time>
      </trkpt>
      <trkpt lat="42.655" lon="1.62942">
        <ele>1837.6975097656</ele>
        <time>2012-06-09T15:15:08Z</time>
      </trkpt>
      <trkpt lat="42.65502" lon="1.62947">
        <ele>1835.7746582031</ele>
        <time>2012-06-09T15:15:13Z</time>
      </trkpt>
      <trkpt lat="42.65505" lon="1.62949">
        <ele>1835.7746582031</ele>
        <time>2012-06-09T15:15:18Z</time>
      </trkpt>
      <trkpt lat="42.6551" lon="1.62949">
        <ele>1835.2939453125</ele>
        <time>2012-06-09T15:15:25Z</time>
      </trkpt>
      <trkpt lat="42.65514" lon="1.62952">
        <ele>1834.8134765625</ele>
        <time>2012-06-09T15:15:30Z</time>
      </trkpt>
      <trkpt lat="42.65517" lon="1.62953">
        <ele>1834.3327636719</ele>
        <time>2012-06-09T15:15:36Z</time>
      </trkpt>
      <trkpt lat="42.65522" lon="1.62951">
        <ele>1833.8520507812</ele>
        <time>2012-06-09T15:15:42Z</time>
      </trkpt>
      <trkpt lat="42.65525" lon="1.62952">
        <ele>1832.890625</ele>
        <time>2012-06-09T15:15:48Z</time>
      </trkpt>
      <trkpt lat="42.65528" lon="1.62951">
        <ele>1832.890625</ele>
        <time>2012-06-09T15:15:52Z</time>
      </trkpt>
      <trkpt lat="42.65531" lon="1.62953">
        <ele>1831.4487304688</ele>
        <time>2012-06-09T15:15:58Z</time>
      </trkpt>
      <trkpt lat="42.65534" lon="1.62955">
        <ele>1830.0068359375</ele>
        <time>2012-06-09T15:16:04Z</time>
      </trkpt>
      <trkpt lat="42.65535" lon="1.6296">
        <ele>1829.0454101562</ele>
        <time>2012-06-09T15:16:09Z</time>
      </trkpt>
      <trkpt lat="42.65535" lon="1.62965">
        <ele>1827.603515625</ele>
        <time>2012-06-09T15:16:15Z</time>
      </trkpt>
      <trkpt lat="42.65538" lon="1.62967">
        <ele>1826.1616210938</ele>
        <time>2012-06-09T15:16:20Z</time>
      </trkpt>
      <trkpt lat="42.65544" lon="1.6297">
        <ele>1824.7197265625</ele>
        <time>2012-06-09T15:16:27Z</time>
      </trkpt>
      <trkpt lat="42.65546" lon="1.62976">
        <ele>1822.7971191406</ele>
        <time>2012-06-09T15:16:34Z</time>
      </trkpt>
      <trkpt lat="42.65548" lon="1.62982">
        <ele>1821.8356933594</ele>
        <time>2012-06-09T15:16:39Z</time>
      </trkpt>
      <trkpt lat="42.65549" lon="1.62984">
        <ele>1820.3937988281</ele>
        <time>2012-06-09T15:16:43Z</time>
      </trkpt>
      <trkpt lat="42.65552" lon="1.62986">
        <ele>1818.9516601562</ele>
        <time>2012-06-09T15:16:49Z</time>
      </trkpt>
      <trkpt lat="42.65556" lon="1.6299">
        <ele>1818.4709472656</ele>
        <time>2012-06-09T15:16:55Z</time>
      </trkpt>
      <trkpt lat="42.65561" lon="1.62991">
        <ele>1817.0290527344</ele>
        <time>2012-06-09T15:17:02Z</time>
      </trkpt>
      <trkpt lat="42.65562" lon="1.62993">
        <ele>1816.5483398438</ele>
        <time>2012-06-09T15:17:06Z</time>
      </trkpt>
      <trkpt lat="42.65564" lon="1.62994">
        <ele>1816.0676269531</ele>
        <time>2012-06-09T15:17:11Z</time>
      </trkpt>
      <trkpt lat="42.6557" lon="1.62997">
        <ele>1814.6257324219</ele>
        <time>2012-06-09T15:17:17Z</time>
      </trkpt>
      <trkpt lat="42.65575" lon="1.62999">
        <ele>1813.6643066406</ele>
        <time>2012-06-09T15:17:23Z</time>
      </trkpt>
      <trkpt lat="42.6558" lon="1.62998">
        <ele>1813.1838378906</ele>
        <time>2012-06-09T15:17:28Z</time>
      </trkpt>
      <trkpt lat="42.65583" lon="1.62999">
        <ele>1812.2224121094</ele>
        <time>2012-06-09T15:17:34Z</time>
      </trkpt>
      <trkpt lat="42.65588" lon="1.62999">
        <ele>1811.7419433594</ele>
        <time>2012-06-09T15:17:39Z</time>
      </trkpt>
      <trkpt lat="42.65592" lon="1.63">
        <ele>1810.7805175781</ele>
        <time>2012-06-09T15:17:45Z</time>
      </trkpt>
      <trkpt lat="42.65596" lon="1.62999">
        <ele>1809.8190917969</ele>
        <time>2012-06-09T15:17:51Z</time>
      </trkpt>
      <trkpt lat="42.65599" lon="1.63">
        <ele>1809.3386230469</ele>
        <time>2012-06-09T15:17:56Z</time>
      </trkpt>
      <trkpt lat="42.65602" lon="1.62998">
        <ele>1808.8579101562</ele>
        <time>2012-06-09T15:18:01Z</time>
      </trkpt>
      <trkpt lat="42.65607" lon="1.63">
        <ele>1808.8579101562</ele>
        <time>2012-06-09T15:18:07Z</time>
      </trkpt>
      <trkpt lat="42.6561" lon="1.63001">
        <ele>1806.4545898438</ele>
        <time>2012-06-09T15:18:12Z</time>
      </trkpt>
      <trkpt lat="42.6561" lon="1.63005">
        <ele>1804.0515136719</ele>
        <time>2012-06-09T15:18:17Z</time>
      </trkpt>
      <trkpt lat="42.6561" lon="1.63007">
        <ele>1803.5705566406</ele>
        <time>2012-06-09T15:18:22Z</time>
      </trkpt>
      <trkpt lat="42.6561" lon="1.63011">
        <ele>1802.1284179688</ele>
        <time>2012-06-09T15:18:29Z</time>
      </trkpt>
      <trkpt lat="42.65611" lon="1.63015">
        <ele>1802.6091308594</ele>
        <time>2012-06-09T15:18:35Z</time>
      </trkpt>
      <trkpt lat="42.65612" lon="1.63018">
        <ele>1801.6479492188</ele>
        <time>2012-06-09T15:18:40Z</time>
      </trkpt>
      <trkpt lat="42.65619" lon="1.63019">
        <ele>1800.6865234375</ele>
        <time>2012-06-09T15:18:46Z</time>
      </trkpt>
      <trkpt lat="42.65621" lon="1.63023">
        <ele>1800.2060546875</ele>
        <time>2012-06-09T15:18:49Z</time>
      </trkpt>
      <trkpt lat="42.65628" lon="1.63032">
        <ele>1799.2446289062</ele>
        <time>2012-06-09T15:18:55Z</time>
      </trkpt>
      <trkpt lat="42.6563" lon="1.63034">
        <ele>1798.283203125</ele>
        <time>2012-06-09T15:18:57Z</time>
      </trkpt>
      <trkpt lat="42.65639" lon="1.6304">
        <ele>1795.3994140625</ele>
        <time>2012-06-09T15:19:04Z</time>
      </trkpt>
      <trkpt lat="42.65644" lon="1.63043">
        <ele>1794.4379882812</ele>
        <time>2012-06-09T15:19:08Z</time>
      </trkpt>
      <trkpt lat="42.65653" lon="1.63044">
        <ele>1793.9575195312</ele>
        <time>2012-06-09T15:19:14Z</time>
      </trkpt>
      <trkpt lat="42.65661" lon="1.63049">
        <ele>1792.515625</ele>
        <time>2012-06-09T15:19:20Z</time>
      </trkpt>
      <trkpt lat="42.65665" lon="1.63054">
        <ele>1792.515625</ele>
        <time>2012-06-09T15:19:24Z</time>
      </trkpt>
      <trkpt lat="42.65668" lon="1.63057">
        <ele>1792.0349121094</ele>
        <time>2012-06-09T15:19:27Z</time>
      </trkpt>
      <trkpt lat="42.65676" lon="1.63061">
        <ele>1791.0734863281</ele>
        <time>2012-06-09T15:19:33Z</time>
      </trkpt>
      <trkpt lat="42.65677" lon="1.63063">
        <ele>1791.0734863281</ele>
        <time>2012-06-09T15:19:34Z</time>
      </trkpt>
      <trkpt lat="42.65687" lon="1.63069">
        <ele>1789.6315917969</ele>
        <time>2012-06-09T15:19:42Z</time>
      </trkpt>
      <trkpt lat="42.65691" lon="1.63076">
        <ele>1788.6704101562</ele>
        <time>2012-06-09T15:19:47Z</time>
      </trkpt>
      <trkpt lat="42.65701" lon="1.63083">
        <ele>1787.2280273438</ele>
        <time>2012-06-09T15:19:55Z</time>
      </trkpt>
      <trkpt lat="42.65714" lon="1.63085">
        <ele>1786.2668457031</ele>
        <time>2012-06-09T15:20:04Z</time>
      </trkpt>
      <trkpt lat="42.65724" lon="1.63086">
        <ele>1786.7473144531</ele>
        <time>2012-06-09T15:20:12Z</time>
      </trkpt>
      <trkpt lat="42.65733" lon="1.63086">
        <ele>1786.7473144531</ele>
        <time>2012-06-09T15:20:19Z</time>
      </trkpt>
      <trkpt lat="42.6574" lon="1.63085">
        <ele>1786.7473144531</ele>
        <time>2012-06-09T15:20:25Z</time>
      </trkpt>
      <trkpt lat="42.65741" lon="1.63086">
        <ele>1786.7473144531</ele>
        <time>2012-06-09T15:20:26Z</time>
      </trkpt>
      <trkpt lat="42.65751" lon="1.63084">
        <ele>1786.7473144531</ele>
        <time>2012-06-09T15:20:34Z</time>
      </trkpt>
      <trkpt lat="42.65754" lon="1.63086">
        <ele>1786.7473144531</ele>
        <time>2012-06-09T15:20:37Z</time>
      </trkpt>
      <trkpt lat="42.65761" lon="1.63089">
        <ele>1786.7473144531</ele>
        <time>2012-06-09T15:20:43Z</time>
      </trkpt>
      <trkpt lat="42.65763" lon="1.63091">
        <ele>1786.7473144531</ele>
        <time>2012-06-09T15:20:45Z</time>
      </trkpt>
      <trkpt lat="42.6577" lon="1.63095">
        <ele>1787.2280273438</ele>
        <time>2012-06-09T15:20:51Z</time>
      </trkpt>
      <trkpt lat="42.65781" lon="1.631">
        <ele>1787.7087402344</ele>
        <time>2012-06-09T15:21:01Z</time>
      </trkpt>
      <trkpt lat="42.65783" lon="1.63101">
        <ele>1787.2280273438</ele>
        <time>2012-06-09T15:21:05Z</time>
      </trkpt>
      <trkpt lat="42.65784" lon="1.63101">
        <ele>1787.2280273438</ele>
        <time>2012-06-09T15:21:07Z</time>
      </trkpt>
      <trkpt lat="42.65791" lon="1.63099">
        <ele>1787.2280273438</ele>
        <time>2012-06-09T15:21:12Z</time>
      </trkpt>
      <trkpt lat="42.65802" lon="1.63101">
        <ele>1786.7473144531</ele>
        <time>2012-06-09T15:21:20Z</time>
      </trkpt>
      <trkpt lat="42.65811" lon="1.63102">
        <ele>1786.7473144531</ele>
        <time>2012-06-09T15:21:27Z</time>
      </trkpt>
      <trkpt lat="42.65823" lon="1.63105">
        <ele>1786.2668457031</ele>
        <time>2012-06-09T15:21:35Z</time>
      </trkpt>
      <trkpt lat="42.65832" lon="1.63107">
        <ele>1786.2668457031</ele>
        <time>2012-06-09T15:21:42Z</time>
      </trkpt>
      <trkpt lat="42.65839" lon="1.63107">
        <ele>1786.2668457031</ele>
        <time>2012-06-09T15:21:48Z</time>
      </trkpt>
      <trkpt lat="42.65846" lon="1.63106">
        <ele>1786.2668457031</ele>
        <time>2012-06-09T15:21:54Z</time>
      </trkpt>
      <trkpt lat="42.6585" lon="1.63107">
        <ele>1786.7473144531</ele>
        <time>2012-06-09T15:21:57Z</time>
      </trkpt>
      <trkpt lat="42.6586" lon="1.63104">
        <ele>1787.7087402344</ele>
        <time>2012-06-09T15:22:05Z</time>
      </trkpt>
      <trkpt lat="42.65861" lon="1.63104">
        <ele>1787.7087402344</ele>
        <time>2012-06-09T15:22:06Z</time>
      </trkpt>
      <trkpt lat="42.6587" lon="1.63103">
        <ele>1787.7087402344</ele>
        <time>2012-06-09T15:22:13Z</time>
      </trkpt>
      <trkpt lat="42.65878" lon="1.63103">
        <ele>1787.2280273438</ele>
        <time>2012-06-09T15:22:20Z</time>
      </trkpt>
      <trkpt lat="42.65881" lon="1.63102">
        <ele>1788.1896972656</ele>
        <time>2012-06-09T15:22:23Z</time>
      </trkpt>
      <trkpt lat="42.65886" lon="1.63102">
        <ele>1789.1508789062</ele>
        <time>2012-06-09T15:22:27Z</time>
      </trkpt>
      <trkpt lat="42.65895" lon="1.63102">
        <ele>1789.6315917969</ele>
        <time>2012-06-09T15:22:34Z</time>
      </trkpt>
      <trkpt lat="42.65901" lon="1.63101">
        <ele>1790.1123046875</ele>
        <time>2012-06-09T15:22:39Z</time>
      </trkpt>
      <trkpt lat="42.65905" lon="1.63101">
        <ele>1790.1123046875</ele>
        <time>2012-06-09T15:22:42Z</time>
      </trkpt>
      <trkpt lat="42.65913" lon="1.631">
        <ele>1791.0734863281</ele>
        <time>2012-06-09T15:22:49Z</time>
      </trkpt>
      <trkpt lat="42.65923" lon="1.63099">
        <ele>1792.0349121094</ele>
        <time>2012-06-09T15:22:57Z</time>
      </trkpt>
      <trkpt lat="42.65929" lon="1.63098">
        <ele>1793.9575195312</ele>
        <time>2012-06-09T15:23:01Z</time>
      </trkpt>
      <trkpt lat="42.65939" lon="1.63098">
        <ele>1793.4768066406</ele>
        <time>2012-06-09T15:23:09Z</time>
      </trkpt>
      <trkpt lat="42.65944" lon="1.63097">
        <ele>1792.99609375</ele>
        <time>2012-06-09T15:23:13Z</time>
      </trkpt>
      <trkpt lat="42.65946" lon="1.63096">
        <ele>1792.515625</ele>
        <time>2012-06-09T15:23:15Z</time>
      </trkpt>
      <trkpt lat="42.65952" lon="1.63099">
        <ele>1792.0349121094</ele>
        <time>2012-06-09T15:23:20Z</time>
      </trkpt>
      <trkpt lat="42.65955" lon="1.63099">
        <ele>1791.0734863281</ele>
        <time>2012-06-09T15:23:24Z</time>
      </trkpt>
      <trkpt lat="42.65964" lon="1.63101">
        <ele>1789.6315917969</ele>
        <time>2012-06-09T15:23:31Z</time>
      </trkpt>
      <trkpt lat="42.65974" lon="1.63104">
        <ele>1789.1508789062</ele>
        <time>2012-06-09T15:23:38Z</time>
      </trkpt>
      <trkpt lat="42.65978" lon="1.63105">
        <ele>1788.1896972656</ele>
        <time>2012-06-09T15:23:42Z</time>
      </trkpt>
      <trkpt lat="42.6598" lon="1.63107">
        <ele>1788.1896972656</ele>
        <time>2012-06-09T15:23:44Z</time>
      </trkpt>
      <trkpt lat="42.65984" lon="1.63108">
        <ele>1786.7473144531</ele>
        <time>2012-06-09T15:23:48Z</time>
      </trkpt>
      <trkpt lat="42.65989" lon="1.63114">
        <ele>1784.3442382812</ele>
        <time>2012-06-09T15:23:54Z</time>
      </trkpt>
      <trkpt lat="42.6599" lon="1.63115">
        <ele>1783.3828125</ele>
        <time>2012-06-09T15:23:56Z</time>
      </trkpt>
      <trkpt lat="42.65996" lon="1.63121">
        <ele>1779.5375976562</ele>
        <time>2012-06-09T15:24:03Z</time>
      </trkpt>
      <trkpt lat="42.65997" lon="1.63124">
        <ele>1778.5764160156</ele>
        <time>2012-06-09T15:24:07Z</time>
      </trkpt>
      <trkpt lat="42.65999" lon="1.63128">
        <ele>1776.6538085938</ele>
        <time>2012-06-09T15:24:11Z</time>
      </trkpt>
      <trkpt lat="42.66004" lon="1.63129">
        <ele>1774.2504882812</ele>
        <time>2012-06-09T15:24:15Z</time>
      </trkpt>
      <trkpt lat="42.6601" lon="1.63132">
        <ele>1772.3278808594</ele>
        <time>2012-06-09T15:24:21Z</time>
      </trkpt>
      <trkpt lat="42.66012" lon="1.63133">
        <ele>1771.8469238281</ele>
        <time>2012-06-09T15:24:24Z</time>
      </trkpt>
      <trkpt lat="42.66013" lon="1.63137">
        <ele>1771.3662109375</ele>
        <time>2012-06-09T15:24:30Z</time>
      </trkpt>
      <trkpt lat="42.66015" lon="1.63143">
        <ele>1770.4050292969</ele>
        <time>2012-06-09T15:24:34Z</time>
      </trkpt>
      <trkpt lat="42.66016" lon="1.63145">
        <ele>1770.8857421875</ele>
        <time>2012-06-09T15:24:35Z</time>
      </trkpt>
      <trkpt lat="42.6602" lon="1.63147">
        <ele>1769.4438476562</ele>
        <time>2012-06-09T15:24:39Z</time>
      </trkpt>
      <trkpt lat="42.66026" lon="1.63144">
        <ele>1770.8857421875</ele>
        <time>2012-06-09T15:24:46Z</time>
      </trkpt>
      <trkpt lat="42.66031" lon="1.63142">
        <ele>1769.9243164062</ele>
        <time>2012-06-09T15:24:51Z</time>
      </trkpt>
      <trkpt lat="42.66034" lon="1.63139">
        <ele>1768.9631347656</ele>
        <time>2012-06-09T15:24:55Z</time>
      </trkpt>
      <trkpt lat="42.66035" lon="1.63134">
        <ele>1770.4050292969</ele>
        <time>2012-06-09T15:25:00Z</time>
      </trkpt>
      <trkpt lat="42.6604" lon="1.63132">
        <ele>1770.4050292969</ele>
        <time>2012-06-09T15:25:05Z</time>
      </trkpt>
      <trkpt lat="42.66043" lon="1.6313">
        <ele>1769.9243164062</ele>
        <time>2012-06-09T15:25:11Z</time>
      </trkpt>
      <trkpt lat="42.6605" lon="1.63131">
        <ele>1768.482421875</ele>
        <time>2012-06-09T15:25:17Z</time>
      </trkpt>
      <trkpt lat="42.66053" lon="1.63132">
        <ele>1768.9631347656</ele>
        <time>2012-06-09T15:25:22Z</time>
      </trkpt>
      <trkpt lat="42.66058" lon="1.63131">
        <ele>1768.482421875</ele>
        <time>2012-06-09T15:25:28Z</time>
      </trkpt>
      <trkpt lat="42.66063" lon="1.63131">
        <ele>1767.0405273438</ele>
        <time>2012-06-09T15:25:33Z</time>
      </trkpt>
      <trkpt lat="42.66067" lon="1.63133">
        <ele>1765.1179199219</ele>
        <time>2012-06-09T15:25:37Z</time>
      </trkpt>
      <trkpt lat="42.66071" lon="1.63128">
        <ele>1765.1179199219</ele>
        <time>2012-06-09T15:25:43Z</time>
      </trkpt>
      <trkpt lat="42.66076" lon="1.63124">
        <ele>1766.0791015625</ele>
        <time>2012-06-09T15:25:49Z</time>
      </trkpt>
      <trkpt lat="42.66081" lon="1.63126">
        <ele>1766.0791015625</ele>
        <time>2012-06-09T15:25:55Z</time>
      </trkpt>
      <trkpt lat="42.66085" lon="1.63129">
        <ele>1765.5986328125</ele>
        <time>2012-06-09T15:25:58Z</time>
      </trkpt>
      <trkpt lat="42.6609" lon="1.63133">
        <ele>1765.1179199219</ele>
        <time>2012-06-09T15:26:04Z</time>
      </trkpt>
      <trkpt lat="42.66092" lon="1.63132">
        <ele>1764.1564941406</ele>
        <time>2012-06-09T15:26:07Z</time>
      </trkpt>
      <trkpt lat="42.66098" lon="1.63131">
        <ele>1763.1953125</ele>
        <time>2012-06-09T15:26:14Z</time>
      </trkpt>
      <trkpt lat="42.66104" lon="1.6313">
        <ele>1763.1953125</ele>
        <time>2012-06-09T15:26:20Z</time>
      </trkpt>
      <trkpt lat="42.66108" lon="1.63129">
        <ele>1762.7145996094</ele>
        <time>2012-06-09T15:26:25Z</time>
      </trkpt>
      <trkpt lat="42.6611" lon="1.63129">
        <ele>1762.7145996094</ele>
        <time>2012-06-09T15:26:27Z</time>
      </trkpt>
      <trkpt lat="42.66115" lon="1.63132">
        <ele>1763.1953125</ele>
        <time>2012-06-09T15:26:33Z</time>
      </trkpt>
      <trkpt lat="42.66119" lon="1.63131">
        <ele>1762.7145996094</ele>
        <time>2012-06-09T15:26:38Z</time>
      </trkpt>
      <trkpt lat="42.66124" lon="1.63133">
        <ele>1761.2727050781</ele>
        <time>2012-06-09T15:26:43Z</time>
      </trkpt>
      <trkpt lat="42.66127" lon="1.63133">
        <ele>1760.7919921875</ele>
        <time>2012-06-09T15:26:49Z</time>
      </trkpt>
      <trkpt lat="42.66129" lon="1.63132">
        <ele>1760.7919921875</ele>
        <time>2012-06-09T15:26:56Z</time>
      </trkpt>
      <trkpt lat="42.6613" lon="1.63134">
        <ele>1762.2338867188</ele>
        <time>2012-06-09T15:27:06Z</time>
      </trkpt>
      <trkpt lat="42.66133" lon="1.63139">
        <ele>1761.2727050781</ele>
        <time>2012-06-09T15:27:12Z</time>
      </trkpt>
      <trkpt lat="42.66134" lon="1.63144">
        <ele>1757.908203125</ele>
        <time>2012-06-09T15:27:20Z</time>
      </trkpt>
      <trkpt lat="42.66137" lon="1.63145">
        <ele>1755.9851074219</ele>
        <time>2012-06-09T15:27:27Z</time>
      </trkpt>
      <trkpt lat="42.66139" lon="1.63146">
        <ele>1754.0627441406</ele>
        <time>2012-06-09T15:27:33Z</time>
      </trkpt>
      <trkpt lat="42.66137" lon="1.6315">
        <ele>1751.1787109375</ele>
        <time>2012-06-09T15:27:39Z</time>
      </trkpt>
      <trkpt lat="42.66138" lon="1.63156">
        <ele>1748.775390625</ele>
        <time>2012-06-09T15:27:46Z</time>
      </trkpt>
      <trkpt lat="42.66136" lon="1.63163">
        <ele>1746.8527832031</ele>
        <time>2012-06-09T15:27:53Z</time>
      </trkpt>
      <trkpt lat="42.66135" lon="1.63167">
        <ele>1745.8916015625</ele>
        <time>2012-06-09T15:27:59Z</time>
      </trkpt>
      <trkpt lat="42.66135" lon="1.6317">
        <ele>1744.9301757812</ele>
        <time>2012-06-09T15:28:06Z</time>
      </trkpt>
      <trkpt lat="42.66136" lon="1.63174">
        <ele>1744.9301757812</ele>
        <time>2012-06-09T15:28:12Z</time>
      </trkpt>
      <trkpt lat="42.66135" lon="1.63176">
        <ele>1744.4494628906</ele>
        <time>2012-06-09T15:28:17Z</time>
      </trkpt>
      <trkpt lat="42.66134" lon="1.6318">
        <ele>1743.0075683594</ele>
        <time>2012-06-09T15:28:23Z</time>
      </trkpt>
      <trkpt lat="42.66133" lon="1.63185">
        <ele>1741.5656738281</ele>
        <time>2012-06-09T15:28:29Z</time>
      </trkpt>
      <trkpt lat="42.66131" lon="1.63189">
        <ele>1740.6042480469</ele>
        <time>2012-06-09T15:28:35Z</time>
      </trkpt>
      <trkpt lat="42.66132" lon="1.63191">
        <ele>1738.681640625</ele>
        <time>2012-06-09T15:28:40Z</time>
      </trkpt>
      <trkpt lat="42.66133" lon="1.63191">
        <ele>1738.681640625</ele>
        <time>2012-06-09T15:28:48Z</time>
      </trkpt>
      <trkpt lat="42.66134" lon="1.63191">
        <ele>1737.2395019531</ele>
        <time>2012-06-09T15:28:56Z</time>
      </trkpt>
      <trkpt lat="42.66139" lon="1.6319">
        <ele>1736.2783203125</ele>
        <time>2012-06-09T15:29:01Z</time>
      </trkpt>
      <trkpt lat="42.66145" lon="1.63186">
        <ele>1735.7976074219</ele>
        <time>2012-06-09T15:29:08Z</time>
      </trkpt>
      <trkpt lat="42.66149" lon="1.63185">
        <ele>1733.3942871094</ele>
        <time>2012-06-09T15:29:14Z</time>
      </trkpt>
      <trkpt lat="42.66154" lon="1.63186">
        <ele>1731.9523925781</ele>
        <time>2012-06-09T15:29:21Z</time>
      </trkpt>
      <trkpt lat="42.66156" lon="1.63189">
        <ele>1730.0297851562</ele>
        <time>2012-06-09T15:29:26Z</time>
      </trkpt>
      <trkpt lat="42.66155" lon="1.63192">
        <ele>1728.587890625</ele>
        <time>2012-06-09T15:29:31Z</time>
      </trkpt>
      <trkpt lat="42.66155" lon="1.63194">
        <ele>1727.1459960938</ele>
        <time>2012-06-09T15:29:36Z</time>
      </trkpt>
      <trkpt lat="42.66159" lon="1.63194">
        <ele>1725.7038574219</ele>
        <time>2012-06-09T15:29:42Z</time>
      </trkpt>
      <trkpt lat="42.66162" lon="1.63192">
        <ele>1724.2619628906</ele>
        <time>2012-06-09T15:29:48Z</time>
      </trkpt>
      <trkpt lat="42.66166" lon="1.63191">
        <ele>1723.3005371094</ele>
        <time>2012-06-09T15:29:53Z</time>
      </trkpt>
      <trkpt lat="42.66171" lon="1.63191">
        <ele>1721.3776855469</ele>
        <time>2012-06-09T15:29:59Z</time>
      </trkpt>
      <trkpt lat="42.66175" lon="1.63192">
        <ele>1720.8972167969</ele>
        <time>2012-06-09T15:30:04Z</time>
      </trkpt>
      <trkpt lat="42.66178" lon="1.63197">
        <ele>1719.4553222656</ele>
        <time>2012-06-09T15:30:11Z</time>
      </trkpt>
      <trkpt lat="42.66181" lon="1.63201">
        <ele>1716.5712890625</ele>
        <time>2012-06-09T15:30:17Z</time>
      </trkpt>
      <trkpt lat="42.66185" lon="1.63205">
        <ele>1715.1293945312</ele>
        <time>2012-06-09T15:30:23Z</time>
      </trkpt>
      <trkpt lat="42.66188" lon="1.6321">
        <ele>1714.16796875</ele>
        <time>2012-06-09T15:30:29Z</time>
      </trkpt>
      <trkpt lat="42.66192" lon="1.63215">
        <ele>1712.2453613281</ele>
        <time>2012-06-09T15:30:35Z</time>
      </trkpt>
      <trkpt lat="42.66195" lon="1.63219">
        <ele>1710.8034667969</ele>
        <time>2012-06-09T15:30:41Z</time>
      </trkpt>
      <trkpt lat="42.66201" lon="1.63222">
        <ele>1709.8420410156</ele>
        <time>2012-06-09T15:30:48Z</time>
      </trkpt>
      <trkpt lat="42.66206" lon="1.63223">
        <ele>1709.3615722656</ele>
        <time>2012-06-09T15:30:54Z</time>
      </trkpt>
      <trkpt lat="42.66212" lon="1.63224">
        <ele>1709.3615722656</ele>
        <time>2012-06-09T15:31:01Z</time>
      </trkpt>
      <trkpt lat="42.66217" lon="1.63224">
        <ele>1708.880859375</ele>
        <time>2012-06-09T15:31:06Z</time>
      </trkpt>
      <trkpt lat="42.66219" lon="1.63224">
        <ele>1708.4001464844</ele>
        <time>2012-06-09T15:31:08Z</time>
      </trkpt>
      <trkpt lat="42.66224" lon="1.63224">
        <ele>1707.9194335938</ele>
        <time>2012-06-09T15:31:12Z</time>
      </trkpt>
      <trkpt lat="42.66228" lon="1.63227">
        <ele>1707.9194335938</ele>
        <time>2012-06-09T15:31:16Z</time>
      </trkpt>
      <trkpt lat="42.66236" lon="1.6323">
        <ele>1706.4772949219</ele>
        <time>2012-06-09T15:31:22Z</time>
      </trkpt>
      <trkpt lat="42.66241" lon="1.63232">
        <ele>1705.5161132812</ele>
        <time>2012-06-09T15:31:26Z</time>
      </trkpt>
      <trkpt lat="42.66251" lon="1.63233">
        <ele>1703.1127929688</ele>
        <time>2012-06-09T15:31:34Z</time>
      </trkpt>
      <trkpt lat="42.66257" lon="1.63235">
        <ele>1702.1513671875</ele>
        <time>2012-06-09T15:31:38Z</time>
      </trkpt>
      <trkpt lat="42.66262" lon="1.63239">
        <ele>1701.6708984375</ele>
        <time>2012-06-09T15:31:43Z</time>
      </trkpt>
      <trkpt lat="42.66272" lon="1.63243">
        <ele>1700.2290039062</ele>
        <time>2012-06-09T15:31:51Z</time>
      </trkpt>
      <trkpt lat="42.66277" lon="1.63248">
        <ele>1699.7482910156</ele>
        <time>2012-06-09T15:31:58Z</time>
      </trkpt>
      <trkpt lat="42.66282" lon="1.63252">
        <ele>1699.267578125</ele>
        <time>2012-06-09T15:32:02Z</time>
      </trkpt>
      <trkpt lat="42.66289" lon="1.63255">
        <ele>1697.3449707031</ele>
        <time>2012-06-09T15:32:08Z</time>
      </trkpt>
      <trkpt lat="42.66291" lon="1.63256">
        <ele>1696.8642578125</ele>
        <time>2012-06-09T15:32:10Z</time>
      </trkpt>
      <trkpt lat="42.66301" lon="1.63258">
        <ele>1694.4609375</ele>
        <time>2012-06-09T15:32:17Z</time>
      </trkpt>
      <trkpt lat="42.66311" lon="1.63262">
        <ele>1692.5385742188</ele>
        <time>2012-06-09T15:32:25Z</time>
      </trkpt>
      <trkpt lat="42.66319" lon="1.63271">
        <ele>1690.1350097656</ele>
        <time>2012-06-09T15:32:31Z</time>
      </trkpt>
      <trkpt lat="42.66326" lon="1.63279">
        <ele>1689.654296875</ele>
        <time>2012-06-09T15:32:37Z</time>
      </trkpt>
      <trkpt lat="42.66326" lon="1.6328">
        <ele>1689.1735839844</ele>
        <time>2012-06-09T15:32:38Z</time>
      </trkpt>
      <trkpt lat="42.66331" lon="1.63286">
        <ele>1688.2124023438</ele>
        <time>2012-06-09T15:32:44Z</time>
      </trkpt>
      <trkpt lat="42.66338" lon="1.63293">
        <ele>1686.7702636719</ele>
        <time>2012-06-09T15:32:50Z</time>
      </trkpt>
      <trkpt lat="42.66345" lon="1.633">
        <ele>1685.8090820312</ele>
        <time>2012-06-09T15:32:56Z</time>
      </trkpt>
      <trkpt lat="42.66355" lon="1.63309">
        <ele>1684.3671875</ele>
        <time>2012-06-09T15:33:02Z</time>
      </trkpt>
      <trkpt lat="42.66365" lon="1.63314">
        <ele>1682.4445800781</ele>
        <time>2012-06-09T15:33:07Z</time>
      </trkpt>
      <trkpt lat="42.66372" lon="1.6332">
        <ele>1680.5219726562</ele>
        <time>2012-06-09T15:33:12Z</time>
      </trkpt>
      <trkpt lat="42.66376" lon="1.63322">
        <ele>1679.0798339844</ele>
        <time>2012-06-09T15:33:16Z</time>
      </trkpt>
      <trkpt lat="42.66385" lon="1.63325">
        <ele>1676.6767578125</ele>
        <time>2012-06-09T15:33:22Z</time>
      </trkpt>
      <trkpt lat="42.66392" lon="1.63329">
        <ele>1674.75390625</ele>
        <time>2012-06-09T15:33:27Z</time>
      </trkpt>
      <trkpt lat="42.66398" lon="1.63335">
        <ele>1673.3120117188</ele>
        <time>2012-06-09T15:33:33Z</time>
      </trkpt>
      <trkpt lat="42.66402" lon="1.6334">
        <ele>1671.8698730469</ele>
        <time>2012-06-09T15:33:36Z</time>
      </trkpt>
      <trkpt lat="42.66411" lon="1.63349">
        <ele>1669.947265625</ele>
        <time>2012-06-09T15:33:41Z</time>
      </trkpt>
      <trkpt lat="42.66417" lon="1.63355">
        <ele>1668.0246582031</ele>
        <time>2012-06-09T15:33:46Z</time>
      </trkpt>
      <trkpt lat="42.66425" lon="1.63363">
        <ele>1666.1020507812</ele>
        <time>2012-06-09T15:33:52Z</time>
      </trkpt>
      <trkpt lat="42.66434" lon="1.63372">
        <ele>1663.6987304688</ele>
        <time>2012-06-09T15:33:59Z</time>
      </trkpt>
      <trkpt lat="42.66439" lon="1.63381">
        <ele>1662.2568359375</ele>
        <time>2012-06-09T15:34:06Z</time>
      </trkpt>
      <trkpt lat="42.66442" lon="1.63389">
        <ele>1659.3728027344</ele>
        <time>2012-06-09T15:34:11Z</time>
      </trkpt>
      <trkpt lat="42.66447" lon="1.63402">
        <ele>1656.4887695312</ele>
        <time>2012-06-09T15:34:16Z</time>
      </trkpt>
      <trkpt lat="42.66449" lon="1.63404">
        <ele>1656.0080566406</ele>
        <time>2012-06-09T15:34:17Z</time>
      </trkpt>
      <trkpt lat="42.66459" lon="1.63409">
        <ele>1655.046875</ele>
        <time>2012-06-09T15:34:23Z</time>
      </trkpt>
      <trkpt lat="42.66461" lon="1.63411">
        <ele>1654.5661621094</ele>
        <time>2012-06-09T15:34:25Z</time>
      </trkpt>
      <trkpt lat="42.66463" lon="1.63412">
        <ele>1654.0856933594</ele>
        <time>2012-06-09T15:34:27Z</time>
      </trkpt>
      <trkpt lat="42.66464" lon="1.63419">
        <ele>1653.1242675781</ele>
        <time>2012-06-09T15:34:34Z</time>
      </trkpt>
      <trkpt lat="42.66461" lon="1.63425">
        <ele>1651.6823730469</ele>
        <time>2012-06-09T15:34:39Z</time>
      </trkpt>
      <trkpt lat="42.66458" lon="1.63426">
        <ele>1650.2404785156</ele>
        <time>2012-06-09T15:34:42Z</time>
      </trkpt>
      <trkpt lat="42.66451" lon="1.63432">
        <ele>1650.2404785156</ele>
        <time>2012-06-09T15:34:50Z</time>
      </trkpt>
      <trkpt lat="42.66449" lon="1.63439">
        <ele>1652.1628417969</ele>
        <time>2012-06-09T15:34:57Z</time>
      </trkpt>
      <trkpt lat="42.66454" lon="1.63443">
        <ele>1651.6823730469</ele>
        <time>2012-06-09T15:35:02Z</time>
      </trkpt>
      <trkpt lat="42.66457" lon="1.63445">
        <ele>1652.1628417969</ele>
        <time>2012-06-09T15:35:04Z</time>
      </trkpt>
      <trkpt lat="42.66459" lon="1.63449">
        <ele>1652.6435546875</ele>
        <time>2012-06-09T15:35:11Z</time>
      </trkpt>
      <trkpt lat="42.66465" lon="1.63451">
        <ele>1651.6823730469</ele>
        <time>2012-06-09T15:35:18Z</time>
      </trkpt>
      <trkpt lat="42.66469" lon="1.63451">
        <ele>1651.2016601562</ele>
        <time>2012-06-09T15:35:24Z</time>
      </trkpt>
      <trkpt lat="42.66475" lon="1.63453">
        <ele>1651.6823730469</ele>
        <time>2012-06-09T15:35:30Z</time>
      </trkpt>
      <trkpt lat="42.66478" lon="1.63453">
        <ele>1652.1628417969</ele>
        <time>2012-06-09T15:35:32Z</time>
      </trkpt>
      <trkpt lat="42.66484" lon="1.63455">
        <ele>1653.1242675781</ele>
        <time>2012-06-09T15:35:39Z</time>
      </trkpt>
      <trkpt lat="42.66493" lon="1.63456">
        <ele>1652.6435546875</ele>
        <time>2012-06-09T15:35:46Z</time>
      </trkpt>
      <trkpt lat="42.66501" lon="1.63459">
        <ele>1652.6435546875</ele>
        <time>2012-06-09T15:35:53Z</time>
      </trkpt>
      <trkpt lat="42.66502" lon="1.6346">
        <ele>1652.6435546875</ele>
        <time>2012-06-09T15:35:54Z</time>
      </trkpt>
      <trkpt lat="42.66508" lon="1.63466">
        <ele>1652.1628417969</ele>
        <time>2012-06-09T15:36:00Z</time>
      </trkpt>
      <trkpt lat="42.66509" lon="1.63466">
        <ele>1652.6435546875</ele>
        <time>2012-06-09T15:36:02Z</time>
      </trkpt>
      <trkpt lat="42.66515" lon="1.63469">
        <ele>1652.6435546875</ele>
        <time>2012-06-09T15:36:09Z</time>
      </trkpt>
      <trkpt lat="42.66518" lon="1.63473">
        <ele>1652.6435546875</ele>
        <time>2012-06-09T15:36:15Z</time>
      </trkpt>
      <trkpt lat="42.66522" lon="1.63477">
        <ele>1653.6049804688</ele>
        <time>2012-06-09T15:36:21Z</time>
      </trkpt>
      <trkpt lat="42.66525" lon="1.63482">
        <ele>1653.6049804688</ele>
        <time>2012-06-09T15:36:27Z</time>
      </trkpt>
      <trkpt lat="42.66528" lon="1.63485">
        <ele>1653.6049804688</ele>
        <time>2012-06-09T15:36:32Z</time>
      </trkpt>
      <trkpt lat="42.66533" lon="1.6349">
        <ele>1654.5661621094</ele>
        <time>2012-06-09T15:36:39Z</time>
      </trkpt>
      <trkpt lat="42.66539" lon="1.63495">
        <ele>1655.5275878906</ele>
        <time>2012-06-09T15:36:45Z</time>
      </trkpt>
      <trkpt lat="42.66541" lon="1.63496">
        <ele>1655.5275878906</ele>
        <time>2012-06-09T15:36:48Z</time>
      </trkpt>
      <trkpt lat="42.66545" lon="1.63505">
        <ele>1656.4887695312</ele>
        <time>2012-06-09T15:36:55Z</time>
      </trkpt>
      <trkpt lat="42.66553" lon="1.63515">
        <ele>1656.4887695312</ele>
        <time>2012-06-09T15:37:04Z</time>
      </trkpt>
      <trkpt lat="42.66562" lon="1.6352">
        <ele>1656.4887695312</ele>
        <time>2012-06-09T15:37:12Z</time>
      </trkpt>
      <trkpt lat="42.6657" lon="1.63521">
        <ele>1656.4887695312</ele>
        <time>2012-06-09T15:37:19Z</time>
      </trkpt>
      <trkpt lat="42.66574" lon="1.63521">
        <ele>1656.4887695312</ele>
        <time>2012-06-09T15:37:22Z</time>
      </trkpt>
      <trkpt lat="42.6658" lon="1.63518">
        <ele>1654.5661621094</ele>
        <time>2012-06-09T15:37:28Z</time>
      </trkpt>
      <trkpt lat="42.66585" lon="1.63518">
        <ele>1654.0856933594</ele>
        <time>2012-06-09T15:37:32Z</time>
      </trkpt>
      <trkpt lat="42.6659" lon="1.63517">
        <ele>1654.5661621094</ele>
        <time>2012-06-09T15:37:36Z</time>
      </trkpt>
      <trkpt lat="42.66598" lon="1.63519">
        <ele>1653.6049804688</ele>
        <time>2012-06-09T15:37:42Z</time>
      </trkpt>
      <trkpt lat="42.66604" lon="1.63518">
        <ele>1653.6049804688</ele>
        <time>2012-06-09T15:37:47Z</time>
      </trkpt>
      <trkpt lat="42.66611" lon="1.63516">
        <ele>1652.6435546875</ele>
        <time>2012-06-09T15:37:54Z</time>
      </trkpt>
      <trkpt lat="42.66615" lon="1.63512">
        <ele>1652.1628417969</ele>
        <time>2012-06-09T15:37:58Z</time>
      </trkpt>
      <trkpt lat="42.6662" lon="1.63509">
        <ele>1651.6823730469</ele>
        <time>2012-06-09T15:38:01Z</time>
      </trkpt>
      <trkpt lat="42.66627" lon="1.63512">
        <ele>1652.1628417969</ele>
        <time>2012-06-09T15:38:07Z</time>
      </trkpt>
      <trkpt lat="42.66628" lon="1.63513">
        <ele>1652.1628417969</ele>
        <time>2012-06-09T15:38:08Z</time>
      </trkpt>
      <trkpt lat="42.66631" lon="1.63516">
        <ele>1652.1628417969</ele>
        <time>2012-06-09T15:38:12Z</time>
      </trkpt>
      <trkpt lat="42.66634" lon="1.63519">
        <ele>1652.6435546875</ele>
        <time>2012-06-09T15:38:15Z</time>
      </trkpt>
      <trkpt lat="42.66639" lon="1.63517">
        <ele>1652.6435546875</ele>
        <time>2012-06-09T15:38:19Z</time>
      </trkpt>
      <trkpt lat="42.66646" lon="1.63517">
        <ele>1651.2016601562</ele>
        <time>2012-06-09T15:38:26Z</time>
      </trkpt>
      <trkpt lat="42.6665" lon="1.6352">
        <ele>1650.7209472656</ele>
        <time>2012-06-09T15:38:30Z</time>
      </trkpt>
      <trkpt lat="42.66657" lon="1.63522">
        <ele>1650.2404785156</ele>
        <time>2012-06-09T15:38:35Z</time>
      </trkpt>
      <trkpt lat="42.66665" lon="1.6352">
        <ele>1648.7983398438</ele>
        <time>2012-06-09T15:38:41Z</time>
      </trkpt>
      <trkpt lat="42.66668" lon="1.63521">
        <ele>1647.8371582031</ele>
        <time>2012-06-09T15:38:45Z</time>
      </trkpt>
      <trkpt lat="42.6667" lon="1.63521">
        <ele>1647.8371582031</ele>
        <time>2012-06-09T15:38:47Z</time>
      </trkpt>
      <trkpt lat="42.66677" lon="1.63524">
        <ele>1644.4724121094</ele>
        <time>2012-06-09T15:38:56Z</time>
      </trkpt>
      <trkpt lat="42.66681" lon="1.63522">
        <ele>1643.0302734375</ele>
        <time>2012-06-09T15:39:02Z</time>
      </trkpt>
      <trkpt lat="42.66685" lon="1.63524">
        <ele>1641.5883789062</ele>
        <time>2012-06-09T15:39:07Z</time>
      </trkpt>
      <trkpt lat="42.66687" lon="1.63526">
        <ele>1641.5883789062</ele>
        <time>2012-06-09T15:39:09Z</time>
      </trkpt>
      <trkpt lat="42.66689" lon="1.63533">
        <ele>1639.6657714844</ele>
        <time>2012-06-09T15:39:13Z</time>
      </trkpt>
      <trkpt lat="42.66691" lon="1.63535">
        <ele>1638.7045898438</ele>
        <time>2012-06-09T15:39:15Z</time>
      </trkpt>
      <trkpt lat="42.66695" lon="1.63536">
        <ele>1637.7431640625</ele>
        <time>2012-06-09T15:39:20Z</time>
      </trkpt>
      <trkpt lat="42.66698" lon="1.63537">
        <ele>1637.2624511719</ele>
        <time>2012-06-09T15:39:22Z</time>
      </trkpt>
      <trkpt lat="42.66706" lon="1.63539">
        <ele>1635.8205566406</ele>
        <time>2012-06-09T15:39:29Z</time>
      </trkpt>
      <trkpt lat="42.66707" lon="1.63539">
        <ele>1635.8205566406</ele>
        <time>2012-06-09T15:39:30Z</time>
      </trkpt>
      <trkpt lat="42.6671" lon="1.63538">
        <ele>1634.859375</ele>
        <time>2012-06-09T15:39:33Z</time>
      </trkpt>
      <trkpt lat="42.66716" lon="1.63533">
        <ele>1633.4172363281</ele>
        <time>2012-06-09T15:39:39Z</time>
      </trkpt>
      <trkpt lat="42.66722" lon="1.63535">
        <ele>1631.4946289062</ele>
        <time>2012-06-09T15:39:44Z</time>
      </trkpt>
      <trkpt lat="42.66723" lon="1.63536">
        <ele>1631.4946289062</ele>
        <time>2012-06-09T15:39:45Z</time>
      </trkpt>
      <trkpt lat="42.66725" lon="1.63535">
        <ele>1631.9753417969</ele>
        <time>2012-06-09T15:39:47Z</time>
      </trkpt>
      <trkpt lat="42.66727" lon="1.63536">
        <ele>1631.4946289062</ele>
        <time>2012-06-09T15:39:49Z</time>
      </trkpt>
      <trkpt lat="42.66732" lon="1.63535">
        <ele>1631.4946289062</ele>
        <time>2012-06-09T15:39:53Z</time>
      </trkpt>
      <trkpt lat="42.6674" lon="1.63537">
        <ele>1630.5334472656</ele>
        <time>2012-06-09T15:40:01Z</time>
      </trkpt>
      <trkpt lat="42.66744" lon="1.63539">
        <ele>1631.4946289062</ele>
        <time>2012-06-09T15:40:07Z</time>
      </trkpt>
      <trkpt lat="42.66748" lon="1.63538">
        <ele>1631.4946289062</ele>
        <time>2012-06-09T15:40:11Z</time>
      </trkpt>
      <trkpt lat="42.66753" lon="1.63539">
        <ele>1631.4946289062</ele>
        <time>2012-06-09T15:40:15Z</time>
      </trkpt>
      <trkpt lat="42.66761" lon="1.63542">
        <ele>1631.4946289062</ele>
        <time>2012-06-09T15:40:22Z</time>
      </trkpt>
      <trkpt lat="42.66768" lon="1.63542">
        <ele>1631.4946289062</ele>
        <time>2012-06-09T15:40:29Z</time>
      </trkpt>
      <trkpt lat="42.66777" lon="1.63545">
        <ele>1631.9753417969</ele>
        <time>2012-06-09T15:40:36Z</time>
      </trkpt>
      <trkpt lat="42.66785" lon="1.63551">
        <ele>1632.4560546875</ele>
        <time>2012-06-09T15:40:42Z</time>
      </trkpt>
      <trkpt lat="42.6679" lon="1.63554">
        <ele>1632.9365234375</ele>
        <time>2012-06-09T15:40:45Z</time>
      </trkpt>
      <trkpt lat="42.66797" lon="1.63555">
        <ele>1634.3786621094</ele>
        <time>2012-06-09T15:40:51Z</time>
      </trkpt>
      <trkpt lat="42.66805" lon="1.63555">
        <ele>1634.3786621094</ele>
        <time>2012-06-09T15:40:57Z</time>
      </trkpt>
      <trkpt lat="42.66806" lon="1.63555">
        <ele>1634.3786621094</ele>
        <time>2012-06-09T15:40:58Z</time>
      </trkpt>
      <trkpt lat="42.66814" lon="1.63556">
        <ele>1632.9365234375</ele>
        <time>2012-06-09T15:41:05Z</time>
      </trkpt>
      <trkpt lat="42.66819" lon="1.63558">
        <ele>1632.4560546875</ele>
        <time>2012-06-09T15:41:09Z</time>
      </trkpt>
      <trkpt lat="42.66825" lon="1.63562">
        <ele>1630.5334472656</ele>
        <time>2012-06-09T15:41:15Z</time>
      </trkpt>
      <trkpt lat="42.66827" lon="1.63563">
        <ele>1630.052734375</ele>
        <time>2012-06-09T15:41:16Z</time>
      </trkpt>
      <trkpt lat="42.66834" lon="1.63562">
        <ele>1628.6108398438</ele>
        <time>2012-06-09T15:41:22Z</time>
      </trkpt>
      <trkpt lat="42.66839" lon="1.63564">
        <ele>1627.6491699219</ele>
        <time>2012-06-09T15:41:25Z</time>
      </trkpt>
      <trkpt lat="42.66842" lon="1.63565">
        <ele>1626.6879882812</ele>
        <time>2012-06-09T15:41:27Z</time>
      </trkpt>
      <trkpt lat="42.66846" lon="1.63569">
        <ele>1627.1687011719</ele>
        <time>2012-06-09T15:41:31Z</time>
      </trkpt>
      <trkpt lat="42.66852" lon="1.63575">
        <ele>1626.6879882812</ele>
        <time>2012-06-09T15:41:36Z</time>
      </trkpt>
      <trkpt lat="42.66858" lon="1.63578">
        <ele>1626.2072753906</ele>
        <time>2012-06-09T15:41:41Z</time>
      </trkpt>
      <trkpt lat="42.66862" lon="1.63581">
        <ele>1625.7265625</ele>
        <time>2012-06-09T15:41:44Z</time>
      </trkpt>
      <trkpt lat="42.66867" lon="1.63585">
        <ele>1624.7653808594</ele>
        <time>2012-06-09T15:41:49Z</time>
      </trkpt>
      <trkpt lat="42.66868" lon="1.6359">
        <ele>1624.7653808594</ele>
        <time>2012-06-09T15:41:53Z</time>
      </trkpt>
      <trkpt lat="42.66869" lon="1.63587">
        <ele>1624.2846679688</ele>
        <time>2012-06-09T15:41:58Z</time>
      </trkpt>
      <trkpt lat="42.66872" lon="1.63589">
        <ele>1624.2846679688</ele>
        <time>2012-06-09T15:42:03Z</time>
      </trkpt>
      <trkpt lat="42.66878" lon="1.63591">
        <ele>1623.8039550781</ele>
        <time>2012-06-09T15:42:10Z</time>
      </trkpt>
      <trkpt lat="42.66881" lon="1.63592">
        <ele>1623.3234863281</ele>
        <time>2012-06-09T15:42:13Z</time>
      </trkpt>
      <trkpt lat="42.66885" lon="1.63593">
        <ele>1623.3234863281</ele>
        <time>2012-06-09T15:42:18Z</time>
      </trkpt>
      <trkpt lat="42.66889" lon="1.63595">
        <ele>1621.8813476562</ele>
        <time>2012-06-09T15:42:23Z</time>
      </trkpt>
      <trkpt lat="42.66895" lon="1.63596">
        <ele>1620.9201660156</ele>
        <time>2012-06-09T15:42:30Z</time>
      </trkpt>
      <trkpt lat="42.669" lon="1.63596">
        <ele>1621.4006347656</ele>
        <time>2012-06-09T15:42:34Z</time>
      </trkpt>
      <trkpt lat="42.66908" lon="1.63599">
        <ele>1619.4782714844</ele>
        <time>2012-06-09T15:42:39Z</time>
      </trkpt>
      <trkpt lat="42.66911" lon="1.63601">
        <ele>1619.4782714844</ele>
        <time>2012-06-09T15:42:42Z</time>
      </trkpt>
      <trkpt lat="42.66912" lon="1.63601">
        <ele>1618.9975585938</ele>
        <time>2012-06-09T15:42:44Z</time>
      </trkpt>
      <trkpt lat="42.66917" lon="1.63603">
        <ele>1618.0361328125</ele>
        <time>2012-06-09T15:42:50Z</time>
      </trkpt>
      <trkpt lat="42.66921" lon="1.63604">
        <ele>1617.5554199219</ele>
        <time>2012-06-09T15:42:54Z</time>
      </trkpt>
      <trkpt lat="42.66925" lon="1.63604">
        <ele>1617.0749511719</ele>
        <time>2012-06-09T15:42:59Z</time>
      </trkpt>
      <trkpt lat="42.66931" lon="1.63605">
        <ele>1616.1135253906</ele>
        <time>2012-06-09T15:43:05Z</time>
      </trkpt>
      <trkpt lat="42.66935" lon="1.63609">
        <ele>1616.1135253906</ele>
        <time>2012-06-09T15:43:11Z</time>
      </trkpt>
      <trkpt lat="42.66941" lon="1.63614">
        <ele>1615.6330566406</ele>
        <time>2012-06-09T15:43:18Z</time>
      </trkpt>
      <trkpt lat="42.66945" lon="1.63614">
        <ele>1616.1135253906</ele>
        <time>2012-06-09T15:43:21Z</time>
      </trkpt>
      <trkpt lat="42.66949" lon="1.63613">
        <ele>1615.15234375</ele>
        <time>2012-06-09T15:43:26Z</time>
      </trkpt>
      <trkpt lat="42.66954" lon="1.63611">
        <ele>1614.1909179688</ele>
        <time>2012-06-09T15:43:31Z</time>
      </trkpt>
      <trkpt lat="42.66959" lon="1.63611">
        <ele>1613.2297363281</ele>
        <time>2012-06-09T15:43:36Z</time>
      </trkpt>
      <trkpt lat="42.66962" lon="1.63611">
        <ele>1612.2683105469</ele>
        <time>2012-06-09T15:43:38Z</time>
      </trkpt>
      <trkpt lat="42.66969" lon="1.63612">
        <ele>1611.3068847656</ele>
        <time>2012-06-09T15:43:44Z</time>
      </trkpt>
      <trkpt lat="42.66974" lon="1.63616">
        <ele>1611.7875976562</ele>
        <time>2012-06-09T15:43:50Z</time>
      </trkpt>
      <trkpt lat="42.66975" lon="1.6362">
        <ele>1612.2683105469</ele>
        <time>2012-06-09T15:43:53Z</time>
      </trkpt>
      <trkpt lat="42.66981" lon="1.63625">
        <ele>1612.2683105469</ele>
        <time>2012-06-09T15:44:01Z</time>
      </trkpt>
      <trkpt lat="42.66986" lon="1.63628">
        <ele>1612.2683105469</ele>
        <time>2012-06-09T15:44:07Z</time>
      </trkpt>
      <trkpt lat="42.66991" lon="1.63629">
        <ele>1611.3068847656</ele>
        <time>2012-06-09T15:44:12Z</time>
      </trkpt>
      <trkpt lat="42.66995" lon="1.63629">
        <ele>1611.3068847656</ele>
        <time>2012-06-09T15:44:17Z</time>
      </trkpt>
      <trkpt lat="42.67004" lon="1.6363">
        <ele>1610.826171875</ele>
        <time>2012-06-09T15:44:25Z</time>
      </trkpt>
      <trkpt lat="42.6701" lon="1.63629">
        <ele>1609.8647460938</ele>
        <time>2012-06-09T15:44:32Z</time>
      </trkpt>
      <trkpt lat="42.67012" lon="1.63629">
        <ele>1609.3842773438</ele>
        <time>2012-06-09T15:44:34Z</time>
      </trkpt>
      <trkpt lat="42.67018" lon="1.6363">
        <ele>1609.3842773438</ele>
        <time>2012-06-09T15:44:40Z</time>
      </trkpt>
      <trkpt lat="42.67021" lon="1.63632">
        <ele>1608.4228515625</ele>
        <time>2012-06-09T15:44:46Z</time>
      </trkpt>
      <trkpt lat="42.67022" lon="1.63631">
        <ele>1607.9423828125</ele>
        <time>2012-06-09T15:45:27Z</time>
      </trkpt>
      <trkpt lat="42.67022" lon="1.63633">
        <ele>1607.9423828125</ele>
        <time>2012-06-09T15:45:36Z</time>
      </trkpt>
      <trkpt lat="42.67024" lon="1.63632">
        <ele>1610.3454589844</ele>
        <time>2012-06-09T15:45:55Z</time>
      </trkpt>
      <trkpt lat="42.67025" lon="1.63632">
        <ele>1610.3454589844</ele>
        <time>2012-06-09T15:45:56Z</time>
      </trkpt>
      <trkpt lat="42.67033" lon="1.63637">
        <ele>1609.8647460938</ele>
        <time>2012-06-09T15:46:03Z</time>
      </trkpt>
      <trkpt lat="42.67036" lon="1.6364">
        <ele>1609.3842773438</ele>
        <time>2012-06-09T15:46:06Z</time>
      </trkpt>
      <trkpt lat="42.67041" lon="1.63648">
        <ele>1609.3842773438</ele>
        <time>2012-06-09T15:46:13Z</time>
      </trkpt>
      <trkpt lat="42.67047" lon="1.63657">
        <ele>1609.8647460938</ele>
        <time>2012-06-09T15:46:20Z</time>
      </trkpt>
      <trkpt lat="42.67046" lon="1.63659">
        <ele>1609.8647460938</ele>
        <time>2012-06-09T15:46:22Z</time>
      </trkpt>
      <trkpt lat="42.67047" lon="1.63665">
        <ele>1610.3454589844</ele>
        <time>2012-06-09T15:46:26Z</time>
      </trkpt>
      <trkpt lat="42.67048" lon="1.63671">
        <ele>1610.3454589844</ele>
        <time>2012-06-09T15:46:30Z</time>
      </trkpt>
      <trkpt lat="42.67052" lon="1.63684">
        <ele>1609.8647460938</ele>
        <time>2012-06-09T15:46:39Z</time>
      </trkpt>
      <trkpt lat="42.67053" lon="1.63688">
        <ele>1610.3454589844</ele>
        <time>2012-06-09T15:46:41Z</time>
      </trkpt>
      <trkpt lat="42.67056" lon="1.63692">
        <ele>1610.3454589844</ele>
        <time>2012-06-09T15:46:45Z</time>
      </trkpt>
      <trkpt lat="42.67062" lon="1.63695">
        <ele>1609.8647460938</ele>
        <time>2012-06-09T15:46:51Z</time>
      </trkpt>
      <trkpt lat="42.67066" lon="1.63701">
        <ele>1609.8647460938</ele>
        <time>2012-06-09T15:46:56Z</time>
      </trkpt>
      <trkpt lat="42.67068" lon="1.63705">
        <ele>1608.9035644531</ele>
        <time>2012-06-09T15:46:59Z</time>
      </trkpt>
      <trkpt lat="42.6707" lon="1.63709">
        <ele>1608.4228515625</ele>
        <time>2012-06-09T15:47:03Z</time>
      </trkpt>
      <trkpt lat="42.6708" lon="1.63715">
        <ele>1607.9423828125</ele>
        <time>2012-06-09T15:47:11Z</time>
      </trkpt>
      <trkpt lat="42.67086" lon="1.6372">
        <ele>1607.4616699219</ele>
        <time>2012-06-09T15:47:17Z</time>
      </trkpt>
      <trkpt lat="42.67091" lon="1.63723">
        <ele>1606.01953125</ele>
        <time>2012-06-09T15:47:22Z</time>
      </trkpt>
      <trkpt lat="42.67093" lon="1.63725">
        <ele>1606.01953125</ele>
        <time>2012-06-09T15:47:24Z</time>
      </trkpt>
      <trkpt lat="42.67094" lon="1.63727">
        <ele>1606.01953125</ele>
        <time>2012-06-09T15:47:26Z</time>
      </trkpt>
      <trkpt lat="42.671" lon="1.63734">
        <ele>1606.01953125</ele>
        <time>2012-06-09T15:47:34Z</time>
      </trkpt>
      <trkpt lat="42.67104" lon="1.63736">
        <ele>1606.5002441406</ele>
        <time>2012-06-09T15:47:38Z</time>
      </trkpt>
      <trkpt lat="42.67112" lon="1.6374">
        <ele>1606.5002441406</ele>
        <time>2012-06-09T15:47:45Z</time>
      </trkpt>
      <trkpt lat="42.67116" lon="1.63741">
        <ele>1606.9809570312</ele>
        <time>2012-06-09T15:47:49Z</time>
      </trkpt>
      <trkpt lat="42.67125" lon="1.63745">
        <ele>1607.9423828125</ele>
        <time>2012-06-09T15:47:57Z</time>
      </trkpt>
      <trkpt lat="42.67127" lon="1.63748">
        <ele>1607.4616699219</ele>
        <time>2012-06-09T15:48:03Z</time>
      </trkpt>
      <trkpt lat="42.6713" lon="1.63751">
        <ele>1608.4228515625</ele>
        <time>2012-06-09T15:48:07Z</time>
      </trkpt>
      <trkpt lat="42.67132" lon="1.63752">
        <ele>1608.4228515625</ele>
        <time>2012-06-09T15:48:09Z</time>
      </trkpt>
      <trkpt lat="42.67139" lon="1.63757">
        <ele>1609.3842773438</ele>
        <time>2012-06-09T15:48:16Z</time>
      </trkpt>
      <trkpt lat="42.67146" lon="1.63763">
        <ele>1610.3454589844</ele>
        <time>2012-06-09T15:48:24Z</time>
      </trkpt>
      <trkpt lat="42.67148" lon="1.63765">
        <ele>1610.3454589844</ele>
        <time>2012-06-09T15:48:26Z</time>
      </trkpt>
      <trkpt lat="42.67153" lon="1.63769">
        <ele>1610.826171875</ele>
        <time>2012-06-09T15:48:33Z</time>
      </trkpt>
      <trkpt lat="42.67159" lon="1.63774">
        <ele>1610.826171875</ele>
        <time>2012-06-09T15:48:42Z</time>
      </trkpt>
      <trkpt lat="42.67164" lon="1.63777">
        <ele>1610.3454589844</ele>
        <time>2012-06-09T15:48:47Z</time>
      </trkpt>
      <trkpt lat="42.67167" lon="1.63778">
        <ele>1609.8647460938</ele>
        <time>2012-06-09T15:48:51Z</time>
      </trkpt>
      <trkpt lat="42.67176" lon="1.63778">
        <ele>1609.3842773438</ele>
        <time>2012-06-09T15:48:57Z</time>
      </trkpt>
      <trkpt lat="42.67179" lon="1.6378">
        <ele>1608.4228515625</ele>
        <time>2012-06-09T15:49:00Z</time>
      </trkpt>
      <trkpt lat="42.67189" lon="1.63782">
        <ele>1608.4228515625</ele>
        <time>2012-06-09T15:49:08Z</time>
      </trkpt>
      <trkpt lat="42.67191" lon="1.63782">
        <ele>1608.4228515625</ele>
        <time>2012-06-09T15:49:09Z</time>
      </trkpt>
      <trkpt lat="42.67197" lon="1.63781">
        <ele>1607.9423828125</ele>
        <time>2012-06-09T15:49:14Z</time>
      </trkpt>
      <trkpt lat="42.67199" lon="1.63782">
        <ele>1607.4616699219</ele>
        <time>2012-06-09T15:49:17Z</time>
      </trkpt>
      <trkpt lat="42.67204" lon="1.63786">
        <ele>1606.9809570312</ele>
        <time>2012-06-09T15:49:22Z</time>
      </trkpt>
      <trkpt lat="42.67211" lon="1.63789">
        <ele>1608.4228515625</ele>
        <time>2012-06-09T15:49:28Z</time>
      </trkpt>
      <trkpt lat="42.67214" lon="1.63788">
        <ele>1609.3842773438</ele>
        <time>2012-06-09T15:49:31Z</time>
      </trkpt>
      <trkpt lat="42.67225" lon="1.63791">
        <ele>1609.3842773438</ele>
        <time>2012-06-09T15:49:40Z</time>
      </trkpt>
      <trkpt lat="42.67227" lon="1.63793">
        <ele>1609.3842773438</ele>
        <time>2012-06-09T15:49:42Z</time>
      </trkpt>
      <trkpt lat="42.67234" lon="1.63795">
        <ele>1608.9035644531</ele>
        <time>2012-06-09T15:49:48Z</time>
      </trkpt>
      <trkpt lat="42.67239" lon="1.63801">
        <ele>1608.9035644531</ele>
        <time>2012-06-09T15:49:53Z</time>
      </trkpt>
      <trkpt lat="42.67243" lon="1.63806">
        <ele>1609.3842773438</ele>
        <time>2012-06-09T15:49:59Z</time>
      </trkpt>
      <trkpt lat="42.67249" lon="1.63807">
        <ele>1608.9035644531</ele>
        <time>2012-06-09T15:50:05Z</time>
      </trkpt>
      <trkpt lat="42.67251" lon="1.63808">
        <ele>1608.4228515625</ele>
        <time>2012-06-09T15:50:07Z</time>
      </trkpt>
      <trkpt lat="42.67253" lon="1.6381">
        <ele>1607.9423828125</ele>
        <time>2012-06-09T15:50:09Z</time>
      </trkpt>
      <trkpt lat="42.67256" lon="1.63812">
        <ele>1605.0583496094</ele>
        <time>2012-06-09T15:50:14Z</time>
      </trkpt>
      <trkpt lat="42.67258" lon="1.63813">
        <ele>1603.6164550781</ele>
        <time>2012-06-09T15:50:20Z</time>
      </trkpt>
      <trkpt lat="42.67262" lon="1.63815">
        <ele>1602.6550292969</ele>
        <time>2012-06-09T15:50:25Z</time>
      </trkpt>
      <trkpt lat="42.67265" lon="1.63815">
        <ele>1602.1743164062</ele>
        <time>2012-06-09T15:50:27Z</time>
      </trkpt>
      <trkpt lat="42.6727" lon="1.63818">
        <ele>1601.2131347656</ele>
        <time>2012-06-09T15:50:32Z</time>
      </trkpt>
      <trkpt lat="42.67275" lon="1.63819">
        <ele>1600.732421875</ele>
        <time>2012-06-09T15:50:36Z</time>
      </trkpt>
      <trkpt lat="42.67279" lon="1.63828">
        <ele>1599.7712402344</ele>
        <time>2012-06-09T15:50:43Z</time>
      </trkpt>
      <trkpt lat="42.6728" lon="1.63829">
        <ele>1599.7712402344</ele>
        <time>2012-06-09T15:50:44Z</time>
      </trkpt>
      <trkpt lat="42.67285" lon="1.63832">
        <ele>1599.7712402344</ele>
        <time>2012-06-09T15:50:49Z</time>
      </trkpt>
      <trkpt lat="42.67287" lon="1.63836">
        <ele>1600.251953125</ele>
        <time>2012-06-09T15:50:52Z</time>
      </trkpt>
      <trkpt lat="42.67286" lon="1.63841">
        <ele>1600.251953125</ele>
        <time>2012-06-09T15:50:54Z</time>
      </trkpt>
      <trkpt lat="42.67292" lon="1.63848">
        <ele>1600.732421875</ele>
        <time>2012-06-09T15:51:00Z</time>
      </trkpt>
      <trkpt lat="42.67293" lon="1.6385">
        <ele>1601.2131347656</ele>
        <time>2012-06-09T15:51:01Z</time>
      </trkpt>
      <trkpt lat="42.67297" lon="1.63855">
        <ele>1601.2131347656</ele>
        <time>2012-06-09T15:51:05Z</time>
      </trkpt>
      <trkpt lat="42.67299" lon="1.63859">
        <ele>1601.2131347656</ele>
        <time>2012-06-09T15:51:08Z</time>
      </trkpt>
      <trkpt lat="42.67304" lon="1.63873">
        <ele>1602.1743164062</ele>
        <time>2012-06-09T15:51:17Z</time>
      </trkpt>
      <trkpt lat="42.6731" lon="1.63879">
        <ele>1602.1743164062</ele>
        <time>2012-06-09T15:51:25Z</time>
      </trkpt>
      <trkpt lat="42.67313" lon="1.63881">
        <ele>1602.1743164062</ele>
        <time>2012-06-09T15:51:31Z</time>
      </trkpt>
      <trkpt lat="42.67315" lon="1.63884">
        <ele>1602.1743164062</ele>
        <time>2012-06-09T15:51:36Z</time>
      </trkpt>
      <trkpt lat="42.67322" lon="1.63891">
        <ele>1603.1357421875</ele>
        <time>2012-06-09T15:51:43Z</time>
      </trkpt>
      <trkpt lat="42.67328" lon="1.63902">
        <ele>1603.1357421875</ele>
        <time>2012-06-09T15:51:51Z</time>
      </trkpt>
      <trkpt lat="42.67335" lon="1.63918">
        <ele>1602.6550292969</ele>
        <time>2012-06-09T15:52:01Z</time>
      </trkpt>
      <trkpt lat="42.6734" lon="1.63929">
        <ele>1601.6938476562</ele>
        <time>2012-06-09T15:52:08Z</time>
      </trkpt>
      <trkpt lat="42.67345" lon="1.63933">
        <ele>1601.2131347656</ele>
        <time>2012-06-09T15:52:12Z</time>
      </trkpt>
      <trkpt lat="42.67353" lon="1.63939">
        <ele>1602.6550292969</ele>
        <time>2012-06-09T15:52:16Z</time>
      </trkpt>
      <trkpt lat="42.67355" lon="1.63944">
        <ele>1601.2131347656</ele>
        <time>2012-06-09T15:52:20Z</time>
      </trkpt>
      <trkpt lat="42.67358" lon="1.63948">
        <ele>1600.251953125</ele>
        <time>2012-06-09T15:52:23Z</time>
      </trkpt>
      <trkpt lat="42.6736" lon="1.63952">
        <ele>1598.8098144531</ele>
        <time>2012-06-09T15:52:27Z</time>
      </trkpt>
      <trkpt lat="42.6736" lon="1.63956">
        <ele>1597.8486328125</ele>
        <time>2012-06-09T15:52:29Z</time>
      </trkpt>
      <trkpt lat="42.67363" lon="1.6396">
        <ele>1597.8486328125</ele>
        <time>2012-06-09T15:52:33Z</time>
      </trkpt>
      <trkpt lat="42.67364" lon="1.63966">
        <ele>1598.3291015625</ele>
        <time>2012-06-09T15:52:37Z</time>
      </trkpt>
      <trkpt lat="42.67368" lon="1.63978">
        <ele>1598.8098144531</ele>
        <time>2012-06-09T15:52:45Z</time>
      </trkpt>
      <trkpt lat="42.67369" lon="1.63982">
        <ele>1599.2905273438</ele>
        <time>2012-06-09T15:52:47Z</time>
      </trkpt>
      <trkpt lat="42.67372" lon="1.63991">
        <ele>1599.2905273438</ele>
        <time>2012-06-09T15:52:53Z</time>
      </trkpt>
      <trkpt lat="42.67373" lon="1.63993">
        <ele>1599.2905273438</ele>
        <time>2012-06-09T15:52:55Z</time>
      </trkpt>
      <trkpt lat="42.67375" lon="1.63997">
        <ele>1599.7712402344</ele>
        <time>2012-06-09T15:52:58Z</time>
      </trkpt>
      <trkpt lat="42.67377" lon="1.64005">
        <ele>1600.251953125</ele>
        <time>2012-06-09T15:53:04Z</time>
      </trkpt>
      <trkpt lat="42.67379" lon="1.64012">
        <ele>1601.2131347656</ele>
        <time>2012-06-09T15:53:09Z</time>
      </trkpt>
      <trkpt lat="42.67381" lon="1.64017">
        <ele>1601.2131347656</ele>
        <time>2012-06-09T15:53:13Z</time>
      </trkpt>
      <trkpt lat="42.67383" lon="1.64019">
        <ele>1601.6938476562</ele>
        <time>2012-06-09T15:53:15Z</time>
      </trkpt>
      <trkpt lat="42.67387" lon="1.64024">
        <ele>1602.1743164062</ele>
        <time>2012-06-09T15:53:19Z</time>
      </trkpt>
      <trkpt lat="42.67389" lon="1.64026">
        <ele>1602.1743164062</ele>
        <time>2012-06-09T15:53:21Z</time>
      </trkpt>
      <trkpt lat="42.6739" lon="1.64029">
        <ele>1602.6550292969</ele>
        <time>2012-06-09T15:53:23Z</time>
      </trkpt>
      <trkpt lat="42.67396" lon="1.64033">
        <ele>1603.1357421875</ele>
        <time>2012-06-09T15:53:28Z</time>
      </trkpt>
      <trkpt lat="42.67403" lon="1.64039">
        <ele>1603.1357421875</ele>
        <time>2012-06-09T15:53:35Z</time>
      </trkpt>
      <trkpt lat="42.67406" lon="1.64043">
        <ele>1602.6550292969</ele>
        <time>2012-06-09T15:53:38Z</time>
      </trkpt>
      <trkpt lat="42.67411" lon="1.6405">
        <ele>1602.1743164062</ele>
        <time>2012-06-09T15:53:44Z</time>
      </trkpt>
      <trkpt lat="42.67413" lon="1.64053">
        <ele>1602.1743164062</ele>
        <time>2012-06-09T15:53:47Z</time>
      </trkpt>
      <trkpt lat="42.67419" lon="1.64057">
        <ele>1602.6550292969</ele>
        <time>2012-06-09T15:53:55Z</time>
      </trkpt>
      <trkpt lat="42.67425" lon="1.64058">
        <ele>1602.1743164062</ele>
        <time>2012-06-09T15:54:00Z</time>
      </trkpt>
      <trkpt lat="42.67429" lon="1.64065">
        <ele>1603.1357421875</ele>
        <time>2012-06-09T15:54:06Z</time>
      </trkpt>
      <trkpt lat="42.67429" lon="1.64067">
        <ele>1603.1357421875</ele>
        <time>2012-06-09T15:54:07Z</time>
      </trkpt>
      <trkpt lat="42.67431" lon="1.64079">
        <ele>1602.1743164062</ele>
        <time>2012-06-09T15:54:14Z</time>
      </trkpt>
      <trkpt lat="42.67435" lon="1.64086">
        <ele>1602.1743164062</ele>
        <time>2012-06-09T15:54:19Z</time>
      </trkpt>
      <trkpt lat="42.6744" lon="1.64089">
        <ele>1602.1743164062</ele>
        <time>2012-06-09T15:54:24Z</time>
      </trkpt>
      <trkpt lat="42.67443" lon="1.6409">
        <ele>1602.1743164062</ele>
        <time>2012-06-09T15:54:27Z</time>
      </trkpt>
      <trkpt lat="42.67447" lon="1.64093">
        <ele>1601.2131347656</ele>
        <time>2012-06-09T15:54:33Z</time>
      </trkpt>
      <trkpt lat="42.67448" lon="1.64097">
        <ele>1600.251953125</ele>
        <time>2012-06-09T15:54:41Z</time>
      </trkpt>
      <trkpt lat="42.6745" lon="1.641">
        <ele>1598.8098144531</ele>
        <time>2012-06-09T15:54:47Z</time>
      </trkpt>
      <trkpt lat="42.67453" lon="1.64106">
        <ele>1597.8486328125</ele>
        <time>2012-06-09T15:54:53Z</time>
      </trkpt>
      <trkpt lat="42.67457" lon="1.64113">
        <ele>1595.92578125</ele>
        <time>2012-06-09T15:55:01Z</time>
      </trkpt>
      <trkpt lat="42.67459" lon="1.64117">
        <ele>1594.4836425781</ele>
        <time>2012-06-09T15:55:08Z</time>
      </trkpt>
      <trkpt lat="42.67461" lon="1.64125">
        <ele>1593.5224609375</ele>
        <time>2012-06-09T15:55:15Z</time>
      </trkpt>
      <trkpt lat="42.67466" lon="1.64134">
        <ele>1592.0805664062</ele>
        <time>2012-06-09T15:55:21Z</time>
      </trkpt>
      <trkpt lat="42.67469" lon="1.64138">
        <ele>1592.0805664062</ele>
        <time>2012-06-09T15:55:23Z</time>
      </trkpt>
      <trkpt lat="42.67472" lon="1.64149">
        <ele>1590.6384277344</ele>
        <time>2012-06-09T15:55:29Z</time>
      </trkpt>
      <trkpt lat="42.67474" lon="1.6415">
        <ele>1590.6384277344</ele>
        <time>2012-06-09T15:55:30Z</time>
      </trkpt>
      <trkpt lat="42.67475" lon="1.64155">
        <ele>1589.1965332031</ele>
        <time>2012-06-09T15:55:35Z</time>
      </trkpt>
      <trkpt lat="42.67476" lon="1.64164">
        <ele>1588.7160644531</ele>
        <time>2012-06-09T15:55:40Z</time>
      </trkpt>
      <trkpt lat="42.67478" lon="1.64167">
        <ele>1588.7160644531</ele>
        <time>2012-06-09T15:55:42Z</time>
      </trkpt>
      <trkpt lat="42.67482" lon="1.6417">
        <ele>1588.7160644531</ele>
        <time>2012-06-09T15:55:46Z</time>
      </trkpt>
      <trkpt lat="42.67484" lon="1.64171">
        <ele>1589.1965332031</ele>
        <time>2012-06-09T15:55:48Z</time>
      </trkpt>
      <trkpt lat="42.6749" lon="1.64175">
        <ele>1588.7160644531</ele>
        <time>2012-06-09T15:55:53Z</time>
      </trkpt>
      <trkpt lat="42.67493" lon="1.64179">
        <ele>1587.2739257812</ele>
        <time>2012-06-09T15:55:57Z</time>
      </trkpt>
      <trkpt lat="42.67495" lon="1.6418">
        <ele>1588.2353515625</ele>
        <time>2012-06-09T15:55:59Z</time>
      </trkpt>
      <trkpt lat="42.67498" lon="1.64185">
        <ele>1588.2353515625</ele>
        <time>2012-06-09T15:56:06Z</time>
      </trkpt>
      <trkpt lat="42.67505" lon="1.64192">
        <ele>1587.7546386719</ele>
        <time>2012-06-09T15:56:12Z</time>
      </trkpt>
      <trkpt lat="42.67512" lon="1.64198">
        <ele>1588.2353515625</ele>
        <time>2012-06-09T15:56:18Z</time>
      </trkpt>
      <trkpt lat="42.67514" lon="1.642">
        <ele>1588.2353515625</ele>
        <time>2012-06-09T15:56:20Z</time>
      </trkpt>
      <trkpt lat="42.67522" lon="1.64211">
        <ele>1588.2353515625</ele>
        <time>2012-06-09T15:56:28Z</time>
      </trkpt>
      <trkpt lat="42.67526" lon="1.64218">
        <ele>1587.2739257812</ele>
        <time>2012-06-09T15:56:33Z</time>
      </trkpt>
      <trkpt lat="42.67532" lon="1.64225">
        <ele>1587.2739257812</ele>
        <time>2012-06-09T15:56:38Z</time>
      </trkpt>
      <trkpt lat="42.67533" lon="1.64227">
        <ele>1587.2739257812</ele>
        <time>2012-06-09T15:56:40Z</time>
      </trkpt>
      <trkpt lat="42.67541" lon="1.64236">
        <ele>1588.7160644531</ele>
        <time>2012-06-09T15:56:48Z</time>
      </trkpt>
      <trkpt lat="42.67546" lon="1.64238">
        <ele>1589.6772460938</ele>
        <time>2012-06-09T15:56:52Z</time>
      </trkpt>
      <trkpt lat="42.67552" lon="1.64239">
        <ele>1590.1579589844</ele>
        <time>2012-06-09T15:56:56Z</time>
      </trkpt>
      <trkpt lat="42.67562" lon="1.64248">
        <ele>1589.6772460938</ele>
        <time>2012-06-09T15:57:04Z</time>
      </trkpt>
      <trkpt lat="42.67571" lon="1.64254">
        <ele>1590.1579589844</ele>
        <time>2012-06-09T15:57:11Z</time>
      </trkpt>
      <trkpt lat="42.6758" lon="1.64265">
        <ele>1589.6772460938</ele>
        <time>2012-06-09T15:57:20Z</time>
      </trkpt>
      <trkpt lat="42.67584" lon="1.64272">
        <ele>1588.7160644531</ele>
        <time>2012-06-09T15:57:25Z</time>
      </trkpt>
      <trkpt lat="42.67588" lon="1.64277">
        <ele>1587.2739257812</ele>
        <time>2012-06-09T15:57:29Z</time>
      </trkpt>
      <trkpt lat="42.67593" lon="1.64283">
        <ele>1587.2739257812</ele>
        <time>2012-06-09T15:57:35Z</time>
      </trkpt>
      <trkpt lat="42.67599" lon="1.64283">
        <ele>1586.7932128906</ele>
        <time>2012-06-09T15:57:40Z</time>
      </trkpt>
      <trkpt lat="42.67608" lon="1.64287">
        <ele>1584.3901367188</ele>
        <time>2012-06-09T15:57:46Z</time>
      </trkpt>
      <trkpt lat="42.67611" lon="1.64291">
        <ele>1584.3901367188</ele>
        <time>2012-06-09T15:57:49Z</time>
      </trkpt>
      <trkpt lat="42.67619" lon="1.64295">
        <ele>1582.9479980469</ele>
        <time>2012-06-09T15:57:56Z</time>
      </trkpt>
      <trkpt lat="42.6762" lon="1.64296">
        <ele>1582.9479980469</ele>
        <time>2012-06-09T15:57:57Z</time>
      </trkpt>
      <trkpt lat="42.67629" lon="1.643">
        <ele>1582.4675292969</ele>
        <time>2012-06-09T15:58:03Z</time>
      </trkpt>
      <trkpt lat="42.6763" lon="1.64302">
        <ele>1582.9479980469</ele>
        <time>2012-06-09T15:58:05Z</time>
      </trkpt>
      <trkpt lat="42.67634" lon="1.64308">
        <ele>1581.5061035156</ele>
        <time>2012-06-09T15:58:10Z</time>
      </trkpt>
      <trkpt lat="42.67635" lon="1.6431">
        <ele>1581.0256347656</ele>
        <time>2012-06-09T15:58:12Z</time>
      </trkpt>
      <trkpt lat="42.67634" lon="1.64315">
        <ele>1581.0256347656</ele>
        <time>2012-06-09T15:58:16Z</time>
      </trkpt>
      <trkpt lat="42.67643" lon="1.64321">
        <ele>1581.9868164062</ele>
        <time>2012-06-09T15:58:24Z</time>
      </trkpt>
      <trkpt lat="42.67646" lon="1.64321">
        <ele>1581.9868164062</ele>
        <time>2012-06-09T15:58:27Z</time>
      </trkpt>
      <trkpt lat="42.67651" lon="1.64321">
        <ele>1582.9479980469</ele>
        <time>2012-06-09T15:58:33Z</time>
      </trkpt>
      <trkpt lat="42.67648" lon="1.64314">
        <ele>1582.4675292969</ele>
        <time>2012-06-09T15:58:39Z</time>
      </trkpt>
      <trkpt lat="42.67652" lon="1.64314">
        <ele>1581.5061035156</ele>
        <time>2012-06-09T15:58:44Z</time>
      </trkpt>
      <trkpt lat="42.67656" lon="1.64318">
        <ele>1580.544921875</ele>
        <time>2012-06-09T15:58:51Z</time>
      </trkpt>
      <trkpt lat="42.67658" lon="1.64321">
        <ele>1580.544921875</ele>
        <time>2012-06-09T15:58:58Z</time>
      </trkpt>
      <trkpt lat="42.67661" lon="1.64322">
        <ele>1580.544921875</ele>
        <time>2012-06-09T15:59:20Z</time>
      </trkpt>
      <trkpt lat="42.67667" lon="1.64326">
        <ele>1580.0642089844</ele>
        <time>2012-06-09T15:59:28Z</time>
      </trkpt>
      <trkpt lat="42.67671" lon="1.64329">
        <ele>1579.5832519531</ele>
        <time>2012-06-09T15:59:33Z</time>
      </trkpt>
      <trkpt lat="42.67674" lon="1.64332">
        <ele>1578.6220703125</ele>
        <time>2012-06-09T15:59:36Z</time>
      </trkpt>
      <trkpt lat="42.67679" lon="1.64333">
        <ele>1577.6606445312</ele>
        <time>2012-06-09T15:59:41Z</time>
      </trkpt>
      <trkpt lat="42.67683" lon="1.64335">
        <ele>1576.6994628906</ele>
        <time>2012-06-09T15:59:44Z</time>
      </trkpt>
      <trkpt lat="42.67693" lon="1.64337">
        <ele>1575.2573242188</ele>
        <time>2012-06-09T15:59:52Z</time>
      </trkpt>
      <trkpt lat="42.67694" lon="1.64337">
        <ele>1575.2573242188</ele>
        <time>2012-06-09T15:59:53Z</time>
      </trkpt>
      <trkpt lat="42.67704" lon="1.64339">
        <ele>1574.7768554688</ele>
        <time>2012-06-09T16:00:01Z</time>
      </trkpt>
      <trkpt lat="42.67713" lon="1.64344">
        <ele>1573.3349609375</ele>
        <time>2012-06-09T16:00:08Z</time>
      </trkpt>
      <trkpt lat="42.67718" lon="1.64344">
        <ele>1572.8542480469</ele>
        <time>2012-06-09T16:00:12Z</time>
      </trkpt>
      <trkpt lat="42.67726" lon="1.64351">
        <ele>1572.8542480469</ele>
        <time>2012-06-09T16:00:20Z</time>
      </trkpt>
      <trkpt lat="42.67727" lon="1.64351">
        <ele>1572.8542480469</ele>
        <time>2012-06-09T16:00:21Z</time>
      </trkpt>
      <trkpt lat="42.67731" lon="1.64356">
        <ele>1572.3735351562</ele>
        <time>2012-06-09T16:00:25Z</time>
      </trkpt>
      <trkpt lat="42.67733" lon="1.64357">
        <ele>1571.8928222656</ele>
        <time>2012-06-09T16:00:27Z</time>
      </trkpt>
      <trkpt lat="42.6774" lon="1.64362">
        <ele>1569.9702148438</ele>
        <time>2012-06-09T16:00:34Z</time>
      </trkpt>
      <trkpt lat="42.67745" lon="1.64364">
        <ele>1569.0090332031</ele>
        <time>2012-06-09T16:00:40Z</time>
      </trkpt>
      <trkpt lat="42.67748" lon="1.64365">
        <ele>1569.0090332031</ele>
        <time>2012-06-09T16:00:45Z</time>
      </trkpt>
      <trkpt lat="42.6775" lon="1.64369">
        <ele>1567.0864257812</ele>
        <time>2012-06-09T16:00:51Z</time>
      </trkpt>
      <trkpt lat="42.67751" lon="1.64372">
        <ele>1565.64453125</ele>
        <time>2012-06-09T16:00:58Z</time>
      </trkpt>
      <trkpt lat="42.67752" lon="1.64376">
        <ele>1563.2409667969</ele>
        <time>2012-06-09T16:01:11Z</time>
      </trkpt>
      <trkpt lat="42.67751" lon="1.64383">
        <ele>1562.7602539062</ele>
        <time>2012-06-09T16:01:15Z</time>
      </trkpt>
      <trkpt lat="42.67751" lon="1.64384">
        <ele>1562.7602539062</ele>
        <time>2012-06-09T16:01:16Z</time>
      </trkpt>
      <trkpt lat="42.67748" lon="1.64398">
        <ele>1561.7990722656</ele>
        <time>2012-06-09T16:01:24Z</time>
      </trkpt>
      <trkpt lat="42.6775" lon="1.64409">
        <ele>1561.318359375</ele>
        <time>2012-06-09T16:01:30Z</time>
      </trkpt>
      <trkpt lat="42.67755" lon="1.6442">
        <ele>1561.7990722656</ele>
        <time>2012-06-09T16:01:37Z</time>
      </trkpt>
      <trkpt lat="42.67762" lon="1.6443">
        <ele>1560.8376464844</ele>
        <time>2012-06-09T16:01:44Z</time>
      </trkpt>
      <trkpt lat="42.67766" lon="1.64434">
        <ele>1561.318359375</ele>
        <time>2012-06-09T16:01:48Z</time>
      </trkpt>
      <trkpt lat="42.67772" lon="1.64442">
        <ele>1560.8376464844</ele>
        <time>2012-06-09T16:01:55Z</time>
      </trkpt>
      <trkpt lat="42.67781" lon="1.64451">
        <ele>1562.2795410156</ele>
        <time>2012-06-09T16:02:02Z</time>
      </trkpt>
      <trkpt lat="42.67791" lon="1.64462">
        <ele>1562.7602539062</ele>
        <time>2012-06-09T16:02:11Z</time>
      </trkpt>
      <trkpt lat="42.67792" lon="1.64463">
        <ele>1562.7602539062</ele>
        <time>2012-06-09T16:02:12Z</time>
      </trkpt>
      <trkpt lat="42.67795" lon="1.64469">
        <ele>1562.2795410156</ele>
        <time>2012-06-09T16:02:16Z</time>
      </trkpt>
      <trkpt lat="42.67798" lon="1.64471">
        <ele>1562.2795410156</ele>
        <time>2012-06-09T16:02:21Z</time>
      </trkpt>
      <trkpt lat="42.67799" lon="1.64472">
        <ele>1562.2795410156</ele>
        <time>2012-06-09T16:02:22Z</time>
      </trkpt>
      <trkpt lat="42.67809" lon="1.64482">
        <ele>1563.2409667969</ele>
        <time>2012-06-09T16:02:32Z</time>
      </trkpt>
      <trkpt lat="42.67816" lon="1.64487">
        <ele>1563.2409667969</ele>
        <time>2012-06-09T16:02:38Z</time>
      </trkpt>
      <trkpt lat="42.67827" lon="1.64493">
        <ele>1563.2409667969</ele>
        <time>2012-06-09T16:02:47Z</time>
      </trkpt>
      <trkpt lat="42.67836" lon="1.64497">
        <ele>1564.6831054688</ele>
        <time>2012-06-09T16:02:54Z</time>
      </trkpt>
      <trkpt lat="42.67846" lon="1.64503">
        <ele>1564.2023925781</ele>
        <time>2012-06-09T16:03:01Z</time>
      </trkpt>
      <trkpt lat="42.67855" lon="1.6451">
        <ele>1563.2409667969</ele>
        <time>2012-06-09T16:03:08Z</time>
      </trkpt>
      <trkpt lat="42.67865" lon="1.64514">
        <ele>1562.2795410156</ele>
        <time>2012-06-09T16:03:16Z</time>
      </trkpt>
      <trkpt lat="42.67875" lon="1.64523">
        <ele>1562.2795410156</ele>
        <time>2012-06-09T16:03:26Z</time>
      </trkpt>
      <trkpt lat="42.67883" lon="1.64532">
        <ele>1562.2795410156</ele>
        <time>2012-06-09T16:03:34Z</time>
      </trkpt>
      <trkpt lat="42.67887" lon="1.64541">
        <ele>1561.7990722656</ele>
        <time>2012-06-09T16:03:40Z</time>
      </trkpt>
      <trkpt lat="42.67892" lon="1.64555">
        <ele>1562.2795410156</ele>
        <time>2012-06-09T16:03:48Z</time>
      </trkpt>
      <trkpt lat="42.67893" lon="1.64567">
        <ele>1561.318359375</ele>
        <time>2012-06-09T16:03:55Z</time>
      </trkpt>
      <trkpt lat="42.67898" lon="1.64579">
        <ele>1561.7990722656</ele>
        <time>2012-06-09T16:04:02Z</time>
      </trkpt>
      <trkpt lat="42.67904" lon="1.64589">
        <ele>1562.2795410156</ele>
        <time>2012-06-09T16:04:10Z</time>
      </trkpt>
      <trkpt lat="42.67913" lon="1.646">
        <ele>1562.2795410156</ele>
        <time>2012-06-09T16:04:19Z</time>
      </trkpt>
      <trkpt lat="42.67923" lon="1.64614">
        <ele>1562.2795410156</ele>
        <time>2012-06-09T16:04:29Z</time>
      </trkpt>
      <trkpt lat="42.67931" lon="1.64621">
        <ele>1561.318359375</ele>
        <time>2012-06-09T16:04:36Z</time>
      </trkpt>
      <trkpt lat="42.6794" lon="1.64631">
        <ele>1560.8376464844</ele>
        <time>2012-06-09T16:04:45Z</time>
      </trkpt>
      <trkpt lat="42.67947" lon="1.64642">
        <ele>1560.8376464844</ele>
        <time>2012-06-09T16:04:53Z</time>
      </trkpt>
      <trkpt lat="42.67953" lon="1.64651">
        <ele>1560.3569335938</ele>
        <time>2012-06-09T16:05:00Z</time>
      </trkpt>
      <trkpt lat="42.67961" lon="1.64664">
        <ele>1560.8376464844</ele>
        <time>2012-06-09T16:05:09Z</time>
      </trkpt>
      <trkpt lat="42.67965" lon="1.64671">
        <ele>1560.3569335938</ele>
        <time>2012-06-09T16:05:14Z</time>
      </trkpt>
      <trkpt lat="42.6797" lon="1.64681">
        <ele>1559.8762207031</ele>
        <time>2012-06-09T16:05:21Z</time>
      </trkpt>
      <trkpt lat="42.67977" lon="1.6469">
        <ele>1560.3569335938</ele>
        <time>2012-06-09T16:05:28Z</time>
      </trkpt>
      <trkpt lat="42.67986" lon="1.64697">
        <ele>1561.318359375</ele>
        <time>2012-06-09T16:05:35Z</time>
      </trkpt>
      <trkpt lat="42.67995" lon="1.64701">
        <ele>1562.2795410156</ele>
        <time>2012-06-09T16:05:42Z</time>
      </trkpt>
      <trkpt lat="42.68003" lon="1.64701">
        <ele>1561.7990722656</ele>
        <time>2012-06-09T16:05:48Z</time>
      </trkpt>
      <trkpt lat="42.68013" lon="1.647">
        <ele>1561.318359375</ele>
        <time>2012-06-09T16:05:55Z</time>
      </trkpt>
      <trkpt lat="42.68024" lon="1.64698">
        <ele>1561.318359375</ele>
        <time>2012-06-09T16:06:03Z</time>
      </trkpt>
      <trkpt lat="42.68035" lon="1.64699">
        <ele>1561.318359375</ele>
        <time>2012-06-09T16:06:11Z</time>
      </trkpt>
      <trkpt lat="42.68045" lon="1.64702">
        <ele>1561.318359375</ele>
        <time>2012-06-09T16:06:19Z</time>
      </trkpt>
      <trkpt lat="42.68056" lon="1.64709">
        <ele>1561.7990722656</ele>
        <time>2012-06-09T16:06:28Z</time>
      </trkpt>
      <trkpt lat="42.68064" lon="1.64718">
        <ele>1562.2795410156</ele>
        <time>2012-06-09T16:06:36Z</time>
      </trkpt>
      <trkpt lat="42.68072" lon="1.64722">
        <ele>1561.7990722656</ele>
        <time>2012-06-09T16:06:42Z</time>
      </trkpt>
      <trkpt lat="42.68082" lon="1.64731">
        <ele>1561.318359375</ele>
        <time>2012-06-09T16:06:51Z</time>
      </trkpt>
      <trkpt lat="42.68095" lon="1.64737">
        <ele>1561.318359375</ele>
        <time>2012-06-09T16:07:00Z</time>
      </trkpt>
      <trkpt lat="42.68102" lon="1.64742">
        <ele>1560.8376464844</ele>
        <time>2012-06-09T16:07:07Z</time>
      </trkpt>
      <trkpt lat="42.68112" lon="1.64749">
        <ele>1561.7990722656</ele>
        <time>2012-06-09T16:07:15Z</time>
      </trkpt>
      <trkpt lat="42.68116" lon="1.64752">
        <ele>1561.7990722656</ele>
        <time>2012-06-09T16:07:18Z</time>
      </trkpt>
      <trkpt lat="42.68121" lon="1.64755">
        <ele>1561.7990722656</ele>
        <time>2012-06-09T16:07:22Z</time>
      </trkpt>
      <trkpt lat="42.6813" lon="1.64764">
        <ele>1561.318359375</ele>
        <time>2012-06-09T16:07:30Z</time>
      </trkpt>
      <trkpt lat="42.68136" lon="1.64773">
        <ele>1560.8376464844</ele>
        <time>2012-06-09T16:07:37Z</time>
      </trkpt>
      <trkpt lat="42.68143" lon="1.64786">
        <ele>1561.318359375</ele>
        <time>2012-06-09T16:07:45Z</time>
      </trkpt>
      <trkpt lat="42.68147" lon="1.64797">
        <ele>1561.318359375</ele>
        <time>2012-06-09T16:07:52Z</time>
      </trkpt>
      <trkpt lat="42.68151" lon="1.64812">
        <ele>1561.318359375</ele>
        <time>2012-06-09T16:08:01Z</time>
      </trkpt>
      <trkpt lat="42.68157" lon="1.64826">
        <ele>1561.7990722656</ele>
        <time>2012-06-09T16:08:09Z</time>
      </trkpt>
      <trkpt lat="42.68162" lon="1.64834">
        <ele>1561.318359375</ele>
        <time>2012-06-09T16:08:15Z</time>
      </trkpt>
      <trkpt lat="42.6817" lon="1.64848">
        <ele>1561.7990722656</ele>
        <time>2012-06-09T16:08:24Z</time>
      </trkpt>
      <trkpt lat="42.68178" lon="1.64861">
        <ele>1562.2795410156</ele>
        <time>2012-06-09T16:08:33Z</time>
      </trkpt>
      <trkpt lat="42.68182" lon="1.6487">
        <ele>1561.7990722656</ele>
        <time>2012-06-09T16:08:39Z</time>
      </trkpt>
      <trkpt lat="42.6819" lon="1.64883">
        <ele>1561.7990722656</ele>
        <time>2012-06-09T16:08:48Z</time>
      </trkpt>
      <trkpt lat="42.68197" lon="1.64896">
        <ele>1561.7990722656</ele>
        <time>2012-06-09T16:08:56Z</time>
      </trkpt>
      <trkpt lat="42.68202" lon="1.64907">
        <ele>1561.7990722656</ele>
        <time>2012-06-09T16:09:03Z</time>
      </trkpt>
      <trkpt lat="42.68208" lon="1.6492">
        <ele>1561.7990722656</ele>
        <time>2012-06-09T16:09:11Z</time>
      </trkpt>
      <trkpt lat="42.68213" lon="1.64933">
        <ele>1561.7990722656</ele>
        <time>2012-06-09T16:09:19Z</time>
      </trkpt>
      <trkpt lat="42.68217" lon="1.64944">
        <ele>1561.318359375</ele>
        <time>2012-06-09T16:09:26Z</time>
      </trkpt>
      <trkpt lat="42.68228" lon="1.6495">
        <ele>1560.8376464844</ele>
        <time>2012-06-09T16:09:35Z</time>
      </trkpt>
      <trkpt lat="42.68236" lon="1.64953">
        <ele>1560.8376464844</ele>
        <time>2012-06-09T16:09:41Z</time>
      </trkpt>
      <trkpt lat="42.68251" lon="1.64953">
        <ele>1561.318359375</ele>
        <time>2012-06-09T16:09:52Z</time>
      </trkpt>
      <trkpt lat="42.68259" lon="1.64958">
        <ele>1560.8376464844</ele>
        <time>2012-06-09T16:09:59Z</time>
      </trkpt>
      <trkpt lat="42.68269" lon="1.64957">
        <ele>1559.8762207031</ele>
        <time>2012-06-09T16:10:06Z</time>
      </trkpt>
      <trkpt lat="42.68273" lon="1.64957">
        <ele>1559.3957519531</ele>
        <time>2012-06-09T16:10:09Z</time>
      </trkpt>
      <trkpt lat="42.6828" lon="1.64958">
        <ele>1556.9924316406</ele>
        <time>2012-06-09T16:10:15Z</time>
      </trkpt>
      <trkpt lat="42.6828" lon="1.64957">
        <ele>1556.51171875</ele>
        <time>2012-06-09T16:10:16Z</time>
      </trkpt>
      <trkpt lat="42.68281" lon="1.64955">
        <ele>1555.5505371094</ele>
        <time>2012-06-09T16:10:19Z</time>
      </trkpt>
      <trkpt lat="42.68275" lon="1.64947">
        <ele>1555.0698242188</ele>
        <time>2012-06-09T16:10:26Z</time>
      </trkpt>
      <trkpt lat="42.68272" lon="1.64944">
        <ele>1554.1086425781</ele>
        <time>2012-06-09T16:10:29Z</time>
      </trkpt>
      <trkpt lat="42.68269" lon="1.64935">
        <ele>1553.1472167969</ele>
        <time>2012-06-09T16:10:33Z</time>
      </trkpt>
      <trkpt lat="42.68264" lon="1.64927">
        <ele>1552.1857910156</ele>
        <time>2012-06-09T16:10:38Z</time>
      </trkpt>
      <trkpt lat="42.68257" lon="1.64917">
        <ele>1548.3405761719</ele>
        <time>2012-06-09T16:10:45Z</time>
      </trkpt>
      <trkpt lat="42.68254" lon="1.64912">
        <ele>1546.8984375</ele>
        <time>2012-06-09T16:10:48Z</time>
      </trkpt>
      <trkpt lat="42.68253" lon="1.64909">
        <ele>1545.9372558594</ele>
        <time>2012-06-09T16:10:50Z</time>
      </trkpt>
      <trkpt lat="42.68257" lon="1.64904">
        <ele>1544.0146484375</ele>
        <time>2012-06-09T16:10:55Z</time>
      </trkpt>
      <trkpt lat="42.68265" lon="1.64906">
        <ele>1542.0920410156</ele>
        <time>2012-06-09T16:11:01Z</time>
      </trkpt>
      <trkpt lat="42.68269" lon="1.64906">
        <ele>1541.1306152344</ele>
        <time>2012-06-09T16:11:04Z</time>
      </trkpt>
      <trkpt lat="42.68277" lon="1.64906">
        <ele>1539.2080078125</ele>
        <time>2012-06-09T16:11:12Z</time>
      </trkpt>
      <trkpt lat="42.68284" lon="1.64901">
        <ele>1537.7661132812</ele>
        <time>2012-06-09T16:11:19Z</time>
      </trkpt>
      <trkpt lat="42.68285" lon="1.64899">
        <ele>1537.2854003906</ele>
        <time>2012-06-09T16:11:21Z</time>
      </trkpt>
      <trkpt lat="42.68287" lon="1.64893">
        <ele>1536.32421875</ele>
        <time>2012-06-09T16:11:25Z</time>
      </trkpt>
      <trkpt lat="42.68289" lon="1.64886">
        <ele>1534.8823242188</ele>
        <time>2012-06-09T16:11:30Z</time>
      </trkpt>
      <trkpt lat="42.68298" lon="1.64881">
        <ele>1533.9208984375</ele>
        <time>2012-06-09T16:11:38Z</time>
      </trkpt>
      <trkpt lat="42.68306" lon="1.64882">
        <ele>1533.4401855469</ele>
        <time>2012-06-09T16:11:44Z</time>
      </trkpt>
      <trkpt lat="42.68312" lon="1.64883">
        <ele>1532.9594726562</ele>
        <time>2012-06-09T16:11:48Z</time>
      </trkpt>
      <trkpt lat="42.6832" lon="1.64897">
        <ele>1532.4790039062</ele>
        <time>2012-06-09T16:11:57Z</time>
      </trkpt>
      <trkpt lat="42.68325" lon="1.64905">
        <ele>1532.4790039062</ele>
        <time>2012-06-09T16:12:03Z</time>
      </trkpt>
      <trkpt lat="42.68325" lon="1.64909">
        <ele>1531.998046875</ele>
        <time>2012-06-09T16:12:06Z</time>
      </trkpt>
      <trkpt lat="42.68327" lon="1.64911">
        <ele>1531.5173339844</ele>
        <time>2012-06-09T16:12:09Z</time>
      </trkpt>
      <trkpt lat="42.68333" lon="1.64919">
        <ele>1531.5173339844</ele>
        <time>2012-06-09T16:12:16Z</time>
      </trkpt>
      <trkpt lat="42.68333" lon="1.6492">
        <ele>1531.5173339844</ele>
        <time>2012-06-09T16:12:17Z</time>
      </trkpt>
      <trkpt lat="42.68336" lon="1.64925">
        <ele>1531.0368652344</ele>
        <time>2012-06-09T16:12:20Z</time>
      </trkpt>
      <trkpt lat="42.68345" lon="1.64937">
        <ele>1529.1140136719</ele>
        <time>2012-06-09T16:12:28Z</time>
      </trkpt>
      <trkpt lat="42.68349" lon="1.64945">
        <ele>1527.1916503906</ele>
        <time>2012-06-09T16:12:34Z</time>
      </trkpt>
      <trkpt lat="42.68351" lon="1.64946">
        <ele>1526.7109375</ele>
        <time>2012-06-09T16:12:35Z</time>
      </trkpt>
      <trkpt lat="42.68354" lon="1.64951">
        <ele>1526.2302246094</ele>
        <time>2012-06-09T16:12:40Z</time>
      </trkpt>
      <trkpt lat="42.68356" lon="1.64952">
        <ele>1525.7495117188</ele>
        <time>2012-06-09T16:12:41Z</time>
      </trkpt>
      <trkpt lat="42.68363" lon="1.64957">
        <ele>1524.3076171875</ele>
        <time>2012-06-09T16:12:49Z</time>
      </trkpt>
      <trkpt lat="42.6837" lon="1.64958">
        <ele>1522.8657226562</ele>
        <time>2012-06-09T16:12:55Z</time>
      </trkpt>
      <trkpt lat="42.6838" lon="1.64953">
        <ele>1521.904296875</ele>
        <time>2012-06-09T16:13:02Z</time>
      </trkpt>
      <trkpt lat="42.68387" lon="1.64947">
        <ele>1519.9816894531</ele>
        <time>2012-06-09T16:13:08Z</time>
      </trkpt>
      <trkpt lat="42.68391" lon="1.64937">
        <ele>1517.5783691406</ele>
        <time>2012-06-09T16:13:15Z</time>
      </trkpt>
      <trkpt lat="42.68397" lon="1.64933">
        <ele>1516.1364746094</ele>
        <time>2012-06-09T16:13:21Z</time>
      </trkpt>
      <trkpt lat="42.68399" lon="1.64932">
        <ele>1515.1750488281</ele>
        <time>2012-06-09T16:13:23Z</time>
      </trkpt>
      <trkpt lat="42.68403" lon="1.64924">
        <ele>1514.2136230469</ele>
        <time>2012-06-09T16:13:28Z</time>
      </trkpt>
      <trkpt lat="42.68409" lon="1.64921">
        <ele>1511.810546875</ele>
        <time>2012-06-09T16:13:34Z</time>
      </trkpt>
      <trkpt lat="42.68413" lon="1.64925">
        <ele>1509.8876953125</ele>
        <time>2012-06-09T16:13:39Z</time>
      </trkpt>
      <trkpt lat="42.68415" lon="1.64929">
        <ele>1509.4072265625</ele>
        <time>2012-06-09T16:13:42Z</time>
      </trkpt>
      <trkpt lat="42.68421" lon="1.64931">
        <ele>1509.4072265625</ele>
        <time>2012-06-09T16:13:48Z</time>
      </trkpt>
      <trkpt lat="42.68424" lon="1.64932">
        <ele>1508.9265136719</ele>
        <time>2012-06-09T16:13:50Z</time>
      </trkpt>
      <trkpt lat="42.68425" lon="1.64934">
        <ele>1508.4458007812</ele>
        <time>2012-06-09T16:13:52Z</time>
      </trkpt>
      <trkpt lat="42.6843" lon="1.64941">
        <ele>1505.5620117188</ele>
        <time>2012-06-09T16:14:00Z</time>
      </trkpt>
      <trkpt lat="42.68435" lon="1.64944">
        <ele>1504.1201171875</ele>
        <time>2012-06-09T16:14:06Z</time>
      </trkpt>
      <trkpt lat="42.6844" lon="1.6495">
        <ele>1502.6779785156</ele>
        <time>2012-06-09T16:14:12Z</time>
      </trkpt>
      <trkpt lat="42.68444" lon="1.64963">
        <ele>1503.1586914062</ele>
        <time>2012-06-09T16:14:20Z</time>
      </trkpt>
      <trkpt lat="42.68446" lon="1.64973">
        <ele>1502.197265625</ele>
        <time>2012-06-09T16:14:26Z</time>
      </trkpt>
      <trkpt lat="42.68449" lon="1.64976">
        <ele>1502.197265625</ele>
        <time>2012-06-09T16:14:30Z</time>
      </trkpt>
      <trkpt lat="42.68458" lon="1.64979">
        <ele>1501.716796875</ele>
        <time>2012-06-09T16:14:38Z</time>
      </trkpt>
      <trkpt lat="42.68466" lon="1.6498">
        <ele>1501.2360839844</ele>
        <time>2012-06-09T16:14:44Z</time>
      </trkpt>
      <trkpt lat="42.68467" lon="1.6498">
        <ele>1501.2360839844</ele>
        <time>2012-06-09T16:14:45Z</time>
      </trkpt>
      <trkpt lat="42.68474" lon="1.64988">
        <ele>1501.716796875</ele>
        <time>2012-06-09T16:14:53Z</time>
      </trkpt>
      <trkpt lat="42.68479" lon="1.64995">
        <ele>1501.716796875</ele>
        <time>2012-06-09T16:14:59Z</time>
      </trkpt>
      <trkpt lat="42.68484" lon="1.65001">
        <ele>1501.716796875</ele>
        <time>2012-06-09T16:15:06Z</time>
      </trkpt>
      <trkpt lat="42.68493" lon="1.65004">
        <ele>1500.7553710938</ele>
        <time>2012-06-09T16:15:14Z</time>
      </trkpt>
      <trkpt lat="42.68496" lon="1.65006">
        <ele>1500.2749023438</ele>
        <time>2012-06-09T16:15:18Z</time>
      </trkpt>
      <trkpt lat="42.68498" lon="1.65008">
        <ele>1500.2749023438</ele>
        <time>2012-06-09T16:15:21Z</time>
      </trkpt>
      <trkpt lat="42.6851" lon="1.65014">
        <ele>1500.2749023438</ele>
        <time>2012-06-09T16:15:30Z</time>
      </trkpt>
      <trkpt lat="42.68519" lon="1.65017">
        <ele>1499.7939453125</ele>
        <time>2012-06-09T16:15:37Z</time>
      </trkpt>
      <trkpt lat="42.68524" lon="1.65019">
        <ele>1498.3518066406</ele>
        <time>2012-06-09T16:15:42Z</time>
      </trkpt>
      <trkpt lat="42.68525" lon="1.65022">
        <ele>1497.390625</ele>
        <time>2012-06-09T16:15:45Z</time>
      </trkpt>
      <trkpt lat="42.6853" lon="1.65025">
        <ele>1496.4294433594</ele>
        <time>2012-06-09T16:15:51Z</time>
      </trkpt>
      <trkpt lat="42.68533" lon="1.65029">
        <ele>1495.9487304688</ele>
        <time>2012-06-09T16:15:55Z</time>
      </trkpt>
      <trkpt lat="42.6854" lon="1.65034">
        <ele>1494.9873046875</ele>
        <time>2012-06-09T16:16:01Z</time>
      </trkpt>
      <trkpt lat="42.68544" lon="1.65037">
        <ele>1493.0646972656</ele>
        <time>2012-06-09T16:16:08Z</time>
      </trkpt>
      <trkpt lat="42.6855" lon="1.65041">
        <ele>1493.0646972656</ele>
        <time>2012-06-09T16:16:15Z</time>
      </trkpt>
      <trkpt lat="42.6855" lon="1.65044">
        <ele>1492.5842285156</ele>
        <time>2012-06-09T16:16:17Z</time>
      </trkpt>
      <trkpt lat="42.68552" lon="1.65048">
        <ele>1493.5454101562</ele>
        <time>2012-06-09T16:16:23Z</time>
      </trkpt>
      <trkpt lat="42.68558" lon="1.65049">
        <ele>1494.5065917969</ele>
        <time>2012-06-09T16:16:28Z</time>
      </trkpt>
      <trkpt lat="42.68562" lon="1.65046">
        <ele>1496.4294433594</ele>
        <time>2012-06-09T16:16:31Z</time>
      </trkpt>
      <trkpt lat="42.68565" lon="1.65046">
        <ele>1496.4294433594</ele>
        <time>2012-06-09T16:16:34Z</time>
      </trkpt>
      <trkpt lat="42.68572" lon="1.65045">
        <ele>1496.9099121094</ele>
        <time>2012-06-09T16:16:40Z</time>
      </trkpt>
      <trkpt lat="42.68573" lon="1.65045">
        <ele>1497.390625</ele>
        <time>2012-06-09T16:16:42Z</time>
      </trkpt>
      <trkpt lat="42.68577" lon="1.65041">
        <ele>1499.3132324219</ele>
        <time>2012-06-09T16:16:48Z</time>
      </trkpt>
      <trkpt lat="42.6858" lon="1.65041">
        <ele>1499.7939453125</ele>
        <time>2012-06-09T16:16:53Z</time>
      </trkpt>
      <trkpt lat="42.68584" lon="1.65041">
        <ele>1499.7939453125</ele>
        <time>2012-06-09T16:16:58Z</time>
      </trkpt>
      <trkpt lat="42.68588" lon="1.65038">
        <ele>1501.2360839844</ele>
        <time>2012-06-09T16:17:04Z</time>
      </trkpt>
      <trkpt lat="42.68592" lon="1.65037">
        <ele>1501.2360839844</ele>
        <time>2012-06-09T16:17:09Z</time>
      </trkpt>
      <trkpt lat="42.68599" lon="1.65042">
        <ele>1497.8713378906</ele>
        <time>2012-06-09T16:17:17Z</time>
      </trkpt>
      <trkpt lat="42.68602" lon="1.65046">
        <ele>1495.9487304688</ele>
        <time>2012-06-09T16:17:22Z</time>
      </trkpt>
      <trkpt lat="42.68604" lon="1.65044">
        <ele>1494.5065917969</ele>
        <time>2012-06-09T16:17:28Z</time>
      </trkpt>
      <trkpt lat="42.68607" lon="1.65041">
        <ele>1493.0646972656</ele>
        <time>2012-06-09T16:17:33Z</time>
      </trkpt>
      <trkpt lat="42.68613" lon="1.65038">
        <ele>1490.6613769531</ele>
        <time>2012-06-09T16:17:40Z</time>
      </trkpt>
      <trkpt lat="42.68618" lon="1.65035">
        <ele>1492.103515625</ele>
        <time>2012-06-09T16:17:45Z</time>
      </trkpt>
      <trkpt lat="42.6862" lon="1.65035">
        <ele>1491.6228027344</ele>
        <time>2012-06-09T16:17:48Z</time>
      </trkpt>
      <trkpt lat="42.68624" lon="1.65034">
        <ele>1491.6228027344</ele>
        <time>2012-06-09T16:17:52Z</time>
      </trkpt>
      <trkpt lat="42.68629" lon="1.6503">
        <ele>1492.103515625</ele>
        <time>2012-06-09T16:17:57Z</time>
      </trkpt>
      <trkpt lat="42.68639" lon="1.65025">
        <ele>1496.9099121094</ele>
        <time>2012-06-09T16:18:06Z</time>
      </trkpt>
      <trkpt lat="42.68648" lon="1.65029">
        <ele>1492.5842285156</ele>
        <time>2012-06-09T16:18:14Z</time>
      </trkpt>
      <trkpt lat="42.68651" lon="1.65031">
        <ele>1491.6228027344</ele>
        <time>2012-06-09T16:18:18Z</time>
      </trkpt>
      <trkpt lat="42.68656" lon="1.65029">
        <ele>1489.7001953125</ele>
        <time>2012-06-09T16:18:25Z</time>
      </trkpt>
      <trkpt lat="42.68661" lon="1.65029">
        <ele>1487.7775878906</ele>
        <time>2012-06-09T16:18:31Z</time>
      </trkpt>
      <trkpt lat="42.68665" lon="1.65028">
        <ele>1488.7390136719</ele>
        <time>2012-06-09T16:18:36Z</time>
      </trkpt>
      <trkpt lat="42.68668" lon="1.65026">
        <ele>1488.7390136719</ele>
        <time>2012-06-09T16:18:41Z</time>
      </trkpt>
      <trkpt lat="42.68673" lon="1.65025">
        <ele>1487.7775878906</ele>
        <time>2012-06-09T16:18:49Z</time>
      </trkpt>
      <trkpt lat="42.68676" lon="1.65025">
        <ele>1487.7775878906</ele>
        <time>2012-06-09T16:18:54Z</time>
      </trkpt>
      <trkpt lat="42.6868" lon="1.65026">
        <ele>1486.8161621094</ele>
        <time>2012-06-09T16:18:59Z</time>
      </trkpt>
      <trkpt lat="42.68685" lon="1.65026">
        <ele>1485.8549804688</ele>
        <time>2012-06-09T16:19:04Z</time>
      </trkpt>
      <trkpt lat="42.6869" lon="1.65023">
        <ele>1485.3742675781</ele>
        <time>2012-06-09T16:19:10Z</time>
      </trkpt>
      <trkpt lat="42.68696" lon="1.65024">
        <ele>1484.4130859375</ele>
        <time>2012-06-09T16:19:17Z</time>
      </trkpt>
      <trkpt lat="42.68701" lon="1.65021">
        <ele>1484.4130859375</ele>
        <time>2012-06-09T16:19:23Z</time>
      </trkpt>
      <trkpt lat="42.68707" lon="1.65017">
        <ele>1482.0095214844</ele>
        <time>2012-06-09T16:19:29Z</time>
      </trkpt>
      <trkpt lat="42.68711" lon="1.65016">
        <ele>1482.0095214844</ele>
        <time>2012-06-09T16:19:33Z</time>
      </trkpt>
      <trkpt lat="42.68715" lon="1.65018">
        <ele>1480.5676269531</ele>
        <time>2012-06-09T16:19:37Z</time>
      </trkpt>
      <trkpt lat="42.68719" lon="1.65018">
        <ele>1478.6450195312</ele>
        <time>2012-06-09T16:19:43Z</time>
      </trkpt>
      <trkpt lat="42.68725" lon="1.65019">
        <ele>1476.7224121094</ele>
        <time>2012-06-09T16:19:48Z</time>
      </trkpt>
      <trkpt lat="42.68727" lon="1.6502">
        <ele>1476.2416992188</ele>
        <time>2012-06-09T16:19:50Z</time>
      </trkpt>
      <trkpt lat="42.6873" lon="1.65024">
        <ele>1477.68359375</ele>
        <time>2012-06-09T16:19:55Z</time>
      </trkpt>
      <trkpt lat="42.68733" lon="1.65023">
        <ele>1478.1643066406</ele>
        <time>2012-06-09T16:20:02Z</time>
      </trkpt>
      <trkpt lat="42.68737" lon="1.65024">
        <ele>1475.2802734375</ele>
        <time>2012-06-09T16:20:09Z</time>
      </trkpt>
      <trkpt lat="42.68741" lon="1.65023">
        <ele>1472.396484375</ele>
        <time>2012-06-09T16:20:15Z</time>
      </trkpt>
      <trkpt lat="42.68745" lon="1.6502">
        <ele>1473.8383789062</ele>
        <time>2012-06-09T16:20:20Z</time>
      </trkpt>
      <trkpt lat="42.6875" lon="1.65021">
        <ele>1472.8771972656</ele>
        <time>2012-06-09T16:20:25Z</time>
      </trkpt>
      <trkpt lat="42.68755" lon="1.65022">
        <ele>1471.9157714844</ele>
        <time>2012-06-09T16:20:31Z</time>
      </trkpt>
      <trkpt lat="42.68756" lon="1.65022">
        <ele>1471.4350585938</ele>
        <time>2012-06-09T16:20:32Z</time>
      </trkpt>
      <trkpt lat="42.6876" lon="1.6502">
        <ele>1473.3579101562</ele>
        <time>2012-06-09T16:20:37Z</time>
      </trkpt>
      <trkpt lat="42.68763" lon="1.65019">
        <ele>1472.396484375</ele>
        <time>2012-06-09T16:20:41Z</time>
      </trkpt>
      <trkpt lat="42.68767" lon="1.65012">
        <ele>1475.2802734375</ele>
        <time>2012-06-09T16:20:46Z</time>
      </trkpt>
      <trkpt lat="42.68773" lon="1.65001">
        <ele>1481.5288085938</ele>
        <time>2012-06-09T16:20:54Z</time>
      </trkpt>
      <trkpt lat="42.68777" lon="1.64998">
        <ele>1481.5288085938</ele>
        <time>2012-06-09T16:21:00Z</time>
      </trkpt>
      <trkpt lat="42.6878" lon="1.64999">
        <ele>1477.68359375</ele>
        <time>2012-06-09T16:21:06Z</time>
      </trkpt>
      <trkpt lat="42.68785" lon="1.64998">
        <ele>1474.7998046875</ele>
        <time>2012-06-09T16:21:11Z</time>
      </trkpt>
      <trkpt lat="42.6879" lon="1.64997">
        <ele>1473.8383789062</ele>
        <time>2012-06-09T16:21:15Z</time>
      </trkpt>
      <trkpt lat="42.68794" lon="1.65">
        <ele>1470.9545898438</ele>
        <time>2012-06-09T16:21:19Z</time>
      </trkpt>
      <trkpt lat="42.68799" lon="1.65">
        <ele>1468.0705566406</ele>
        <time>2012-06-09T16:21:25Z</time>
      </trkpt>
      <trkpt lat="42.68803" lon="1.65">
        <ele>1468.0705566406</ele>
        <time>2012-06-09T16:21:28Z</time>
      </trkpt>
      <trkpt lat="42.6881" lon="1.64998">
        <ele>1467.5895996094</ele>
        <time>2012-06-09T16:21:35Z</time>
      </trkpt>
      <trkpt lat="42.68818" lon="1.64996">
        <ele>1465.1865234375</ele>
        <time>2012-06-09T16:21:43Z</time>
      </trkpt>
      <trkpt lat="42.68824" lon="1.64993">
        <ele>1465.1865234375</ele>
        <time>2012-06-09T16:21:49Z</time>
      </trkpt>
      <trkpt lat="42.68825" lon="1.64992">
        <ele>1465.1865234375</ele>
        <time>2012-06-09T16:21:50Z</time>
      </trkpt>
      <trkpt lat="42.68831" lon="1.64986">
        <ele>1465.6672363281</ele>
        <time>2012-06-09T16:21:58Z</time>
      </trkpt>
      <trkpt lat="42.68835" lon="1.64985">
        <ele>1463.7443847656</ele>
        <time>2012-06-09T16:22:01Z</time>
      </trkpt>
      <trkpt lat="42.68839" lon="1.64987">
        <ele>1461.8220214844</ele>
        <time>2012-06-09T16:22:05Z</time>
      </trkpt>
      <trkpt lat="42.68843" lon="1.64986">
        <ele>1461.3413085938</ele>
        <time>2012-06-09T16:22:10Z</time>
      </trkpt>
      <trkpt lat="42.68849" lon="1.64987">
        <ele>1462.3024902344</ele>
        <time>2012-06-09T16:22:16Z</time>
      </trkpt>
      <trkpt lat="42.68856" lon="1.64989">
        <ele>1463.7443847656</ele>
        <time>2012-06-09T16:22:23Z</time>
      </trkpt>
      <trkpt lat="42.6886" lon="1.64989">
        <ele>1464.2250976562</ele>
        <time>2012-06-09T16:22:27Z</time>
      </trkpt>
      <trkpt lat="42.68866" lon="1.6499">
        <ele>1465.1865234375</ele>
        <time>2012-06-09T16:22:32Z</time>
      </trkpt>
      <trkpt lat="42.6887" lon="1.64989">
        <ele>1464.7058105469</ele>
        <time>2012-06-09T16:22:37Z</time>
      </trkpt>
      <trkpt lat="42.68875" lon="1.64988">
        <ele>1466.6284179688</ele>
        <time>2012-06-09T16:22:43Z</time>
      </trkpt>
      <trkpt lat="42.68883" lon="1.64988">
        <ele>1466.1477050781</ele>
        <time>2012-06-09T16:22:50Z</time>
      </trkpt>
      <trkpt lat="42.6889" lon="1.64987">
        <ele>1465.6672363281</ele>
        <time>2012-06-09T16:22:57Z</time>
      </trkpt>
      <trkpt lat="42.68896" lon="1.64987">
        <ele>1466.6284179688</ele>
        <time>2012-06-09T16:23:03Z</time>
      </trkpt>
      <trkpt lat="42.68904" lon="1.64982">
        <ele>1470.4738769531</ele>
        <time>2012-06-09T16:23:11Z</time>
      </trkpt>
      <trkpt lat="42.68911" lon="1.6498">
        <ele>1471.9157714844</ele>
        <time>2012-06-09T16:23:17Z</time>
      </trkpt>
      <trkpt lat="42.68914" lon="1.64976">
        <ele>1475.2802734375</ele>
        <time>2012-06-09T16:23:21Z</time>
      </trkpt>
      <trkpt lat="42.68924" lon="1.64977">
        <ele>1475.7609863281</ele>
        <time>2012-06-09T16:23:28Z</time>
      </trkpt>
      <trkpt lat="42.68932" lon="1.64982">
        <ele>1475.2802734375</ele>
        <time>2012-06-09T16:23:35Z</time>
      </trkpt>
      <trkpt lat="42.68933" lon="1.64982">
        <ele>1475.7609863281</ele>
        <time>2012-06-09T16:23:36Z</time>
      </trkpt>
      <trkpt lat="42.68939" lon="1.64987">
        <ele>1472.396484375</ele>
        <time>2012-06-09T16:23:42Z</time>
      </trkpt>
      <trkpt lat="42.68945" lon="1.64993">
        <ele>1468.5512695312</ele>
        <time>2012-06-09T16:23:49Z</time>
      </trkpt>
      <trkpt lat="42.68946" lon="1.64994">
        <ele>1467.5895996094</ele>
        <time>2012-06-09T16:23:51Z</time>
      </trkpt>
      <trkpt lat="42.68954" lon="1.65">
        <ele>1465.6672363281</ele>
        <time>2012-06-09T16:23:57Z</time>
      </trkpt>
      <trkpt lat="42.68957" lon="1.65001">
        <ele>1466.6284179688</ele>
        <time>2012-06-09T16:24:00Z</time>
      </trkpt>
      <trkpt lat="42.68963" lon="1.65004">
        <ele>1469.0319824219</ele>
        <time>2012-06-09T16:24:06Z</time>
      </trkpt>
      <trkpt lat="42.68967" lon="1.6501">
        <ele>1471.9157714844</ele>
        <time>2012-06-09T16:24:12Z</time>
      </trkpt>
      <trkpt lat="42.68973" lon="1.65008">
        <ele>1476.7224121094</ele>
        <time>2012-06-09T16:24:21Z</time>
      </trkpt>
      <trkpt lat="42.68979" lon="1.6501">
        <ele>1479.1254882812</ele>
        <time>2012-06-09T16:24:27Z</time>
      </trkpt>
      <trkpt lat="42.68981" lon="1.65012">
        <ele>1479.1254882812</ele>
        <time>2012-06-09T16:24:34Z</time>
      </trkpt>
      <trkpt lat="42.68977" lon="1.6502">
        <ele>1477.68359375</ele>
        <time>2012-06-09T16:24:49Z</time>
      </trkpt>
      <trkpt lat="42.68983" lon="1.65019">
        <ele>1480.5676269531</ele>
        <time>2012-06-09T16:24:54Z</time>
      </trkpt>
      <trkpt lat="42.68986" lon="1.65022">
        <ele>1480.5676269531</ele>
        <time>2012-06-09T16:24:56Z</time>
      </trkpt>
      <trkpt lat="42.68995" lon="1.65024">
        <ele>1483.4514160156</ele>
        <time>2012-06-09T16:25:03Z</time>
      </trkpt>
      <trkpt lat="42.69002" lon="1.65023">
        <ele>1484.4130859375</ele>
        <time>2012-06-09T16:25:08Z</time>
      </trkpt>
      <trkpt lat="42.69008" lon="1.65027">
        <ele>1480.5676269531</ele>
        <time>2012-06-09T16:25:13Z</time>
      </trkpt>
      <trkpt lat="42.69009" lon="1.65028">
        <ele>1480.5676269531</ele>
        <time>2012-06-09T16:25:14Z</time>
      </trkpt>
      <trkpt lat="42.69014" lon="1.65029">
        <ele>1478.1643066406</ele>
        <time>2012-06-09T16:25:18Z</time>
      </trkpt>
      <trkpt lat="42.69019" lon="1.6503">
        <ele>1475.7609863281</ele>
        <time>2012-06-09T16:25:24Z</time>
      </trkpt>
      <trkpt lat="42.69024" lon="1.65036">
        <ele>1473.3579101562</ele>
        <time>2012-06-09T16:25:29Z</time>
      </trkpt>
      <trkpt lat="42.69028" lon="1.65037">
        <ele>1475.7609863281</ele>
        <time>2012-06-09T16:25:35Z</time>
      </trkpt>
      <trkpt lat="42.69032" lon="1.65039">
        <ele>1472.396484375</ele>
        <time>2012-06-09T16:25:40Z</time>
      </trkpt>
      <trkpt lat="42.69037" lon="1.6504">
        <ele>1473.3579101562</ele>
        <time>2012-06-09T16:25:44Z</time>
      </trkpt>
      <trkpt lat="42.6904" lon="1.65041">
        <ele>1472.8771972656</ele>
        <time>2012-06-09T16:25:47Z</time>
      </trkpt>
      <trkpt lat="42.69047" lon="1.65043">
        <ele>1473.3579101562</ele>
        <time>2012-06-09T16:25:53Z</time>
      </trkpt>
      <trkpt lat="42.6905" lon="1.65042">
        <ele>1474.7998046875</ele>
        <time>2012-06-09T16:25:56Z</time>
      </trkpt>
      <trkpt lat="42.69056" lon="1.65047">
        <ele>1471.4350585938</ele>
        <time>2012-06-09T16:26:02Z</time>
      </trkpt>
      <trkpt lat="42.69061" lon="1.65048">
        <ele>1469.9931640625</ele>
        <time>2012-06-09T16:26:07Z</time>
      </trkpt>
      <trkpt lat="42.69065" lon="1.65046">
        <ele>1468.5512695312</ele>
        <time>2012-06-09T16:26:14Z</time>
      </trkpt>
      <trkpt lat="42.69069" lon="1.65044">
        <ele>1466.6284179688</ele>
        <time>2012-06-09T16:26:18Z</time>
      </trkpt>
      <trkpt lat="42.69073" lon="1.65041">
        <ele>1468.5512695312</ele>
        <time>2012-06-09T16:26:24Z</time>
      </trkpt>
      <trkpt lat="42.69079" lon="1.6504">
        <ele>1469.9931640625</ele>
        <time>2012-06-09T16:26:31Z</time>
      </trkpt>
      <trkpt lat="42.69083" lon="1.65036">
        <ele>1470.4738769531</ele>
        <time>2012-06-09T16:26:36Z</time>
      </trkpt>
      <trkpt lat="42.69085" lon="1.65035">
        <ele>1470.9545898438</ele>
        <time>2012-06-09T16:26:38Z</time>
      </trkpt>
      <trkpt lat="42.69091" lon="1.65037">
        <ele>1464.2250976562</ele>
        <time>2012-06-09T16:26:44Z</time>
      </trkpt>
      <trkpt lat="42.69093" lon="1.65042">
        <ele>1460.8605957031</ele>
        <time>2012-06-09T16:26:50Z</time>
      </trkpt>
      <trkpt lat="42.69098" lon="1.65044">
        <ele>1459.4187011719</ele>
        <time>2012-06-09T16:26:55Z</time>
      </trkpt>
      <trkpt lat="42.69101" lon="1.65045">
        <ele>1458.9379882812</ele>
        <time>2012-06-09T16:26:59Z</time>
      </trkpt>
      <trkpt lat="42.69107" lon="1.65051">
        <ele>1457.49609375</ele>
        <time>2012-06-09T16:27:05Z</time>
      </trkpt>
      <trkpt lat="42.6911" lon="1.65053">
        <ele>1456.0539550781</ele>
        <time>2012-06-09T16:27:11Z</time>
      </trkpt>
      <trkpt lat="42.69114" lon="1.65054">
        <ele>1455.5734863281</ele>
        <time>2012-06-09T16:27:17Z</time>
      </trkpt>
      <trkpt lat="42.69116" lon="1.65055">
        <ele>1454.6120605469</ele>
        <time>2012-06-09T16:27:21Z</time>
      </trkpt>
      <trkpt lat="42.69119" lon="1.65057">
        <ele>1452.2087402344</ele>
        <time>2012-06-09T16:27:27Z</time>
      </trkpt>
      <trkpt lat="42.69127" lon="1.65063">
        <ele>1451.7280273438</ele>
        <time>2012-06-09T16:27:34Z</time>
      </trkpt>
      <trkpt lat="42.69128" lon="1.65065">
        <ele>1451.2473144531</ele>
        <time>2012-06-09T16:27:36Z</time>
      </trkpt>
      <trkpt lat="42.69134" lon="1.6507">
        <ele>1451.7280273438</ele>
        <time>2012-06-09T16:27:42Z</time>
      </trkpt>
      <trkpt lat="42.69135" lon="1.6507">
        <ele>1451.2473144531</ele>
        <time>2012-06-09T16:27:43Z</time>
      </trkpt>
      <trkpt lat="42.69138" lon="1.6507">
        <ele>1450.7666015625</ele>
        <time>2012-06-09T16:27:47Z</time>
      </trkpt>
      <trkpt lat="42.69143" lon="1.65068">
        <ele>1450.2861328125</ele>
        <time>2012-06-09T16:27:51Z</time>
      </trkpt>
      <trkpt lat="42.69144" lon="1.65068">
        <ele>1449.8054199219</ele>
        <time>2012-06-09T16:27:53Z</time>
      </trkpt>
      <trkpt lat="42.69149" lon="1.65069">
        <ele>1448.36328125</ele>
        <time>2012-06-09T16:27:58Z</time>
      </trkpt>
      <trkpt lat="42.69152" lon="1.65075">
        <ele>1447.4020996094</ele>
        <time>2012-06-09T16:28:04Z</time>
      </trkpt>
      <trkpt lat="42.69155" lon="1.65076">
        <ele>1447.4020996094</ele>
        <time>2012-06-09T16:28:09Z</time>
      </trkpt>
      <trkpt lat="42.69158" lon="1.65073">
        <ele>1446.4409179688</ele>
        <time>2012-06-09T16:28:14Z</time>
      </trkpt>
      <trkpt lat="42.69161" lon="1.65074">
        <ele>1445.4794921875</ele>
        <time>2012-06-09T16:28:18Z</time>
      </trkpt>
      <trkpt lat="42.69166" lon="1.65075">
        <ele>1445.4794921875</ele>
        <time>2012-06-09T16:28:23Z</time>
      </trkpt>
      <trkpt lat="42.69169" lon="1.65073">
        <ele>1447.8828125</ele>
        <time>2012-06-09T16:28:27Z</time>
      </trkpt>
      <trkpt lat="42.69174" lon="1.65075">
        <ele>1446.9213867188</ele>
        <time>2012-06-09T16:28:31Z</time>
      </trkpt>
      <trkpt lat="42.69178" lon="1.65076">
        <ele>1445.4794921875</ele>
        <time>2012-06-09T16:28:35Z</time>
      </trkpt>
      <trkpt lat="42.6918" lon="1.65077">
        <ele>1444.0375976562</ele>
        <time>2012-06-09T16:28:37Z</time>
      </trkpt>
      <trkpt lat="42.69187" lon="1.65084">
        <ele>1443.5568847656</ele>
        <time>2012-06-09T16:28:42Z</time>
      </trkpt>
      <trkpt lat="42.69189" lon="1.6509">
        <ele>1441.1535644531</ele>
        <time>2012-06-09T16:28:47Z</time>
      </trkpt>
      <trkpt lat="42.69191" lon="1.65091">
        <ele>1439.7116699219</ele>
        <time>2012-06-09T16:28:51Z</time>
      </trkpt>
      <trkpt lat="42.69196" lon="1.65094">
        <ele>1439.7116699219</ele>
        <time>2012-06-09T16:28:56Z</time>
      </trkpt>
      <trkpt lat="42.69201" lon="1.65097">
        <ele>1439.7116699219</ele>
        <time>2012-06-09T16:29:00Z</time>
      </trkpt>
      <trkpt lat="42.69204" lon="1.651">
        <ele>1441.1535644531</ele>
        <time>2012-06-09T16:29:05Z</time>
      </trkpt>
      <trkpt lat="42.69211" lon="1.65104">
        <ele>1439.7116699219</ele>
        <time>2012-06-09T16:29:12Z</time>
      </trkpt>
      <trkpt lat="42.69216" lon="1.65108">
        <ele>1437.7890625</ele>
        <time>2012-06-09T16:29:18Z</time>
      </trkpt>
      <trkpt lat="42.69219" lon="1.65112">
        <ele>1436.3471679688</ele>
        <time>2012-06-09T16:29:23Z</time>
      </trkpt>
      <trkpt lat="42.69224" lon="1.65113">
        <ele>1438.2697753906</ele>
        <time>2012-06-09T16:29:28Z</time>
      </trkpt>
      <trkpt lat="42.69227" lon="1.65114">
        <ele>1439.7116699219</ele>
        <time>2012-06-09T16:29:33Z</time>
      </trkpt>
      <trkpt lat="42.69232" lon="1.65113">
        <ele>1443.076171875</ele>
        <time>2012-06-09T16:29:40Z</time>
      </trkpt>
      <trkpt lat="42.69237" lon="1.65115">
        <ele>1442.1149902344</ele>
        <time>2012-06-09T16:29:44Z</time>
      </trkpt>
      <trkpt lat="42.6924" lon="1.65123">
        <ele>1441.1535644531</ele>
        <time>2012-06-09T16:29:48Z</time>
      </trkpt>
      <trkpt lat="42.69243" lon="1.65128">
        <ele>1441.1535644531</ele>
        <time>2012-06-09T16:29:53Z</time>
      </trkpt>
      <trkpt lat="42.69247" lon="1.65128">
        <ele>1440.6728515625</ele>
        <time>2012-06-09T16:29:57Z</time>
      </trkpt>
      <trkpt lat="42.69251" lon="1.65133">
        <ele>1436.8276367188</ele>
        <time>2012-06-09T16:30:03Z</time>
      </trkpt>
      <trkpt lat="42.69256" lon="1.65135">
        <ele>1436.3471679688</ele>
        <time>2012-06-09T16:30:10Z</time>
      </trkpt>
      <trkpt lat="42.69262" lon="1.65141">
        <ele>1431.5402832031</ele>
        <time>2012-06-09T16:30:17Z</time>
      </trkpt>
      <trkpt lat="42.69267" lon="1.65145">
        <ele>1428.17578125</ele>
        <time>2012-06-09T16:30:24Z</time>
      </trkpt>
      <trkpt lat="42.6927" lon="1.6514">
        <ele>1428.6564941406</ele>
        <time>2012-06-09T16:30:31Z</time>
      </trkpt>
      <trkpt lat="42.69276" lon="1.65141">
        <ele>1427.6950683594</ele>
        <time>2012-06-09T16:30:38Z</time>
      </trkpt>
      <trkpt lat="42.69279" lon="1.65146">
        <ele>1425.2917480469</ele>
        <time>2012-06-09T16:30:44Z</time>
      </trkpt>
      <trkpt lat="42.69281" lon="1.65151">
        <ele>1424.3305664062</ele>
        <time>2012-06-09T16:30:50Z</time>
      </trkpt>
      <trkpt lat="42.69283" lon="1.65155">
        <ele>1423.3693847656</ele>
        <time>2012-06-09T16:30:55Z</time>
      </trkpt>
      <trkpt lat="42.69286" lon="1.65158">
        <ele>1422.4079589844</ele>
        <time>2012-06-09T16:31:01Z</time>
      </trkpt>
      <trkpt lat="42.69288" lon="1.65159">
        <ele>1422.888671875</ele>
        <time>2012-06-09T16:31:08Z</time>
      </trkpt>
      <trkpt lat="42.69291" lon="1.6516">
        <ele>1422.888671875</ele>
        <time>2012-06-09T16:31:15Z</time>
      </trkpt>
      <trkpt lat="42.69296" lon="1.65163">
        <ele>1424.3305664062</ele>
        <time>2012-06-09T16:31:20Z</time>
      </trkpt>
      <trkpt lat="42.693" lon="1.65164">
        <ele>1425.2917480469</ele>
        <time>2012-06-09T16:31:26Z</time>
      </trkpt>
      <trkpt lat="42.69302" lon="1.65172">
        <ele>1423.3693847656</ele>
        <time>2012-06-09T16:31:32Z</time>
      </trkpt>
      <trkpt lat="42.693" lon="1.65177">
        <ele>1422.4079589844</ele>
        <time>2012-06-09T16:31:38Z</time>
      </trkpt>
      <trkpt lat="42.69302" lon="1.65179">
        <ele>1421.9272460938</ele>
        <time>2012-06-09T16:31:42Z</time>
      </trkpt>
      <trkpt lat="42.69309" lon="1.65184">
        <ele>1429.1369628906</ele>
        <time>2012-06-09T16:31:49Z</time>
      </trkpt>
      <trkpt lat="42.69315" lon="1.65189">
        <ele>1433.462890625</ele>
        <time>2012-06-09T16:31:55Z</time>
      </trkpt>
      <trkpt lat="42.69316" lon="1.65191">
        <ele>1434.4243164062</ele>
        <time>2012-06-09T16:31:56Z</time>
      </trkpt>
      <trkpt lat="42.69322" lon="1.65201">
        <ele>1438.2697753906</ele>
        <time>2012-06-09T16:32:02Z</time>
      </trkpt>
      <trkpt lat="42.69324" lon="1.65199">
        <ele>1438.2697753906</ele>
        <time>2012-06-09T16:32:07Z</time>
      </trkpt>
      <trkpt lat="42.69328" lon="1.65197">
        <ele>1434.9050292969</ele>
        <time>2012-06-09T16:32:12Z</time>
      </trkpt>
      <trkpt lat="42.6933" lon="1.65196">
        <ele>1436.3471679688</ele>
        <time>2012-06-09T16:32:16Z</time>
      </trkpt>
      <trkpt lat="42.69333" lon="1.65198">
        <ele>1434.9050292969</ele>
        <time>2012-06-09T16:32:20Z</time>
      </trkpt>
      <trkpt lat="42.69334" lon="1.65197">
        <ele>1434.9050292969</ele>
        <time>2012-06-09T16:32:25Z</time>
      </trkpt>
      <trkpt lat="42.69336" lon="1.65196">
        <ele>1433.9436035156</ele>
        <time>2012-06-09T16:32:30Z</time>
      </trkpt>
      <trkpt lat="42.69338" lon="1.65198">
        <ele>1432.5017089844</ele>
        <time>2012-06-09T16:32:34Z</time>
      </trkpt>
      <trkpt lat="42.69339" lon="1.65202">
        <ele>1429.1369628906</ele>
        <time>2012-06-09T16:32:38Z</time>
      </trkpt>
      <trkpt lat="42.69342" lon="1.65204">
        <ele>1425.7724609375</ele>
        <time>2012-06-09T16:32:45Z</time>
      </trkpt>
      <trkpt lat="42.69346" lon="1.65209">
        <ele>1422.888671875</ele>
        <time>2012-06-09T16:32:52Z</time>
      </trkpt>
      <trkpt lat="42.69347" lon="1.65208">
        <ele>1424.3305664062</ele>
        <time>2012-06-09T16:32:57Z</time>
      </trkpt>
      <trkpt lat="42.69351" lon="1.65208">
        <ele>1423.3693847656</ele>
        <time>2012-06-09T16:33:03Z</time>
      </trkpt>
      <trkpt lat="42.69354" lon="1.6521">
        <ele>1420.0046386719</ele>
        <time>2012-06-09T16:33:08Z</time>
      </trkpt>
      <trkpt lat="42.69357" lon="1.65208">
        <ele>1419.0432128906</ele>
        <time>2012-06-09T16:33:14Z</time>
      </trkpt>
      <trkpt lat="42.69365" lon="1.65211">
        <ele>1422.4079589844</ele>
        <time>2012-06-09T16:33:26Z</time>
      </trkpt>
      <trkpt lat="42.6937" lon="1.65213">
        <ele>1423.8498535156</ele>
        <time>2012-06-09T16:33:32Z</time>
      </trkpt>
      <trkpt lat="42.69372" lon="1.65214">
        <ele>1422.888671875</ele>
        <time>2012-06-09T16:33:36Z</time>
      </trkpt>
      <trkpt lat="42.69376" lon="1.65217">
        <ele>1422.4079589844</ele>
        <time>2012-06-09T16:33:41Z</time>
      </trkpt>
      <trkpt lat="42.69381" lon="1.65216">
        <ele>1423.3693847656</ele>
        <time>2012-06-09T16:33:48Z</time>
      </trkpt>
      <trkpt lat="42.69384" lon="1.65216">
        <ele>1422.888671875</ele>
        <time>2012-06-09T16:33:53Z</time>
      </trkpt>
      <trkpt lat="42.69387" lon="1.65218">
        <ele>1423.3693847656</ele>
        <time>2012-06-09T16:33:57Z</time>
      </trkpt>
      <trkpt lat="42.6939" lon="1.65221">
        <ele>1421.4465332031</ele>
        <time>2012-06-09T16:34:02Z</time>
      </trkpt>
      <trkpt lat="42.69392" lon="1.65223">
        <ele>1419.0432128906</ele>
        <time>2012-06-09T16:34:06Z</time>
      </trkpt>
      <trkpt lat="42.69397" lon="1.65227">
        <ele>1416.1591796875</ele>
        <time>2012-06-09T16:34:12Z</time>
      </trkpt>
      <trkpt lat="42.694" lon="1.65229">
        <ele>1415.6787109375</ele>
        <time>2012-06-09T16:34:17Z</time>
      </trkpt>
      <trkpt lat="42.69403" lon="1.65234">
        <ele>1412.3139648438</ele>
        <time>2012-06-09T16:34:24Z</time>
      </trkpt>
      <trkpt lat="42.69406" lon="1.65241">
        <ele>1407.98828125</ele>
        <time>2012-06-09T16:34:48Z</time>
      </trkpt>
      <trkpt lat="42.69408" lon="1.65244">
        <ele>1412.3139648438</ele>
        <time>2012-06-09T16:34:50Z</time>
      </trkpt>
      <trkpt lat="42.69411" lon="1.65247">
        <ele>1415.1979980469</ele>
        <time>2012-06-09T16:34:53Z</time>
      </trkpt>
      <trkpt lat="42.69411" lon="1.6525">
        <ele>1415.1979980469</ele>
        <time>2012-06-09T16:34:56Z</time>
      </trkpt>
      <trkpt lat="42.69413" lon="1.65253">
        <ele>1412.7946777344</ele>
        <time>2012-06-09T16:35:02Z</time>
      </trkpt>
      <trkpt lat="42.69415" lon="1.65254">
        <ele>1414.2365722656</ele>
        <time>2012-06-09T16:35:06Z</time>
      </trkpt>
      <trkpt lat="42.69422" lon="1.65258">
        <ele>1419.0432128906</ele>
        <time>2012-06-09T16:35:10Z</time>
      </trkpt>
      <trkpt lat="42.69426" lon="1.65265">
        <ele>1415.1979980469</ele>
        <time>2012-06-09T16:35:16Z</time>
      </trkpt>
      <trkpt lat="42.69427" lon="1.65268">
        <ele>1411.3527832031</ele>
        <time>2012-06-09T16:35:21Z</time>
      </trkpt>
      <trkpt lat="42.69431" lon="1.65276">
        <ele>1411.3527832031</ele>
        <time>2012-06-09T16:35:30Z</time>
      </trkpt>
      <trkpt lat="42.69433" lon="1.65281">
        <ele>1408.9494628906</ele>
        <time>2012-06-09T16:35:35Z</time>
      </trkpt>
      <trkpt lat="42.69436" lon="1.65285">
        <ele>1408.9494628906</ele>
        <time>2012-06-09T16:35:39Z</time>
      </trkpt>
      <trkpt lat="42.69437" lon="1.65286">
        <ele>1406.5461425781</ele>
        <time>2012-06-09T16:35:44Z</time>
      </trkpt>
      <trkpt lat="42.6944" lon="1.65288">
        <ele>1407.5075683594</ele>
        <time>2012-06-09T16:35:48Z</time>
      </trkpt>
      <trkpt lat="42.69442" lon="1.6529">
        <ele>1409.4301757812</ele>
        <time>2012-06-09T16:35:55Z</time>
      </trkpt>
      <trkpt lat="42.69444" lon="1.65292">
        <ele>1408.9494628906</ele>
        <time>2012-06-09T16:35:59Z</time>
      </trkpt>
      <trkpt lat="42.69445" lon="1.65293">
        <ele>1409.9106445312</ele>
        <time>2012-06-09T16:36:03Z</time>
      </trkpt>
      <trkpt lat="42.69447" lon="1.65294">
        <ele>1409.4301757812</ele>
        <time>2012-06-09T16:36:05Z</time>
      </trkpt>
      <trkpt lat="42.69453" lon="1.65295">
        <ele>1406.5461425781</ele>
        <time>2012-06-09T16:36:11Z</time>
      </trkpt>
      <trkpt lat="42.69456" lon="1.65296">
        <ele>1405.1042480469</ele>
        <time>2012-06-09T16:36:15Z</time>
      </trkpt>
      <trkpt lat="42.69461" lon="1.65297">
        <ele>1405.1042480469</ele>
        <time>2012-06-09T16:36:21Z</time>
      </trkpt>
      <trkpt lat="42.69465" lon="1.65296">
        <ele>1410.3913574219</ele>
        <time>2012-06-09T16:36:30Z</time>
      </trkpt>
      <trkpt lat="42.69468" lon="1.65301">
        <ele>1410.8720703125</ele>
        <time>2012-06-09T16:36:38Z</time>
      </trkpt>
      <trkpt lat="42.69471" lon="1.653">
        <ele>1410.8720703125</ele>
        <time>2012-06-09T16:36:42Z</time>
      </trkpt>
      <trkpt lat="42.69474" lon="1.65302">
        <ele>1407.98828125</ele>
        <time>2012-06-09T16:36:47Z</time>
      </trkpt>
      <trkpt lat="42.69476" lon="1.65311">
        <ele>1402.7006835938</ele>
        <time>2012-06-09T16:36:52Z</time>
      </trkpt>
      <trkpt lat="42.69481" lon="1.65316">
        <ele>1394.5295410156</ele>
        <time>2012-06-09T16:37:00Z</time>
      </trkpt>
      <trkpt lat="42.69486" lon="1.65319">
        <ele>1390.6843261719</ele>
        <time>2012-06-09T16:37:08Z</time>
      </trkpt>
      <trkpt lat="42.6949" lon="1.65321">
        <ele>1386.8388671875</ele>
        <time>2012-06-09T16:37:12Z</time>
      </trkpt>
      <trkpt lat="42.69492" lon="1.65324">
        <ele>1385.8776855469</ele>
        <time>2012-06-09T16:37:16Z</time>
      </trkpt>
      <trkpt lat="42.69496" lon="1.65327">
        <ele>1385.3969726562</ele>
        <time>2012-06-09T16:37:21Z</time>
      </trkpt>
      <trkpt lat="42.69499" lon="1.65329">
        <ele>1385.8776855469</ele>
        <time>2012-06-09T16:37:27Z</time>
      </trkpt>
      <trkpt lat="42.69504" lon="1.65332">
        <ele>1385.8776855469</ele>
        <time>2012-06-09T16:37:33Z</time>
      </trkpt>
      <trkpt lat="42.69511" lon="1.65339">
        <ele>1384.9165039062</ele>
        <time>2012-06-09T16:37:40Z</time>
      </trkpt>
      <trkpt lat="42.69515" lon="1.65342">
        <ele>1385.3969726562</ele>
        <time>2012-06-09T16:37:44Z</time>
      </trkpt>
      <trkpt lat="42.6952" lon="1.65351">
        <ele>1386.8388671875</ele>
        <time>2012-06-09T16:37:51Z</time>
      </trkpt>
      <trkpt lat="42.69523" lon="1.65354">
        <ele>1389.7231445312</ele>
        <time>2012-06-09T16:37:54Z</time>
      </trkpt>
      <trkpt lat="42.69524" lon="1.65362">
        <ele>1389.2424316406</ele>
        <time>2012-06-09T16:38:00Z</time>
      </trkpt>
      <trkpt lat="42.69524" lon="1.65364">
        <ele>1387.8002929688</ele>
        <time>2012-06-09T16:38:03Z</time>
      </trkpt>
      <trkpt lat="42.69528" lon="1.65364">
        <ele>1383.955078125</ele>
        <time>2012-06-09T16:38:10Z</time>
      </trkpt>
      <trkpt lat="42.69532" lon="1.65368">
        <ele>1381.0712890625</ele>
        <time>2012-06-09T16:38:16Z</time>
      </trkpt>
      <trkpt lat="42.69537" lon="1.65372">
        <ele>1381.0712890625</ele>
        <time>2012-06-09T16:38:23Z</time>
      </trkpt>
      <trkpt lat="42.69541" lon="1.65373">
        <ele>1379.1484375</ele>
        <time>2012-06-09T16:38:30Z</time>
      </trkpt>
      <trkpt lat="42.69545" lon="1.65372">
        <ele>1380.1098632812</ele>
        <time>2012-06-09T16:38:35Z</time>
      </trkpt>
      <trkpt lat="42.6955" lon="1.65376">
        <ele>1381.5517578125</ele>
        <time>2012-06-09T16:38:41Z</time>
      </trkpt>
      <trkpt lat="42.69555" lon="1.6538">
        <ele>1380.1098632812</ele>
        <time>2012-06-09T16:38:46Z</time>
      </trkpt>
      <trkpt lat="42.69556" lon="1.65381">
        <ele>1380.1098632812</ele>
        <time>2012-06-09T16:38:47Z</time>
      </trkpt>
      <trkpt lat="42.69558" lon="1.65385">
        <ele>1378.1872558594</ele>
        <time>2012-06-09T16:38:50Z</time>
      </trkpt>
      <trkpt lat="42.69559" lon="1.65389">
        <ele>1378.1872558594</ele>
        <time>2012-06-09T16:38:53Z</time>
      </trkpt>
      <trkpt lat="42.69566" lon="1.65395">
        <ele>1380.1098632812</ele>
        <time>2012-06-09T16:38:59Z</time>
      </trkpt>
      <trkpt lat="42.6957" lon="1.65398">
        <ele>1380.1098632812</ele>
        <time>2012-06-09T16:39:04Z</time>
      </trkpt>
      <trkpt lat="42.69573" lon="1.65401">
        <ele>1380.5905761719</ele>
        <time>2012-06-09T16:39:08Z</time>
      </trkpt>
      <trkpt lat="42.69573" lon="1.65408">
        <ele>1380.5905761719</ele>
        <time>2012-06-09T16:39:20Z</time>
      </trkpt>
      <trkpt lat="42.69573" lon="1.65409">
        <ele>1380.1098632812</ele>
        <time>2012-06-09T16:39:22Z</time>
      </trkpt>
      <trkpt lat="42.69578" lon="1.65413">
        <ele>1384.9165039062</ele>
        <time>2012-06-09T16:39:28Z</time>
      </trkpt>
      <trkpt lat="42.69583" lon="1.65415">
        <ele>1391.1650390625</ele>
        <time>2012-06-09T16:39:32Z</time>
      </trkpt>
      <trkpt lat="42.69586" lon="1.65417">
        <ele>1395.9716796875</ele>
        <time>2012-06-09T16:39:37Z</time>
      </trkpt>
      <trkpt lat="42.6959" lon="1.65418">
        <ele>1403.662109375</ele>
        <time>2012-06-09T16:39:42Z</time>
      </trkpt>
      <trkpt lat="42.69593" lon="1.65419">
        <ele>1407.5075683594</ele>
        <time>2012-06-09T16:39:44Z</time>
      </trkpt>
      <trkpt lat="42.69595" lon="1.65415">
        <ele>1420.0046386719</ele>
        <time>2012-06-09T16:39:50Z</time>
      </trkpt>
      <trkpt lat="42.69598" lon="1.65407">
        <ele>1427.2145996094</ele>
        <time>2012-06-09T16:39:58Z</time>
      </trkpt>
      <trkpt lat="42.69603" lon="1.65406">
        <ele>1431.5402832031</ele>
        <time>2012-06-09T16:40:03Z</time>
      </trkpt>
      <trkpt lat="42.69604" lon="1.65406">
        <ele>1431.5402832031</ele>
        <time>2012-06-09T16:40:04Z</time>
      </trkpt>
      <trkpt lat="42.69609" lon="1.65413">
        <ele>1427.2145996094</ele>
        <time>2012-06-09T16:40:10Z</time>
      </trkpt>
      <trkpt lat="42.69613" lon="1.6542">
        <ele>1422.4079589844</ele>
        <time>2012-06-09T16:40:16Z</time>
      </trkpt>
      <trkpt lat="42.69615" lon="1.65422">
        <ele>1423.3693847656</ele>
        <time>2012-06-09T16:40:21Z</time>
      </trkpt>
      <trkpt lat="42.69619" lon="1.65422">
        <ele>1426.2531738281</ele>
        <time>2012-06-09T16:40:25Z</time>
      </trkpt>
      <trkpt lat="42.69623" lon="1.65423">
        <ele>1428.6564941406</ele>
        <time>2012-06-09T16:40:30Z</time>
      </trkpt>
      <trkpt lat="42.69624" lon="1.6542">
        <ele>1425.2917480469</ele>
        <time>2012-06-09T16:40:36Z</time>
      </trkpt>
      <trkpt lat="42.69627" lon="1.6542">
        <ele>1428.17578125</ele>
        <time>2012-06-09T16:40:41Z</time>
      </trkpt>
      <trkpt lat="42.69634" lon="1.6542">
        <ele>1431.5402832031</ele>
        <time>2012-06-09T16:40:47Z</time>
      </trkpt>
      <trkpt lat="42.69636" lon="1.65419">
        <ele>1435.3854980469</ele>
        <time>2012-06-09T16:40:51Z</time>
      </trkpt>
      <trkpt lat="42.69641" lon="1.6542">
        <ele>1440.6728515625</ele>
        <time>2012-06-09T16:40:57Z</time>
      </trkpt>
      <trkpt lat="42.69648" lon="1.65424">
        <ele>1443.5568847656</ele>
        <time>2012-06-09T16:41:03Z</time>
      </trkpt>
      <trkpt lat="42.69651" lon="1.65419">
        <ele>1451.2473144531</ele>
        <time>2012-06-09T16:41:09Z</time>
      </trkpt>
      <trkpt lat="42.69655" lon="1.6542">
        <ele>1460.3798828125</ele>
        <time>2012-06-09T16:41:15Z</time>
      </trkpt>
      <trkpt lat="42.69661" lon="1.65424">
        <ele>1458.4572753906</ele>
        <time>2012-06-09T16:41:21Z</time>
      </trkpt>
      <trkpt lat="42.69668" lon="1.65428">
        <ele>1451.7280273438</ele>
        <time>2012-06-09T16:41:28Z</time>
      </trkpt>
      <trkpt lat="42.69671" lon="1.65431">
        <ele>1447.4020996094</ele>
        <time>2012-06-09T16:41:33Z</time>
      </trkpt>
      <trkpt lat="42.69675" lon="1.65435">
        <ele>1444.5180664062</ele>
        <time>2012-06-09T16:41:37Z</time>
      </trkpt>
      <trkpt lat="42.69681" lon="1.65439">
        <ele>1439.2309570312</ele>
        <time>2012-06-09T16:41:42Z</time>
      </trkpt>
      <trkpt lat="42.69687" lon="1.65446">
        <ele>1431.0598144531</ele>
        <time>2012-06-09T16:41:48Z</time>
      </trkpt>
      <trkpt lat="42.69693" lon="1.65452">
        <ele>1423.3693847656</ele>
        <time>2012-06-09T16:41:53Z</time>
      </trkpt>
      <trkpt lat="42.69701" lon="1.65461">
        <ele>1415.1979980469</ele>
        <time>2012-06-09T16:42:00Z</time>
      </trkpt>
      <trkpt lat="42.69705" lon="1.65465">
        <ele>1408.46875</ele>
        <time>2012-06-09T16:42:05Z</time>
      </trkpt>
      <trkpt lat="42.69709" lon="1.65469">
        <ele>1404.6235351562</ele>
        <time>2012-06-09T16:42:09Z</time>
      </trkpt>
      <trkpt lat="42.69712" lon="1.65466">
        <ele>1407.98828125</ele>
        <time>2012-06-09T16:42:14Z</time>
      </trkpt>
      <trkpt lat="42.69717" lon="1.65467">
        <ele>1408.46875</ele>
        <time>2012-06-09T16:42:20Z</time>
      </trkpt>
      <trkpt lat="42.69722" lon="1.65469">
        <ele>1405.5849609375</ele>
        <time>2012-06-09T16:42:26Z</time>
      </trkpt>
      <trkpt lat="42.69726" lon="1.65478">
        <ele>1398.85546875</ele>
        <time>2012-06-09T16:42:32Z</time>
      </trkpt>
      <trkpt lat="42.6973" lon="1.65481">
        <ele>1394.5295410156</ele>
        <time>2012-06-09T16:42:36Z</time>
      </trkpt>
      <trkpt lat="42.69737" lon="1.65487">
        <ele>1385.3969726562</ele>
        <time>2012-06-09T16:42:41Z</time>
      </trkpt>
      <trkpt lat="42.69744" lon="1.65499">
        <ele>1372.4194335938</ele>
        <time>2012-06-09T16:42:48Z</time>
      </trkpt>
      <trkpt lat="42.69744" lon="1.655">
        <ele>1371.9384765625</ele>
        <time>2012-06-09T16:42:49Z</time>
      </trkpt>
      <trkpt lat="42.69747" lon="1.65501">
        <ele>1370.0158691406</ele>
        <time>2012-06-09T16:42:51Z</time>
      </trkpt>
      <trkpt lat="42.69751" lon="1.65505">
        <ele>1360.4028320312</ele>
        <time>2012-06-09T16:42:57Z</time>
      </trkpt>
      <trkpt lat="42.69749" lon="1.65503">
        <ele>1353.6735839844</ele>
        <time>2012-06-09T16:43:02Z</time>
      </trkpt>
      <trkpt lat="42.69748" lon="1.655">
        <ele>1348.3862304688</ele>
        <time>2012-06-09T16:43:07Z</time>
      </trkpt>
      <trkpt lat="42.69744" lon="1.65493">
        <ele>1344.060546875</ele>
        <time>2012-06-09T16:43:13Z</time>
      </trkpt>
      <trkpt lat="42.69746" lon="1.65488">
        <ele>1344.541015625</ele>
        <time>2012-06-09T16:43:16Z</time>
      </trkpt>
      <trkpt lat="42.69748" lon="1.65484">
        <ele>1344.060546875</ele>
        <time>2012-06-09T16:43:23Z</time>
      </trkpt>
      <trkpt lat="42.69749" lon="1.65483">
        <ele>1346.9443359375</ele>
        <time>2012-06-09T16:43:28Z</time>
      </trkpt>
      <trkpt lat="42.69756" lon="1.65489">
        <ele>1354.154296875</ele>
        <time>2012-06-09T16:43:35Z</time>
      </trkpt>
      <trkpt lat="42.69759" lon="1.65494">
        <ele>1360.8835449219</ele>
        <time>2012-06-09T16:43:40Z</time>
      </trkpt>
      <trkpt lat="42.69759" lon="1.65504">
        <ele>1370.4965820312</ele>
        <time>2012-06-09T16:43:45Z</time>
      </trkpt>
      <trkpt lat="42.69761" lon="1.65504">
        <ele>1373.380859375</ele>
        <time>2012-06-09T16:43:46Z</time>
      </trkpt>
      <trkpt lat="42.6977" lon="1.65505">
        <ele>1375.7839355469</ele>
        <time>2012-06-09T16:43:52Z</time>
      </trkpt>
      <trkpt lat="42.69772" lon="1.65505">
        <ele>1376.2646484375</ele>
        <time>2012-06-09T16:43:54Z</time>
      </trkpt>
      <trkpt lat="42.69784" lon="1.65497">
        <ele>1377.2260742188</ele>
        <time>2012-06-09T16:44:02Z</time>
      </trkpt>
      <trkpt lat="42.6979" lon="1.65496">
        <ele>1377.2260742188</ele>
        <time>2012-06-09T16:44:08Z</time>
      </trkpt>
      <trkpt lat="42.69808" lon="1.655">
        <ele>1371.9384765625</ele>
        <time>2012-06-09T16:44:52Z</time>
      </trkpt>
      <trkpt lat="42.69815" lon="1.65519">
        <ele>1393.0876464844</ele>
        <time>2012-06-09T16:45:28Z</time>
      </trkpt>
      <trkpt lat="42.69814" lon="1.65528">
        <ele>1404.1430664062</ele>
        <time>2012-06-09T16:45:33Z</time>
      </trkpt>
      <trkpt lat="42.69814" lon="1.65536">
        <ele>1410.8720703125</ele>
        <time>2012-06-09T16:45:37Z</time>
      </trkpt>
      <trkpt lat="42.69816" lon="1.65539">
        <ele>1412.7946777344</ele>
        <time>2012-06-09T16:45:41Z</time>
      </trkpt>
      <trkpt lat="42.69816" lon="1.65547">
        <ele>1416.6398925781</ele>
        <time>2012-06-09T16:45:47Z</time>
      </trkpt>
      <trkpt lat="42.69819" lon="1.65545">
        <ele>1414.7172851562</ele>
        <time>2012-06-09T16:45:52Z</time>
      </trkpt>
      <trkpt lat="42.69822" lon="1.65543">
        <ele>1408.46875</ele>
        <time>2012-06-09T16:45:58Z</time>
      </trkpt>
      <trkpt lat="42.69835" lon="1.6554">
        <ele>1402.2199707031</ele>
        <time>2012-06-09T16:46:05Z</time>
      </trkpt>
      <trkpt lat="42.69843" lon="1.65537">
        <ele>1397.4135742188</ele>
        <time>2012-06-09T16:46:12Z</time>
      </trkpt>
      <trkpt lat="42.69844" lon="1.6554">
        <ele>1395.4909667969</ele>
        <time>2012-06-09T16:46:16Z</time>
      </trkpt>
      <trkpt lat="42.69845" lon="1.65542">
        <ele>1392.1264648438</ele>
        <time>2012-06-09T16:46:20Z</time>
      </trkpt>
      <trkpt lat="42.69847" lon="1.65541">
        <ele>1390.6843261719</ele>
        <time>2012-06-09T16:46:24Z</time>
      </trkpt>
      <trkpt lat="42.69845" lon="1.65544">
        <ele>1392.6071777344</ele>
        <time>2012-06-09T16:46:30Z</time>
      </trkpt>
      <trkpt lat="42.69843" lon="1.65548">
        <ele>1390.6843261719</ele>
        <time>2012-06-09T16:46:37Z</time>
      </trkpt>
      <trkpt lat="42.69846" lon="1.65547">
        <ele>1390.6843261719</ele>
        <time>2012-06-09T16:46:41Z</time>
      </trkpt>
      <trkpt lat="42.69851" lon="1.65546">
        <ele>1391.6457519531</ele>
        <time>2012-06-09T16:46:47Z</time>
      </trkpt>
      <trkpt lat="42.69857" lon="1.65543">
        <ele>1395.9716796875</ele>
        <time>2012-06-09T16:46:53Z</time>
      </trkpt>
      <trkpt lat="42.69861" lon="1.65546">
        <ele>1401.7395019531</ele>
        <time>2012-06-09T16:47:04Z</time>
      </trkpt>
      <trkpt lat="42.69864" lon="1.65545">
        <ele>1403.1813964844</ele>
        <time>2012-06-09T16:47:09Z</time>
      </trkpt>
      <trkpt lat="42.69864" lon="1.6554">
        <ele>1401.2587890625</ele>
        <time>2012-06-09T16:47:23Z</time>
      </trkpt>
      <trkpt lat="42.69858" lon="1.65542">
        <ele>1406.5461425781</ele>
        <time>2012-06-09T16:47:34Z</time>
      </trkpt>
      <trkpt lat="42.69859" lon="1.65548">
        <ele>1403.662109375</ele>
        <time>2012-06-09T16:47:38Z</time>
      </trkpt>
      <trkpt lat="42.69862" lon="1.65548">
        <ele>1403.662109375</ele>
        <time>2012-06-09T16:47:40Z</time>
      </trkpt>
      <trkpt lat="42.69864" lon="1.65554">
        <ele>1399.8168945312</ele>
        <time>2012-06-09T16:47:48Z</time>
      </trkpt>
      <trkpt lat="42.6987" lon="1.65555">
        <ele>1398.3747558594</ele>
        <time>2012-06-09T16:47:58Z</time>
      </trkpt>
      <trkpt lat="42.69872" lon="1.65558">
        <ele>1400.2976074219</ele>
        <time>2012-06-09T16:48:02Z</time>
      </trkpt>
      <trkpt lat="42.69878" lon="1.65557">
        <ele>1401.2587890625</ele>
        <time>2012-06-09T16:48:07Z</time>
      </trkpt>
      <trkpt lat="42.69883" lon="1.65556">
        <ele>1403.1813964844</ele>
        <time>2012-06-09T16:48:15Z</time>
      </trkpt>
      <trkpt lat="42.69886" lon="1.65556">
        <ele>1405.5849609375</ele>
        <time>2012-06-09T16:48:21Z</time>
      </trkpt>
      <trkpt lat="42.6989" lon="1.65558">
        <ele>1407.0268554688</ele>
        <time>2012-06-09T16:48:27Z</time>
      </trkpt>
      <trkpt lat="42.69894" lon="1.6556">
        <ele>1407.98828125</ele>
        <time>2012-06-09T16:48:31Z</time>
      </trkpt>
      <trkpt lat="42.69897" lon="1.65562">
        <ele>1406.5461425781</ele>
        <time>2012-06-09T16:48:35Z</time>
      </trkpt>
      <trkpt lat="42.69903" lon="1.65566">
        <ele>1402.7006835938</ele>
        <time>2012-06-09T16:48:41Z</time>
      </trkpt>
      <trkpt lat="42.69911" lon="1.65571">
        <ele>1401.2587890625</ele>
        <time>2012-06-09T16:48:48Z</time>
      </trkpt>
      <trkpt lat="42.69916" lon="1.65573">
        <ele>1400.2976074219</ele>
        <time>2012-06-09T16:48:53Z</time>
      </trkpt>
      <trkpt lat="42.69923" lon="1.65576">
        <ele>1402.2199707031</ele>
        <time>2012-06-09T16:49:00Z</time>
      </trkpt>
      <trkpt lat="42.69927" lon="1.65579">
        <ele>1402.2199707031</ele>
        <time>2012-06-09T16:49:09Z</time>
      </trkpt>
      <trkpt lat="42.69937" lon="1.65582">
        <ele>1406.0654296875</ele>
        <time>2012-06-09T16:49:16Z</time>
      </trkpt>
      <trkpt lat="42.69941" lon="1.65588">
        <ele>1403.662109375</ele>
        <time>2012-06-09T16:49:20Z</time>
      </trkpt>
      <trkpt lat="42.69942" lon="1.65591">
        <ele>1400.7780761719</ele>
        <time>2012-06-09T16:49:23Z</time>
      </trkpt>
      <trkpt lat="42.69947" lon="1.65592">
        <ele>1398.85546875</ele>
        <time>2012-06-09T16:49:27Z</time>
      </trkpt>
      <trkpt lat="42.69955" lon="1.65597">
        <ele>1400.2976074219</ele>
        <time>2012-06-09T16:49:34Z</time>
      </trkpt>
      <trkpt lat="42.69959" lon="1.65599">
        <ele>1398.85546875</ele>
        <time>2012-06-09T16:49:39Z</time>
      </trkpt>
      <trkpt lat="42.69963" lon="1.65605">
        <ele>1400.2976074219</ele>
        <time>2012-06-09T16:49:43Z</time>
      </trkpt>
      <trkpt lat="42.69971" lon="1.6561">
        <ele>1400.2976074219</ele>
        <time>2012-06-09T16:49:48Z</time>
      </trkpt>
      <trkpt lat="42.69981" lon="1.65613">
        <ele>1401.2587890625</ele>
        <time>2012-06-09T16:49:53Z</time>
      </trkpt>
      <trkpt lat="42.69988" lon="1.65616">
        <ele>1402.7006835938</ele>
        <time>2012-06-09T16:49:59Z</time>
      </trkpt>
      <trkpt lat="42.69989" lon="1.65619">
        <ele>1402.7006835938</ele>
        <time>2012-06-09T16:50:01Z</time>
      </trkpt>
      <trkpt lat="42.69997" lon="1.65626">
        <ele>1401.7395019531</ele>
        <time>2012-06-09T16:50:07Z</time>
      </trkpt>
      <trkpt lat="42.70001" lon="1.6563">
        <ele>1401.7395019531</ele>
        <time>2012-06-09T16:50:12Z</time>
      </trkpt>
      <trkpt lat="42.70003" lon="1.65636">
        <ele>1402.2199707031</ele>
        <time>2012-06-09T16:50:16Z</time>
      </trkpt>
      <trkpt lat="42.70013" lon="1.65638">
        <ele>1405.5849609375</ele>
        <time>2012-06-09T16:50:23Z</time>
      </trkpt>
      <trkpt lat="42.70022" lon="1.65637">
        <ele>1406.0654296875</ele>
        <time>2012-06-09T16:50:34Z</time>
      </trkpt>
      <trkpt lat="42.70027" lon="1.65639">
        <ele>1400.7780761719</ele>
        <time>2012-06-09T16:50:40Z</time>
      </trkpt>
      <trkpt lat="42.70026" lon="1.65635">
        <ele>1393.0876464844</ele>
        <time>2012-06-09T16:50:45Z</time>
      </trkpt>
      <trkpt lat="42.70026" lon="1.65633">
        <ele>1381.5517578125</ele>
        <time>2012-06-09T16:50:55Z</time>
      </trkpt>
      <trkpt lat="42.70032" lon="1.65638">
        <ele>1379.1484375</ele>
        <time>2012-06-09T16:51:01Z</time>
      </trkpt>
      <trkpt lat="42.70034" lon="1.65641">
        <ele>1376.2646484375</ele>
        <time>2012-06-09T16:51:05Z</time>
      </trkpt>
      <trkpt lat="42.70042" lon="1.65646">
        <ele>1369.0546875</ele>
        <time>2012-06-09T16:51:15Z</time>
      </trkpt>
      <trkpt lat="42.70044" lon="1.65652">
        <ele>1364.248046875</ele>
        <time>2012-06-09T16:51:20Z</time>
      </trkpt>
      <trkpt lat="42.7005" lon="1.65655">
        <ele>1362.3254394531</ele>
        <time>2012-06-09T16:51:24Z</time>
      </trkpt>
      <trkpt lat="42.70052" lon="1.65658">
        <ele>1361.3642578125</ele>
        <time>2012-06-09T16:51:28Z</time>
      </trkpt>
      <trkpt lat="42.70058" lon="1.65659">
        <ele>1362.8061523438</ele>
        <time>2012-06-09T16:51:32Z</time>
      </trkpt>
      <trkpt lat="42.70061" lon="1.65659">
        <ele>1364.248046875</ele>
        <time>2012-06-09T16:51:34Z</time>
      </trkpt>
      <trkpt lat="42.70066" lon="1.65668">
        <ele>1365.2094726562</ele>
        <time>2012-06-09T16:51:41Z</time>
      </trkpt>
      <trkpt lat="42.70068" lon="1.6567">
        <ele>1365.2094726562</ele>
        <time>2012-06-09T16:51:43Z</time>
      </trkpt>
      <trkpt lat="42.70071" lon="1.65677">
        <ele>1361.8449707031</ele>
        <time>2012-06-09T16:51:49Z</time>
      </trkpt>
      <trkpt lat="42.70077" lon="1.65681">
        <ele>1362.8061523438</ele>
        <time>2012-06-09T16:51:52Z</time>
      </trkpt>
      <trkpt lat="42.70087" lon="1.65694">
        <ele>1361.8449707031</ele>
        <time>2012-06-09T16:51:58Z</time>
      </trkpt>
      <trkpt lat="42.70096" lon="1.65702">
        <ele>1366.1706542969</ele>
        <time>2012-06-09T16:52:03Z</time>
      </trkpt>
      <trkpt lat="42.70101" lon="1.65709">
        <ele>1363.2868652344</ele>
        <time>2012-06-09T16:52:10Z</time>
      </trkpt>
      <trkpt lat="42.70105" lon="1.65712">
        <ele>1366.1706542969</ele>
        <time>2012-06-09T16:52:13Z</time>
      </trkpt>
      <trkpt lat="42.70105" lon="1.65716">
        <ele>1365.2094726562</ele>
        <time>2012-06-09T16:52:16Z</time>
      </trkpt>
      <trkpt lat="42.70109" lon="1.65727">
        <ele>1361.3642578125</ele>
        <time>2012-06-09T16:52:22Z</time>
      </trkpt>
      <trkpt lat="42.70111" lon="1.65728">
        <ele>1357.5190429688</ele>
        <time>2012-06-09T16:52:26Z</time>
      </trkpt>
      <trkpt lat="42.70112" lon="1.65731">
        <ele>1355.1154785156</ele>
        <time>2012-06-09T16:52:30Z</time>
      </trkpt>
      <trkpt lat="42.70113" lon="1.65736">
        <ele>1351.2702636719</ele>
        <time>2012-06-09T16:52:36Z</time>
      </trkpt>
      <trkpt lat="42.70118" lon="1.65734">
        <ele>1350.7895507812</ele>
        <time>2012-06-09T16:52:41Z</time>
      </trkpt>
      <trkpt lat="42.70124" lon="1.65735">
        <ele>1351.7509765625</ele>
        <time>2012-06-09T16:52:46Z</time>
      </trkpt>
      <trkpt lat="42.70127" lon="1.6574">
        <ele>1352.2314453125</ele>
        <time>2012-06-09T16:52:52Z</time>
      </trkpt>
      <trkpt lat="42.70129" lon="1.65747">
        <ele>1349.34765625</ele>
        <time>2012-06-09T16:53:11Z</time>
      </trkpt>
      <trkpt lat="42.70139" lon="1.6576">
        <ele>1354.634765625</ele>
        <time>2012-06-09T16:53:18Z</time>
      </trkpt>
      <trkpt lat="42.70144" lon="1.65767">
        <ele>1352.7121582031</ele>
        <time>2012-06-09T16:53:24Z</time>
      </trkpt>
      <trkpt lat="42.70144" lon="1.65776">
        <ele>1350.3090820312</ele>
        <time>2012-06-09T16:53:31Z</time>
      </trkpt>
      <trkpt lat="42.70142" lon="1.65787">
        <ele>1350.7895507812</ele>
        <time>2012-06-09T16:53:38Z</time>
      </trkpt>
      <trkpt lat="42.70144" lon="1.65801">
        <ele>1351.2702636719</ele>
        <time>2012-06-09T16:53:47Z</time>
      </trkpt>
      <trkpt lat="42.70146" lon="1.65806">
        <ele>1348.8669433594</ele>
        <time>2012-06-09T16:53:53Z</time>
      </trkpt>
      <trkpt lat="42.70147" lon="1.65811">
        <ele>1349.8283691406</ele>
        <time>2012-06-09T16:53:57Z</time>
      </trkpt>
      <trkpt lat="42.70147" lon="1.65815">
        <ele>1349.8283691406</ele>
        <time>2012-06-09T16:54:02Z</time>
      </trkpt>
      <trkpt lat="42.7015" lon="1.65819">
        <ele>1348.8669433594</ele>
        <time>2012-06-09T16:54:07Z</time>
      </trkpt>
      <trkpt lat="42.70154" lon="1.65823">
        <ele>1347.9057617188</ele>
        <time>2012-06-09T16:54:11Z</time>
      </trkpt>
      <trkpt lat="42.70155" lon="1.65825">
        <ele>1347.4250488281</ele>
        <time>2012-06-09T16:54:12Z</time>
      </trkpt>
      <trkpt lat="42.70156" lon="1.65826">
        <ele>1346.4638671875</ele>
        <time>2012-06-09T16:54:14Z</time>
      </trkpt>
      <trkpt lat="42.70154" lon="1.65832">
        <ele>1342.1379394531</ele>
        <time>2012-06-09T16:54:18Z</time>
      </trkpt>
      <trkpt lat="42.70148" lon="1.65831">
        <ele>1335.8891601562</ele>
        <time>2012-06-09T16:54:24Z</time>
      </trkpt>
      <trkpt lat="42.70148" lon="1.65836">
        <ele>1334.447265625</ele>
        <time>2012-06-09T16:54:28Z</time>
      </trkpt>
      <trkpt lat="42.70153" lon="1.65845">
        <ele>1333.9665527344</ele>
        <time>2012-06-09T16:54:34Z</time>
      </trkpt>
      <trkpt lat="42.70155" lon="1.65844">
        <ele>1330.6020507812</ele>
        <time>2012-06-09T16:54:55Z</time>
      </trkpt>
      <trkpt lat="42.70158" lon="1.65853">
        <ele>1333.0051269531</ele>
        <time>2012-06-09T16:54:59Z</time>
      </trkpt>
      <trkpt lat="42.70155" lon="1.65869">
        <ele>1334.9279785156</ele>
        <time>2012-06-09T16:55:07Z</time>
      </trkpt>
      <trkpt lat="42.70156" lon="1.65871">
        <ele>1333.0051269531</ele>
        <time>2012-06-09T16:55:11Z</time>
      </trkpt>
      <trkpt lat="42.70157" lon="1.65876">
        <ele>1325.3146972656</ele>
        <time>2012-06-09T16:55:20Z</time>
      </trkpt>
      <trkpt lat="42.70154" lon="1.65875">
        <ele>1324.8342285156</ele>
        <time>2012-06-09T16:55:24Z</time>
      </trkpt>
      <trkpt lat="42.70145" lon="1.65874">
        <ele>1315.7016601562</ele>
        <time>2012-06-09T16:55:44Z</time>
      </trkpt>
      <trkpt lat="42.70144" lon="1.65879">
        <ele>1310.8950195312</ele>
        <time>2012-06-09T16:55:50Z</time>
      </trkpt>
      <trkpt lat="42.70142" lon="1.65883">
        <ele>1303.6850585938</ele>
        <time>2012-06-09T16:55:56Z</time>
      </trkpt>
      <trkpt lat="42.70145" lon="1.65892">
        <ele>1301.7624511719</ele>
        <time>2012-06-09T16:56:03Z</time>
      </trkpt>
      <trkpt lat="42.70144" lon="1.65897">
        <ele>1300.3205566406</ele>
        <time>2012-06-09T16:56:07Z</time>
      </trkpt>
      <trkpt lat="42.70142" lon="1.65905">
        <ele>1299.3591308594</ele>
        <time>2012-06-09T16:56:12Z</time>
      </trkpt>
      <trkpt lat="42.70143" lon="1.6591">
        <ele>1296.9558105469</ele>
        <time>2012-06-09T16:56:16Z</time>
      </trkpt>
      <trkpt lat="42.70144" lon="1.65922">
        <ele>1292.1494140625</ele>
        <time>2012-06-09T16:56:25Z</time>
      </trkpt>
      <trkpt lat="42.70147" lon="1.65934">
        <ele>1293.1105957031</ele>
        <time>2012-06-09T16:56:31Z</time>
      </trkpt>
      <trkpt lat="42.7015" lon="1.65941">
        <ele>1288.3039550781</ele>
        <time>2012-06-09T16:56:37Z</time>
      </trkpt>
      <trkpt lat="42.70156" lon="1.65957">
        <ele>1283.0166015625</ele>
        <time>2012-06-09T16:56:52Z</time>
      </trkpt>
      <trkpt lat="42.70158" lon="1.65966">
        <ele>1284.939453125</ele>
        <time>2012-06-09T16:56:58Z</time>
      </trkpt>
      <trkpt lat="42.7016" lon="1.65977">
        <ele>1290.2265625</ele>
        <time>2012-06-09T16:57:03Z</time>
      </trkpt>
      <trkpt lat="42.70152" lon="1.65981">
        <ele>1293.5913085938</ele>
        <time>2012-06-09T16:57:16Z</time>
      </trkpt>
      <trkpt lat="42.70144" lon="1.65977">
        <ele>1292.6301269531</ele>
        <time>2012-06-09T16:57:23Z</time>
      </trkpt>
      <trkpt lat="42.70139" lon="1.65971">
        <ele>1290.70703125</ele>
        <time>2012-06-09T16:57:27Z</time>
      </trkpt>
      <trkpt lat="42.70136" lon="1.65968">
        <ele>1285.419921875</ele>
        <time>2012-06-09T16:57:32Z</time>
      </trkpt>
      <trkpt lat="42.70135" lon="1.65963">
        <ele>1280.6135253906</ele>
        <time>2012-06-09T16:57:38Z</time>
      </trkpt>
      <trkpt lat="42.70126" lon="1.65967">
        <ele>1269.5583496094</ele>
        <time>2012-06-09T16:57:57Z</time>
      </trkpt>
      <trkpt lat="42.70122" lon="1.65968">
        <ele>1267.1550292969</ele>
        <time>2012-06-09T16:58:04Z</time>
      </trkpt>
      <trkpt lat="42.70118" lon="1.65971">
        <ele>1264.7517089844</ele>
        <time>2012-06-09T16:58:14Z</time>
      </trkpt>
      <trkpt lat="42.70119" lon="1.65977">
        <ele>1260.42578125</ele>
        <time>2012-06-09T16:58:27Z</time>
      </trkpt>
      <trkpt lat="42.70121" lon="1.65981">
        <ele>1259.9448242188</ele>
        <time>2012-06-09T16:58:33Z</time>
      </trkpt>
      <trkpt lat="42.7012" lon="1.65983">
        <ele>1258.0224609375</ele>
        <time>2012-06-09T16:58:37Z</time>
      </trkpt>
      <trkpt lat="42.70126" lon="1.6599">
        <ele>1256.5803222656</ele>
        <time>2012-06-09T16:58:46Z</time>
      </trkpt>
      <trkpt lat="42.70132" lon="1.65995">
        <ele>1264.2709960938</ele>
        <time>2012-06-09T16:58:54Z</time>
      </trkpt>
      <trkpt lat="42.70137" lon="1.65996">
        <ele>1267.1550292969</ele>
        <time>2012-06-09T16:59:00Z</time>
      </trkpt>
      <trkpt lat="42.70142" lon="1.66002">
        <ele>1265.232421875</ele>
        <time>2012-06-09T16:59:14Z</time>
      </trkpt>
      <trkpt lat="42.70143" lon="1.66005">
        <ele>1264.7517089844</ele>
        <time>2012-06-09T16:59:18Z</time>
      </trkpt>
      <trkpt lat="42.70147" lon="1.66013">
        <ele>1260.9064941406</ele>
        <time>2012-06-09T16:59:25Z</time>
      </trkpt>
      <trkpt lat="42.70148" lon="1.66019">
        <ele>1258.5029296875</ele>
        <time>2012-06-09T16:59:30Z</time>
      </trkpt>
      <trkpt lat="42.70148" lon="1.6602">
        <ele>1258.0224609375</ele>
        <time>2012-06-09T16:59:31Z</time>
      </trkpt>
      <trkpt lat="42.70151" lon="1.66029">
        <ele>1256.5803222656</ele>
        <time>2012-06-09T16:59:38Z</time>
      </trkpt>
      <trkpt lat="42.70153" lon="1.66039">
        <ele>1258.9836425781</ele>
        <time>2012-06-09T16:59:43Z</time>
      </trkpt>
      <trkpt lat="42.70156" lon="1.66043">
        <ele>1258.5029296875</ele>
        <time>2012-06-09T16:59:46Z</time>
      </trkpt>
      <trkpt lat="42.7016" lon="1.66047">
        <ele>1259.9448242188</ele>
        <time>2012-06-09T16:59:49Z</time>
      </trkpt>
      <trkpt lat="42.70161" lon="1.66052">
        <ele>1260.42578125</ele>
        <time>2012-06-09T16:59:52Z</time>
      </trkpt>
      <trkpt lat="42.70163" lon="1.66065">
        <ele>1261.3872070312</ele>
        <time>2012-06-09T16:59:57Z</time>
      </trkpt>
      <trkpt lat="42.70166" lon="1.66071">
        <ele>1260.42578125</ele>
        <time>2012-06-09T17:00:01Z</time>
      </trkpt>
      <trkpt lat="42.70173" lon="1.66075">
        <ele>1262.8291015625</ele>
        <time>2012-06-09T17:00:04Z</time>
      </trkpt>
      <trkpt lat="42.70177" lon="1.66086">
        <ele>1261.8679199219</ele>
        <time>2012-06-09T17:00:09Z</time>
      </trkpt>
      <trkpt lat="42.70182" lon="1.6609">
        <ele>1255.1384277344</ele>
        <time>2012-06-09T17:00:15Z</time>
      </trkpt>
      <trkpt lat="42.70185" lon="1.66093">
        <ele>1255.1384277344</ele>
        <time>2012-06-09T17:00:18Z</time>
      </trkpt>
      <trkpt lat="42.70189" lon="1.66102">
        <ele>1253.2158203125</ele>
        <time>2012-06-09T17:00:24Z</time>
      </trkpt>
      <trkpt lat="42.70195" lon="1.66108">
        <ele>1252.2543945312</ele>
        <time>2012-06-09T17:00:31Z</time>
      </trkpt>
      <trkpt lat="42.70197" lon="1.6611">
        <ele>1251.7739257812</ele>
        <time>2012-06-09T17:00:33Z</time>
      </trkpt>
      <trkpt lat="42.70199" lon="1.6611">
        <ele>1250.8125</ele>
        <time>2012-06-09T17:00:35Z</time>
      </trkpt>
      <trkpt lat="42.70205" lon="1.66117">
        <ele>1248.4091796875</ele>
        <time>2012-06-09T17:00:43Z</time>
      </trkpt>
      <trkpt lat="42.70208" lon="1.66121">
        <ele>1246.4868164062</ele>
        <time>2012-06-09T17:00:48Z</time>
      </trkpt>
      <trkpt lat="42.70213" lon="1.66127">
        <ele>1245.0446777344</ele>
        <time>2012-06-09T17:00:53Z</time>
      </trkpt>
      <trkpt lat="42.70214" lon="1.66131">
        <ele>1242.6413574219</ele>
        <time>2012-06-09T17:00:59Z</time>
      </trkpt>
      <trkpt lat="42.70221" lon="1.66136">
        <ele>1238.7961425781</ele>
        <time>2012-06-09T17:01:05Z</time>
      </trkpt>
      <trkpt lat="42.70226" lon="1.66136">
        <ele>1235.4313964844</ele>
        <time>2012-06-09T17:01:11Z</time>
      </trkpt>
      <trkpt lat="42.70229" lon="1.66139">
        <ele>1232.5476074219</ele>
        <time>2012-06-09T17:01:16Z</time>
      </trkpt>
      <trkpt lat="42.70236" lon="1.66143">
        <ele>1230.625</ele>
        <time>2012-06-09T17:01:22Z</time>
      </trkpt>
      <trkpt lat="42.7024" lon="1.66144">
        <ele>1230.1442871094</ele>
        <time>2012-06-09T17:01:25Z</time>
      </trkpt>
      <trkpt lat="42.70246" lon="1.66145">
        <ele>1229.1828613281</ele>
        <time>2012-06-09T17:01:30Z</time>
      </trkpt>
      <trkpt lat="42.7025" lon="1.66147">
        <ele>1228.7023925781</ele>
        <time>2012-06-09T17:01:35Z</time>
      </trkpt>
      <trkpt lat="42.70254" lon="1.66151">
        <ele>1230.1442871094</ele>
        <time>2012-06-09T17:01:40Z</time>
      </trkpt>
      <trkpt lat="42.70263" lon="1.66158">
        <ele>1234.4702148438</ele>
        <time>2012-06-09T17:01:46Z</time>
      </trkpt>
      <trkpt lat="42.70269" lon="1.66167">
        <ele>1233.5087890625</ele>
        <time>2012-06-09T17:01:51Z</time>
      </trkpt>
      <trkpt lat="42.7027" lon="1.66169">
        <ele>1233.0280761719</ele>
        <time>2012-06-09T17:01:52Z</time>
      </trkpt>
      <trkpt lat="42.7028" lon="1.66173">
        <ele>1229.6635742188</ele>
        <time>2012-06-09T17:02:00Z</time>
      </trkpt>
      <trkpt lat="42.70288" lon="1.66175">
        <ele>1228.7023925781</ele>
        <time>2012-06-09T17:02:06Z</time>
      </trkpt>
      <trkpt lat="42.70294" lon="1.66177">
        <ele>1225.3374023438</ele>
        <time>2012-06-09T17:02:13Z</time>
      </trkpt>
      <trkpt lat="42.70298" lon="1.66182">
        <ele>1223.4150390625</ele>
        <time>2012-06-09T17:02:17Z</time>
      </trkpt>
      <trkpt lat="42.70302" lon="1.66184">
        <ele>1221.01171875</ele>
        <time>2012-06-09T17:02:22Z</time>
      </trkpt>
      <trkpt lat="42.70306" lon="1.66189">
        <ele>1219.0891113281</ele>
        <time>2012-06-09T17:02:27Z</time>
      </trkpt>
      <trkpt lat="42.7031" lon="1.66192">
        <ele>1218.1276855469</ele>
        <time>2012-06-09T17:02:32Z</time>
      </trkpt>
      <trkpt lat="42.70314" lon="1.66194">
        <ele>1218.1276855469</ele>
        <time>2012-06-09T17:02:35Z</time>
      </trkpt>
      <trkpt lat="42.70321" lon="1.66196">
        <ele>1217.1665039062</ele>
        <time>2012-06-09T17:02:41Z</time>
      </trkpt>
      <trkpt lat="42.70325" lon="1.662">
        <ele>1216.205078125</ele>
        <time>2012-06-09T17:02:45Z</time>
      </trkpt>
      <trkpt lat="42.70331" lon="1.66205">
        <ele>1217.1665039062</ele>
        <time>2012-06-09T17:02:50Z</time>
      </trkpt>
      <trkpt lat="42.70337" lon="1.66205">
        <ele>1218.1276855469</ele>
        <time>2012-06-09T17:02:55Z</time>
      </trkpt>
      <trkpt lat="42.70342" lon="1.66205">
        <ele>1218.1276855469</ele>
        <time>2012-06-09T17:03:00Z</time>
      </trkpt>
      <trkpt lat="42.70345" lon="1.66206">
        <ele>1217.1665039062</ele>
        <time>2012-06-09T17:03:04Z</time>
      </trkpt>
      <trkpt lat="42.70354" lon="1.66205">
        <ele>1219.5698242188</ele>
        <time>2012-06-09T17:03:10Z</time>
      </trkpt>
      <trkpt lat="42.70359" lon="1.66204">
        <ele>1218.6083984375</ele>
        <time>2012-06-09T17:03:14Z</time>
      </trkpt>
      <trkpt lat="42.70366" lon="1.66202">
        <ele>1218.6083984375</ele>
        <time>2012-06-09T17:03:19Z</time>
      </trkpt>
      <trkpt lat="42.70375" lon="1.66202">
        <ele>1216.6857910156</ele>
        <time>2012-06-09T17:03:24Z</time>
      </trkpt>
      <trkpt lat="42.70378" lon="1.66202">
        <ele>1216.205078125</ele>
        <time>2012-06-09T17:03:27Z</time>
      </trkpt>
      <trkpt lat="42.70382" lon="1.66199">
        <ele>1213.8017578125</ele>
        <time>2012-06-09T17:03:31Z</time>
      </trkpt>
      <trkpt lat="42.70383" lon="1.66195">
        <ele>1208.0339355469</ele>
        <time>2012-06-09T17:03:36Z</time>
      </trkpt>
      <trkpt lat="42.7039" lon="1.66193">
        <ele>1208.0339355469</ele>
        <time>2012-06-09T17:03:45Z</time>
      </trkpt>
      <trkpt lat="42.70393" lon="1.6619">
        <ele>1208.0339355469</ele>
        <time>2012-06-09T17:03:49Z</time>
      </trkpt>
      <trkpt lat="42.70396" lon="1.6619">
        <ele>1208.9951171875</ele>
        <time>2012-06-09T17:03:51Z</time>
      </trkpt>
      <trkpt lat="42.70404" lon="1.66191">
        <ele>1213.8017578125</ele>
        <time>2012-06-09T17:03:57Z</time>
      </trkpt>
      <trkpt lat="42.70411" lon="1.66187">
        <ele>1214.7631835938</ele>
        <time>2012-06-09T17:04:02Z</time>
      </trkpt>
      <trkpt lat="42.70413" lon="1.66187">
        <ele>1214.7631835938</ele>
        <time>2012-06-09T17:04:04Z</time>
      </trkpt>
      <trkpt lat="42.70415" lon="1.66187">
        <ele>1213.8017578125</ele>
        <time>2012-06-09T17:04:06Z</time>
      </trkpt>
      <trkpt lat="42.7042" lon="1.66188">
        <ele>1211.3984375</ele>
        <time>2012-06-09T17:04:12Z</time>
      </trkpt>
      <trkpt lat="42.70424" lon="1.66188">
        <ele>1210.9177246094</ele>
        <time>2012-06-09T17:04:15Z</time>
      </trkpt>
      <trkpt lat="42.70431" lon="1.66186">
        <ele>1211.8791503906</ele>
        <time>2012-06-09T17:04:20Z</time>
      </trkpt>
      <trkpt lat="42.70438" lon="1.66185">
        <ele>1208.9951171875</ele>
        <time>2012-06-09T17:04:28Z</time>
      </trkpt>
      <trkpt lat="42.7044" lon="1.66186">
        <ele>1206.591796875</ele>
        <time>2012-06-09T17:04:34Z</time>
      </trkpt>
      <trkpt lat="42.70442" lon="1.66189">
        <ele>1202.2658691406</ele>
        <time>2012-06-09T17:04:45Z</time>
      </trkpt>
      <trkpt lat="42.70444" lon="1.66193">
        <ele>1203.7080078125</ele>
        <time>2012-06-09T17:04:50Z</time>
      </trkpt>
      <trkpt lat="42.70448" lon="1.66196">
        <ele>1204.1887207031</ele>
        <time>2012-06-09T17:04:54Z</time>
      </trkpt>
      <trkpt lat="42.70452" lon="1.66196">
        <ele>1199.3820800781</ele>
        <time>2012-06-09T17:05:05Z</time>
      </trkpt>
      <trkpt lat="42.70456" lon="1.66199">
        <ele>1197.4594726562</ele>
        <time>2012-06-09T17:05:10Z</time>
      </trkpt>
      <trkpt lat="42.70452" lon="1.66202">
        <ele>1194.5751953125</ele>
        <time>2012-06-09T17:05:15Z</time>
      </trkpt>
      <trkpt lat="42.70449" lon="1.66205">
        <ele>1191.2106933594</ele>
        <time>2012-06-09T17:05:19Z</time>
      </trkpt>
      <trkpt lat="42.70448" lon="1.66213">
        <ele>1188.3269042969</ele>
        <time>2012-06-09T17:05:27Z</time>
      </trkpt>
      <trkpt lat="42.70448" lon="1.66217">
        <ele>1187.8461914062</ele>
        <time>2012-06-09T17:05:31Z</time>
      </trkpt>
      <trkpt lat="42.70447" lon="1.66224">
        <ele>1184.0009765625</ele>
        <time>2012-06-09T17:05:37Z</time>
      </trkpt>
      <trkpt lat="42.7045" lon="1.66229">
        <ele>1183.5202636719</ele>
        <time>2012-06-09T17:05:42Z</time>
      </trkpt>
      <trkpt lat="42.70452" lon="1.66233">
        <ele>1183.5202636719</ele>
        <time>2012-06-09T17:05:46Z</time>
      </trkpt>
      <trkpt lat="42.70453" lon="1.66235">
        <ele>1183.5202636719</ele>
        <time>2012-06-09T17:05:47Z</time>
      </trkpt>
      <trkpt lat="42.70459" lon="1.66239">
        <ele>1186.404296875</ele>
        <time>2012-06-09T17:05:52Z</time>
      </trkpt>
      <trkpt lat="42.7046" lon="1.6624">
        <ele>1186.404296875</ele>
        <time>2012-06-09T17:05:54Z</time>
      </trkpt>
      <trkpt lat="42.70463" lon="1.6624">
        <ele>1185.9235839844</ele>
        <time>2012-06-09T17:05:56Z</time>
      </trkpt>
      <trkpt lat="42.70466" lon="1.66241">
        <ele>1184.4816894531</ele>
        <time>2012-06-09T17:05:59Z</time>
      </trkpt>
      <trkpt lat="42.7047" lon="1.66242">
        <ele>1184.0009765625</ele>
        <time>2012-06-09T17:06:02Z</time>
      </trkpt>
      <trkpt lat="42.7047" lon="1.66245">
        <ele>1180.6364746094</ele>
        <time>2012-06-09T17:06:05Z</time>
      </trkpt>
      <trkpt lat="42.70471" lon="1.66247">
        <ele>1178.2329101562</ele>
        <time>2012-06-09T17:06:08Z</time>
      </trkpt>
      <trkpt lat="42.70468" lon="1.66252">
        <ele>1174.8684082031</ele>
        <time>2012-06-09T17:06:14Z</time>
      </trkpt>
      <trkpt lat="42.70467" lon="1.66261">
        <ele>1172.9458007812</ele>
        <time>2012-06-09T17:06:22Z</time>
      </trkpt>
      <trkpt lat="42.70465" lon="1.66268">
        <ele>1171.5036621094</ele>
        <time>2012-06-09T17:06:25Z</time>
      </trkpt>
      <trkpt lat="42.70459" lon="1.66274">
        <ele>1170.5424804688</ele>
        <time>2012-06-09T17:06:30Z</time>
      </trkpt>
      <trkpt lat="42.70456" lon="1.66281">
        <ele>1168.6198730469</ele>
        <time>2012-06-09T17:06:35Z</time>
      </trkpt>
      <trkpt lat="42.70454" lon="1.66288">
        <ele>1166.2165527344</ele>
        <time>2012-06-09T17:06:41Z</time>
      </trkpt>
      <trkpt lat="42.70453" lon="1.66291">
        <ele>1164.7746582031</ele>
        <time>2012-06-09T17:06:47Z</time>
      </trkpt>
      <trkpt lat="42.70454" lon="1.66295">
        <ele>1162.37109375</ele>
        <time>2012-06-09T17:06:52Z</time>
      </trkpt>
      <trkpt lat="42.70451" lon="1.66298">
        <ele>1159.9677734375</ele>
        <time>2012-06-09T17:06:57Z</time>
      </trkpt>
      <trkpt lat="42.7045" lon="1.66299">
        <ele>1158.0454101562</ele>
        <time>2012-06-09T17:07:02Z</time>
      </trkpt>
      <trkpt lat="42.70452" lon="1.663">
        <ele>1157.5646972656</ele>
        <time>2012-06-09T17:07:04Z</time>
      </trkpt>
      <trkpt lat="42.70454" lon="1.66303">
        <ele>1156.6032714844</ele>
        <time>2012-06-09T17:07:10Z</time>
      </trkpt>
      <trkpt lat="42.70451" lon="1.66313">
        <ele>1155.1613769531</ele>
        <time>2012-06-09T17:07:24Z</time>
      </trkpt>
      <trkpt lat="42.70449" lon="1.66315">
        <ele>1154.2001953125</ele>
        <time>2012-06-09T17:07:29Z</time>
      </trkpt>
      <trkpt lat="42.70446" lon="1.66318">
        <ele>1153.7194824219</ele>
        <time>2012-06-09T17:07:34Z</time>
      </trkpt>
      <trkpt lat="42.70448" lon="1.66321">
        <ele>1152.27734375</ele>
        <time>2012-06-09T17:07:41Z</time>
      </trkpt>
      <trkpt lat="42.70452" lon="1.6632">
        <ele>1152.27734375</ele>
        <time>2012-06-09T17:07:46Z</time>
      </trkpt>
      <trkpt lat="42.70455" lon="1.66322">
        <ele>1151.3161621094</ele>
        <time>2012-06-09T17:07:50Z</time>
      </trkpt>
      <trkpt lat="42.70457" lon="1.66321">
        <ele>1148.4321289062</ele>
        <time>2012-06-09T17:07:56Z</time>
      </trkpt>
      <trkpt lat="42.7046" lon="1.66326">
        <ele>1146.5095214844</ele>
        <time>2012-06-09T17:08:06Z</time>
      </trkpt>
      <trkpt lat="42.70457" lon="1.66334">
        <ele>1144.5866699219</ele>
        <time>2012-06-09T17:08:14Z</time>
      </trkpt>
      <trkpt lat="42.70456" lon="1.66336">
        <ele>1141.7028808594</ele>
        <time>2012-06-09T17:08:19Z</time>
      </trkpt>
      <trkpt lat="42.70463" lon="1.66339">
        <ele>1139.7802734375</ele>
        <time>2012-06-09T17:08:32Z</time>
      </trkpt>
      <trkpt lat="42.70469" lon="1.6634">
        <ele>1139.7802734375</ele>
        <time>2012-06-09T17:08:38Z</time>
      </trkpt>
      <trkpt lat="42.7047" lon="1.6634">
        <ele>1140.2609863281</ele>
        <time>2012-06-09T17:08:39Z</time>
      </trkpt>
      <trkpt lat="42.70476" lon="1.6634">
        <ele>1139.7802734375</ele>
        <time>2012-06-09T17:08:45Z</time>
      </trkpt>
      <trkpt lat="42.70474" lon="1.66348">
        <ele>1137.376953125</ele>
        <time>2012-06-09T17:08:51Z</time>
      </trkpt>
      <trkpt lat="42.70471" lon="1.66352">
        <ele>1134.9738769531</ele>
        <time>2012-06-09T17:08:57Z</time>
      </trkpt>
      <trkpt lat="42.70473" lon="1.66356">
        <ele>1138.3383789062</ele>
        <time>2012-06-09T17:09:04Z</time>
      </trkpt>
      <trkpt lat="42.70477" lon="1.66356">
        <ele>1137.376953125</ele>
        <time>2012-06-09T17:09:08Z</time>
      </trkpt>
      <trkpt lat="42.70485" lon="1.66356">
        <ele>1135.4543457031</ele>
        <time>2012-06-09T17:09:15Z</time>
      </trkpt>
      <trkpt lat="42.70484" lon="1.66355">
        <ele>1132.08984375</ele>
        <time>2012-06-09T17:09:19Z</time>
      </trkpt>
      <trkpt lat="42.70479" lon="1.66349">
        <ele>1128.7250976562</ele>
        <time>2012-06-09T17:09:25Z</time>
      </trkpt>
      <trkpt lat="42.70484" lon="1.66349">
        <ele>1127.763671875</ele>
        <time>2012-06-09T17:09:30Z</time>
      </trkpt>
      <trkpt lat="42.70487" lon="1.66348">
        <ele>1128.2443847656</ele>
        <time>2012-06-09T17:09:35Z</time>
      </trkpt>
      <trkpt lat="42.70499" lon="1.66345">
        <ele>1125.8410644531</ele>
        <time>2012-06-09T17:09:49Z</time>
      </trkpt>
      <trkpt lat="42.70496" lon="1.66353">
        <ele>1122.9572753906</ele>
        <time>2012-06-09T17:09:55Z</time>
      </trkpt>
      <trkpt lat="42.70495" lon="1.66354">
        <ele>1122.9572753906</ele>
        <time>2012-06-09T17:09:56Z</time>
      </trkpt>
      <trkpt lat="42.70497" lon="1.66359">
        <ele>1121.9958496094</ele>
        <time>2012-06-09T17:10:02Z</time>
      </trkpt>
      <trkpt lat="42.70509" lon="1.66363">
        <ele>1119.1120605469</ele>
        <time>2012-06-09T17:10:07Z</time>
      </trkpt>
      <trkpt lat="42.70517" lon="1.66368">
        <ele>1117.189453125</ele>
        <time>2012-06-09T17:10:13Z</time>
      </trkpt>
      <trkpt lat="42.70516" lon="1.66371">
        <ele>1117.669921875</ele>
        <time>2012-06-09T17:10:15Z</time>
      </trkpt>
      <trkpt lat="42.70517" lon="1.66376">
        <ele>1114.3051757812</ele>
        <time>2012-06-09T17:10:19Z</time>
      </trkpt>
      <trkpt lat="42.7052" lon="1.66379">
        <ele>1113.8244628906</ele>
        <time>2012-06-09T17:10:23Z</time>
      </trkpt>
      <trkpt lat="42.70521" lon="1.6638">
        <ele>1112.3825683594</ele>
        <time>2012-06-09T17:10:25Z</time>
      </trkpt>
      <trkpt lat="42.70528" lon="1.66383">
        <ele>1110.9406738281</ele>
        <time>2012-06-09T17:10:29Z</time>
      </trkpt>
      <trkpt lat="42.70531" lon="1.66391">
        <ele>1109.0180664062</ele>
        <time>2012-06-09T17:10:35Z</time>
      </trkpt>
      <trkpt lat="42.70535" lon="1.66395">
        <ele>1108.0568847656</ele>
        <time>2012-06-09T17:10:40Z</time>
      </trkpt>
      <trkpt lat="42.70539" lon="1.66396">
        <ele>1109.4987792969</ele>
        <time>2012-06-09T17:10:45Z</time>
      </trkpt>
      <trkpt lat="42.70525" lon="1.66402">
        <ele>1118.6313476562</ele>
        <time>2012-06-09T17:10:53Z</time>
      </trkpt>
      <trkpt lat="42.70503" lon="1.66405">
        <ele>1126.8024902344</ele>
        <time>2012-06-09T17:11:02Z</time>
      </trkpt>
      <trkpt lat="42.70504" lon="1.66404">
        <ele>1121.5151367188</ele>
        <time>2012-06-09T17:11:11Z</time>
      </trkpt>
      <trkpt lat="42.7051" lon="1.66408">
        <ele>1120.0732421875</ele>
        <time>2012-06-09T17:11:15Z</time>
      </trkpt>
      <trkpt lat="42.70514" lon="1.66408">
        <ele>1116.7087402344</ele>
        <time>2012-06-09T17:11:17Z</time>
      </trkpt>
      <trkpt lat="42.70519" lon="1.66413">
        <ele>1111.4213867188</ele>
        <time>2012-06-09T17:11:21Z</time>
      </trkpt>
      <trkpt lat="42.70527" lon="1.66421">
        <ele>1107.576171875</ele>
        <time>2012-06-09T17:11:30Z</time>
      </trkpt>
      <trkpt lat="42.70526" lon="1.66427">
        <ele>1106.1340332031</ele>
        <time>2012-06-09T17:11:34Z</time>
      </trkpt>
      <trkpt lat="42.7053" lon="1.66442">
        <ele>1104.6921386719</ele>
        <time>2012-06-09T17:11:43Z</time>
      </trkpt>
      <trkpt lat="42.7053" lon="1.66447">
        <ele>1104.2116699219</ele>
        <time>2012-06-09T17:11:47Z</time>
      </trkpt>
      <trkpt lat="42.70533" lon="1.66452">
        <ele>1104.2116699219</ele>
        <time>2012-06-09T17:11:53Z</time>
      </trkpt>
      <trkpt lat="42.70533" lon="1.66458">
        <ele>1104.2116699219</ele>
        <time>2012-06-09T17:11:58Z</time>
      </trkpt>
      <trkpt lat="42.70531" lon="1.66461">
        <ele>1105.6535644531</ele>
        <time>2012-06-09T17:12:02Z</time>
      </trkpt>
      <trkpt lat="42.70528" lon="1.66464">
        <ele>1107.0954589844</ele>
        <time>2012-06-09T17:12:06Z</time>
      </trkpt>
      <trkpt lat="42.70522" lon="1.66467">
        <ele>1108.5373535156</ele>
        <time>2012-06-09T17:12:11Z</time>
      </trkpt>
      <trkpt lat="42.70518" lon="1.66468">
        <ele>1109.0180664062</ele>
        <time>2012-06-09T17:12:14Z</time>
      </trkpt>
      <trkpt lat="42.70509" lon="1.66471">
        <ele>1110.4599609375</ele>
        <time>2012-06-09T17:12:22Z</time>
      </trkpt>
      <trkpt lat="42.70501" lon="1.66472">
        <ele>1111.9020996094</ele>
        <time>2012-06-09T17:12:30Z</time>
      </trkpt>
      <trkpt lat="42.70497" lon="1.66471">
        <ele>1109.4987792969</ele>
        <time>2012-06-09T17:12:37Z</time>
      </trkpt>
      <trkpt lat="42.70496" lon="1.6647">
        <ele>1108.5373535156</ele>
        <time>2012-06-09T17:12:41Z</time>
      </trkpt>
    </trkseg>
  </trk>
</gpx>